<?xml version='1.0' encoding='UTF-8'?><gpx version="1.1" creator="JPX - https://github.com/jenetics/jpx" xmlns="http://www.topografix.com/GPX/1/1"><trk><trkseg><trkpt lat="45.0250858" lon="11.6405937"><ele>7.000000000000001</ele><time>2026-03-22T06:51:20.546Z</time></trkpt><trkpt lat="45.0251444" lon="11.6407392"><ele>7.0</ele><time>2026-03-22T06:51:26.145Z</time></trkpt><trkpt lat="45.0251728" lon="11.6406507"><ele>7.0</ele><time>2026-03-22T06:52:04.092Z</time></trkpt><trkpt lat="45.0251478" lon="11.6405679"><ele>7.0</ele><time>2026-03-22T06:52:14.133Z</time></trkpt><trkpt lat="45.025103" lon="11.6406322"><ele>7.000000000000001</ele><time>2026-03-22T06:52:31.172Z</time></trkpt><trkpt lat="45.0250991" lon="11.6407218"><ele>7.0</ele><time>2026-03-22T06:53:06.148Z</time></trkpt><trkpt lat="45.0251823" lon="11.6406594"><ele>7.000000000000001</ele><time>2026-03-22T06:54:09.162Z</time></trkpt><trkpt lat="45.0250978" lon="11.6406234"><ele>7.0</ele><time>2026-03-22T06:55:43.182Z</time></trkpt><trkpt lat="45.0251319" lon="11.6405389"><ele>7.0</ele><time>2026-03-22T06:55:48.221Z</time></trkpt><trkpt lat="45.0251674" lon="11.6404648"><ele>7.0</ele><time>2026-03-22T06:55:51.211Z</time></trkpt><trkpt lat="45.0252402" lon="11.6403964"><ele>7.000000000000001</ele><time>2026-03-22T06:55:54.159Z</time></trkpt><trkpt lat="45.0253167" lon="11.6403817"><ele>7.0</ele><time>2026-03-22T06:55:56.16Z</time></trkpt><trkpt lat="45.0253883" lon="11.6403267"><ele>7.0</ele><time>2026-03-22T06:55:59.152Z</time></trkpt><trkpt lat="45.0254517" lon="11.6403"><ele>7.0</ele><time>2026-03-22T06:56:01.152Z</time></trkpt><trkpt lat="45.0255317" lon="11.6402683"><ele>7.0</ele><time>2026-03-22T06:56:04.157Z</time></trkpt><trkpt lat="45.02563" lon="11.6402483"><ele>7.0</ele><time>2026-03-22T06:56:07.156Z</time></trkpt><trkpt lat="45.025695" lon="11.6402433"><ele>7.0</ele><time>2026-03-22T06:56:09.156Z</time></trkpt><trkpt lat="45.02576" lon="11.6402417"><ele>7.0</ele><time>2026-03-22T06:56:11.149Z</time></trkpt><trkpt lat="45.0258233" lon="11.640245"><ele>7.0</ele><time>2026-03-22T06:56:13.161Z</time></trkpt><trkpt lat="45.0258983" lon="11.640255"><ele>7.166666666666667</ele><time>2026-03-22T06:56:15.158Z</time></trkpt><trkpt lat="45.0259833" lon="11.6402733"><ele>7.333333333333334</ele><time>2026-03-22T06:56:17.13Z</time></trkpt><trkpt lat="45.0260633" lon="11.6403"><ele>7.5</ele><time>2026-03-22T06:56:19.154Z</time></trkpt><trkpt lat="45.026145" lon="11.640325"><ele>7.666666666666666</ele><time>2026-03-22T06:56:21.151Z</time></trkpt><trkpt lat="45.0262233" lon="11.6403483"><ele>7.833333333333333</ele><time>2026-03-22T06:56:23.153Z</time></trkpt><trkpt lat="45.0263" lon="11.6403733"><ele>8.0</ele><time>2026-03-22T06:56:25.157Z</time></trkpt><trkpt lat="45.0263667" lon="11.64042"><ele>7.999999999999999</ele><time>2026-03-22T06:56:27.151Z</time></trkpt><trkpt lat="45.0264583" lon="11.6404783"><ele>8.0</ele><time>2026-03-22T06:56:30.156Z</time></trkpt><trkpt lat="45.0265283" lon="11.64052"><ele>8.0</ele><time>2026-03-22T06:56:32.158Z</time></trkpt><trkpt lat="45.0265917" lon="11.640565"><ele>8.0</ele><time>2026-03-22T06:56:34.157Z</time></trkpt><trkpt lat="45.026655" lon="11.6406117"><ele>7.999999999999999</ele><time>2026-03-22T06:56:36.158Z</time></trkpt><trkpt lat="45.0267067" lon="11.640675"><ele>8.0</ele><time>2026-03-22T06:56:38.136Z</time></trkpt><trkpt lat="45.0267767" lon="11.6407467"><ele>7.999999999999999</ele><time>2026-03-22T06:56:40.148Z</time></trkpt><trkpt lat="45.0268317" lon="11.64082"><ele>8.0</ele><time>2026-03-22T06:56:42.13Z</time></trkpt><trkpt lat="45.0269083" lon="11.6409017"><ele>8.0</ele><time>2026-03-22T06:56:44.152Z</time></trkpt><trkpt lat="45.02698" lon="11.640985"><ele>8.0</ele><time>2026-03-22T06:56:46.16Z</time></trkpt><trkpt lat="45.0270417" lon="11.641065"><ele>7.999999999999999</ele><time>2026-03-22T06:56:48.152Z</time></trkpt><trkpt lat="45.0271017" lon="11.6411367"><ele>8.0</ele><time>2026-03-22T06:56:51.154Z</time></trkpt><trkpt lat="45.027165" lon="11.6411817"><ele>7.833333333333333</ele><time>2026-03-22T06:56:54.156Z</time></trkpt><trkpt lat="45.027235" lon="11.64126"><ele>7.666666666666666</ele><time>2026-03-22T06:56:57.165Z</time></trkpt><trkpt lat="45.0272917" lon="11.641325"><ele>7.5</ele><time>2026-03-22T06:56:59.155Z</time></trkpt><trkpt lat="45.02735" lon="11.64139"><ele>7.333333333333334</ele><time>2026-03-22T06:57:01.159Z</time></trkpt><trkpt lat="45.02741" lon="11.6414483"><ele>7.166666666666667</ele><time>2026-03-22T06:57:03.135Z</time></trkpt><trkpt lat="45.0274817" lon="11.6415267"><ele>7.0</ele><time>2026-03-22T06:57:06.152Z</time></trkpt><trkpt lat="45.02754" lon="11.6415683"><ele>7.333333333333334</ele><time>2026-03-22T06:57:08.161Z</time></trkpt><trkpt lat="45.0276067" lon="11.6416233"><ele>7.666666666666667</ele><time>2026-03-22T06:57:10.151Z</time></trkpt><trkpt lat="45.0276733" lon="11.6416767"><ele>8.0</ele><time>2026-03-22T06:57:12.15Z</time></trkpt><trkpt lat="45.0277367" lon="11.6417367"><ele>8.333333333333334</ele><time>2026-03-22T06:57:14.158Z</time></trkpt><trkpt lat="45.0278017" lon="11.6417833"><ele>8.666666666666666</ele><time>2026-03-22T06:57:16.157Z</time></trkpt><trkpt lat="45.0278867" lon="11.6418267"><ele>9.0</ele><time>2026-03-22T06:57:19.155Z</time></trkpt><trkpt lat="45.027955" lon="11.6418583"><ele>9.000000000000002</ele><time>2026-03-22T06:57:21.154Z</time></trkpt><trkpt lat="45.0280317" lon="11.6418833"><ele>9.0</ele><time>2026-03-22T06:57:23.154Z</time></trkpt><trkpt lat="45.0281067" lon="11.6418967"><ele>9.0</ele><time>2026-03-22T06:57:25.164Z</time></trkpt><trkpt lat="45.0281783" lon="11.6419033"><ele>9.0</ele><time>2026-03-22T06:57:27.156Z</time></trkpt><trkpt lat="45.028255" lon="11.6419117"><ele>9.0</ele><time>2026-03-22T06:57:29.151Z</time></trkpt><trkpt lat="45.028325" lon="11.6419233"><ele>9.000000000000002</ele><time>2026-03-22T06:57:31.145Z</time></trkpt><trkpt lat="45.0283917" lon="11.6419317"><ele>9.0</ele><time>2026-03-22T06:57:33.155Z</time></trkpt><trkpt lat="45.0284517" lon="11.641975"><ele>9.166666666666666</ele><time>2026-03-22T06:57:35.134Z</time></trkpt><trkpt lat="45.0284767" lon="11.6420717"><ele>9.333333333333334</ele><time>2026-03-22T06:57:37.155Z</time></trkpt><trkpt lat="45.0284817" lon="11.6421883"><ele>9.5</ele><time>2026-03-22T06:57:39.155Z</time></trkpt><trkpt lat="45.0285067" lon="11.6423183"><ele>9.666666666666668</ele><time>2026-03-22T06:57:41.158Z</time></trkpt><trkpt lat="45.02852" lon="11.6424467"><ele>9.833333333333334</ele><time>2026-03-22T06:57:43.161Z</time></trkpt><trkpt lat="45.0285383" lon="11.64256"><ele>10.0</ele><time>2026-03-22T06:57:45.157Z</time></trkpt><trkpt lat="45.028555" lon="11.6426783"><ele>10.166666666666668</ele><time>2026-03-22T06:57:47.155Z</time></trkpt><trkpt lat="45.0285783" lon="11.6427983"><ele>10.333333333333334</ele><time>2026-03-22T06:57:49.156Z</time></trkpt><trkpt lat="45.0285967" lon="11.6429167"><ele>10.5</ele><time>2026-03-22T06:57:51.136Z</time></trkpt><trkpt lat="45.02861" lon="11.6430317"><ele>10.666666666666666</ele><time>2026-03-22T06:57:53.165Z</time></trkpt><trkpt lat="45.0286267" lon="11.64315"><ele>10.833333333333332</ele><time>2026-03-22T06:57:55.155Z</time></trkpt><trkpt lat="45.02864" lon="11.643275"><ele>11.0</ele><time>2026-03-22T06:57:57.163Z</time></trkpt><trkpt lat="45.0286283" lon="11.643395"><ele>11.0</ele><time>2026-03-22T06:57:59.153Z</time></trkpt><trkpt lat="45.0286183" lon="11.6435217"><ele>11.0</ele><time>2026-03-22T06:58:01.155Z</time></trkpt><trkpt lat="45.0286183" lon="11.6436467"><ele>11.0</ele><time>2026-03-22T06:58:03.156Z</time></trkpt><trkpt lat="45.028575" lon="11.6437733"><ele>11.0</ele><time>2026-03-22T06:58:05.155Z</time></trkpt><trkpt lat="45.0285533" lon="11.6439033"><ele>11.0</ele><time>2026-03-22T06:58:07.149Z</time></trkpt><trkpt lat="45.0285417" lon="11.6440317"><ele>10.5</ele><time>2026-03-22T06:58:09.155Z</time></trkpt><trkpt lat="45.0285217" lon="11.644155"><ele>10.0</ele><time>2026-03-22T06:58:11.158Z</time></trkpt><trkpt lat="45.0285133" lon="11.64428"><ele>9.5</ele><time>2026-03-22T06:58:13.142Z</time></trkpt><trkpt lat="45.0285067" lon="11.6444"><ele>9.0</ele><time>2026-03-22T06:58:15.153Z</time></trkpt><trkpt lat="45.028525" lon="11.644495"><ele>8.5</ele><time>2026-03-22T06:58:18.156Z</time></trkpt><trkpt lat="45.0285683" lon="11.6445783"><ele>8.0</ele><time>2026-03-22T06:58:22.155Z</time></trkpt><trkpt lat="45.0286117" lon="11.64465"><ele>7.833333333333333</ele><time>2026-03-22T06:58:24.156Z</time></trkpt><trkpt lat="45.028665" lon="11.644715"><ele>7.666666666666666</ele><time>2026-03-22T06:58:26.13Z</time></trkpt><trkpt lat="45.0287083" lon="11.6447967"><ele>7.5</ele><time>2026-03-22T06:58:28.154Z</time></trkpt><trkpt lat="45.028705" lon="11.6449033"><ele>7.333333333333334</ele><time>2026-03-22T06:58:30.162Z</time></trkpt><trkpt lat="45.02868" lon="11.6450267"><ele>7.166666666666667</ele><time>2026-03-22T06:58:32.154Z</time></trkpt><trkpt lat="45.0286533" lon="11.6451617"><ele>7.0</ele><time>2026-03-22T06:58:34.148Z</time></trkpt><trkpt lat="45.0286267" lon="11.64529"><ele>7.0</ele><time>2026-03-22T06:58:36.165Z</time></trkpt><trkpt lat="45.0286" lon="11.6454183"><ele>6.999999999999999</ele><time>2026-03-22T06:58:38.148Z</time></trkpt><trkpt lat="45.0285683" lon="11.6455417"><ele>6.999999999999999</ele><time>2026-03-22T06:58:40.166Z</time></trkpt><trkpt lat="45.028535" lon="11.645665"><ele>7.0</ele><time>2026-03-22T06:58:42.171Z</time></trkpt><trkpt lat="45.0284917" lon="11.6457867"><ele>7.0</ele><time>2026-03-22T06:58:44.162Z</time></trkpt><trkpt lat="45.02848" lon="11.6459017"><ele>7.000000000000001</ele><time>2026-03-22T06:58:46.168Z</time></trkpt><trkpt lat="45.0285017" lon="11.6460183"><ele>7.0</ele><time>2026-03-22T06:58:48.168Z</time></trkpt><trkpt lat="45.0285417" lon="11.6461217"><ele>7.0</ele><time>2026-03-22T06:58:50.16Z</time></trkpt><trkpt lat="45.0286033" lon="11.646205"><ele>7.0</ele><time>2026-03-22T06:58:52.166Z</time></trkpt><trkpt lat="45.02866" lon="11.646285"><ele>7.000000000000001</ele><time>2026-03-22T06:58:54.158Z</time></trkpt><trkpt lat="45.0286917" lon="11.6463833"><ele>7.0</ele><time>2026-03-22T06:58:56.162Z</time></trkpt><trkpt lat="45.028695" lon="11.6464983"><ele>7.000000000000001</ele><time>2026-03-22T06:58:58.16Z</time></trkpt><trkpt lat="45.0286767" lon="11.6466117"><ele>7.0</ele><time>2026-03-22T06:59:00.163Z</time></trkpt><trkpt lat="45.0286467" lon="11.6467217"><ele>7.0</ele><time>2026-03-22T06:59:02.16Z</time></trkpt><trkpt lat="45.0286117" lon="11.6468417"><ele>7.0</ele><time>2026-03-22T06:59:04.158Z</time></trkpt><trkpt lat="45.0285817" lon="11.6469667"><ele>7.000000000000001</ele><time>2026-03-22T06:59:06.16Z</time></trkpt><trkpt lat="45.0285683" lon="11.6470883"><ele>7.0</ele><time>2026-03-22T06:59:08.165Z</time></trkpt><trkpt lat="45.0285433" lon="11.6472067"><ele>7.000000000000001</ele><time>2026-03-22T06:59:10.162Z</time></trkpt><trkpt lat="45.0285217" lon="11.6473283"><ele>7.0</ele><time>2026-03-22T06:59:12.142Z</time></trkpt><trkpt lat="45.028495" lon="11.6474533"><ele>7.0</ele><time>2026-03-22T06:59:14.145Z</time></trkpt><trkpt lat="45.02847" lon="11.6475767"><ele>7.0</ele><time>2026-03-22T06:59:16.164Z</time></trkpt><trkpt lat="45.0284467" lon="11.6476933"><ele>7.000000000000001</ele><time>2026-03-22T06:59:18.13Z</time></trkpt><trkpt lat="45.02842" lon="11.6478"><ele>7.0</ele><time>2026-03-22T06:59:20.155Z</time></trkpt><trkpt lat="45.0284083" lon="11.647905"><ele>7.0</ele><time>2026-03-22T06:59:23.161Z</time></trkpt><trkpt lat="45.0284633" lon="11.64795"><ele>7.0</ele><time>2026-03-22T06:59:26.165Z</time></trkpt><trkpt lat="45.02854" lon="11.647965"><ele>7.0</ele><time>2026-03-22T06:59:30.159Z</time></trkpt><trkpt lat="45.028575" lon="11.6478817"><ele>7.0</ele><time>2026-03-22T07:00:40.131Z</time></trkpt><trkpt lat="45.0286417" lon="11.6478883"><ele>7.0</ele><time>2026-03-22T07:01:00.158Z</time></trkpt><trkpt lat="45.0287067" lon="11.6479467"><ele>7.0</ele><time>2026-03-22T07:01:06.157Z</time></trkpt><trkpt lat="45.02877" lon="11.6479817"><ele>7.0</ele><time>2026-03-22T07:01:11.163Z</time></trkpt><trkpt lat="45.0287067" lon="11.6479433"><ele>7.0</ele><time>2026-03-22T07:01:24.163Z</time></trkpt><trkpt lat="45.028645" lon="11.6479"><ele>7.0</ele><time>2026-03-22T07:01:30.136Z</time></trkpt><trkpt lat="45.028595" lon="11.647845"><ele>7.0</ele><time>2026-03-22T07:01:36.156Z</time></trkpt><trkpt lat="45.028665" lon="11.647865"><ele>7.0</ele><time>2026-03-22T07:01:52.156Z</time></trkpt><trkpt lat="45.0286117" lon="11.6479217"><ele>7.0</ele><time>2026-03-22T07:02:05.166Z</time></trkpt><trkpt lat="45.0285783" lon="11.64784"><ele>7.0</ele><time>2026-03-22T07:02:11.163Z</time></trkpt><trkpt lat="45.028605" lon="11.6479283"><ele>7.0</ele><time>2026-03-22T07:02:19.156Z</time></trkpt><trkpt lat="45.0286667" lon="11.6478967"><ele>7.0</ele><time>2026-03-22T07:02:24.156Z</time></trkpt><trkpt lat="45.0287317" lon="11.6478933"><ele>7.0</ele><time>2026-03-22T07:02:29.159Z</time></trkpt><trkpt lat="45.0286567" lon="11.647885"><ele>7.0</ele><time>2026-03-22T07:11:30.157Z</time></trkpt><trkpt lat="45.0285933" lon="11.6479117"><ele>7.0</ele><time>2026-03-22T07:11:34.158Z</time></trkpt><trkpt lat="45.028525" lon="11.6479317"><ele>7.0</ele><time>2026-03-22T07:11:37.154Z</time></trkpt><trkpt lat="45.0284533" lon="11.647925"><ele>7.0</ele><time>2026-03-22T07:11:40.157Z</time></trkpt><trkpt lat="45.0283683" lon="11.6479017"><ele>7.0</ele><time>2026-03-22T07:11:43.157Z</time></trkpt><trkpt lat="45.0282817" lon="11.6478633"><ele>6.857142857142857</ele><time>2026-03-22T07:11:46.157Z</time></trkpt><trkpt lat="45.02822" lon="11.6478383"><ele>6.714285714285714</ele><time>2026-03-22T07:11:48.154Z</time></trkpt><trkpt lat="45.0281533" lon="11.6478133"><ele>6.571428571428571</ele><time>2026-03-22T07:11:50.158Z</time></trkpt><trkpt lat="45.0280817" lon="11.6477817"><ele>6.428571428571429</ele><time>2026-03-22T07:11:52.161Z</time></trkpt><trkpt lat="45.0280167" lon="11.6477517"><ele>6.285714285714286</ele><time>2026-03-22T07:11:54.165Z</time></trkpt><trkpt lat="45.0279417" lon="11.64772"><ele>6.142857142857142</ele><time>2026-03-22T07:11:56.167Z</time></trkpt><trkpt lat="45.027865" lon="11.64769"><ele>6.0</ele><time>2026-03-22T07:11:58.145Z</time></trkpt><trkpt lat="45.02779" lon="11.6476617"><ele>6.0</ele><time>2026-03-22T07:12:00.161Z</time></trkpt><trkpt lat="45.027715" lon="11.6476183"><ele>6.0</ele><time>2026-03-22T07:12:02.166Z</time></trkpt><trkpt lat="45.027635" lon="11.6475867"><ele>6.0</ele><time>2026-03-22T07:12:04.153Z</time></trkpt><trkpt lat="45.0275517" lon="11.647555"><ele>6.0</ele><time>2026-03-22T07:12:06.156Z</time></trkpt><trkpt lat="45.02747" lon="11.6475217"><ele>6.0</ele><time>2026-03-22T07:12:08.163Z</time></trkpt><trkpt lat="45.0273867" lon="11.647485"><ele>6.0</ele><time>2026-03-22T07:12:10.142Z</time></trkpt><trkpt lat="45.0273067" lon="11.6474483"><ele>6.0</ele><time>2026-03-22T07:12:12.158Z</time></trkpt><trkpt lat="45.0272267" lon="11.6474133"><ele>6.0</ele><time>2026-03-22T07:12:14.146Z</time></trkpt><trkpt lat="45.0271467" lon="11.647375"><ele>6.0</ele><time>2026-03-22T07:12:16.154Z</time></trkpt><trkpt lat="45.0270617" lon="11.64733"><ele>6.0</ele><time>2026-03-22T07:12:18.154Z</time></trkpt><trkpt lat="45.0269817" lon="11.6472867"><ele>6.0</ele><time>2026-03-22T07:12:20.161Z</time></trkpt><trkpt lat="45.0269" lon="11.6472533"><ele>6.0</ele><time>2026-03-22T07:12:22.161Z</time></trkpt><trkpt lat="45.0268317" lon="11.6472483"><ele>6.0</ele><time>2026-03-22T07:12:24.157Z</time></trkpt><trkpt lat="45.026765" lon="11.6472917"><ele>6.0</ele><time>2026-03-22T07:12:26.165Z</time></trkpt><trkpt lat="45.0267217" lon="11.6473917"><ele>6.0</ele><time>2026-03-22T07:12:28.165Z</time></trkpt><trkpt lat="45.0267133" lon="11.647525"><ele>6.0</ele><time>2026-03-22T07:12:30.146Z</time></trkpt><trkpt lat="45.0267133" lon="11.647655"><ele>6.0</ele><time>2026-03-22T07:12:32.166Z</time></trkpt><trkpt lat="45.02672" lon="11.6477783"><ele>6.0</ele><time>2026-03-22T07:12:34.162Z</time></trkpt><trkpt lat="45.0267233" lon="11.6479067"><ele>6.0</ele><time>2026-03-22T07:12:36.164Z</time></trkpt><trkpt lat="45.02673" lon="11.6480383"><ele>6.0</ele><time>2026-03-22T07:12:38.163Z</time></trkpt><trkpt lat="45.0267383" lon="11.6481717"><ele>6.0</ele><time>2026-03-22T07:12:40.141Z</time></trkpt><trkpt lat="45.0267417" lon="11.648315"><ele>6.0</ele><time>2026-03-22T07:12:42.153Z</time></trkpt><trkpt lat="45.02675" lon="11.648455"><ele>6.0</ele><time>2026-03-22T07:12:44.165Z</time></trkpt><trkpt lat="45.0267567" lon="11.6485967"><ele>6.0</ele><time>2026-03-22T07:12:46.153Z</time></trkpt><trkpt lat="45.0267667" lon="11.6487367"><ele>6.0</ele><time>2026-03-22T07:12:48.166Z</time></trkpt><trkpt lat="45.0267733" lon="11.648875"><ele>6.0</ele><time>2026-03-22T07:12:50.162Z</time></trkpt><trkpt lat="45.0267783" lon="11.6490217"><ele>6.0</ele><time>2026-03-22T07:12:52.166Z</time></trkpt><trkpt lat="45.0267833" lon="11.6491617"><ele>6.0</ele><time>2026-03-22T07:12:54.164Z</time></trkpt><trkpt lat="45.026785" lon="11.649305"><ele>6.0</ele><time>2026-03-22T07:12:56.159Z</time></trkpt><trkpt lat="45.0267883" lon="11.6494467"><ele>6.0</ele><time>2026-03-22T07:12:58.234Z</time></trkpt><trkpt lat="45.0268" lon="11.649595"><ele>6.0</ele><time>2026-03-22T07:13:00.16Z</time></trkpt><trkpt lat="45.0268033" lon="11.649745"><ele>6.0</ele><time>2026-03-22T07:13:02.165Z</time></trkpt><trkpt lat="45.0268067" lon="11.64989"><ele>6.0</ele><time>2026-03-22T07:13:04.164Z</time></trkpt><trkpt lat="45.026815" lon="11.65004"><ele>6.0</ele><time>2026-03-22T07:13:06.164Z</time></trkpt><trkpt lat="45.026815" lon="11.6501967"><ele>6.0</ele><time>2026-03-22T07:13:08.164Z</time></trkpt><trkpt lat="45.026815" lon="11.6503467"><ele>6.0</ele><time>2026-03-22T07:13:10.163Z</time></trkpt><trkpt lat="45.02682" lon="11.6504933"><ele>6.0</ele><time>2026-03-22T07:13:12.154Z</time></trkpt><trkpt lat="45.0268283" lon="11.6506333"><ele>6.0</ele><time>2026-03-22T07:13:14.14Z</time></trkpt><trkpt lat="45.026835" lon="11.6507733"><ele>6.0</ele><time>2026-03-22T07:13:16.159Z</time></trkpt><trkpt lat="45.0268433" lon="11.650915"><ele>6.0</ele><time>2026-03-22T07:13:18.16Z</time></trkpt><trkpt lat="45.0268417" lon="11.6510583"><ele>6.0</ele><time>2026-03-22T07:13:20.161Z</time></trkpt><trkpt lat="45.02684" lon="11.6512017"><ele>6.0</ele><time>2026-03-22T07:13:22.164Z</time></trkpt><trkpt lat="45.0268483" lon="11.6513467"><ele>6.0</ele><time>2026-03-22T07:13:24.152Z</time></trkpt><trkpt lat="45.026855" lon="11.6514867"><ele>6.199999999999999</ele><time>2026-03-22T07:13:26.166Z</time></trkpt><trkpt lat="45.02685" lon="11.65164"><ele>6.3999999999999995</ele><time>2026-03-22T07:13:28.165Z</time></trkpt><trkpt lat="45.02685" lon="11.6517983"><ele>6.6</ele><time>2026-03-22T07:13:30.164Z</time></trkpt><trkpt lat="45.026855" lon="11.6519433"><ele>6.8</ele><time>2026-03-22T07:13:32.145Z</time></trkpt><trkpt lat="45.0268583" lon="11.6520983"><ele>7.0</ele><time>2026-03-22T07:13:34.157Z</time></trkpt><trkpt lat="45.0268583" lon="11.6522483"><ele>7.0</ele><time>2026-03-22T07:13:36.162Z</time></trkpt><trkpt lat="45.0268567" lon="11.6524033"><ele>6.999999999999999</ele><time>2026-03-22T07:13:38.165Z</time></trkpt><trkpt lat="45.0268533" lon="11.6525533"><ele>6.999999999999999</ele><time>2026-03-22T07:13:40.156Z</time></trkpt><trkpt lat="45.02685" lon="11.6527"><ele>7.0</ele><time>2026-03-22T07:13:42.164Z</time></trkpt><trkpt lat="45.026835" lon="11.6528367"><ele>7.0</ele><time>2026-03-22T07:13:44.157Z</time></trkpt><trkpt lat="45.026805" lon="11.652975"><ele>6.75</ele><time>2026-03-22T07:13:46.162Z</time></trkpt><trkpt lat="45.02677" lon="11.6531233"><ele>6.5</ele><time>2026-03-22T07:13:48.166Z</time></trkpt><trkpt lat="45.026735" lon="11.6532767"><ele>6.25</ele><time>2026-03-22T07:13:50.165Z</time></trkpt><trkpt lat="45.026705" lon="11.6534383"><ele>6.0</ele><time>2026-03-22T07:13:52.155Z</time></trkpt><trkpt lat="45.0266533" lon="11.6535833"><ele>6.0</ele><time>2026-03-22T07:13:54.163Z</time></trkpt><trkpt lat="45.026595" lon="11.6537317"><ele>6.0</ele><time>2026-03-22T07:13:56.165Z</time></trkpt><trkpt lat="45.0265317" lon="11.6538733"><ele>6.0</ele><time>2026-03-22T07:13:58.168Z</time></trkpt><trkpt lat="45.02646" lon="11.6540033"><ele>6.0</ele><time>2026-03-22T07:14:00.162Z</time></trkpt><trkpt lat="45.0263917" lon="11.6541267"><ele>6.0</ele><time>2026-03-22T07:14:02.166Z</time></trkpt><trkpt lat="45.0263167" lon="11.6542533"><ele>6.0</ele><time>2026-03-22T07:14:04.157Z</time></trkpt><trkpt lat="45.0262367" lon="11.6543733"><ele>6.0</ele><time>2026-03-22T07:14:06.156Z</time></trkpt><trkpt lat="45.0261667" lon="11.654495"><ele>6.0</ele><time>2026-03-22T07:14:08.155Z</time></trkpt><trkpt lat="45.02609" lon="11.654615"><ele>5.75</ele><time>2026-03-22T07:14:10.16Z</time></trkpt><trkpt lat="45.026015" lon="11.654735"><ele>5.5</ele><time>2026-03-22T07:14:12.166Z</time></trkpt><trkpt lat="45.02594" lon="11.6548583"><ele>5.25</ele><time>2026-03-22T07:14:14.162Z</time></trkpt><trkpt lat="45.0258683" lon="11.65499"><ele>5.0</ele><time>2026-03-22T07:14:16.16Z</time></trkpt><trkpt lat="45.0258017" lon="11.6551217"><ele>4.75</ele><time>2026-03-22T07:14:18.164Z</time></trkpt><trkpt lat="45.0257367" lon="11.6552583"><ele>4.5</ele><time>2026-03-22T07:14:20.166Z</time></trkpt><trkpt lat="45.0256817" lon="11.6554033"><ele>4.25</ele><time>2026-03-22T07:14:22.163Z</time></trkpt><trkpt lat="45.0256383" lon="11.655555"><ele>4.0</ele><time>2026-03-22T07:14:24.166Z</time></trkpt><trkpt lat="45.0256033" lon="11.6557133"><ele>4.0</ele><time>2026-03-22T07:14:26.157Z</time></trkpt><trkpt lat="45.0255783" lon="11.655875"><ele>4.0</ele><time>2026-03-22T07:14:28.166Z</time></trkpt><trkpt lat="45.025565" lon="11.6560433"><ele>4.0</ele><time>2026-03-22T07:14:30.167Z</time></trkpt><trkpt lat="45.0255517" lon="11.6562117"><ele>4.0</ele><time>2026-03-22T07:14:32.134Z</time></trkpt><trkpt lat="45.025535" lon="11.6563767"><ele>4.25</ele><time>2026-03-22T07:14:34.162Z</time></trkpt><trkpt lat="45.0255117" lon="11.6565417"><ele>4.5</ele><time>2026-03-22T07:14:36.136Z</time></trkpt><trkpt lat="45.0254883" lon="11.656705"><ele>4.75</ele><time>2026-03-22T07:14:38.16Z</time></trkpt><trkpt lat="45.0254583" lon="11.656865"><ele>5.0</ele><time>2026-03-22T07:14:40.164Z</time></trkpt><trkpt lat="45.0254283" lon="11.657015"><ele>5.0</ele><time>2026-03-22T07:14:42.159Z</time></trkpt><trkpt lat="45.0253933" lon="11.657165"><ele>5.0</ele><time>2026-03-22T07:14:44.165Z</time></trkpt><trkpt lat="45.025355" lon="11.6573183"><ele>5.0</ele><time>2026-03-22T07:14:46.153Z</time></trkpt><trkpt lat="45.0253267" lon="11.65748"><ele>5.0</ele><time>2026-03-22T07:14:48.166Z</time></trkpt><trkpt lat="45.025295" lon="11.65764"><ele>4.8</ele><time>2026-03-22T07:14:50.165Z</time></trkpt><trkpt lat="45.02526" lon="11.6578067"><ele>4.6</ele><time>2026-03-22T07:14:52.165Z</time></trkpt><trkpt lat="45.0252417" lon="11.6579017"><ele>4.4</ele><time>2026-03-22T07:14:53.163Z</time></trkpt><trkpt lat="45.0252233" lon="11.6579917"><ele>4.2</ele><time>2026-03-22T07:14:54.164Z</time></trkpt><trkpt lat="45.02519" lon="11.6581583"><ele>4.0</ele><time>2026-03-22T07:14:56.155Z</time></trkpt><trkpt lat="45.02516" lon="11.6583267"><ele>4.0</ele><time>2026-03-22T07:14:58.155Z</time></trkpt><trkpt lat="45.0251333" lon="11.6584883"><ele>4.0</ele><time>2026-03-22T07:15:00.158Z</time></trkpt><trkpt lat="45.025105" lon="11.6586467"><ele>4.0</ele><time>2026-03-22T07:15:02.161Z</time></trkpt><trkpt lat="45.025075" lon="11.6588133"><ele>4.0</ele><time>2026-03-22T07:15:04.154Z</time></trkpt><trkpt lat="45.0250467" lon="11.6589783"><ele>4.0</ele><time>2026-03-22T07:15:06.161Z</time></trkpt><trkpt lat="45.025015" lon="11.6591417"><ele>4.0</ele><time>2026-03-22T07:15:08.15Z</time></trkpt><trkpt lat="45.02498" lon="11.6593"><ele>4.0</ele><time>2026-03-22T07:15:10.163Z</time></trkpt><trkpt lat="45.0249533" lon="11.6594617"><ele>4.0</ele><time>2026-03-22T07:15:12.164Z</time></trkpt><trkpt lat="45.0249267" lon="11.6596167"><ele>4.2</ele><time>2026-03-22T07:15:14.159Z</time></trkpt><trkpt lat="45.0249" lon="11.6597667"><ele>4.4</ele><time>2026-03-22T07:15:16.145Z</time></trkpt><trkpt lat="45.0248767" lon="11.6599267"><ele>4.6</ele><time>2026-03-22T07:15:18.16Z</time></trkpt><trkpt lat="45.0248567" lon="11.6600817"><ele>4.8</ele><time>2026-03-22T07:15:20.166Z</time></trkpt><trkpt lat="45.024835" lon="11.66023"><ele>5.0</ele><time>2026-03-22T07:15:22.15Z</time></trkpt><trkpt lat="45.024815" lon="11.66039"><ele>5.0</ele><time>2026-03-22T07:15:24.164Z</time></trkpt><trkpt lat="45.0248" lon="11.6605417"><ele>5.0</ele><time>2026-03-22T07:15:26.162Z</time></trkpt><trkpt lat="45.0247767" lon="11.6607083"><ele>5.0</ele><time>2026-03-22T07:15:28.166Z</time></trkpt><trkpt lat="45.0247683" lon="11.6608733"><ele>5.0</ele><time>2026-03-22T07:15:30.151Z</time></trkpt><trkpt lat="45.0247533" lon="11.6610333"><ele>5.0</ele><time>2026-03-22T07:15:32.17Z</time></trkpt><trkpt lat="45.02474" lon="11.6612017"><ele>5.0</ele><time>2026-03-22T07:15:34.165Z</time></trkpt><trkpt lat="45.0247233" lon="11.6613667"><ele>5.0</ele><time>2026-03-22T07:15:36.163Z</time></trkpt><trkpt lat="45.0247083" lon="11.6615283"><ele>5.0</ele><time>2026-03-22T07:15:38.167Z</time></trkpt><trkpt lat="45.024695" lon="11.6616917"><ele>5.0</ele><time>2026-03-22T07:15:40.13Z</time></trkpt><trkpt lat="45.0246767" lon="11.6618533"><ele>5.0</ele><time>2026-03-22T07:15:42.163Z</time></trkpt><trkpt lat="45.0246533" lon="11.66202"><ele>5.0</ele><time>2026-03-22T07:15:44.161Z</time></trkpt><trkpt lat="45.02462" lon="11.662165"><ele>5.0</ele><time>2026-03-22T07:15:46.165Z</time></trkpt><trkpt lat="45.0245883" lon="11.662315"><ele>5.0</ele><time>2026-03-22T07:15:48.147Z</time></trkpt><trkpt lat="45.0245617" lon="11.6624667"><ele>5.0</ele><time>2026-03-22T07:15:50.164Z</time></trkpt><trkpt lat="45.0245433" lon="11.6626233"><ele>5.0</ele><time>2026-03-22T07:15:52.163Z</time></trkpt><trkpt lat="45.0245283" lon="11.66279"><ele>5.0</ele><time>2026-03-22T07:15:54.165Z</time></trkpt><trkpt lat="45.0245167" lon="11.66296"><ele>5.0</ele><time>2026-03-22T07:15:56.163Z</time></trkpt><trkpt lat="45.0245117" lon="11.6631267"><ele>5.0</ele><time>2026-03-22T07:15:58.163Z</time></trkpt><trkpt lat="45.02451" lon="11.6632883"><ele>5.0</ele><time>2026-03-22T07:16:00.163Z</time></trkpt><trkpt lat="45.02451" lon="11.66345"><ele>5.0</ele><time>2026-03-22T07:16:02.159Z</time></trkpt><trkpt lat="45.0245133" lon="11.6636167"><ele>5.0</ele><time>2026-03-22T07:16:04.162Z</time></trkpt><trkpt lat="45.0245217" lon="11.6637783"><ele>5.0</ele><time>2026-03-22T07:16:06.167Z</time></trkpt><trkpt lat="45.02453" lon="11.6639367"><ele>5.0</ele><time>2026-03-22T07:16:08.155Z</time></trkpt><trkpt lat="45.0245417" lon="11.6641017"><ele>5.0</ele><time>2026-03-22T07:16:10.165Z</time></trkpt><trkpt lat="45.0245483" lon="11.66426"><ele>5.0</ele><time>2026-03-22T07:16:12.132Z</time></trkpt><trkpt lat="45.0245567" lon="11.66442"><ele>5.0</ele><time>2026-03-22T07:16:14.163Z</time></trkpt><trkpt lat="45.02456" lon="11.6645833"><ele>5.0</ele><time>2026-03-22T07:16:16.165Z</time></trkpt><trkpt lat="45.0245667" lon="11.6647417"><ele>5.0</ele><time>2026-03-22T07:16:18.152Z</time></trkpt><trkpt lat="45.0245683" lon="11.664895"><ele>5.0</ele><time>2026-03-22T07:16:20.167Z</time></trkpt><trkpt lat="45.024575" lon="11.665065"><ele>5.0</ele><time>2026-03-22T07:16:22.168Z</time></trkpt><trkpt lat="45.0245733" lon="11.66523"><ele>5.0</ele><time>2026-03-22T07:16:24.166Z</time></trkpt><trkpt lat="45.0245683" lon="11.6653933"><ele>5.0</ele><time>2026-03-22T07:16:26.156Z</time></trkpt><trkpt lat="45.0245683" lon="11.6655583"><ele>5.0</ele><time>2026-03-22T07:16:28.165Z</time></trkpt><trkpt lat="45.0245617" lon="11.66572"><ele>5.0</ele><time>2026-03-22T07:16:30.165Z</time></trkpt><trkpt lat="45.024555" lon="11.665885"><ele>5.0</ele><time>2026-03-22T07:16:32.165Z</time></trkpt><trkpt lat="45.0245433" lon="11.6660467"><ele>5.0</ele><time>2026-03-22T07:16:34.154Z</time></trkpt><trkpt lat="45.024535" lon="11.6662117"><ele>5.0</ele><time>2026-03-22T07:16:36.165Z</time></trkpt><trkpt lat="45.02453" lon="11.6663817"><ele>4.75</ele><time>2026-03-22T07:16:38.165Z</time></trkpt><trkpt lat="45.0245267" lon="11.666545"><ele>4.5</ele><time>2026-03-22T07:16:40.161Z</time></trkpt><trkpt lat="45.0245267" lon="11.666715"><ele>4.25</ele><time>2026-03-22T07:16:42.163Z</time></trkpt><trkpt lat="45.0245317" lon="11.66689"><ele>4.0</ele><time>2026-03-22T07:16:44.14Z</time></trkpt><trkpt lat="45.0245383" lon="11.66705"><ele>4.0</ele><time>2026-03-22T07:16:46.169Z</time></trkpt><trkpt lat="45.0245483" lon="11.667215"><ele>4.0</ele><time>2026-03-22T07:16:48.164Z</time></trkpt><trkpt lat="45.02456" lon="11.6673817"><ele>4.0</ele><time>2026-03-22T07:16:50.161Z</time></trkpt><trkpt lat="45.0245783" lon="11.6675517"><ele>4.0</ele><time>2026-03-22T07:16:52.163Z</time></trkpt><trkpt lat="45.0245983" lon="11.6677217"><ele>4.0</ele><time>2026-03-22T07:16:54.163Z</time></trkpt><trkpt lat="45.0246233" lon="11.667885"><ele>4.0</ele><time>2026-03-22T07:16:56.161Z</time></trkpt><trkpt lat="45.0246533" lon="11.6680517"><ele>4.0</ele><time>2026-03-22T07:16:58.164Z</time></trkpt><trkpt lat="45.024685" lon="11.6682117"><ele>4.0</ele><time>2026-03-22T07:17:00.164Z</time></trkpt><trkpt lat="45.0247117" lon="11.668375"><ele>4.0</ele><time>2026-03-22T07:17:02.142Z</time></trkpt><trkpt lat="45.0247383" lon="11.6685417"><ele>4.0</ele><time>2026-03-22T07:17:04.143Z</time></trkpt><trkpt lat="45.0247583" lon="11.6687083"><ele>4.0</ele><time>2026-03-22T07:17:06.136Z</time></trkpt><trkpt lat="45.0247733" lon="11.668875"><ele>4.0</ele><time>2026-03-22T07:17:08.138Z</time></trkpt><trkpt lat="45.0247817" lon="11.6690467"><ele>4.25</ele><time>2026-03-22T07:17:10.178Z</time></trkpt><trkpt lat="45.0247733" lon="11.66922"><ele>4.5</ele><time>2026-03-22T07:17:12.142Z</time></trkpt><trkpt lat="45.024755" lon="11.669385"><ele>4.75</ele><time>2026-03-22T07:17:14.138Z</time></trkpt><trkpt lat="45.0247183" lon="11.6695517"><ele>5.0</ele><time>2026-03-22T07:17:16.147Z</time></trkpt><trkpt lat="45.024675" lon="11.66971"><ele>5.0</ele><time>2026-03-22T07:17:18.144Z</time></trkpt><trkpt lat="45.0246367" lon="11.669875"><ele>5.0</ele><time>2026-03-22T07:17:20.138Z</time></trkpt><trkpt lat="45.024595" lon="11.6700367"><ele>5.0</ele><time>2026-03-22T07:17:22.139Z</time></trkpt><trkpt lat="45.0245567" lon="11.670195"><ele>5.0</ele><time>2026-03-22T07:17:24.133Z</time></trkpt><trkpt lat="45.0245133" lon="11.6703517"><ele>5.0</ele><time>2026-03-22T07:17:26.133Z</time></trkpt><trkpt lat="45.024465" lon="11.6705133"><ele>5.0</ele><time>2026-03-22T07:17:28.141Z</time></trkpt><trkpt lat="45.0244317" lon="11.6706783"><ele>5.0</ele><time>2026-03-22T07:17:30.153Z</time></trkpt><trkpt lat="45.0243833" lon="11.6708367"><ele>5.0</ele><time>2026-03-22T07:17:32.164Z</time></trkpt><trkpt lat="45.024365" lon="11.670925"><ele>5.0</ele><time>2026-03-22T07:17:33.167Z</time></trkpt><trkpt lat="45.024345" lon="11.67101"><ele>5.0</ele><time>2026-03-22T07:17:34.164Z</time></trkpt><trkpt lat="45.0243233" lon="11.6710967"><ele>5.0</ele><time>2026-03-22T07:17:35.161Z</time></trkpt><trkpt lat="45.024285" lon="11.6712617"><ele>5.0</ele><time>2026-03-22T07:17:37.146Z</time></trkpt><trkpt lat="45.024245" lon="11.6714317"><ele>5.0</ele><time>2026-03-22T07:17:39.164Z</time></trkpt><trkpt lat="45.0242033" lon="11.671595"><ele>5.0</ele><time>2026-03-22T07:17:41.156Z</time></trkpt><trkpt lat="45.0241817" lon="11.67168"><ele>5.0</ele><time>2026-03-22T07:17:42.144Z</time></trkpt><trkpt lat="45.02414" lon="11.6718433"><ele>5.0</ele><time>2026-03-22T07:17:44.16Z</time></trkpt><trkpt lat="45.0241" lon="11.6720067"><ele>5.0</ele><time>2026-03-22T07:17:46.161Z</time></trkpt><trkpt lat="45.0240717" lon="11.67217"><ele>5.0</ele><time>2026-03-22T07:17:48.16Z</time></trkpt><trkpt lat="45.0240467" lon="11.6723317"><ele>5.0</ele><time>2026-03-22T07:17:50.168Z</time></trkpt><trkpt lat="45.0240183" lon="11.672495"><ele>5.0</ele><time>2026-03-22T07:17:52.17Z</time></trkpt><trkpt lat="45.0239767" lon="11.6726567"><ele>5.0</ele><time>2026-03-22T07:17:54.165Z</time></trkpt><trkpt lat="45.0239283" lon="11.6728133"><ele>5.0</ele><time>2026-03-22T07:17:56.16Z</time></trkpt><trkpt lat="45.0238767" lon="11.6729633"><ele>5.0</ele><time>2026-03-22T07:17:58.132Z</time></trkpt><trkpt lat="45.02382" lon="11.673115"><ele>5.0</ele><time>2026-03-22T07:18:00.162Z</time></trkpt><trkpt lat="45.0237533" lon="11.673255"><ele>5.0</ele><time>2026-03-22T07:18:02.163Z</time></trkpt><trkpt lat="45.0236767" lon="11.6733917"><ele>5.0</ele><time>2026-03-22T07:18:04.162Z</time></trkpt><trkpt lat="45.0235883" lon="11.6735067"><ele>5.0</ele><time>2026-03-22T07:18:06.165Z</time></trkpt><trkpt lat="45.0234867" lon="11.6735983"><ele>5.0</ele><time>2026-03-22T07:18:08.165Z</time></trkpt><trkpt lat="45.0233767" lon="11.6736733"><ele>5.0</ele><time>2026-03-22T07:18:10.164Z</time></trkpt><trkpt lat="45.02326" lon="11.6737317"><ele>5.0</ele><time>2026-03-22T07:18:12.162Z</time></trkpt><trkpt lat="45.0231433" lon="11.6737767"><ele>5.25</ele><time>2026-03-22T07:18:14.138Z</time></trkpt><trkpt lat="45.02303" lon="11.6738133"><ele>5.5</ele><time>2026-03-22T07:18:16.163Z</time></trkpt><trkpt lat="45.0229133" lon="11.6738467"><ele>5.75</ele><time>2026-03-22T07:18:18.162Z</time></trkpt><trkpt lat="45.0227983" lon="11.6738833"><ele>6.0</ele><time>2026-03-22T07:18:20.166Z</time></trkpt><trkpt lat="45.0226833" lon="11.673925"><ele>6.0</ele><time>2026-03-22T07:18:22.135Z</time></trkpt><trkpt lat="45.0225733" lon="11.6739633"><ele>6.0</ele><time>2026-03-22T07:18:24.165Z</time></trkpt><trkpt lat="45.0224667" lon="11.6740083"><ele>6.0</ele><time>2026-03-22T07:18:26.162Z</time></trkpt><trkpt lat="45.0223617" lon="11.67405"><ele>6.0</ele><time>2026-03-22T07:18:28.138Z</time></trkpt><trkpt lat="45.0222567" lon="11.6740967"><ele>6.0</ele><time>2026-03-22T07:18:30.143Z</time></trkpt><trkpt lat="45.0221533" lon="11.6741433"><ele>5.8</ele><time>2026-03-22T07:18:32.161Z</time></trkpt><trkpt lat="45.02205" lon="11.6741933"><ele>5.6</ele><time>2026-03-22T07:18:34.157Z</time></trkpt><trkpt lat="45.0219483" lon="11.674245"><ele>5.4</ele><time>2026-03-22T07:18:36.162Z</time></trkpt><trkpt lat="45.02185" lon="11.6742967"><ele>5.2</ele><time>2026-03-22T07:18:38.172Z</time></trkpt><trkpt lat="45.0217533" lon="11.6743467"><ele>5.0</ele><time>2026-03-22T07:18:40.16Z</time></trkpt><trkpt lat="45.0216567" lon="11.6743917"><ele>5.0</ele><time>2026-03-22T07:18:42.16Z</time></trkpt><trkpt lat="45.0215617" lon="11.674435"><ele>5.0</ele><time>2026-03-22T07:18:44.17Z</time></trkpt><trkpt lat="45.0214667" lon="11.6744833"><ele>5.0</ele><time>2026-03-22T07:18:46.14Z</time></trkpt><trkpt lat="45.0213683" lon="11.6745317"><ele>5.0</ele><time>2026-03-22T07:18:48.165Z</time></trkpt><trkpt lat="45.021265" lon="11.6745833"><ele>5.0</ele><time>2026-03-22T07:18:50.168Z</time></trkpt><trkpt lat="45.0211567" lon="11.6746367"><ele>5.2</ele><time>2026-03-22T07:18:52.16Z</time></trkpt><trkpt lat="45.0210467" lon="11.6746917"><ele>5.4</ele><time>2026-03-22T07:18:54.168Z</time></trkpt><trkpt lat="45.020935" lon="11.6747517"><ele>5.6</ele><time>2026-03-22T07:18:56.172Z</time></trkpt><trkpt lat="45.0208167" lon="11.6748117"><ele>5.8</ele><time>2026-03-22T07:18:58.167Z</time></trkpt><trkpt lat="45.020755" lon="11.6748433"><ele>6.0</ele><time>2026-03-22T07:18:59.165Z</time></trkpt><trkpt lat="45.020695" lon="11.6748767"><ele>5.666666666666667</ele><time>2026-03-22T07:19:00.171Z</time></trkpt><trkpt lat="45.0205767" lon="11.6749467"><ele>5.333333333333333</ele><time>2026-03-22T07:19:02.142Z</time></trkpt><trkpt lat="45.0205183" lon="11.6749833"><ele>5.0</ele><time>2026-03-22T07:19:03.156Z</time></trkpt><trkpt lat="45.0204583" lon="11.6750217"><ele>4.666666666666666</ele><time>2026-03-22T07:19:04.166Z</time></trkpt><trkpt lat="45.0204" lon="11.675065"><ele>4.333333333333333</ele><time>2026-03-22T07:19:05.168Z</time></trkpt><trkpt lat="45.0203417" lon="11.6751083"><ele>4.0</ele><time>2026-03-22T07:19:06.158Z</time></trkpt><trkpt lat="45.0202833" lon="11.675155"><ele>4.0</ele><time>2026-03-22T07:19:07.164Z</time></trkpt><trkpt lat="45.0202267" lon="11.6752033"><ele>3.9999999999999996</ele><time>2026-03-22T07:19:08.161Z</time></trkpt><trkpt lat="45.0201667" lon="11.6752567"><ele>4.0</ele><time>2026-03-22T07:19:09.167Z</time></trkpt><trkpt lat="45.0201083" lon="11.6753167"><ele>4.0</ele><time>2026-03-22T07:19:10.166Z</time></trkpt><trkpt lat="45.0200533" lon="11.6753817"><ele>3.9999999999999996</ele><time>2026-03-22T07:19:11.164Z</time></trkpt><trkpt lat="45.0199967" lon="11.675455"><ele>4.0</ele><time>2026-03-22T07:19:12.166Z</time></trkpt><trkpt lat="45.0199433" lon="11.67553"><ele>4.0</ele><time>2026-03-22T07:19:13.165Z</time></trkpt><trkpt lat="45.0198917" lon="11.6756083"><ele>3.833333333333333</ele><time>2026-03-22T07:19:14.171Z</time></trkpt><trkpt lat="45.0198417" lon="11.67569"><ele>3.6666666666666665</ele><time>2026-03-22T07:19:15.168Z</time></trkpt><trkpt lat="45.0197933" lon="11.6757767"><ele>3.5</ele><time>2026-03-22T07:19:16.166Z</time></trkpt><trkpt lat="45.0197467" lon="11.6758633"><ele>3.333333333333333</ele><time>2026-03-22T07:19:17.164Z</time></trkpt><trkpt lat="45.0197017" lon="11.675955"><ele>3.1666666666666665</ele><time>2026-03-22T07:19:18.134Z</time></trkpt><trkpt lat="45.01966" lon="11.6760483"><ele>3.0</ele><time>2026-03-22T07:19:19.156Z</time></trkpt><trkpt lat="45.0196217" lon="11.6761433"><ele>2.8333333333333335</ele><time>2026-03-22T07:19:20.166Z</time></trkpt><trkpt lat="45.019585" lon="11.6762417"><ele>2.6666666666666665</ele><time>2026-03-22T07:19:21.166Z</time></trkpt><trkpt lat="45.01955" lon="11.676345"><ele>2.5</ele><time>2026-03-22T07:19:22.168Z</time></trkpt><trkpt lat="45.0195183" lon="11.6764483"><ele>2.333333333333333</ele><time>2026-03-22T07:19:23.165Z</time></trkpt><trkpt lat="45.0194917" lon="11.6765517"><ele>2.1666666666666665</ele><time>2026-03-22T07:19:24.169Z</time></trkpt><trkpt lat="45.0194667" lon="11.676655"><ele>2.0</ele><time>2026-03-22T07:19:25.169Z</time></trkpt><trkpt lat="45.019445" lon="11.6767567"><ele>2.0</ele><time>2026-03-22T07:19:26.169Z</time></trkpt><trkpt lat="45.0194283" lon="11.6768583"><ele>1.9999999999999998</ele><time>2026-03-22T07:19:27.17Z</time></trkpt><trkpt lat="45.0194167" lon="11.6769583"><ele>2.0</ele><time>2026-03-22T07:19:28.172Z</time></trkpt><trkpt lat="45.019405" lon="11.67706"><ele>2.0</ele><time>2026-03-22T07:19:29.159Z</time></trkpt><trkpt lat="45.0193967" lon="11.67716"><ele>1.9999999999999998</ele><time>2026-03-22T07:19:30.165Z</time></trkpt><trkpt lat="45.01939" lon="11.67726"><ele>2.0</ele><time>2026-03-22T07:19:31.166Z</time></trkpt><trkpt lat="45.019385" lon="11.6773583"><ele>2.0</ele><time>2026-03-22T07:19:32.169Z</time></trkpt><trkpt lat="45.0193833" lon="11.6774533"><ele>2.0</ele><time>2026-03-22T07:19:33.168Z</time></trkpt><trkpt lat="45.0193817" lon="11.6775483"><ele>1.9999999999999998</ele><time>2026-03-22T07:19:34.148Z</time></trkpt><trkpt lat="45.0193833" lon="11.6776417"><ele>2.0</ele><time>2026-03-22T07:19:35.166Z</time></trkpt><trkpt lat="45.019385" lon="11.6777333"><ele>2.0</ele><time>2026-03-22T07:19:36.165Z</time></trkpt><trkpt lat="45.0193867" lon="11.677825"><ele>1.9999999999999998</ele><time>2026-03-22T07:19:37.162Z</time></trkpt><trkpt lat="45.0193867" lon="11.6779167"><ele>2.0</ele><time>2026-03-22T07:19:38.167Z</time></trkpt><trkpt lat="45.0193867" lon="11.6780117"><ele>2.0</ele><time>2026-03-22T07:19:39.154Z</time></trkpt><trkpt lat="45.0193883" lon="11.678105"><ele>1.9999999999999998</ele><time>2026-03-22T07:19:40.167Z</time></trkpt><trkpt lat="45.01939" lon="11.6781967"><ele>2.0</ele><time>2026-03-22T07:19:41.168Z</time></trkpt><trkpt lat="45.0193917" lon="11.67829"><ele>2.0</ele><time>2026-03-22T07:19:42.164Z</time></trkpt><trkpt lat="45.0193917" lon="11.6783833"><ele>2.0</ele><time>2026-03-22T07:19:43.167Z</time></trkpt><trkpt lat="45.019395" lon="11.678475"><ele>1.9999999999999998</ele><time>2026-03-22T07:19:44.164Z</time></trkpt><trkpt lat="45.019395" lon="11.6785667"><ele>2.0</ele><time>2026-03-22T07:19:45.156Z</time></trkpt><trkpt lat="45.0193983" lon="11.6787417"><ele>2.333333333333333</ele><time>2026-03-22T07:19:47.166Z</time></trkpt><trkpt lat="45.0194017" lon="11.6788333"><ele>2.6666666666666665</ele><time>2026-03-22T07:19:48.165Z</time></trkpt><trkpt lat="45.019405" lon="11.67901"><ele>3.0</ele><time>2026-03-22T07:19:50.135Z</time></trkpt><trkpt lat="45.0194067" lon="11.6791017"><ele>3.333333333333333</ele><time>2026-03-22T07:19:51.158Z</time></trkpt><trkpt lat="45.0194083" lon="11.6791917"><ele>3.6666666666666665</ele><time>2026-03-22T07:19:52.167Z</time></trkpt><trkpt lat="45.0194117" lon="11.67937"><ele>4.0</ele><time>2026-03-22T07:19:54.168Z</time></trkpt><trkpt lat="45.019415" lon="11.6795433"><ele>4.0</ele><time>2026-03-22T07:19:56.161Z</time></trkpt><trkpt lat="45.0194167" lon="11.67972"><ele>4.0</ele><time>2026-03-22T07:19:58.164Z</time></trkpt><trkpt lat="45.0194183" lon="11.679895"><ele>4.0</ele><time>2026-03-22T07:20:00.168Z</time></trkpt><trkpt lat="45.0194217" lon="11.68007"><ele>4.0</ele><time>2026-03-22T07:20:02.165Z</time></trkpt><trkpt lat="45.0194233" lon="11.6802433"><ele>4.25</ele><time>2026-03-22T07:20:04.16Z</time></trkpt><trkpt lat="45.019425" lon="11.680415"><ele>4.5</ele><time>2026-03-22T07:20:06.15Z</time></trkpt><trkpt lat="45.01943" lon="11.68059"><ele>4.75</ele><time>2026-03-22T07:20:08.164Z</time></trkpt><trkpt lat="45.0194283" lon="11.68076"><ele>5.0</ele><time>2026-03-22T07:20:10.172Z</time></trkpt><trkpt lat="45.019425" lon="11.680935"><ele>5.0</ele><time>2026-03-22T07:20:12.168Z</time></trkpt><trkpt lat="45.0194167" lon="11.6811133"><ele>5.0</ele><time>2026-03-22T07:20:14.17Z</time></trkpt><trkpt lat="45.019405" lon="11.6812917"><ele>5.0</ele><time>2026-03-22T07:20:16.17Z</time></trkpt><trkpt lat="45.0193967" lon="11.6813833"><ele>5.0</ele><time>2026-03-22T07:20:17.168Z</time></trkpt><trkpt lat="45.0193867" lon="11.6814717"><ele>5.0</ele><time>2026-03-22T07:20:18.154Z</time></trkpt><trkpt lat="45.0193733" lon="11.68156"><ele>5.0</ele><time>2026-03-22T07:20:19.163Z</time></trkpt><trkpt lat="45.0193367" lon="11.6817317"><ele>5.0</ele><time>2026-03-22T07:20:21.171Z</time></trkpt><trkpt lat="45.019315" lon="11.6818167"><ele>5.0</ele><time>2026-03-22T07:20:22.147Z</time></trkpt><trkpt lat="45.019265" lon="11.68198"><ele>5.0</ele><time>2026-03-22T07:20:24.168Z</time></trkpt><trkpt lat="45.0192367" lon="11.6820617"><ele>5.0</ele><time>2026-03-22T07:20:25.172Z</time></trkpt><trkpt lat="45.019205" lon="11.6821417"><ele>5.0</ele><time>2026-03-22T07:20:26.168Z</time></trkpt><trkpt lat="45.0191717" lon="11.6822217"><ele>5.0</ele><time>2026-03-22T07:20:27.161Z</time></trkpt><trkpt lat="45.0191333" lon="11.6822967"><ele>5.0</ele><time>2026-03-22T07:20:28.168Z</time></trkpt><trkpt lat="45.019095" lon="11.68237"><ele>5.0</ele><time>2026-03-22T07:20:29.17Z</time></trkpt><trkpt lat="45.019055" lon="11.6824467"><ele>5.0</ele><time>2026-03-22T07:20:30.146Z</time></trkpt><trkpt lat="45.019015" lon="11.68252"><ele>5.0</ele><time>2026-03-22T07:20:31.166Z</time></trkpt><trkpt lat="45.0189717" lon="11.6825917"><ele>5.0</ele><time>2026-03-22T07:20:32.17Z</time></trkpt><trkpt lat="45.0189267" lon="11.682665"><ele>5.0</ele><time>2026-03-22T07:20:33.168Z</time></trkpt><trkpt lat="45.0188817" lon="11.6827333"><ele>5.0</ele><time>2026-03-22T07:20:34.171Z</time></trkpt><trkpt lat="45.0188333" lon="11.6827983"><ele>5.0</ele><time>2026-03-22T07:20:35.169Z</time></trkpt><trkpt lat="45.0187833" lon="11.68286"><ele>5.0</ele><time>2026-03-22T07:20:36.163Z</time></trkpt><trkpt lat="45.0187317" lon="11.68292"><ele>5.0</ele><time>2026-03-22T07:20:37.17Z</time></trkpt><trkpt lat="45.0186783" lon="11.68298"><ele>5.0</ele><time>2026-03-22T07:20:38.16Z</time></trkpt><trkpt lat="45.0186233" lon="11.6830367"><ele>5.0</ele><time>2026-03-22T07:20:39.158Z</time></trkpt><trkpt lat="45.01857" lon="11.6830917"><ele>5.0</ele><time>2026-03-22T07:20:40.164Z</time></trkpt><trkpt lat="45.0185167" lon="11.68315"><ele>5.0</ele><time>2026-03-22T07:20:41.166Z</time></trkpt><trkpt lat="45.0184633" lon="11.683205"><ele>5.0</ele><time>2026-03-22T07:20:42.168Z</time></trkpt><trkpt lat="45.01841" lon="11.6832617"><ele>5.0</ele><time>2026-03-22T07:20:43.168Z</time></trkpt><trkpt lat="45.0183583" lon="11.6833167"><ele>5.0</ele><time>2026-03-22T07:20:44.168Z</time></trkpt><trkpt lat="45.018305" lon="11.6833733"><ele>5.0</ele><time>2026-03-22T07:20:45.172Z</time></trkpt><trkpt lat="45.0182517" lon="11.6834333"><ele>5.0</ele><time>2026-03-22T07:20:46.17Z</time></trkpt><trkpt lat="45.0182" lon="11.6834917"><ele>5.0</ele><time>2026-03-22T07:20:47.166Z</time></trkpt><trkpt lat="45.0181467" lon="11.6835517"><ele>5.0</ele><time>2026-03-22T07:20:48.166Z</time></trkpt><trkpt lat="45.0180933" lon="11.6836133"><ele>5.0</ele><time>2026-03-22T07:20:49.166Z</time></trkpt><trkpt lat="45.01804" lon="11.6836717"><ele>5.0</ele><time>2026-03-22T07:20:50.159Z</time></trkpt><trkpt lat="45.017985" lon="11.6837267"><ele>5.0</ele><time>2026-03-22T07:20:51.166Z</time></trkpt><trkpt lat="45.0179317" lon="11.6837867"><ele>5.0</ele><time>2026-03-22T07:20:52.163Z</time></trkpt><trkpt lat="45.01788" lon="11.683845"><ele>5.0</ele><time>2026-03-22T07:20:53.165Z</time></trkpt><trkpt lat="45.0178267" lon="11.6839033"><ele>5.0</ele><time>2026-03-22T07:20:54.145Z</time></trkpt><trkpt lat="45.0177717" lon="11.68396"><ele>5.0</ele><time>2026-03-22T07:20:55.164Z</time></trkpt><trkpt lat="45.0177183" lon="11.6840167"><ele>5.0</ele><time>2026-03-22T07:20:56.176Z</time></trkpt><trkpt lat="45.0176617" lon="11.6840733"><ele>5.0</ele><time>2026-03-22T07:20:57.231Z</time></trkpt><trkpt lat="45.0176067" lon="11.6841317"><ele>5.0</ele><time>2026-03-22T07:20:58.166Z</time></trkpt><trkpt lat="45.01755" lon="11.6841883"><ele>5.0</ele><time>2026-03-22T07:20:59.158Z</time></trkpt><trkpt lat="45.0174933" lon="11.6842433"><ele>5.0</ele><time>2026-03-22T07:21:00.131Z</time></trkpt><trkpt lat="45.0174383" lon="11.6843017"><ele>5.0</ele><time>2026-03-22T07:21:01.153Z</time></trkpt><trkpt lat="45.0173817" lon="11.68436"><ele>5.0</ele><time>2026-03-22T07:21:02.165Z</time></trkpt><trkpt lat="45.0173267" lon="11.6844183"><ele>5.0</ele><time>2026-03-22T07:21:03.166Z</time></trkpt><trkpt lat="45.0172717" lon="11.684475"><ele>5.0</ele><time>2026-03-22T07:21:04.16Z</time></trkpt><trkpt lat="45.0172183" lon="11.6845317"><ele>5.0</ele><time>2026-03-22T07:21:05.165Z</time></trkpt><trkpt lat="45.017165" lon="11.68459"><ele>5.0</ele><time>2026-03-22T07:21:06.166Z</time></trkpt><trkpt lat="45.0171117" lon="11.6846483"><ele>5.0</ele><time>2026-03-22T07:21:07.163Z</time></trkpt><trkpt lat="45.0170567" lon="11.6847067"><ele>5.0</ele><time>2026-03-22T07:21:08.164Z</time></trkpt><trkpt lat="45.0170033" lon="11.684765"><ele>5.0</ele><time>2026-03-22T07:21:09.166Z</time></trkpt><trkpt lat="45.01695" lon="11.68482"><ele>5.0</ele><time>2026-03-22T07:21:10.152Z</time></trkpt><trkpt lat="45.0168967" lon="11.6848783"><ele>5.0</ele><time>2026-03-22T07:21:11.157Z</time></trkpt><trkpt lat="45.0168433" lon="11.6849367"><ele>5.0</ele><time>2026-03-22T07:21:12.165Z</time></trkpt><trkpt lat="45.01679" lon="11.684995"><ele>5.0</ele><time>2026-03-22T07:21:13.168Z</time></trkpt><trkpt lat="45.016735" lon="11.6850567"><ele>5.0</ele><time>2026-03-22T07:21:14.162Z</time></trkpt><trkpt lat="45.0166817" lon="11.6851183"><ele>5.0</ele><time>2026-03-22T07:21:15.166Z</time></trkpt><trkpt lat="45.01663" lon="11.6851783"><ele>5.0</ele><time>2026-03-22T07:21:16.167Z</time></trkpt><trkpt lat="45.0165783" lon="11.6852367"><ele>5.0</ele><time>2026-03-22T07:21:17.167Z</time></trkpt><trkpt lat="45.0165283" lon="11.6852917"><ele>5.0</ele><time>2026-03-22T07:21:18.162Z</time></trkpt><trkpt lat="45.0164767" lon="11.68535"><ele>5.0</ele><time>2026-03-22T07:21:19.169Z</time></trkpt><trkpt lat="45.016425" lon="11.6854067"><ele>5.0</ele><time>2026-03-22T07:21:20.166Z</time></trkpt><trkpt lat="45.016375" lon="11.6854617"><ele>5.0</ele><time>2026-03-22T07:21:21.164Z</time></trkpt><trkpt lat="45.01628" lon="11.6855733"><ele>5.0</ele><time>2026-03-22T07:21:23.165Z</time></trkpt><trkpt lat="45.0161917" lon="11.685685"><ele>5.0</ele><time>2026-03-22T07:21:25.16Z</time></trkpt><trkpt lat="45.0161117" lon="11.6858017"><ele>5.0</ele><time>2026-03-22T07:21:27.161Z</time></trkpt><trkpt lat="45.016035" lon="11.6859267"><ele>5.0</ele><time>2026-03-22T07:21:29.16Z</time></trkpt><trkpt lat="45.0159617" lon="11.6860617"><ele>5.0</ele><time>2026-03-22T07:21:31.153Z</time></trkpt><trkpt lat="45.015895" lon="11.6861917"><ele>5.0</ele><time>2026-03-22T07:21:33.165Z</time></trkpt><trkpt lat="45.01583" lon="11.6863233"><ele>5.0</ele><time>2026-03-22T07:21:35.164Z</time></trkpt><trkpt lat="45.0157683" lon="11.6864567"><ele>5.0</ele><time>2026-03-22T07:21:37.165Z</time></trkpt><trkpt lat="45.0157067" lon="11.68659"><ele>5.0</ele><time>2026-03-22T07:21:39.169Z</time></trkpt><trkpt lat="45.01564" lon="11.68673"><ele>5.0</ele><time>2026-03-22T07:21:41.172Z</time></trkpt><trkpt lat="45.015575" lon="11.6868683"><ele>5.0</ele><time>2026-03-22T07:21:43.168Z</time></trkpt><trkpt lat="45.01551" lon="11.6870033"><ele>5.0</ele><time>2026-03-22T07:21:45.165Z</time></trkpt><trkpt lat="45.0154467" lon="11.6871333"><ele>5.0</ele><time>2026-03-22T07:21:47.161Z</time></trkpt><trkpt lat="45.0153867" lon="11.6872667"><ele>5.4</ele><time>2026-03-22T07:21:49.167Z</time></trkpt><trkpt lat="45.0153283" lon="11.6873983"><ele>5.8</ele><time>2026-03-22T07:21:51.169Z</time></trkpt><trkpt lat="45.015265" lon="11.6875367"><ele>6.199999999999999</ele><time>2026-03-22T07:21:53.161Z</time></trkpt><trkpt lat="45.0151933" lon="11.687685"><ele>6.6</ele><time>2026-03-22T07:21:55.168Z</time></trkpt><trkpt lat="45.015155" lon="11.6877617"><ele>7.0</ele><time>2026-03-22T07:21:56.169Z</time></trkpt><trkpt lat="45.0151183" lon="11.68784"><ele>7.0</ele><time>2026-03-22T07:21:57.167Z</time></trkpt><trkpt lat="45.0150833" lon="11.68792"><ele>7.0</ele><time>2026-03-22T07:21:58.168Z</time></trkpt><trkpt lat="45.015045" lon="11.6879983"><ele>7.0</ele><time>2026-03-22T07:21:59.162Z</time></trkpt><trkpt lat="45.0150067" lon="11.6880783"><ele>7.0</ele><time>2026-03-22T07:22:00.151Z</time></trkpt><trkpt lat="45.0149683" lon="11.68816"><ele>7.0</ele><time>2026-03-22T07:22:01.162Z</time></trkpt><trkpt lat="45.0149317" lon="11.6882417"><ele>7.0</ele><time>2026-03-22T07:22:02.169Z</time></trkpt><trkpt lat="45.0148967" lon="11.688325"><ele>7.0</ele><time>2026-03-22T07:22:03.137Z</time></trkpt><trkpt lat="45.01486" lon="11.6884083"><ele>6.714285714285714</ele><time>2026-03-22T07:22:04.169Z</time></trkpt><trkpt lat="45.0148233" lon="11.688495"><ele>6.428571428571429</ele><time>2026-03-22T07:22:05.174Z</time></trkpt><trkpt lat="45.0147883" lon="11.6885867"><ele>6.142857142857142</ele><time>2026-03-22T07:22:06.174Z</time></trkpt><trkpt lat="45.014755" lon="11.6886817"><ele>5.857142857142858</ele><time>2026-03-22T07:22:07.164Z</time></trkpt><trkpt lat="45.014725" lon="11.6887767"><ele>5.571428571428571</ele><time>2026-03-22T07:22:08.167Z</time></trkpt><trkpt lat="45.0146967" lon="11.6888717"><ele>5.285714285714286</ele><time>2026-03-22T07:22:09.169Z</time></trkpt><trkpt lat="45.0146683" lon="11.68897"><ele>5.0</ele><time>2026-03-22T07:22:10.163Z</time></trkpt><trkpt lat="45.014645" lon="11.68907"><ele>4.833333333333334</ele><time>2026-03-22T07:22:11.166Z</time></trkpt><trkpt lat="45.0146217" lon="11.6891733"><ele>4.666666666666667</ele><time>2026-03-22T07:22:12.164Z</time></trkpt><trkpt lat="45.0146017" lon="11.6892767"><ele>4.5</ele><time>2026-03-22T07:22:13.168Z</time></trkpt><trkpt lat="45.0145833" lon="11.689385"><ele>4.333333333333333</ele><time>2026-03-22T07:22:14.167Z</time></trkpt><trkpt lat="45.0145683" lon="11.689495"><ele>4.166666666666666</ele><time>2026-03-22T07:22:15.166Z</time></trkpt><trkpt lat="45.0145567" lon="11.6896083"><ele>4.0</ele><time>2026-03-22T07:22:16.17Z</time></trkpt><trkpt lat="45.0145483" lon="11.6897233"><ele>3.9999999999999996</ele><time>2026-03-22T07:22:17.167Z</time></trkpt><trkpt lat="45.0145417" lon="11.689835"><ele>4.0</ele><time>2026-03-22T07:22:18.154Z</time></trkpt><trkpt lat="45.01454" lon="11.6899483"><ele>4.0</ele><time>2026-03-22T07:22:19.163Z</time></trkpt><trkpt lat="45.01454" lon="11.6900617"><ele>4.0</ele><time>2026-03-22T07:22:20.149Z</time></trkpt><trkpt lat="45.0145433" lon="11.6901733"><ele>3.9999999999999996</ele><time>2026-03-22T07:22:21.156Z</time></trkpt><trkpt lat="45.0145483" lon="11.690285"><ele>4.0</ele><time>2026-03-22T07:22:22.166Z</time></trkpt><trkpt lat="45.014555" lon="11.6904"><ele>4.142857142857142</ele><time>2026-03-22T07:22:23.169Z</time></trkpt><trkpt lat="45.0145683" lon="11.6905083"><ele>4.285714285714286</ele><time>2026-03-22T07:22:24.146Z</time></trkpt><trkpt lat="45.0145817" lon="11.690615"><ele>4.428571428571429</ele><time>2026-03-22T07:22:25.161Z</time></trkpt><trkpt lat="45.0145933" lon="11.6907183"><ele>4.571428571428571</ele><time>2026-03-22T07:22:26.164Z</time></trkpt><trkpt lat="45.014605" lon="11.6908183"><ele>4.714285714285714</ele><time>2026-03-22T07:22:27.163Z</time></trkpt><trkpt lat="45.0146117" lon="11.69092"><ele>4.857142857142857</ele><time>2026-03-22T07:22:28.157Z</time></trkpt><trkpt lat="45.01462" lon="11.6910217"><ele>5.0</ele><time>2026-03-22T07:22:29.167Z</time></trkpt><trkpt lat="45.0146267" lon="11.6911217"><ele>5.0</ele><time>2026-03-22T07:22:30.16Z</time></trkpt><trkpt lat="45.014635" lon="11.6912217"><ele>5.0</ele><time>2026-03-22T07:22:31.165Z</time></trkpt><trkpt lat="45.0146417" lon="11.6913167"><ele>5.0</ele><time>2026-03-22T07:22:32.166Z</time></trkpt><trkpt lat="45.0146483" lon="11.69141"><ele>5.0</ele><time>2026-03-22T07:22:33.171Z</time></trkpt><trkpt lat="45.0146517" lon="11.6915033"><ele>5.0</ele><time>2026-03-22T07:22:34.166Z</time></trkpt><trkpt lat="45.01465" lon="11.6916017"><ele>5.0</ele><time>2026-03-22T07:22:35.141Z</time></trkpt><trkpt lat="45.014645" lon="11.6917033"><ele>5.0</ele><time>2026-03-22T07:22:36.159Z</time></trkpt><trkpt lat="45.0146383" lon="11.6918"><ele>5.0</ele><time>2026-03-22T07:22:37.165Z</time></trkpt><trkpt lat="45.0146283" lon="11.6918967"><ele>5.0</ele><time>2026-03-22T07:22:38.17Z</time></trkpt><trkpt lat="45.014615" lon="11.6919883"><ele>5.0</ele><time>2026-03-22T07:22:39.169Z</time></trkpt><trkpt lat="45.0145983" lon="11.692075"><ele>5.0</ele><time>2026-03-22T07:22:40.17Z</time></trkpt><trkpt lat="45.0145583" lon="11.6922333"><ele>5.0</ele><time>2026-03-22T07:22:42.166Z</time></trkpt><trkpt lat="45.0145167" lon="11.6923733"><ele>5.0</ele><time>2026-03-22T07:22:44.167Z</time></trkpt><trkpt lat="45.0144867" lon="11.69251"><ele>5.0</ele><time>2026-03-22T07:22:46.163Z</time></trkpt><trkpt lat="45.0144633" lon="11.6926367"><ele>5.0</ele><time>2026-03-22T07:22:48.165Z</time></trkpt><trkpt lat="45.0144433" lon="11.6927483"><ele>5.0</ele><time>2026-03-22T07:22:50.157Z</time></trkpt><trkpt lat="45.0144367" lon="11.69285"><ele>5.0</ele><time>2026-03-22T07:22:52.162Z</time></trkpt><trkpt lat="45.0144333" lon="11.692975"><ele>5.0</ele><time>2026-03-22T07:22:55.157Z</time></trkpt><trkpt lat="45.01442" lon="11.6931517"><ele>5.333333333333334</ele><time>2026-03-22T07:23:07.134Z</time></trkpt><trkpt lat="45.01444" lon="11.69329"><ele>5.666666666666667</ele><time>2026-03-22T07:23:10.166Z</time></trkpt><trkpt lat="45.0144917" lon="11.69337"><ele>6.0</ele><time>2026-03-22T07:23:12.162Z</time></trkpt><trkpt lat="45.0145683" lon="11.693415"><ele>6.333333333333334</ele><time>2026-03-22T07:23:14.164Z</time></trkpt><trkpt lat="45.0146233" lon="11.6934983"><ele>6.666666666666667</ele><time>2026-03-22T07:23:16.17Z</time></trkpt><trkpt lat="45.0146183" lon="11.6936183"><ele>7.0</ele><time>2026-03-22T07:23:18.158Z</time></trkpt><trkpt lat="45.0146017" lon="11.6937483"><ele>7.0</ele><time>2026-03-22T07:23:20.162Z</time></trkpt><trkpt lat="45.01458" lon="11.693885"><ele>6.999999999999999</ele><time>2026-03-22T07:23:22.156Z</time></trkpt><trkpt lat="45.0145567" lon="11.6940233"><ele>6.999999999999999</ele><time>2026-03-22T07:23:24.169Z</time></trkpt><trkpt lat="45.01453" lon="11.6941617"><ele>7.0</ele><time>2026-03-22T07:23:26.167Z</time></trkpt><trkpt lat="45.0145067" lon="11.6943067"><ele>7.0</ele><time>2026-03-22T07:23:28.151Z</time></trkpt><trkpt lat="45.0144767" lon="11.6944533"><ele>6.8</ele><time>2026-03-22T07:23:30.164Z</time></trkpt><trkpt lat="45.0144533" lon="11.6946033"><ele>6.6</ele><time>2026-03-22T07:23:32.169Z</time></trkpt><trkpt lat="45.01445" lon="11.6947517"><ele>6.3999999999999995</ele><time>2026-03-22T07:23:34.163Z</time></trkpt><trkpt lat="45.014495" lon="11.6948817"><ele>6.199999999999999</ele><time>2026-03-22T07:23:36.165Z</time></trkpt><trkpt lat="45.0145917" lon="11.6949733"><ele>6.0</ele><time>2026-03-22T07:23:38.169Z</time></trkpt><trkpt lat="45.0146983" lon="11.69504"><ele>6.0</ele><time>2026-03-22T07:23:40.157Z</time></trkpt><trkpt lat="45.0148017" lon="11.6951033"><ele>6.0</ele><time>2026-03-22T07:23:42.16Z</time></trkpt><trkpt lat="45.0148983" lon="11.6952"><ele>6.0</ele><time>2026-03-22T07:23:44.164Z</time></trkpt><trkpt lat="45.014975" lon="11.6953333"><ele>6.0</ele><time>2026-03-22T07:23:46.17Z</time></trkpt><trkpt lat="45.0150317" lon="11.695485"><ele>6.0</ele><time>2026-03-22T07:23:48.132Z</time></trkpt><trkpt lat="45.0150617" lon="11.69565"><ele>6.0</ele><time>2026-03-22T07:23:50.154Z</time></trkpt><trkpt lat="45.0150667" lon="11.6958233"><ele>6.0</ele><time>2026-03-22T07:23:52.164Z</time></trkpt><trkpt lat="45.0150567" lon="11.69599"><ele>6.0</ele><time>2026-03-22T07:23:54.17Z</time></trkpt><trkpt lat="45.0150367" lon="11.69616"><ele>6.0</ele><time>2026-03-22T07:23:56.167Z</time></trkpt><trkpt lat="45.015015" lon="11.69633"><ele>6.0</ele><time>2026-03-22T07:23:58.159Z</time></trkpt><trkpt lat="45.0149983" lon="11.6965033"><ele>6.0</ele><time>2026-03-22T07:24:00.15Z</time></trkpt><trkpt lat="45.01499" lon="11.6965933"><ele>6.0</ele><time>2026-03-22T07:24:01.16Z</time></trkpt><trkpt lat="45.0149817" lon="11.696685"><ele>6.0</ele><time>2026-03-22T07:24:02.168Z</time></trkpt><trkpt lat="45.014975" lon="11.6967767"><ele>6.0</ele><time>2026-03-22T07:24:03.17Z</time></trkpt><trkpt lat="45.0149667" lon="11.696865"><ele>5.8</ele><time>2026-03-22T07:24:04.17Z</time></trkpt><trkpt lat="45.0149533" lon="11.6970417"><ele>5.6</ele><time>2026-03-22T07:24:06.159Z</time></trkpt><trkpt lat="45.014945" lon="11.69713"><ele>5.4</ele><time>2026-03-22T07:24:07.167Z</time></trkpt><trkpt lat="45.01493" lon="11.6973067"><ele>5.2</ele><time>2026-03-22T07:24:09.169Z</time></trkpt><trkpt lat="45.0149217" lon="11.697395"><ele>5.0</ele><time>2026-03-22T07:24:10.167Z</time></trkpt><trkpt lat="45.014905" lon="11.6975683"><ele>5.0</ele><time>2026-03-22T07:24:12.16Z</time></trkpt><trkpt lat="45.0148817" lon="11.6977417"><ele>5.0</ele><time>2026-03-22T07:24:14.165Z</time></trkpt><trkpt lat="45.0148517" lon="11.697915"><ele>5.0</ele><time>2026-03-22T07:24:16.171Z</time></trkpt><trkpt lat="45.0148367" lon="11.6980017"><ele>5.0</ele><time>2026-03-22T07:24:17.163Z</time></trkpt><trkpt lat="45.0148233" lon="11.69809"><ele>5.0</ele><time>2026-03-22T07:24:18.163Z</time></trkpt><trkpt lat="45.0148083" lon="11.6981767"><ele>5.0</ele><time>2026-03-22T07:24:19.164Z</time></trkpt><trkpt lat="45.0147933" lon="11.698265"><ele>5.0</ele><time>2026-03-22T07:24:20.167Z</time></trkpt><trkpt lat="45.0147667" lon="11.69844"><ele>5.0</ele><time>2026-03-22T07:24:22.157Z</time></trkpt><trkpt lat="45.0147533" lon="11.6985283"><ele>5.0</ele><time>2026-03-22T07:24:23.164Z</time></trkpt><trkpt lat="45.01473" lon="11.6987033"><ele>5.0</ele><time>2026-03-22T07:24:25.168Z</time></trkpt><trkpt lat="45.0147183" lon="11.6987917"><ele>5.0</ele><time>2026-03-22T07:24:26.169Z</time></trkpt><trkpt lat="45.014705" lon="11.6988817"><ele>5.0</ele><time>2026-03-22T07:24:27.168Z</time></trkpt><trkpt lat="45.0146967" lon="11.6989733"><ele>5.0</ele><time>2026-03-22T07:24:28.167Z</time></trkpt><trkpt lat="45.0146883" lon="11.699065"><ele>5.0</ele><time>2026-03-22T07:24:29.169Z</time></trkpt><trkpt lat="45.0146817" lon="11.699155"><ele>5.0</ele><time>2026-03-22T07:24:30.17Z</time></trkpt><trkpt lat="45.0146783" lon="11.6992483"><ele>5.0</ele><time>2026-03-22T07:24:31.166Z</time></trkpt><trkpt lat="45.0146767" lon="11.6993417"><ele>5.0</ele><time>2026-03-22T07:24:32.139Z</time></trkpt><trkpt lat="45.0146733" lon="11.699435"><ele>5.0</ele><time>2026-03-22T07:24:33.157Z</time></trkpt><trkpt lat="45.0146717" lon="11.6995267"><ele>5.0</ele><time>2026-03-22T07:24:34.165Z</time></trkpt><trkpt lat="45.0146717" lon="11.6996217"><ele>5.0</ele><time>2026-03-22T07:24:35.168Z</time></trkpt><trkpt lat="45.0146733" lon="11.699715"><ele>5.0</ele><time>2026-03-22T07:24:36.164Z</time></trkpt><trkpt lat="45.014675" lon="11.6998067"><ele>5.0</ele><time>2026-03-22T07:24:37.169Z</time></trkpt><trkpt lat="45.0146783" lon="11.6998983"><ele>5.0</ele><time>2026-03-22T07:24:38.171Z</time></trkpt><trkpt lat="45.0146833" lon="11.6999883"><ele>5.0</ele><time>2026-03-22T07:24:39.167Z</time></trkpt><trkpt lat="45.014695" lon="11.7000767"><ele>5.0</ele><time>2026-03-22T07:24:40.168Z</time></trkpt><trkpt lat="45.0147417" lon="11.70024"><ele>5.0</ele><time>2026-03-22T07:24:42.169Z</time></trkpt><trkpt lat="45.0148167" lon="11.7003683"><ele>4.75</ele><time>2026-03-22T07:24:44.161Z</time></trkpt><trkpt lat="45.0149283" lon="11.7004517"><ele>4.5</ele><time>2026-03-22T07:24:46.171Z</time></trkpt><trkpt lat="45.0150417" lon="11.7005233"><ele>4.25</ele><time>2026-03-22T07:24:48.14Z</time></trkpt><trkpt lat="45.0151583" lon="11.7005883"><ele>4.0</ele><time>2026-03-22T07:24:50.164Z</time></trkpt><trkpt lat="45.0152717" lon="11.7006583"><ele>4.0</ele><time>2026-03-22T07:24:52.167Z</time></trkpt><trkpt lat="45.0153833" lon="11.7007267"><ele>4.0</ele><time>2026-03-22T07:24:54.165Z</time></trkpt><trkpt lat="45.0154967" lon="11.7007983"><ele>4.0</ele><time>2026-03-22T07:24:56.165Z</time></trkpt><trkpt lat="45.0156117" lon="11.7008633"><ele>4.0</ele><time>2026-03-22T07:24:58.159Z</time></trkpt><trkpt lat="45.01567" lon="11.7008983"><ele>4.0</ele><time>2026-03-22T07:24:59.167Z</time></trkpt><trkpt lat="45.0157283" lon="11.700935"><ele>3.8571428571428568</ele><time>2026-03-22T07:25:00.167Z</time></trkpt><trkpt lat="45.0158433" lon="11.7010033"><ele>3.714285714285714</ele><time>2026-03-22T07:25:02.171Z</time></trkpt><trkpt lat="45.0159033" lon="11.7010383"><ele>3.571428571428571</ele><time>2026-03-22T07:25:03.163Z</time></trkpt><trkpt lat="45.0159617" lon="11.7010717"><ele>3.4285714285714284</ele><time>2026-03-22T07:25:04.142Z</time></trkpt><trkpt lat="45.01602" lon="11.7011067"><ele>3.2857142857142856</ele><time>2026-03-22T07:25:05.161Z</time></trkpt><trkpt lat="45.0160783" lon="11.7011433"><ele>3.1428571428571423</ele><time>2026-03-22T07:25:06.167Z</time></trkpt><trkpt lat="45.0161367" lon="11.7011783"><ele>3.0</ele><time>2026-03-22T07:25:07.165Z</time></trkpt><trkpt lat="45.0162517" lon="11.70125"><ele>3.0</ele><time>2026-03-22T07:25:09.143Z</time></trkpt><trkpt lat="45.0163083" lon="11.70129"><ele>3.0</ele><time>2026-03-22T07:25:10.158Z</time></trkpt><trkpt lat="45.01642" lon="11.7013667"><ele>3.0</ele><time>2026-03-22T07:25:12.163Z</time></trkpt><trkpt lat="45.016525" lon="11.7014533"><ele>3.0</ele><time>2026-03-22T07:25:14.167Z</time></trkpt><trkpt lat="45.0166117" lon="11.701575"><ele>3.0</ele><time>2026-03-22T07:25:16.169Z</time></trkpt><trkpt lat="45.01664" lon="11.701655"><ele>2.8</ele><time>2026-03-22T07:25:17.166Z</time></trkpt><trkpt lat="45.0166633" lon="11.7017383"><ele>2.5999999999999996</ele><time>2026-03-22T07:25:18.165Z</time></trkpt><trkpt lat="45.0167117" lon="11.7019"><ele>2.4000000000000004</ele><time>2026-03-22T07:25:20.155Z</time></trkpt><trkpt lat="45.0167733" lon="11.702045"><ele>2.2</ele><time>2026-03-22T07:25:22.163Z</time></trkpt><trkpt lat="45.01686" lon="11.7021633"><ele>2.0</ele><time>2026-03-22T07:25:24.157Z</time></trkpt><trkpt lat="45.016965" lon="11.7022367"><ele>1.857142857142857</ele><time>2026-03-22T07:25:26.157Z</time></trkpt><trkpt lat="45.0170867" lon="11.7022483"><ele>1.714285714285714</ele><time>2026-03-22T07:25:28.167Z</time></trkpt><trkpt lat="45.01715" lon="11.7022383"><ele>1.5714285714285714</ele><time>2026-03-22T07:25:29.168Z</time></trkpt><trkpt lat="45.0172117" lon="11.7022167"><ele>1.4285714285714284</ele><time>2026-03-22T07:25:30.166Z</time></trkpt><trkpt lat="45.0172733" lon="11.7021883"><ele>1.2857142857142856</ele><time>2026-03-22T07:25:31.165Z</time></trkpt><trkpt lat="45.0173367" lon="11.7021567"><ele>1.1428571428571428</ele><time>2026-03-22T07:25:32.169Z</time></trkpt><trkpt lat="45.0174" lon="11.702125"><ele>1.0</ele><time>2026-03-22T07:25:33.164Z</time></trkpt><trkpt lat="45.017465" lon="11.7021017"><ele>0.8571428571428571</ele><time>2026-03-22T07:25:34.165Z</time></trkpt><trkpt lat="45.01753" lon="11.7020917"><ele>0.7142857142857142</ele><time>2026-03-22T07:25:35.168Z</time></trkpt><trkpt lat="45.017595" lon="11.702095"><ele>0.5714285714285714</ele><time>2026-03-22T07:25:36.165Z</time></trkpt><trkpt lat="45.0176617" lon="11.7021017"><ele>0.42857142857142855</ele><time>2026-03-22T07:25:37.149Z</time></trkpt><trkpt lat="45.0177283" lon="11.7021033"><ele>0.2857142857142857</ele><time>2026-03-22T07:25:38.168Z</time></trkpt><trkpt lat="45.0177933" lon="11.702105"><ele>0.14285714285714285</ele><time>2026-03-22T07:25:39.167Z</time></trkpt><trkpt lat="45.0178567" lon="11.7021083"><ele>0.0</ele><time>2026-03-22T07:25:40.167Z</time></trkpt><trkpt lat="45.0179817" lon="11.7021083"><ele>0.0</ele><time>2026-03-22T07:25:42.157Z</time></trkpt><trkpt lat="45.018045" lon="11.7021033"><ele>0.0</ele><time>2026-03-22T07:25:43.167Z</time></trkpt><trkpt lat="45.0181667" lon="11.7020967"><ele>0.0</ele><time>2026-03-22T07:25:45.167Z</time></trkpt><trkpt lat="45.0182833" lon="11.7020883"><ele>0.0</ele><time>2026-03-22T07:25:47.158Z</time></trkpt><trkpt lat="45.0183983" lon="11.70208"><ele>0.0</ele><time>2026-03-22T07:25:49.16Z</time></trkpt><trkpt lat="45.0185133" lon="11.7020683"><ele>0.2</ele><time>2026-03-22T07:25:51.156Z</time></trkpt><trkpt lat="45.0186267" lon="11.702065"><ele>0.4</ele><time>2026-03-22T07:25:53.166Z</time></trkpt><trkpt lat="45.0187383" lon="11.7020583"><ele>0.6000000000000001</ele><time>2026-03-22T07:25:55.162Z</time></trkpt><trkpt lat="45.0188467" lon="11.702055"><ele>0.8</ele><time>2026-03-22T07:25:57.148Z</time></trkpt><trkpt lat="45.0189517" lon="11.702055"><ele>1.0</ele><time>2026-03-22T07:25:59.164Z</time></trkpt><trkpt lat="45.019055" lon="11.7020483"><ele>1.6</ele><time>2026-03-22T07:26:01.168Z</time></trkpt><trkpt lat="45.0191583" lon="11.7020383"><ele>2.2</ele><time>2026-03-22T07:26:03.169Z</time></trkpt><trkpt lat="45.0192667" lon="11.702035"><ele>2.8000000000000003</ele><time>2026-03-22T07:26:05.16Z</time></trkpt><trkpt lat="45.01938" lon="11.7020283"><ele>3.4000000000000004</ele><time>2026-03-22T07:26:07.148Z</time></trkpt><trkpt lat="45.0194867" lon="11.702025"><ele>4.0</ele><time>2026-03-22T07:26:09.157Z</time></trkpt><trkpt lat="45.0195917" lon="11.7020233"><ele>4.0</ele><time>2026-03-22T07:26:11.167Z</time></trkpt><trkpt lat="45.0197033" lon="11.7020167"><ele>4.0</ele><time>2026-03-22T07:26:13.149Z</time></trkpt><trkpt lat="45.01982" lon="11.70201"><ele>4.0</ele><time>2026-03-22T07:26:15.159Z</time></trkpt><trkpt lat="45.0199333" lon="11.7020017"><ele>4.0</ele><time>2026-03-22T07:26:17.165Z</time></trkpt><trkpt lat="45.02005" lon="11.7019967"><ele>3.833333333333333</ele><time>2026-03-22T07:26:19.167Z</time></trkpt><trkpt lat="45.0201783" lon="11.7019983"><ele>3.6666666666666665</ele><time>2026-03-22T07:26:21.168Z</time></trkpt><trkpt lat="45.0202467" lon="11.7020083"><ele>3.5</ele><time>2026-03-22T07:26:22.165Z</time></trkpt><trkpt lat="45.02032" lon="11.7020183"><ele>3.333333333333333</ele><time>2026-03-22T07:26:23.164Z</time></trkpt><trkpt lat="45.0203933" lon="11.702035"><ele>3.1666666666666665</ele><time>2026-03-22T07:26:24.168Z</time></trkpt><trkpt lat="45.02047" lon="11.7020533"><ele>3.0</ele><time>2026-03-22T07:26:25.16Z</time></trkpt><trkpt lat="45.0205467" lon="11.7020733"><ele>3.0</ele><time>2026-03-22T07:26:26.166Z</time></trkpt><trkpt lat="45.02062" lon="11.7020983"><ele>3.0</ele><time>2026-03-22T07:26:27.148Z</time></trkpt><trkpt lat="45.0206933" lon="11.7021233"><ele>3.0</ele><time>2026-03-22T07:26:28.165Z</time></trkpt><trkpt lat="45.0207683" lon="11.7021533"><ele>3.0</ele><time>2026-03-22T07:26:29.151Z</time></trkpt><trkpt lat="45.020845" lon="11.70219"><ele>3.0</ele><time>2026-03-22T07:26:30.167Z</time></trkpt><trkpt lat="45.0209233" lon="11.7022317"><ele>3.0</ele><time>2026-03-22T07:26:31.165Z</time></trkpt><trkpt lat="45.0209967" lon="11.7022683"><ele>2.6666666666666665</ele><time>2026-03-22T07:26:32.17Z</time></trkpt><trkpt lat="45.0210733" lon="11.70231"><ele>2.3333333333333335</ele><time>2026-03-22T07:26:33.169Z</time></trkpt><trkpt lat="45.0211483" lon="11.7023583"><ele>2.0</ele><time>2026-03-22T07:26:34.168Z</time></trkpt><trkpt lat="45.0212217" lon="11.70241"><ele>1.6666666666666665</ele><time>2026-03-22T07:26:35.16Z</time></trkpt><trkpt lat="45.021295" lon="11.70247"><ele>1.3333333333333333</ele><time>2026-03-22T07:26:36.167Z</time></trkpt><trkpt lat="45.0213617" lon="11.7025417"><ele>1.0</ele><time>2026-03-22T07:26:37.167Z</time></trkpt><trkpt lat="45.0214267" lon="11.7026183"><ele>0.9999999999999999</ele><time>2026-03-22T07:26:38.171Z</time></trkpt><trkpt lat="45.0214867" lon="11.7027"><ele>1.0</ele><time>2026-03-22T07:26:39.166Z</time></trkpt><trkpt lat="45.0215467" lon="11.7027817"><ele>1.0</ele><time>2026-03-22T07:26:40.156Z</time></trkpt><trkpt lat="45.0216067" lon="11.7028617"><ele>1.0</ele><time>2026-03-22T07:26:41.167Z</time></trkpt><trkpt lat="45.0216633" lon="11.7029417"><ele>0.9999999999999999</ele><time>2026-03-22T07:26:42.171Z</time></trkpt><trkpt lat="45.0217183" lon="11.7030217"><ele>1.0</ele><time>2026-03-22T07:26:43.164Z</time></trkpt><trkpt lat="45.0217717" lon="11.7031067"><ele>0.9999999999999999</ele><time>2026-03-22T07:26:44.168Z</time></trkpt><trkpt lat="45.0218167" lon="11.7031967"><ele>1.0</ele><time>2026-03-22T07:26:45.133Z</time></trkpt><trkpt lat="45.0218533" lon="11.70329"><ele>1.0</ele><time>2026-03-22T07:26:46.157Z</time></trkpt><trkpt lat="45.021885" lon="11.7033883"><ele>1.0</ele><time>2026-03-22T07:26:47.164Z</time></trkpt><trkpt lat="45.0219133" lon="11.7034883"><ele>0.9999999999999999</ele><time>2026-03-22T07:26:48.168Z</time></trkpt><trkpt lat="45.0219367" lon="11.70359"><ele>1.0</ele><time>2026-03-22T07:26:49.155Z</time></trkpt><trkpt lat="45.0219583" lon="11.7036917"><ele>1.0</ele><time>2026-03-22T07:26:50.156Z</time></trkpt><trkpt lat="45.0219783" lon="11.7037917"><ele>0.9999999999999999</ele><time>2026-03-22T07:26:51.164Z</time></trkpt><trkpt lat="45.021995" lon="11.70389"><ele>1.0</ele><time>2026-03-22T07:26:52.171Z</time></trkpt><trkpt lat="45.0220117" lon="11.7039867"><ele>1.0</ele><time>2026-03-22T07:26:53.165Z</time></trkpt><trkpt lat="45.0220267" lon="11.7040817"><ele>0.9999999999999999</ele><time>2026-03-22T07:26:54.164Z</time></trkpt><trkpt lat="45.022045" lon="11.7041783"><ele>1.0</ele><time>2026-03-22T07:26:55.164Z</time></trkpt><trkpt lat="45.0220617" lon="11.704275"><ele>1.0</ele><time>2026-03-22T07:26:56.168Z</time></trkpt><trkpt lat="45.022075" lon="11.70437"><ele>0.9999999999999999</ele><time>2026-03-22T07:26:57.166Z</time></trkpt><trkpt lat="45.02209" lon="11.704465"><ele>1.0</ele><time>2026-03-22T07:26:58.293Z</time></trkpt><trkpt lat="45.02212" lon="11.7046583"><ele>1.0</ele><time>2026-03-22T07:27:00.169Z</time></trkpt><trkpt lat="45.0221367" lon="11.704755"><ele>1.0</ele><time>2026-03-22T07:27:01.154Z</time></trkpt><trkpt lat="45.0221533" lon="11.7048533"><ele>0.9999999999999999</ele><time>2026-03-22T07:27:02.154Z</time></trkpt><trkpt lat="45.02217" lon="11.70495"><ele>1.0</ele><time>2026-03-22T07:27:03.165Z</time></trkpt><trkpt lat="45.0221867" lon="11.70505"><ele>1.0</ele><time>2026-03-22T07:27:04.163Z</time></trkpt><trkpt lat="45.0222017" lon="11.7051467"><ele>0.9999999999999999</ele><time>2026-03-22T07:27:05.162Z</time></trkpt><trkpt lat="45.0222167" lon="11.705245"><ele>1.0</ele><time>2026-03-22T07:27:06.163Z</time></trkpt><trkpt lat="45.0222333" lon="11.7053433"><ele>1.0</ele><time>2026-03-22T07:27:07.166Z</time></trkpt><trkpt lat="45.0222483" lon="11.7054417"><ele>0.9999999999999999</ele><time>2026-03-22T07:27:08.171Z</time></trkpt><trkpt lat="45.0222667" lon="11.7055383"><ele>1.0</ele><time>2026-03-22T07:27:09.168Z</time></trkpt><trkpt lat="45.0222867" lon="11.705635"><ele>1.0</ele><time>2026-03-22T07:27:10.164Z</time></trkpt><trkpt lat="45.02231" lon="11.70573"><ele>1.1428571428571428</ele><time>2026-03-22T07:27:11.16Z</time></trkpt><trkpt lat="45.02234" lon="11.7058217"><ele>1.2857142857142856</ele><time>2026-03-22T07:27:12.159Z</time></trkpt><trkpt lat="45.0223733" lon="11.7059117"><ele>1.4285714285714284</ele><time>2026-03-22T07:27:13.167Z</time></trkpt><trkpt lat="45.0224133" lon="11.7059967"><ele>1.5714285714285714</ele><time>2026-03-22T07:27:14.17Z</time></trkpt><trkpt lat="45.022455" lon="11.706075"><ele>1.714285714285714</ele><time>2026-03-22T07:27:15.141Z</time></trkpt><trkpt lat="45.0225017" lon="11.70615"><ele>1.857142857142857</ele><time>2026-03-22T07:27:16.126Z</time></trkpt><trkpt lat="45.02255" lon="11.7062233"><ele>2.0</ele><time>2026-03-22T07:27:17.134Z</time></trkpt><trkpt lat="45.0226033" lon="11.7062917"><ele>2.142857142857143</ele><time>2026-03-22T07:27:18.131Z</time></trkpt><trkpt lat="45.0226583" lon="11.706355"><ele>2.2857142857142856</ele><time>2026-03-22T07:27:19.163Z</time></trkpt><trkpt lat="45.0227133" lon="11.7064167"><ele>2.4285714285714284</ele><time>2026-03-22T07:27:20.168Z</time></trkpt><trkpt lat="45.0227683" lon="11.7064783"><ele>2.571428571428571</ele><time>2026-03-22T07:27:21.163Z</time></trkpt><trkpt lat="45.0228233" lon="11.70654"><ele>2.7142857142857144</ele><time>2026-03-22T07:27:22.134Z</time></trkpt><trkpt lat="45.0228767" lon="11.7066017"><ele>2.8571428571428568</ele><time>2026-03-22T07:27:23.142Z</time></trkpt><trkpt lat="45.0229317" lon="11.706665"><ele>3.0</ele><time>2026-03-22T07:27:24.152Z</time></trkpt><trkpt lat="45.0229883" lon="11.7067233"><ele>2.9999999999999996</ele><time>2026-03-22T07:27:25.163Z</time></trkpt><trkpt lat="45.0230433" lon="11.706785"><ele>3.0</ele><time>2026-03-22T07:27:26.157Z</time></trkpt><trkpt lat="45.0230967" lon="11.706845"><ele>3.0</ele><time>2026-03-22T07:27:27.161Z</time></trkpt><trkpt lat="45.0231517" lon="11.7069067"><ele>3.0</ele><time>2026-03-22T07:27:28.166Z</time></trkpt><trkpt lat="45.023205" lon="11.70697"><ele>3.0</ele><time>2026-03-22T07:27:29.168Z</time></trkpt><trkpt lat="45.0232617" lon="11.70703"><ele>2.9999999999999996</ele><time>2026-03-22T07:27:30.162Z</time></trkpt><trkpt lat="45.0233167" lon="11.7070917"><ele>3.0</ele><time>2026-03-22T07:27:31.166Z</time></trkpt><trkpt lat="45.0233717" lon="11.7071533"><ele>2.8571428571428568</ele><time>2026-03-22T07:27:32.17Z</time></trkpt><trkpt lat="45.0234267" lon="11.7072117"><ele>2.7142857142857144</ele><time>2026-03-22T07:27:33.166Z</time></trkpt><trkpt lat="45.0234817" lon="11.7072733"><ele>2.571428571428571</ele><time>2026-03-22T07:27:34.142Z</time></trkpt><trkpt lat="45.0235383" lon="11.7073333"><ele>2.4285714285714284</ele><time>2026-03-22T07:27:35.169Z</time></trkpt><trkpt lat="45.023595" lon="11.7073933"><ele>2.2857142857142856</ele><time>2026-03-22T07:27:36.164Z</time></trkpt><trkpt lat="45.0236517" lon="11.70745"><ele>2.142857142857143</ele><time>2026-03-22T07:27:37.15Z</time></trkpt><trkpt lat="45.02371" lon="11.707505"><ele>2.0</ele><time>2026-03-22T07:27:38.156Z</time></trkpt><trkpt lat="45.0237683" lon="11.7075583"><ele>2.0</ele><time>2026-03-22T07:27:39.17Z</time></trkpt><trkpt lat="45.0238267" lon="11.7076117"><ele>1.9999999999999998</ele><time>2026-03-22T07:27:40.167Z</time></trkpt><trkpt lat="45.0238867" lon="11.7076667"><ele>2.0</ele><time>2026-03-22T07:27:41.168Z</time></trkpt><trkpt lat="45.023945" lon="11.707725"><ele>2.0</ele><time>2026-03-22T07:27:42.166Z</time></trkpt><trkpt lat="45.024" lon="11.707785"><ele>1.9999999999999998</ele><time>2026-03-22T07:27:43.161Z</time></trkpt><trkpt lat="45.024055" lon="11.7078467"><ele>2.0</ele><time>2026-03-22T07:27:44.163Z</time></trkpt><trkpt lat="45.02411" lon="11.70791"><ele>2.0</ele><time>2026-03-22T07:27:45.172Z</time></trkpt><trkpt lat="45.0241633" lon="11.7079767"><ele>2.0</ele><time>2026-03-22T07:27:46.171Z</time></trkpt><trkpt lat="45.0242167" lon="11.7080417"><ele>1.9999999999999998</ele><time>2026-03-22T07:27:47.166Z</time></trkpt><trkpt lat="45.02427" lon="11.7081067"><ele>2.0</ele><time>2026-03-22T07:27:48.155Z</time></trkpt><trkpt lat="45.0243233" lon="11.70817"><ele>2.0</ele><time>2026-03-22T07:27:49.156Z</time></trkpt><trkpt lat="45.024375" lon="11.708235"><ele>1.9999999999999998</ele><time>2026-03-22T07:27:50.164Z</time></trkpt><trkpt lat="45.0244283" lon="11.7083"><ele>2.0</ele><time>2026-03-22T07:27:51.163Z</time></trkpt><trkpt lat="45.0244817" lon="11.708365"><ele>2.0</ele><time>2026-03-22T07:27:52.165Z</time></trkpt><trkpt lat="45.024535" lon="11.70843"><ele>2.0</ele><time>2026-03-22T07:27:53.164Z</time></trkpt><trkpt lat="45.0245883" lon="11.708495"><ele>1.9999999999999998</ele><time>2026-03-22T07:27:54.141Z</time></trkpt><trkpt lat="45.0246417" lon="11.70856"><ele>2.0</ele><time>2026-03-22T07:27:55.158Z</time></trkpt><trkpt lat="45.024695" lon="11.708625"><ele>2.0</ele><time>2026-03-22T07:27:56.163Z</time></trkpt><trkpt lat="45.0247483" lon="11.70869"><ele>1.9999999999999998</ele><time>2026-03-22T07:27:57.15Z</time></trkpt><trkpt lat="45.0248017" lon="11.708755"><ele>2.0</ele><time>2026-03-22T07:27:58.156Z</time></trkpt><trkpt lat="45.024855" lon="11.70882"><ele>2.0</ele><time>2026-03-22T07:27:59.166Z</time></trkpt><trkpt lat="45.0249083" lon="11.708885"><ele>2.0</ele><time>2026-03-22T07:28:00.167Z</time></trkpt><trkpt lat="45.02496" lon="11.7089517"><ele>1.9999999999999998</ele><time>2026-03-22T07:28:01.167Z</time></trkpt><trkpt lat="45.02501" lon="11.7090167"><ele>2.0</ele><time>2026-03-22T07:28:02.168Z</time></trkpt><trkpt lat="45.025065" lon="11.70908"><ele>2.0</ele><time>2026-03-22T07:28:03.167Z</time></trkpt><trkpt lat="45.0251167" lon="11.7091433"><ele>1.9999999999999998</ele><time>2026-03-22T07:28:04.162Z</time></trkpt><trkpt lat="45.02517" lon="11.7092033"><ele>2.0</ele><time>2026-03-22T07:28:05.135Z</time></trkpt><trkpt lat="45.025225" lon="11.7092633"><ele>2.0</ele><time>2026-03-22T07:28:06.157Z</time></trkpt><trkpt lat="45.0252817" lon="11.709325"><ele>2.0</ele><time>2026-03-22T07:28:07.164Z</time></trkpt><trkpt lat="45.0253417" lon="11.7093783"><ele>1.9999999999999998</ele><time>2026-03-22T07:28:08.167Z</time></trkpt><trkpt lat="45.0254017" lon="11.7094317"><ele>2.0</ele><time>2026-03-22T07:28:09.156Z</time></trkpt><trkpt lat="45.025465" lon="11.7094733"><ele>2.0</ele><time>2026-03-22T07:28:10.165Z</time></trkpt><trkpt lat="45.02553" lon="11.7095117"><ele>1.9999999999999998</ele><time>2026-03-22T07:28:11.166Z</time></trkpt><trkpt lat="45.0255967" lon="11.7095433"><ele>2.0</ele><time>2026-03-22T07:28:12.17Z</time></trkpt><trkpt lat="45.0256633" lon="11.70957"><ele>2.0</ele><time>2026-03-22T07:28:13.166Z</time></trkpt><trkpt lat="45.0257317" lon="11.709595"><ele>2.142857142857143</ele><time>2026-03-22T07:28:14.154Z</time></trkpt><trkpt lat="45.0258" lon="11.7096133"><ele>2.2857142857142856</ele><time>2026-03-22T07:28:15.158Z</time></trkpt><trkpt lat="45.0258683" lon="11.7096283"><ele>2.4285714285714284</ele><time>2026-03-22T07:28:16.152Z</time></trkpt><trkpt lat="45.0259383" lon="11.7096417"><ele>2.571428571428571</ele><time>2026-03-22T07:28:17.164Z</time></trkpt><trkpt lat="45.0260083" lon="11.7096533"><ele>2.7142857142857144</ele><time>2026-03-22T07:28:18.153Z</time></trkpt><trkpt lat="45.02608" lon="11.709665"><ele>2.8571428571428568</ele><time>2026-03-22T07:28:19.163Z</time></trkpt><trkpt lat="45.02615" lon="11.7096767"><ele>3.0</ele><time>2026-03-22T07:28:20.147Z</time></trkpt><trkpt lat="45.02622" lon="11.7096933"><ele>2.714285714285714</ele><time>2026-03-22T07:28:21.165Z</time></trkpt><trkpt lat="45.0262883" lon="11.7097217"><ele>2.4285714285714284</ele><time>2026-03-22T07:28:22.155Z</time></trkpt><trkpt lat="45.02635" lon="11.7097667"><ele>2.142857142857143</ele><time>2026-03-22T07:28:23.162Z</time></trkpt><trkpt lat="45.026405" lon="11.7098283"><ele>1.857142857142857</ele><time>2026-03-22T07:28:24.162Z</time></trkpt><trkpt lat="45.0264567" lon="11.7098967"><ele>1.5714285714285712</ele><time>2026-03-22T07:28:25.165Z</time></trkpt><trkpt lat="45.0265083" lon="11.7099617"><ele>1.2857142857142856</ele><time>2026-03-22T07:28:26.163Z</time></trkpt><trkpt lat="45.02656" lon="11.710025"><ele>1.0</ele><time>2026-03-22T07:28:27.166Z</time></trkpt><trkpt lat="45.0266117" lon="11.7100883"><ele>1.1428571428571428</ele><time>2026-03-22T07:28:28.164Z</time></trkpt><trkpt lat="45.02666" lon="11.7101567"><ele>1.2857142857142856</ele><time>2026-03-22T07:28:29.163Z</time></trkpt><trkpt lat="45.0267067" lon="11.71023"><ele>1.4285714285714284</ele><time>2026-03-22T07:28:30.165Z</time></trkpt><trkpt lat="45.0267533" lon="11.7103033"><ele>1.5714285714285714</ele><time>2026-03-22T07:28:31.167Z</time></trkpt><trkpt lat="45.0267983" lon="11.710375"><ele>1.714285714285714</ele><time>2026-03-22T07:28:32.168Z</time></trkpt><trkpt lat="45.0268433" lon="11.7104467"><ele>1.857142857142857</ele><time>2026-03-22T07:28:33.16Z</time></trkpt><trkpt lat="45.0268883" lon="11.7105167"><ele>2.0</ele><time>2026-03-22T07:28:34.169Z</time></trkpt><trkpt lat="45.0269333" lon="11.7105867"><ele>1.7142857142857142</ele><time>2026-03-22T07:28:35.128Z</time></trkpt><trkpt lat="45.02698" lon="11.7106583"><ele>1.4285714285714284</ele><time>2026-03-22T07:28:36.148Z</time></trkpt><trkpt lat="45.027025" lon="11.71073"><ele>1.1428571428571428</ele><time>2026-03-22T07:28:37.164Z</time></trkpt><trkpt lat="45.02707" lon="11.7108"><ele>0.8571428571428571</ele><time>2026-03-22T07:28:38.17Z</time></trkpt><trkpt lat="45.027115" lon="11.71087"><ele>0.5714285714285714</ele><time>2026-03-22T07:28:39.166Z</time></trkpt><trkpt lat="45.02716" lon="11.7109417"><ele>0.2857142857142857</ele><time>2026-03-22T07:28:40.166Z</time></trkpt><trkpt lat="45.027205" lon="11.7110133"><ele>0.0</ele><time>2026-03-22T07:28:41.167Z</time></trkpt><trkpt lat="45.0272517" lon="11.7110883"><ele>0.0</ele><time>2026-03-22T07:28:42.166Z</time></trkpt><trkpt lat="45.0272983" lon="11.7111617"><ele>0.0</ele><time>2026-03-22T07:28:43.164Z</time></trkpt><trkpt lat="45.027345" lon="11.7112367"><ele>0.0</ele><time>2026-03-22T07:28:44.163Z</time></trkpt><trkpt lat="45.02739" lon="11.71131"><ele>0.0</ele><time>2026-03-22T07:28:45.163Z</time></trkpt><trkpt lat="45.0274367" lon="11.711385"><ele>0.0</ele><time>2026-03-22T07:28:46.16Z</time></trkpt><trkpt lat="45.0274817" lon="11.7114583"><ele>0.0</ele><time>2026-03-22T07:28:47.159Z</time></trkpt><trkpt lat="45.0275267" lon="11.71153"><ele>0.0</ele><time>2026-03-22T07:28:48.149Z</time></trkpt><trkpt lat="45.0275717" lon="11.7116033"><ele>0.0</ele><time>2026-03-22T07:28:49.155Z</time></trkpt><trkpt lat="45.0276167" lon="11.7116767"><ele>0.0</ele><time>2026-03-22T07:28:50.164Z</time></trkpt><trkpt lat="45.0276617" lon="11.71175"><ele>0.0</ele><time>2026-03-22T07:28:51.146Z</time></trkpt><trkpt lat="45.027705" lon="11.711825"><ele>0.0</ele><time>2026-03-22T07:28:52.136Z</time></trkpt><trkpt lat="45.0277483" lon="11.7118967"><ele>0.0</ele><time>2026-03-22T07:28:53.16Z</time></trkpt><trkpt lat="45.02779" lon="11.7119667"><ele>0.0</ele><time>2026-03-22T07:28:54.166Z</time></trkpt><trkpt lat="45.0278317" lon="11.7120383"><ele>0.0</ele><time>2026-03-22T07:28:55.17Z</time></trkpt><trkpt lat="45.0278717" lon="11.71211"><ele>-0.14285714285714285</ele><time>2026-03-22T07:28:56.172Z</time></trkpt><trkpt lat="45.0279133" lon="11.7121817"><ele>-0.2857142857142857</ele><time>2026-03-22T07:28:57.171Z</time></trkpt><trkpt lat="45.0279533" lon="11.712255"><ele>-0.42857142857142855</ele><time>2026-03-22T07:28:58.16Z</time></trkpt><trkpt lat="45.0279933" lon="11.71233"><ele>-0.5714285714285714</ele><time>2026-03-22T07:28:59.164Z</time></trkpt><trkpt lat="45.0280333" lon="11.7124017"><ele>-0.7142857142857142</ele><time>2026-03-22T07:29:00.166Z</time></trkpt><trkpt lat="45.028075" lon="11.712475"><ele>-0.8571428571428571</ele><time>2026-03-22T07:29:01.169Z</time></trkpt><trkpt lat="45.0281167" lon="11.7125467"><ele>-1.0</ele><time>2026-03-22T07:29:02.167Z</time></trkpt><trkpt lat="45.02816" lon="11.7126183"><ele>-1.0</ele><time>2026-03-22T07:29:03.169Z</time></trkpt><trkpt lat="45.0282033" lon="11.7126917"><ele>-0.9999999999999999</ele><time>2026-03-22T07:29:04.177Z</time></trkpt><trkpt lat="45.0282433" lon="11.712765"><ele>-1.0</ele><time>2026-03-22T07:29:05.165Z</time></trkpt><trkpt lat="45.0282867" lon="11.7128383"><ele>-1.0</ele><time>2026-03-22T07:29:06.165Z</time></trkpt><trkpt lat="45.0283283" lon="11.7129117"><ele>-0.9999999999999999</ele><time>2026-03-22T07:29:07.166Z</time></trkpt><trkpt lat="45.0283683" lon="11.7129833"><ele>-1.0</ele><time>2026-03-22T07:29:08.131Z</time></trkpt><trkpt lat="45.0284083" lon="11.7130583"><ele>-1.0</ele><time>2026-03-22T07:29:09.164Z</time></trkpt><trkpt lat="45.02845" lon="11.7131333"><ele>-0.8571428571428571</ele><time>2026-03-22T07:29:10.166Z</time></trkpt><trkpt lat="45.02849" lon="11.7132067"><ele>-0.7142857142857142</ele><time>2026-03-22T07:29:11.167Z</time></trkpt><trkpt lat="45.0285317" lon="11.71328"><ele>-0.5714285714285714</ele><time>2026-03-22T07:29:12.169Z</time></trkpt><trkpt lat="45.0285717" lon="11.7133533"><ele>-0.42857142857142855</ele><time>2026-03-22T07:29:13.166Z</time></trkpt><trkpt lat="45.028615" lon="11.713425"><ele>-0.2857142857142857</ele><time>2026-03-22T07:29:14.169Z</time></trkpt><trkpt lat="45.0286567" lon="11.7134933"><ele>-0.14285714285714285</ele><time>2026-03-22T07:29:15.165Z</time></trkpt><trkpt lat="45.0286983" lon="11.713565"><ele>0.0</ele><time>2026-03-22T07:29:16.161Z</time></trkpt><trkpt lat="45.02874" lon="11.713635"><ele>0.0</ele><time>2026-03-22T07:29:17.161Z</time></trkpt><trkpt lat="45.0287817" lon="11.7137067"><ele>0.0</ele><time>2026-03-22T07:29:18.158Z</time></trkpt><trkpt lat="45.0288233" lon="11.7137817"><ele>0.0</ele><time>2026-03-22T07:29:19.162Z</time></trkpt><trkpt lat="45.028865" lon="11.713855"><ele>0.0</ele><time>2026-03-22T07:29:20.167Z</time></trkpt><trkpt lat="45.0289067" lon="11.7139267"><ele>0.0</ele><time>2026-03-22T07:29:21.164Z</time></trkpt><trkpt lat="45.0289483" lon="11.7140017"><ele>0.0</ele><time>2026-03-22T07:29:22.163Z</time></trkpt><trkpt lat="45.02899" lon="11.714075"><ele>0.0</ele><time>2026-03-22T07:29:23.159Z</time></trkpt><trkpt lat="45.0290317" lon="11.71415"><ele>0.0</ele><time>2026-03-22T07:29:24.14Z</time></trkpt><trkpt lat="45.0290717" lon="11.7142233"><ele>0.0</ele><time>2026-03-22T07:29:25.158Z</time></trkpt><trkpt lat="45.0291133" lon="11.7142983"><ele>0.0</ele><time>2026-03-22T07:29:26.163Z</time></trkpt><trkpt lat="45.029155" lon="11.7143717"><ele>0.0</ele><time>2026-03-22T07:29:27.163Z</time></trkpt><trkpt lat="45.029195" lon="11.7144467"><ele>0.0</ele><time>2026-03-22T07:29:28.162Z</time></trkpt><trkpt lat="45.0292367" lon="11.71452"><ele>0.0</ele><time>2026-03-22T07:29:29.161Z</time></trkpt><trkpt lat="45.0292783" lon="11.7145917"><ele>0.0</ele><time>2026-03-22T07:29:30.167Z</time></trkpt><trkpt lat="45.02932" lon="11.7146633"><ele>-0.2857142857142857</ele><time>2026-03-22T07:29:31.167Z</time></trkpt><trkpt lat="45.0293633" lon="11.7147367"><ele>-0.5714285714285714</ele><time>2026-03-22T07:29:32.163Z</time></trkpt><trkpt lat="45.0294033" lon="11.71481"><ele>-0.8571428571428571</ele><time>2026-03-22T07:29:33.163Z</time></trkpt><trkpt lat="45.029445" lon="11.7148833"><ele>-1.1428571428571428</ele><time>2026-03-22T07:29:34.163Z</time></trkpt><trkpt lat="45.0294883" lon="11.7149567"><ele>-1.4285714285714284</ele><time>2026-03-22T07:29:35.164Z</time></trkpt><trkpt lat="45.0295333" lon="11.71503"><ele>-1.7142857142857142</ele><time>2026-03-22T07:29:36.167Z</time></trkpt><trkpt lat="45.0295767" lon="11.7151033"><ele>-2.0</ele><time>2026-03-22T07:29:37.161Z</time></trkpt><trkpt lat="45.02962" lon="11.715175"><ele>-1.857142857142857</ele><time>2026-03-22T07:29:38.159Z</time></trkpt><trkpt lat="45.0296617" lon="11.7152483"><ele>-1.714285714285714</ele><time>2026-03-22T07:29:39.153Z</time></trkpt><trkpt lat="45.0297033" lon="11.7153233"><ele>-1.5714285714285714</ele><time>2026-03-22T07:29:40.131Z</time></trkpt><trkpt lat="45.029745" lon="11.7153967"><ele>-1.4285714285714284</ele><time>2026-03-22T07:29:41.153Z</time></trkpt><trkpt lat="45.0297867" lon="11.71547"><ele>-1.2857142857142856</ele><time>2026-03-22T07:29:42.163Z</time></trkpt><trkpt lat="45.0298283" lon="11.715545"><ele>-1.1428571428571428</ele><time>2026-03-22T07:29:43.16Z</time></trkpt><trkpt lat="45.0298717" lon="11.71562"><ele>-1.0</ele><time>2026-03-22T07:29:44.158Z</time></trkpt><trkpt lat="45.0299133" lon="11.715695"><ele>-1.0</ele><time>2026-03-22T07:29:45.167Z</time></trkpt><trkpt lat="45.029955" lon="11.7157683"><ele>-0.9999999999999999</ele><time>2026-03-22T07:29:46.168Z</time></trkpt><trkpt lat="45.0299967" lon="11.71584"><ele>-1.0</ele><time>2026-03-22T07:29:47.163Z</time></trkpt><trkpt lat="45.0300383" lon="11.715915"><ele>-1.0</ele><time>2026-03-22T07:29:48.165Z</time></trkpt><trkpt lat="45.0300817" lon="11.71599"><ele>-0.9999999999999999</ele><time>2026-03-22T07:29:49.168Z</time></trkpt><trkpt lat="45.030125" lon="11.7160633"><ele>-1.0</ele><time>2026-03-22T07:29:50.164Z</time></trkpt><trkpt lat="45.0301667" lon="11.716135"><ele>-1.0</ele><time>2026-03-22T07:29:51.163Z</time></trkpt><trkpt lat="45.030205" lon="11.7162083"><ele>-0.8571428571428571</ele><time>2026-03-22T07:29:52.167Z</time></trkpt><trkpt lat="45.0302467" lon="11.7162817"><ele>-0.7142857142857142</ele><time>2026-03-22T07:29:53.165Z</time></trkpt><trkpt lat="45.0302867" lon="11.7163533"><ele>-0.5714285714285714</ele><time>2026-03-22T07:29:54.164Z</time></trkpt><trkpt lat="45.0303283" lon="11.716425"><ele>-0.42857142857142855</ele><time>2026-03-22T07:29:55.165Z</time></trkpt><trkpt lat="45.03037" lon="11.7164967"><ele>-0.2857142857142857</ele><time>2026-03-22T07:29:56.142Z</time></trkpt><trkpt lat="45.0304133" lon="11.7165667"><ele>-0.14285714285714285</ele><time>2026-03-22T07:29:57.167Z</time></trkpt><trkpt lat="45.0304533" lon="11.71664"><ele>0.0</ele><time>2026-03-22T07:29:58.158Z</time></trkpt><trkpt lat="45.030495" lon="11.7167117"><ele>0.0</ele><time>2026-03-22T07:29:59.162Z</time></trkpt><trkpt lat="45.030535" lon="11.7167817"><ele>0.0</ele><time>2026-03-22T07:30:00.164Z</time></trkpt><trkpt lat="45.0305767" lon="11.7168533"><ele>0.0</ele><time>2026-03-22T07:30:01.156Z</time></trkpt><trkpt lat="45.0306183" lon="11.7169233"><ele>0.0</ele><time>2026-03-22T07:30:02.164Z</time></trkpt><trkpt lat="45.03066" lon="11.7169933"><ele>0.0</ele><time>2026-03-22T07:30:03.166Z</time></trkpt><trkpt lat="45.0307017" lon="11.717065"><ele>0.0</ele><time>2026-03-22T07:30:04.159Z</time></trkpt><trkpt lat="45.03074" lon="11.7171367"><ele>0.0</ele><time>2026-03-22T07:30:05.163Z</time></trkpt><trkpt lat="45.0307817" lon="11.7172083"><ele>0.0</ele><time>2026-03-22T07:30:06.166Z</time></trkpt><trkpt lat="45.0308217" lon="11.7172817"><ele>0.0</ele><time>2026-03-22T07:30:07.167Z</time></trkpt><trkpt lat="45.0308617" lon="11.7173533"><ele>0.0</ele><time>2026-03-22T07:30:08.164Z</time></trkpt><trkpt lat="45.0309" lon="11.7174267"><ele>0.0</ele><time>2026-03-22T07:30:09.165Z</time></trkpt><trkpt lat="45.03094" lon="11.7175"><ele>0.0</ele><time>2026-03-22T07:30:10.163Z</time></trkpt><trkpt lat="45.0309817" lon="11.7175733"><ele>0.0</ele><time>2026-03-22T07:30:11.17Z</time></trkpt><trkpt lat="45.0310217" lon="11.7176483"><ele>0.0</ele><time>2026-03-22T07:30:12.147Z</time></trkpt><trkpt lat="45.03106" lon="11.71772"><ele>0.0</ele><time>2026-03-22T07:30:13.157Z</time></trkpt><trkpt lat="45.0311" lon="11.7177933"><ele>0.0</ele><time>2026-03-22T07:30:14.168Z</time></trkpt><trkpt lat="45.0311383" lon="11.717865"><ele>0.0</ele><time>2026-03-22T07:30:15.168Z</time></trkpt><trkpt lat="45.0311767" lon="11.7179367"><ele>0.0</ele><time>2026-03-22T07:30:16.166Z</time></trkpt><trkpt lat="45.0312133" lon="11.71801"><ele>0.0</ele><time>2026-03-22T07:30:17.165Z</time></trkpt><trkpt lat="45.0312517" lon="11.7180817"><ele>0.0</ele><time>2026-03-22T07:30:18.169Z</time></trkpt><trkpt lat="45.0313267" lon="11.718225"><ele>0.0</ele><time>2026-03-22T07:30:20.167Z</time></trkpt><trkpt lat="45.0314017" lon="11.718365"><ele>0.0</ele><time>2026-03-22T07:30:22.167Z</time></trkpt><trkpt lat="45.03148" lon="11.7185033"><ele>0.0</ele><time>2026-03-22T07:30:24.168Z</time></trkpt><trkpt lat="45.0315583" lon="11.7186433"><ele>0.0</ele><time>2026-03-22T07:30:26.172Z</time></trkpt><trkpt lat="45.0315983" lon="11.7187133"><ele>0.0</ele><time>2026-03-22T07:30:27.169Z</time></trkpt><trkpt lat="45.0316783" lon="11.7188517"><ele>0.0</ele><time>2026-03-22T07:30:29.152Z</time></trkpt><trkpt lat="45.0317167" lon="11.7189233"><ele>0.42857142857142855</ele><time>2026-03-22T07:30:30.152Z</time></trkpt><trkpt lat="45.031755" lon="11.718995"><ele>0.8571428571428571</ele><time>2026-03-22T07:30:31.157Z</time></trkpt><trkpt lat="45.031795" lon="11.7190667"><ele>1.2857142857142856</ele><time>2026-03-22T07:30:32.165Z</time></trkpt><trkpt lat="45.031835" lon="11.7191383"><ele>1.7142857142857142</ele><time>2026-03-22T07:30:33.135Z</time></trkpt><trkpt lat="45.0318767" lon="11.71921"><ele>2.142857142857143</ele><time>2026-03-22T07:30:34.16Z</time></trkpt><trkpt lat="45.0319167" lon="11.71928"><ele>2.571428571428571</ele><time>2026-03-22T07:30:35.163Z</time></trkpt><trkpt lat="45.0319567" lon="11.7193517"><ele>3.0</ele><time>2026-03-22T07:30:36.163Z</time></trkpt><trkpt lat="45.0319983" lon="11.71942"><ele>3.2857142857142856</ele><time>2026-03-22T07:30:37.165Z</time></trkpt><trkpt lat="45.0320417" lon="11.71949"><ele>3.571428571428571</ele><time>2026-03-22T07:30:38.159Z</time></trkpt><trkpt lat="45.0320833" lon="11.7195617"><ele>3.8571428571428568</ele><time>2026-03-22T07:30:39.165Z</time></trkpt><trkpt lat="45.032125" lon="11.7196333"><ele>4.142857142857142</ele><time>2026-03-22T07:30:40.165Z</time></trkpt><trkpt lat="45.0321667" lon="11.719705"><ele>4.428571428571429</ele><time>2026-03-22T07:30:41.169Z</time></trkpt><trkpt lat="45.03221" lon="11.7197733"><ele>4.714285714285714</ele><time>2026-03-22T07:30:42.168Z</time></trkpt><trkpt lat="45.0322517" lon="11.7198433"><ele>5.0</ele><time>2026-03-22T07:30:43.167Z</time></trkpt><trkpt lat="45.0322933" lon="11.7199117"><ele>5.0</ele><time>2026-03-22T07:30:44.151Z</time></trkpt><trkpt lat="45.032335" lon="11.71998"><ele>5.0</ele><time>2026-03-22T07:30:45.161Z</time></trkpt><trkpt lat="45.0323767" lon="11.7200517"><ele>5.0</ele><time>2026-03-22T07:30:46.167Z</time></trkpt><trkpt lat="45.0324183" lon="11.7201233"><ele>5.0</ele><time>2026-03-22T07:30:47.165Z</time></trkpt><trkpt lat="45.03246" lon="11.720195"><ele>5.0</ele><time>2026-03-22T07:30:48.167Z</time></trkpt><trkpt lat="45.0325017" lon="11.720265"><ele>5.0</ele><time>2026-03-22T07:30:49.165Z</time></trkpt><trkpt lat="45.0325417" lon="11.7203367"><ele>5.0</ele><time>2026-03-22T07:30:50.169Z</time></trkpt><trkpt lat="45.0326183" lon="11.7204767"><ele>4.333333333333334</ele><time>2026-03-22T07:30:52.167Z</time></trkpt><trkpt lat="45.0326967" lon="11.7206183"><ele>3.666666666666667</ele><time>2026-03-22T07:30:54.169Z</time></trkpt><trkpt lat="45.0327367" lon="11.72069"><ele>3.0</ele><time>2026-03-22T07:30:55.16Z</time></trkpt><trkpt lat="45.0327767" lon="11.7207617"><ele>2.3333333333333335</ele><time>2026-03-22T07:30:56.166Z</time></trkpt><trkpt lat="45.0328167" lon="11.7208333"><ele>1.6666666666666665</ele><time>2026-03-22T07:30:57.165Z</time></trkpt><trkpt lat="45.0328583" lon="11.720905"><ele>1.0</ele><time>2026-03-22T07:30:58.16Z</time></trkpt><trkpt lat="45.0328983" lon="11.7209767"><ele>1.0</ele><time>2026-03-22T07:30:59.163Z</time></trkpt><trkpt lat="45.03294" lon="11.7210467"><ele>0.9999999999999999</ele><time>2026-03-22T07:31:00.154Z</time></trkpt><trkpt lat="45.0329817" lon="11.7211167"><ele>1.0</ele><time>2026-03-22T07:31:01.153Z</time></trkpt><trkpt lat="45.0330217" lon="11.72119"><ele>1.0</ele><time>2026-03-22T07:31:02.163Z</time></trkpt><trkpt lat="45.033065" lon="11.7212633"><ele>0.9999999999999999</ele><time>2026-03-22T07:31:03.165Z</time></trkpt><trkpt lat="45.0331067" lon="11.72134"><ele>1.0</ele><time>2026-03-22T07:31:04.162Z</time></trkpt><trkpt lat="45.0331483" lon="11.7214133"><ele>1.0</ele><time>2026-03-22T07:31:05.161Z</time></trkpt><trkpt lat="45.0331883" lon="11.7214867"><ele>1.0</ele><time>2026-03-22T07:31:06.173Z</time></trkpt><trkpt lat="45.03323" lon="11.72156"><ele>0.9999999999999999</ele><time>2026-03-22T07:31:07.161Z</time></trkpt><trkpt lat="45.0332717" lon="11.7216333"><ele>1.0</ele><time>2026-03-22T07:31:08.171Z</time></trkpt><trkpt lat="45.0333133" lon="11.7217067"><ele>1.0</ele><time>2026-03-22T07:31:09.168Z</time></trkpt><trkpt lat="45.033355" lon="11.72178"><ele>0.9999999999999999</ele><time>2026-03-22T07:31:10.171Z</time></trkpt><trkpt lat="45.033395" lon="11.7218533"><ele>1.0</ele><time>2026-03-22T07:31:11.164Z</time></trkpt><trkpt lat="45.0334367" lon="11.721925"><ele>1.0</ele><time>2026-03-22T07:31:12.159Z</time></trkpt><trkpt lat="45.0334783" lon="11.7219967"><ele>1.1428571428571428</ele><time>2026-03-22T07:31:13.167Z</time></trkpt><trkpt lat="45.03352" lon="11.7220733"><ele>1.2857142857142856</ele><time>2026-03-22T07:31:14.17Z</time></trkpt><trkpt lat="45.03356" lon="11.722145"><ele>1.4285714285714284</ele><time>2026-03-22T07:31:15.164Z</time></trkpt><trkpt lat="45.0336" lon="11.72222"><ele>1.5714285714285714</ele><time>2026-03-22T07:31:16.167Z</time></trkpt><trkpt lat="45.0336383" lon="11.7222933"><ele>1.714285714285714</ele><time>2026-03-22T07:31:17.165Z</time></trkpt><trkpt lat="45.03368" lon="11.7223667"><ele>1.857142857142857</ele><time>2026-03-22T07:31:18.159Z</time></trkpt><trkpt lat="45.03372" lon="11.7224383"><ele>2.0</ele><time>2026-03-22T07:31:19.163Z</time></trkpt><trkpt lat="45.0337617" lon="11.72251"><ele>1.9999999999999998</ele><time>2026-03-22T07:31:20.171Z</time></trkpt><trkpt lat="45.0338" lon="11.722585"><ele>2.0</ele><time>2026-03-22T07:31:21.158Z</time></trkpt><trkpt lat="45.0338383" lon="11.7226633"><ele>2.0</ele><time>2026-03-22T07:31:22.167Z</time></trkpt><trkpt lat="45.0338767" lon="11.7227383"><ele>2.0</ele><time>2026-03-22T07:31:23.165Z</time></trkpt><trkpt lat="45.033915" lon="11.7228117"><ele>1.9999999999999998</ele><time>2026-03-22T07:31:24.167Z</time></trkpt><trkpt lat="45.0339917" lon="11.7229517"><ele>2.0</ele><time>2026-03-22T07:31:26.14Z</time></trkpt><trkpt lat="45.034065" lon="11.7230933"><ele>1.75</ele><time>2026-03-22T07:31:28.172Z</time></trkpt><trkpt lat="45.03414" lon="11.723235"><ele>1.5</ele><time>2026-03-22T07:31:30.163Z</time></trkpt><trkpt lat="45.034215" lon="11.7233783"><ele>1.25</ele><time>2026-03-22T07:31:32.169Z</time></trkpt><trkpt lat="45.03429" lon="11.72352"><ele>1.0</ele><time>2026-03-22T07:31:34.168Z</time></trkpt><trkpt lat="45.0343667" lon="11.7236617"><ele>0.9999999999999999</ele><time>2026-03-22T07:31:36.143Z</time></trkpt><trkpt lat="45.034445" lon="11.7238033"><ele>1.0</ele><time>2026-03-22T07:31:38.156Z</time></trkpt><trkpt lat="45.0345233" lon="11.72394"><ele>1.0</ele><time>2026-03-22T07:31:40.168Z</time></trkpt><trkpt lat="45.0345633" lon="11.72401"><ele>1.0</ele><time>2026-03-22T07:31:41.166Z</time></trkpt><trkpt lat="45.034605" lon="11.7240833"><ele>0.9999999999999999</ele><time>2026-03-22T07:31:42.17Z</time></trkpt><trkpt lat="45.0346467" lon="11.724155"><ele>1.0</ele><time>2026-03-22T07:31:43.167Z</time></trkpt><trkpt lat="45.0346867" lon="11.724225"><ele>1.0</ele><time>2026-03-22T07:31:44.165Z</time></trkpt><trkpt lat="45.0347283" lon="11.7242933"><ele>1.0</ele><time>2026-03-22T07:31:45.16Z</time></trkpt><trkpt lat="45.0348067" lon="11.72443"><ele>1.0</ele><time>2026-03-22T07:31:47.155Z</time></trkpt><trkpt lat="45.0348833" lon="11.724565"><ele>1.0</ele><time>2026-03-22T07:31:49.169Z</time></trkpt><trkpt lat="45.0349633" lon="11.7247017"><ele>1.0</ele><time>2026-03-22T07:31:51.168Z</time></trkpt><trkpt lat="45.0350033" lon="11.7247717"><ele>0.9999999999999999</ele><time>2026-03-22T07:31:52.168Z</time></trkpt><trkpt lat="45.035045" lon="11.7248433"><ele>1.0</ele><time>2026-03-22T07:31:53.167Z</time></trkpt><trkpt lat="45.0350867" lon="11.7249133"><ele>1.0</ele><time>2026-03-22T07:31:54.167Z</time></trkpt><trkpt lat="45.03517" lon="11.7250467"><ele>1.0</ele><time>2026-03-22T07:31:56.167Z</time></trkpt><trkpt lat="45.03525" lon="11.7251867"><ele>0.9999999999999999</ele><time>2026-03-22T07:31:58.145Z</time></trkpt><trkpt lat="45.0352883" lon="11.72526"><ele>1.0</ele><time>2026-03-22T07:31:59.156Z</time></trkpt><trkpt lat="45.0353267" lon="11.7253317"><ele>1.0</ele><time>2026-03-22T07:32:00.163Z</time></trkpt><trkpt lat="45.0354067" lon="11.7254733"><ele>1.0</ele><time>2026-03-22T07:32:02.166Z</time></trkpt><trkpt lat="45.035485" lon="11.7256133"><ele>1.0</ele><time>2026-03-22T07:32:04.162Z</time></trkpt><trkpt lat="45.0355617" lon="11.7257533"><ele>1.0</ele><time>2026-03-22T07:32:06.155Z</time></trkpt><trkpt lat="45.0355983" lon="11.7258267"><ele>1.0</ele><time>2026-03-22T07:32:07.165Z</time></trkpt><trkpt lat="45.035675" lon="11.7259633"><ele>0.9999999999999999</ele><time>2026-03-22T07:32:09.14Z</time></trkpt><trkpt lat="45.035755" lon="11.7260967"><ele>1.0</ele><time>2026-03-22T07:32:11.165Z</time></trkpt><trkpt lat="45.0358317" lon="11.7262333"><ele>1.0</ele><time>2026-03-22T07:32:13.167Z</time></trkpt><trkpt lat="45.0358717" lon="11.726305"><ele>1.0</ele><time>2026-03-22T07:32:14.171Z</time></trkpt><trkpt lat="45.03591" lon="11.7263783"><ele>0.9999999999999999</ele><time>2026-03-22T07:32:15.162Z</time></trkpt><trkpt lat="45.0359483" lon="11.72645"><ele>1.0</ele><time>2026-03-22T07:32:16.168Z</time></trkpt><trkpt lat="45.0360217" lon="11.7265883"><ele>1.0</ele><time>2026-03-22T07:32:18.167Z</time></trkpt><trkpt lat="45.0361" lon="11.726725"><ele>1.0</ele><time>2026-03-22T07:32:20.161Z</time></trkpt><trkpt lat="45.0361767" lon="11.726865"><ele>1.0</ele><time>2026-03-22T07:32:22.161Z</time></trkpt><trkpt lat="45.03622" lon="11.7269317"><ele>1.0</ele><time>2026-03-22T07:32:23.164Z</time></trkpt><trkpt lat="45.0363" lon="11.727065"><ele>1.0</ele><time>2026-03-22T07:32:25.166Z</time></trkpt><trkpt lat="45.036375" lon="11.7272"><ele>1.0</ele><time>2026-03-22T07:32:27.169Z</time></trkpt><trkpt lat="45.0364517" lon="11.7273333"><ele>1.0</ele><time>2026-03-22T07:32:29.168Z</time></trkpt><trkpt lat="45.03653" lon="11.7274683"><ele>1.0</ele><time>2026-03-22T07:32:31.171Z</time></trkpt><trkpt lat="45.0365717" lon="11.7275367"><ele>1.0</ele><time>2026-03-22T07:32:32.168Z</time></trkpt><trkpt lat="45.0366517" lon="11.7276717"><ele>1.0</ele><time>2026-03-22T07:32:34.166Z</time></trkpt><trkpt lat="45.036725" lon="11.7278083"><ele>1.5</ele><time>2026-03-22T07:32:36.138Z</time></trkpt><trkpt lat="45.0368017" lon="11.7279433"><ele>2.0</ele><time>2026-03-22T07:32:38.15Z</time></trkpt><trkpt lat="45.03688" lon="11.7280767"><ele>2.5</ele><time>2026-03-22T07:32:40.147Z</time></trkpt><trkpt lat="45.0369617" lon="11.7282133"><ele>3.0</ele><time>2026-03-22T07:32:42.158Z</time></trkpt><trkpt lat="45.0370417" lon="11.7283517"><ele>2.9999999999999996</ele><time>2026-03-22T07:32:44.157Z</time></trkpt><trkpt lat="45.0371217" lon="11.7284867"><ele>3.0</ele><time>2026-03-22T07:32:46.146Z</time></trkpt><trkpt lat="45.03716" lon="11.7285583"><ele>3.0</ele><time>2026-03-22T07:32:47.151Z</time></trkpt><trkpt lat="45.0372" lon="11.7286317"><ele>3.0</ele><time>2026-03-22T07:32:48.165Z</time></trkpt><trkpt lat="45.0372383" lon="11.728705"><ele>3.0</ele><time>2026-03-22T07:32:49.17Z</time></trkpt><trkpt lat="45.0372767" lon="11.7287767"><ele>2.9999999999999996</ele><time>2026-03-22T07:32:50.165Z</time></trkpt><trkpt lat="45.0373167" lon="11.72885"><ele>3.0</ele><time>2026-03-22T07:32:51.132Z</time></trkpt><trkpt lat="45.03739" lon="11.7289867"><ele>3.0</ele><time>2026-03-22T07:32:53.124Z</time></trkpt><trkpt lat="45.0374633" lon="11.7291217"><ele>3.0</ele><time>2026-03-22T07:32:55.145Z</time></trkpt><trkpt lat="45.0375033" lon="11.7291917"><ele>3.0</ele><time>2026-03-22T07:32:56.168Z</time></trkpt><trkpt lat="45.0375467" lon="11.72926"><ele>3.0</ele><time>2026-03-22T07:32:57.14Z</time></trkpt><trkpt lat="45.0375883" lon="11.72933"><ele>3.0</ele><time>2026-03-22T07:32:58.151Z</time></trkpt><trkpt lat="45.03763" lon="11.7293983"><ele>3.0</ele><time>2026-03-22T07:32:59.165Z</time></trkpt><trkpt lat="45.0377083" lon="11.7295367"><ele>3.0</ele><time>2026-03-22T07:33:01.141Z</time></trkpt><trkpt lat="45.0377883" lon="11.7296733"><ele>3.0</ele><time>2026-03-22T07:33:03.134Z</time></trkpt><trkpt lat="45.0378683" lon="11.729805"><ele>3.0</ele><time>2026-03-22T07:33:05.139Z</time></trkpt><trkpt lat="45.0379417" lon="11.7299433"><ele>3.0</ele><time>2026-03-22T07:33:07.163Z</time></trkpt><trkpt lat="45.0380217" lon="11.73008"><ele>3.0</ele><time>2026-03-22T07:33:09.16Z</time></trkpt><trkpt lat="45.0380967" lon="11.73022"><ele>3.0</ele><time>2026-03-22T07:33:11.17Z</time></trkpt><trkpt lat="45.0381383" lon="11.7302883"><ele>3.0</ele><time>2026-03-22T07:33:12.162Z</time></trkpt><trkpt lat="45.0382183" lon="11.7304233"><ele>3.0</ele><time>2026-03-22T07:33:14.141Z</time></trkpt><trkpt lat="45.0383" lon="11.73056"><ele>3.0</ele><time>2026-03-22T07:33:16.166Z</time></trkpt><trkpt lat="45.0383767" lon="11.7306917"><ele>2.75</ele><time>2026-03-22T07:33:18.154Z</time></trkpt><trkpt lat="45.038455" lon="11.7308267"><ele>2.5</ele><time>2026-03-22T07:33:20.168Z</time></trkpt><trkpt lat="45.0385317" lon="11.73096"><ele>2.25</ele><time>2026-03-22T07:33:22.16Z</time></trkpt><trkpt lat="45.0386117" lon="11.7310917"><ele>2.0</ele><time>2026-03-22T07:33:24.16Z</time></trkpt><trkpt lat="45.0386917" lon="11.7312267"><ele>2.0</ele><time>2026-03-22T07:33:26.16Z</time></trkpt><trkpt lat="45.03877" lon="11.7313567"><ele>2.0</ele><time>2026-03-22T07:33:28.167Z</time></trkpt><trkpt lat="45.038845" lon="11.7314933"><ele>2.0</ele><time>2026-03-22T07:33:30.166Z</time></trkpt><trkpt lat="45.0389233" lon="11.7316233"><ele>2.0</ele><time>2026-03-22T07:33:32.17Z</time></trkpt><trkpt lat="45.0390017" lon="11.7317617"><ele>1.9999999999999998</ele><time>2026-03-22T07:33:34.167Z</time></trkpt><trkpt lat="45.0390433" lon="11.73183"><ele>2.0</ele><time>2026-03-22T07:33:35.136Z</time></trkpt><trkpt lat="45.039085" lon="11.7318983"><ele>2.0</ele><time>2026-03-22T07:33:36.165Z</time></trkpt><trkpt lat="45.0391633" lon="11.7320317"><ele>2.0</ele><time>2026-03-22T07:33:38.145Z</time></trkpt><trkpt lat="45.0392383" lon="11.7321683"><ele>1.9999999999999998</ele><time>2026-03-22T07:33:40.198Z</time></trkpt><trkpt lat="45.0392783" lon="11.7322383"><ele>2.0</ele><time>2026-03-22T07:33:41.162Z</time></trkpt><trkpt lat="45.03932" lon="11.7323083"><ele>1.8</ele><time>2026-03-22T07:33:42.164Z</time></trkpt><trkpt lat="45.0393983" lon="11.7324483"><ele>1.6</ele><time>2026-03-22T07:33:44.172Z</time></trkpt><trkpt lat="45.0394367" lon="11.73252"><ele>1.4000000000000001</ele><time>2026-03-22T07:33:45.16Z</time></trkpt><trkpt lat="45.0394783" lon="11.73259"><ele>1.2000000000000002</ele><time>2026-03-22T07:33:46.15Z</time></trkpt><trkpt lat="45.0395567" lon="11.7327233"><ele>1.0</ele><time>2026-03-22T07:33:48.171Z</time></trkpt><trkpt lat="45.039635" lon="11.7328517"><ele>1.0</ele><time>2026-03-22T07:33:50.164Z</time></trkpt><trkpt lat="45.03971" lon="11.7329817"><ele>1.0</ele><time>2026-03-22T07:33:52.162Z</time></trkpt><trkpt lat="45.0397867" lon="11.7331167"><ele>1.0</ele><time>2026-03-22T07:33:54.157Z</time></trkpt><trkpt lat="45.0398617" lon="11.7332533"><ele>1.0</ele><time>2026-03-22T07:33:56.163Z</time></trkpt><trkpt lat="45.039935" lon="11.733385"><ele>1.0</ele><time>2026-03-22T07:33:58.163Z</time></trkpt><trkpt lat="45.0400117" lon="11.7335167"><ele>1.0</ele><time>2026-03-22T07:34:00.158Z</time></trkpt><trkpt lat="45.0400867" lon="11.7336517"><ele>1.0</ele><time>2026-03-22T07:34:02.169Z</time></trkpt><trkpt lat="45.0401633" lon="11.7337883"><ele>1.0</ele><time>2026-03-22T07:34:04.16Z</time></trkpt><trkpt lat="45.04024" lon="11.7339233"><ele>1.25</ele><time>2026-03-22T07:34:06.17Z</time></trkpt><trkpt lat="45.04032" lon="11.73406"><ele>1.5</ele><time>2026-03-22T07:34:08.167Z</time></trkpt><trkpt lat="45.0403967" lon="11.734195"><ele>1.75</ele><time>2026-03-22T07:34:10.169Z</time></trkpt><trkpt lat="45.0404767" lon="11.73433"><ele>2.0</ele><time>2026-03-22T07:34:12.169Z</time></trkpt><trkpt lat="45.0405533" lon="11.7344667"><ele>2.2</ele><time>2026-03-22T07:34:14.169Z</time></trkpt><trkpt lat="45.040635" lon="11.7346033"><ele>2.4000000000000004</ele><time>2026-03-22T07:34:16.165Z</time></trkpt><trkpt lat="45.0407167" lon="11.73474"><ele>2.5999999999999996</ele><time>2026-03-22T07:34:18.137Z</time></trkpt><trkpt lat="45.0407983" lon="11.7348783"><ele>2.8</ele><time>2026-03-22T07:34:20.172Z</time></trkpt><trkpt lat="45.04084" lon="11.73495"><ele>3.0</ele><time>2026-03-22T07:34:21.162Z</time></trkpt><trkpt lat="45.0408817" lon="11.7350217"><ele>3.1666666666666665</ele><time>2026-03-22T07:34:22.169Z</time></trkpt><trkpt lat="45.0409233" lon="11.7350933"><ele>3.333333333333333</ele><time>2026-03-22T07:34:23.165Z</time></trkpt><trkpt lat="45.040965" lon="11.735165"><ele>3.5</ele><time>2026-03-22T07:34:24.171Z</time></trkpt><trkpt lat="45.0410067" lon="11.735235"><ele>3.6666666666666665</ele><time>2026-03-22T07:34:25.161Z</time></trkpt><trkpt lat="45.041085" lon="11.7353733"><ele>3.833333333333333</ele><time>2026-03-22T07:34:27.168Z</time></trkpt><trkpt lat="45.0411617" lon="11.7355133"><ele>4.0</ele><time>2026-03-22T07:34:29.167Z</time></trkpt><trkpt lat="45.04124" lon="11.7356533"><ele>4.166666666666666</ele><time>2026-03-22T07:34:31.168Z</time></trkpt><trkpt lat="45.04132" lon="11.7357917"><ele>4.333333333333333</ele><time>2026-03-22T07:34:33.165Z</time></trkpt><trkpt lat="45.04136" lon="11.7358633"><ele>4.5</ele><time>2026-03-22T07:34:34.163Z</time></trkpt><trkpt lat="45.0414" lon="11.7359333"><ele>4.666666666666667</ele><time>2026-03-22T07:34:35.16Z</time></trkpt><trkpt lat="45.04144" lon="11.7360033"><ele>4.833333333333334</ele><time>2026-03-22T07:34:36.167Z</time></trkpt><trkpt lat="45.04152" lon="11.7361417"><ele>5.0</ele><time>2026-03-22T07:34:38.163Z</time></trkpt><trkpt lat="45.0415617" lon="11.7362117"><ele>4.714285714285714</ele><time>2026-03-22T07:34:39.163Z</time></trkpt><trkpt lat="45.0416033" lon="11.736285"><ele>4.428571428571429</ele><time>2026-03-22T07:34:40.165Z</time></trkpt><trkpt lat="45.041645" lon="11.7363567"><ele>4.142857142857142</ele><time>2026-03-22T07:34:41.164Z</time></trkpt><trkpt lat="45.0416867" lon="11.7364267"><ele>3.8571428571428568</ele><time>2026-03-22T07:34:42.146Z</time></trkpt><trkpt lat="45.0417317" lon="11.7364983"><ele>3.571428571428571</ele><time>2026-03-22T07:34:43.157Z</time></trkpt><trkpt lat="45.041775" lon="11.73657"><ele>3.2857142857142856</ele><time>2026-03-22T07:34:44.15Z</time></trkpt><trkpt lat="45.04182" lon="11.73664"><ele>3.0</ele><time>2026-03-22T07:34:45.141Z</time></trkpt><trkpt lat="45.0418617" lon="11.7367117"><ele>2.9999999999999996</ele><time>2026-03-22T07:34:46.16Z</time></trkpt><trkpt lat="45.0419067" lon="11.73678"><ele>3.0</ele><time>2026-03-22T07:34:47.158Z</time></trkpt><trkpt lat="45.04195" lon="11.73685"><ele>3.0</ele><time>2026-03-22T07:34:48.164Z</time></trkpt><trkpt lat="45.0419933" lon="11.73692"><ele>3.0</ele><time>2026-03-22T07:34:49.164Z</time></trkpt><trkpt lat="45.042035" lon="11.7369917"><ele>3.0</ele><time>2026-03-22T07:34:50.167Z</time></trkpt><trkpt lat="45.0420767" lon="11.7370617"><ele>2.9999999999999996</ele><time>2026-03-22T07:34:51.166Z</time></trkpt><trkpt lat="45.0421183" lon="11.7371333"><ele>3.0</ele><time>2026-03-22T07:34:52.168Z</time></trkpt><trkpt lat="45.04216" lon="11.7372067"><ele>2.9999999999999996</ele><time>2026-03-22T07:34:53.166Z</time></trkpt><trkpt lat="45.0422017" lon="11.7372783"><ele>3.0</ele><time>2026-03-22T07:34:54.17Z</time></trkpt><trkpt lat="45.0422433" lon="11.7373483"><ele>3.0</ele><time>2026-03-22T07:34:55.169Z</time></trkpt><trkpt lat="45.0422833" lon="11.7374183"><ele>3.0</ele><time>2026-03-22T07:34:56.168Z</time></trkpt><trkpt lat="45.042325" lon="11.7374883"><ele>3.0</ele><time>2026-03-22T07:34:57.168Z</time></trkpt><trkpt lat="45.042365" lon="11.7375583"><ele>2.9999999999999996</ele><time>2026-03-22T07:34:58.168Z</time></trkpt><trkpt lat="45.0424067" lon="11.7376283"><ele>3.0</ele><time>2026-03-22T07:34:59.166Z</time></trkpt><trkpt lat="45.0424867" lon="11.7377667"><ele>3.0</ele><time>2026-03-22T07:35:01.155Z</time></trkpt><trkpt lat="45.0425267" lon="11.7378383"><ele>3.0</ele><time>2026-03-22T07:35:02.169Z</time></trkpt><trkpt lat="45.0425667" lon="11.7379083"><ele>3.0</ele><time>2026-03-22T07:35:03.164Z</time></trkpt><trkpt lat="45.0426067" lon="11.73798"><ele>3.0</ele><time>2026-03-22T07:35:04.169Z</time></trkpt><trkpt lat="45.0426467" lon="11.73805"><ele>3.0</ele><time>2026-03-22T07:35:05.165Z</time></trkpt><trkpt lat="45.0426833" lon="11.7381233"><ele>3.0</ele><time>2026-03-22T07:35:06.165Z</time></trkpt><trkpt lat="45.0427233" lon="11.738195"><ele>3.0</ele><time>2026-03-22T07:35:07.16Z</time></trkpt><trkpt lat="45.042765" lon="11.738265"><ele>3.0</ele><time>2026-03-22T07:35:08.171Z</time></trkpt><trkpt lat="45.0428033" lon="11.7383367"><ele>3.0</ele><time>2026-03-22T07:35:09.166Z</time></trkpt><trkpt lat="45.0428433" lon="11.7384067"><ele>3.0</ele><time>2026-03-22T07:35:10.145Z</time></trkpt><trkpt lat="45.0429217" lon="11.738545"><ele>3.0</ele><time>2026-03-22T07:35:12.145Z</time></trkpt><trkpt lat="45.0429633" lon="11.7386133"><ele>3.0</ele><time>2026-03-22T07:35:13.143Z</time></trkpt><trkpt lat="45.0430433" lon="11.7387483"><ele>3.0</ele><time>2026-03-22T07:35:15.156Z</time></trkpt><trkpt lat="45.0430833" lon="11.7388183"><ele>3.0</ele><time>2026-03-22T07:35:16.148Z</time></trkpt><trkpt lat="45.04316" lon="11.7389533"><ele>3.0</ele><time>2026-03-22T07:35:18.154Z</time></trkpt><trkpt lat="45.0432" lon="11.7390233"><ele>3.0</ele><time>2026-03-22T07:35:19.161Z</time></trkpt><trkpt lat="45.0432417" lon="11.7390917"><ele>3.0</ele><time>2026-03-22T07:35:20.166Z</time></trkpt><trkpt lat="45.0432817" lon="11.7391633"><ele>3.0</ele><time>2026-03-22T07:35:21.162Z</time></trkpt><trkpt lat="45.0433217" lon="11.739235"><ele>3.0</ele><time>2026-03-22T07:35:22.165Z</time></trkpt><trkpt lat="45.04336" lon="11.7393083"><ele>3.0</ele><time>2026-03-22T07:35:23.167Z</time></trkpt><trkpt lat="45.0434" lon="11.7393783"><ele>3.0</ele><time>2026-03-22T07:35:24.169Z</time></trkpt><trkpt lat="45.04344" lon="11.73945"><ele>3.0</ele><time>2026-03-22T07:35:25.165Z</time></trkpt><trkpt lat="45.0434817" lon="11.7395217"><ele>3.0</ele><time>2026-03-22T07:35:26.166Z</time></trkpt><trkpt lat="45.0435217" lon="11.7395917"><ele>3.0</ele><time>2026-03-22T07:35:27.165Z</time></trkpt><trkpt lat="45.0435633" lon="11.7396633"><ele>3.0</ele><time>2026-03-22T07:35:28.166Z</time></trkpt><trkpt lat="45.0436033" lon="11.739735"><ele>3.0</ele><time>2026-03-22T07:35:29.166Z</time></trkpt><trkpt lat="45.0436433" lon="11.739805"><ele>3.0</ele><time>2026-03-22T07:35:30.169Z</time></trkpt><trkpt lat="45.043685" lon="11.7398733"><ele>3.0</ele><time>2026-03-22T07:35:31.166Z</time></trkpt><trkpt lat="45.043725" lon="11.739945"><ele>3.0</ele><time>2026-03-22T07:35:32.152Z</time></trkpt><trkpt lat="45.0437633" lon="11.7400167"><ele>3.0</ele><time>2026-03-22T07:35:33.165Z</time></trkpt><trkpt lat="45.043805" lon="11.7400867"><ele>3.0</ele><time>2026-03-22T07:35:34.165Z</time></trkpt><trkpt lat="45.043845" lon="11.7401567"><ele>3.0</ele><time>2026-03-22T07:35:35.165Z</time></trkpt><trkpt lat="45.0438833" lon="11.7402283"><ele>3.0</ele><time>2026-03-22T07:35:36.157Z</time></trkpt><trkpt lat="45.0439617" lon="11.7403617"><ele>3.0</ele><time>2026-03-22T07:35:38.164Z</time></trkpt><trkpt lat="45.0440333" lon="11.7404917"><ele>3.0</ele><time>2026-03-22T07:35:40.17Z</time></trkpt><trkpt lat="45.0441" lon="11.7406117"><ele>3.0</ele><time>2026-03-22T07:35:42.163Z</time></trkpt><trkpt lat="45.0441633" lon="11.7407217"><ele>3.0</ele><time>2026-03-22T07:35:44.169Z</time></trkpt><trkpt lat="45.0442267" lon="11.740825"><ele>3.0</ele><time>2026-03-22T07:35:46.172Z</time></trkpt><trkpt lat="45.0442817" lon="11.7409233"><ele>3.0</ele><time>2026-03-22T07:35:48.138Z</time></trkpt><trkpt lat="45.0443333" lon="11.7410167"><ele>3.0</ele><time>2026-03-22T07:35:50.161Z</time></trkpt><trkpt lat="45.04438" lon="11.7411033"><ele>3.0</ele><time>2026-03-22T07:35:52.16Z</time></trkpt><trkpt lat="45.044425" lon="11.7411817"><ele>3.1666666666666665</ele><time>2026-03-22T07:35:54.16Z</time></trkpt><trkpt lat="45.0444783" lon="11.7412783"><ele>3.333333333333333</ele><time>2026-03-22T07:35:57.165Z</time></trkpt><trkpt lat="45.0445183" lon="11.7413533"><ele>3.5</ele><time>2026-03-22T07:36:00.164Z</time></trkpt><trkpt lat="45.0445633" lon="11.7414183"><ele>3.6666666666666665</ele><time>2026-03-22T07:36:04.162Z</time></trkpt><trkpt lat="45.0446017" lon="11.7415"><ele>3.833333333333333</ele><time>2026-03-22T07:36:25.149Z</time></trkpt><trkpt lat="45.0446483" lon="11.7415783"><ele>4.0</ele><time>2026-03-22T07:36:28.167Z</time></trkpt><trkpt lat="45.0447067" lon="11.741685"><ele>4.0</ele><time>2026-03-22T07:36:31.165Z</time></trkpt><trkpt lat="45.0447383" lon="11.741785"><ele>4.0</ele><time>2026-03-22T07:36:33.164Z</time></trkpt><trkpt lat="45.044735" lon="11.7419083"><ele>4.0</ele><time>2026-03-22T07:36:35.16Z</time></trkpt><trkpt lat="45.044725" lon="11.742045"><ele>4.0</ele><time>2026-03-22T07:36:37.157Z</time></trkpt><trkpt lat="45.0447117" lon="11.7421767"><ele>4.0</ele><time>2026-03-22T07:36:39.155Z</time></trkpt><trkpt lat="45.0447033" lon="11.7423167"><ele>4.0</ele><time>2026-03-22T07:36:41.157Z</time></trkpt><trkpt lat="45.0447" lon="11.7424683"><ele>4.0</ele><time>2026-03-22T07:36:43.162Z</time></trkpt><trkpt lat="45.0447017" lon="11.7426183"><ele>4.0</ele><time>2026-03-22T07:36:45.168Z</time></trkpt><trkpt lat="45.044705" lon="11.7427567"><ele>4.0</ele><time>2026-03-22T07:36:47.164Z</time></trkpt><trkpt lat="45.0447083" lon="11.7429033"><ele>4.0</ele><time>2026-03-22T07:36:49.165Z</time></trkpt><trkpt lat="45.0447183" lon="11.743055"><ele>4.0</ele><time>2026-03-22T07:36:51.162Z</time></trkpt><trkpt lat="45.0447333" lon="11.7432083"><ele>4.0</ele><time>2026-03-22T07:36:53.163Z</time></trkpt><trkpt lat="45.04475" lon="11.7433633"><ele>4.0</ele><time>2026-03-22T07:36:55.166Z</time></trkpt><trkpt lat="45.0447667" lon="11.7435183"><ele>4.0</ele><time>2026-03-22T07:36:57.139Z</time></trkpt><trkpt lat="45.04478" lon="11.743675"><ele>4.0</ele><time>2026-03-22T07:36:59.165Z</time></trkpt><trkpt lat="45.0447917" lon="11.7438317"><ele>4.0</ele><time>2026-03-22T07:37:01.167Z</time></trkpt><trkpt lat="45.044795" lon="11.7439933"><ele>4.0</ele><time>2026-03-22T07:37:03.164Z</time></trkpt><trkpt lat="45.04479" lon="11.7441567"><ele>4.0</ele><time>2026-03-22T07:37:05.165Z</time></trkpt><trkpt lat="45.0447817" lon="11.7443117"><ele>4.0</ele><time>2026-03-22T07:37:07.157Z</time></trkpt><trkpt lat="45.044765" lon="11.7444717"><ele>4.0</ele><time>2026-03-22T07:37:09.163Z</time></trkpt><trkpt lat="45.044735" lon="11.7446233"><ele>4.0</ele><time>2026-03-22T07:37:11.166Z</time></trkpt><trkpt lat="45.0446817" lon="11.7447567"><ele>4.0</ele><time>2026-03-22T07:37:13.169Z</time></trkpt><trkpt lat="45.0446017" lon="11.74488"><ele>4.0</ele><time>2026-03-22T07:37:15.166Z</time></trkpt><trkpt lat="45.0445167" lon="11.744995"><ele>4.0</ele><time>2026-03-22T07:37:17.164Z</time></trkpt><trkpt lat="45.0444233" lon="11.745115"><ele>4.0</ele><time>2026-03-22T07:37:19.157Z</time></trkpt><trkpt lat="45.0443317" lon="11.7452317"><ele>4.0</ele><time>2026-03-22T07:37:21.164Z</time></trkpt><trkpt lat="45.0442417" lon="11.7453567"><ele>4.0</ele><time>2026-03-22T07:37:23.166Z</time></trkpt><trkpt lat="45.0441583" lon="11.745485"><ele>4.0</ele><time>2026-03-22T07:37:25.162Z</time></trkpt><trkpt lat="45.0440733" lon="11.745605"><ele>4.0</ele><time>2026-03-22T07:37:27.172Z</time></trkpt><trkpt lat="45.0439917" lon="11.74574"><ele>4.0</ele><time>2026-03-22T07:37:29.14Z</time></trkpt><trkpt lat="45.0439517" lon="11.7458117"><ele>4.0</ele><time>2026-03-22T07:37:30.162Z</time></trkpt><trkpt lat="45.043875" lon="11.7459483"><ele>4.0</ele><time>2026-03-22T07:37:32.159Z</time></trkpt><trkpt lat="45.0437983" lon="11.7460833"><ele>4.0</ele><time>2026-03-22T07:37:34.168Z</time></trkpt><trkpt lat="45.0437217" lon="11.74622"><ele>4.0</ele><time>2026-03-22T07:37:36.164Z</time></trkpt><trkpt lat="45.0436483" lon="11.7463567"><ele>4.0</ele><time>2026-03-22T07:37:38.145Z</time></trkpt><trkpt lat="45.0435783" lon="11.74649"><ele>4.0</ele><time>2026-03-22T07:37:40.159Z</time></trkpt><trkpt lat="45.0435083" lon="11.746625"><ele>4.0</ele><time>2026-03-22T07:37:42.161Z</time></trkpt><trkpt lat="45.0434467" lon="11.7467667"><ele>4.0</ele><time>2026-03-22T07:37:44.159Z</time></trkpt><trkpt lat="45.0433867" lon="11.7469"><ele>4.0</ele><time>2026-03-22T07:37:46.169Z</time></trkpt><trkpt lat="45.0433183" lon="11.74702"><ele>4.0</ele><time>2026-03-22T07:37:48.165Z</time></trkpt><trkpt lat="45.0432483" lon="11.7471483"><ele>3.75</ele><time>2026-03-22T07:37:50.147Z</time></trkpt><trkpt lat="45.043185" lon="11.7472933"><ele>3.5</ele><time>2026-03-22T07:37:52.172Z</time></trkpt><trkpt lat="45.04312" lon="11.74743"><ele>3.25</ele><time>2026-03-22T07:37:54.148Z</time></trkpt><trkpt lat="45.0430533" lon="11.7475683"><ele>3.0</ele><time>2026-03-22T07:37:56.166Z</time></trkpt><trkpt lat="45.04299" lon="11.7477067"><ele>3.0</ele><time>2026-03-22T07:37:58.168Z</time></trkpt><trkpt lat="45.0429267" lon="11.74784"><ele>3.0</ele><time>2026-03-22T07:38:00.168Z</time></trkpt><trkpt lat="45.0428667" lon="11.74798"><ele>3.0</ele><time>2026-03-22T07:38:02.159Z</time></trkpt><trkpt lat="45.042805" lon="11.7481167"><ele>3.0</ele><time>2026-03-22T07:38:04.166Z</time></trkpt><trkpt lat="45.042745" lon="11.748255"><ele>3.0</ele><time>2026-03-22T07:38:06.166Z</time></trkpt><trkpt lat="45.042695" lon="11.7483933"><ele>3.0</ele><time>2026-03-22T07:38:08.167Z</time></trkpt><trkpt lat="45.0426383" lon="11.74852"><ele>3.0</ele><time>2026-03-22T07:38:10.16Z</time></trkpt><trkpt lat="45.0425933" lon="11.7486583"><ele>3.0</ele><time>2026-03-22T07:38:12.168Z</time></trkpt><trkpt lat="45.042535" lon="11.748785"><ele>3.0</ele><time>2026-03-22T07:38:14.167Z</time></trkpt><trkpt lat="45.0424833" lon="11.7489067"><ele>3.3333333333333335</ele><time>2026-03-22T07:38:16.167Z</time></trkpt><trkpt lat="45.0424433" lon="11.7490317"><ele>3.666666666666667</ele><time>2026-03-22T07:38:18.165Z</time></trkpt><trkpt lat="45.0424083" lon="11.7491483"><ele>4.0</ele><time>2026-03-22T07:38:20.15Z</time></trkpt><trkpt lat="45.0423817" lon="11.749265"><ele>4.333333333333334</ele><time>2026-03-22T07:38:22.153Z</time></trkpt><trkpt lat="45.04236" lon="11.7493767"><ele>4.666666666666667</ele><time>2026-03-22T07:38:24.145Z</time></trkpt><trkpt lat="45.042335" lon="11.7494667"><ele>5.0</ele><time>2026-03-22T07:38:27.161Z</time></trkpt><trkpt lat="45.0424217" lon="11.7495883"><ele>5.0</ele><time>2026-03-22T07:44:09.157Z</time></trkpt><trkpt lat="45.0423583" lon="11.7496833"><ele>5.0</ele><time>2026-03-22T07:45:24.165Z</time></trkpt><trkpt lat="45.0423667" lon="11.74956"><ele>5.0</ele><time>2026-03-22T07:47:20.152Z</time></trkpt><trkpt lat="45.042285" lon="11.7495533"><ele>5.0</ele><time>2026-03-22T07:49:15.16Z</time></trkpt><trkpt lat="45.042345" lon="11.7494733"><ele>5.0</ele><time>2026-03-22T08:02:31.154Z</time></trkpt><trkpt lat="45.042375" lon="11.7493667"><ele>5.0</ele><time>2026-03-22T08:02:34.162Z</time></trkpt><trkpt lat="45.0424017" lon="11.7492483"><ele>5.0</ele><time>2026-03-22T08:02:37.156Z</time></trkpt><trkpt lat="45.0424283" lon="11.749125"><ele>5.0</ele><time>2026-03-22T08:02:40.157Z</time></trkpt><trkpt lat="45.0424583" lon="11.7490233"><ele>5.0</ele><time>2026-03-22T08:02:42.159Z</time></trkpt><trkpt lat="45.0424933" lon="11.7489133"><ele>5.0</ele><time>2026-03-22T08:02:44.166Z</time></trkpt><trkpt lat="45.0425367" lon="11.7488033"><ele>5.0</ele><time>2026-03-22T08:02:46.153Z</time></trkpt><trkpt lat="45.0425817" lon="11.7486883"><ele>5.0</ele><time>2026-03-22T08:02:48.158Z</time></trkpt><trkpt lat="45.042635" lon="11.74856"><ele>4.6</ele><time>2026-03-22T08:02:50.16Z</time></trkpt><trkpt lat="45.042685" lon="11.74844"><ele>4.2</ele><time>2026-03-22T08:02:52.169Z</time></trkpt><trkpt lat="45.0427417" lon="11.74832"><ele>3.8</ele><time>2026-03-22T08:02:54.137Z</time></trkpt><trkpt lat="45.042805" lon="11.7482"><ele>3.4</ele><time>2026-03-22T08:02:56.167Z</time></trkpt><trkpt lat="45.0428633" lon="11.7480817"><ele>3.0</ele><time>2026-03-22T08:02:58.157Z</time></trkpt><trkpt lat="45.042925" lon="11.74796"><ele>3.0</ele><time>2026-03-22T08:03:00.168Z</time></trkpt><trkpt lat="45.0429883" lon="11.7478317"><ele>3.0</ele><time>2026-03-22T08:03:02.165Z</time></trkpt><trkpt lat="45.04305" lon="11.7477017"><ele>3.0</ele><time>2026-03-22T08:03:04.168Z</time></trkpt><trkpt lat="45.0431067" lon="11.7475667"><ele>3.0</ele><time>2026-03-22T08:03:06.169Z</time></trkpt><trkpt lat="45.0431683" lon="11.7474317"><ele>3.0</ele><time>2026-03-22T08:03:08.169Z</time></trkpt><trkpt lat="45.04323" lon="11.7472983"><ele>3.0</ele><time>2026-03-22T08:03:10.137Z</time></trkpt><trkpt lat="45.04329" lon="11.7471617"><ele>3.0</ele><time>2026-03-22T08:03:12.172Z</time></trkpt><trkpt lat="45.04335" lon="11.7470267"><ele>3.0</ele><time>2026-03-22T08:03:14.146Z</time></trkpt><trkpt lat="45.0434117" lon="11.7468883"><ele>3.0</ele><time>2026-03-22T08:03:16.131Z</time></trkpt><trkpt lat="45.043475" lon="11.7467467"><ele>3.2</ele><time>2026-03-22T08:03:18.133Z</time></trkpt><trkpt lat="45.04354" lon="11.7466083"><ele>3.4</ele><time>2026-03-22T08:03:20.136Z</time></trkpt><trkpt lat="45.0436167" lon="11.74647"><ele>3.6000000000000005</ele><time>2026-03-22T08:03:22.137Z</time></trkpt><trkpt lat="45.0436583" lon="11.7463983"><ele>3.8000000000000003</ele><time>2026-03-22T08:03:23.143Z</time></trkpt><trkpt lat="45.0436983" lon="11.7463283"><ele>4.0</ele><time>2026-03-22T08:03:24.131Z</time></trkpt><trkpt lat="45.0437733" lon="11.7461867"><ele>4.0</ele><time>2026-03-22T08:03:26.158Z</time></trkpt><trkpt lat="45.0438133" lon="11.7461167"><ele>4.0</ele><time>2026-03-22T08:03:27.158Z</time></trkpt><trkpt lat="45.04389" lon="11.74598"><ele>4.0</ele><time>2026-03-22T08:03:29.167Z</time></trkpt><trkpt lat="45.0439717" lon="11.745855"><ele>4.0</ele><time>2026-03-22T08:03:31.166Z</time></trkpt><trkpt lat="45.0440517" lon="11.74573"><ele>4.0</ele><time>2026-03-22T08:03:33.165Z</time></trkpt><trkpt lat="45.0441283" lon="11.7456067"><ele>4.0</ele><time>2026-03-22T08:03:35.16Z</time></trkpt><trkpt lat="45.0442083" lon="11.74548"><ele>4.0</ele><time>2026-03-22T08:03:37.165Z</time></trkpt><trkpt lat="45.0442867" lon="11.7453517"><ele>4.0</ele><time>2026-03-22T08:03:39.164Z</time></trkpt><trkpt lat="45.0443733" lon="11.7452317"><ele>4.0</ele><time>2026-03-22T08:03:41.165Z</time></trkpt><trkpt lat="45.044465" lon="11.7451167"><ele>4.0</ele><time>2026-03-22T08:03:43.165Z</time></trkpt><trkpt lat="45.0445567" lon="11.7450067"><ele>4.0</ele><time>2026-03-22T08:03:45.169Z</time></trkpt><trkpt lat="45.0446433" lon="11.744895"><ele>4.0</ele><time>2026-03-22T08:03:47.164Z</time></trkpt><trkpt lat="45.044725" lon="11.7447617"><ele>4.0</ele><time>2026-03-22T08:03:49.162Z</time></trkpt><trkpt lat="45.0447817" lon="11.7446067"><ele>4.0</ele><time>2026-03-22T08:03:51.168Z</time></trkpt><trkpt lat="45.0448183" lon="11.74444"><ele>4.0</ele><time>2026-03-22T08:03:53.16Z</time></trkpt><trkpt lat="45.0448367" lon="11.7442667"><ele>4.0</ele><time>2026-03-22T08:03:55.164Z</time></trkpt><trkpt lat="45.0448417" lon="11.7440967"><ele>4.0</ele><time>2026-03-22T08:03:57.163Z</time></trkpt><trkpt lat="45.0448433" lon="11.743925"><ele>4.0</ele><time>2026-03-22T08:03:59.164Z</time></trkpt><trkpt lat="45.0448433" lon="11.7437533"><ele>4.0</ele><time>2026-03-22T08:04:01.162Z</time></trkpt><trkpt lat="45.04483" lon="11.7435817"><ele>4.0</ele><time>2026-03-22T08:04:03.166Z</time></trkpt><trkpt lat="45.0448117" lon="11.74341"><ele>4.0</ele><time>2026-03-22T08:04:05.166Z</time></trkpt><trkpt lat="45.0447967" lon="11.7432383"><ele>4.0</ele><time>2026-03-22T08:04:07.151Z</time></trkpt><trkpt lat="45.044785" lon="11.7430683"><ele>4.0</ele><time>2026-03-22T08:04:09.163Z</time></trkpt><trkpt lat="45.04477" lon="11.742895"><ele>4.0</ele><time>2026-03-22T08:04:11.168Z</time></trkpt><trkpt lat="45.0447533" lon="11.742725"><ele>4.0</ele><time>2026-03-22T08:04:13.169Z</time></trkpt><trkpt lat="45.0447433" lon="11.742565"><ele>4.166666666666666</ele><time>2026-03-22T08:04:15.164Z</time></trkpt><trkpt lat="45.04474" lon="11.7424133"><ele>4.333333333333333</ele><time>2026-03-22T08:04:17.158Z</time></trkpt><trkpt lat="45.04474" lon="11.7422783"><ele>4.5</ele><time>2026-03-22T08:04:19.166Z</time></trkpt><trkpt lat="45.04474" lon="11.7421783"><ele>4.666666666666667</ele><time>2026-03-22T08:04:21.157Z</time></trkpt><trkpt lat="45.0447633" lon="11.7420483"><ele>4.833333333333334</ele><time>2026-03-22T08:04:24.189Z</time></trkpt><trkpt lat="45.0448033" lon="11.7419767"><ele>5.0</ele><time>2026-03-22T08:04:26.152Z</time></trkpt><trkpt lat="45.0448933" lon="11.7419667"><ele>5.0</ele><time>2026-03-22T08:04:29.167Z</time></trkpt><trkpt lat="45.04495" lon="11.7420633"><ele>5.0</ele><time>2026-03-22T08:04:31.165Z</time></trkpt><trkpt lat="45.04501" lon="11.742185"><ele>5.0</ele><time>2026-03-22T08:04:33.165Z</time></trkpt><trkpt lat="45.045075" lon="11.742305"><ele>5.0</ele><time>2026-03-22T08:04:35.166Z</time></trkpt><trkpt lat="45.0451433" lon="11.7424283"><ele>5.0</ele><time>2026-03-22T08:04:37.165Z</time></trkpt><trkpt lat="45.0452117" lon="11.74256"><ele>4.75</ele><time>2026-03-22T08:04:39.167Z</time></trkpt><trkpt lat="45.0452817" lon="11.7426917"><ele>4.5</ele><time>2026-03-22T08:04:41.16Z</time></trkpt><trkpt lat="45.0453583" lon="11.742825"><ele>4.25</ele><time>2026-03-22T08:04:43.17Z</time></trkpt><trkpt lat="45.0454333" lon="11.74296"><ele>4.0</ele><time>2026-03-22T08:04:45.171Z</time></trkpt><trkpt lat="45.045515" lon="11.7431017"><ele>4.0</ele><time>2026-03-22T08:04:47.156Z</time></trkpt><trkpt lat="45.045555" lon="11.7431783"><ele>3.9999999999999996</ele><time>2026-03-22T08:04:48.166Z</time></trkpt><trkpt lat="45.0455967" lon="11.7432567"><ele>4.0</ele><time>2026-03-22T08:04:49.167Z</time></trkpt><trkpt lat="45.0456417" lon="11.7433367"><ele>4.0</ele><time>2026-03-22T08:04:50.17Z</time></trkpt><trkpt lat="45.045685" lon="11.7434167"><ele>3.9999999999999996</ele><time>2026-03-22T08:04:51.166Z</time></trkpt><trkpt lat="45.04573" lon="11.7434967"><ele>4.0</ele><time>2026-03-22T08:04:52.167Z</time></trkpt><trkpt lat="45.045775" lon="11.7435783"><ele>4.0</ele><time>2026-03-22T08:04:53.169Z</time></trkpt><trkpt lat="45.0458217" lon="11.7436617"><ele>3.833333333333333</ele><time>2026-03-22T08:04:54.166Z</time></trkpt><trkpt lat="45.0458683" lon="11.743745"><ele>3.6666666666666665</ele><time>2026-03-22T08:04:55.167Z</time></trkpt><trkpt lat="45.0459183" lon="11.74383"><ele>3.5</ele><time>2026-03-22T08:04:56.168Z</time></trkpt><trkpt lat="45.0459667" lon="11.743915"><ele>3.333333333333333</ele><time>2026-03-22T08:04:57.163Z</time></trkpt><trkpt lat="45.0460133" lon="11.7439983"><ele>3.1666666666666665</ele><time>2026-03-22T08:04:58.168Z</time></trkpt><trkpt lat="45.04606" lon="11.7440833"><ele>3.0</ele><time>2026-03-22T08:04:59.166Z</time></trkpt><trkpt lat="45.0461067" lon="11.7441667"><ele>2.9999999999999996</ele><time>2026-03-22T08:05:00.167Z</time></trkpt><trkpt lat="45.0461533" lon="11.74425"><ele>3.0</ele><time>2026-03-22T08:05:01.165Z</time></trkpt><trkpt lat="45.0462" lon="11.7443333"><ele>3.0</ele><time>2026-03-22T08:05:02.144Z</time></trkpt><trkpt lat="45.046245" lon="11.7444117"><ele>3.0</ele><time>2026-03-22T08:05:03.165Z</time></trkpt><trkpt lat="45.04629" lon="11.7444917"><ele>3.0</ele><time>2026-03-22T08:05:04.163Z</time></trkpt><trkpt lat="45.046335" lon="11.7445717"><ele>2.9999999999999996</ele><time>2026-03-22T08:05:05.168Z</time></trkpt><trkpt lat="45.0463783" lon="11.744655"><ele>3.0</ele><time>2026-03-22T08:05:06.123Z</time></trkpt><trkpt lat="45.0464233" lon="11.744735"><ele>2.8571428571428568</ele><time>2026-03-22T08:05:07.146Z</time></trkpt><trkpt lat="45.04647" lon="11.744815"><ele>2.7142857142857144</ele><time>2026-03-22T08:05:08.168Z</time></trkpt><trkpt lat="45.0465167" lon="11.7448917"><ele>2.571428571428571</ele><time>2026-03-22T08:05:09.166Z</time></trkpt><trkpt lat="45.0465617" lon="11.7449667"><ele>2.4285714285714284</ele><time>2026-03-22T08:05:10.162Z</time></trkpt><trkpt lat="45.0466033" lon="11.7450433"><ele>2.2857142857142856</ele><time>2026-03-22T08:05:11.161Z</time></trkpt><trkpt lat="45.0466467" lon="11.74512"><ele>2.142857142857143</ele><time>2026-03-22T08:05:12.164Z</time></trkpt><trkpt lat="45.0466917" lon="11.7451967"><ele>2.0</ele><time>2026-03-22T08:05:13.167Z</time></trkpt><trkpt lat="45.0467383" lon="11.7452733"><ele>1.857142857142857</ele><time>2026-03-22T08:05:14.168Z</time></trkpt><trkpt lat="45.0467833" lon="11.74535"><ele>1.714285714285714</ele><time>2026-03-22T08:05:15.135Z</time></trkpt><trkpt lat="45.0468267" lon="11.7454283"><ele>1.5714285714285714</ele><time>2026-03-22T08:05:16.136Z</time></trkpt><trkpt lat="45.0468717" lon="11.7455067"><ele>1.4285714285714284</ele><time>2026-03-22T08:05:17.147Z</time></trkpt><trkpt lat="45.0469167" lon="11.745585"><ele>1.2857142857142856</ele><time>2026-03-22T08:05:18.144Z</time></trkpt><trkpt lat="45.0469633" lon="11.7456617"><ele>1.1428571428571428</ele><time>2026-03-22T08:05:19.152Z</time></trkpt><trkpt lat="45.0470117" lon="11.7457383"><ele>1.0</ele><time>2026-03-22T08:05:20.165Z</time></trkpt><trkpt lat="45.0470567" lon="11.7458133"><ele>1.0</ele><time>2026-03-22T08:05:21.134Z</time></trkpt><trkpt lat="45.0471017" lon="11.7458867"><ele>0.9999999999999999</ele><time>2026-03-22T08:05:22.166Z</time></trkpt><trkpt lat="45.0471433" lon="11.74596"><ele>1.0</ele><time>2026-03-22T08:05:23.165Z</time></trkpt><trkpt lat="45.0471883" lon="11.746035"><ele>1.0</ele><time>2026-03-22T08:05:24.172Z</time></trkpt><trkpt lat="45.047235" lon="11.7461083"><ele>0.9999999999999999</ele><time>2026-03-22T08:05:25.171Z</time></trkpt><trkpt lat="45.0472783" lon="11.7461817"><ele>1.0</ele><time>2026-03-22T08:05:26.163Z</time></trkpt><trkpt lat="45.0473217" lon="11.7462517"><ele>1.0</ele><time>2026-03-22T08:05:27.17Z</time></trkpt><trkpt lat="45.047365" lon="11.7463233"><ele>1.3333333333333333</ele><time>2026-03-22T08:05:28.167Z</time></trkpt><trkpt lat="45.0474067" lon="11.746395"><ele>1.6666666666666665</ele><time>2026-03-22T08:05:29.166Z</time></trkpt><trkpt lat="45.0474467" lon="11.7464667"><ele>2.0</ele><time>2026-03-22T08:05:30.161Z</time></trkpt><trkpt lat="45.0474867" lon="11.7465367"><ele>2.3333333333333335</ele><time>2026-03-22T08:05:31.163Z</time></trkpt><trkpt lat="45.0475283" lon="11.746605"><ele>2.6666666666666665</ele><time>2026-03-22T08:05:32.163Z</time></trkpt><trkpt lat="45.0476067" lon="11.746735"><ele>3.0</ele><time>2026-03-22T08:05:34.146Z</time></trkpt><trkpt lat="45.0476833" lon="11.746865"><ele>3.2</ele><time>2026-03-22T08:05:36.166Z</time></trkpt><trkpt lat="45.0477567" lon="11.7469883"><ele>3.4</ele><time>2026-03-22T08:05:38.164Z</time></trkpt><trkpt lat="45.0478233" lon="11.7471017"><ele>3.6000000000000005</ele><time>2026-03-22T08:05:40.165Z</time></trkpt><trkpt lat="45.047885" lon="11.7472067"><ele>3.8000000000000003</ele><time>2026-03-22T08:05:42.155Z</time></trkpt><trkpt lat="45.0479417" lon="11.7472967"><ele>4.0</ele><time>2026-03-22T08:05:44.162Z</time></trkpt><trkpt lat="45.0479933" lon="11.7473783"><ele>3.9999999999999996</ele><time>2026-03-22T08:05:46.162Z</time></trkpt><trkpt lat="45.0480433" lon="11.747455"><ele>4.0</ele><time>2026-03-22T08:05:48.162Z</time></trkpt><trkpt lat="45.0480933" lon="11.74753"><ele>4.0</ele><time>2026-03-22T08:05:50.144Z</time></trkpt><trkpt lat="45.0480983" lon="11.74765"><ele>4.0</ele><time>2026-03-22T08:05:53.161Z</time></trkpt><trkpt lat="45.04803" lon="11.747685"><ele>3.9999999999999996</ele><time>2026-03-22T08:05:55.168Z</time></trkpt><trkpt lat="45.0479433" lon="11.7476933"><ele>4.0</ele><time>2026-03-22T08:05:57.169Z</time></trkpt><trkpt lat="45.0478483" lon="11.7477"><ele>4.0</ele><time>2026-03-22T08:05:59.161Z</time></trkpt><trkpt lat="45.047745" lon="11.747705"><ele>4.0</ele><time>2026-03-22T08:06:01.152Z</time></trkpt><trkpt lat="45.047625" lon="11.74772"><ele>4.0</ele><time>2026-03-22T08:06:03.164Z</time></trkpt><trkpt lat="45.0475567" lon="11.7477283"><ele>4.0</ele><time>2026-03-22T08:06:04.174Z</time></trkpt><trkpt lat="45.0474867" lon="11.7477433"><ele>4.0</ele><time>2026-03-22T08:06:05.28Z</time></trkpt><trkpt lat="45.047345" lon="11.7477833"><ele>3.8571428571428568</ele><time>2026-03-22T08:06:07.16Z</time></trkpt><trkpt lat="45.0472733" lon="11.747805"><ele>3.714285714285714</ele><time>2026-03-22T08:06:08.169Z</time></trkpt><trkpt lat="45.0472017" lon="11.7478283"><ele>3.571428571428571</ele><time>2026-03-22T08:06:09.168Z</time></trkpt><trkpt lat="45.0471283" lon="11.747855"><ele>3.4285714285714284</ele><time>2026-03-22T08:06:10.166Z</time></trkpt><trkpt lat="45.047055" lon="11.74788"><ele>3.2857142857142856</ele><time>2026-03-22T08:06:11.144Z</time></trkpt><trkpt lat="45.0469817" lon="11.7479067"><ele>3.1428571428571423</ele><time>2026-03-22T08:06:12.155Z</time></trkpt><trkpt lat="45.0469117" lon="11.7479367"><ele>3.0</ele><time>2026-03-22T08:06:13.162Z</time></trkpt><trkpt lat="45.0468467" lon="11.7479683"><ele>3.0</ele><time>2026-03-22T08:06:14.16Z</time></trkpt><trkpt lat="45.0467317" lon="11.7480267"><ele>3.0</ele><time>2026-03-22T08:06:16.171Z</time></trkpt><trkpt lat="45.0466233" lon="11.7480667"><ele>3.0</ele><time>2026-03-22T08:06:18.149Z</time></trkpt><trkpt lat="45.0465183" lon="11.7481133"><ele>3.0</ele><time>2026-03-22T08:06:20.168Z</time></trkpt><trkpt lat="45.0464133" lon="11.7481567"><ele>3.0</ele><time>2026-03-22T08:06:22.163Z</time></trkpt><trkpt lat="45.0463067" lon="11.748205"><ele>3.0</ele><time>2026-03-22T08:06:24.169Z</time></trkpt><trkpt lat="45.0462017" lon="11.7482517"><ele>3.0</ele><time>2026-03-22T08:06:26.169Z</time></trkpt><trkpt lat="45.04609" lon="11.7482933"><ele>3.0</ele><time>2026-03-22T08:06:28.17Z</time></trkpt><trkpt lat="45.0459767" lon="11.7483367"><ele>3.0</ele><time>2026-03-22T08:06:30.171Z</time></trkpt><trkpt lat="45.0458617" lon="11.74838"><ele>3.0</ele><time>2026-03-22T08:06:32.135Z</time></trkpt><trkpt lat="45.04575" lon="11.74842"><ele>3.0</ele><time>2026-03-22T08:06:34.166Z</time></trkpt><trkpt lat="45.0456317" lon="11.748455"><ele>3.0</ele><time>2026-03-22T08:06:36.168Z</time></trkpt><trkpt lat="45.0455133" lon="11.7484867"><ele>3.0</ele><time>2026-03-22T08:06:38.165Z</time></trkpt><trkpt lat="45.04539" lon="11.7485033"><ele>3.0</ele><time>2026-03-22T08:06:40.164Z</time></trkpt><trkpt lat="45.045265" lon="11.7485033"><ele>3.0</ele><time>2026-03-22T08:06:42.168Z</time></trkpt><trkpt lat="45.0452017" lon="11.7485017"><ele>3.0</ele><time>2026-03-22T08:06:43.145Z</time></trkpt><trkpt lat="45.0450783" lon="11.7484867"><ele>3.0</ele><time>2026-03-22T08:06:45.17Z</time></trkpt><trkpt lat="45.045015" lon="11.748475"><ele>3.0</ele><time>2026-03-22T08:06:46.165Z</time></trkpt><trkpt lat="45.04489" lon="11.7484433"><ele>3.0</ele><time>2026-03-22T08:06:48.169Z</time></trkpt><trkpt lat="45.0448283" lon="11.748425"><ele>3.0</ele><time>2026-03-22T08:06:49.172Z</time></trkpt><trkpt lat="45.044715" lon="11.7483967"><ele>3.0</ele><time>2026-03-22T08:06:51.169Z</time></trkpt><trkpt lat="45.0446083" lon="11.7483767"><ele>3.0</ele><time>2026-03-22T08:06:53.167Z</time></trkpt><trkpt lat="45.0445" lon="11.74838"><ele>3.0</ele><time>2026-03-22T08:06:55.168Z</time></trkpt><trkpt lat="45.0443867" lon="11.748415"><ele>3.0</ele><time>2026-03-22T08:06:57.168Z</time></trkpt><trkpt lat="45.0442817" lon="11.7484767"><ele>3.0</ele><time>2026-03-22T08:06:59.163Z</time></trkpt><trkpt lat="45.0441833" lon="11.7485533"><ele>3.0</ele><time>2026-03-22T08:07:01.139Z</time></trkpt><trkpt lat="45.044105" lon="11.7486533"><ele>3.0</ele><time>2026-03-22T08:07:03.133Z</time></trkpt><trkpt lat="45.044045" lon="11.74877"><ele>3.0</ele><time>2026-03-22T08:07:05.161Z</time></trkpt><trkpt lat="45.0439983" lon="11.7489017"><ele>3.0</ele><time>2026-03-22T08:07:07.167Z</time></trkpt><trkpt lat="45.0439617" lon="11.7490317"><ele>3.0</ele><time>2026-03-22T08:07:09.166Z</time></trkpt><trkpt lat="45.0439217" lon="11.7491517"><ele>3.0</ele><time>2026-03-22T08:07:11.169Z</time></trkpt><trkpt lat="45.0438833" lon="11.74928"><ele>3.0</ele><time>2026-03-22T08:07:13.17Z</time></trkpt><trkpt lat="45.0438433" lon="11.7494133"><ele>3.2</ele><time>2026-03-22T08:07:15.142Z</time></trkpt><trkpt lat="45.0438017" lon="11.7495433"><ele>3.4</ele><time>2026-03-22T08:07:17.171Z</time></trkpt><trkpt lat="45.0437667" lon="11.749675"><ele>3.6000000000000005</ele><time>2026-03-22T08:07:19.171Z</time></trkpt><trkpt lat="45.0437333" lon="11.7498033"><ele>3.8000000000000003</ele><time>2026-03-22T08:07:21.168Z</time></trkpt><trkpt lat="45.0437017" lon="11.7499217"><ele>4.0</ele><time>2026-03-22T08:07:23.154Z</time></trkpt><trkpt lat="45.0436683" lon="11.7500233"><ele>4.0</ele><time>2026-03-22T08:07:25.164Z</time></trkpt><trkpt lat="45.0435967" lon="11.7500817"><ele>4.0</ele><time>2026-03-22T08:07:27.167Z</time></trkpt><trkpt lat="45.0435067" lon="11.750085"><ele>4.0</ele><time>2026-03-22T08:07:29.161Z</time></trkpt><trkpt lat="45.0434133" lon="11.7500917"><ele>4.0</ele><time>2026-03-22T08:07:31.165Z</time></trkpt><trkpt lat="45.0433067" lon="11.7501117"><ele>4.0</ele><time>2026-03-22T08:07:33.164Z</time></trkpt><trkpt lat="45.04319" lon="11.7501283"><ele>4.2</ele><time>2026-03-22T08:07:35.168Z</time></trkpt><trkpt lat="45.0430767" lon="11.75013"><ele>4.4</ele><time>2026-03-22T08:07:37.16Z</time></trkpt><trkpt lat="45.042965" lon="11.7501417"><ele>4.6</ele><time>2026-03-22T08:07:39.167Z</time></trkpt><trkpt lat="45.042855" lon="11.75015"><ele>4.8</ele><time>2026-03-22T08:07:41.17Z</time></trkpt><trkpt lat="45.0427517" lon="11.7501583"><ele>5.0</ele><time>2026-03-22T08:07:43.164Z</time></trkpt><trkpt lat="45.0426483" lon="11.75016"><ele>5.0</ele><time>2026-03-22T08:07:45.159Z</time></trkpt><trkpt lat="45.04255" lon="11.7501817"><ele>5.0</ele><time>2026-03-22T08:07:47.137Z</time></trkpt><trkpt lat="45.0424583" lon="11.7501967"><ele>5.0</ele><time>2026-03-22T08:07:49.166Z</time></trkpt><trkpt lat="45.042375" lon="11.7502117"><ele>5.0</ele><time>2026-03-22T08:07:51.16Z</time></trkpt><trkpt lat="45.0422933" lon="11.7502417"><ele>5.0</ele><time>2026-03-22T08:07:53.165Z</time></trkpt><trkpt lat="45.0422283" lon="11.7503467"><ele>5.2</ele><time>2026-03-22T08:07:55.156Z</time></trkpt><trkpt lat="45.042165" lon="11.7504717"><ele>5.4</ele><time>2026-03-22T08:07:57.165Z</time></trkpt><trkpt lat="45.0421033" lon="11.750595"><ele>5.6</ele><time>2026-03-22T08:07:59.165Z</time></trkpt><trkpt lat="45.04205" lon="11.75073"><ele>5.8</ele><time>2026-03-22T08:08:01.165Z</time></trkpt><trkpt lat="45.0420267" lon="11.7508833"><ele>6.0</ele><time>2026-03-22T08:08:03.154Z</time></trkpt><trkpt lat="45.042035" lon="11.75105"><ele>6.0</ele><time>2026-03-22T08:08:05.153Z</time></trkpt><trkpt lat="45.0420517" lon="11.7512233"><ele>6.0</ele><time>2026-03-22T08:08:07.163Z</time></trkpt><trkpt lat="45.04206" lon="11.7513133"><ele>6.0</ele><time>2026-03-22T08:08:08.158Z</time></trkpt><trkpt lat="45.042065" lon="11.7514033"><ele>6.0</ele><time>2026-03-22T08:08:09.168Z</time></trkpt><trkpt lat="45.0420683" lon="11.7514933"><ele>6.0</ele><time>2026-03-22T08:08:10.166Z</time></trkpt><trkpt lat="45.04207" lon="11.7516633"><ele>6.0</ele><time>2026-03-22T08:08:12.165Z</time></trkpt><trkpt lat="45.0420733" lon="11.7518383"><ele>5.8</ele><time>2026-03-22T08:08:14.166Z</time></trkpt><trkpt lat="45.04207" lon="11.7520033"><ele>5.6</ele><time>2026-03-22T08:08:16.168Z</time></trkpt><trkpt lat="45.0420617" lon="11.7521683"><ele>5.4</ele><time>2026-03-22T08:08:18.16Z</time></trkpt><trkpt lat="45.0420483" lon="11.752315"><ele>5.2</ele><time>2026-03-22T08:08:20.164Z</time></trkpt><trkpt lat="45.0420267" lon="11.75245"><ele>5.0</ele><time>2026-03-22T08:08:22.159Z</time></trkpt><trkpt lat="45.0419917" lon="11.752615"><ele>5.0</ele><time>2026-03-22T08:08:25.163Z</time></trkpt><trkpt lat="45.0419317" lon="11.7526783"><ele>5.0</ele><time>2026-03-22T08:08:27.159Z</time></trkpt><trkpt lat="45.0418333" lon="11.752685"><ele>5.0</ele><time>2026-03-22T08:08:29.147Z</time></trkpt><trkpt lat="45.0417217" lon="11.7526517"><ele>5.0</ele><time>2026-03-22T08:08:31.168Z</time></trkpt><trkpt lat="45.041605" lon="11.7525967"><ele>5.0</ele><time>2026-03-22T08:08:33.166Z</time></trkpt><trkpt lat="45.0414817" lon="11.752545"><ele>5.0</ele><time>2026-03-22T08:08:35.168Z</time></trkpt><trkpt lat="45.0414183" lon="11.75252"><ele>5.0</ele><time>2026-03-22T08:08:36.162Z</time></trkpt><trkpt lat="45.041355" lon="11.7524967"><ele>5.0</ele><time>2026-03-22T08:08:37.164Z</time></trkpt><trkpt lat="45.04129" lon="11.7524767"><ele>5.0</ele><time>2026-03-22T08:08:38.146Z</time></trkpt><trkpt lat="45.0412267" lon="11.7524567"><ele>5.0</ele><time>2026-03-22T08:08:39.158Z</time></trkpt><trkpt lat="45.041165" lon="11.7524383"><ele>5.0</ele><time>2026-03-22T08:08:40.161Z</time></trkpt><trkpt lat="45.0410983" lon="11.7524183"><ele>5.0</ele><time>2026-03-22T08:08:41.162Z</time></trkpt><trkpt lat="45.0410333" lon="11.7523967"><ele>5.0</ele><time>2026-03-22T08:08:42.166Z</time></trkpt><trkpt lat="45.040965" lon="11.7523783"><ele>5.0</ele><time>2026-03-22T08:08:43.153Z</time></trkpt><trkpt lat="45.0408967" lon="11.75236"><ele>5.0</ele><time>2026-03-22T08:08:44.164Z</time></trkpt><trkpt lat="45.040825" lon="11.7523417"><ele>5.0</ele><time>2026-03-22T08:08:45.143Z</time></trkpt><trkpt lat="45.0407517" lon="11.7523267"><ele>5.0</ele><time>2026-03-22T08:08:46.167Z</time></trkpt><trkpt lat="45.0406767" lon="11.752315"><ele>5.0</ele><time>2026-03-22T08:08:47.164Z</time></trkpt><trkpt lat="45.0406033" lon="11.752305"><ele>5.0</ele><time>2026-03-22T08:08:48.169Z</time></trkpt><trkpt lat="45.04053" lon="11.7522983"><ele>5.0</ele><time>2026-03-22T08:08:49.166Z</time></trkpt><trkpt lat="45.0404567" lon="11.7522983"><ele>5.0</ele><time>2026-03-22T08:08:50.165Z</time></trkpt><trkpt lat="45.0403833" lon="11.7523017"><ele>5.0</ele><time>2026-03-22T08:08:51.16Z</time></trkpt><trkpt lat="45.04031" lon="11.752315"><ele>5.0</ele><time>2026-03-22T08:08:52.164Z</time></trkpt><trkpt lat="45.0402383" lon="11.7523317"><ele>5.0</ele><time>2026-03-22T08:08:53.166Z</time></trkpt><trkpt lat="45.0401667" lon="11.7523533"><ele>5.0</ele><time>2026-03-22T08:08:54.166Z</time></trkpt><trkpt lat="45.0400933" lon="11.7523783"><ele>5.0</ele><time>2026-03-22T08:08:55.17Z</time></trkpt><trkpt lat="45.0400217" lon="11.7524033"><ele>4.857142857142857</ele><time>2026-03-22T08:08:56.158Z</time></trkpt><trkpt lat="45.03995" lon="11.7524283"><ele>4.714285714285714</ele><time>2026-03-22T08:08:57.158Z</time></trkpt><trkpt lat="45.03988" lon="11.7524567"><ele>4.571428571428571</ele><time>2026-03-22T08:08:58.166Z</time></trkpt><trkpt lat="45.0398117" lon="11.7524867"><ele>4.428571428571429</ele><time>2026-03-22T08:08:59.167Z</time></trkpt><trkpt lat="45.0397433" lon="11.752515"><ele>4.285714285714286</ele><time>2026-03-22T08:09:00.163Z</time></trkpt><trkpt lat="45.0396767" lon="11.7525417"><ele>4.142857142857142</ele><time>2026-03-22T08:09:01.166Z</time></trkpt><trkpt lat="45.0396083" lon="11.7525683"><ele>4.0</ele><time>2026-03-22T08:09:02.165Z</time></trkpt><trkpt lat="45.0395417" lon="11.7525933"><ele>4.0</ele><time>2026-03-22T08:09:03.172Z</time></trkpt><trkpt lat="45.0394733" lon="11.7526183"><ele>3.9999999999999996</ele><time>2026-03-22T08:09:04.166Z</time></trkpt><trkpt lat="45.0394033" lon="11.7526417"><ele>4.0</ele><time>2026-03-22T08:09:05.165Z</time></trkpt><trkpt lat="45.0393367" lon="11.7526583"><ele>4.0</ele><time>2026-03-22T08:09:06.172Z</time></trkpt><trkpt lat="45.0392683" lon="11.752675"><ele>3.9999999999999996</ele><time>2026-03-22T08:09:07.167Z</time></trkpt><trkpt lat="45.0392033" lon="11.7526883"><ele>4.0</ele><time>2026-03-22T08:09:08.166Z</time></trkpt><trkpt lat="45.0391367" lon="11.7527"><ele>4.0</ele><time>2026-03-22T08:09:09.169Z</time></trkpt><trkpt lat="45.03907" lon="11.7527083"><ele>4.142857142857142</ele><time>2026-03-22T08:09:10.165Z</time></trkpt><trkpt lat="45.0390017" lon="11.7527133"><ele>4.285714285714286</ele><time>2026-03-22T08:09:11.168Z</time></trkpt><trkpt lat="45.038935" lon="11.752715"><ele>4.428571428571429</ele><time>2026-03-22T08:09:12.164Z</time></trkpt><trkpt lat="45.038865" lon="11.7527183"><ele>4.571428571428571</ele><time>2026-03-22T08:09:13.168Z</time></trkpt><trkpt lat="45.038795" lon="11.7527167"><ele>4.714285714285714</ele><time>2026-03-22T08:09:14.173Z</time></trkpt><trkpt lat="45.0387283" lon="11.7527083"><ele>4.857142857142857</ele><time>2026-03-22T08:09:15.166Z</time></trkpt><trkpt lat="45.0386633" lon="11.7527033"><ele>5.0</ele><time>2026-03-22T08:09:16.167Z</time></trkpt><trkpt lat="45.0385383" lon="11.7526867"><ele>5.0</ele><time>2026-03-22T08:09:18.157Z</time></trkpt><trkpt lat="45.0384717" lon="11.7526817"><ele>5.0</ele><time>2026-03-22T08:09:19.167Z</time></trkpt><trkpt lat="45.0384017" lon="11.7526767"><ele>5.0</ele><time>2026-03-22T08:09:20.17Z</time></trkpt><trkpt lat="45.0383317" lon="11.7526683"><ele>5.0</ele><time>2026-03-22T08:09:21.171Z</time></trkpt><trkpt lat="45.03826" lon="11.7526567"><ele>5.0</ele><time>2026-03-22T08:09:22.166Z</time></trkpt><trkpt lat="45.0381883" lon="11.7526467"><ele>5.0</ele><time>2026-03-22T08:09:23.167Z</time></trkpt><trkpt lat="45.0381183" lon="11.7526383"><ele>5.0</ele><time>2026-03-22T08:09:24.169Z</time></trkpt><trkpt lat="45.03805" lon="11.75263"><ele>5.0</ele><time>2026-03-22T08:09:25.167Z</time></trkpt><trkpt lat="45.0379783" lon="11.7526217"><ele>5.0</ele><time>2026-03-22T08:09:26.169Z</time></trkpt><trkpt lat="45.0379067" lon="11.7526133"><ele>5.0</ele><time>2026-03-22T08:09:27.17Z</time></trkpt><trkpt lat="45.0378367" lon="11.7526017"><ele>5.0</ele><time>2026-03-22T08:09:28.168Z</time></trkpt><trkpt lat="45.037765" lon="11.7525933"><ele>5.0</ele><time>2026-03-22T08:09:29.169Z</time></trkpt><trkpt lat="45.037695" lon="11.752585"><ele>5.0</ele><time>2026-03-22T08:09:30.17Z</time></trkpt><trkpt lat="45.0376233" lon="11.752575"><ele>5.0</ele><time>2026-03-22T08:09:31.169Z</time></trkpt><trkpt lat="45.037555" lon="11.7525667"><ele>5.0</ele><time>2026-03-22T08:09:32.17Z</time></trkpt><trkpt lat="45.0374867" lon="11.752555"><ele>5.0</ele><time>2026-03-22T08:09:33.15Z</time></trkpt><trkpt lat="45.0374183" lon="11.7525433"><ele>5.0</ele><time>2026-03-22T08:09:34.155Z</time></trkpt><trkpt lat="45.0373517" lon="11.7525317"><ele>5.0</ele><time>2026-03-22T08:09:35.168Z</time></trkpt><trkpt lat="45.037285" lon="11.7525183"><ele>5.0</ele><time>2026-03-22T08:09:36.166Z</time></trkpt><trkpt lat="45.0372217" lon="11.7525033"><ele>5.0</ele><time>2026-03-22T08:09:37.168Z</time></trkpt><trkpt lat="45.0370967" lon="11.75248"><ele>5.142857142857142</ele><time>2026-03-22T08:09:39.161Z</time></trkpt><trkpt lat="45.0370317" lon="11.7524617"><ele>5.285714285714286</ele><time>2026-03-22T08:09:40.159Z</time></trkpt><trkpt lat="45.0369683" lon="11.7524433"><ele>5.428571428571429</ele><time>2026-03-22T08:09:41.168Z</time></trkpt><trkpt lat="45.036905" lon="11.7524217"><ele>5.571428571428571</ele><time>2026-03-22T08:09:42.154Z</time></trkpt><trkpt lat="45.0368417" lon="11.7523967"><ele>5.714285714285714</ele><time>2026-03-22T08:09:43.161Z</time></trkpt><trkpt lat="45.0367783" lon="11.75237"><ele>5.857142857142857</ele><time>2026-03-22T08:09:44.169Z</time></trkpt><trkpt lat="45.036715" lon="11.7523433"><ele>6.0</ele><time>2026-03-22T08:09:45.173Z</time></trkpt><trkpt lat="45.0366517" lon="11.7523167"><ele>5.857142857142857</ele><time>2026-03-22T08:09:46.167Z</time></trkpt><trkpt lat="45.0365883" lon="11.75229"><ele>5.714285714285714</ele><time>2026-03-22T08:09:47.16Z</time></trkpt><trkpt lat="45.0365217" lon="11.752265"><ele>5.571428571428571</ele><time>2026-03-22T08:09:48.165Z</time></trkpt><trkpt lat="45.0364517" lon="11.7522433"><ele>5.428571428571429</ele><time>2026-03-22T08:09:49.161Z</time></trkpt><trkpt lat="45.0363817" lon="11.7522267"><ele>5.285714285714286</ele><time>2026-03-22T08:09:50.167Z</time></trkpt><trkpt lat="45.0363117" lon="11.7522133"><ele>5.142857142857142</ele><time>2026-03-22T08:09:51.163Z</time></trkpt><trkpt lat="45.03624" lon="11.7522033"><ele>5.0</ele><time>2026-03-22T08:09:52.166Z</time></trkpt><trkpt lat="45.03617" lon="11.7521983"><ele>5.0</ele><time>2026-03-22T08:09:53.132Z</time></trkpt><trkpt lat="45.0360983" lon="11.7521983"><ele>5.0</ele><time>2026-03-22T08:09:54.139Z</time></trkpt><trkpt lat="45.0360267" lon="11.7522"><ele>5.0</ele><time>2026-03-22T08:09:55.166Z</time></trkpt><trkpt lat="45.0359567" lon="11.752205"><ele>5.0</ele><time>2026-03-22T08:09:56.165Z</time></trkpt><trkpt lat="45.0358883" lon="11.752215"><ele>5.0</ele><time>2026-03-22T08:09:57.159Z</time></trkpt><trkpt lat="45.03582" lon="11.7522267"><ele>5.0</ele><time>2026-03-22T08:09:58.162Z</time></trkpt><trkpt lat="45.035755" lon="11.75224"><ele>5.0</ele><time>2026-03-22T08:09:59.165Z</time></trkpt><trkpt lat="45.03569" lon="11.7522483"><ele>4.857142857142857</ele><time>2026-03-22T08:10:00.159Z</time></trkpt><trkpt lat="45.035625" lon="11.752255"><ele>4.714285714285714</ele><time>2026-03-22T08:10:01.165Z</time></trkpt><trkpt lat="45.0355583" lon="11.7522667"><ele>4.571428571428571</ele><time>2026-03-22T08:10:02.17Z</time></trkpt><trkpt lat="45.0354917" lon="11.7522767"><ele>4.428571428571429</ele><time>2026-03-22T08:10:03.167Z</time></trkpt><trkpt lat="45.035425" lon="11.75228"><ele>4.285714285714286</ele><time>2026-03-22T08:10:04.166Z</time></trkpt><trkpt lat="45.0353583" lon="11.75228"><ele>4.142857142857142</ele><time>2026-03-22T08:10:05.167Z</time></trkpt><trkpt lat="45.0352883" lon="11.752275"><ele>4.0</ele><time>2026-03-22T08:10:06.168Z</time></trkpt><trkpt lat="45.0352167" lon="11.7522617"><ele>4.0</ele><time>2026-03-22T08:10:07.168Z</time></trkpt><trkpt lat="45.0351467" lon="11.75224"><ele>3.9999999999999996</ele><time>2026-03-22T08:10:08.166Z</time></trkpt><trkpt lat="45.0350767" lon="11.752215"><ele>4.0</ele><time>2026-03-22T08:10:09.166Z</time></trkpt><trkpt lat="45.03501" lon="11.7521883"><ele>4.0</ele><time>2026-03-22T08:10:10.164Z</time></trkpt><trkpt lat="45.0349433" lon="11.752165"><ele>3.9999999999999996</ele><time>2026-03-22T08:10:11.168Z</time></trkpt><trkpt lat="45.034875" lon="11.75214"><ele>4.0</ele><time>2026-03-22T08:10:12.166Z</time></trkpt><trkpt lat="45.03481" lon="11.7521133"><ele>4.0</ele><time>2026-03-22T08:10:13.166Z</time></trkpt><trkpt lat="45.0347433" lon="11.7520883"><ele>4.0</ele><time>2026-03-22T08:10:14.171Z</time></trkpt><trkpt lat="45.0346767" lon="11.7520617"><ele>3.9999999999999996</ele><time>2026-03-22T08:10:15.14Z</time></trkpt><trkpt lat="45.0346083" lon="11.7520333"><ele>4.0</ele><time>2026-03-22T08:10:16.164Z</time></trkpt><trkpt lat="45.03454" lon="11.752005"><ele>4.0</ele><time>2026-03-22T08:10:17.16Z</time></trkpt><trkpt lat="45.034475" lon="11.7519783"><ele>3.9999999999999996</ele><time>2026-03-22T08:10:18.164Z</time></trkpt><trkpt lat="45.0344083" lon="11.7519533"><ele>4.0</ele><time>2026-03-22T08:10:19.173Z</time></trkpt><trkpt lat="45.0343417" lon="11.7519267"><ele>4.0</ele><time>2026-03-22T08:10:20.163Z</time></trkpt><trkpt lat="45.0342767" lon="11.7519"><ele>3.8571428571428568</ele><time>2026-03-22T08:10:21.158Z</time></trkpt><trkpt lat="45.0342117" lon="11.7518667"><ele>3.714285714285714</ele><time>2026-03-22T08:10:22.166Z</time></trkpt><trkpt lat="45.0341467" lon="11.751835"><ele>3.571428571428571</ele><time>2026-03-22T08:10:23.165Z</time></trkpt><trkpt lat="45.0340817" lon="11.7518"><ele>3.4285714285714284</ele><time>2026-03-22T08:10:24.17Z</time></trkpt><trkpt lat="45.0340183" lon="11.7517683"><ele>3.2857142857142856</ele><time>2026-03-22T08:10:25.168Z</time></trkpt><trkpt lat="45.033955" lon="11.751735"><ele>3.1428571428571423</ele><time>2026-03-22T08:10:26.14Z</time></trkpt><trkpt lat="45.0338917" lon="11.7517"><ele>3.0</ele><time>2026-03-22T08:10:27.165Z</time></trkpt><trkpt lat="45.0338283" lon="11.7516667"><ele>2.9999999999999996</ele><time>2026-03-22T08:10:28.155Z</time></trkpt><trkpt lat="45.0337633" lon="11.751635"><ele>3.0</ele><time>2026-03-22T08:10:29.157Z</time></trkpt><trkpt lat="45.0336983" lon="11.7516017"><ele>3.0</ele><time>2026-03-22T08:10:30.165Z</time></trkpt><trkpt lat="45.0336317" lon="11.7515683"><ele>3.0</ele><time>2026-03-22T08:10:31.17Z</time></trkpt><trkpt lat="45.033565" lon="11.75154"><ele>3.0</ele><time>2026-03-22T08:10:32.169Z</time></trkpt><trkpt lat="45.0334967" lon="11.751515"><ele>2.9999999999999996</ele><time>2026-03-22T08:10:33.171Z</time></trkpt><trkpt lat="45.03343" lon="11.7514883"><ele>3.0</ele><time>2026-03-22T08:10:34.165Z</time></trkpt><trkpt lat="45.03336" lon="11.7514617"><ele>2.9999999999999996</ele><time>2026-03-22T08:10:35.15Z</time></trkpt><trkpt lat="45.0332917" lon="11.751435"><ele>3.0</ele><time>2026-03-22T08:10:36.162Z</time></trkpt><trkpt lat="45.0332233" lon="11.7514067"><ele>3.0</ele><time>2026-03-22T08:10:37.162Z</time></trkpt><trkpt lat="45.0331533" lon="11.75138"><ele>3.0</ele><time>2026-03-22T08:10:38.163Z</time></trkpt><trkpt lat="45.033085" lon="11.7513567"><ele>3.0</ele><time>2026-03-22T08:10:39.16Z</time></trkpt><trkpt lat="45.033015" lon="11.7513333"><ele>2.9999999999999996</ele><time>2026-03-22T08:10:40.159Z</time></trkpt><trkpt lat="45.0329467" lon="11.7513117"><ele>3.0</ele><time>2026-03-22T08:10:41.162Z</time></trkpt><trkpt lat="45.0328783" lon="11.7512883"><ele>2.9999999999999996</ele><time>2026-03-22T08:10:42.171Z</time></trkpt><trkpt lat="45.0328083" lon="11.7512667"><ele>3.0</ele><time>2026-03-22T08:10:43.169Z</time></trkpt><trkpt lat="45.0327383" lon="11.7512467"><ele>3.0</ele><time>2026-03-22T08:10:44.171Z</time></trkpt><trkpt lat="45.03267" lon="11.751225"><ele>3.0</ele><time>2026-03-22T08:10:45.171Z</time></trkpt><trkpt lat="45.0326017" lon="11.7512017"><ele>3.0</ele><time>2026-03-22T08:10:46.168Z</time></trkpt><trkpt lat="45.0325333" lon="11.75118"><ele>2.9999999999999996</ele><time>2026-03-22T08:10:47.145Z</time></trkpt><trkpt lat="45.0324617" lon="11.751155"><ele>3.0</ele><time>2026-03-22T08:10:48.166Z</time></trkpt><trkpt lat="45.0323917" lon="11.75113"><ele>2.9999999999999996</ele><time>2026-03-22T08:10:49.165Z</time></trkpt><trkpt lat="45.0323217" lon="11.7511017"><ele>3.0</ele><time>2026-03-22T08:10:50.174Z</time></trkpt><trkpt lat="45.03225" lon="11.7510733"><ele>3.0</ele><time>2026-03-22T08:10:51.169Z</time></trkpt><trkpt lat="45.0321817" lon="11.7510417"><ele>3.0</ele><time>2026-03-22T08:10:52.17Z</time></trkpt><trkpt lat="45.0321133" lon="11.7510083"><ele>3.0</ele><time>2026-03-22T08:10:53.165Z</time></trkpt><trkpt lat="45.0320467" lon="11.750975"><ele>2.9999999999999996</ele><time>2026-03-22T08:10:54.169Z</time></trkpt><trkpt lat="45.03198" lon="11.75094"><ele>3.0</ele><time>2026-03-22T08:10:55.168Z</time></trkpt><trkpt lat="45.0319133" lon="11.7509033"><ele>2.9999999999999996</ele><time>2026-03-22T08:10:56.169Z</time></trkpt><trkpt lat="45.0318483" lon="11.7508683"><ele>3.0</ele><time>2026-03-22T08:10:57.151Z</time></trkpt><trkpt lat="45.0317833" lon="11.7508317"><ele>3.0</ele><time>2026-03-22T08:10:58.138Z</time></trkpt><trkpt lat="45.031715" lon="11.7507967"><ele>3.0</ele><time>2026-03-22T08:10:59.166Z</time></trkpt><trkpt lat="45.0316467" lon="11.7507617"><ele>3.0</ele><time>2026-03-22T08:11:00.165Z</time></trkpt><trkpt lat="45.0315783" lon="11.7507283"><ele>2.9999999999999996</ele><time>2026-03-22T08:11:01.165Z</time></trkpt><trkpt lat="45.0315117" lon="11.7506917"><ele>3.0</ele><time>2026-03-22T08:11:02.168Z</time></trkpt><trkpt lat="45.031445" lon="11.7506567"><ele>2.9999999999999996</ele><time>2026-03-22T08:11:03.166Z</time></trkpt><trkpt lat="45.03138" lon="11.75062"><ele>3.0</ele><time>2026-03-22T08:11:04.143Z</time></trkpt><trkpt lat="45.031315" lon="11.7505833"><ele>3.0</ele><time>2026-03-22T08:11:05.164Z</time></trkpt><trkpt lat="45.0312517" lon="11.750545"><ele>3.0</ele><time>2026-03-22T08:11:06.164Z</time></trkpt><trkpt lat="45.0311867" lon="11.7505083"><ele>3.0</ele><time>2026-03-22T08:11:07.166Z</time></trkpt><trkpt lat="45.0311217" lon="11.75047"><ele>2.9999999999999996</ele><time>2026-03-22T08:11:08.167Z</time></trkpt><trkpt lat="45.0310567" lon="11.75043"><ele>3.0</ele><time>2026-03-22T08:11:09.163Z</time></trkpt><trkpt lat="45.0309917" lon="11.75039"><ele>2.9999999999999996</ele><time>2026-03-22T08:11:10.159Z</time></trkpt><trkpt lat="45.030925" lon="11.75035"><ele>3.0</ele><time>2026-03-22T08:11:11.167Z</time></trkpt><trkpt lat="45.0308583" lon="11.7503117"><ele>3.0</ele><time>2026-03-22T08:11:12.166Z</time></trkpt><trkpt lat="45.0307917" lon="11.75027"><ele>3.0</ele><time>2026-03-22T08:11:13.163Z</time></trkpt><trkpt lat="45.030725" lon="11.7502333"><ele>3.0</ele><time>2026-03-22T08:11:14.167Z</time></trkpt><trkpt lat="45.0306617" lon="11.7501933"><ele>2.9999999999999996</ele><time>2026-03-22T08:11:15.171Z</time></trkpt><trkpt lat="45.0305983" lon="11.7501533"><ele>3.0</ele><time>2026-03-22T08:11:16.147Z</time></trkpt><trkpt lat="45.0305367" lon="11.7501133"><ele>2.8571428571428568</ele><time>2026-03-22T08:11:17.159Z</time></trkpt><trkpt lat="45.030475" lon="11.7500717"><ele>2.7142857142857144</ele><time>2026-03-22T08:11:18.16Z</time></trkpt><trkpt lat="45.0304167" lon="11.75003"><ele>2.571428571428571</ele><time>2026-03-22T08:11:19.148Z</time></trkpt><trkpt lat="45.0303583" lon="11.7499883"><ele>2.4285714285714284</ele><time>2026-03-22T08:11:20.168Z</time></trkpt><trkpt lat="45.0302983" lon="11.7499483"><ele>2.2857142857142856</ele><time>2026-03-22T08:11:21.164Z</time></trkpt><trkpt lat="45.0302383" lon="11.749905"><ele>2.142857142857143</ele><time>2026-03-22T08:11:22.171Z</time></trkpt><trkpt lat="45.0301783" lon="11.74986"><ele>2.0</ele><time>2026-03-22T08:11:23.169Z</time></trkpt><trkpt lat="45.03012" lon="11.749815"><ele>2.0</ele><time>2026-03-22T08:11:24.17Z</time></trkpt><trkpt lat="45.03006" lon="11.7497667"><ele>1.9999999999999998</ele><time>2026-03-22T08:11:25.166Z</time></trkpt><trkpt lat="45.03" lon="11.749715"><ele>2.0</ele><time>2026-03-22T08:11:26.168Z</time></trkpt><trkpt lat="45.02994" lon="11.7496617"><ele>2.0</ele><time>2026-03-22T08:11:27.172Z</time></trkpt><trkpt lat="45.0298867" lon="11.749605"><ele>1.9999999999999998</ele><time>2026-03-22T08:11:28.167Z</time></trkpt><trkpt lat="45.0298367" lon="11.749545"><ele>2.0</ele><time>2026-03-22T08:11:29.165Z</time></trkpt><trkpt lat="45.0297883" lon="11.7494817"><ele>2.0</ele><time>2026-03-22T08:11:30.153Z</time></trkpt><trkpt lat="45.029745" lon="11.7494117"><ele>2.142857142857143</ele><time>2026-03-22T08:11:31.159Z</time></trkpt><trkpt lat="45.029705" lon="11.7493367"><ele>2.2857142857142856</ele><time>2026-03-22T08:11:32.173Z</time></trkpt><trkpt lat="45.0296667" lon="11.7492567"><ele>2.4285714285714284</ele><time>2026-03-22T08:11:33.164Z</time></trkpt><trkpt lat="45.0296283" lon="11.7491767"><ele>2.571428571428571</ele><time>2026-03-22T08:11:34.17Z</time></trkpt><trkpt lat="45.02959" lon="11.7490983"><ele>2.7142857142857144</ele><time>2026-03-22T08:11:35.169Z</time></trkpt><trkpt lat="45.0295567" lon="11.7490167"><ele>2.8571428571428568</ele><time>2026-03-22T08:11:36.166Z</time></trkpt><trkpt lat="45.029525" lon="11.7489333"><ele>3.0</ele><time>2026-03-22T08:11:37.169Z</time></trkpt><trkpt lat="45.0294967" lon="11.7488467"><ele>2.9999999999999996</ele><time>2026-03-22T08:11:38.171Z</time></trkpt><trkpt lat="45.0294717" lon="11.7487583"><ele>3.0</ele><time>2026-03-22T08:11:39.166Z</time></trkpt><trkpt lat="45.0294467" lon="11.748665"><ele>3.0</ele><time>2026-03-22T08:11:40.165Z</time></trkpt><trkpt lat="45.0294267" lon="11.74857"><ele>3.0</ele><time>2026-03-22T08:11:41.167Z</time></trkpt><trkpt lat="45.02941" lon="11.74847"><ele>3.0</ele><time>2026-03-22T08:11:42.166Z</time></trkpt><trkpt lat="45.0293933" lon="11.74837"><ele>2.9999999999999996</ele><time>2026-03-22T08:11:43.162Z</time></trkpt><trkpt lat="45.0293817" lon="11.7482717"><ele>3.0</ele><time>2026-03-22T08:11:44.168Z</time></trkpt><trkpt lat="45.0293667" lon="11.7481733"><ele>2.9999999999999996</ele><time>2026-03-22T08:11:45.168Z</time></trkpt><trkpt lat="45.0293517" lon="11.7480767"><ele>3.0</ele><time>2026-03-22T08:11:46.169Z</time></trkpt><trkpt lat="45.0293367" lon="11.7479833"><ele>3.0</ele><time>2026-03-22T08:11:47.164Z</time></trkpt><trkpt lat="45.0293233" lon="11.7478883"><ele>3.0</ele><time>2026-03-22T08:11:48.159Z</time></trkpt><trkpt lat="45.0293083" lon="11.7477917"><ele>3.0</ele><time>2026-03-22T08:11:49.166Z</time></trkpt><trkpt lat="45.0292933" lon="11.7476967"><ele>2.9999999999999996</ele><time>2026-03-22T08:11:50.168Z</time></trkpt><trkpt lat="45.029275" lon="11.7476"><ele>3.0</ele><time>2026-03-22T08:11:51.136Z</time></trkpt><trkpt lat="45.0292583" lon="11.7475067"><ele>3.1428571428571423</ele><time>2026-03-22T08:11:52.163Z</time></trkpt><trkpt lat="45.0292383" lon="11.7474133"><ele>3.2857142857142856</ele><time>2026-03-22T08:11:53.15Z</time></trkpt><trkpt lat="45.0292183" lon="11.7473217"><ele>3.4285714285714284</ele><time>2026-03-22T08:11:54.157Z</time></trkpt><trkpt lat="45.0291917" lon="11.747235"><ele>3.571428571428571</ele><time>2026-03-22T08:11:55.166Z</time></trkpt><trkpt lat="45.02916" lon="11.7471517"><ele>3.714285714285714</ele><time>2026-03-22T08:11:56.171Z</time></trkpt><trkpt lat="45.0291233" lon="11.747075"><ele>3.8571428571428568</ele><time>2026-03-22T08:11:57.168Z</time></trkpt><trkpt lat="45.02908" lon="11.7470083"><ele>4.0</ele><time>2026-03-22T08:11:58.168Z</time></trkpt><trkpt lat="45.02903" lon="11.74695"><ele>4.0</ele><time>2026-03-22T08:11:59.21Z</time></trkpt><trkpt lat="45.02893" lon="11.7468683"><ele>4.0</ele><time>2026-03-22T08:12:01.169Z</time></trkpt><trkpt lat="45.0288233" lon="11.7468133"><ele>4.0</ele><time>2026-03-22T08:12:03.167Z</time></trkpt><trkpt lat="45.0287117" lon="11.7467633"><ele>4.0</ele><time>2026-03-22T08:12:05.143Z</time></trkpt><trkpt lat="45.0285967" lon="11.74669"><ele>4.0</ele><time>2026-03-22T08:12:07.167Z</time></trkpt><trkpt lat="45.02854" lon="11.7466433"><ele>3.9999999999999996</ele><time>2026-03-22T08:12:08.165Z</time></trkpt><trkpt lat="45.0284883" lon="11.74659"><ele>4.0</ele><time>2026-03-22T08:12:09.165Z</time></trkpt><trkpt lat="45.0284333" lon="11.7465333"><ele>4.0</ele><time>2026-03-22T08:12:10.164Z</time></trkpt><trkpt lat="45.02838" lon="11.7464767"><ele>3.9999999999999996</ele><time>2026-03-22T08:12:11.168Z</time></trkpt><trkpt lat="45.028325" lon="11.7464183"><ele>4.0</ele><time>2026-03-22T08:12:12.161Z</time></trkpt><trkpt lat="45.0282667" lon="11.7463633"><ele>4.0</ele><time>2026-03-22T08:12:13.167Z</time></trkpt><trkpt lat="45.0282067" lon="11.7463183"><ele>4.166666666666666</ele><time>2026-03-22T08:12:14.169Z</time></trkpt><trkpt lat="45.028145" lon="11.7462833"><ele>4.333333333333333</ele><time>2026-03-22T08:12:15.156Z</time></trkpt><trkpt lat="45.02802" lon="11.746245"><ele>4.5</ele><time>2026-03-22T08:12:17.166Z</time></trkpt><trkpt lat="45.0279567" lon="11.7462367"><ele>4.666666666666667</ele><time>2026-03-22T08:12:18.164Z</time></trkpt><trkpt lat="45.0278933" lon="11.746235"><ele>4.833333333333334</ele><time>2026-03-22T08:12:19.167Z</time></trkpt><trkpt lat="45.0278267" lon="11.7462383"><ele>5.0</ele><time>2026-03-22T08:12:20.173Z</time></trkpt><trkpt lat="45.02776" lon="11.7462467"><ele>5.0</ele><time>2026-03-22T08:12:21.165Z</time></trkpt><trkpt lat="45.0276933" lon="11.7462583"><ele>5.0</ele><time>2026-03-22T08:12:22.159Z</time></trkpt><trkpt lat="45.027625" lon="11.746275"><ele>5.0</ele><time>2026-03-22T08:12:23.15Z</time></trkpt><trkpt lat="45.0275533" lon="11.74629"><ele>5.0</ele><time>2026-03-22T08:12:24.168Z</time></trkpt><trkpt lat="45.02748" lon="11.74631"><ele>5.0</ele><time>2026-03-22T08:12:25.165Z</time></trkpt><trkpt lat="45.0274083" lon="11.7463317"><ele>5.0</ele><time>2026-03-22T08:12:26.166Z</time></trkpt><trkpt lat="45.027335" lon="11.74636"><ele>5.0</ele><time>2026-03-22T08:12:27.167Z</time></trkpt><trkpt lat="45.0272633" lon="11.74639"><ele>4.714285714285714</ele><time>2026-03-22T08:12:28.167Z</time></trkpt><trkpt lat="45.0271917" lon="11.74642"><ele>4.428571428571429</ele><time>2026-03-22T08:12:29.159Z</time></trkpt><trkpt lat="45.0271217" lon="11.7464483"><ele>4.142857142857142</ele><time>2026-03-22T08:12:30.154Z</time></trkpt><trkpt lat="45.0270533" lon="11.746475"><ele>3.8571428571428568</ele><time>2026-03-22T08:12:31.169Z</time></trkpt><trkpt lat="45.0269867" lon="11.7465017"><ele>3.571428571428571</ele><time>2026-03-22T08:12:32.171Z</time></trkpt><trkpt lat="45.0269233" lon="11.7465267"><ele>3.2857142857142856</ele><time>2026-03-22T08:12:33.167Z</time></trkpt><trkpt lat="45.0268617" lon="11.7465517"><ele>3.0</ele><time>2026-03-22T08:12:34.165Z</time></trkpt><trkpt lat="45.0268" lon="11.746575"><ele>2.9999999999999996</ele><time>2026-03-22T08:12:35.168Z</time></trkpt><trkpt lat="45.026735" lon="11.7466"><ele>3.0</ele><time>2026-03-22T08:12:36.167Z</time></trkpt><trkpt lat="45.0266683" lon="11.7466267"><ele>3.0</ele><time>2026-03-22T08:12:37.167Z</time></trkpt><trkpt lat="45.0266033" lon="11.7466517"><ele>3.0</ele><time>2026-03-22T08:12:38.169Z</time></trkpt><trkpt lat="45.0265383" lon="11.7466767"><ele>3.0</ele><time>2026-03-22T08:12:39.167Z</time></trkpt><trkpt lat="45.026475" lon="11.7467017"><ele>2.9999999999999996</ele><time>2026-03-22T08:12:40.165Z</time></trkpt><trkpt lat="45.02641" lon="11.7467267"><ele>3.0</ele><time>2026-03-22T08:12:41.165Z</time></trkpt><trkpt lat="45.0263433" lon="11.746745"><ele>2.9999999999999996</ele><time>2026-03-22T08:12:42.166Z</time></trkpt><trkpt lat="45.02628" lon="11.7467633"><ele>3.0</ele><time>2026-03-22T08:12:43.168Z</time></trkpt><trkpt lat="45.0262167" lon="11.7467783"><ele>3.0</ele><time>2026-03-22T08:12:44.138Z</time></trkpt><trkpt lat="45.0261533" lon="11.74679"><ele>3.0</ele><time>2026-03-22T08:12:45.156Z</time></trkpt><trkpt lat="45.0260867" lon="11.7468"><ele>3.0</ele><time>2026-03-22T08:12:46.162Z</time></trkpt><trkpt lat="45.0260183" lon="11.7468067"><ele>2.9999999999999996</ele><time>2026-03-22T08:12:47.165Z</time></trkpt><trkpt lat="45.0259483" lon="11.74681"><ele>3.0</ele><time>2026-03-22T08:12:48.167Z</time></trkpt><trkpt lat="45.0258817" lon="11.7468083"><ele>2.9999999999999996</ele><time>2026-03-22T08:12:49.165Z</time></trkpt><trkpt lat="45.0258167" lon="11.7468"><ele>3.0</ele><time>2026-03-22T08:12:50.165Z</time></trkpt><trkpt lat="45.0257517" lon="11.7467867"><ele>3.0</ele><time>2026-03-22T08:12:51.163Z</time></trkpt><trkpt lat="45.0256867" lon="11.7467717"><ele>3.0</ele><time>2026-03-22T08:12:52.166Z</time></trkpt><trkpt lat="45.0256233" lon="11.7467583"><ele>3.0</ele><time>2026-03-22T08:12:53.159Z</time></trkpt><trkpt lat="45.0255583" lon="11.746745"><ele>2.9999999999999996</ele><time>2026-03-22T08:12:54.166Z</time></trkpt><trkpt lat="45.0254917" lon="11.74673"><ele>3.0</ele><time>2026-03-22T08:12:55.164Z</time></trkpt><trkpt lat="45.0254283" lon="11.746715"><ele>3.0</ele><time>2026-03-22T08:12:56.171Z</time></trkpt><trkpt lat="45.025365" lon="11.7467033"><ele>3.0</ele><time>2026-03-22T08:12:57.171Z</time></trkpt><trkpt lat="45.0253" lon="11.7466883"><ele>3.0</ele><time>2026-03-22T08:12:58.168Z</time></trkpt><trkpt lat="45.025235" lon="11.7466733"><ele>3.0</ele><time>2026-03-22T08:12:59.17Z</time></trkpt><trkpt lat="45.0251717" lon="11.74666"><ele>3.0</ele><time>2026-03-22T08:13:00.136Z</time></trkpt><trkpt lat="45.0250467" lon="11.7466283"><ele>3.0</ele><time>2026-03-22T08:13:02.164Z</time></trkpt><trkpt lat="45.02498" lon="11.746605"><ele>2.8571428571428568</ele><time>2026-03-22T08:13:03.169Z</time></trkpt><trkpt lat="45.0249117" lon="11.7465767"><ele>2.7142857142857144</ele><time>2026-03-22T08:13:04.166Z</time></trkpt><trkpt lat="45.024845" lon="11.7465383"><ele>2.571428571428571</ele><time>2026-03-22T08:13:05.17Z</time></trkpt><trkpt lat="45.02478" lon="11.746495"><ele>2.4285714285714284</ele><time>2026-03-22T08:13:06.143Z</time></trkpt><trkpt lat="45.0247183" lon="11.7464433"><ele>2.2857142857142856</ele><time>2026-03-22T08:13:07.156Z</time></trkpt><trkpt lat="45.0246617" lon="11.7463817"><ele>2.142857142857143</ele><time>2026-03-22T08:13:08.169Z</time></trkpt><trkpt lat="45.0246067" lon="11.7463117"><ele>2.0</ele><time>2026-03-22T08:13:09.168Z</time></trkpt><trkpt lat="45.0245567" lon="11.7462317"><ele>1.9999999999999998</ele><time>2026-03-22T08:13:10.168Z</time></trkpt><trkpt lat="45.0245117" lon="11.7461433"><ele>2.0</ele><time>2026-03-22T08:13:11.155Z</time></trkpt><trkpt lat="45.02447" lon="11.7460483"><ele>2.0</ele><time>2026-03-22T08:13:12.134Z</time></trkpt><trkpt lat="45.024435" lon="11.7459467"><ele>2.0</ele><time>2026-03-22T08:13:13.158Z</time></trkpt><trkpt lat="45.0244067" lon="11.7458383"><ele>1.9999999999999998</ele><time>2026-03-22T08:13:14.167Z</time></trkpt><trkpt lat="45.024385" lon="11.745725"><ele>2.0</ele><time>2026-03-22T08:13:15.172Z</time></trkpt><trkpt lat="45.02437" lon="11.7456083"><ele>1.9999999999999998</ele><time>2026-03-22T08:13:16.142Z</time></trkpt><trkpt lat="45.0243583" lon="11.7454933"><ele>2.0</ele><time>2026-03-22T08:13:17.16Z</time></trkpt><trkpt lat="45.0243467" lon="11.7453833"><ele>2.0</ele><time>2026-03-22T08:13:18.165Z</time></trkpt><trkpt lat="45.0243367" lon="11.7452783"><ele>2.0</ele><time>2026-03-22T08:13:19.162Z</time></trkpt><trkpt lat="45.0243283" lon="11.7451717"><ele>1.9999999999999998</ele><time>2026-03-22T08:13:20.16Z</time></trkpt><trkpt lat="45.0243217" lon="11.745065"><ele>2.0</ele><time>2026-03-22T08:13:21.167Z</time></trkpt><trkpt lat="45.0243133" lon="11.7449583"><ele>1.9999999999999998</ele><time>2026-03-22T08:13:22.166Z</time></trkpt><trkpt lat="45.024305" lon="11.7448583"><ele>2.0</ele><time>2026-03-22T08:13:23.166Z</time></trkpt><trkpt lat="45.0242967" lon="11.744765"><ele>2.0</ele><time>2026-03-22T08:13:24.168Z</time></trkpt><trkpt lat="45.0242867" lon="11.7446767"><ele>2.0</ele><time>2026-03-22T08:13:25.167Z</time></trkpt><trkpt lat="45.024265" lon="11.744505"><ele>1.9999999999999998</ele><time>2026-03-22T08:13:27.166Z</time></trkpt><trkpt lat="45.0242283" lon="11.7443417"><ele>2.0</ele><time>2026-03-22T08:13:29.168Z</time></trkpt><trkpt lat="45.0242" lon="11.74426"><ele>1.9999999999999998</ele><time>2026-03-22T08:13:30.168Z</time></trkpt><trkpt lat="45.02417" lon="11.7441783"><ele>2.0</ele><time>2026-03-22T08:13:31.169Z</time></trkpt><trkpt lat="45.0241133" lon="11.74402"><ele>2.0</ele><time>2026-03-22T08:13:33.15Z</time></trkpt><trkpt lat="45.024085" lon="11.74394"><ele>2.0</ele><time>2026-03-22T08:13:34.165Z</time></trkpt><trkpt lat="45.0240533" lon="11.7438617"><ele>1.9999999999999998</ele><time>2026-03-22T08:13:35.167Z</time></trkpt><trkpt lat="45.0240167" lon="11.7437817"><ele>2.0</ele><time>2026-03-22T08:13:36.17Z</time></trkpt><trkpt lat="45.0239767" lon="11.7437033"><ele>2.142857142857143</ele><time>2026-03-22T08:13:37.169Z</time></trkpt><trkpt lat="45.023935" lon="11.7436283"><ele>2.2857142857142856</ele><time>2026-03-22T08:13:38.167Z</time></trkpt><trkpt lat="45.0238883" lon="11.7435567"><ele>2.4285714285714284</ele><time>2026-03-22T08:13:39.168Z</time></trkpt><trkpt lat="45.0238367" lon="11.7434883"><ele>2.571428571428571</ele><time>2026-03-22T08:13:40.169Z</time></trkpt><trkpt lat="45.0237833" lon="11.7434267"><ele>2.7142857142857144</ele><time>2026-03-22T08:13:41.159Z</time></trkpt><trkpt lat="45.023725" lon="11.743375"><ele>2.8571428571428568</ele><time>2026-03-22T08:13:42.161Z</time></trkpt><trkpt lat="45.0236667" lon="11.7433283"><ele>3.0</ele><time>2026-03-22T08:13:43.161Z</time></trkpt><trkpt lat="45.023605" lon="11.7432883"><ele>3.0</ele><time>2026-03-22T08:13:44.166Z</time></trkpt><trkpt lat="45.023545" lon="11.7432517"><ele>3.0</ele><time>2026-03-22T08:13:45.165Z</time></trkpt><trkpt lat="45.023485" lon="11.7432183"><ele>3.0</ele><time>2026-03-22T08:13:46.167Z</time></trkpt><trkpt lat="45.0233717" lon="11.7431567"><ele>3.0</ele><time>2026-03-22T08:13:48.144Z</time></trkpt><trkpt lat="45.02326" lon="11.743085"><ele>3.0</ele><time>2026-03-22T08:13:50.157Z</time></trkpt><trkpt lat="45.0232017" lon="11.74305"><ele>3.0</ele><time>2026-03-22T08:13:51.164Z</time></trkpt><trkpt lat="45.02309" lon="11.74298"><ele>2.9999999999999996</ele><time>2026-03-22T08:13:53.159Z</time></trkpt><trkpt lat="45.02303" lon="11.742945"><ele>3.0</ele><time>2026-03-22T08:13:54.165Z</time></trkpt><trkpt lat="45.0229683" lon="11.74291"><ele>3.0</ele><time>2026-03-22T08:13:55.167Z</time></trkpt><trkpt lat="45.022905" lon="11.7428733"><ele>3.0</ele><time>2026-03-22T08:13:56.169Z</time></trkpt><trkpt lat="45.02284" lon="11.7428367"><ele>3.0</ele><time>2026-03-22T08:13:57.167Z</time></trkpt><trkpt lat="45.0227733" lon="11.7428"><ele>2.9999999999999996</ele><time>2026-03-22T08:13:58.17Z</time></trkpt><trkpt lat="45.0227067" lon="11.7427633"><ele>3.0</ele><time>2026-03-22T08:13:59.155Z</time></trkpt><trkpt lat="45.02264" lon="11.742725"><ele>2.9999999999999996</ele><time>2026-03-22T08:14:00.16Z</time></trkpt><trkpt lat="45.022575" lon="11.7426867"><ele>3.0</ele><time>2026-03-22T08:14:01.161Z</time></trkpt><trkpt lat="45.022515" lon="11.7426483"><ele>3.0</ele><time>2026-03-22T08:14:02.156Z</time></trkpt><trkpt lat="45.0224533" lon="11.7426117"><ele>3.0</ele><time>2026-03-22T08:14:03.147Z</time></trkpt><trkpt lat="45.0223917" lon="11.742575"><ele>3.0</ele><time>2026-03-22T08:14:04.148Z</time></trkpt><trkpt lat="45.02233" lon="11.7425383"><ele>2.9999999999999996</ele><time>2026-03-22T08:14:05.159Z</time></trkpt><trkpt lat="45.0222683" lon="11.742505"><ele>3.0</ele><time>2026-03-22T08:14:06.166Z</time></trkpt><trkpt lat="45.0222083" lon="11.7424717"><ele>3.0</ele><time>2026-03-22T08:14:07.147Z</time></trkpt><trkpt lat="45.0220917" lon="11.7424117"><ele>3.0</ele><time>2026-03-22T08:14:09.162Z</time></trkpt><trkpt lat="45.0220317" lon="11.74238"><ele>3.0</ele><time>2026-03-22T08:14:10.16Z</time></trkpt><trkpt lat="45.0219717" lon="11.742345"><ele>3.0</ele><time>2026-03-22T08:14:11.17Z</time></trkpt><trkpt lat="45.0219117" lon="11.7423117"><ele>3.0</ele><time>2026-03-22T08:14:12.176Z</time></trkpt><trkpt lat="45.02185" lon="11.7422783"><ele>3.0</ele><time>2026-03-22T08:14:13.166Z</time></trkpt><trkpt lat="45.0217883" lon="11.7422417"><ele>2.9999999999999996</ele><time>2026-03-22T08:14:14.169Z</time></trkpt><trkpt lat="45.0217267" lon="11.742205"><ele>3.0</ele><time>2026-03-22T08:14:15.167Z</time></trkpt><trkpt lat="45.021665" lon="11.7421733"><ele>3.0</ele><time>2026-03-22T08:14:16.17Z</time></trkpt><trkpt lat="45.0216017" lon="11.7421433"><ele>3.0</ele><time>2026-03-22T08:14:17.169Z</time></trkpt><trkpt lat="45.0215367" lon="11.7421117"><ele>3.0</ele><time>2026-03-22T08:14:18.161Z</time></trkpt><trkpt lat="45.0214717" lon="11.74208"><ele>2.9999999999999996</ele><time>2026-03-22T08:14:19.167Z</time></trkpt><trkpt lat="45.021405" lon="11.74205"><ele>3.0</ele><time>2026-03-22T08:14:20.166Z</time></trkpt><trkpt lat="45.0213383" lon="11.7420217"><ele>3.1428571428571423</ele><time>2026-03-22T08:14:21.167Z</time></trkpt><trkpt lat="45.0212717" lon="11.7419933"><ele>3.2857142857142856</ele><time>2026-03-22T08:14:22.168Z</time></trkpt><trkpt lat="45.021205" lon="11.7419683"><ele>3.4285714285714284</ele><time>2026-03-22T08:14:23.167Z</time></trkpt><trkpt lat="45.0211383" lon="11.7419467"><ele>3.571428571428571</ele><time>2026-03-22T08:14:24.162Z</time></trkpt><trkpt lat="45.0210717" lon="11.741925"><ele>3.714285714285714</ele><time>2026-03-22T08:14:25.159Z</time></trkpt><trkpt lat="45.021005" lon="11.7419067"><ele>3.8571428571428568</ele><time>2026-03-22T08:14:26.171Z</time></trkpt><trkpt lat="45.0209383" lon="11.7418867"><ele>4.0</ele><time>2026-03-22T08:14:27.171Z</time></trkpt><trkpt lat="45.02087" lon="11.7418667"><ele>4.0</ele><time>2026-03-22T08:14:28.167Z</time></trkpt><trkpt lat="45.0208" lon="11.7418483"><ele>3.9999999999999996</ele><time>2026-03-22T08:14:29.168Z</time></trkpt><trkpt lat="45.0207317" lon="11.74183"><ele>4.0</ele><time>2026-03-22T08:14:30.148Z</time></trkpt><trkpt lat="45.0206617" lon="11.74181"><ele>4.0</ele><time>2026-03-22T08:14:31.16Z</time></trkpt><trkpt lat="45.0205933" lon="11.74179"><ele>3.9999999999999996</ele><time>2026-03-22T08:14:32.169Z</time></trkpt><trkpt lat="45.0205233" lon="11.7417683"><ele>4.0</ele><time>2026-03-22T08:14:33.165Z</time></trkpt><trkpt lat="45.0204517" lon="11.7417483"><ele>4.0</ele><time>2026-03-22T08:14:34.156Z</time></trkpt><trkpt lat="45.0203833" lon="11.741725"><ele>4.0</ele><time>2026-03-22T08:14:35.156Z</time></trkpt><trkpt lat="45.0203117" lon="11.7417067"><ele>3.9999999999999996</ele><time>2026-03-22T08:14:36.16Z</time></trkpt><trkpt lat="45.0202417" lon="11.74169"><ele>4.0</ele><time>2026-03-22T08:14:37.16Z</time></trkpt><trkpt lat="45.0201733" lon="11.7416733"><ele>4.0</ele><time>2026-03-22T08:14:38.172Z</time></trkpt><trkpt lat="45.0201033" lon="11.74166"><ele>3.9999999999999996</ele><time>2026-03-22T08:14:39.169Z</time></trkpt><trkpt lat="45.02003" lon="11.7416483"><ele>4.0</ele><time>2026-03-22T08:14:40.168Z</time></trkpt><trkpt lat="45.0199583" lon="11.7416367"><ele>4.0</ele><time>2026-03-22T08:14:41.136Z</time></trkpt><trkpt lat="45.0198833" lon="11.7416233"><ele>4.0</ele><time>2026-03-22T08:14:42.175Z</time></trkpt><trkpt lat="45.0198083" lon="11.7416067"><ele>3.9999999999999996</ele><time>2026-03-22T08:14:43.161Z</time></trkpt><trkpt lat="45.019735" lon="11.7415917"><ele>4.0</ele><time>2026-03-22T08:14:44.161Z</time></trkpt><trkpt lat="45.0196617" lon="11.741575"><ele>4.0</ele><time>2026-03-22T08:14:45.164Z</time></trkpt><trkpt lat="45.0195883" lon="11.7415567"><ele>3.9999999999999996</ele><time>2026-03-22T08:14:46.167Z</time></trkpt><trkpt lat="45.019515" lon="11.7415433"><ele>4.0</ele><time>2026-03-22T08:14:47.167Z</time></trkpt><trkpt lat="45.0194417" lon="11.7415283"><ele>4.0</ele><time>2026-03-22T08:14:48.162Z</time></trkpt><trkpt lat="45.01937" lon="11.7415167"><ele>4.0</ele><time>2026-03-22T08:14:49.159Z</time></trkpt><trkpt lat="45.0192967" lon="11.741505"><ele>3.9999999999999996</ele><time>2026-03-22T08:14:50.169Z</time></trkpt><trkpt lat="45.0192267" lon="11.7414917"><ele>4.0</ele><time>2026-03-22T08:14:51.166Z</time></trkpt><trkpt lat="45.019155" lon="11.7414767"><ele>4.0</ele><time>2026-03-22T08:14:52.169Z</time></trkpt><trkpt lat="45.0190833" lon="11.74146"><ele>3.9999999999999996</ele><time>2026-03-22T08:14:53.164Z</time></trkpt><trkpt lat="45.0190133" lon="11.741445"><ele>4.0</ele><time>2026-03-22T08:14:54.166Z</time></trkpt><trkpt lat="45.0189417" lon="11.7414317"><ele>4.0</ele><time>2026-03-22T08:14:55.166Z</time></trkpt><trkpt lat="45.0188717" lon="11.74142"><ele>4.142857142857142</ele><time>2026-03-22T08:14:56.169Z</time></trkpt><trkpt lat="45.0188017" lon="11.7414067"><ele>4.285714285714286</ele><time>2026-03-22T08:14:57.166Z</time></trkpt><trkpt lat="45.0187333" lon="11.74139"><ele>4.428571428571429</ele><time>2026-03-22T08:14:58.159Z</time></trkpt><trkpt lat="45.0186633" lon="11.7413783"><ele>4.571428571428571</ele><time>2026-03-22T08:14:59.164Z</time></trkpt><trkpt lat="45.0185933" lon="11.7413667"><ele>4.714285714285714</ele><time>2026-03-22T08:15:00.169Z</time></trkpt><trkpt lat="45.018525" lon="11.741355"><ele>4.857142857142857</ele><time>2026-03-22T08:15:01.163Z</time></trkpt><trkpt lat="45.0184583" lon="11.7413433"><ele>5.0</ele><time>2026-03-22T08:15:02.145Z</time></trkpt><trkpt lat="45.01839" lon="11.7413333"><ele>5.0</ele><time>2026-03-22T08:15:03.155Z</time></trkpt><trkpt lat="45.0183217" lon="11.7413217"><ele>5.0</ele><time>2026-03-22T08:15:04.169Z</time></trkpt><trkpt lat="45.0182567" lon="11.7413117"><ele>5.0</ele><time>2026-03-22T08:15:05.166Z</time></trkpt><trkpt lat="45.01819" lon="11.7413"><ele>5.0</ele><time>2026-03-22T08:15:06.17Z</time></trkpt><trkpt lat="45.0181233" lon="11.74129"><ele>5.0</ele><time>2026-03-22T08:15:07.168Z</time></trkpt><trkpt lat="45.0180517" lon="11.7412783"><ele>5.0</ele><time>2026-03-22T08:15:08.165Z</time></trkpt><trkpt lat="45.01798" lon="11.7412667"><ele>5.0</ele><time>2026-03-22T08:15:09.169Z</time></trkpt><trkpt lat="45.0179083" lon="11.7412517"><ele>4.666666666666667</ele><time>2026-03-22T08:15:10.17Z</time></trkpt><trkpt lat="45.017835" lon="11.7412367"><ele>4.333333333333334</ele><time>2026-03-22T08:15:11.169Z</time></trkpt><trkpt lat="45.017765" lon="11.7412217"><ele>4.0</ele><time>2026-03-22T08:15:12.167Z</time></trkpt><trkpt lat="45.0176917" lon="11.74121"><ele>3.666666666666667</ele><time>2026-03-22T08:15:13.147Z</time></trkpt><trkpt lat="45.017615" lon="11.7411983"><ele>3.3333333333333335</ele><time>2026-03-22T08:15:14.152Z</time></trkpt><trkpt lat="45.0175383" lon="11.7411883"><ele>3.0</ele><time>2026-03-22T08:15:15.16Z</time></trkpt><trkpt lat="45.0174617" lon="11.74118"><ele>3.0</ele><time>2026-03-22T08:15:16.166Z</time></trkpt><trkpt lat="45.017385" lon="11.741175"><ele>3.0</ele><time>2026-03-22T08:15:17.158Z</time></trkpt><trkpt lat="45.0173083" lon="11.74117"><ele>3.0</ele><time>2026-03-22T08:15:18.166Z</time></trkpt><trkpt lat="45.01723" lon="11.74117"><ele>3.0</ele><time>2026-03-22T08:15:19.161Z</time></trkpt><trkpt lat="45.0171533" lon="11.7411667"><ele>3.0</ele><time>2026-03-22T08:15:20.165Z</time></trkpt><trkpt lat="45.0170733" lon="11.741165"><ele>3.0</ele><time>2026-03-22T08:15:21.167Z</time></trkpt><trkpt lat="45.0169967" lon="11.741165"><ele>3.0</ele><time>2026-03-22T08:15:22.164Z</time></trkpt><trkpt lat="45.01692" lon="11.741165"><ele>3.0</ele><time>2026-03-22T08:15:23.166Z</time></trkpt><trkpt lat="45.0168433" lon="11.7411633"><ele>3.0</ele><time>2026-03-22T08:15:24.161Z</time></trkpt><trkpt lat="45.0167683" lon="11.7411617"><ele>3.0</ele><time>2026-03-22T08:15:25.164Z</time></trkpt><trkpt lat="45.0166933" lon="11.7411633"><ele>3.0</ele><time>2026-03-22T08:15:26.167Z</time></trkpt><trkpt lat="45.0166183" lon="11.741165"><ele>3.0</ele><time>2026-03-22T08:15:27.159Z</time></trkpt><trkpt lat="45.0165417" lon="11.7411667"><ele>3.0</ele><time>2026-03-22T08:15:28.165Z</time></trkpt><trkpt lat="45.0164667" lon="11.74117"><ele>3.0</ele><time>2026-03-22T08:15:29.167Z</time></trkpt><trkpt lat="45.01639" lon="11.7411717"><ele>3.0</ele><time>2026-03-22T08:15:30.166Z</time></trkpt><trkpt lat="45.0163133" lon="11.7411717"><ele>3.0</ele><time>2026-03-22T08:15:31.166Z</time></trkpt><trkpt lat="45.0162367" lon="11.741175"><ele>3.0</ele><time>2026-03-22T08:15:32.171Z</time></trkpt><trkpt lat="45.0161617" lon="11.74118"><ele>3.0</ele><time>2026-03-22T08:15:33.167Z</time></trkpt><trkpt lat="45.016085" lon="11.7411833"><ele>3.0</ele><time>2026-03-22T08:15:34.152Z</time></trkpt><trkpt lat="45.0160083" lon="11.741185"><ele>3.0</ele><time>2026-03-22T08:15:35.165Z</time></trkpt><trkpt lat="45.0159317" lon="11.7411883"><ele>3.0</ele><time>2026-03-22T08:15:36.166Z</time></trkpt><trkpt lat="45.015855" lon="11.74119"><ele>3.0</ele><time>2026-03-22T08:15:37.17Z</time></trkpt><trkpt lat="45.0157817" lon="11.7411933"><ele>3.0</ele><time>2026-03-22T08:15:38.169Z</time></trkpt><trkpt lat="45.0157083" lon="11.7411983"><ele>3.0</ele><time>2026-03-22T08:15:39.166Z</time></trkpt><trkpt lat="45.015635" lon="11.7412033"><ele>2.9999999999999996</ele><time>2026-03-22T08:15:40.157Z</time></trkpt><trkpt lat="45.0155633" lon="11.74121"><ele>3.0</ele><time>2026-03-22T08:15:41.162Z</time></trkpt><trkpt lat="45.0154933" lon="11.7412133"><ele>3.0</ele><time>2026-03-22T08:15:42.17Z</time></trkpt><trkpt lat="45.0154217" lon="11.74122"><ele>3.0</ele><time>2026-03-22T08:15:43.169Z</time></trkpt><trkpt lat="45.0153483" lon="11.741235"><ele>3.0</ele><time>2026-03-22T08:15:44.158Z</time></trkpt><trkpt lat="45.015275" lon="11.7412483"><ele>2.9999999999999996</ele><time>2026-03-22T08:15:45.146Z</time></trkpt><trkpt lat="45.0152033" lon="11.7412633"><ele>3.0</ele><time>2026-03-22T08:15:46.157Z</time></trkpt><trkpt lat="45.0151333" lon="11.7412783"><ele>2.9999999999999996</ele><time>2026-03-22T08:15:47.169Z</time></trkpt><trkpt lat="45.0150667" lon="11.7412967"><ele>3.0</ele><time>2026-03-22T08:15:48.157Z</time></trkpt><trkpt lat="45.0149983" lon="11.741315"><ele>3.0</ele><time>2026-03-22T08:15:49.163Z</time></trkpt><trkpt lat="45.0149317" lon="11.7413333"><ele>3.0</ele><time>2026-03-22T08:15:50.162Z</time></trkpt><trkpt lat="45.014865" lon="11.741355"><ele>3.0</ele><time>2026-03-22T08:15:51.164Z</time></trkpt><trkpt lat="45.0147967" lon="11.7413767"><ele>2.9999999999999996</ele><time>2026-03-22T08:15:52.164Z</time></trkpt><trkpt lat="45.0147267" lon="11.7414"><ele>3.0</ele><time>2026-03-22T08:15:53.152Z</time></trkpt><trkpt lat="45.01466" lon="11.7414233"><ele>2.9999999999999996</ele><time>2026-03-22T08:15:54.155Z</time></trkpt><trkpt lat="45.01459" lon="11.7414467"><ele>3.0</ele><time>2026-03-22T08:15:55.167Z</time></trkpt><trkpt lat="45.01452" lon="11.74147"><ele>3.0</ele><time>2026-03-22T08:15:56.162Z</time></trkpt><trkpt lat="45.01445" lon="11.7414933"><ele>3.0</ele><time>2026-03-22T08:15:57.164Z</time></trkpt><trkpt lat="45.01438" lon="11.7415183"><ele>3.0</ele><time>2026-03-22T08:15:58.166Z</time></trkpt><trkpt lat="45.01431" lon="11.7415417"><ele>2.9999999999999996</ele><time>2026-03-22T08:15:59.167Z</time></trkpt><trkpt lat="45.01424" lon="11.7415633"><ele>3.0</ele><time>2026-03-22T08:16:00.169Z</time></trkpt><trkpt lat="45.0141717" lon="11.741585"><ele>3.2857142857142856</ele><time>2026-03-22T08:16:01.169Z</time></trkpt><trkpt lat="45.0141017" lon="11.7416033"><ele>3.571428571428571</ele><time>2026-03-22T08:16:02.168Z</time></trkpt><trkpt lat="45.0140333" lon="11.74162"><ele>3.8571428571428568</ele><time>2026-03-22T08:16:03.169Z</time></trkpt><trkpt lat="45.013965" lon="11.7416367"><ele>4.142857142857142</ele><time>2026-03-22T08:16:04.169Z</time></trkpt><trkpt lat="45.0138983" lon="11.74165"><ele>4.428571428571429</ele><time>2026-03-22T08:16:05.172Z</time></trkpt><trkpt lat="45.013835" lon="11.74166"><ele>4.714285714285714</ele><time>2026-03-22T08:16:06.158Z</time></trkpt><trkpt lat="45.01377" lon="11.74167"><ele>5.0</ele><time>2026-03-22T08:16:07.168Z</time></trkpt><trkpt lat="45.013705" lon="11.741675"><ele>5.0</ele><time>2026-03-22T08:16:08.168Z</time></trkpt><trkpt lat="45.0136417" lon="11.74168"><ele>5.0</ele><time>2026-03-22T08:16:09.169Z</time></trkpt><trkpt lat="45.0135767" lon="11.7416817"><ele>5.0</ele><time>2026-03-22T08:16:10.159Z</time></trkpt><trkpt lat="45.0135083" lon="11.7416817"><ele>5.0</ele><time>2026-03-22T08:16:11.147Z</time></trkpt><trkpt lat="45.0134417" lon="11.74168"><ele>5.0</ele><time>2026-03-22T08:16:12.161Z</time></trkpt><trkpt lat="45.0133767" lon="11.7416767"><ele>5.0</ele><time>2026-03-22T08:16:13.147Z</time></trkpt><trkpt lat="45.01331" lon="11.7416717"><ele>5.0</ele><time>2026-03-22T08:16:14.159Z</time></trkpt><trkpt lat="45.0131867" lon="11.7416567"><ele>5.2</ele><time>2026-03-22T08:16:16.169Z</time></trkpt><trkpt lat="45.0130633" lon="11.7416467"><ele>5.4</ele><time>2026-03-22T08:16:18.154Z</time></trkpt><trkpt lat="45.01295" lon="11.7416383"><ele>5.6</ele><time>2026-03-22T08:16:20.162Z</time></trkpt><trkpt lat="45.0128283" lon="11.7416383"><ele>5.8</ele><time>2026-03-22T08:16:22.165Z</time></trkpt><trkpt lat="45.012765" lon="11.74164"><ele>6.0</ele><time>2026-03-22T08:16:23.163Z</time></trkpt><trkpt lat="45.0127017" lon="11.741645"><ele>6.0</ele><time>2026-03-22T08:16:24.165Z</time></trkpt><trkpt lat="45.0125833" lon="11.7416733"><ele>6.0</ele><time>2026-03-22T08:16:26.168Z</time></trkpt><trkpt lat="45.0124717" lon="11.7417283"><ele>6.0</ele><time>2026-03-22T08:16:28.133Z</time></trkpt><trkpt lat="45.012375" lon="11.741795"><ele>6.0</ele><time>2026-03-22T08:16:30.167Z</time></trkpt><trkpt lat="45.0122833" lon="11.7418317"><ele>6.0</ele><time>2026-03-22T08:16:32.17Z</time></trkpt><trkpt lat="45.012175" lon="11.7418467"><ele>6.0</ele><time>2026-03-22T08:16:34.168Z</time></trkpt><trkpt lat="45.0120617" lon="11.7418783"><ele>6.0</ele><time>2026-03-22T08:16:36.157Z</time></trkpt><trkpt lat="45.0119417" lon="11.7418983"><ele>6.0</ele><time>2026-03-22T08:16:38.164Z</time></trkpt><trkpt lat="45.01182" lon="11.74188"><ele>6.0</ele><time>2026-03-22T08:16:40.136Z</time></trkpt><trkpt lat="45.0117583" lon="11.7418567"><ele>6.0</ele><time>2026-03-22T08:16:41.157Z</time></trkpt><trkpt lat="45.0116983" lon="11.741825"><ele>6.166666666666667</ele><time>2026-03-22T08:16:42.165Z</time></trkpt><trkpt lat="45.01164" lon="11.7417883"><ele>6.333333333333334</ele><time>2026-03-22T08:16:43.141Z</time></trkpt><trkpt lat="45.0115283" lon="11.741695"><ele>6.5</ele><time>2026-03-22T08:16:45.165Z</time></trkpt><trkpt lat="45.0114683" lon="11.74165"><ele>6.666666666666667</ele><time>2026-03-22T08:16:46.164Z</time></trkpt><trkpt lat="45.011405" lon="11.7416117"><ele>6.833333333333334</ele><time>2026-03-22T08:16:47.16Z</time></trkpt><trkpt lat="45.011345" lon="11.7415783"><ele>7.0</ele><time>2026-03-22T08:16:48.163Z</time></trkpt><trkpt lat="45.0112833" lon="11.7415517"><ele>7.0</ele><time>2026-03-22T08:16:49.163Z</time></trkpt><trkpt lat="45.0111667" lon="11.7415017"><ele>7.0</ele><time>2026-03-22T08:16:51.161Z</time></trkpt><trkpt lat="45.0110533" lon="11.741455"><ele>7.0</ele><time>2026-03-22T08:16:53.147Z</time></trkpt><trkpt lat="45.0109417" lon="11.7414083"><ele>7.0</ele><time>2026-03-22T08:16:55.164Z</time></trkpt><trkpt lat="45.010835" lon="11.741355"><ele>7.166666666666667</ele><time>2026-03-22T08:16:57.164Z</time></trkpt><trkpt lat="45.01073" lon="11.7412917"><ele>7.333333333333334</ele><time>2026-03-22T08:16:59.138Z</time></trkpt><trkpt lat="45.01065" lon="11.7412183"><ele>7.5</ele><time>2026-03-22T08:17:01.163Z</time></trkpt><trkpt lat="45.0105883" lon="11.7411467"><ele>7.666666666666666</ele><time>2026-03-22T08:17:03.163Z</time></trkpt><trkpt lat="45.01053" lon="11.7410933"><ele>7.833333333333333</ele><time>2026-03-22T08:17:05.163Z</time></trkpt><trkpt lat="45.0104733" lon="11.741035"><ele>8.0</ele><time>2026-03-22T08:17:07.168Z</time></trkpt><trkpt lat="45.0104217" lon="11.74096"><ele>7.999999999999999</ele><time>2026-03-22T08:17:09.163Z</time></trkpt><trkpt lat="45.0103483" lon="11.7408917"><ele>8.0</ele><time>2026-03-22T08:17:11.156Z</time></trkpt><trkpt lat="45.0102733" lon="11.7408267"><ele>8.0</ele><time>2026-03-22T08:17:13.143Z</time></trkpt><trkpt lat="45.0102117" lon="11.74076"><ele>8.0</ele><time>2026-03-22T08:17:15.146Z</time></trkpt><trkpt lat="45.0101633" lon="11.7406833"><ele>7.999999999999999</ele><time>2026-03-22T08:17:17.164Z</time></trkpt><trkpt lat="45.0101067" lon="11.7406133"><ele>8.0</ele><time>2026-03-22T08:17:19.156Z</time></trkpt><trkpt lat="45.01002" lon="11.740595"><ele>7.6000000000000005</ele><time>2026-03-22T08:17:21.147Z</time></trkpt><trkpt lat="45.0099367" lon="11.7406583"><ele>7.200000000000001</ele><time>2026-03-22T08:17:23.156Z</time></trkpt><trkpt lat="45.0098467" lon="11.7407567"><ele>6.8</ele><time>2026-03-22T08:17:25.168Z</time></trkpt><trkpt lat="45.00975" lon="11.740875"><ele>6.4</ele><time>2026-03-22T08:17:27.166Z</time></trkpt><trkpt lat="45.0096967" lon="11.7409417"><ele>6.0</ele><time>2026-03-22T08:17:28.155Z</time></trkpt><trkpt lat="45.0096433" lon="11.7410117"><ele>6.142857142857142</ele><time>2026-03-22T08:17:29.161Z</time></trkpt><trkpt lat="45.0095883" lon="11.7410817"><ele>6.285714285714286</ele><time>2026-03-22T08:17:30.165Z</time></trkpt><trkpt lat="45.0095367" lon="11.74115"><ele>6.428571428571429</ele><time>2026-03-22T08:17:31.146Z</time></trkpt><trkpt lat="45.009485" lon="11.7412217"><ele>6.571428571428571</ele><time>2026-03-22T08:17:32.162Z</time></trkpt><trkpt lat="45.0094267" lon="11.741285"><ele>6.714285714285714</ele><time>2026-03-22T08:17:33.165Z</time></trkpt><trkpt lat="45.0093667" lon="11.7413367"><ele>6.857142857142857</ele><time>2026-03-22T08:17:34.164Z</time></trkpt><trkpt lat="45.0093067" lon="11.74138"><ele>7.0</ele><time>2026-03-22T08:17:35.165Z</time></trkpt><trkpt lat="45.00924" lon="11.7414133"><ele>7.0</ele><time>2026-03-22T08:17:36.162Z</time></trkpt><trkpt lat="45.0091717" lon="11.7414383"><ele>7.0</ele><time>2026-03-22T08:17:37.167Z</time></trkpt><trkpt lat="45.0090967" lon="11.7414567"><ele>7.0</ele><time>2026-03-22T08:17:38.169Z</time></trkpt><trkpt lat="45.0090217" lon="11.741465"><ele>7.0</ele><time>2026-03-22T08:17:39.164Z</time></trkpt><trkpt lat="45.0089517" lon="11.7414533"><ele>7.0</ele><time>2026-03-22T08:17:40.142Z</time></trkpt><trkpt lat="45.0088817" lon="11.7414333"><ele>7.0</ele><time>2026-03-22T08:17:41.157Z</time></trkpt><trkpt lat="45.0088133" lon="11.7414067"><ele>7.0</ele><time>2026-03-22T08:17:42.164Z</time></trkpt><trkpt lat="45.008745" lon="11.7413783"><ele>6.857142857142857</ele><time>2026-03-22T08:17:43.163Z</time></trkpt><trkpt lat="45.0086783" lon="11.741345"><ele>6.714285714285714</ele><time>2026-03-22T08:17:44.164Z</time></trkpt><trkpt lat="45.00861" lon="11.7413133"><ele>6.571428571428571</ele><time>2026-03-22T08:17:45.156Z</time></trkpt><trkpt lat="45.00854" lon="11.7412733"><ele>6.428571428571429</ele><time>2026-03-22T08:17:46.164Z</time></trkpt><trkpt lat="45.0084683" lon="11.7412333"><ele>6.285714285714286</ele><time>2026-03-22T08:17:47.15Z</time></trkpt><trkpt lat="45.0083983" lon="11.7411917"><ele>6.142857142857142</ele><time>2026-03-22T08:17:48.151Z</time></trkpt><trkpt lat="45.0083283" lon="11.7411517"><ele>6.0</ele><time>2026-03-22T08:17:49.163Z</time></trkpt><trkpt lat="45.0082567" lon="11.741115"><ele>5.833333333333333</ele><time>2026-03-22T08:17:50.165Z</time></trkpt><trkpt lat="45.0081833" lon="11.7410733"><ele>5.666666666666667</ele><time>2026-03-22T08:17:51.165Z</time></trkpt><trkpt lat="45.0081117" lon="11.7410317"><ele>5.5</ele><time>2026-03-22T08:17:52.154Z</time></trkpt><trkpt lat="45.0080367" lon="11.7409917"><ele>5.333333333333334</ele><time>2026-03-22T08:17:53.133Z</time></trkpt><trkpt lat="45.0079633" lon="11.740955"><ele>5.166666666666667</ele><time>2026-03-22T08:17:54.159Z</time></trkpt><trkpt lat="45.00789" lon="11.7409233"><ele>5.0</ele><time>2026-03-22T08:17:55.168Z</time></trkpt><trkpt lat="45.0078183" lon="11.7409"><ele>5.0</ele><time>2026-03-22T08:17:56.165Z</time></trkpt><trkpt lat="45.0077467" lon="11.74089"><ele>5.0</ele><time>2026-03-22T08:17:57.163Z</time></trkpt><trkpt lat="45.0076733" lon="11.7408917"><ele>5.0</ele><time>2026-03-22T08:17:58.167Z</time></trkpt><trkpt lat="45.0076" lon="11.7409067"><ele>5.0</ele><time>2026-03-22T08:17:59.17Z</time></trkpt><trkpt lat="45.0075317" lon="11.7409233"><ele>5.0</ele><time>2026-03-22T08:18:00.168Z</time></trkpt><trkpt lat="45.0074633" lon="11.74094"><ele>5.0</ele><time>2026-03-22T08:18:01.167Z</time></trkpt><trkpt lat="45.007395" lon="11.7409617"><ele>5.0</ele><time>2026-03-22T08:18:02.168Z</time></trkpt><trkpt lat="45.0073267" lon="11.7409817"><ele>5.0</ele><time>2026-03-22T08:18:03.163Z</time></trkpt><trkpt lat="45.0072617" lon="11.7409967"><ele>5.0</ele><time>2026-03-22T08:18:04.165Z</time></trkpt><trkpt lat="45.0071967" lon="11.7410117"><ele>5.0</ele><time>2026-03-22T08:18:05.166Z</time></trkpt><trkpt lat="45.0071333" lon="11.74103"><ele>5.0</ele><time>2026-03-22T08:18:06.167Z</time></trkpt><trkpt lat="45.007065" lon="11.7410483"><ele>5.0</ele><time>2026-03-22T08:18:07.16Z</time></trkpt><trkpt lat="45.0069967" lon="11.7410667"><ele>5.0</ele><time>2026-03-22T08:18:08.168Z</time></trkpt><trkpt lat="45.00693" lon="11.7410867"><ele>5.0</ele><time>2026-03-22T08:18:09.169Z</time></trkpt><trkpt lat="45.0068667" lon="11.7411083"><ele>5.0</ele><time>2026-03-22T08:18:10.167Z</time></trkpt><trkpt lat="45.0068" lon="11.741125"><ele>5.0</ele><time>2026-03-22T08:18:11.163Z</time></trkpt><trkpt lat="45.0067367" lon="11.74114"><ele>5.0</ele><time>2026-03-22T08:18:12.165Z</time></trkpt><trkpt lat="45.00661" lon="11.7411683"><ele>5.0</ele><time>2026-03-22T08:18:14.215Z</time></trkpt><trkpt lat="45.0064883" lon="11.7412017"><ele>5.0</ele><time>2026-03-22T08:18:16.167Z</time></trkpt><trkpt lat="45.006365" lon="11.741235"><ele>5.0</ele><time>2026-03-22T08:18:18.166Z</time></trkpt><trkpt lat="45.0062967" lon="11.7412583"><ele>5.0</ele><time>2026-03-22T08:18:19.166Z</time></trkpt><trkpt lat="45.006225" lon="11.74128"><ele>5.0</ele><time>2026-03-22T08:18:20.167Z</time></trkpt><trkpt lat="45.0061567" lon="11.7413"><ele>5.0</ele><time>2026-03-22T08:18:21.165Z</time></trkpt><trkpt lat="45.006085" lon="11.74132"><ele>5.0</ele><time>2026-03-22T08:18:22.155Z</time></trkpt><trkpt lat="45.006015" lon="11.74134"><ele>5.0</ele><time>2026-03-22T08:18:23.164Z</time></trkpt><trkpt lat="45.0059433" lon="11.74136"><ele>5.0</ele><time>2026-03-22T08:18:24.131Z</time></trkpt><trkpt lat="45.0058733" lon="11.74138"><ele>4.714285714285714</ele><time>2026-03-22T08:18:25.166Z</time></trkpt><trkpt lat="45.0058017" lon="11.7414017"><ele>4.428571428571429</ele><time>2026-03-22T08:18:26.161Z</time></trkpt><trkpt lat="45.00573" lon="11.741425"><ele>4.142857142857142</ele><time>2026-03-22T08:18:27.166Z</time></trkpt><trkpt lat="45.00566" lon="11.7414433"><ele>3.8571428571428568</ele><time>2026-03-22T08:18:28.162Z</time></trkpt><trkpt lat="45.0055883" lon="11.7414617"><ele>3.571428571428571</ele><time>2026-03-22T08:18:29.174Z</time></trkpt><trkpt lat="45.0055167" lon="11.7414817"><ele>3.2857142857142856</ele><time>2026-03-22T08:18:30.165Z</time></trkpt><trkpt lat="45.0054467" lon="11.7415"><ele>3.0</ele><time>2026-03-22T08:18:31.164Z</time></trkpt><trkpt lat="45.00538" lon="11.7415167"><ele>2.9999999999999996</ele><time>2026-03-22T08:18:32.169Z</time></trkpt><trkpt lat="45.005315" lon="11.7415333"><ele>3.0</ele><time>2026-03-22T08:18:33.167Z</time></trkpt><trkpt lat="45.0052483" lon="11.74155"><ele>3.0</ele><time>2026-03-22T08:18:34.164Z</time></trkpt><trkpt lat="45.00518" lon="11.7415633"><ele>3.0</ele><time>2026-03-22T08:18:35.134Z</time></trkpt><trkpt lat="45.0051133" lon="11.741585"><ele>3.0</ele><time>2026-03-22T08:18:36.158Z</time></trkpt><trkpt lat="45.00505" lon="11.7416083"><ele>2.9999999999999996</ele><time>2026-03-22T08:18:37.167Z</time></trkpt><trkpt lat="45.004985" lon="11.7416267"><ele>3.0</ele><time>2026-03-22T08:18:38.166Z</time></trkpt><trkpt lat="45.0049217" lon="11.741645"><ele>2.75</ele><time>2026-03-22T08:18:39.166Z</time></trkpt><trkpt lat="45.0048017" lon="11.7416783"><ele>2.5</ele><time>2026-03-22T08:18:41.166Z</time></trkpt><trkpt lat="45.004685" lon="11.74171"><ele>2.25</ele><time>2026-03-22T08:18:43.167Z</time></trkpt><trkpt lat="45.00458" lon="11.741745"><ele>2.0</ele><time>2026-03-22T08:18:45.135Z</time></trkpt><trkpt lat="45.0044817" lon="11.7417817"><ele>2.0</ele><time>2026-03-22T08:18:47.163Z</time></trkpt><trkpt lat="45.004385" lon="11.7418"><ele>2.0</ele><time>2026-03-22T08:18:49.165Z</time></trkpt><trkpt lat="45.0042783" lon="11.74175"><ele>2.0</ele><time>2026-03-22T08:18:51.164Z</time></trkpt><trkpt lat="45.004165" lon="11.74168"><ele>2.0</ele><time>2026-03-22T08:18:53.137Z</time></trkpt><trkpt lat="45.00411" lon="11.741635"><ele>2.0</ele><time>2026-03-22T08:18:54.156Z</time></trkpt><trkpt lat="45.0040567" lon="11.7415833"><ele>2.0</ele><time>2026-03-22T08:18:55.169Z</time></trkpt><trkpt lat="45.0040033" lon="11.74153"><ele>1.9999999999999998</ele><time>2026-03-22T08:18:56.179Z</time></trkpt><trkpt lat="45.0039533" lon="11.7414733"><ele>2.0</ele><time>2026-03-22T08:18:57.13Z</time></trkpt><trkpt lat="45.0039033" lon="11.7414133"><ele>2.0</ele><time>2026-03-22T08:18:58.149Z</time></trkpt><trkpt lat="45.0038533" lon="11.7413483"><ele>1.9999999999999998</ele><time>2026-03-22T08:18:59.134Z</time></trkpt><trkpt lat="45.0038" lon="11.74128"><ele>2.0</ele><time>2026-03-22T08:19:00.133Z</time></trkpt><trkpt lat="45.003745" lon="11.7412083"><ele>2.0</ele><time>2026-03-22T08:19:01.139Z</time></trkpt><trkpt lat="45.0036933" lon="11.741135"><ele>1.9999999999999998</ele><time>2026-03-22T08:19:02.142Z</time></trkpt><trkpt lat="45.0036417" lon="11.741055"><ele>2.0</ele><time>2026-03-22T08:19:03.138Z</time></trkpt><trkpt lat="45.0035883" lon="11.7409717"><ele>2.0</ele><time>2026-03-22T08:19:04.136Z</time></trkpt><trkpt lat="45.0035367" lon="11.7408867"><ele>2.0</ele><time>2026-03-22T08:19:05.135Z</time></trkpt><trkpt lat="45.003485" lon="11.7408"><ele>1.9999999999999998</ele><time>2026-03-22T08:19:06.142Z</time></trkpt><trkpt lat="45.0034317" lon="11.7407067"><ele>2.0</ele><time>2026-03-22T08:19:07.141Z</time></trkpt><trkpt lat="45.0033767" lon="11.740615"><ele>1.9999999999999998</ele><time>2026-03-22T08:19:08.127Z</time></trkpt><trkpt lat="45.0033233" lon="11.740525"><ele>2.0</ele><time>2026-03-22T08:19:09.137Z</time></trkpt><trkpt lat="45.00327" lon="11.7404317"><ele>2.0</ele><time>2026-03-22T08:19:10.146Z</time></trkpt><trkpt lat="45.0032167" lon="11.7403367"><ele>2.0</ele><time>2026-03-22T08:19:11.137Z</time></trkpt><trkpt lat="45.0031583" lon="11.7402383"><ele>1.9999999999999998</ele><time>2026-03-22T08:19:12.158Z</time></trkpt><trkpt lat="45.0031033" lon="11.7401367"><ele>2.0</ele><time>2026-03-22T08:19:13.141Z</time></trkpt><trkpt lat="45.00305" lon="11.74004"><ele>1.9999999999999998</ele><time>2026-03-22T08:19:14.15Z</time></trkpt><trkpt lat="45.0029983" lon="11.7399433"><ele>2.0</ele><time>2026-03-22T08:19:15.146Z</time></trkpt><trkpt lat="45.0029483" lon="11.73984"><ele>2.0</ele><time>2026-03-22T08:19:16.141Z</time></trkpt><trkpt lat="45.0029017" lon="11.739735"><ele>2.0</ele><time>2026-03-22T08:19:17.137Z</time></trkpt><trkpt lat="45.0028533" lon="11.739625"><ele>1.9999999999999998</ele><time>2026-03-22T08:19:18.158Z</time></trkpt><trkpt lat="45.00281" lon="11.7395167"><ele>2.0</ele><time>2026-03-22T08:19:19.169Z</time></trkpt><trkpt lat="45.002765" lon="11.7394067"><ele>2.1666666666666665</ele><time>2026-03-22T08:19:20.14Z</time></trkpt><trkpt lat="45.0027217" lon="11.739295"><ele>2.333333333333333</ele><time>2026-03-22T08:19:21.138Z</time></trkpt><trkpt lat="45.00268" lon="11.7391867"><ele>2.5</ele><time>2026-03-22T08:19:22.164Z</time></trkpt><trkpt lat="45.0026367" lon="11.73908"><ele>2.6666666666666665</ele><time>2026-03-22T08:19:23.136Z</time></trkpt><trkpt lat="45.002595" lon="11.7389767"><ele>2.8333333333333335</ele><time>2026-03-22T08:19:24.166Z</time></trkpt><trkpt lat="45.0025583" lon="11.7388783"><ele>3.0</ele><time>2026-03-22T08:19:25.165Z</time></trkpt><trkpt lat="45.0025217" lon="11.7387817"><ele>2.9999999999999996</ele><time>2026-03-22T08:19:26.154Z</time></trkpt><trkpt lat="45.002485" lon="11.7386883"><ele>3.0</ele><time>2026-03-22T08:19:27.16Z</time></trkpt><trkpt lat="45.0024483" lon="11.7385983"><ele>3.0</ele><time>2026-03-22T08:19:28.162Z</time></trkpt><trkpt lat="45.00241" lon="11.7385083"><ele>3.0</ele><time>2026-03-22T08:19:29.156Z</time></trkpt><trkpt lat="45.00237" lon="11.7384217"><ele>3.0</ele><time>2026-03-22T08:19:30.167Z</time></trkpt><trkpt lat="45.002325" lon="11.73834"><ele>2.9999999999999996</ele><time>2026-03-22T08:19:31.166Z</time></trkpt><trkpt lat="45.0022767" lon="11.7382667"><ele>3.0</ele><time>2026-03-22T08:19:32.163Z</time></trkpt><trkpt lat="45.002225" lon="11.7381983"><ele>2.9999999999999996</ele><time>2026-03-22T08:19:33.15Z</time></trkpt><trkpt lat="45.00217" lon="11.7381367"><ele>3.0</ele><time>2026-03-22T08:19:34.156Z</time></trkpt><trkpt lat="45.002115" lon="11.7380733"><ele>3.0</ele><time>2026-03-22T08:19:35.166Z</time></trkpt><trkpt lat="45.00206" lon="11.7380117"><ele>3.0</ele><time>2026-03-22T08:19:36.164Z</time></trkpt><trkpt lat="45.0020033" lon="11.7379567"><ele>3.0</ele><time>2026-03-22T08:19:37.164Z</time></trkpt><trkpt lat="45.001945" lon="11.7379017"><ele>2.9999999999999996</ele><time>2026-03-22T08:19:38.153Z</time></trkpt><trkpt lat="45.0018867" lon="11.7378517"><ele>3.0</ele><time>2026-03-22T08:19:39.158Z</time></trkpt><trkpt lat="45.0018233" lon="11.7378"><ele>3.0</ele><time>2026-03-22T08:19:40.16Z</time></trkpt><trkpt lat="45.0017583" lon="11.73775"><ele>3.0</ele><time>2026-03-22T08:19:41.166Z</time></trkpt><trkpt lat="45.0016933" lon="11.7377017"><ele>3.0</ele><time>2026-03-22T08:19:42.166Z</time></trkpt><trkpt lat="45.0016267" lon="11.7376533"><ele>3.0</ele><time>2026-03-22T08:19:43.165Z</time></trkpt><trkpt lat="45.0015583" lon="11.737605"><ele>3.0</ele><time>2026-03-22T08:19:44.142Z</time></trkpt><trkpt lat="45.00149" lon="11.737555"><ele>3.0</ele><time>2026-03-22T08:19:45.16Z</time></trkpt><trkpt lat="45.0014217" lon="11.737505"><ele>2.8333333333333335</ele><time>2026-03-22T08:19:46.166Z</time></trkpt><trkpt lat="45.0013517" lon="11.737455"><ele>2.6666666666666665</ele><time>2026-03-22T08:19:47.166Z</time></trkpt><trkpt lat="45.0012817" lon="11.7374017"><ele>2.5</ele><time>2026-03-22T08:19:48.169Z</time></trkpt><trkpt lat="45.0012117" lon="11.73735"><ele>2.333333333333333</ele><time>2026-03-22T08:19:49.143Z</time></trkpt><trkpt lat="45.0011417" lon="11.7372983"><ele>2.1666666666666665</ele><time>2026-03-22T08:19:50.157Z</time></trkpt><trkpt lat="45.0010733" lon="11.7372483"><ele>2.0</ele><time>2026-03-22T08:19:51.153Z</time></trkpt><trkpt lat="45.001005" lon="11.7371983"><ele>2.0</ele><time>2026-03-22T08:19:52.168Z</time></trkpt><trkpt lat="45.0009383" lon="11.7371517"><ele>1.9999999999999998</ele><time>2026-03-22T08:19:53.143Z</time></trkpt><trkpt lat="45.0008717" lon="11.7371033"><ele>2.0</ele><time>2026-03-22T08:19:54.143Z</time></trkpt><trkpt lat="45.000805" lon="11.7370533"><ele>2.0</ele><time>2026-03-22T08:19:55.167Z</time></trkpt><trkpt lat="45.00074" lon="11.7370033"><ele>1.9999999999999998</ele><time>2026-03-22T08:19:56.161Z</time></trkpt><trkpt lat="45.0006717" lon="11.7369533"><ele>2.0</ele><time>2026-03-22T08:19:57.16Z</time></trkpt><trkpt lat="45.0006083" lon="11.7369033"><ele>2.0</ele><time>2026-03-22T08:19:58.16Z</time></trkpt><trkpt lat="45.0005433" lon="11.736855"><ele>2.142857142857143</ele><time>2026-03-22T08:19:59.167Z</time></trkpt><trkpt lat="45.00048" lon="11.7368083"><ele>2.2857142857142856</ele><time>2026-03-22T08:20:00.16Z</time></trkpt><trkpt lat="45.0004183" lon="11.7367633"><ele>2.4285714285714284</ele><time>2026-03-22T08:20:01.16Z</time></trkpt><trkpt lat="45.0003567" lon="11.7367167"><ele>2.571428571428571</ele><time>2026-03-22T08:20:02.168Z</time></trkpt><trkpt lat="45.0002967" lon="11.7366717"><ele>2.7142857142857144</ele><time>2026-03-22T08:20:03.169Z</time></trkpt><trkpt lat="45.0002367" lon="11.7366283"><ele>2.8571428571428568</ele><time>2026-03-22T08:20:04.146Z</time></trkpt><trkpt lat="45.0001767" lon="11.7365867"><ele>3.0</ele><time>2026-03-22T08:20:05.155Z</time></trkpt><trkpt lat="45.000115" lon="11.7365483"><ele>2.9999999999999996</ele><time>2026-03-22T08:20:06.166Z</time></trkpt><trkpt lat="45.00005" lon="11.7365133"><ele>3.0</ele><time>2026-03-22T08:20:07.161Z</time></trkpt><trkpt lat="44.999985" lon="11.73648"><ele>3.0</ele><time>2026-03-22T08:20:08.16Z</time></trkpt><trkpt lat="44.9999183" lon="11.73645"><ele>3.0</ele><time>2026-03-22T08:20:09.166Z</time></trkpt><trkpt lat="44.99985" lon="11.73642"><ele>3.0</ele><time>2026-03-22T08:20:10.138Z</time></trkpt><trkpt lat="44.9997817" lon="11.7363933"><ele>2.9999999999999996</ele><time>2026-03-22T08:20:11.155Z</time></trkpt><trkpt lat="44.9997133" lon="11.7363683"><ele>3.0</ele><time>2026-03-22T08:20:12.167Z</time></trkpt><trkpt lat="44.9996433" lon="11.7363467"><ele>2.9999999999999996</ele><time>2026-03-22T08:20:13.164Z</time></trkpt><trkpt lat="44.9995767" lon="11.7363233"><ele>3.0</ele><time>2026-03-22T08:20:14.168Z</time></trkpt><trkpt lat="44.9995083" lon="11.7362983"><ele>3.0</ele><time>2026-03-22T08:20:15.166Z</time></trkpt><trkpt lat="44.9994383" lon="11.7362733"><ele>3.0</ele><time>2026-03-22T08:20:16.167Z</time></trkpt><trkpt lat="44.99937" lon="11.73625"><ele>3.0</ele><time>2026-03-22T08:20:17.165Z</time></trkpt><trkpt lat="44.9993033" lon="11.7362233"><ele>2.9999999999999996</ele><time>2026-03-22T08:20:18.166Z</time></trkpt><trkpt lat="44.9992383" lon="11.7362"><ele>3.0</ele><time>2026-03-22T08:20:19.166Z</time></trkpt><trkpt lat="44.9991717" lon="11.7361767"><ele>3.0</ele><time>2026-03-22T08:20:20.17Z</time></trkpt><trkpt lat="44.999105" lon="11.7361533"><ele>3.0</ele><time>2026-03-22T08:20:21.156Z</time></trkpt><trkpt lat="44.9990433" lon="11.7361333"><ele>3.0</ele><time>2026-03-22T08:20:22.165Z</time></trkpt><trkpt lat="44.9989817" lon="11.73611"><ele>3.0</ele><time>2026-03-22T08:20:23.166Z</time></trkpt><trkpt lat="44.9988667" lon="11.7360667"><ele>3.0</ele><time>2026-03-22T08:20:25.162Z</time></trkpt><trkpt lat="44.9987617" lon="11.7360217"><ele>3.0</ele><time>2026-03-22T08:20:27.157Z</time></trkpt><trkpt lat="44.9986617" lon="11.7359683"><ele>3.0</ele><time>2026-03-22T08:20:29.165Z</time></trkpt><trkpt lat="44.9985667" lon="11.7358867"><ele>3.0</ele><time>2026-03-22T08:20:31.162Z</time></trkpt><trkpt lat="44.9984867" lon="11.7357683"><ele>3.0</ele><time>2026-03-22T08:20:33.168Z</time></trkpt><trkpt lat="44.9984367" lon="11.7356033"><ele>3.0</ele><time>2026-03-22T08:20:35.167Z</time></trkpt><trkpt lat="44.99842" lon="11.73551"><ele>3.0</ele><time>2026-03-22T08:20:36.17Z</time></trkpt><trkpt lat="44.998405" lon="11.735415"><ele>3.0</ele><time>2026-03-22T08:20:37.167Z</time></trkpt><trkpt lat="44.9983883" lon="11.7353167"><ele>3.0</ele><time>2026-03-22T08:20:38.168Z</time></trkpt><trkpt lat="44.9983733" lon="11.7352133"><ele>3.0</ele><time>2026-03-22T08:20:39.167Z</time></trkpt><trkpt lat="44.9983567" lon="11.7351083"><ele>3.0</ele><time>2026-03-22T08:20:40.157Z</time></trkpt><trkpt lat="44.9983417" lon="11.7350033"><ele>3.0</ele><time>2026-03-22T08:20:41.159Z</time></trkpt><trkpt lat="44.9983233" lon="11.7348967"><ele>3.0</ele><time>2026-03-22T08:20:42.133Z</time></trkpt><trkpt lat="44.9983067" lon="11.7347917"><ele>2.8333333333333335</ele><time>2026-03-22T08:20:43.168Z</time></trkpt><trkpt lat="44.9982883" lon="11.7346867"><ele>2.6666666666666665</ele><time>2026-03-22T08:20:44.169Z</time></trkpt><trkpt lat="44.9982683" lon="11.73458"><ele>2.5</ele><time>2026-03-22T08:20:45.17Z</time></trkpt><trkpt lat="44.9982483" lon="11.7344733"><ele>2.333333333333333</ele><time>2026-03-22T08:20:46.17Z</time></trkpt><trkpt lat="44.9982267" lon="11.734365"><ele>2.1666666666666665</ele><time>2026-03-22T08:20:47.168Z</time></trkpt><trkpt lat="44.998205" lon="11.734255"><ele>2.0</ele><time>2026-03-22T08:20:48.157Z</time></trkpt><trkpt lat="44.9981833" lon="11.7341483"><ele>1.9999999999999998</ele><time>2026-03-22T08:20:49.165Z</time></trkpt><trkpt lat="44.9981617" lon="11.7340433"><ele>2.0</ele><time>2026-03-22T08:20:50.169Z</time></trkpt><trkpt lat="44.9981417" lon="11.7339383"><ele>2.0</ele><time>2026-03-22T08:20:51.167Z</time></trkpt><trkpt lat="44.998125" lon="11.7338367"><ele>2.0</ele><time>2026-03-22T08:20:52.169Z</time></trkpt><trkpt lat="44.9981083" lon="11.733735"><ele>1.9999999999999998</ele><time>2026-03-22T08:20:53.165Z</time></trkpt><trkpt lat="44.99809" lon="11.73363"><ele>2.0</ele><time>2026-03-22T08:20:54.161Z</time></trkpt><trkpt lat="44.9980683" lon="11.7335267"><ele>1.8333333333333333</ele><time>2026-03-22T08:20:55.169Z</time></trkpt><trkpt lat="44.9980483" lon="11.73342"><ele>1.6666666666666665</ele><time>2026-03-22T08:20:56.167Z</time></trkpt><trkpt lat="44.9980267" lon="11.733315"><ele>1.5</ele><time>2026-03-22T08:20:57.169Z</time></trkpt><trkpt lat="44.9980083" lon="11.7332067"><ele>1.3333333333333333</ele><time>2026-03-22T08:20:58.14Z</time></trkpt><trkpt lat="44.9979867" lon="11.7330983"><ele>1.1666666666666665</ele><time>2026-03-22T08:20:59.159Z</time></trkpt><trkpt lat="44.9979633" lon="11.7329883"><ele>1.0</ele><time>2026-03-22T08:21:00.167Z</time></trkpt><trkpt lat="44.99794" lon="11.7328833"><ele>1.0</ele><time>2026-03-22T08:21:01.168Z</time></trkpt><trkpt lat="44.9979183" lon="11.7327783"><ele>0.9999999999999999</ele><time>2026-03-22T08:21:02.172Z</time></trkpt><trkpt lat="44.9978983" lon="11.7326733"><ele>1.0</ele><time>2026-03-22T08:21:03.161Z</time></trkpt><trkpt lat="44.9978767" lon="11.73257"><ele>1.0</ele><time>2026-03-22T08:21:04.169Z</time></trkpt><trkpt lat="44.9978583" lon="11.7324717"><ele>0.9999999999999999</ele><time>2026-03-22T08:21:05.168Z</time></trkpt><trkpt lat="44.9978383" lon="11.73238"><ele>1.0</ele><time>2026-03-22T08:21:06.163Z</time></trkpt><trkpt lat="44.9978233" lon="11.7322867"><ele>1.0</ele><time>2026-03-22T08:21:07.162Z</time></trkpt><trkpt lat="44.9978033" lon="11.732195"><ele>1.0</ele><time>2026-03-22T08:21:08.158Z</time></trkpt><trkpt lat="44.9977867" lon="11.7321033"><ele>0.9999999999999999</ele><time>2026-03-22T08:21:09.165Z</time></trkpt><trkpt lat="44.99777" lon="11.7320117"><ele>1.0</ele><time>2026-03-22T08:21:10.167Z</time></trkpt><trkpt lat="44.9977533" lon="11.7319167"><ele>1.0</ele><time>2026-03-22T08:21:11.147Z</time></trkpt><trkpt lat="44.9977367" lon="11.7318233"><ele>0.9999999999999999</ele><time>2026-03-22T08:21:12.161Z</time></trkpt><trkpt lat="44.9977217" lon="11.7317317"><ele>1.0</ele><time>2026-03-22T08:21:13.168Z</time></trkpt><trkpt lat="44.9977067" lon="11.7316333"><ele>1.0</ele><time>2026-03-22T08:21:14.17Z</time></trkpt><trkpt lat="44.99769" lon="11.731535"><ele>1.0</ele><time>2026-03-22T08:21:15.168Z</time></trkpt><trkpt lat="44.9976717" lon="11.7314317"><ele>0.9999999999999999</ele><time>2026-03-22T08:21:16.169Z</time></trkpt><trkpt lat="44.9976533" lon="11.73133"><ele>1.0</ele><time>2026-03-22T08:21:17.17Z</time></trkpt><trkpt lat="44.9976333" lon="11.7312283"><ele>1.0</ele><time>2026-03-22T08:21:18.162Z</time></trkpt><trkpt lat="44.9976133" lon="11.7311267"><ele>0.9999999999999999</ele><time>2026-03-22T08:21:19.17Z</time></trkpt><trkpt lat="44.997595" lon="11.7310267"><ele>1.0</ele><time>2026-03-22T08:21:20.172Z</time></trkpt><trkpt lat="44.9975767" lon="11.730925"><ele>1.0</ele><time>2026-03-22T08:21:21.165Z</time></trkpt><trkpt lat="44.9975583" lon="11.730825"><ele>1.0</ele><time>2026-03-22T08:21:22.14Z</time></trkpt><trkpt lat="44.99754" lon="11.730725"><ele>0.9999999999999999</ele><time>2026-03-22T08:21:23.165Z</time></trkpt><trkpt lat="44.9975233" lon="11.730625"><ele>1.0</ele><time>2026-03-22T08:21:24.153Z</time></trkpt><trkpt lat="44.9975033" lon="11.730525"><ele>1.0</ele><time>2026-03-22T08:21:25.169Z</time></trkpt><trkpt lat="44.9974817" lon="11.7304217"><ele>0.9999999999999999</ele><time>2026-03-22T08:21:26.155Z</time></trkpt><trkpt lat="44.9974617" lon="11.7303183"><ele>1.0</ele><time>2026-03-22T08:21:27.159Z</time></trkpt><trkpt lat="44.9974417" lon="11.730215"><ele>1.0</ele><time>2026-03-22T08:21:28.178Z</time></trkpt><trkpt lat="44.9974217" lon="11.730115"><ele>0.8571428571428571</ele><time>2026-03-22T08:21:29.162Z</time></trkpt><trkpt lat="44.9974033" lon="11.7300133"><ele>0.7142857142857142</ele><time>2026-03-22T08:21:30.165Z</time></trkpt><trkpt lat="44.9973867" lon="11.7299133"><ele>0.5714285714285714</ele><time>2026-03-22T08:21:31.168Z</time></trkpt><trkpt lat="44.9973683" lon="11.729815"><ele>0.42857142857142855</ele><time>2026-03-22T08:21:32.164Z</time></trkpt><trkpt lat="44.9973483" lon="11.7297167"><ele>0.2857142857142857</ele><time>2026-03-22T08:21:33.17Z</time></trkpt><trkpt lat="44.997325" lon="11.72962"><ele>0.14285714285714285</ele><time>2026-03-22T08:21:34.171Z</time></trkpt><trkpt lat="44.9973083" lon="11.7295267"><ele>0.0</ele><time>2026-03-22T08:21:35.142Z</time></trkpt><trkpt lat="44.99729" lon="11.7294333"><ele>0.16666666666666666</ele><time>2026-03-22T08:21:36.156Z</time></trkpt><trkpt lat="44.9972717" lon="11.72934"><ele>0.3333333333333333</ele><time>2026-03-22T08:21:37.167Z</time></trkpt><trkpt lat="44.997255" lon="11.729245"><ele>0.5</ele><time>2026-03-22T08:21:38.173Z</time></trkpt><trkpt lat="44.9972367" lon="11.7291533"><ele>0.6666666666666666</ele><time>2026-03-22T08:21:39.169Z</time></trkpt><trkpt lat="44.997215" lon="11.7290633"><ele>0.8333333333333333</ele><time>2026-03-22T08:21:40.17Z</time></trkpt><trkpt lat="44.9971983" lon="11.728975"><ele>1.0</ele><time>2026-03-22T08:21:41.173Z</time></trkpt><trkpt lat="44.9971667" lon="11.72881"><ele>1.0</ele><time>2026-03-22T08:21:43.172Z</time></trkpt><trkpt lat="44.9971367" lon="11.7286483"><ele>1.0</ele><time>2026-03-22T08:21:45.172Z</time></trkpt><trkpt lat="44.9971067" lon="11.72848"><ele>1.0</ele><time>2026-03-22T08:21:47.168Z</time></trkpt><trkpt lat="44.99708" lon="11.728315"><ele>1.0</ele><time>2026-03-22T08:21:49.157Z</time></trkpt><trkpt lat="44.997055" lon="11.7281583"><ele>1.2000000000000002</ele><time>2026-03-22T08:21:51.165Z</time></trkpt><trkpt lat="44.997025" lon="11.72802"><ele>1.4000000000000001</ele><time>2026-03-22T08:21:53.132Z</time></trkpt><trkpt lat="44.996955" lon="11.7279317"><ele>1.6</ele><time>2026-03-22T08:21:55.169Z</time></trkpt><trkpt lat="44.9968417" lon="11.7279267"><ele>1.8</ele><time>2026-03-22T08:21:57.167Z</time></trkpt><trkpt lat="44.9967233" lon="11.72796"><ele>2.0</ele><time>2026-03-22T08:21:59.169Z</time></trkpt><trkpt lat="44.9966167" lon="11.7279983"><ele>1.6</ele><time>2026-03-22T08:22:01.172Z</time></trkpt><trkpt lat="44.996525" lon="11.7280317"><ele>1.2000000000000002</ele><time>2026-03-22T08:22:03.161Z</time></trkpt><trkpt lat="44.9964367" lon="11.7280683"><ele>0.8</ele><time>2026-03-22T08:22:05.172Z</time></trkpt><trkpt lat="44.9963517" lon="11.7281"><ele>0.4</ele><time>2026-03-22T08:22:07.134Z</time></trkpt><trkpt lat="44.9962617" lon="11.7281367"><ele>0.0</ele><time>2026-03-22T08:22:09.157Z</time></trkpt><trkpt lat="44.9961683" lon="11.7281683"><ele>0.0</ele><time>2026-03-22T08:22:11.17Z</time></trkpt><trkpt lat="44.9960733" lon="11.7281967"><ele>0.0</ele><time>2026-03-22T08:22:13.168Z</time></trkpt><trkpt lat="44.9959883" lon="11.72816"><ele>0.0</ele><time>2026-03-22T08:22:15.171Z</time></trkpt><trkpt lat="44.995935" lon="11.7280433"><ele>0.0</ele><time>2026-03-22T08:22:17.169Z</time></trkpt><trkpt lat="44.9959067" lon="11.727885"><ele>0.0</ele><time>2026-03-22T08:22:19.169Z</time></trkpt><trkpt lat="44.9958917" lon="11.7277983"><ele>0.2857142857142857</ele><time>2026-03-22T08:22:20.158Z</time></trkpt><trkpt lat="44.995875" lon="11.72771"><ele>0.5714285714285714</ele><time>2026-03-22T08:22:21.167Z</time></trkpt><trkpt lat="44.99586" lon="11.7276183"><ele>0.8571428571428571</ele><time>2026-03-22T08:22:22.159Z</time></trkpt><trkpt lat="44.995845" lon="11.7275267"><ele>1.1428571428571428</ele><time>2026-03-22T08:22:23.162Z</time></trkpt><trkpt lat="44.99583" lon="11.7274333"><ele>1.4285714285714284</ele><time>2026-03-22T08:22:24.168Z</time></trkpt><trkpt lat="44.9958133" lon="11.7273417"><ele>1.7142857142857142</ele><time>2026-03-22T08:22:25.171Z</time></trkpt><trkpt lat="44.9957967" lon="11.72725"><ele>2.0</ele><time>2026-03-22T08:22:26.169Z</time></trkpt><trkpt lat="44.9957817" lon="11.727155"><ele>2.2857142857142856</ele><time>2026-03-22T08:22:27.172Z</time></trkpt><trkpt lat="44.9957667" lon="11.7270617"><ele>2.571428571428571</ele><time>2026-03-22T08:22:28.147Z</time></trkpt><trkpt lat="44.9957517" lon="11.726965"><ele>2.8571428571428568</ele><time>2026-03-22T08:22:29.164Z</time></trkpt><trkpt lat="44.9957367" lon="11.7268683"><ele>3.142857142857143</ele><time>2026-03-22T08:22:30.169Z</time></trkpt><trkpt lat="44.99572" lon="11.7267667"><ele>3.428571428571428</ele><time>2026-03-22T08:22:31.172Z</time></trkpt><trkpt lat="44.9957017" lon="11.726665"><ele>3.714285714285714</ele><time>2026-03-22T08:22:32.172Z</time></trkpt><trkpt lat="44.9956817" lon="11.72656"><ele>4.0</ele><time>2026-03-22T08:22:33.172Z</time></trkpt><trkpt lat="44.9956633" lon="11.7264567"><ele>3.9999999999999996</ele><time>2026-03-22T08:22:34.166Z</time></trkpt><trkpt lat="44.9956433" lon="11.7263483"><ele>4.0</ele><time>2026-03-22T08:22:35.17Z</time></trkpt><trkpt lat="44.99562" lon="11.72624"><ele>4.0</ele><time>2026-03-22T08:22:36.171Z</time></trkpt><trkpt lat="44.9955967" lon="11.72613"><ele>4.0</ele><time>2026-03-22T08:22:37.172Z</time></trkpt><trkpt lat="44.995575" lon="11.7260217"><ele>3.9999999999999996</ele><time>2026-03-22T08:22:38.171Z</time></trkpt><trkpt lat="44.9955533" lon="11.7259133"><ele>4.0</ele><time>2026-03-22T08:22:39.145Z</time></trkpt><trkpt lat="44.9955333" lon="11.72581"><ele>4.166666666666666</ele><time>2026-03-22T08:22:40.162Z</time></trkpt><trkpt lat="44.995515" lon="11.7257067"><ele>4.333333333333333</ele><time>2026-03-22T08:22:41.168Z</time></trkpt><trkpt lat="44.9954967" lon="11.7256033"><ele>4.5</ele><time>2026-03-22T08:22:42.171Z</time></trkpt><trkpt lat="44.9954767" lon="11.7255"><ele>4.666666666666667</ele><time>2026-03-22T08:22:43.161Z</time></trkpt><trkpt lat="44.995455" lon="11.7253967"><ele>4.833333333333334</ele><time>2026-03-22T08:22:44.163Z</time></trkpt><trkpt lat="44.9954333" lon="11.7252933"><ele>5.0</ele><time>2026-03-22T08:22:45.161Z</time></trkpt><trkpt lat="44.995415" lon="11.725185"><ele>5.0</ele><time>2026-03-22T08:22:46.168Z</time></trkpt><trkpt lat="44.9953967" lon="11.7250783"><ele>5.0</ele><time>2026-03-22T08:22:47.169Z</time></trkpt><trkpt lat="44.99538" lon="11.72497"><ele>5.0</ele><time>2026-03-22T08:22:48.167Z</time></trkpt><trkpt lat="44.995365" lon="11.7248617"><ele>5.0</ele><time>2026-03-22T08:22:49.168Z</time></trkpt><trkpt lat="44.9953533" lon="11.7247517"><ele>5.0</ele><time>2026-03-22T08:22:50.151Z</time></trkpt><trkpt lat="44.9953467" lon="11.7246383"><ele>5.0</ele><time>2026-03-22T08:22:51.161Z</time></trkpt><trkpt lat="44.9953467" lon="11.724525"><ele>5.0</ele><time>2026-03-22T08:22:52.166Z</time></trkpt><trkpt lat="44.9953517" lon="11.7244133"><ele>5.0</ele><time>2026-03-22T08:22:53.139Z</time></trkpt><trkpt lat="44.99536" lon="11.7243033"><ele>5.0</ele><time>2026-03-22T08:22:54.156Z</time></trkpt><trkpt lat="44.9953733" lon="11.7241933"><ele>5.0</ele><time>2026-03-22T08:22:55.168Z</time></trkpt><trkpt lat="44.995385" lon="11.724085"><ele>5.0</ele><time>2026-03-22T08:22:56.17Z</time></trkpt><trkpt lat="44.9953983" lon="11.7239783"><ele>5.0</ele><time>2026-03-22T08:22:57.17Z</time></trkpt><trkpt lat="44.99541" lon="11.7238717"><ele>5.0</ele><time>2026-03-22T08:22:58.167Z</time></trkpt><trkpt lat="44.9954183" lon="11.7237667"><ele>5.0</ele><time>2026-03-22T08:22:59.17Z</time></trkpt><trkpt lat="44.9954283" lon="11.7236633"><ele>5.0</ele><time>2026-03-22T08:23:00.163Z</time></trkpt><trkpt lat="44.99544" lon="11.72356"><ele>5.0</ele><time>2026-03-22T08:23:01.172Z</time></trkpt><trkpt lat="44.99545" lon="11.7234567"><ele>5.0</ele><time>2026-03-22T08:23:02.173Z</time></trkpt><trkpt lat="44.995455" lon="11.7233533"><ele>5.0</ele><time>2026-03-22T08:23:03.156Z</time></trkpt><trkpt lat="44.9954567" lon="11.7232517"><ele>5.0</ele><time>2026-03-22T08:23:04.162Z</time></trkpt><trkpt lat="44.9954533" lon="11.7231533"><ele>5.0</ele><time>2026-03-22T08:23:05.151Z</time></trkpt><trkpt lat="44.9954417" lon="11.7230533"><ele>5.0</ele><time>2026-03-22T08:23:06.16Z</time></trkpt><trkpt lat="44.9954267" lon="11.7229517"><ele>5.0</ele><time>2026-03-22T08:23:07.172Z</time></trkpt><trkpt lat="44.9954117" lon="11.7228467"><ele>5.0</ele><time>2026-03-22T08:23:08.17Z</time></trkpt><trkpt lat="44.9953933" lon="11.7227433"><ele>5.0</ele><time>2026-03-22T08:23:09.171Z</time></trkpt><trkpt lat="44.995375" lon="11.7226417"><ele>5.0</ele><time>2026-03-22T08:23:10.169Z</time></trkpt><trkpt lat="44.9953533" lon="11.722535"><ele>5.0</ele><time>2026-03-22T08:23:11.166Z</time></trkpt><trkpt lat="44.9953333" lon="11.72243"><ele>5.166666666666667</ele><time>2026-03-22T08:23:12.171Z</time></trkpt><trkpt lat="44.9953133" lon="11.7223217"><ele>5.333333333333334</ele><time>2026-03-22T08:23:13.133Z</time></trkpt><trkpt lat="44.9952967" lon="11.722215"><ele>5.5</ele><time>2026-03-22T08:23:14.164Z</time></trkpt><trkpt lat="44.9952783" lon="11.7221033"><ele>5.666666666666667</ele><time>2026-03-22T08:23:15.147Z</time></trkpt><trkpt lat="44.99526" lon="11.7219917"><ele>5.833333333333333</ele><time>2026-03-22T08:23:16.164Z</time></trkpt><trkpt lat="44.99524" lon="11.7218833"><ele>6.0</ele><time>2026-03-22T08:23:17.165Z</time></trkpt><trkpt lat="44.9952183" lon="11.721775"><ele>5.666666666666667</ele><time>2026-03-22T08:23:18.159Z</time></trkpt><trkpt lat="44.995195" lon="11.7216667"><ele>5.333333333333333</ele><time>2026-03-22T08:23:19.168Z</time></trkpt><trkpt lat="44.9951733" lon="11.7215583"><ele>5.0</ele><time>2026-03-22T08:23:20.169Z</time></trkpt><trkpt lat="44.9951533" lon="11.7214517"><ele>4.666666666666666</ele><time>2026-03-22T08:23:21.132Z</time></trkpt><trkpt lat="44.9951333" lon="11.721345"><ele>4.333333333333333</ele><time>2026-03-22T08:23:22.164Z</time></trkpt><trkpt lat="44.9951117" lon="11.7212367"><ele>4.0</ele><time>2026-03-22T08:23:23.17Z</time></trkpt><trkpt lat="44.9950917" lon="11.7211267"><ele>3.9999999999999996</ele><time>2026-03-22T08:23:24.168Z</time></trkpt><trkpt lat="44.99507" lon="11.7210183"><ele>4.0</ele><time>2026-03-22T08:23:25.168Z</time></trkpt><trkpt lat="44.9950483" lon="11.7209067"><ele>4.0</ele><time>2026-03-22T08:23:26.166Z</time></trkpt><trkpt lat="44.9950267" lon="11.720795"><ele>4.0</ele><time>2026-03-22T08:23:27.172Z</time></trkpt><trkpt lat="44.995005" lon="11.7206817"><ele>3.9999999999999996</ele><time>2026-03-22T08:23:28.17Z</time></trkpt><trkpt lat="44.9949817" lon="11.72057"><ele>4.0</ele><time>2026-03-22T08:23:29.172Z</time></trkpt><trkpt lat="44.99496" lon="11.7204567"><ele>3.9999999999999996</ele><time>2026-03-22T08:23:30.171Z</time></trkpt><trkpt lat="44.9949383" lon="11.7203433"><ele>4.0</ele><time>2026-03-22T08:23:31.168Z</time></trkpt><trkpt lat="44.994915" lon="11.7202317"><ele>4.0</ele><time>2026-03-22T08:23:32.164Z</time></trkpt><trkpt lat="44.994895" lon="11.72012"><ele>4.0</ele><time>2026-03-22T08:23:33.17Z</time></trkpt><trkpt lat="44.994875" lon="11.72001"><ele>3.9999999999999996</ele><time>2026-03-22T08:23:34.164Z</time></trkpt><trkpt lat="44.994855" lon="11.7198983"><ele>4.0</ele><time>2026-03-22T08:23:35.168Z</time></trkpt><trkpt lat="44.9948367" lon="11.7197883"><ele>3.9999999999999996</ele><time>2026-03-22T08:23:36.169Z</time></trkpt><trkpt lat="44.994815" lon="11.7196783"><ele>4.0</ele><time>2026-03-22T08:23:37.142Z</time></trkpt><trkpt lat="44.994795" lon="11.71957"><ele>4.0</ele><time>2026-03-22T08:23:38.175Z</time></trkpt><trkpt lat="44.9947767" lon="11.7194633"><ele>4.0</ele><time>2026-03-22T08:23:39.166Z</time></trkpt><trkpt lat="44.994755" lon="11.719355"><ele>3.9999999999999996</ele><time>2026-03-22T08:23:40.169Z</time></trkpt><trkpt lat="44.9947383" lon="11.71925"><ele>4.0</ele><time>2026-03-22T08:23:41.17Z</time></trkpt><trkpt lat="44.9947167" lon="11.719145"><ele>3.9999999999999996</ele><time>2026-03-22T08:23:42.168Z</time></trkpt><trkpt lat="44.9946967" lon="11.7190383"><ele>4.0</ele><time>2026-03-22T08:23:43.163Z</time></trkpt><trkpt lat="44.9946767" lon="11.7189283"><ele>4.0</ele><time>2026-03-22T08:23:44.159Z</time></trkpt><trkpt lat="44.9946567" lon="11.7188233"><ele>4.0</ele><time>2026-03-22T08:23:45.17Z</time></trkpt><trkpt lat="44.9946383" lon="11.71872"><ele>3.9999999999999996</ele><time>2026-03-22T08:23:46.168Z</time></trkpt><trkpt lat="44.99462" lon="11.7186167"><ele>4.0</ele><time>2026-03-22T08:23:47.166Z</time></trkpt><trkpt lat="44.9946" lon="11.7185117"><ele>3.9999999999999996</ele><time>2026-03-22T08:23:48.164Z</time></trkpt><trkpt lat="44.9945783" lon="11.718405"><ele>4.0</ele><time>2026-03-22T08:23:49.167Z</time></trkpt><trkpt lat="44.9945567" lon="11.7183017"><ele>4.0</ele><time>2026-03-22T08:23:50.151Z</time></trkpt><trkpt lat="44.9945367" lon="11.7181967"><ele>4.0</ele><time>2026-03-22T08:23:51.153Z</time></trkpt><trkpt lat="44.9945167" lon="11.7180933"><ele>3.9999999999999996</ele><time>2026-03-22T08:23:52.164Z</time></trkpt><trkpt lat="44.9944983" lon="11.7179917"><ele>4.0</ele><time>2026-03-22T08:23:53.127Z</time></trkpt><trkpt lat="44.9944817" lon="11.717895"><ele>4.0</ele><time>2026-03-22T08:23:54.159Z</time></trkpt><trkpt lat="44.9944633" lon="11.7178"><ele>3.9999999999999996</ele><time>2026-03-22T08:23:55.169Z</time></trkpt><trkpt lat="44.994445" lon="11.717705"><ele>4.0</ele><time>2026-03-22T08:23:56.166Z</time></trkpt><trkpt lat="44.994425" lon="11.7176067"><ele>4.0</ele><time>2026-03-22T08:23:57.166Z</time></trkpt><trkpt lat="44.9944067" lon="11.71751"><ele>3.9999999999999996</ele><time>2026-03-22T08:23:58.164Z</time></trkpt><trkpt lat="44.9943883" lon="11.717415"><ele>4.0</ele><time>2026-03-22T08:23:59.153Z</time></trkpt><trkpt lat="44.9943667" lon="11.7173183"><ele>4.0</ele><time>2026-03-22T08:24:00.172Z</time></trkpt><trkpt lat="44.9943483" lon="11.717225"><ele>4.0</ele><time>2026-03-22T08:24:01.162Z</time></trkpt><trkpt lat="44.9943317" lon="11.71713"><ele>3.9999999999999996</ele><time>2026-03-22T08:24:02.165Z</time></trkpt><trkpt lat="44.9943133" lon="11.7170317"><ele>4.0</ele><time>2026-03-22T08:24:03.167Z</time></trkpt><trkpt lat="44.9942967" lon="11.7169333"><ele>4.0</ele><time>2026-03-22T08:24:04.164Z</time></trkpt><trkpt lat="44.9942783" lon="11.7168317"><ele>3.9999999999999996</ele><time>2026-03-22T08:24:05.169Z</time></trkpt><trkpt lat="44.99426" lon="11.7167317"><ele>4.0</ele><time>2026-03-22T08:24:06.166Z</time></trkpt><trkpt lat="44.994245" lon="11.71663"><ele>4.0</ele><time>2026-03-22T08:24:07.168Z</time></trkpt><trkpt lat="44.994225" lon="11.7165283"><ele>4.0</ele><time>2026-03-22T08:24:08.172Z</time></trkpt><trkpt lat="44.9942033" lon="11.7164267"><ele>3.9999999999999996</ele><time>2026-03-22T08:24:09.135Z</time></trkpt><trkpt lat="44.9941833" lon="11.7163267"><ele>4.0</ele><time>2026-03-22T08:24:10.16Z</time></trkpt><trkpt lat="44.994165" lon="11.7162283"><ele>4.0</ele><time>2026-03-22T08:24:11.167Z</time></trkpt><trkpt lat="44.9941483" lon="11.71613"><ele>3.9999999999999996</ele><time>2026-03-22T08:24:12.169Z</time></trkpt><trkpt lat="44.9941267" lon="11.7160283"><ele>4.0</ele><time>2026-03-22T08:24:13.165Z</time></trkpt><trkpt lat="44.994105" lon="11.7159283"><ele>4.0</ele><time>2026-03-22T08:24:14.17Z</time></trkpt><trkpt lat="44.9940817" lon="11.7158233"><ele>3.9999999999999996</ele><time>2026-03-22T08:24:15.168Z</time></trkpt><trkpt lat="44.9940583" lon="11.7157183"><ele>4.0</ele><time>2026-03-22T08:24:16.167Z</time></trkpt><trkpt lat="44.9940367" lon="11.7156117"><ele>4.0</ele><time>2026-03-22T08:24:17.166Z</time></trkpt><trkpt lat="44.994015" lon="11.7155033"><ele>4.0</ele><time>2026-03-22T08:24:18.162Z</time></trkpt><trkpt lat="44.9939933" lon="11.7153933"><ele>3.9999999999999996</ele><time>2026-03-22T08:24:19.16Z</time></trkpt><trkpt lat="44.9939717" lon="11.7152817"><ele>4.0</ele><time>2026-03-22T08:24:20.155Z</time></trkpt><trkpt lat="44.9939517" lon="11.7151683"><ele>3.9999999999999996</ele><time>2026-03-22T08:24:21.165Z</time></trkpt><trkpt lat="44.9939317" lon="11.715055"><ele>4.0</ele><time>2026-03-22T08:24:22.165Z</time></trkpt><trkpt lat="44.9939117" lon="11.714945"><ele>4.0</ele><time>2026-03-22T08:24:23.163Z</time></trkpt><trkpt lat="44.9938933" lon="11.7148367"><ele>4.0</ele><time>2026-03-22T08:24:24.167Z</time></trkpt><trkpt lat="44.993875" lon="11.7147317"><ele>3.9999999999999996</ele><time>2026-03-22T08:24:25.163Z</time></trkpt><trkpt lat="44.9938567" lon="11.7146267"><ele>4.0</ele><time>2026-03-22T08:24:26.169Z</time></trkpt><trkpt lat="44.9938367" lon="11.71452"><ele>3.9999999999999996</ele><time>2026-03-22T08:24:27.165Z</time></trkpt><trkpt lat="44.99382" lon="11.7144083"><ele>4.0</ele><time>2026-03-22T08:24:28.166Z</time></trkpt><trkpt lat="44.9938" lon="11.7142967"><ele>4.0</ele><time>2026-03-22T08:24:29.169Z</time></trkpt><trkpt lat="44.9937817" lon="11.7141833"><ele>4.0</ele><time>2026-03-22T08:24:30.166Z</time></trkpt><trkpt lat="44.993765" lon="11.7140717"><ele>3.9999999999999996</ele><time>2026-03-22T08:24:31.168Z</time></trkpt><trkpt lat="44.9937483" lon="11.713955"><ele>4.0</ele><time>2026-03-22T08:24:32.167Z</time></trkpt><trkpt lat="44.9937333" lon="11.7138383"><ele>3.833333333333333</ele><time>2026-03-22T08:24:33.167Z</time></trkpt><trkpt lat="44.99372" lon="11.71372"><ele>3.6666666666666665</ele><time>2026-03-22T08:24:34.165Z</time></trkpt><trkpt lat="44.99371" lon="11.7136033"><ele>3.5</ele><time>2026-03-22T08:24:35.141Z</time></trkpt><trkpt lat="44.9937" lon="11.7134883"><ele>3.333333333333333</ele><time>2026-03-22T08:24:36.156Z</time></trkpt><trkpt lat="44.99369" lon="11.7133717"><ele>3.1666666666666665</ele><time>2026-03-22T08:24:37.167Z</time></trkpt><trkpt lat="44.9936817" lon="11.713255"><ele>3.0</ele><time>2026-03-22T08:24:38.168Z</time></trkpt><trkpt lat="44.9936767" lon="11.7131417"><ele>3.0</ele><time>2026-03-22T08:24:39.168Z</time></trkpt><trkpt lat="44.9936717" lon="11.71303"><ele>3.0</ele><time>2026-03-22T08:24:40.152Z</time></trkpt><trkpt lat="44.9936683" lon="11.71292"><ele>3.0</ele><time>2026-03-22T08:24:41.166Z</time></trkpt><trkpt lat="44.9936633" lon="11.71281"><ele>3.0</ele><time>2026-03-22T08:24:42.168Z</time></trkpt><trkpt lat="44.9936617" lon="11.7127017"><ele>3.0</ele><time>2026-03-22T08:24:43.17Z</time></trkpt><trkpt lat="44.9936617" lon="11.7125933"><ele>3.0</ele><time>2026-03-22T08:24:44.166Z</time></trkpt><trkpt lat="44.99366" lon="11.7124833"><ele>3.1666666666666665</ele><time>2026-03-22T08:24:45.149Z</time></trkpt><trkpt lat="44.9936617" lon="11.7123767"><ele>3.333333333333333</ele><time>2026-03-22T08:24:46.147Z</time></trkpt><trkpt lat="44.993665" lon="11.7122683"><ele>3.5</ele><time>2026-03-22T08:24:47.158Z</time></trkpt><trkpt lat="44.99367" lon="11.7121583"><ele>3.6666666666666665</ele><time>2026-03-22T08:24:48.167Z</time></trkpt><trkpt lat="44.9936767" lon="11.7120517"><ele>3.833333333333333</ele><time>2026-03-22T08:24:49.165Z</time></trkpt><trkpt lat="44.9936867" lon="11.7119433"><ele>4.0</ele><time>2026-03-22T08:24:50.163Z</time></trkpt><trkpt lat="44.9936967" lon="11.711835"><ele>3.9999999999999996</ele><time>2026-03-22T08:24:51.166Z</time></trkpt><trkpt lat="44.9937067" lon="11.7117233"><ele>4.0</ele><time>2026-03-22T08:24:52.166Z</time></trkpt><trkpt lat="44.9937183" lon="11.7116117"><ele>4.0</ele><time>2026-03-22T08:24:53.161Z</time></trkpt><trkpt lat="44.9937333" lon="11.7115"><ele>4.0</ele><time>2026-03-22T08:24:54.172Z</time></trkpt><trkpt lat="44.9937467" lon="11.7113933"><ele>3.9999999999999996</ele><time>2026-03-22T08:24:55.167Z</time></trkpt><trkpt lat="44.99376" lon="11.7112833"><ele>4.0</ele><time>2026-03-22T08:24:56.171Z</time></trkpt><trkpt lat="44.993775" lon="11.7111733"><ele>4.166666666666666</ele><time>2026-03-22T08:24:57.136Z</time></trkpt><trkpt lat="44.9937933" lon="11.711065"><ele>4.333333333333333</ele><time>2026-03-22T08:24:58.156Z</time></trkpt><trkpt lat="44.9938117" lon="11.7109583"><ele>4.5</ele><time>2026-03-22T08:24:59.171Z</time></trkpt><trkpt lat="44.9938317" lon="11.7108517"><ele>4.666666666666667</ele><time>2026-03-22T08:25:00.167Z</time></trkpt><trkpt lat="44.9938533" lon="11.7107433"><ele>4.833333333333334</ele><time>2026-03-22T08:25:01.167Z</time></trkpt><trkpt lat="44.993875" lon="11.7106333"><ele>5.0</ele><time>2026-03-22T08:25:02.17Z</time></trkpt><trkpt lat="44.9938983" lon="11.710525"><ele>5.0</ele><time>2026-03-22T08:25:03.165Z</time></trkpt><trkpt lat="44.9939217" lon="11.7104183"><ele>5.0</ele><time>2026-03-22T08:25:04.163Z</time></trkpt><trkpt lat="44.9939467" lon="11.7103133"><ele>5.0</ele><time>2026-03-22T08:25:05.17Z</time></trkpt><trkpt lat="44.9939717" lon="11.7102083"><ele>5.0</ele><time>2026-03-22T08:25:06.173Z</time></trkpt><trkpt lat="44.9939983" lon="11.7101017"><ele>5.0</ele><time>2026-03-22T08:25:07.142Z</time></trkpt><trkpt lat="44.994025" lon="11.7099967"><ele>5.0</ele><time>2026-03-22T08:25:08.163Z</time></trkpt><trkpt lat="44.99405" lon="11.7098917"><ele>5.0</ele><time>2026-03-22T08:25:09.163Z</time></trkpt><trkpt lat="44.9940767" lon="11.7097883"><ele>5.0</ele><time>2026-03-22T08:25:10.157Z</time></trkpt><trkpt lat="44.9941017" lon="11.70969"><ele>5.0</ele><time>2026-03-22T08:25:11.156Z</time></trkpt><trkpt lat="44.9941283" lon="11.709595"><ele>5.0</ele><time>2026-03-22T08:25:12.129Z</time></trkpt><trkpt lat="44.9941533" lon="11.7095"><ele>5.0</ele><time>2026-03-22T08:25:13.132Z</time></trkpt><trkpt lat="44.9941783" lon="11.7094067"><ele>5.0</ele><time>2026-03-22T08:25:14.132Z</time></trkpt><trkpt lat="44.9942" lon="11.7093117"><ele>5.0</ele><time>2026-03-22T08:25:15.135Z</time></trkpt><trkpt lat="44.9942217" lon="11.7092133"><ele>5.0</ele><time>2026-03-22T08:25:16.161Z</time></trkpt><trkpt lat="44.994245" lon="11.7091183"><ele>5.0</ele><time>2026-03-22T08:25:17.164Z</time></trkpt><trkpt lat="44.9942683" lon="11.709025"><ele>5.0</ele><time>2026-03-22T08:25:18.135Z</time></trkpt><trkpt lat="44.994295" lon="11.7089317"><ele>5.0</ele><time>2026-03-22T08:25:19.161Z</time></trkpt><trkpt lat="44.9943183" lon="11.708835"><ele>5.0</ele><time>2026-03-22T08:25:20.161Z</time></trkpt><trkpt lat="44.9943467" lon="11.708735"><ele>5.0</ele><time>2026-03-22T08:25:21.165Z</time></trkpt><trkpt lat="44.9943717" lon="11.7086333"><ele>5.0</ele><time>2026-03-22T08:25:22.167Z</time></trkpt><trkpt lat="44.9944" lon="11.7085317"><ele>5.0</ele><time>2026-03-22T08:25:23.161Z</time></trkpt><trkpt lat="44.9944267" lon="11.7084283"><ele>5.0</ele><time>2026-03-22T08:25:24.168Z</time></trkpt><trkpt lat="44.9944517" lon="11.7083233"><ele>5.0</ele><time>2026-03-22T08:25:25.16Z</time></trkpt><trkpt lat="44.9944783" lon="11.7082183"><ele>5.0</ele><time>2026-03-22T08:25:26.167Z</time></trkpt><trkpt lat="44.9945067" lon="11.7081183"><ele>5.0</ele><time>2026-03-22T08:25:27.169Z</time></trkpt><trkpt lat="44.9945333" lon="11.7080183"><ele>5.0</ele><time>2026-03-22T08:25:28.168Z</time></trkpt><trkpt lat="44.99456" lon="11.707915"><ele>5.0</ele><time>2026-03-22T08:25:29.164Z</time></trkpt><trkpt lat="44.9945833" lon="11.70781"><ele>5.0</ele><time>2026-03-22T08:25:30.163Z</time></trkpt><trkpt lat="44.99461" lon="11.7077067"><ele>5.0</ele><time>2026-03-22T08:25:31.165Z</time></trkpt><trkpt lat="44.9946367" lon="11.7076033"><ele>5.0</ele><time>2026-03-22T08:25:32.168Z</time></trkpt><trkpt lat="44.994665" lon="11.7075017"><ele>5.0</ele><time>2026-03-22T08:25:33.169Z</time></trkpt><trkpt lat="44.9946933" lon="11.7073983"><ele>5.0</ele><time>2026-03-22T08:25:34.166Z</time></trkpt><trkpt lat="44.99472" lon="11.707295"><ele>5.0</ele><time>2026-03-22T08:25:35.17Z</time></trkpt><trkpt lat="44.9947483" lon="11.7071933"><ele>5.0</ele><time>2026-03-22T08:25:36.169Z</time></trkpt><trkpt lat="44.994775" lon="11.7070917"><ele>5.0</ele><time>2026-03-22T08:25:37.168Z</time></trkpt><trkpt lat="44.9948017" lon="11.70699"><ele>5.0</ele><time>2026-03-22T08:25:38.169Z</time></trkpt><trkpt lat="44.9948283" lon="11.7068883"><ele>5.0</ele><time>2026-03-22T08:25:39.136Z</time></trkpt><trkpt lat="44.994855" lon="11.7067867"><ele>5.0</ele><time>2026-03-22T08:25:40.163Z</time></trkpt><trkpt lat="44.9948833" lon="11.706685"><ele>5.0</ele><time>2026-03-22T08:25:41.17Z</time></trkpt><trkpt lat="44.9949117" lon="11.706585"><ele>5.0</ele><time>2026-03-22T08:25:42.167Z</time></trkpt><trkpt lat="44.99494" lon="11.7064833"><ele>5.0</ele><time>2026-03-22T08:25:43.174Z</time></trkpt><trkpt lat="44.99497" lon="11.706385"><ele>5.0</ele><time>2026-03-22T08:25:44.164Z</time></trkpt><trkpt lat="44.9949967" lon="11.7062867"><ele>5.0</ele><time>2026-03-22T08:25:45.158Z</time></trkpt><trkpt lat="44.9950233" lon="11.706185"><ele>5.0</ele><time>2026-03-22T08:25:46.172Z</time></trkpt><trkpt lat="44.9950483" lon="11.7060817"><ele>4.714285714285714</ele><time>2026-03-22T08:25:47.159Z</time></trkpt><trkpt lat="44.995075" lon="11.7059817"><ele>4.428571428571429</ele><time>2026-03-22T08:25:48.158Z</time></trkpt><trkpt lat="44.9951017" lon="11.70588"><ele>4.142857142857142</ele><time>2026-03-22T08:25:49.164Z</time></trkpt><trkpt lat="44.9951267" lon="11.7057783"><ele>3.8571428571428568</ele><time>2026-03-22T08:25:50.163Z</time></trkpt><trkpt lat="44.9951533" lon="11.70568"><ele>3.571428571428571</ele><time>2026-03-22T08:25:51.167Z</time></trkpt><trkpt lat="44.9951783" lon="11.705585"><ele>3.2857142857142856</ele><time>2026-03-22T08:25:52.168Z</time></trkpt><trkpt lat="44.9952017" lon="11.70549"><ele>3.0</ele><time>2026-03-22T08:25:53.129Z</time></trkpt><trkpt lat="44.995225" lon="11.7054"><ele>2.9999999999999996</ele><time>2026-03-22T08:25:54.156Z</time></trkpt><trkpt lat="44.9952483" lon="11.7053083"><ele>3.0</ele><time>2026-03-22T08:25:55.148Z</time></trkpt><trkpt lat="44.9952733" lon="11.7052167"><ele>3.0</ele><time>2026-03-22T08:25:56.16Z</time></trkpt><trkpt lat="44.9952967" lon="11.7051267"><ele>3.0</ele><time>2026-03-22T08:25:57.166Z</time></trkpt><trkpt lat="44.9953183" lon="11.705035"><ele>3.0</ele><time>2026-03-22T08:25:58.144Z</time></trkpt><trkpt lat="44.9953417" lon="11.704945"><ele>2.9999999999999996</ele><time>2026-03-22T08:25:59.162Z</time></trkpt><trkpt lat="44.9953617" lon="11.704855"><ele>3.0</ele><time>2026-03-22T08:26:00.147Z</time></trkpt><trkpt lat="44.9953833" lon="11.704765"><ele>2.9999999999999996</ele><time>2026-03-22T08:26:01.167Z</time></trkpt><trkpt lat="44.9954067" lon="11.7046733"><ele>3.0</ele><time>2026-03-22T08:26:02.165Z</time></trkpt><trkpt lat="44.9954317" lon="11.7045817"><ele>3.0</ele><time>2026-03-22T08:26:03.166Z</time></trkpt><trkpt lat="44.99546" lon="11.7044917"><ele>3.0</ele><time>2026-03-22T08:26:04.168Z</time></trkpt><trkpt lat="44.9954867" lon="11.7043983"><ele>3.0</ele><time>2026-03-22T08:26:05.172Z</time></trkpt><trkpt lat="44.9955133" lon="11.704305"><ele>2.9999999999999996</ele><time>2026-03-22T08:26:06.172Z</time></trkpt><trkpt lat="44.99554" lon="11.704215"><ele>3.0</ele><time>2026-03-22T08:26:07.165Z</time></trkpt><trkpt lat="44.995565" lon="11.7041217"><ele>3.1428571428571423</ele><time>2026-03-22T08:26:08.166Z</time></trkpt><trkpt lat="44.9955883" lon="11.704025"><ele>3.2857142857142856</ele><time>2026-03-22T08:26:09.163Z</time></trkpt><trkpt lat="44.995615" lon="11.7039283"><ele>3.4285714285714284</ele><time>2026-03-22T08:26:10.17Z</time></trkpt><trkpt lat="44.9956383" lon="11.70383"><ele>3.571428571428571</ele><time>2026-03-22T08:26:11.164Z</time></trkpt><trkpt lat="44.9956633" lon="11.7037317"><ele>3.714285714285714</ele><time>2026-03-22T08:26:12.167Z</time></trkpt><trkpt lat="44.9956883" lon="11.7036333"><ele>3.8571428571428568</ele><time>2026-03-22T08:26:13.167Z</time></trkpt><trkpt lat="44.995715" lon="11.7035333"><ele>4.0</ele><time>2026-03-22T08:26:14.17Z</time></trkpt><trkpt lat="44.9957417" lon="11.7034367"><ele>3.9999999999999996</ele><time>2026-03-22T08:26:15.143Z</time></trkpt><trkpt lat="44.9957683" lon="11.70334"><ele>4.0</ele><time>2026-03-22T08:26:16.141Z</time></trkpt><trkpt lat="44.995795" lon="11.7032417"><ele>4.0</ele><time>2026-03-22T08:26:17.169Z</time></trkpt><trkpt lat="44.99582" lon="11.7031417"><ele>4.0</ele><time>2026-03-22T08:26:18.149Z</time></trkpt><trkpt lat="44.995845" lon="11.7030417"><ele>3.9999999999999996</ele><time>2026-03-22T08:26:19.166Z</time></trkpt><trkpt lat="44.9958717" lon="11.70294"><ele>4.0</ele><time>2026-03-22T08:26:20.168Z</time></trkpt><trkpt lat="44.9958983" lon="11.70284"><ele>4.0</ele><time>2026-03-22T08:26:21.168Z</time></trkpt><trkpt lat="44.995925" lon="11.7027417"><ele>3.9999999999999996</ele><time>2026-03-22T08:26:22.163Z</time></trkpt><trkpt lat="44.99595" lon="11.7026417"><ele>4.0</ele><time>2026-03-22T08:26:23.163Z</time></trkpt><trkpt lat="44.9959767" lon="11.7025433"><ele>4.0</ele><time>2026-03-22T08:26:24.166Z</time></trkpt><trkpt lat="44.9960033" lon="11.7024433"><ele>3.9999999999999996</ele><time>2026-03-22T08:26:25.167Z</time></trkpt><trkpt lat="44.9960283" lon="11.702345"><ele>4.0</ele><time>2026-03-22T08:26:26.167Z</time></trkpt><trkpt lat="44.996055" lon="11.7022467"><ele>4.0</ele><time>2026-03-22T08:26:27.142Z</time></trkpt><trkpt lat="44.99608" lon="11.7021483"><ele>3.9999999999999996</ele><time>2026-03-22T08:26:28.159Z</time></trkpt><trkpt lat="44.9961067" lon="11.7020467"><ele>4.0</ele><time>2026-03-22T08:26:29.167Z</time></trkpt><trkpt lat="44.99613" lon="11.7019467"><ele>4.0</ele><time>2026-03-22T08:26:30.165Z</time></trkpt><trkpt lat="44.996155" lon="11.7018483"><ele>4.0</ele><time>2026-03-22T08:26:31.169Z</time></trkpt><trkpt lat="44.9961783" lon="11.7017483"><ele>3.9999999999999996</ele><time>2026-03-22T08:26:32.131Z</time></trkpt><trkpt lat="44.996205" lon="11.7016483"><ele>4.0</ele><time>2026-03-22T08:26:33.156Z</time></trkpt><trkpt lat="44.9962333" lon="11.7015467"><ele>3.9999999999999996</ele><time>2026-03-22T08:26:34.165Z</time></trkpt><trkpt lat="44.9962617" lon="11.7014483"><ele>4.0</ele><time>2026-03-22T08:26:35.167Z</time></trkpt><trkpt lat="44.99629" lon="11.701345"><ele>4.0</ele><time>2026-03-22T08:26:36.171Z</time></trkpt><trkpt lat="44.9963183" lon="11.7012433"><ele>4.0</ele><time>2026-03-22T08:26:37.167Z</time></trkpt><trkpt lat="44.9963433" lon="11.7011367"><ele>3.9999999999999996</ele><time>2026-03-22T08:26:38.169Z</time></trkpt><trkpt lat="44.99637" lon="11.70103"><ele>4.0</ele><time>2026-03-22T08:26:39.167Z</time></trkpt><trkpt lat="44.9963967" lon="11.7009233"><ele>3.9999999999999996</ele><time>2026-03-22T08:26:40.169Z</time></trkpt><trkpt lat="44.9964217" lon="11.7008183"><ele>4.0</ele><time>2026-03-22T08:26:41.165Z</time></trkpt><trkpt lat="44.99645" lon="11.7007133"><ele>4.0</ele><time>2026-03-22T08:26:42.167Z</time></trkpt><trkpt lat="44.9964767" lon="11.700605"><ele>4.0</ele><time>2026-03-22T08:26:43.169Z</time></trkpt><trkpt lat="44.9965033" lon="11.7005033"><ele>3.9999999999999996</ele><time>2026-03-22T08:26:44.167Z</time></trkpt><trkpt lat="44.9965283" lon="11.7004017"><ele>4.0</ele><time>2026-03-22T08:26:45.165Z</time></trkpt><trkpt lat="44.996555" lon="11.7003"><ele>4.166666666666666</ele><time>2026-03-22T08:26:46.16Z</time></trkpt><trkpt lat="44.99658" lon="11.7001967"><ele>4.333333333333333</ele><time>2026-03-22T08:26:47.149Z</time></trkpt><trkpt lat="44.9966033" lon="11.7000917"><ele>4.5</ele><time>2026-03-22T08:26:48.15Z</time></trkpt><trkpt lat="44.9966283" lon="11.6999917"><ele>4.666666666666667</ele><time>2026-03-22T08:26:49.165Z</time></trkpt><trkpt lat="44.996655" lon="11.69989"><ele>4.833333333333334</ele><time>2026-03-22T08:26:50.176Z</time></trkpt><trkpt lat="44.9966833" lon="11.69979"><ele>5.0</ele><time>2026-03-22T08:26:51.167Z</time></trkpt><trkpt lat="44.99671" lon="11.6996883"><ele>5.0</ele><time>2026-03-22T08:26:52.163Z</time></trkpt><trkpt lat="44.996735" lon="11.699585"><ele>5.0</ele><time>2026-03-22T08:26:53.132Z</time></trkpt><trkpt lat="44.9967617" lon="11.699485"><ele>5.0</ele><time>2026-03-22T08:26:54.164Z</time></trkpt><trkpt lat="44.9967867" lon="11.6993867"><ele>5.0</ele><time>2026-03-22T08:26:55.158Z</time></trkpt><trkpt lat="44.9968117" lon="11.6992867"><ele>5.0</ele><time>2026-03-22T08:26:56.17Z</time></trkpt><trkpt lat="44.9968383" lon="11.6991817"><ele>5.0</ele><time>2026-03-22T08:26:57.169Z</time></trkpt><trkpt lat="44.996865" lon="11.69908"><ele>4.857142857142857</ele><time>2026-03-22T08:26:58.166Z</time></trkpt><trkpt lat="44.99689" lon="11.69898"><ele>4.714285714285714</ele><time>2026-03-22T08:26:59.155Z</time></trkpt><trkpt lat="44.996915" lon="11.69888"><ele>4.571428571428571</ele><time>2026-03-22T08:27:00.167Z</time></trkpt><trkpt lat="44.9969417" lon="11.6987833"><ele>4.428571428571429</ele><time>2026-03-22T08:27:01.164Z</time></trkpt><trkpt lat="44.9969683" lon="11.6986867"><ele>4.285714285714286</ele><time>2026-03-22T08:27:02.17Z</time></trkpt><trkpt lat="44.9969917" lon="11.698585"><ele>4.142857142857142</ele><time>2026-03-22T08:27:03.169Z</time></trkpt><trkpt lat="44.9970167" lon="11.698485"><ele>4.0</ele><time>2026-03-22T08:27:04.155Z</time></trkpt><trkpt lat="44.997045" lon="11.698385"><ele>3.9999999999999996</ele><time>2026-03-22T08:27:05.161Z</time></trkpt><trkpt lat="44.9970733" lon="11.6982833"><ele>4.0</ele><time>2026-03-22T08:27:06.165Z</time></trkpt><trkpt lat="44.9971" lon="11.69818"><ele>4.0</ele><time>2026-03-22T08:27:07.166Z</time></trkpt><trkpt lat="44.9971283" lon="11.6980767"><ele>4.0</ele><time>2026-03-22T08:27:08.165Z</time></trkpt><trkpt lat="44.9971533" lon="11.6979733"><ele>3.9999999999999996</ele><time>2026-03-22T08:27:09.168Z</time></trkpt><trkpt lat="44.9971783" lon="11.6978733"><ele>4.0</ele><time>2026-03-22T08:27:10.167Z</time></trkpt><trkpt lat="44.9972067" lon="11.697775"><ele>4.166666666666666</ele><time>2026-03-22T08:27:11.163Z</time></trkpt><trkpt lat="44.997235" lon="11.697675"><ele>4.333333333333333</ele><time>2026-03-22T08:27:12.166Z</time></trkpt><trkpt lat="44.9972633" lon="11.6975733"><ele>4.5</ele><time>2026-03-22T08:27:13.167Z</time></trkpt><trkpt lat="44.9972917" lon="11.6974733"><ele>4.666666666666667</ele><time>2026-03-22T08:27:14.155Z</time></trkpt><trkpt lat="44.99732" lon="11.6973733"><ele>4.833333333333334</ele><time>2026-03-22T08:27:15.163Z</time></trkpt><trkpt lat="44.9973483" lon="11.6972717"><ele>5.0</ele><time>2026-03-22T08:27:16.147Z</time></trkpt><trkpt lat="44.997375" lon="11.6971683"><ele>5.0</ele><time>2026-03-22T08:27:17.158Z</time></trkpt><trkpt lat="44.9974" lon="11.697065"><ele>5.0</ele><time>2026-03-22T08:27:18.144Z</time></trkpt><trkpt lat="44.9974267" lon="11.6969617"><ele>5.0</ele><time>2026-03-22T08:27:19.155Z</time></trkpt><trkpt lat="44.9974533" lon="11.6968583"><ele>5.0</ele><time>2026-03-22T08:27:20.16Z</time></trkpt><trkpt lat="44.99748" lon="11.696755"><ele>5.0</ele><time>2026-03-22T08:27:21.166Z</time></trkpt><trkpt lat="44.9975067" lon="11.6966533"><ele>5.0</ele><time>2026-03-22T08:27:22.161Z</time></trkpt><trkpt lat="44.9975333" lon="11.6965517"><ele>4.833333333333334</ele><time>2026-03-22T08:27:23.155Z</time></trkpt><trkpt lat="44.99756" lon="11.6964467"><ele>4.666666666666667</ele><time>2026-03-22T08:27:24.167Z</time></trkpt><trkpt lat="44.9975867" lon="11.696345"><ele>4.5</ele><time>2026-03-22T08:27:25.133Z</time></trkpt><trkpt lat="44.9976133" lon="11.6962417"><ele>4.333333333333333</ele><time>2026-03-22T08:27:26.164Z</time></trkpt><trkpt lat="44.9976417" lon="11.69614"><ele>4.166666666666666</ele><time>2026-03-22T08:27:27.168Z</time></trkpt><trkpt lat="44.9976683" lon="11.6960383"><ele>4.0</ele><time>2026-03-22T08:27:28.165Z</time></trkpt><trkpt lat="44.997695" lon="11.6959333"><ele>3.833333333333333</ele><time>2026-03-22T08:27:29.167Z</time></trkpt><trkpt lat="44.9977217" lon="11.69583"><ele>3.6666666666666665</ele><time>2026-03-22T08:27:30.161Z</time></trkpt><trkpt lat="44.99775" lon="11.6957267"><ele>3.5</ele><time>2026-03-22T08:27:31.164Z</time></trkpt><trkpt lat="44.9977783" lon="11.69562"><ele>3.333333333333333</ele><time>2026-03-22T08:27:32.167Z</time></trkpt><trkpt lat="44.997805" lon="11.6955133"><ele>3.1666666666666665</ele><time>2026-03-22T08:27:33.166Z</time></trkpt><trkpt lat="44.9978333" lon="11.6954083"><ele>3.0</ele><time>2026-03-22T08:27:34.169Z</time></trkpt><trkpt lat="44.9978617" lon="11.695305"><ele>3.1666666666666665</ele><time>2026-03-22T08:27:35.168Z</time></trkpt><trkpt lat="44.99789" lon="11.6952"><ele>3.333333333333333</ele><time>2026-03-22T08:27:36.163Z</time></trkpt><trkpt lat="44.9979167" lon="11.695095"><ele>3.5</ele><time>2026-03-22T08:27:37.165Z</time></trkpt><trkpt lat="44.997945" lon="11.69499"><ele>3.6666666666666665</ele><time>2026-03-22T08:27:38.167Z</time></trkpt><trkpt lat="44.9979733" lon="11.6948833"><ele>3.833333333333333</ele><time>2026-03-22T08:27:39.165Z</time></trkpt><trkpt lat="44.9980017" lon="11.694775"><ele>4.0</ele><time>2026-03-22T08:27:40.159Z</time></trkpt><trkpt lat="44.9980283" lon="11.6946683"><ele>3.9999999999999996</ele><time>2026-03-22T08:27:41.169Z</time></trkpt><trkpt lat="44.998055" lon="11.69456"><ele>4.0</ele><time>2026-03-22T08:27:42.166Z</time></trkpt><trkpt lat="44.9980817" lon="11.694455"><ele>4.0</ele><time>2026-03-22T08:27:43.159Z</time></trkpt><trkpt lat="44.9981083" lon="11.69435"><ele>4.0</ele><time>2026-03-22T08:27:44.166Z</time></trkpt><trkpt lat="44.9981367" lon="11.694245"><ele>3.9999999999999996</ele><time>2026-03-22T08:27:45.166Z</time></trkpt><trkpt lat="44.9981633" lon="11.694135"><ele>4.0</ele><time>2026-03-22T08:27:46.142Z</time></trkpt><trkpt lat="44.99819" lon="11.6940267"><ele>4.166666666666666</ele><time>2026-03-22T08:27:47.157Z</time></trkpt><trkpt lat="44.9982183" lon="11.69392"><ele>4.333333333333333</ele><time>2026-03-22T08:27:48.167Z</time></trkpt><trkpt lat="44.9982467" lon="11.6938133"><ele>4.5</ele><time>2026-03-22T08:27:49.166Z</time></trkpt><trkpt lat="44.998275" lon="11.6937083"><ele>4.666666666666667</ele><time>2026-03-22T08:27:50.161Z</time></trkpt><trkpt lat="44.9983033" lon="11.6936067"><ele>4.833333333333334</ele><time>2026-03-22T08:27:51.162Z</time></trkpt><trkpt lat="44.99833" lon="11.6935033"><ele>5.0</ele><time>2026-03-22T08:27:52.161Z</time></trkpt><trkpt lat="44.9983567" lon="11.6934"><ele>4.5</ele><time>2026-03-22T08:27:53.155Z</time></trkpt><trkpt lat="44.998385" lon="11.6932933"><ele>4.0</ele><time>2026-03-22T08:27:54.167Z</time></trkpt><trkpt lat="44.9984117" lon="11.693185"><ele>3.5</ele><time>2026-03-22T08:27:55.165Z</time></trkpt><trkpt lat="44.99844" lon="11.6930817"><ele>3.0</ele><time>2026-03-22T08:27:56.155Z</time></trkpt><trkpt lat="44.9984667" lon="11.692975"><ele>2.5</ele><time>2026-03-22T08:27:57.145Z</time></trkpt><trkpt lat="44.998495" lon="11.69287"><ele>2.0</ele><time>2026-03-22T08:27:58.164Z</time></trkpt><trkpt lat="44.9985217" lon="11.6927667"><ele>2.5</ele><time>2026-03-22T08:27:59.169Z</time></trkpt><trkpt lat="44.99855" lon="11.692665"><ele>3.0</ele><time>2026-03-22T08:28:00.165Z</time></trkpt><trkpt lat="44.9985767" lon="11.6925617"><ele>3.5</ele><time>2026-03-22T08:28:01.169Z</time></trkpt><trkpt lat="44.9986017" lon="11.6924567"><ele>4.0</ele><time>2026-03-22T08:28:02.173Z</time></trkpt><trkpt lat="44.9986267" lon="11.6923517"><ele>4.5</ele><time>2026-03-22T08:28:03.172Z</time></trkpt><trkpt lat="44.9986517" lon="11.692245"><ele>5.0</ele><time>2026-03-22T08:28:04.157Z</time></trkpt><trkpt lat="44.9986783" lon="11.6921433"><ele>5.0</ele><time>2026-03-22T08:28:05.156Z</time></trkpt><trkpt lat="44.9987083" lon="11.69204"><ele>5.0</ele><time>2026-03-22T08:28:06.17Z</time></trkpt><trkpt lat="44.9987367" lon="11.6919367"><ele>5.0</ele><time>2026-03-22T08:28:07.162Z</time></trkpt><trkpt lat="44.9987633" lon="11.6918317"><ele>5.0</ele><time>2026-03-22T08:28:08.16Z</time></trkpt><trkpt lat="44.99879" lon="11.6917267"><ele>5.0</ele><time>2026-03-22T08:28:09.162Z</time></trkpt><trkpt lat="44.9988167" lon="11.6916217"><ele>5.0</ele><time>2026-03-22T08:28:10.164Z</time></trkpt><trkpt lat="44.9988433" lon="11.69152"><ele>5.0</ele><time>2026-03-22T08:28:11.167Z</time></trkpt><trkpt lat="44.9988717" lon="11.69142"><ele>5.0</ele><time>2026-03-22T08:28:12.16Z</time></trkpt><trkpt lat="44.9988967" lon="11.6913233"><ele>5.0</ele><time>2026-03-22T08:28:13.156Z</time></trkpt><trkpt lat="44.9989217" lon="11.691225"><ele>5.0</ele><time>2026-03-22T08:28:14.167Z</time></trkpt><trkpt lat="44.99895" lon="11.6911267"><ele>5.0</ele><time>2026-03-22T08:28:15.167Z</time></trkpt><trkpt lat="44.9989767" lon="11.691025"><ele>5.0</ele><time>2026-03-22T08:28:16.167Z</time></trkpt><trkpt lat="44.9990033" lon="11.690925"><ele>5.333333333333334</ele><time>2026-03-22T08:28:17.141Z</time></trkpt><trkpt lat="44.9990283" lon="11.690825"><ele>5.666666666666667</ele><time>2026-03-22T08:28:18.138Z</time></trkpt><trkpt lat="44.999055" lon="11.6907217"><ele>6.0</ele><time>2026-03-22T08:28:19.16Z</time></trkpt><trkpt lat="44.9990817" lon="11.6906217"><ele>6.333333333333334</ele><time>2026-03-22T08:28:20.16Z</time></trkpt><trkpt lat="44.9991083" lon="11.6905217"><ele>6.666666666666667</ele><time>2026-03-22T08:28:21.164Z</time></trkpt><trkpt lat="44.9991333" lon="11.69042"><ele>7.0</ele><time>2026-03-22T08:28:22.166Z</time></trkpt><trkpt lat="44.99916" lon="11.6903183"><ele>6.571428571428571</ele><time>2026-03-22T08:28:23.165Z</time></trkpt><trkpt lat="44.9991867" lon="11.6902217"><ele>6.142857142857142</ele><time>2026-03-22T08:28:24.163Z</time></trkpt><trkpt lat="44.9992117" lon="11.6901217"><ele>5.714285714285714</ele><time>2026-03-22T08:28:25.159Z</time></trkpt><trkpt lat="44.9992383" lon="11.6900233"><ele>5.285714285714286</ele><time>2026-03-22T08:28:26.165Z</time></trkpt><trkpt lat="44.9992633" lon="11.6899233"><ele>4.857142857142857</ele><time>2026-03-22T08:28:27.166Z</time></trkpt><trkpt lat="44.9992883" lon="11.6898233"><ele>4.428571428571429</ele><time>2026-03-22T08:28:28.162Z</time></trkpt><trkpt lat="44.999315" lon="11.689725"><ele>4.0</ele><time>2026-03-22T08:28:29.151Z</time></trkpt><trkpt lat="44.99934" lon="11.6896267"><ele>4.0</ele><time>2026-03-22T08:28:30.161Z</time></trkpt><trkpt lat="44.999365" lon="11.6895283"><ele>3.9999999999999996</ele><time>2026-03-22T08:28:31.166Z</time></trkpt><trkpt lat="44.99939" lon="11.6894317"><ele>4.0</ele><time>2026-03-22T08:28:32.171Z</time></trkpt><trkpt lat="44.999415" lon="11.689335"><ele>4.0</ele><time>2026-03-22T08:28:33.154Z</time></trkpt><trkpt lat="44.99944" lon="11.6892367"><ele>3.9999999999999996</ele><time>2026-03-22T08:28:34.16Z</time></trkpt><trkpt lat="44.999465" lon="11.689135"><ele>4.0</ele><time>2026-03-22T08:28:35.168Z</time></trkpt><trkpt lat="44.9994917" lon="11.6890333"><ele>4.0</ele><time>2026-03-22T08:28:36.166Z</time></trkpt><trkpt lat="44.9995183" lon="11.6889333"><ele>4.166666666666666</ele><time>2026-03-22T08:28:37.168Z</time></trkpt><trkpt lat="44.9995467" lon="11.6888367"><ele>4.333333333333333</ele><time>2026-03-22T08:28:38.168Z</time></trkpt><trkpt lat="44.9995717" lon="11.6887367"><ele>4.5</ele><time>2026-03-22T08:28:39.166Z</time></trkpt><trkpt lat="44.9995983" lon="11.688635"><ele>4.666666666666667</ele><time>2026-03-22T08:28:40.163Z</time></trkpt><trkpt lat="44.999625" lon="11.688535"><ele>4.833333333333334</ele><time>2026-03-22T08:28:41.165Z</time></trkpt><trkpt lat="44.9996517" lon="11.688435"><ele>5.0</ele><time>2026-03-22T08:28:42.163Z</time></trkpt><trkpt lat="44.9996767" lon="11.688335"><ele>5.0</ele><time>2026-03-22T08:28:43.167Z</time></trkpt><trkpt lat="44.9997033" lon="11.6882317"><ele>5.0</ele><time>2026-03-22T08:28:44.168Z</time></trkpt><trkpt lat="44.9997267" lon="11.6881283"><ele>5.0</ele><time>2026-03-22T08:28:45.153Z</time></trkpt><trkpt lat="44.999755" lon="11.6880183"><ele>5.0</ele><time>2026-03-22T08:28:46.158Z</time></trkpt><trkpt lat="44.9997817" lon="11.6879117"><ele>5.0</ele><time>2026-03-22T08:28:47.163Z</time></trkpt><trkpt lat="44.9998083" lon="11.6878033"><ele>5.0</ele><time>2026-03-22T08:28:48.165Z</time></trkpt><trkpt lat="44.999835" lon="11.6876933"><ele>5.0</ele><time>2026-03-22T08:28:49.167Z</time></trkpt><trkpt lat="44.9998633" lon="11.6875867"><ele>5.0</ele><time>2026-03-22T08:28:50.153Z</time></trkpt><trkpt lat="44.9998917" lon="11.6874783"><ele>5.0</ele><time>2026-03-22T08:28:51.16Z</time></trkpt><trkpt lat="44.99992" lon="11.687375"><ele>5.0</ele><time>2026-03-22T08:28:52.165Z</time></trkpt><trkpt lat="44.99995" lon="11.6872717"><ele>5.0</ele><time>2026-03-22T08:28:53.166Z</time></trkpt><trkpt lat="44.9999783" lon="11.687165"><ele>5.0</ele><time>2026-03-22T08:28:54.168Z</time></trkpt><trkpt lat="45.0000083" lon="11.687055"><ele>5.0</ele><time>2026-03-22T08:28:55.155Z</time></trkpt><trkpt lat="45.000035" lon="11.686945"><ele>5.0</ele><time>2026-03-22T08:28:56.161Z</time></trkpt><trkpt lat="45.0000617" lon="11.6868383"><ele>5.0</ele><time>2026-03-22T08:28:57.159Z</time></trkpt><trkpt lat="45.00009" lon="11.68673"><ele>5.0</ele><time>2026-03-22T08:28:58.167Z</time></trkpt><trkpt lat="45.0001167" lon="11.6866217"><ele>5.0</ele><time>2026-03-22T08:28:59.167Z</time></trkpt><trkpt lat="45.000145" lon="11.6865167"><ele>5.0</ele><time>2026-03-22T08:29:00.158Z</time></trkpt><trkpt lat="45.0001717" lon="11.6864117"><ele>5.0</ele><time>2026-03-22T08:29:01.148Z</time></trkpt><trkpt lat="45.0002" lon="11.6863067"><ele>5.0</ele><time>2026-03-22T08:29:02.16Z</time></trkpt><trkpt lat="45.0002267" lon="11.686205"><ele>5.0</ele><time>2026-03-22T08:29:03.159Z</time></trkpt><trkpt lat="45.0002517" lon="11.6861033"><ele>5.0</ele><time>2026-03-22T08:29:04.166Z</time></trkpt><trkpt lat="45.00028" lon="11.686"><ele>5.0</ele><time>2026-03-22T08:29:05.157Z</time></trkpt><trkpt lat="45.0003067" lon="11.685895"><ele>5.0</ele><time>2026-03-22T08:29:06.168Z</time></trkpt><trkpt lat="45.0003333" lon="11.6857883"><ele>5.0</ele><time>2026-03-22T08:29:07.166Z</time></trkpt><trkpt lat="45.0003567" lon="11.6856833"><ele>5.0</ele><time>2026-03-22T08:29:08.167Z</time></trkpt><trkpt lat="45.000385" lon="11.68558"><ele>5.0</ele><time>2026-03-22T08:29:09.165Z</time></trkpt><trkpt lat="45.0004133" lon="11.6854767"><ele>5.0</ele><time>2026-03-22T08:29:10.167Z</time></trkpt><trkpt lat="45.00044" lon="11.6853733"><ele>5.0</ele><time>2026-03-22T08:29:11.143Z</time></trkpt><trkpt lat="45.0004683" lon="11.68527"><ele>5.0</ele><time>2026-03-22T08:29:12.157Z</time></trkpt><trkpt lat="45.000495" lon="11.6851667"><ele>5.0</ele><time>2026-03-22T08:29:13.168Z</time></trkpt><trkpt lat="45.00052" lon="11.6850667"><ele>5.0</ele><time>2026-03-22T08:29:14.166Z</time></trkpt><trkpt lat="45.0005467" lon="11.68497"><ele>5.0</ele><time>2026-03-22T08:29:15.167Z</time></trkpt><trkpt lat="45.0005733" lon="11.6848733"><ele>5.0</ele><time>2026-03-22T08:29:16.168Z</time></trkpt><trkpt lat="45.0006" lon="11.6847783"><ele>5.0</ele><time>2026-03-22T08:29:17.167Z</time></trkpt><trkpt lat="45.0006267" lon="11.6846833"><ele>5.0</ele><time>2026-03-22T08:29:18.138Z</time></trkpt><trkpt lat="45.000655" lon="11.6845883"><ele>5.0</ele><time>2026-03-22T08:29:19.159Z</time></trkpt><trkpt lat="45.000685" lon="11.6844967"><ele>4.857142857142857</ele><time>2026-03-22T08:29:20.167Z</time></trkpt><trkpt lat="45.000715" lon="11.6844033"><ele>4.714285714285714</ele><time>2026-03-22T08:29:21.163Z</time></trkpt><trkpt lat="45.0007433" lon="11.6843133"><ele>4.571428571428571</ele><time>2026-03-22T08:29:22.161Z</time></trkpt><trkpt lat="45.000775" lon="11.6842233"><ele>4.428571428571429</ele><time>2026-03-22T08:29:23.165Z</time></trkpt><trkpt lat="45.0008083" lon="11.6841317"><ele>4.285714285714286</ele><time>2026-03-22T08:29:24.172Z</time></trkpt><trkpt lat="45.0008433" lon="11.6840433"><ele>4.142857142857142</ele><time>2026-03-22T08:29:25.167Z</time></trkpt><trkpt lat="45.0008817" lon="11.6839533"><ele>4.0</ele><time>2026-03-22T08:29:26.165Z</time></trkpt><trkpt lat="45.0009233" lon="11.6838667"><ele>3.9999999999999996</ele><time>2026-03-22T08:29:27.135Z</time></trkpt><trkpt lat="45.0009667" lon="11.6837817"><ele>4.0</ele><time>2026-03-22T08:29:28.159Z</time></trkpt><trkpt lat="45.0010117" lon="11.6836983"><ele>4.0</ele><time>2026-03-22T08:29:29.157Z</time></trkpt><trkpt lat="45.0010567" lon="11.68361"><ele>4.0</ele><time>2026-03-22T08:29:30.165Z</time></trkpt><trkpt lat="45.0011017" lon="11.6835183"><ele>3.9999999999999996</ele><time>2026-03-22T08:29:31.163Z</time></trkpt><trkpt lat="45.0011467" lon="11.6834233"><ele>4.0</ele><time>2026-03-22T08:29:32.169Z</time></trkpt><trkpt lat="45.0011883" lon="11.6833333"><ele>3.9999999999999996</ele><time>2026-03-22T08:29:33.148Z</time></trkpt><trkpt lat="45.00123" lon="11.6832417"><ele>4.0</ele><time>2026-03-22T08:29:34.167Z</time></trkpt><trkpt lat="45.001275" lon="11.683155"><ele>4.0</ele><time>2026-03-22T08:29:35.168Z</time></trkpt><trkpt lat="45.00132" lon="11.6830683"><ele>4.0</ele><time>2026-03-22T08:29:36.134Z</time></trkpt><trkpt lat="45.001365" lon="11.6829817"><ele>3.9999999999999996</ele><time>2026-03-22T08:29:37.157Z</time></trkpt><trkpt lat="45.0014117" lon="11.682895"><ele>4.0</ele><time>2026-03-22T08:29:38.166Z</time></trkpt><trkpt lat="45.0014617" lon="11.6828117"><ele>3.833333333333333</ele><time>2026-03-22T08:29:39.167Z</time></trkpt><trkpt lat="45.0015117" lon="11.682725"><ele>3.6666666666666665</ele><time>2026-03-22T08:29:40.16Z</time></trkpt><trkpt lat="45.0015617" lon="11.6826417"><ele>3.5</ele><time>2026-03-22T08:29:41.153Z</time></trkpt><trkpt lat="45.0016083" lon="11.6825617"><ele>3.333333333333333</ele><time>2026-03-22T08:29:42.175Z</time></trkpt><trkpt lat="45.0016567" lon="11.6824817"><ele>3.1666666666666665</ele><time>2026-03-22T08:29:43.15Z</time></trkpt><trkpt lat="45.001705" lon="11.6824017"><ele>3.0</ele><time>2026-03-22T08:29:44.166Z</time></trkpt><trkpt lat="45.001755" lon="11.682325"><ele>2.8333333333333335</ele><time>2026-03-22T08:29:45.158Z</time></trkpt><trkpt lat="45.0018033" lon="11.6822483"><ele>2.6666666666666665</ele><time>2026-03-22T08:29:46.165Z</time></trkpt><trkpt lat="45.001855" lon="11.6821683"><ele>2.5</ele><time>2026-03-22T08:29:47.162Z</time></trkpt><trkpt lat="45.0019067" lon="11.6820883"><ele>2.333333333333333</ele><time>2026-03-22T08:29:48.164Z</time></trkpt><trkpt lat="45.0019617" lon="11.6820083"><ele>2.1666666666666665</ele><time>2026-03-22T08:29:49.164Z</time></trkpt><trkpt lat="45.0020167" lon="11.6819333"><ele>2.0</ele><time>2026-03-22T08:29:50.166Z</time></trkpt><trkpt lat="45.0020733" lon="11.6818617"><ele>1.9999999999999998</ele><time>2026-03-22T08:29:51.163Z</time></trkpt><trkpt lat="45.00213" lon="11.68179"><ele>2.0</ele><time>2026-03-22T08:29:52.164Z</time></trkpt><trkpt lat="45.002185" lon="11.6817183"><ele>2.0</ele><time>2026-03-22T08:29:53.161Z</time></trkpt><trkpt lat="45.00224" lon="11.681645"><ele>2.0</ele><time>2026-03-22T08:29:54.162Z</time></trkpt><trkpt lat="45.002295" lon="11.6815717"><ele>1.9999999999999998</ele><time>2026-03-22T08:29:55.167Z</time></trkpt><trkpt lat="45.0023533" lon="11.6815"><ele>2.0</ele><time>2026-03-22T08:29:56.164Z</time></trkpt><trkpt lat="45.0024083" lon="11.6814283"><ele>2.0</ele><time>2026-03-22T08:29:57.165Z</time></trkpt><trkpt lat="45.002465" lon="11.6813617"><ele>1.9999999999999998</ele><time>2026-03-22T08:29:58.159Z</time></trkpt><trkpt lat="45.0025233" lon="11.6812983"><ele>2.0</ele><time>2026-03-22T08:29:59.135Z</time></trkpt><trkpt lat="45.0025817" lon="11.681235"><ele>2.0</ele><time>2026-03-22T08:30:00.158Z</time></trkpt><trkpt lat="45.0026417" lon="11.6811733"><ele>1.9999999999999998</ele><time>2026-03-22T08:30:01.163Z</time></trkpt><trkpt lat="45.0027" lon="11.6811133"><ele>2.0</ele><time>2026-03-22T08:30:02.164Z</time></trkpt><trkpt lat="45.00276" lon="11.6810483"><ele>2.0</ele><time>2026-03-22T08:30:03.166Z</time></trkpt><trkpt lat="45.00282" lon="11.6809833"><ele>2.4285714285714284</ele><time>2026-03-22T08:30:04.158Z</time></trkpt><trkpt lat="45.0028783" lon="11.6809217"><ele>2.8571428571428568</ele><time>2026-03-22T08:30:05.161Z</time></trkpt><trkpt lat="45.00294" lon="11.6808633"><ele>3.2857142857142856</ele><time>2026-03-22T08:30:06.163Z</time></trkpt><trkpt lat="45.003" lon="11.680805"><ele>3.7142857142857144</ele><time>2026-03-22T08:30:07.161Z</time></trkpt><trkpt lat="45.0030583" lon="11.680745"><ele>4.142857142857143</ele><time>2026-03-22T08:30:08.165Z</time></trkpt><trkpt lat="45.003115" lon="11.680685"><ele>4.571428571428571</ele><time>2026-03-22T08:30:09.162Z</time></trkpt><trkpt lat="45.00317" lon="11.6806267"><ele>5.0</ele><time>2026-03-22T08:30:10.163Z</time></trkpt><trkpt lat="45.003225" lon="11.6805683"><ele>5.0</ele><time>2026-03-22T08:30:11.165Z</time></trkpt><trkpt lat="45.0032783" lon="11.6805133"><ele>5.0</ele><time>2026-03-22T08:30:12.164Z</time></trkpt><trkpt lat="45.0033317" lon="11.6804583"><ele>5.0</ele><time>2026-03-22T08:30:13.167Z</time></trkpt><trkpt lat="45.0033833" lon="11.6804067"><ele>5.0</ele><time>2026-03-22T08:30:14.169Z</time></trkpt><trkpt lat="45.00348" lon="11.680295"><ele>5.0</ele><time>2026-03-22T08:30:16.158Z</time></trkpt><trkpt lat="45.00353" lon="11.6802367"><ele>5.0</ele><time>2026-03-22T08:30:17.165Z</time></trkpt><trkpt lat="45.0035783" lon="11.6801783"><ele>5.0</ele><time>2026-03-22T08:30:18.162Z</time></trkpt><trkpt lat="45.0036283" lon="11.6801183"><ele>4.75</ele><time>2026-03-22T08:30:19.144Z</time></trkpt><trkpt lat="45.0037267" lon="11.6800133"><ele>4.5</ele><time>2026-03-22T08:30:21.162Z</time></trkpt><trkpt lat="45.00383" lon="11.67992"><ele>4.25</ele><time>2026-03-22T08:30:23.166Z</time></trkpt><trkpt lat="45.0039367" lon="11.6798433"><ele>4.0</ele><time>2026-03-22T08:30:25.165Z</time></trkpt><trkpt lat="45.0040383" lon="11.6797767"><ele>4.0</ele><time>2026-03-22T08:30:27.167Z</time></trkpt><trkpt lat="45.004135" lon="11.6797067"><ele>4.0</ele><time>2026-03-22T08:30:29.167Z</time></trkpt><trkpt lat="45.004235" lon="11.6796283"><ele>4.0</ele><time>2026-03-22T08:30:31.163Z</time></trkpt><trkpt lat="45.0043433" lon="11.67954"><ele>4.0</ele><time>2026-03-22T08:30:33.165Z</time></trkpt><trkpt lat="45.0044033" lon="11.6794933"><ele>4.0</ele><time>2026-03-22T08:30:34.166Z</time></trkpt><trkpt lat="45.0044633" lon="11.67945"><ele>3.9999999999999996</ele><time>2026-03-22T08:30:35.168Z</time></trkpt><trkpt lat="45.0045233" lon="11.679405"><ele>4.0</ele><time>2026-03-22T08:30:36.141Z</time></trkpt><trkpt lat="45.004585" lon="11.6793517"><ele>4.0</ele><time>2026-03-22T08:30:37.159Z</time></trkpt><trkpt lat="45.0046483" lon="11.679295"><ele>4.0</ele><time>2026-03-22T08:30:38.163Z</time></trkpt><trkpt lat="45.0047133" lon="11.679235"><ele>3.9999999999999996</ele><time>2026-03-22T08:30:39.164Z</time></trkpt><trkpt lat="45.00478" lon="11.6791733"><ele>4.0</ele><time>2026-03-22T08:30:40.162Z</time></trkpt><trkpt lat="45.0048467" lon="11.6791083"><ele>3.9999999999999996</ele><time>2026-03-22T08:30:41.167Z</time></trkpt><trkpt lat="45.0049133" lon="11.6790417"><ele>4.0</ele><time>2026-03-22T08:30:42.163Z</time></trkpt><trkpt lat="45.0049833" lon="11.678975"><ele>4.0</ele><time>2026-03-22T08:30:43.161Z</time></trkpt><trkpt lat="45.00505" lon="11.6789083"><ele>4.0</ele><time>2026-03-22T08:30:44.164Z</time></trkpt><trkpt lat="45.005115" lon="11.6788433"><ele>3.9999999999999996</ele><time>2026-03-22T08:30:45.157Z</time></trkpt><trkpt lat="45.0051783" lon="11.67878"><ele>4.0</ele><time>2026-03-22T08:30:46.159Z</time></trkpt><trkpt lat="45.0052467" lon="11.6787283"><ele>4.166666666666666</ele><time>2026-03-22T08:30:47.16Z</time></trkpt><trkpt lat="45.0053183" lon="11.67869"><ele>4.333333333333333</ele><time>2026-03-22T08:30:48.164Z</time></trkpt><trkpt lat="45.00539" lon="11.6786517"><ele>4.5</ele><time>2026-03-22T08:30:49.157Z</time></trkpt><trkpt lat="45.0054617" lon="11.6786167"><ele>4.666666666666667</ele><time>2026-03-22T08:30:50.165Z</time></trkpt><trkpt lat="45.005535" lon="11.678575"><ele>4.833333333333334</ele><time>2026-03-22T08:30:51.169Z</time></trkpt><trkpt lat="45.0056033" lon="11.67853"><ele>5.0</ele><time>2026-03-22T08:30:52.167Z</time></trkpt><trkpt lat="45.0056667" lon="11.6784917"><ele>5.0</ele><time>2026-03-22T08:30:53.164Z</time></trkpt><trkpt lat="45.005725" lon="11.6784533"><ele>5.0</ele><time>2026-03-22T08:30:54.168Z</time></trkpt><trkpt lat="45.00583" lon="11.678365"><ele>5.0</ele><time>2026-03-22T08:30:56.169Z</time></trkpt><trkpt lat="45.0059333" lon="11.6782583"><ele>5.0</ele><time>2026-03-22T08:30:58.152Z</time></trkpt><trkpt lat="45.005985" lon="11.6781983"><ele>5.0</ele><time>2026-03-22T08:30:59.166Z</time></trkpt><trkpt lat="45.0060367" lon="11.6781317"><ele>5.0</ele><time>2026-03-22T08:31:00.168Z</time></trkpt><trkpt lat="45.0060817" lon="11.678065"><ele>5.0</ele><time>2026-03-22T08:31:01.155Z</time></trkpt><trkpt lat="45.0061283" lon="11.6779933"><ele>5.0</ele><time>2026-03-22T08:31:02.163Z</time></trkpt><trkpt lat="45.006175" lon="11.6779167"><ele>5.0</ele><time>2026-03-22T08:31:03.154Z</time></trkpt><trkpt lat="45.0062233" lon="11.67784"><ele>5.0</ele><time>2026-03-22T08:31:04.163Z</time></trkpt><trkpt lat="45.00627" lon="11.6777617"><ele>5.0</ele><time>2026-03-22T08:31:05.166Z</time></trkpt><trkpt lat="45.0063183" lon="11.6776817"><ele>5.0</ele><time>2026-03-22T08:31:06.14Z</time></trkpt><trkpt lat="45.0063667" lon="11.6775983"><ele>4.833333333333334</ele><time>2026-03-22T08:31:07.153Z</time></trkpt><trkpt lat="45.0064117" lon="11.677515"><ele>4.666666666666667</ele><time>2026-03-22T08:31:08.134Z</time></trkpt><trkpt lat="45.0064583" lon="11.67743"><ele>4.5</ele><time>2026-03-22T08:31:09.152Z</time></trkpt><trkpt lat="45.0065033" lon="11.6773417"><ele>4.333333333333333</ele><time>2026-03-22T08:31:10.161Z</time></trkpt><trkpt lat="45.0065483" lon="11.6772533"><ele>4.166666666666666</ele><time>2026-03-22T08:31:11.167Z</time></trkpt><trkpt lat="45.0065917" lon="11.6771633"><ele>4.0</ele><time>2026-03-22T08:31:12.165Z</time></trkpt><trkpt lat="45.0066367" lon="11.6770733"><ele>4.0</ele><time>2026-03-22T08:31:13.167Z</time></trkpt><trkpt lat="45.00668" lon="11.676985"><ele>3.9999999999999996</ele><time>2026-03-22T08:31:14.168Z</time></trkpt><trkpt lat="45.0067217" lon="11.6769017"><ele>4.0</ele><time>2026-03-22T08:31:15.169Z</time></trkpt><trkpt lat="45.0067617" lon="11.67682"><ele>4.0</ele><time>2026-03-22T08:31:16.157Z</time></trkpt><trkpt lat="45.0068017" lon="11.6767367"><ele>3.9999999999999996</ele><time>2026-03-22T08:31:17.165Z</time></trkpt><trkpt lat="45.0068433" lon="11.6766533"><ele>4.0</ele><time>2026-03-22T08:31:18.163Z</time></trkpt><trkpt lat="45.006885" lon="11.67657"><ele>4.0</ele><time>2026-03-22T08:31:19.165Z</time></trkpt><trkpt lat="45.0069267" lon="11.6764883"><ele>4.142857142857142</ele><time>2026-03-22T08:31:20.166Z</time></trkpt><trkpt lat="45.0069667" lon="11.6764017"><ele>4.285714285714286</ele><time>2026-03-22T08:31:21.163Z</time></trkpt><trkpt lat="45.007005" lon="11.6763133"><ele>4.428571428571429</ele><time>2026-03-22T08:31:22.169Z</time></trkpt><trkpt lat="45.007045" lon="11.6762233"><ele>4.571428571428571</ele><time>2026-03-22T08:31:23.17Z</time></trkpt><trkpt lat="45.0070833" lon="11.676135"><ele>4.714285714285714</ele><time>2026-03-22T08:31:24.168Z</time></trkpt><trkpt lat="45.0071217" lon="11.6760483"><ele>4.857142857142857</ele><time>2026-03-22T08:31:25.169Z</time></trkpt><trkpt lat="45.00716" lon="11.6759667"><ele>5.0</ele><time>2026-03-22T08:31:26.168Z</time></trkpt><trkpt lat="45.0071983" lon="11.6758833"><ele>5.0</ele><time>2026-03-22T08:31:27.165Z</time></trkpt><trkpt lat="45.0072367" lon="11.6757983"><ele>5.0</ele><time>2026-03-22T08:31:28.168Z</time></trkpt><trkpt lat="45.0072783" lon="11.6757083"><ele>5.0</ele><time>2026-03-22T08:31:29.127Z</time></trkpt><trkpt lat="45.0073183" lon="11.6756183"><ele>5.0</ele><time>2026-03-22T08:31:30.163Z</time></trkpt><trkpt lat="45.0073567" lon="11.6755283"><ele>5.0</ele><time>2026-03-22T08:31:31.164Z</time></trkpt><trkpt lat="45.007395" lon="11.6754367"><ele>5.0</ele><time>2026-03-22T08:31:32.164Z</time></trkpt><trkpt lat="45.0074317" lon="11.6753467"><ele>5.0</ele><time>2026-03-22T08:31:33.146Z</time></trkpt><trkpt lat="45.007465" lon="11.675255"><ele>5.0</ele><time>2026-03-22T08:31:34.164Z</time></trkpt><trkpt lat="45.0074917" lon="11.6751617"><ele>5.0</ele><time>2026-03-22T08:31:35.162Z</time></trkpt><trkpt lat="45.0075167" lon="11.6750667"><ele>5.0</ele><time>2026-03-22T08:31:36.165Z</time></trkpt><trkpt lat="45.0075383" lon="11.6749667"><ele>5.0</ele><time>2026-03-22T08:31:37.167Z</time></trkpt><trkpt lat="45.007555" lon="11.6748667"><ele>5.0</ele><time>2026-03-22T08:31:38.166Z</time></trkpt><trkpt lat="45.00757" lon="11.6747683"><ele>5.0</ele><time>2026-03-22T08:31:39.163Z</time></trkpt><trkpt lat="45.007585" lon="11.6746733"><ele>5.0</ele><time>2026-03-22T08:31:40.165Z</time></trkpt><trkpt lat="45.0076017" lon="11.6745783"><ele>5.0</ele><time>2026-03-22T08:31:41.166Z</time></trkpt><trkpt lat="45.00762" lon="11.674485"><ele>5.0</ele><time>2026-03-22T08:31:42.155Z</time></trkpt><trkpt lat="45.0076367" lon="11.6743917"><ele>5.0</ele><time>2026-03-22T08:31:43.165Z</time></trkpt><trkpt lat="45.00765" lon="11.6742983"><ele>5.0</ele><time>2026-03-22T08:31:44.165Z</time></trkpt><trkpt lat="45.0076617" lon="11.6742017"><ele>5.0</ele><time>2026-03-22T08:31:45.163Z</time></trkpt><trkpt lat="45.0076733" lon="11.674105"><ele>5.0</ele><time>2026-03-22T08:31:46.161Z</time></trkpt><trkpt lat="45.0076867" lon="11.6740083"><ele>5.0</ele><time>2026-03-22T08:31:47.148Z</time></trkpt><trkpt lat="45.0077" lon="11.67391"><ele>5.0</ele><time>2026-03-22T08:31:48.162Z</time></trkpt><trkpt lat="45.0077117" lon="11.6738117"><ele>5.0</ele><time>2026-03-22T08:31:49.17Z</time></trkpt><trkpt lat="45.0077217" lon="11.673715"><ele>5.0</ele><time>2026-03-22T08:31:50.14Z</time></trkpt><trkpt lat="45.0077267" lon="11.6736133"><ele>5.0</ele><time>2026-03-22T08:31:51.157Z</time></trkpt><trkpt lat="45.00773" lon="11.6735117"><ele>5.0</ele><time>2026-03-22T08:31:52.165Z</time></trkpt><trkpt lat="45.00773" lon="11.6734133"><ele>5.0</ele><time>2026-03-22T08:31:53.17Z</time></trkpt><trkpt lat="45.0077267" lon="11.6733117"><ele>5.0</ele><time>2026-03-22T08:31:54.167Z</time></trkpt><trkpt lat="45.0077233" lon="11.67321"><ele>5.0</ele><time>2026-03-22T08:31:55.167Z</time></trkpt><trkpt lat="45.0077167" lon="11.6731033"><ele>5.0</ele><time>2026-03-22T08:31:56.169Z</time></trkpt><trkpt lat="45.0077133" lon="11.6729967"><ele>5.0</ele><time>2026-03-22T08:31:57.162Z</time></trkpt><trkpt lat="45.00771" lon="11.6728883"><ele>5.0</ele><time>2026-03-22T08:31:58.164Z</time></trkpt><trkpt lat="45.0077067" lon="11.67278"><ele>5.0</ele><time>2026-03-22T08:31:59.164Z</time></trkpt><trkpt lat="45.007705" lon="11.672675"><ele>5.0</ele><time>2026-03-22T08:32:00.167Z</time></trkpt><trkpt lat="45.0077033" lon="11.6725667"><ele>5.0</ele><time>2026-03-22T08:32:01.163Z</time></trkpt><trkpt lat="45.0077" lon="11.6724583"><ele>5.0</ele><time>2026-03-22T08:32:02.164Z</time></trkpt><trkpt lat="45.0077" lon="11.6723483"><ele>5.0</ele><time>2026-03-22T08:32:03.166Z</time></trkpt><trkpt lat="45.0077" lon="11.6722367"><ele>5.0</ele><time>2026-03-22T08:32:04.164Z</time></trkpt><trkpt lat="45.0077017" lon="11.672125"><ele>5.0</ele><time>2026-03-22T08:32:05.162Z</time></trkpt><trkpt lat="45.0077117" lon="11.672015"><ele>5.0</ele><time>2026-03-22T08:32:06.142Z</time></trkpt><trkpt lat="45.007725" lon="11.6719067"><ele>5.166666666666667</ele><time>2026-03-22T08:32:07.156Z</time></trkpt><trkpt lat="45.0077433" lon="11.6718033"><ele>5.333333333333334</ele><time>2026-03-22T08:32:08.164Z</time></trkpt><trkpt lat="45.0077667" lon="11.6717"><ele>5.5</ele><time>2026-03-22T08:32:09.163Z</time></trkpt><trkpt lat="45.00779" lon="11.6715983"><ele>5.666666666666667</ele><time>2026-03-22T08:32:10.164Z</time></trkpt><trkpt lat="45.0078167" lon="11.671495"><ele>5.833333333333333</ele><time>2026-03-22T08:32:11.165Z</time></trkpt><trkpt lat="45.0078483" lon="11.6713933"><ele>6.0</ele><time>2026-03-22T08:32:12.16Z</time></trkpt><trkpt lat="45.00788" lon="11.6712917"><ele>6.0</ele><time>2026-03-22T08:32:13.144Z</time></trkpt><trkpt lat="45.0079117" lon="11.67119"><ele>6.0</ele><time>2026-03-22T08:32:14.151Z</time></trkpt><trkpt lat="45.00794" lon="11.67109"><ele>6.0</ele><time>2026-03-22T08:32:15.164Z</time></trkpt><trkpt lat="45.007965" lon="11.6709883"><ele>6.0</ele><time>2026-03-22T08:32:16.165Z</time></trkpt><trkpt lat="45.0079833" lon="11.6708817"><ele>6.0</ele><time>2026-03-22T08:32:17.167Z</time></trkpt><trkpt lat="45.0079933" lon="11.6707733"><ele>6.0</ele><time>2026-03-22T08:32:18.167Z</time></trkpt><trkpt lat="45.0079917" lon="11.6706583"><ele>6.0</ele><time>2026-03-22T08:32:19.167Z</time></trkpt><trkpt lat="45.00798" lon="11.670545"><ele>6.0</ele><time>2026-03-22T08:32:20.165Z</time></trkpt><trkpt lat="45.0079617" lon="11.670435"><ele>6.0</ele><time>2026-03-22T08:32:21.166Z</time></trkpt><trkpt lat="45.007935" lon="11.670325"><ele>6.0</ele><time>2026-03-22T08:32:22.133Z</time></trkpt><trkpt lat="45.0079" lon="11.6702167"><ele>6.0</ele><time>2026-03-22T08:32:23.158Z</time></trkpt><trkpt lat="45.007865" lon="11.6701083"><ele>6.0</ele><time>2026-03-22T08:32:24.168Z</time></trkpt><trkpt lat="45.0078267" lon="11.6700033"><ele>5.833333333333333</ele><time>2026-03-22T08:32:25.166Z</time></trkpt><trkpt lat="45.0077833" lon="11.6699"><ele>5.666666666666667</ele><time>2026-03-22T08:32:26.17Z</time></trkpt><trkpt lat="45.00774" lon="11.669795"><ele>5.5</ele><time>2026-03-22T08:32:27.169Z</time></trkpt><trkpt lat="45.007695" lon="11.66969"><ele>5.333333333333334</ele><time>2026-03-22T08:32:28.164Z</time></trkpt><trkpt lat="45.0076483" lon="11.6695867"><ele>5.166666666666667</ele><time>2026-03-22T08:32:29.163Z</time></trkpt><trkpt lat="45.0076017" lon="11.6694833"><ele>5.0</ele><time>2026-03-22T08:32:30.163Z</time></trkpt><trkpt lat="45.007555" lon="11.6693833"><ele>5.0</ele><time>2026-03-22T08:32:31.167Z</time></trkpt><trkpt lat="45.0075133" lon="11.6692783"><ele>5.0</ele><time>2026-03-22T08:32:32.165Z</time></trkpt><trkpt lat="45.0074733" lon="11.66917"><ele>5.0</ele><time>2026-03-22T08:32:33.163Z</time></trkpt><trkpt lat="45.0074333" lon="11.6690633"><ele>5.0</ele><time>2026-03-22T08:32:34.164Z</time></trkpt><trkpt lat="45.0074" lon="11.6689567"><ele>5.0</ele><time>2026-03-22T08:32:35.159Z</time></trkpt><trkpt lat="45.0073683" lon="11.6688483"><ele>5.0</ele><time>2026-03-22T08:32:36.158Z</time></trkpt><trkpt lat="45.0073417" lon="11.6687367"><ele>4.833333333333334</ele><time>2026-03-22T08:32:37.163Z</time></trkpt><trkpt lat="45.0073167" lon="11.6686217"><ele>4.666666666666667</ele><time>2026-03-22T08:32:38.137Z</time></trkpt><trkpt lat="45.007295" lon="11.6685083"><ele>4.5</ele><time>2026-03-22T08:32:39.145Z</time></trkpt><trkpt lat="45.00728" lon="11.6683933"><ele>4.333333333333333</ele><time>2026-03-22T08:32:40.162Z</time></trkpt><trkpt lat="45.0072683" lon="11.6682783"><ele>4.166666666666666</ele><time>2026-03-22T08:32:41.17Z</time></trkpt><trkpt lat="45.0072633" lon="11.66816"><ele>4.0</ele><time>2026-03-22T08:32:42.163Z</time></trkpt><trkpt lat="45.00726" lon="11.6680417"><ele>3.9999999999999996</ele><time>2026-03-22T08:32:43.165Z</time></trkpt><trkpt lat="45.0072517" lon="11.6679233"><ele>4.0</ele><time>2026-03-22T08:32:44.171Z</time></trkpt><trkpt lat="45.0072483" lon="11.6678067"><ele>4.0</ele><time>2026-03-22T08:32:45.162Z</time></trkpt><trkpt lat="45.0072483" lon="11.6676917"><ele>4.0</ele><time>2026-03-22T08:32:46.165Z</time></trkpt><trkpt lat="45.0072517" lon="11.6675817"><ele>3.9999999999999996</ele><time>2026-03-22T08:32:47.168Z</time></trkpt><trkpt lat="45.0072567" lon="11.6674683"><ele>4.0</ele><time>2026-03-22T08:32:48.164Z</time></trkpt><trkpt lat="45.00726" lon="11.6673567"><ele>3.9999999999999996</ele><time>2026-03-22T08:32:49.165Z</time></trkpt><trkpt lat="45.0072683" lon="11.6672467"><ele>4.0</ele><time>2026-03-22T08:32:50.174Z</time></trkpt><trkpt lat="45.0072767" lon="11.667135"><ele>4.0</ele><time>2026-03-22T08:32:51.167Z</time></trkpt><trkpt lat="45.0072867" lon="11.6670233"><ele>4.0</ele><time>2026-03-22T08:32:52.169Z</time></trkpt><trkpt lat="45.0072983" lon="11.6669133"><ele>3.9999999999999996</ele><time>2026-03-22T08:32:53.169Z</time></trkpt><trkpt lat="45.0073133" lon="11.6668017"><ele>4.0</ele><time>2026-03-22T08:32:54.159Z</time></trkpt><trkpt lat="45.00733" lon="11.6666883"><ele>3.9999999999999996</ele><time>2026-03-22T08:32:55.164Z</time></trkpt><trkpt lat="45.0073483" lon="11.6665767"><ele>4.0</ele><time>2026-03-22T08:32:56.164Z</time></trkpt><trkpt lat="45.0073667" lon="11.6664617"><ele>4.0</ele><time>2026-03-22T08:32:57.166Z</time></trkpt><trkpt lat="45.0073867" lon="11.6663517"><ele>4.0</ele><time>2026-03-22T08:32:58.161Z</time></trkpt><trkpt lat="45.0074083" lon="11.6662417"><ele>3.9999999999999996</ele><time>2026-03-22T08:32:59.153Z</time></trkpt><trkpt lat="45.0074317" lon="11.6661333"><ele>4.0</ele><time>2026-03-22T08:33:00.164Z</time></trkpt><trkpt lat="45.0074567" lon="11.6660267"><ele>3.8571428571428568</ele><time>2026-03-22T08:33:01.163Z</time></trkpt><trkpt lat="45.0074817" lon="11.665925"><ele>3.714285714285714</ele><time>2026-03-22T08:33:02.163Z</time></trkpt><trkpt lat="45.0075083" lon="11.665825"><ele>3.571428571428571</ele><time>2026-03-22T08:33:03.163Z</time></trkpt><trkpt lat="45.007535" lon="11.6657283"><ele>3.4285714285714284</ele><time>2026-03-22T08:33:04.152Z</time></trkpt><trkpt lat="45.0075633" lon="11.6656333"><ele>3.2857142857142856</ele><time>2026-03-22T08:33:05.153Z</time></trkpt><trkpt lat="45.0075967" lon="11.6655417"><ele>3.1428571428571423</ele><time>2026-03-22T08:33:06.157Z</time></trkpt><trkpt lat="45.00763" lon="11.6654517"><ele>3.0</ele><time>2026-03-22T08:33:07.169Z</time></trkpt><trkpt lat="45.0076667" lon="11.66536"><ele>3.3333333333333335</ele><time>2026-03-22T08:33:08.166Z</time></trkpt><trkpt lat="45.0077033" lon="11.6652717"><ele>3.666666666666667</ele><time>2026-03-22T08:33:09.16Z</time></trkpt><trkpt lat="45.00774" lon="11.66518"><ele>4.0</ele><time>2026-03-22T08:33:10.151Z</time></trkpt><trkpt lat="45.0077817" lon="11.66509"><ele>4.333333333333334</ele><time>2026-03-22T08:33:11.159Z</time></trkpt><trkpt lat="45.007825" lon="11.6650017"><ele>4.666666666666667</ele><time>2026-03-22T08:33:12.168Z</time></trkpt><trkpt lat="45.0078683" lon="11.6649067"><ele>5.0</ele><time>2026-03-22T08:33:13.167Z</time></trkpt><trkpt lat="45.007915" lon="11.6648217"><ele>5.0</ele><time>2026-03-22T08:33:14.167Z</time></trkpt><trkpt lat="45.00796" lon="11.6647417"><ele>5.0</ele><time>2026-03-22T08:33:15.133Z</time></trkpt><trkpt lat="45.008005" lon="11.6646617"><ele>5.0</ele><time>2026-03-22T08:33:16.16Z</time></trkpt><trkpt lat="45.00805" lon="11.6645833"><ele>5.0</ele><time>2026-03-22T08:33:17.164Z</time></trkpt><trkpt lat="45.008095" lon="11.66451"><ele>5.0</ele><time>2026-03-22T08:33:18.158Z</time></trkpt><trkpt lat="45.0081417" lon="11.664435"><ele>5.0</ele><time>2026-03-22T08:33:19.169Z</time></trkpt><trkpt lat="45.00819" lon="11.6643633"><ele>5.0</ele><time>2026-03-22T08:33:20.168Z</time></trkpt><trkpt lat="45.0082417" lon="11.6642917"><ele>5.0</ele><time>2026-03-22T08:33:21.166Z</time></trkpt><trkpt lat="45.0082917" lon="11.6642167"><ele>5.0</ele><time>2026-03-22T08:33:22.168Z</time></trkpt><trkpt lat="45.00834" lon="11.66414"><ele>5.0</ele><time>2026-03-22T08:33:23.168Z</time></trkpt><trkpt lat="45.0083933" lon="11.6640633"><ele>5.0</ele><time>2026-03-22T08:33:24.167Z</time></trkpt><trkpt lat="45.008445" lon="11.663985"><ele>5.0</ele><time>2026-03-22T08:33:25.162Z</time></trkpt><trkpt lat="45.0084967" lon="11.663905"><ele>5.0</ele><time>2026-03-22T08:33:26.164Z</time></trkpt><trkpt lat="45.0085483" lon="11.66383"><ele>5.0</ele><time>2026-03-22T08:33:27.163Z</time></trkpt><trkpt lat="45.0085967" lon="11.6637517"><ele>5.0</ele><time>2026-03-22T08:33:28.166Z</time></trkpt><trkpt lat="45.0086433" lon="11.6636733"><ele>5.0</ele><time>2026-03-22T08:33:29.167Z</time></trkpt><trkpt lat="45.0086867" lon="11.66359"><ele>5.0</ele><time>2026-03-22T08:33:30.168Z</time></trkpt><trkpt lat="45.0087283" lon="11.663505"><ele>5.0</ele><time>2026-03-22T08:33:31.166Z</time></trkpt><trkpt lat="45.0087667" lon="11.6634183"><ele>5.0</ele><time>2026-03-22T08:33:32.167Z</time></trkpt><trkpt lat="45.0087967" lon="11.6633367"><ele>5.0</ele><time>2026-03-22T08:33:33.166Z</time></trkpt><trkpt lat="45.008825" lon="11.6632567"><ele>5.0</ele><time>2026-03-22T08:33:34.165Z</time></trkpt><trkpt lat="45.0088783" lon="11.6631117"><ele>5.0</ele><time>2026-03-22T08:33:36.144Z</time></trkpt><trkpt lat="45.0089267" lon="11.6629733"><ele>5.0</ele><time>2026-03-22T08:33:38.171Z</time></trkpt><trkpt lat="45.0089717" lon="11.6628217"><ele>5.0</ele><time>2026-03-22T08:33:40.165Z</time></trkpt><trkpt lat="45.0090117" lon="11.662655"><ele>5.0</ele><time>2026-03-22T08:33:42.163Z</time></trkpt><trkpt lat="45.0090333" lon="11.6625667"><ele>5.0</ele><time>2026-03-22T08:33:43.157Z</time></trkpt><trkpt lat="45.00905" lon="11.66248"><ele>5.0</ele><time>2026-03-22T08:33:44.168Z</time></trkpt><trkpt lat="45.009065" lon="11.66239"><ele>5.0</ele><time>2026-03-22T08:33:45.167Z</time></trkpt><trkpt lat="45.0090817" lon="11.6623017"><ele>5.0</ele><time>2026-03-22T08:33:46.142Z</time></trkpt><trkpt lat="45.009095" lon="11.6622083"><ele>5.0</ele><time>2026-03-22T08:33:47.138Z</time></trkpt><trkpt lat="45.0091083" lon="11.66211"><ele>5.0</ele><time>2026-03-22T08:33:48.134Z</time></trkpt><trkpt lat="45.009115" lon="11.6620083"><ele>5.0</ele><time>2026-03-22T08:33:49.16Z</time></trkpt><trkpt lat="45.009125" lon="11.6619067"><ele>5.0</ele><time>2026-03-22T08:33:50.164Z</time></trkpt><trkpt lat="45.00913" lon="11.6618033"><ele>5.0</ele><time>2026-03-22T08:33:51.166Z</time></trkpt><trkpt lat="45.0091333" lon="11.6617"><ele>5.0</ele><time>2026-03-22T08:33:52.166Z</time></trkpt><trkpt lat="45.0091317" lon="11.661595"><ele>5.0</ele><time>2026-03-22T08:33:53.167Z</time></trkpt><trkpt lat="45.0091267" lon="11.6614917"><ele>5.0</ele><time>2026-03-22T08:33:54.167Z</time></trkpt><trkpt lat="45.0091183" lon="11.6613883"><ele>5.0</ele><time>2026-03-22T08:33:55.168Z</time></trkpt><trkpt lat="45.0091033" lon="11.6612883"><ele>5.0</ele><time>2026-03-22T08:33:56.148Z</time></trkpt><trkpt lat="45.00908" lon="11.6611917"><ele>5.0</ele><time>2026-03-22T08:33:57.155Z</time></trkpt><trkpt lat="45.0090533" lon="11.6610983"><ele>5.285714285714286</ele><time>2026-03-22T08:33:58.165Z</time></trkpt><trkpt lat="45.0090283" lon="11.6610067"><ele>5.571428571428571</ele><time>2026-03-22T08:33:59.163Z</time></trkpt><trkpt lat="45.0089967" lon="11.6609133"><ele>5.857142857142858</ele><time>2026-03-22T08:34:00.16Z</time></trkpt><trkpt lat="45.0089683" lon="11.6608233"><ele>6.142857142857142</ele><time>2026-03-22T08:34:01.135Z</time></trkpt><trkpt lat="45.0089383" lon="11.66073"><ele>6.428571428571429</ele><time>2026-03-22T08:34:02.165Z</time></trkpt><trkpt lat="45.0089067" lon="11.6606383"><ele>6.714285714285714</ele><time>2026-03-22T08:34:03.164Z</time></trkpt><trkpt lat="45.0088767" lon="11.660555"><ele>7.0</ele><time>2026-03-22T08:34:04.166Z</time></trkpt><trkpt lat="45.00885" lon="11.6604733"><ele>7.000000000000001</ele><time>2026-03-22T08:34:05.145Z</time></trkpt><trkpt lat="45.0088233" lon="11.6603917"><ele>7.0</ele><time>2026-03-22T08:34:06.14Z</time></trkpt><trkpt lat="45.008795" lon="11.6603117"><ele>7.0</ele><time>2026-03-22T08:34:07.144Z</time></trkpt><trkpt lat="45.0087367" lon="11.6601533"><ele>7.0</ele><time>2026-03-22T08:34:09.146Z</time></trkpt><trkpt lat="45.0087067" lon="11.66007"><ele>7.000000000000001</ele><time>2026-03-22T08:34:10.153Z</time></trkpt><trkpt lat="45.00868" lon="11.6599867"><ele>7.0</ele><time>2026-03-22T08:34:11.135Z</time></trkpt><trkpt lat="45.0086533" lon="11.6599"><ele>7.199999999999999</ele><time>2026-03-22T08:34:12.155Z</time></trkpt><trkpt lat="45.008625" lon="11.6598167"><ele>7.3999999999999995</ele><time>2026-03-22T08:34:13.146Z</time></trkpt><trkpt lat="45.0085733" lon="11.6596617"><ele>7.6000000000000005</ele><time>2026-03-22T08:34:15.164Z</time></trkpt><trkpt lat="45.0085183" lon="11.65951"><ele>7.800000000000001</ele><time>2026-03-22T08:34:17.139Z</time></trkpt><trkpt lat="45.0084617" lon="11.6593717"><ele>8.0</ele><time>2026-03-22T08:34:19.142Z</time></trkpt><trkpt lat="45.0084133" lon="11.6592383"><ele>8.0</ele><time>2026-03-22T08:34:21.131Z</time></trkpt><trkpt lat="45.0083567" lon="11.6590933"><ele>8.0</ele><time>2026-03-22T08:34:23.143Z</time></trkpt><trkpt lat="45.0082967" lon="11.6589517"><ele>8.0</ele><time>2026-03-22T08:34:25.135Z</time></trkpt><trkpt lat="45.0082233" lon="11.6588083"><ele>8.0</ele><time>2026-03-22T08:34:27.133Z</time></trkpt><trkpt lat="45.0081567" lon="11.658655"><ele>7.7142857142857135</ele><time>2026-03-22T08:34:29.145Z</time></trkpt><trkpt lat="45.008125" lon="11.65857"><ele>7.428571428571428</ele><time>2026-03-22T08:34:30.137Z</time></trkpt><trkpt lat="45.0080983" lon="11.6584867"><ele>7.142857142857142</ele><time>2026-03-22T08:34:31.137Z</time></trkpt><trkpt lat="45.0080733" lon="11.6583983"><ele>6.857142857142857</ele><time>2026-03-22T08:34:32.133Z</time></trkpt><trkpt lat="45.0080567" lon="11.658305"><ele>6.571428571428571</ele><time>2026-03-22T08:34:33.161Z</time></trkpt><trkpt lat="45.008045" lon="11.6582083"><ele>6.285714285714285</ele><time>2026-03-22T08:34:34.165Z</time></trkpt><trkpt lat="45.008035" lon="11.6581083"><ele>6.0</ele><time>2026-03-22T08:34:35.164Z</time></trkpt><trkpt lat="45.0080267" lon="11.6580083"><ele>5.999999999999999</ele><time>2026-03-22T08:34:36.137Z</time></trkpt><trkpt lat="45.0080167" lon="11.6579067"><ele>6.0</ele><time>2026-03-22T08:34:37.165Z</time></trkpt><trkpt lat="45.0080067" lon="11.657805"><ele>6.0</ele><time>2026-03-22T08:34:38.17Z</time></trkpt><trkpt lat="45.0079967" lon="11.6577067"><ele>6.0</ele><time>2026-03-22T08:34:39.162Z</time></trkpt><trkpt lat="45.007985" lon="11.65761"><ele>6.0</ele><time>2026-03-22T08:34:40.143Z</time></trkpt><trkpt lat="45.0079733" lon="11.657515"><ele>5.999999999999999</ele><time>2026-03-22T08:34:41.152Z</time></trkpt><trkpt lat="45.0079617" lon="11.657425"><ele>6.0</ele><time>2026-03-22T08:34:42.146Z</time></trkpt><trkpt lat="45.00795" lon="11.6573333"><ele>6.0</ele><time>2026-03-22T08:34:43.161Z</time></trkpt><trkpt lat="45.007935" lon="11.6572467"><ele>6.0</ele><time>2026-03-22T08:34:44.168Z</time></trkpt><trkpt lat="45.0079233" lon="11.6571567"><ele>6.0</ele><time>2026-03-22T08:34:45.165Z</time></trkpt><trkpt lat="45.0079083" lon="11.6570683"><ele>6.0</ele><time>2026-03-22T08:34:46.166Z</time></trkpt><trkpt lat="45.0078817" lon="11.6569033"><ele>6.0</ele><time>2026-03-22T08:34:48.155Z</time></trkpt><trkpt lat="45.00786" lon="11.656745"><ele>6.0</ele><time>2026-03-22T08:34:50.153Z</time></trkpt><trkpt lat="45.007845" lon="11.6565883"><ele>6.0</ele><time>2026-03-22T08:34:52.152Z</time></trkpt><trkpt lat="45.0078217" lon="11.6564167"><ele>6.0</ele><time>2026-03-22T08:34:54.166Z</time></trkpt><trkpt lat="45.0078083" lon="11.6563283"><ele>6.0</ele><time>2026-03-22T08:34:55.164Z</time></trkpt><trkpt lat="45.0077983" lon="11.6562383"><ele>6.0</ele><time>2026-03-22T08:34:56.163Z</time></trkpt><trkpt lat="45.0077883" lon="11.656145"><ele>6.0</ele><time>2026-03-22T08:34:57.159Z</time></trkpt><trkpt lat="45.007775" lon="11.6560483"><ele>6.0</ele><time>2026-03-22T08:34:58.167Z</time></trkpt><trkpt lat="45.0077617" lon="11.65595"><ele>5.999999999999999</ele><time>2026-03-22T08:34:59.168Z</time></trkpt><trkpt lat="45.0077467" lon="11.655855"><ele>6.0</ele><time>2026-03-22T08:35:00.166Z</time></trkpt><trkpt lat="45.0077283" lon="11.65576"><ele>6.0</ele><time>2026-03-22T08:35:01.16Z</time></trkpt><trkpt lat="45.0077067" lon="11.655665"><ele>6.0</ele><time>2026-03-22T08:35:02.159Z</time></trkpt><trkpt lat="45.007685" lon="11.6555733"><ele>6.0</ele><time>2026-03-22T08:35:03.167Z</time></trkpt><trkpt lat="45.0076617" lon="11.65548"><ele>5.999999999999999</ele><time>2026-03-22T08:35:04.167Z</time></trkpt><trkpt lat="45.0076367" lon="11.6553917"><ele>6.0</ele><time>2026-03-22T08:35:05.168Z</time></trkpt><trkpt lat="45.0076117" lon="11.655305"><ele>6.166666666666667</ele><time>2026-03-22T08:35:06.166Z</time></trkpt><trkpt lat="45.0075583" lon="11.65514"><ele>6.333333333333334</ele><time>2026-03-22T08:35:08.169Z</time></trkpt><trkpt lat="45.0075283" lon="11.6550583"><ele>6.5</ele><time>2026-03-22T08:35:09.155Z</time></trkpt><trkpt lat="45.0074983" lon="11.65498"><ele>6.666666666666667</ele><time>2026-03-22T08:35:10.166Z</time></trkpt><trkpt lat="45.0074633" lon="11.6549033"><ele>6.833333333333334</ele><time>2026-03-22T08:35:11.161Z</time></trkpt><trkpt lat="45.00742" lon="11.6548267"><ele>7.0</ele><time>2026-03-22T08:35:12.133Z</time></trkpt><trkpt lat="45.0073717" lon="11.65475"><ele>7.0</ele><time>2026-03-22T08:35:13.16Z</time></trkpt><trkpt lat="45.0073183" lon="11.65468"><ele>7.0</ele><time>2026-03-22T08:35:14.166Z</time></trkpt><trkpt lat="45.00726" lon="11.654615"><ele>7.0</ele><time>2026-03-22T08:35:15.163Z</time></trkpt><trkpt lat="45.0072" lon="11.6545533"><ele>7.0</ele><time>2026-03-22T08:35:16.167Z</time></trkpt><trkpt lat="45.0071383" lon="11.6545"><ele>7.0</ele><time>2026-03-22T08:35:17.164Z</time></trkpt><trkpt lat="45.00708" lon="11.65445"><ele>7.0</ele><time>2026-03-22T08:35:18.16Z</time></trkpt><trkpt lat="45.00702" lon="11.6544067"><ele>7.0</ele><time>2026-03-22T08:35:19.16Z</time></trkpt><trkpt lat="45.00696" lon="11.6543683"><ele>7.0</ele><time>2026-03-22T08:35:20.166Z</time></trkpt><trkpt lat="45.0069" lon="11.654335"><ele>7.0</ele><time>2026-03-22T08:35:21.154Z</time></trkpt><trkpt lat="45.00684" lon="11.6543017"><ele>7.0</ele><time>2026-03-22T08:35:22.157Z</time></trkpt><trkpt lat="45.0067733" lon="11.65427"><ele>7.0</ele><time>2026-03-22T08:35:23.143Z</time></trkpt><trkpt lat="45.0067067" lon="11.65424"><ele>7.0</ele><time>2026-03-22T08:35:24.155Z</time></trkpt><trkpt lat="45.0066367" lon="11.6542117"><ele>7.0</ele><time>2026-03-22T08:35:25.162Z</time></trkpt><trkpt lat="45.0065667" lon="11.6541867"><ele>7.0</ele><time>2026-03-22T08:35:26.166Z</time></trkpt><trkpt lat="45.006495" lon="11.6541667"><ele>6.857142857142857</ele><time>2026-03-22T08:35:27.167Z</time></trkpt><trkpt lat="45.00642" lon="11.6541483"><ele>6.714285714285714</ele><time>2026-03-22T08:35:28.166Z</time></trkpt><trkpt lat="45.006345" lon="11.654135"><ele>6.571428571428571</ele><time>2026-03-22T08:35:29.164Z</time></trkpt><trkpt lat="45.0062717" lon="11.6541167"><ele>6.428571428571429</ele><time>2026-03-22T08:35:30.165Z</time></trkpt><trkpt lat="45.0062017" lon="11.6541033"><ele>6.285714285714286</ele><time>2026-03-22T08:35:31.162Z</time></trkpt><trkpt lat="45.00613" lon="11.6540933"><ele>6.142857142857142</ele><time>2026-03-22T08:35:32.166Z</time></trkpt><trkpt lat="45.0060567" lon="11.654085"><ele>6.0</ele><time>2026-03-22T08:35:33.164Z</time></trkpt><trkpt lat="45.005985" lon="11.6540783"><ele>5.999999999999999</ele><time>2026-03-22T08:35:34.161Z</time></trkpt><trkpt lat="45.0059117" lon="11.654075"><ele>6.0</ele><time>2026-03-22T08:35:35.163Z</time></trkpt><trkpt lat="45.0058383" lon="11.6540733"><ele>6.0</ele><time>2026-03-22T08:35:36.162Z</time></trkpt><trkpt lat="45.005765" lon="11.6540767"><ele>6.0</ele><time>2026-03-22T08:35:37.162Z</time></trkpt><trkpt lat="45.0056917" lon="11.65408"><ele>6.0</ele><time>2026-03-22T08:35:38.153Z</time></trkpt><trkpt lat="45.0056183" lon="11.65409"><ele>5.999999999999999</ele><time>2026-03-22T08:35:39.163Z</time></trkpt><trkpt lat="45.0055483" lon="11.6541017"><ele>6.0</ele><time>2026-03-22T08:35:40.163Z</time></trkpt><trkpt lat="45.00548" lon="11.6541117"><ele>5.857142857142857</ele><time>2026-03-22T08:35:41.164Z</time></trkpt><trkpt lat="45.0054117" lon="11.654125"><ele>5.714285714285714</ele><time>2026-03-22T08:35:42.165Z</time></trkpt><trkpt lat="45.005345" lon="11.65414"><ele>5.571428571428571</ele><time>2026-03-22T08:35:43.167Z</time></trkpt><trkpt lat="45.0052817" lon="11.6541617"><ele>5.428571428571429</ele><time>2026-03-22T08:35:44.157Z</time></trkpt><trkpt lat="45.0052183" lon="11.6541833"><ele>5.285714285714286</ele><time>2026-03-22T08:35:45.149Z</time></trkpt><trkpt lat="45.005155" lon="11.654205"><ele>5.142857142857142</ele><time>2026-03-22T08:35:46.159Z</time></trkpt><trkpt lat="45.0050917" lon="11.654225"><ele>5.0</ele><time>2026-03-22T08:35:47.164Z</time></trkpt><trkpt lat="45.0049767" lon="11.6542733"><ele>5.0</ele><time>2026-03-22T08:35:49.152Z</time></trkpt><trkpt lat="45.0048617" lon="11.6543283"><ele>5.0</ele><time>2026-03-22T08:35:51.157Z</time></trkpt><trkpt lat="45.00475" lon="11.6543733"><ele>5.0</ele><time>2026-03-22T08:35:53.162Z</time></trkpt><trkpt lat="45.00463" lon="11.6544083"><ele>5.0</ele><time>2026-03-22T08:35:55.164Z</time></trkpt><trkpt lat="45.0045667" lon="11.6544233"><ele>5.0</ele><time>2026-03-22T08:35:56.163Z</time></trkpt><trkpt lat="45.0045017" lon="11.65444"><ele>4.857142857142857</ele><time>2026-03-22T08:35:57.162Z</time></trkpt><trkpt lat="45.0044367" lon="11.6544567"><ele>4.714285714285714</ele><time>2026-03-22T08:35:58.169Z</time></trkpt><trkpt lat="45.0043717" lon="11.6544733"><ele>4.571428571428571</ele><time>2026-03-22T08:35:59.216Z</time></trkpt><trkpt lat="45.0043067" lon="11.65449"><ele>4.428571428571429</ele><time>2026-03-22T08:36:00.145Z</time></trkpt><trkpt lat="45.0042417" lon="11.6545033"><ele>4.285714285714286</ele><time>2026-03-22T08:36:01.152Z</time></trkpt><trkpt lat="45.0041783" lon="11.6545167"><ele>4.142857142857142</ele><time>2026-03-22T08:36:02.155Z</time></trkpt><trkpt lat="45.004115" lon="11.6545283"><ele>4.0</ele><time>2026-03-22T08:36:03.165Z</time></trkpt><trkpt lat="45.00405" lon="11.6545383"><ele>4.0</ele><time>2026-03-22T08:36:04.167Z</time></trkpt><trkpt lat="45.003985" lon="11.6545433"><ele>3.9999999999999996</ele><time>2026-03-22T08:36:05.133Z</time></trkpt><trkpt lat="45.00392" lon="11.6545467"><ele>4.0</ele><time>2026-03-22T08:36:06.158Z</time></trkpt><trkpt lat="45.0038533" lon="11.654545"><ele>4.0</ele><time>2026-03-22T08:36:07.152Z</time></trkpt><trkpt lat="45.0037833" lon="11.65454"><ele>3.9999999999999996</ele><time>2026-03-22T08:36:08.16Z</time></trkpt><trkpt lat="45.003715" lon="11.654535"><ele>4.0</ele><time>2026-03-22T08:36:09.165Z</time></trkpt><trkpt lat="45.0036483" lon="11.65453"><ele>4.0</ele><time>2026-03-22T08:36:10.166Z</time></trkpt><trkpt lat="45.00358" lon="11.6545233"><ele>4.0</ele><time>2026-03-22T08:36:11.16Z</time></trkpt><trkpt lat="45.0035117" lon="11.6545133"><ele>3.9999999999999996</ele><time>2026-03-22T08:36:12.154Z</time></trkpt><trkpt lat="45.003445" lon="11.6545017"><ele>4.0</ele><time>2026-03-22T08:36:13.169Z</time></trkpt><trkpt lat="45.0033783" lon="11.6544917"><ele>4.0</ele><time>2026-03-22T08:36:14.144Z</time></trkpt><trkpt lat="45.0033117" lon="11.6544783"><ele>3.9999999999999996</ele><time>2026-03-22T08:36:15.158Z</time></trkpt><trkpt lat="45.003245" lon="11.6544633"><ele>4.0</ele><time>2026-03-22T08:36:16.167Z</time></trkpt><trkpt lat="45.00318" lon="11.6544467"><ele>4.0</ele><time>2026-03-22T08:36:17.164Z</time></trkpt><trkpt lat="45.0031133" lon="11.654425"><ele>4.142857142857142</ele><time>2026-03-22T08:36:18.161Z</time></trkpt><trkpt lat="45.0030483" lon="11.6544"><ele>4.285714285714286</ele><time>2026-03-22T08:36:19.153Z</time></trkpt><trkpt lat="45.002985" lon="11.6543683"><ele>4.428571428571429</ele><time>2026-03-22T08:36:20.165Z</time></trkpt><trkpt lat="45.0029267" lon="11.65433"><ele>4.571428571428571</ele><time>2026-03-22T08:36:21.13Z</time></trkpt><trkpt lat="45.0028667" lon="11.65429"><ele>4.714285714285714</ele><time>2026-03-22T08:36:22.161Z</time></trkpt><trkpt lat="45.0028067" lon="11.654245"><ele>4.857142857142857</ele><time>2026-03-22T08:36:23.163Z</time></trkpt><trkpt lat="45.0027483" lon="11.654195"><ele>5.0</ele><time>2026-03-22T08:36:24.172Z</time></trkpt><trkpt lat="45.0026933" lon="11.65414"><ele>5.0</ele><time>2026-03-22T08:36:25.162Z</time></trkpt><trkpt lat="45.0026383" lon="11.6540817"><ele>5.0</ele><time>2026-03-22T08:36:26.164Z</time></trkpt><trkpt lat="45.00259" lon="11.65402"><ele>5.0</ele><time>2026-03-22T08:36:27.16Z</time></trkpt><trkpt lat="45.0025417" lon="11.65396"><ele>5.0</ele><time>2026-03-22T08:36:28.167Z</time></trkpt><trkpt lat="45.002465" lon="11.6538533"><ele>5.0</ele><time>2026-03-22T08:36:30.163Z</time></trkpt><trkpt lat="45.0024033" lon="11.65375"><ele>5.0</ele><time>2026-03-22T08:36:32.161Z</time></trkpt><trkpt lat="45.0023433" lon="11.653625"><ele>5.5</ele><time>2026-03-22T08:36:34.159Z</time></trkpt><trkpt lat="45.0022867" lon="11.6534733"><ele>6.0</ele><time>2026-03-22T08:36:36.158Z</time></trkpt><trkpt lat="45.0022583" lon="11.6533083"><ele>6.5</ele><time>2026-03-22T08:36:38.163Z</time></trkpt><trkpt lat="45.00224" lon="11.6531367"><ele>7.0</ele><time>2026-03-22T08:36:40.166Z</time></trkpt><trkpt lat="45.002225" lon="11.65296"><ele>7.0</ele><time>2026-03-22T08:36:42.157Z</time></trkpt><trkpt lat="45.0022233" lon="11.65287"><ele>7.0</ele><time>2026-03-22T08:36:43.166Z</time></trkpt><trkpt lat="45.0022217" lon="11.6527783"><ele>7.0</ele><time>2026-03-22T08:36:44.167Z</time></trkpt><trkpt lat="45.0022217" lon="11.6526833"><ele>7.0</ele><time>2026-03-22T08:36:45.164Z</time></trkpt><trkpt lat="45.0022233" lon="11.652585"><ele>7.0</ele><time>2026-03-22T08:36:46.161Z</time></trkpt><trkpt lat="45.0022233" lon="11.6524833"><ele>7.0</ele><time>2026-03-22T08:36:47.156Z</time></trkpt><trkpt lat="45.0022267" lon="11.65238"><ele>7.0</ele><time>2026-03-22T08:36:48.156Z</time></trkpt><trkpt lat="45.0022317" lon="11.652275"><ele>7.0</ele><time>2026-03-22T08:36:49.161Z</time></trkpt><trkpt lat="45.00224" lon="11.6521733"><ele>7.0</ele><time>2026-03-22T08:36:50.157Z</time></trkpt><trkpt lat="45.0022517" lon="11.652075"><ele>7.0</ele><time>2026-03-22T08:36:51.159Z</time></trkpt><trkpt lat="45.0022717" lon="11.6519817"><ele>7.0</ele><time>2026-03-22T08:36:52.155Z</time></trkpt><trkpt lat="45.0022983" lon="11.6518883"><ele>7.0</ele><time>2026-03-22T08:36:53.143Z</time></trkpt><trkpt lat="45.0023233" lon="11.6517983"><ele>7.0</ele><time>2026-03-22T08:36:54.166Z</time></trkpt><trkpt lat="45.00235" lon="11.6517117"><ele>7.0</ele><time>2026-03-22T08:36:55.164Z</time></trkpt><trkpt lat="45.0023767" lon="11.6516267"><ele>7.0</ele><time>2026-03-22T08:36:56.165Z</time></trkpt><trkpt lat="45.0024067" lon="11.651545"><ele>7.0</ele><time>2026-03-22T08:36:57.16Z</time></trkpt><trkpt lat="45.0024333" lon="11.6514617"><ele>7.0</ele><time>2026-03-22T08:36:58.172Z</time></trkpt><trkpt lat="45.00246" lon="11.6513767"><ele>7.0</ele><time>2026-03-22T08:36:59.162Z</time></trkpt><trkpt lat="45.002485" lon="11.6512917"><ele>7.0</ele><time>2026-03-22T08:37:00.159Z</time></trkpt><trkpt lat="45.0025117" lon="11.6512083"><ele>7.0</ele><time>2026-03-22T08:37:01.165Z</time></trkpt><trkpt lat="45.0025367" lon="11.6511233"><ele>7.0</ele><time>2026-03-22T08:37:02.162Z</time></trkpt><trkpt lat="45.00256" lon="11.65104"><ele>6.8</ele><time>2026-03-22T08:37:03.163Z</time></trkpt><trkpt lat="45.0025817" lon="11.6509533"><ele>6.6</ele><time>2026-03-22T08:37:04.161Z</time></trkpt><trkpt lat="45.0026017" lon="11.6508683"><ele>6.3999999999999995</ele><time>2026-03-22T08:37:05.161Z</time></trkpt><trkpt lat="45.00264" lon="11.6507017"><ele>6.199999999999999</ele><time>2026-03-22T08:37:07.16Z</time></trkpt><trkpt lat="45.0026783" lon="11.6505317"><ele>6.0</ele><time>2026-03-22T08:37:09.154Z</time></trkpt><trkpt lat="45.0027167" lon="11.6503633"><ele>6.166666666666667</ele><time>2026-03-22T08:37:11.167Z</time></trkpt><trkpt lat="45.0027367" lon="11.6502767"><ele>6.333333333333334</ele><time>2026-03-22T08:37:12.158Z</time></trkpt><trkpt lat="45.00276" lon="11.6501883"><ele>6.5</ele><time>2026-03-22T08:37:13.167Z</time></trkpt><trkpt lat="45.0028" lon="11.650015"><ele>6.666666666666667</ele><time>2026-03-22T08:37:15.16Z</time></trkpt><trkpt lat="45.00282" lon="11.6499267"><ele>6.833333333333334</ele><time>2026-03-22T08:37:16.157Z</time></trkpt><trkpt lat="45.002835" lon="11.64984"><ele>7.0</ele><time>2026-03-22T08:37:17.164Z</time></trkpt><trkpt lat="45.0028567" lon="11.6497483"><ele>7.0</ele><time>2026-03-22T08:37:18.133Z</time></trkpt><trkpt lat="45.002875" lon="11.649655"><ele>7.0</ele><time>2026-03-22T08:37:19.147Z</time></trkpt><trkpt lat="45.00289" lon="11.6495633"><ele>7.0</ele><time>2026-03-22T08:37:20.168Z</time></trkpt><trkpt lat="45.0029033" lon="11.6494683"><ele>7.0</ele><time>2026-03-22T08:37:21.153Z</time></trkpt><trkpt lat="45.0029133" lon="11.64937"><ele>7.0</ele><time>2026-03-22T08:37:22.164Z</time></trkpt><trkpt lat="45.0029233" lon="11.6492717"><ele>7.0</ele><time>2026-03-22T08:37:23.13Z</time></trkpt><trkpt lat="45.00293" lon="11.6491733"><ele>7.0</ele><time>2026-03-22T08:37:24.157Z</time></trkpt><trkpt lat="45.0029333" lon="11.6490733"><ele>6.833333333333334</ele><time>2026-03-22T08:37:25.173Z</time></trkpt><trkpt lat="45.002935" lon="11.6489767"><ele>6.666666666666667</ele><time>2026-03-22T08:37:26.148Z</time></trkpt><trkpt lat="45.0029367" lon="11.6488783"><ele>6.5</ele><time>2026-03-22T08:37:27.164Z</time></trkpt><trkpt lat="45.00294" lon="11.648785"><ele>6.333333333333334</ele><time>2026-03-22T08:37:28.164Z</time></trkpt><trkpt lat="45.0029417" lon="11.6486917"><ele>6.166666666666667</ele><time>2026-03-22T08:37:29.166Z</time></trkpt><trkpt lat="45.0029483" lon="11.6486017"><ele>6.0</ele><time>2026-03-22T08:37:30.151Z</time></trkpt><trkpt lat="45.00296" lon="11.648425"><ele>5.857142857142857</ele><time>2026-03-22T08:37:32.159Z</time></trkpt><trkpt lat="45.0029683" lon="11.6483367"><ele>5.714285714285714</ele><time>2026-03-22T08:37:33.166Z</time></trkpt><trkpt lat="45.0029767" lon="11.648245"><ele>5.571428571428571</ele><time>2026-03-22T08:37:34.167Z</time></trkpt><trkpt lat="45.0029833" lon="11.6481533"><ele>5.428571428571429</ele><time>2026-03-22T08:37:35.166Z</time></trkpt><trkpt lat="45.0029917" lon="11.64806"><ele>5.285714285714286</ele><time>2026-03-22T08:37:36.157Z</time></trkpt><trkpt lat="45.0030017" lon="11.647965"><ele>5.142857142857142</ele><time>2026-03-22T08:37:37.167Z</time></trkpt><trkpt lat="45.0030133" lon="11.6478733"><ele>5.0</ele><time>2026-03-22T08:37:38.166Z</time></trkpt><trkpt lat="45.0030233" lon="11.64778"><ele>5.0</ele><time>2026-03-22T08:37:39.164Z</time></trkpt><trkpt lat="45.0030333" lon="11.6476833"><ele>5.0</ele><time>2026-03-22T08:37:40.168Z</time></trkpt><trkpt lat="45.003045" lon="11.647585"><ele>5.0</ele><time>2026-03-22T08:37:41.16Z</time></trkpt><trkpt lat="45.0030533" lon="11.6474883"><ele>5.0</ele><time>2026-03-22T08:37:42.162Z</time></trkpt><trkpt lat="45.0030617" lon="11.6473917"><ele>5.0</ele><time>2026-03-22T08:37:43.167Z</time></trkpt><trkpt lat="45.0030683" lon="11.647295"><ele>5.0</ele><time>2026-03-22T08:37:44.17Z</time></trkpt><trkpt lat="45.0030767" lon="11.6471967"><ele>5.0</ele><time>2026-03-22T08:37:45.166Z</time></trkpt><trkpt lat="45.0030833" lon="11.6470983"><ele>5.0</ele><time>2026-03-22T08:37:46.155Z</time></trkpt><trkpt lat="45.0030917" lon="11.647005"><ele>5.0</ele><time>2026-03-22T08:37:47.156Z</time></trkpt><trkpt lat="45.0030967" lon="11.6469117"><ele>5.0</ele><time>2026-03-22T08:37:48.167Z</time></trkpt><trkpt lat="45.0031017" lon="11.646815"><ele>5.0</ele><time>2026-03-22T08:37:49.168Z</time></trkpt><trkpt lat="45.0031017" lon="11.6467167"><ele>5.0</ele><time>2026-03-22T08:37:50.157Z</time></trkpt><trkpt lat="45.0031017" lon="11.6466183"><ele>5.0</ele><time>2026-03-22T08:37:51.138Z</time></trkpt><trkpt lat="45.0031" lon="11.6465167"><ele>5.0</ele><time>2026-03-22T08:37:52.164Z</time></trkpt><trkpt lat="45.0030983" lon="11.6464183"><ele>5.0</ele><time>2026-03-22T08:37:53.162Z</time></trkpt><trkpt lat="45.0030967" lon="11.6463183"><ele>5.0</ele><time>2026-03-22T08:37:54.166Z</time></trkpt><trkpt lat="45.0030933" lon="11.6462183"><ele>5.0</ele><time>2026-03-22T08:37:55.165Z</time></trkpt><trkpt lat="45.0030883" lon="11.64612"><ele>5.0</ele><time>2026-03-22T08:37:56.166Z</time></trkpt><trkpt lat="45.0030783" lon="11.6460217"><ele>5.0</ele><time>2026-03-22T08:37:57.162Z</time></trkpt><trkpt lat="45.0030633" lon="11.645925"><ele>5.0</ele><time>2026-03-22T08:37:58.167Z</time></trkpt><trkpt lat="45.0030417" lon="11.64583"><ele>5.0</ele><time>2026-03-22T08:37:59.169Z</time></trkpt><trkpt lat="45.0030183" lon="11.6457417"><ele>5.0</ele><time>2026-03-22T08:38:00.17Z</time></trkpt><trkpt lat="45.0029917" lon="11.645655"><ele>5.0</ele><time>2026-03-22T08:38:01.165Z</time></trkpt><trkpt lat="45.0029567" lon="11.64557"><ele>5.0</ele><time>2026-03-22T08:38:02.134Z</time></trkpt><trkpt lat="45.0029217" lon="11.6454917"><ele>5.0</ele><time>2026-03-22T08:38:03.156Z</time></trkpt><trkpt lat="45.00285" lon="11.6453433"><ele>5.0</ele><time>2026-03-22T08:38:05.166Z</time></trkpt><trkpt lat="45.0027733" lon="11.6452"><ele>5.0</ele><time>2026-03-22T08:38:07.167Z</time></trkpt><trkpt lat="45.002735" lon="11.6451233"><ele>5.0</ele><time>2026-03-22T08:38:08.169Z</time></trkpt><trkpt lat="45.0026967" lon="11.6450483"><ele>5.0</ele><time>2026-03-22T08:38:09.168Z</time></trkpt><trkpt lat="45.0026583" lon="11.64497"><ele>5.0</ele><time>2026-03-22T08:38:10.168Z</time></trkpt><trkpt lat="45.002615" lon="11.64489"><ele>5.0</ele><time>2026-03-22T08:38:11.158Z</time></trkpt><trkpt lat="45.0025733" lon="11.6448067"><ele>5.0</ele><time>2026-03-22T08:38:12.165Z</time></trkpt><trkpt lat="45.002535" lon="11.644725"><ele>5.0</ele><time>2026-03-22T08:38:13.164Z</time></trkpt><trkpt lat="45.002495" lon="11.6446433"><ele>5.0</ele><time>2026-03-22T08:38:14.168Z</time></trkpt><trkpt lat="45.002455" lon="11.6445633"><ele>5.0</ele><time>2026-03-22T08:38:15.168Z</time></trkpt><trkpt lat="45.0024117" lon="11.6444817"><ele>5.0</ele><time>2026-03-22T08:38:16.165Z</time></trkpt><trkpt lat="45.0023717" lon="11.6444"><ele>5.0</ele><time>2026-03-22T08:38:17.167Z</time></trkpt><trkpt lat="45.0023317" lon="11.6443183"><ele>5.0</ele><time>2026-03-22T08:38:18.164Z</time></trkpt><trkpt lat="45.0022917" lon="11.6442367"><ele>5.0</ele><time>2026-03-22T08:38:19.166Z</time></trkpt><trkpt lat="45.0022533" lon="11.644155"><ele>5.0</ele><time>2026-03-22T08:38:20.166Z</time></trkpt><trkpt lat="45.0022133" lon="11.6440717"><ele>5.0</ele><time>2026-03-22T08:38:21.167Z</time></trkpt><trkpt lat="45.002175" lon="11.6439883"><ele>5.0</ele><time>2026-03-22T08:38:22.167Z</time></trkpt><trkpt lat="45.002135" lon="11.6439017"><ele>5.0</ele><time>2026-03-22T08:38:23.137Z</time></trkpt><trkpt lat="45.002095" lon="11.64382"><ele>5.0</ele><time>2026-03-22T08:38:24.152Z</time></trkpt><trkpt lat="45.0020567" lon="11.643735"><ele>5.0</ele><time>2026-03-22T08:38:25.164Z</time></trkpt><trkpt lat="45.002015" lon="11.64365"><ele>5.0</ele><time>2026-03-22T08:38:26.151Z</time></trkpt><trkpt lat="45.0019733" lon="11.6435667"><ele>5.0</ele><time>2026-03-22T08:38:27.161Z</time></trkpt><trkpt lat="45.0019317" lon="11.643485"><ele>5.0</ele><time>2026-03-22T08:38:28.168Z</time></trkpt><trkpt lat="45.0018917" lon="11.6434017"><ele>5.0</ele><time>2026-03-22T08:38:29.164Z</time></trkpt><trkpt lat="45.0018533" lon="11.6433183"><ele>5.0</ele><time>2026-03-22T08:38:30.166Z</time></trkpt><trkpt lat="45.0018167" lon="11.6432317"><ele>5.0</ele><time>2026-03-22T08:38:31.163Z</time></trkpt><trkpt lat="45.001785" lon="11.6431467"><ele>5.0</ele><time>2026-03-22T08:38:32.169Z</time></trkpt><trkpt lat="45.0017517" lon="11.6430617"><ele>5.0</ele><time>2026-03-22T08:38:33.165Z</time></trkpt><trkpt lat="45.0017233" lon="11.6429783"><ele>5.0</ele><time>2026-03-22T08:38:34.152Z</time></trkpt><trkpt lat="45.0016733" lon="11.6428217"><ele>4.8</ele><time>2026-03-22T08:38:36.164Z</time></trkpt><trkpt lat="45.0016267" lon="11.6426617"><ele>4.6</ele><time>2026-03-22T08:38:38.167Z</time></trkpt><trkpt lat="45.00158" lon="11.6424967"><ele>4.4</ele><time>2026-03-22T08:38:40.17Z</time></trkpt><trkpt lat="45.0015567" lon="11.642405"><ele>4.2</ele><time>2026-03-22T08:38:41.166Z</time></trkpt><trkpt lat="45.001535" lon="11.6423117"><ele>4.0</ele><time>2026-03-22T08:38:42.167Z</time></trkpt><trkpt lat="45.0015167" lon="11.642215"><ele>4.0</ele><time>2026-03-22T08:38:43.167Z</time></trkpt><trkpt lat="45.0015" lon="11.6421167"><ele>3.9999999999999996</ele><time>2026-03-22T08:38:44.17Z</time></trkpt><trkpt lat="45.001485" lon="11.6420183"><ele>4.0</ele><time>2026-03-22T08:38:45.165Z</time></trkpt><trkpt lat="45.0014717" lon="11.6419183"><ele>4.0</ele><time>2026-03-22T08:38:46.164Z</time></trkpt><trkpt lat="45.0014583" lon="11.6418167"><ele>3.9999999999999996</ele><time>2026-03-22T08:38:47.166Z</time></trkpt><trkpt lat="45.001445" lon="11.6417183"><ele>4.0</ele><time>2026-03-22T08:38:48.166Z</time></trkpt><trkpt lat="45.001435" lon="11.64162"><ele>4.0</ele><time>2026-03-22T08:38:49.168Z</time></trkpt><trkpt lat="45.0014133" lon="11.6414517"><ele>3.75</ele><time>2026-03-22T08:38:51.169Z</time></trkpt><trkpt lat="45.0014033" lon="11.6412967"><ele>3.5</ele><time>2026-03-22T08:38:53.132Z</time></trkpt><trkpt lat="45.0013983" lon="11.6411383"><ele>3.25</ele><time>2026-03-22T08:38:55.135Z</time></trkpt><trkpt lat="45.001395" lon="11.6409783"><ele>3.0</ele><time>2026-03-22T08:38:57.168Z</time></trkpt><trkpt lat="45.0013917" lon="11.6408083"><ele>3.0</ele><time>2026-03-22T08:38:59.167Z</time></trkpt><trkpt lat="45.0013917" lon="11.6407183"><ele>3.0</ele><time>2026-03-22T08:39:00.169Z</time></trkpt><trkpt lat="45.0013967" lon="11.6405417"><ele>3.0</ele><time>2026-03-22T08:39:02.147Z</time></trkpt><trkpt lat="45.0014033" lon="11.6403667"><ele>3.0</ele><time>2026-03-22T08:39:04.167Z</time></trkpt><trkpt lat="45.0014217" lon="11.6401867"><ele>3.0</ele><time>2026-03-22T08:39:06.158Z</time></trkpt><trkpt lat="45.001435" lon="11.640095"><ele>3.2857142857142856</ele><time>2026-03-22T08:39:07.166Z</time></trkpt><trkpt lat="45.00145" lon="11.64"><ele>3.571428571428571</ele><time>2026-03-22T08:39:08.171Z</time></trkpt><trkpt lat="45.001465" lon="11.6399133"><ele>3.8571428571428568</ele><time>2026-03-22T08:39:09.165Z</time></trkpt><trkpt lat="45.0014817" lon="11.6398183"><ele>4.142857142857142</ele><time>2026-03-22T08:39:10.163Z</time></trkpt><trkpt lat="45.0015017" lon="11.6397283"><ele>4.428571428571429</ele><time>2026-03-22T08:39:11.164Z</time></trkpt><trkpt lat="45.00152" lon="11.6396367"><ele>4.714285714285714</ele><time>2026-03-22T08:39:12.165Z</time></trkpt><trkpt lat="45.0015383" lon="11.6395433"><ele>5.0</ele><time>2026-03-22T08:39:13.169Z</time></trkpt><trkpt lat="45.0015617" lon="11.6394517"><ele>5.333333333333334</ele><time>2026-03-22T08:39:14.167Z</time></trkpt><trkpt lat="45.001585" lon="11.63936"><ele>5.666666666666667</ele><time>2026-03-22T08:39:15.165Z</time></trkpt><trkpt lat="45.001605" lon="11.63927"><ele>6.0</ele><time>2026-03-22T08:39:16.148Z</time></trkpt><trkpt lat="45.0016267" lon="11.6391817"><ele>6.333333333333334</ele><time>2026-03-22T08:39:17.16Z</time></trkpt><trkpt lat="45.001665" lon="11.63902"><ele>6.666666666666667</ele><time>2026-03-22T08:39:19.162Z</time></trkpt><trkpt lat="45.0017033" lon="11.6388683"><ele>7.0</ele><time>2026-03-22T08:39:21.167Z</time></trkpt><trkpt lat="45.0017467" lon="11.63871"><ele>7.0</ele><time>2026-03-22T08:39:23.163Z</time></trkpt><trkpt lat="45.0017867" lon="11.6385417"><ele>6.999999999999999</ele><time>2026-03-22T08:39:25.164Z</time></trkpt><trkpt lat="45.0018117" lon="11.6384583"><ele>6.999999999999999</ele><time>2026-03-22T08:39:26.164Z</time></trkpt><trkpt lat="45.00186" lon="11.6382917"><ele>7.0</ele><time>2026-03-22T08:39:28.157Z</time></trkpt><trkpt lat="45.001885" lon="11.6382083"><ele>7.0</ele><time>2026-03-22T08:39:29.162Z</time></trkpt><trkpt lat="45.001935" lon="11.638045"><ele>7.0</ele><time>2026-03-22T08:39:31.164Z</time></trkpt><trkpt lat="45.00196" lon="11.6379617"><ele>6.999999999999999</ele><time>2026-03-22T08:39:32.153Z</time></trkpt><trkpt lat="45.002005" lon="11.6378"><ele>6.999999999999999</ele><time>2026-03-22T08:39:34.164Z</time></trkpt><trkpt lat="45.0020433" lon="11.6376333"><ele>7.0</ele><time>2026-03-22T08:39:36.165Z</time></trkpt><trkpt lat="45.0020783" lon="11.637465"><ele>7.0</ele><time>2026-03-22T08:39:38.162Z</time></trkpt><trkpt lat="45.0020933" lon="11.6373783"><ele>7.000000000000001</ele><time>2026-03-22T08:39:39.167Z</time></trkpt><trkpt lat="45.0021083" lon="11.6372917"><ele>7.0</ele><time>2026-03-22T08:39:40.16Z</time></trkpt><trkpt lat="45.002125" lon="11.6372017"><ele>7.0</ele><time>2026-03-22T08:39:41.165Z</time></trkpt><trkpt lat="45.0021483" lon="11.6370267"><ele>7.0</ele><time>2026-03-22T08:39:43.165Z</time></trkpt><trkpt lat="45.0021567" lon="11.6369383"><ele>7.000000000000001</ele><time>2026-03-22T08:39:44.161Z</time></trkpt><trkpt lat="45.002165" lon="11.63685"><ele>7.0</ele><time>2026-03-22T08:39:45.148Z</time></trkpt><trkpt lat="45.0021783" lon="11.63668"><ele>6.8</ele><time>2026-03-22T08:39:47.17Z</time></trkpt><trkpt lat="45.0021917" lon="11.6365117"><ele>6.6</ele><time>2026-03-22T08:39:49.164Z</time></trkpt><trkpt lat="45.002195" lon="11.6364217"><ele>6.3999999999999995</ele><time>2026-03-22T08:39:50.164Z</time></trkpt><trkpt lat="45.0022" lon="11.6362467"><ele>6.199999999999999</ele><time>2026-03-22T08:39:52.159Z</time></trkpt><trkpt lat="45.0022" lon="11.6361567"><ele>6.0</ele><time>2026-03-22T08:39:53.147Z</time></trkpt><trkpt lat="45.0022" lon="11.6359833"><ele>6.0</ele><time>2026-03-22T08:39:55.162Z</time></trkpt><trkpt lat="45.0021983" lon="11.6358067"><ele>6.0</ele><time>2026-03-22T08:39:57.163Z</time></trkpt><trkpt lat="45.0022" lon="11.6357117"><ele>6.0</ele><time>2026-03-22T08:39:58.163Z</time></trkpt><trkpt lat="45.0021983" lon="11.6356183"><ele>6.0</ele><time>2026-03-22T08:39:59.147Z</time></trkpt><trkpt lat="45.0021983" lon="11.6355233"><ele>6.0</ele><time>2026-03-22T08:40:00.157Z</time></trkpt><trkpt lat="45.0022" lon="11.63543"><ele>6.0</ele><time>2026-03-22T08:40:01.16Z</time></trkpt><trkpt lat="45.0022017" lon="11.6353383"><ele>5.857142857142857</ele><time>2026-03-22T08:40:02.17Z</time></trkpt><trkpt lat="45.0022067" lon="11.6352467"><ele>5.714285714285714</ele><time>2026-03-22T08:40:03.167Z</time></trkpt><trkpt lat="45.0022117" lon="11.6351567"><ele>5.571428571428571</ele><time>2026-03-22T08:40:04.137Z</time></trkpt><trkpt lat="45.0022167" lon="11.635065"><ele>5.428571428571429</ele><time>2026-03-22T08:40:05.156Z</time></trkpt><trkpt lat="45.0022233" lon="11.6349717"><ele>5.285714285714286</ele><time>2026-03-22T08:40:06.172Z</time></trkpt><trkpt lat="45.0022283" lon="11.6348783"><ele>5.142857142857142</ele><time>2026-03-22T08:40:07.166Z</time></trkpt><trkpt lat="45.0022317" lon="11.6347833"><ele>5.0</ele><time>2026-03-22T08:40:08.139Z</time></trkpt><trkpt lat="45.0022317" lon="11.63469"><ele>5.0</ele><time>2026-03-22T08:40:09.164Z</time></trkpt><trkpt lat="45.002235" lon="11.6345167"><ele>5.0</ele><time>2026-03-22T08:40:11.166Z</time></trkpt><trkpt lat="45.0022383" lon="11.63434"><ele>5.0</ele><time>2026-03-22T08:40:13.149Z</time></trkpt><trkpt lat="45.0022367" lon="11.6342483"><ele>5.0</ele><time>2026-03-22T08:40:14.166Z</time></trkpt><trkpt lat="45.0022333" lon="11.6341567"><ele>5.0</ele><time>2026-03-22T08:40:15.152Z</time></trkpt><trkpt lat="45.0022267" lon="11.634065"><ele>5.0</ele><time>2026-03-22T08:40:16.159Z</time></trkpt><trkpt lat="45.0022233" lon="11.6338883"><ele>4.857142857142857</ele><time>2026-03-22T08:40:18.162Z</time></trkpt><trkpt lat="45.00222" lon="11.633795"><ele>4.714285714285714</ele><time>2026-03-22T08:40:19.159Z</time></trkpt><trkpt lat="45.0022183" lon="11.633705"><ele>4.571428571428571</ele><time>2026-03-22T08:40:20.131Z</time></trkpt><trkpt lat="45.0022167" lon="11.6336133"><ele>4.428571428571429</ele><time>2026-03-22T08:40:21.159Z</time></trkpt><trkpt lat="45.00221" lon="11.6335183"><ele>4.285714285714286</ele><time>2026-03-22T08:40:22.157Z</time></trkpt><trkpt lat="45.002205" lon="11.6334267"><ele>4.142857142857142</ele><time>2026-03-22T08:40:23.159Z</time></trkpt><trkpt lat="45.0021983" lon="11.633335"><ele>4.0</ele><time>2026-03-22T08:40:24.13Z</time></trkpt><trkpt lat="45.00219" lon="11.6332433"><ele>4.4</ele><time>2026-03-22T08:40:25.157Z</time></trkpt><trkpt lat="45.0021833" lon="11.6331517"><ele>4.800000000000001</ele><time>2026-03-22T08:40:26.167Z</time></trkpt><trkpt lat="45.0021683" lon="11.632975"><ele>5.199999999999999</ele><time>2026-03-22T08:40:28.166Z</time></trkpt><trkpt lat="45.00215" lon="11.6328067"><ele>5.6</ele><time>2026-03-22T08:40:30.165Z</time></trkpt><trkpt lat="45.0021333" lon="11.6326467"><ele>6.0</ele><time>2026-03-22T08:40:32.163Z</time></trkpt><trkpt lat="45.002115" lon="11.6324967"><ele>6.0</ele><time>2026-03-22T08:40:34.167Z</time></trkpt><trkpt lat="45.0021" lon="11.63235"><ele>6.0</ele><time>2026-03-22T08:40:36.151Z</time></trkpt><trkpt lat="45.002085" lon="11.6321983"><ele>6.0</ele><time>2026-03-22T08:40:38.168Z</time></trkpt><trkpt lat="45.0020683" lon="11.632055"><ele>6.0</ele><time>2026-03-22T08:40:40.167Z</time></trkpt><trkpt lat="45.00206" lon="11.6319333"><ele>6.0</ele><time>2026-03-22T08:40:42.174Z</time></trkpt><trkpt lat="45.0020583" lon="11.6318217"><ele>6.0</ele><time>2026-03-22T08:40:44.173Z</time></trkpt><trkpt lat="45.0020683" lon="11.6316983"><ele>6.0</ele><time>2026-03-22T08:40:46.166Z</time></trkpt><trkpt lat="45.002085" lon="11.6315633"><ele>6.0</ele><time>2026-03-22T08:40:48.165Z</time></trkpt><trkpt lat="45.0020983" lon="11.6314083"><ele>6.0</ele><time>2026-03-22T08:40:50.157Z</time></trkpt><trkpt lat="45.00212" lon="11.6312467"><ele>6.0</ele><time>2026-03-22T08:40:52.153Z</time></trkpt><trkpt lat="45.0021517" lon="11.6310783"><ele>5.999999999999999</ele><time>2026-03-22T08:40:54.164Z</time></trkpt><trkpt lat="45.0021667" lon="11.6309917"><ele>6.0</ele><time>2026-03-22T08:40:55.156Z</time></trkpt><trkpt lat="45.0021833" lon="11.6309033"><ele>6.0</ele><time>2026-03-22T08:40:56.157Z</time></trkpt><trkpt lat="45.0022" lon="11.630815"><ele>6.0</ele><time>2026-03-22T08:40:57.165Z</time></trkpt><trkpt lat="45.0022167" lon="11.6307233"><ele>6.0</ele><time>2026-03-22T08:40:58.154Z</time></trkpt><trkpt lat="45.0022333" lon="11.6306317"><ele>5.999999999999999</ele><time>2026-03-22T08:40:59.167Z</time></trkpt><trkpt lat="45.0022517" lon="11.6305383"><ele>6.0</ele><time>2026-03-22T08:41:00.167Z</time></trkpt><trkpt lat="45.0022683" lon="11.6304467"><ele>5.999999999999999</ele><time>2026-03-22T08:41:01.167Z</time></trkpt><trkpt lat="45.002285" lon="11.6303517"><ele>6.0</ele><time>2026-03-22T08:41:02.158Z</time></trkpt><trkpt lat="45.0023017" lon="11.6302567"><ele>6.0</ele><time>2026-03-22T08:41:03.159Z</time></trkpt><trkpt lat="45.0023167" lon="11.6301683"><ele>6.0</ele><time>2026-03-22T08:41:04.167Z</time></trkpt><trkpt lat="45.002335" lon="11.6300783"><ele>6.0</ele><time>2026-03-22T08:41:05.163Z</time></trkpt><trkpt lat="45.0023517" lon="11.6299883"><ele>5.999999999999999</ele><time>2026-03-22T08:41:06.165Z</time></trkpt><trkpt lat="45.0023683" lon="11.6299017"><ele>6.0</ele><time>2026-03-22T08:41:07.166Z</time></trkpt><trkpt lat="45.002385" lon="11.6298117"><ele>5.999999999999999</ele><time>2026-03-22T08:41:08.137Z</time></trkpt><trkpt lat="45.0024017" lon="11.6297217"><ele>6.0</ele><time>2026-03-22T08:41:09.157Z</time></trkpt><trkpt lat="45.0024133" lon="11.62963"><ele>6.0</ele><time>2026-03-22T08:41:10.165Z</time></trkpt><trkpt lat="45.00243" lon="11.6295367"><ele>6.0</ele><time>2026-03-22T08:41:11.166Z</time></trkpt><trkpt lat="45.0024467" lon="11.6294483"><ele>6.0</ele><time>2026-03-22T08:41:12.169Z</time></trkpt><trkpt lat="45.0024617" lon="11.6293583"><ele>5.999999999999999</ele><time>2026-03-22T08:41:13.143Z</time></trkpt><trkpt lat="45.0024733" lon="11.62927"><ele>6.0</ele><time>2026-03-22T08:41:14.165Z</time></trkpt><trkpt lat="45.0024967" lon="11.6290967"><ele>6.0</ele><time>2026-03-22T08:41:16.168Z</time></trkpt><trkpt lat="45.0025233" lon="11.6289233"><ele>6.0</ele><time>2026-03-22T08:41:18.164Z</time></trkpt><trkpt lat="45.0025383" lon="11.628835"><ele>6.0</ele><time>2026-03-22T08:41:19.162Z</time></trkpt><trkpt lat="45.00255" lon="11.6287433"><ele>6.0</ele><time>2026-03-22T08:41:20.16Z</time></trkpt><trkpt lat="45.00256" lon="11.6286517"><ele>6.0</ele><time>2026-03-22T08:41:21.168Z</time></trkpt><trkpt lat="45.0025733" lon="11.6285567"><ele>6.0</ele><time>2026-03-22T08:41:22.166Z</time></trkpt><trkpt lat="45.0025867" lon="11.6284633"><ele>6.0</ele><time>2026-03-22T08:41:23.162Z</time></trkpt><trkpt lat="45.0026" lon="11.6283733"><ele>6.0</ele><time>2026-03-22T08:41:24.163Z</time></trkpt><trkpt lat="45.0026133" lon="11.6282833"><ele>6.0</ele><time>2026-03-22T08:41:25.159Z</time></trkpt><trkpt lat="45.0026267" lon="11.628195"><ele>6.0</ele><time>2026-03-22T08:41:26.164Z</time></trkpt><trkpt lat="45.0026383" lon="11.6281067"><ele>6.0</ele><time>2026-03-22T08:41:27.166Z</time></trkpt><trkpt lat="45.0026517" lon="11.6280167"><ele>6.0</ele><time>2026-03-22T08:41:28.166Z</time></trkpt><trkpt lat="45.00268" lon="11.62784"><ele>6.166666666666667</ele><time>2026-03-22T08:41:30.16Z</time></trkpt><trkpt lat="45.0026917" lon="11.6277517"><ele>6.333333333333334</ele><time>2026-03-22T08:41:31.167Z</time></trkpt><trkpt lat="45.0027" lon="11.6276583"><ele>6.5</ele><time>2026-03-22T08:41:32.166Z</time></trkpt><trkpt lat="45.0027083" lon="11.6275667"><ele>6.666666666666667</ele><time>2026-03-22T08:41:33.166Z</time></trkpt><trkpt lat="45.0027183" lon="11.6274767"><ele>6.833333333333334</ele><time>2026-03-22T08:41:34.141Z</time></trkpt><trkpt lat="45.0027283" lon="11.6273"><ele>7.0</ele><time>2026-03-22T08:41:36.166Z</time></trkpt><trkpt lat="45.0027383" lon="11.627125"><ele>7.0</ele><time>2026-03-22T08:41:38.164Z</time></trkpt><trkpt lat="45.002745" lon="11.6269517"><ele>6.999999999999999</ele><time>2026-03-22T08:41:40.16Z</time></trkpt><trkpt lat="45.002745" lon="11.6267783"><ele>6.999999999999999</ele><time>2026-03-22T08:41:42.164Z</time></trkpt><trkpt lat="45.0027333" lon="11.6266"><ele>7.0</ele><time>2026-03-22T08:41:44.168Z</time></trkpt><trkpt lat="45.002725" lon="11.6265117"><ele>7.0</ele><time>2026-03-22T08:41:45.141Z</time></trkpt><trkpt lat="45.0027167" lon="11.6264233"><ele>7.0</ele><time>2026-03-22T08:41:46.165Z</time></trkpt><trkpt lat="45.002705" lon="11.626335"><ele>6.999999999999999</ele><time>2026-03-22T08:41:47.166Z</time></trkpt><trkpt lat="45.0026883" lon="11.626245"><ele>6.999999999999999</ele><time>2026-03-22T08:41:48.167Z</time></trkpt><trkpt lat="45.0026533" lon="11.62608"><ele>7.0</ele><time>2026-03-22T08:41:50.161Z</time></trkpt><trkpt lat="45.0026233" lon="11.6259217"><ele>7.0</ele><time>2026-03-22T08:41:52.162Z</time></trkpt><trkpt lat="45.0025883" lon="11.6257667"><ele>7.199999999999999</ele><time>2026-03-22T08:41:54.169Z</time></trkpt><trkpt lat="45.0025517" lon="11.6256117"><ele>7.3999999999999995</ele><time>2026-03-22T08:41:56.162Z</time></trkpt><trkpt lat="45.00251" lon="11.6254483"><ele>7.6000000000000005</ele><time>2026-03-22T08:41:58.167Z</time></trkpt><trkpt lat="45.0024833" lon="11.625365"><ele>7.800000000000001</ele><time>2026-03-22T08:41:59.166Z</time></trkpt><trkpt lat="45.002455" lon="11.62528"><ele>8.0</ele><time>2026-03-22T08:42:00.165Z</time></trkpt><trkpt lat="45.0024017" lon="11.62512"><ele>8.0</ele><time>2026-03-22T08:42:02.168Z</time></trkpt><trkpt lat="45.00234" lon="11.624975"><ele>8.0</ele><time>2026-03-22T08:42:04.165Z</time></trkpt><trkpt lat="45.0022767" lon="11.6248383"><ele>8.0</ele><time>2026-03-22T08:42:06.143Z</time></trkpt><trkpt lat="45.002205" lon="11.6246983"><ele>8.0</ele><time>2026-03-22T08:42:08.162Z</time></trkpt><trkpt lat="45.0021617" lon="11.6246283"><ele>8.0</ele><time>2026-03-22T08:42:09.248Z</time></trkpt><trkpt lat="45.00212" lon="11.6245583"><ele>8.0</ele><time>2026-03-22T08:42:10.166Z</time></trkpt><trkpt lat="45.0020433" lon="11.62442"><ele>8.0</ele><time>2026-03-22T08:42:12.166Z</time></trkpt><trkpt lat="45.0019583" lon="11.6242833"><ele>8.0</ele><time>2026-03-22T08:42:14.167Z</time></trkpt><trkpt lat="45.001915" lon="11.6242117"><ele>8.0</ele><time>2026-03-22T08:42:15.166Z</time></trkpt><trkpt lat="45.0018717" lon="11.62414"><ele>8.0</ele><time>2026-03-22T08:42:16.161Z</time></trkpt><trkpt lat="45.00183" lon="11.62407"><ele>8.0</ele><time>2026-03-22T08:42:17.147Z</time></trkpt><trkpt lat="45.0017867" lon="11.6240017"><ele>8.0</ele><time>2026-03-22T08:42:18.164Z</time></trkpt><trkpt lat="45.001745" lon="11.623935"><ele>8.0</ele><time>2026-03-22T08:42:19.171Z</time></trkpt><trkpt lat="45.0016683" lon="11.6238083"><ele>8.0</ele><time>2026-03-22T08:42:21.165Z</time></trkpt><trkpt lat="45.00159" lon="11.6236817"><ele>8.0</ele><time>2026-03-22T08:42:23.167Z</time></trkpt><trkpt lat="45.001515" lon="11.62355"><ele>7.6000000000000005</ele><time>2026-03-22T08:42:25.168Z</time></trkpt><trkpt lat="45.0014317" lon="11.6234167"><ele>7.200000000000001</ele><time>2026-03-22T08:42:27.166Z</time></trkpt><trkpt lat="45.0013867" lon="11.6233483"><ele>6.8</ele><time>2026-03-22T08:42:28.166Z</time></trkpt><trkpt lat="45.00131" lon="11.6232133"><ele>6.4</ele><time>2026-03-22T08:42:30.168Z</time></trkpt><trkpt lat="45.0012433" lon="11.6230717"><ele>6.0</ele><time>2026-03-22T08:42:32.158Z</time></trkpt><trkpt lat="45.0011767" lon="11.6229233"><ele>6.0</ele><time>2026-03-22T08:42:34.166Z</time></trkpt><trkpt lat="45.00114" lon="11.6228483"><ele>6.0</ele><time>2026-03-22T08:42:35.167Z</time></trkpt><trkpt lat="45.0011067" lon="11.6227717"><ele>6.0</ele><time>2026-03-22T08:42:36.16Z</time></trkpt><trkpt lat="45.001045" lon="11.6226283"><ele>6.0</ele><time>2026-03-22T08:42:38.16Z</time></trkpt><trkpt lat="45.00098" lon="11.6224833"><ele>6.0</ele><time>2026-03-22T08:42:40.166Z</time></trkpt><trkpt lat="45.0009083" lon="11.622335"><ele>6.0</ele><time>2026-03-22T08:42:42.164Z</time></trkpt><trkpt lat="45.000845" lon="11.622175"><ele>6.0</ele><time>2026-03-22T08:42:44.157Z</time></trkpt><trkpt lat="45.000815" lon="11.6220917"><ele>6.0</ele><time>2026-03-22T08:42:45.165Z</time></trkpt><trkpt lat="45.0007883" lon="11.6220067"><ele>6.0</ele><time>2026-03-22T08:42:46.165Z</time></trkpt><trkpt lat="45.0007633" lon="11.6219217"><ele>6.0</ele><time>2026-03-22T08:42:47.166Z</time></trkpt><trkpt lat="45.00074" lon="11.6218367"><ele>6.0</ele><time>2026-03-22T08:42:48.163Z</time></trkpt><trkpt lat="45.000715" lon="11.62175"><ele>6.0</ele><time>2026-03-22T08:42:49.164Z</time></trkpt><trkpt lat="45.0006883" lon="11.6216633"><ele>6.0</ele><time>2026-03-22T08:42:50.168Z</time></trkpt><trkpt lat="45.000665" lon="11.6215783"><ele>6.0</ele><time>2026-03-22T08:42:51.165Z</time></trkpt><trkpt lat="45.0006233" lon="11.6214133"><ele>6.0</ele><time>2026-03-22T08:42:53.169Z</time></trkpt><trkpt lat="45.0005817" lon="11.6212483"><ele>6.0</ele><time>2026-03-22T08:42:55.162Z</time></trkpt><trkpt lat="45.0005383" lon="11.6210833"><ele>6.0</ele><time>2026-03-22T08:42:57.168Z</time></trkpt><trkpt lat="45.0005" lon="11.6209233"><ele>6.0</ele><time>2026-03-22T08:42:59.136Z</time></trkpt><trkpt lat="45.0004633" lon="11.62076"><ele>6.0</ele><time>2026-03-22T08:43:01.165Z</time></trkpt><trkpt lat="45.0004217" lon="11.620595"><ele>6.0</ele><time>2026-03-22T08:43:03.166Z</time></trkpt><trkpt lat="45.0003867" lon="11.6204267"><ele>6.166666666666667</ele><time>2026-03-22T08:43:05.168Z</time></trkpt><trkpt lat="45.0003567" lon="11.620255"><ele>6.333333333333334</ele><time>2026-03-22T08:43:07.163Z</time></trkpt><trkpt lat="45.00034" lon="11.6201667"><ele>6.5</ele><time>2026-03-22T08:43:08.169Z</time></trkpt><trkpt lat="45.00032" lon="11.6200783"><ele>6.666666666666667</ele><time>2026-03-22T08:43:09.169Z</time></trkpt><trkpt lat="45.0002983" lon="11.6199883"><ele>6.833333333333334</ele><time>2026-03-22T08:43:10.165Z</time></trkpt><trkpt lat="45.0002617" lon="11.6198167"><ele>7.0</ele><time>2026-03-22T08:43:12.167Z</time></trkpt><trkpt lat="45.0002433" lon="11.61973"><ele>7.0</ele><time>2026-03-22T08:43:13.166Z</time></trkpt><trkpt lat="45.0002083" lon="11.6195633"><ele>6.999999999999999</ele><time>2026-03-22T08:43:15.144Z</time></trkpt><trkpt lat="45.00017" lon="11.61939"><ele>6.999999999999999</ele><time>2026-03-22T08:43:17.159Z</time></trkpt><trkpt lat="45.00015" lon="11.6193017"><ele>7.0</ele><time>2026-03-22T08:43:18.166Z</time></trkpt><trkpt lat="45.00013" lon="11.6192167"><ele>7.0</ele><time>2026-03-22T08:43:19.166Z</time></trkpt><trkpt lat="45.0000967" lon="11.6190533"><ele>7.3999999999999995</ele><time>2026-03-22T08:43:21.161Z</time></trkpt><trkpt lat="45.00006" lon="11.6188933"><ele>7.799999999999999</ele><time>2026-03-22T08:43:23.159Z</time></trkpt><trkpt lat="45.0000167" lon="11.6187283"><ele>8.2</ele><time>2026-03-22T08:43:25.163Z</time></trkpt><trkpt lat="44.9999933" lon="11.618645"><ele>8.6</ele><time>2026-03-22T08:43:26.162Z</time></trkpt><trkpt lat="44.9999683" lon="11.6185617"><ele>9.0</ele><time>2026-03-22T08:43:27.162Z</time></trkpt><trkpt lat="44.9999167" lon="11.6184"><ele>9.0</ele><time>2026-03-22T08:43:29.159Z</time></trkpt><trkpt lat="44.999865" lon="11.6182367"><ele>9.0</ele><time>2026-03-22T08:43:31.137Z</time></trkpt><trkpt lat="44.9998333" lon="11.61815"><ele>9.0</ele><time>2026-03-22T08:43:32.153Z</time></trkpt><trkpt lat="44.9998" lon="11.6180683"><ele>9.0</ele><time>2026-03-22T08:43:33.164Z</time></trkpt><trkpt lat="44.9997683" lon="11.61799"><ele>9.0</ele><time>2026-03-22T08:43:34.169Z</time></trkpt><trkpt lat="44.9997183" lon="11.6178317"><ele>9.0</ele><time>2026-03-22T08:43:36.167Z</time></trkpt><trkpt lat="44.9996683" lon="11.6176733"><ele>8.8</ele><time>2026-03-22T08:43:38.167Z</time></trkpt><trkpt lat="44.9996383" lon="11.617595"><ele>8.600000000000001</ele><time>2026-03-22T08:43:39.167Z</time></trkpt><trkpt lat="44.9995833" lon="11.6174383"><ele>8.4</ele><time>2026-03-22T08:43:41.165Z</time></trkpt><trkpt lat="44.9995283" lon="11.6172833"><ele>8.200000000000001</ele><time>2026-03-22T08:43:43.16Z</time></trkpt><trkpt lat="44.9994733" lon="11.6171433"><ele>8.0</ele><time>2026-03-22T08:43:45.166Z</time></trkpt><trkpt lat="44.9994233" lon="11.6169967"><ele>7.666666666666666</ele><time>2026-03-22T08:43:47.146Z</time></trkpt><trkpt lat="44.9993817" lon="11.616845"><ele>7.333333333333333</ele><time>2026-03-22T08:43:49.163Z</time></trkpt><trkpt lat="44.99933" lon="11.6166833"><ele>7.0</ele><time>2026-03-22T08:43:51.168Z</time></trkpt><trkpt lat="44.9993033" lon="11.6166"><ele>6.666666666666666</ele><time>2026-03-22T08:43:52.162Z</time></trkpt><trkpt lat="44.9992767" lon="11.6165133"><ele>6.333333333333333</ele><time>2026-03-22T08:43:53.16Z</time></trkpt><trkpt lat="44.99925" lon="11.6164267"><ele>6.0</ele><time>2026-03-22T08:43:54.166Z</time></trkpt><trkpt lat="44.9992217" lon="11.61634"><ele>6.0</ele><time>2026-03-22T08:43:55.164Z</time></trkpt><trkpt lat="44.99919" lon="11.616255"><ele>6.0</ele><time>2026-03-22T08:43:56.167Z</time></trkpt><trkpt lat="44.9991583" lon="11.6161717"><ele>6.0</ele><time>2026-03-22T08:43:57.165Z</time></trkpt><trkpt lat="44.9991083" lon="11.6160117"><ele>6.0</ele><time>2026-03-22T08:43:59.166Z</time></trkpt><trkpt lat="44.9990567" lon="11.61585"><ele>6.0</ele><time>2026-03-22T08:44:01.167Z</time></trkpt><trkpt lat="44.9990283" lon="11.6157683"><ele>6.0</ele><time>2026-03-22T08:44:02.165Z</time></trkpt><trkpt lat="44.999" lon="11.615685"><ele>6.0</ele><time>2026-03-22T08:44:03.132Z</time></trkpt><trkpt lat="44.9989467" lon="11.6155233"><ele>6.0</ele><time>2026-03-22T08:44:05.167Z</time></trkpt><trkpt lat="44.9989167" lon="11.6154417"><ele>6.0</ele><time>2026-03-22T08:44:06.17Z</time></trkpt><trkpt lat="44.998885" lon="11.61536"><ele>6.0</ele><time>2026-03-22T08:44:07.166Z</time></trkpt><trkpt lat="44.998855" lon="11.6152783"><ele>6.0</ele><time>2026-03-22T08:44:08.166Z</time></trkpt><trkpt lat="44.9988233" lon="11.615195"><ele>6.0</ele><time>2026-03-22T08:44:09.169Z</time></trkpt><trkpt lat="44.9987867" lon="11.615115"><ele>6.0</ele><time>2026-03-22T08:44:10.165Z</time></trkpt><trkpt lat="44.99875" lon="11.6150333"><ele>6.0</ele><time>2026-03-22T08:44:11.236Z</time></trkpt><trkpt lat="44.99871" lon="11.6149583"><ele>6.0</ele><time>2026-03-22T08:44:12.169Z</time></trkpt><trkpt lat="44.9986683" lon="11.6148867"><ele>6.0</ele><time>2026-03-22T08:44:13.151Z</time></trkpt><trkpt lat="44.9986267" lon="11.6148183"><ele>6.0</ele><time>2026-03-22T08:44:14.163Z</time></trkpt><trkpt lat="44.9985833" lon="11.6147483"><ele>6.0</ele><time>2026-03-22T08:44:15.167Z</time></trkpt><trkpt lat="44.9985" lon="11.6146133"><ele>6.0</ele><time>2026-03-22T08:44:17.169Z</time></trkpt><trkpt lat="44.998455" lon="11.61455"><ele>6.0</ele><time>2026-03-22T08:44:18.154Z</time></trkpt><trkpt lat="44.9983667" lon="11.6144333"><ele>6.0</ele><time>2026-03-22T08:44:20.169Z</time></trkpt><trkpt lat="44.9982783" lon="11.6143183"><ele>6.0</ele><time>2026-03-22T08:44:22.17Z</time></trkpt><trkpt lat="44.99819" lon="11.6142"><ele>6.0</ele><time>2026-03-22T08:44:24.137Z</time></trkpt><trkpt lat="44.9980967" lon="11.6140867"><ele>6.0</ele><time>2026-03-22T08:44:26.167Z</time></trkpt><trkpt lat="44.997995" lon="11.6139817"><ele>6.0</ele><time>2026-03-22T08:44:28.154Z</time></trkpt><trkpt lat="44.99794" lon="11.6139333"><ele>6.0</ele><time>2026-03-22T08:44:29.156Z</time></trkpt><trkpt lat="44.997835" lon="11.6138417"><ele>6.0</ele><time>2026-03-22T08:44:31.164Z</time></trkpt><trkpt lat="44.99778" lon="11.6137967"><ele>6.0</ele><time>2026-03-22T08:44:32.144Z</time></trkpt><trkpt lat="44.9977233" lon="11.6137567"><ele>6.0</ele><time>2026-03-22T08:44:33.155Z</time></trkpt><trkpt lat="44.9976067" lon="11.6136833"><ele>5.999999999999999</ele><time>2026-03-22T08:44:35.164Z</time></trkpt><trkpt lat="44.997545" lon="11.6136483"><ele>6.0</ele><time>2026-03-22T08:44:36.168Z</time></trkpt><trkpt lat="44.9974833" lon="11.613615"><ele>6.0</ele><time>2026-03-22T08:44:37.168Z</time></trkpt><trkpt lat="44.9974217" lon="11.6135833"><ele>6.0</ele><time>2026-03-22T08:44:38.164Z</time></trkpt><trkpt lat="44.9973583" lon="11.6135533"><ele>6.0</ele><time>2026-03-22T08:44:39.165Z</time></trkpt><trkpt lat="44.997295" lon="11.6135233"><ele>5.999999999999999</ele><time>2026-03-22T08:44:40.167Z</time></trkpt><trkpt lat="44.99723" lon="11.6134983"><ele>6.0</ele><time>2026-03-22T08:44:41.159Z</time></trkpt><trkpt lat="44.9971683" lon="11.6134733"><ele>6.142857142857142</ele><time>2026-03-22T08:44:42.162Z</time></trkpt><trkpt lat="44.997105" lon="11.6134483"><ele>6.285714285714286</ele><time>2026-03-22T08:44:43.169Z</time></trkpt><trkpt lat="44.9970433" lon="11.6134233"><ele>6.428571428571429</ele><time>2026-03-22T08:44:44.166Z</time></trkpt><trkpt lat="44.9969817" lon="11.613395"><ele>6.571428571428571</ele><time>2026-03-22T08:44:45.142Z</time></trkpt><trkpt lat="44.9969217" lon="11.6133667"><ele>6.714285714285714</ele><time>2026-03-22T08:44:46.166Z</time></trkpt><trkpt lat="44.99686" lon="11.6133383"><ele>6.857142857142857</ele><time>2026-03-22T08:44:47.157Z</time></trkpt><trkpt lat="44.9967983" lon="11.61331"><ele>7.0</ele><time>2026-03-22T08:44:48.158Z</time></trkpt><trkpt lat="44.996735" lon="11.6132817"><ele>7.0</ele><time>2026-03-22T08:44:49.165Z</time></trkpt><trkpt lat="44.9966733" lon="11.613255"><ele>6.999999999999999</ele><time>2026-03-22T08:44:50.159Z</time></trkpt><trkpt lat="44.9965533" lon="11.6132033"><ele>6.999999999999999</ele><time>2026-03-22T08:44:52.167Z</time></trkpt><trkpt lat="44.996435" lon="11.613155"><ele>7.0</ele><time>2026-03-22T08:44:54.165Z</time></trkpt><trkpt lat="44.9963233" lon="11.613105"><ele>7.0</ele><time>2026-03-22T08:44:56.163Z</time></trkpt><trkpt lat="44.9962133" lon="11.6130617"><ele>6.25</ele><time>2026-03-22T08:44:58.172Z</time></trkpt><trkpt lat="44.9961083" lon="11.613015"><ele>5.5</ele><time>2026-03-22T08:45:00.168Z</time></trkpt><trkpt lat="44.9959983" lon="11.6129633"><ele>4.75</ele><time>2026-03-22T08:45:02.169Z</time></trkpt><trkpt lat="44.9958867" lon="11.6129167"><ele>4.0</ele><time>2026-03-22T08:45:04.162Z</time></trkpt><trkpt lat="44.99577" lon="11.6128667"><ele>3.9999999999999996</ele><time>2026-03-22T08:45:06.16Z</time></trkpt><trkpt lat="44.9957083" lon="11.61284"><ele>4.0</ele><time>2026-03-22T08:45:07.167Z</time></trkpt><trkpt lat="44.9956483" lon="11.6128117"><ele>4.0</ele><time>2026-03-22T08:45:08.166Z</time></trkpt><trkpt lat="44.99553" lon="11.612755"><ele>4.0</ele><time>2026-03-22T08:45:10.171Z</time></trkpt><trkpt lat="44.9954117" lon="11.612695"><ele>3.9999999999999996</ele><time>2026-03-22T08:45:12.167Z</time></trkpt><trkpt lat="44.9953517" lon="11.6126667"><ele>4.0</ele><time>2026-03-22T08:45:13.168Z</time></trkpt><trkpt lat="44.9952333" lon="11.61261"><ele>3.9999999999999996</ele><time>2026-03-22T08:45:15.167Z</time></trkpt><trkpt lat="44.995115" lon="11.6125483"><ele>4.0</ele><time>2026-03-22T08:45:17.165Z</time></trkpt><trkpt lat="44.9950533" lon="11.612515"><ele>4.0</ele><time>2026-03-22T08:45:18.167Z</time></trkpt><trkpt lat="44.9949933" lon="11.6124833"><ele>4.0</ele><time>2026-03-22T08:45:19.166Z</time></trkpt><trkpt lat="44.9949317" lon="11.6124517"><ele>3.9999999999999996</ele><time>2026-03-22T08:45:20.169Z</time></trkpt><trkpt lat="44.99487" lon="11.61242"><ele>4.0</ele><time>2026-03-22T08:45:21.167Z</time></trkpt><trkpt lat="44.9948067" lon="11.6123917"><ele>4.0</ele><time>2026-03-22T08:45:22.136Z</time></trkpt><trkpt lat="44.994745" lon="11.6123633"><ele>4.0</ele><time>2026-03-22T08:45:23.156Z</time></trkpt><trkpt lat="44.994685" lon="11.612335"><ele>4.0</ele><time>2026-03-22T08:45:24.163Z</time></trkpt><trkpt lat="44.9945717" lon="11.6122767"><ele>4.0</ele><time>2026-03-22T08:45:26.166Z</time></trkpt><trkpt lat="44.99446" lon="11.6122217"><ele>4.0</ele><time>2026-03-22T08:45:28.164Z</time></trkpt><trkpt lat="44.9943583" lon="11.6121717"><ele>4.0</ele><time>2026-03-22T08:45:30.163Z</time></trkpt><trkpt lat="44.9942717" lon="11.61213"><ele>4.0</ele><time>2026-03-22T08:45:32.168Z</time></trkpt><trkpt lat="44.9941817" lon="11.6120833"><ele>4.0</ele><time>2026-03-22T08:45:34.193Z</time></trkpt><trkpt lat="44.9940767" lon="11.61203"><ele>4.0</ele><time>2026-03-22T08:45:36.166Z</time></trkpt><trkpt lat="44.993965" lon="11.61197"><ele>4.0</ele><time>2026-03-22T08:45:38.132Z</time></trkpt><trkpt lat="44.9939033" lon="11.61194"><ele>4.333333333333333</ele><time>2026-03-22T08:45:39.166Z</time></trkpt><trkpt lat="44.9938433" lon="11.61191"><ele>4.666666666666666</ele><time>2026-03-22T08:45:40.169Z</time></trkpt><trkpt lat="44.9937267" lon="11.6118467"><ele>5.0</ele><time>2026-03-22T08:45:42.17Z</time></trkpt><trkpt lat="44.9936667" lon="11.6118167"><ele>5.333333333333333</ele><time>2026-03-22T08:45:43.167Z</time></trkpt><trkpt lat="44.9936067" lon="11.6117883"><ele>5.666666666666667</ele><time>2026-03-22T08:45:44.167Z</time></trkpt><trkpt lat="44.9934867" lon="11.611735"><ele>6.0</ele><time>2026-03-22T08:45:46.166Z</time></trkpt><trkpt lat="44.9933733" lon="11.61168"><ele>6.199999999999999</ele><time>2026-03-22T08:45:48.167Z</time></trkpt><trkpt lat="44.9932583" lon="11.61163"><ele>6.3999999999999995</ele><time>2026-03-22T08:45:50.162Z</time></trkpt><trkpt lat="44.993155" lon="11.61157"><ele>6.6</ele><time>2026-03-22T08:45:52.162Z</time></trkpt><trkpt lat="44.9930567" lon="11.611505"><ele>6.8</ele><time>2026-03-22T08:45:54.147Z</time></trkpt><trkpt lat="44.9929617" lon="11.6114467"><ele>7.0</ele><time>2026-03-22T08:45:56.167Z</time></trkpt><trkpt lat="44.9928667" lon="11.6113733"><ele>7.0</ele><time>2026-03-22T08:45:58.169Z</time></trkpt><trkpt lat="44.99276" lon="11.61133"><ele>7.0</ele><time>2026-03-22T08:46:00.14Z</time></trkpt><trkpt lat="44.992655" lon="11.61128"><ele>7.0</ele><time>2026-03-22T08:46:02.168Z</time></trkpt><trkpt lat="44.9925517" lon="11.6112133"><ele>7.0</ele><time>2026-03-22T08:46:04.165Z</time></trkpt><trkpt lat="44.9924467" lon="11.6111333"><ele>7.0</ele><time>2026-03-22T08:46:06.168Z</time></trkpt><trkpt lat="44.99239" lon="11.61109"><ele>7.0</ele><time>2026-03-22T08:46:07.163Z</time></trkpt><trkpt lat="44.9923333" lon="11.6110467"><ele>7.0</ele><time>2026-03-22T08:46:08.165Z</time></trkpt><trkpt lat="44.9922783" lon="11.6109983"><ele>7.0</ele><time>2026-03-22T08:46:09.165Z</time></trkpt><trkpt lat="44.99223" lon="11.61094"><ele>7.0</ele><time>2026-03-22T08:46:10.151Z</time></trkpt><trkpt lat="44.99218" lon="11.6108817"><ele>7.0</ele><time>2026-03-22T08:46:11.172Z</time></trkpt><trkpt lat="44.9921317" lon="11.6108217"><ele>7.0</ele><time>2026-03-22T08:46:12.161Z</time></trkpt><trkpt lat="44.99208" lon="11.6107633"><ele>7.0</ele><time>2026-03-22T08:46:13.164Z</time></trkpt><trkpt lat="44.9920233" lon="11.6107167"><ele>6.999999999999999</ele><time>2026-03-22T08:46:14.166Z</time></trkpt><trkpt lat="44.9919667" lon="11.6106767"><ele>6.999999999999999</ele><time>2026-03-22T08:46:15.163Z</time></trkpt><trkpt lat="44.9918667" lon="11.6105817"><ele>7.0</ele><time>2026-03-22T08:46:17.157Z</time></trkpt><trkpt lat="44.99178" lon="11.61047"><ele>7.0</ele><time>2026-03-22T08:46:19.164Z</time></trkpt><trkpt lat="44.9916967" lon="11.6103533"><ele>6.75</ele><time>2026-03-22T08:46:21.128Z</time></trkpt><trkpt lat="44.9916333" lon="11.610215"><ele>6.5</ele><time>2026-03-22T08:46:23.163Z</time></trkpt><trkpt lat="44.9915867" lon="11.6100617"><ele>6.25</ele><time>2026-03-22T08:46:25.167Z</time></trkpt><trkpt lat="44.9915383" lon="11.6099083"><ele>6.0</ele><time>2026-03-22T08:46:27.169Z</time></trkpt><trkpt lat="44.991505" lon="11.6097533"><ele>6.0</ele><time>2026-03-22T08:46:29.163Z</time></trkpt><trkpt lat="44.991475" lon="11.6095917"><ele>6.0</ele><time>2026-03-22T08:46:31.147Z</time></trkpt><trkpt lat="44.9914467" lon="11.6094233"><ele>6.0</ele><time>2026-03-22T08:46:33.166Z</time></trkpt><trkpt lat="44.9914283" lon="11.60925"><ele>6.0</ele><time>2026-03-22T08:46:35.167Z</time></trkpt><trkpt lat="44.9914" lon="11.6090783"><ele>6.0</ele><time>2026-03-22T08:46:37.162Z</time></trkpt><trkpt lat="44.99139" lon="11.6089133"><ele>6.0</ele><time>2026-03-22T08:46:39.167Z</time></trkpt><trkpt lat="44.9913667" lon="11.6087333"><ele>6.0</ele><time>2026-03-22T08:46:41.165Z</time></trkpt><trkpt lat="44.9913483" lon="11.6086383"><ele>6.0</ele><time>2026-03-22T08:46:42.161Z</time></trkpt><trkpt lat="44.9913333" lon="11.6085417"><ele>6.0</ele><time>2026-03-22T08:46:43.168Z</time></trkpt><trkpt lat="44.99132" lon="11.6084483"><ele>5.857142857142857</ele><time>2026-03-22T08:46:44.168Z</time></trkpt><trkpt lat="44.9913033" lon="11.6083583"><ele>5.714285714285714</ele><time>2026-03-22T08:46:45.165Z</time></trkpt><trkpt lat="44.9912883" lon="11.6082667"><ele>5.571428571428571</ele><time>2026-03-22T08:46:46.163Z</time></trkpt><trkpt lat="44.9912717" lon="11.6081767"><ele>5.428571428571429</ele><time>2026-03-22T08:46:47.163Z</time></trkpt><trkpt lat="44.9912567" lon="11.6080867"><ele>5.285714285714286</ele><time>2026-03-22T08:46:48.164Z</time></trkpt><trkpt lat="44.9912433" lon="11.6079933"><ele>5.142857142857142</ele><time>2026-03-22T08:46:49.16Z</time></trkpt><trkpt lat="44.99123" lon="11.6079017"><ele>5.0</ele><time>2026-03-22T08:46:50.164Z</time></trkpt><trkpt lat="44.991215" lon="11.60781"><ele>4.857142857142857</ele><time>2026-03-22T08:46:51.164Z</time></trkpt><trkpt lat="44.9912" lon="11.6077183"><ele>4.714285714285714</ele><time>2026-03-22T08:46:52.144Z</time></trkpt><trkpt lat="44.991185" lon="11.6076267"><ele>4.571428571428571</ele><time>2026-03-22T08:46:53.163Z</time></trkpt><trkpt lat="44.99117" lon="11.6075383"><ele>4.428571428571429</ele><time>2026-03-22T08:46:54.146Z</time></trkpt><trkpt lat="44.9911567" lon="11.607445"><ele>4.285714285714286</ele><time>2026-03-22T08:46:55.167Z</time></trkpt><trkpt lat="44.9911433" lon="11.6073517"><ele>4.142857142857142</ele><time>2026-03-22T08:46:56.15Z</time></trkpt><trkpt lat="44.9911283" lon="11.6072617"><ele>4.0</ele><time>2026-03-22T08:46:57.138Z</time></trkpt><trkpt lat="44.991115" lon="11.6071717"><ele>4.0</ele><time>2026-03-22T08:46:58.165Z</time></trkpt><trkpt lat="44.9911" lon="11.6070783"><ele>3.9999999999999996</ele><time>2026-03-22T08:46:59.165Z</time></trkpt><trkpt lat="44.9910867" lon="11.6069883"><ele>4.0</ele><time>2026-03-22T08:47:00.161Z</time></trkpt><trkpt lat="44.9910783" lon="11.6068967"><ele>4.0</ele><time>2026-03-22T08:47:01.167Z</time></trkpt><trkpt lat="44.991065" lon="11.6068067"><ele>3.9999999999999996</ele><time>2026-03-22T08:47:02.153Z</time></trkpt><trkpt lat="44.9910533" lon="11.6067133"><ele>4.0</ele><time>2026-03-22T08:47:03.147Z</time></trkpt><trkpt lat="44.9910433" lon="11.60662"><ele>4.0</ele><time>2026-03-22T08:47:04.164Z</time></trkpt><trkpt lat="44.9910317" lon="11.6065233"><ele>4.0</ele><time>2026-03-22T08:47:05.162Z</time></trkpt><trkpt lat="44.99102" lon="11.6064267"><ele>3.9999999999999996</ele><time>2026-03-22T08:47:06.164Z</time></trkpt><trkpt lat="44.9910067" lon="11.60633"><ele>4.0</ele><time>2026-03-22T08:47:07.16Z</time></trkpt><trkpt lat="44.9909933" lon="11.6062333"><ele>4.0</ele><time>2026-03-22T08:47:08.16Z</time></trkpt><trkpt lat="44.99098" lon="11.606135"><ele>3.9999999999999996</ele><time>2026-03-22T08:47:09.162Z</time></trkpt><trkpt lat="44.9909683" lon="11.6060383"><ele>4.0</ele><time>2026-03-22T08:47:10.167Z</time></trkpt><trkpt lat="44.9909517" lon="11.60594"><ele>4.0</ele><time>2026-03-22T08:47:11.167Z</time></trkpt><trkpt lat="44.9909383" lon="11.6058433"><ele>4.0</ele><time>2026-03-22T08:47:12.163Z</time></trkpt><trkpt lat="44.9909267" lon="11.6057467"><ele>3.9999999999999996</ele><time>2026-03-22T08:47:13.166Z</time></trkpt><trkpt lat="44.9909117" lon="11.60565"><ele>4.0</ele><time>2026-03-22T08:47:14.162Z</time></trkpt><trkpt lat="44.990895" lon="11.605555"><ele>4.0</ele><time>2026-03-22T08:47:15.167Z</time></trkpt><trkpt lat="44.99088" lon="11.605465"><ele>3.9999999999999996</ele><time>2026-03-22T08:47:16.167Z</time></trkpt><trkpt lat="44.9908683" lon="11.605375"><ele>4.0</ele><time>2026-03-22T08:47:17.161Z</time></trkpt><trkpt lat="44.990855" lon="11.605285"><ele>4.0</ele><time>2026-03-22T08:47:18.164Z</time></trkpt><trkpt lat="44.99084" lon="11.6051933"><ele>4.142857142857142</ele><time>2026-03-22T08:47:19.159Z</time></trkpt><trkpt lat="44.9908283" lon="11.6051033"><ele>4.285714285714286</ele><time>2026-03-22T08:47:20.157Z</time></trkpt><trkpt lat="44.990815" lon="11.605015"><ele>4.428571428571429</ele><time>2026-03-22T08:47:21.161Z</time></trkpt><trkpt lat="44.9908017" lon="11.604925"><ele>4.571428571428571</ele><time>2026-03-22T08:47:22.163Z</time></trkpt><trkpt lat="44.9907867" lon="11.604835"><ele>4.714285714285714</ele><time>2026-03-22T08:47:23.167Z</time></trkpt><trkpt lat="44.9907733" lon="11.604745"><ele>4.857142857142857</ele><time>2026-03-22T08:47:24.136Z</time></trkpt><trkpt lat="44.9907517" lon="11.604575"><ele>5.0</ele><time>2026-03-22T08:47:26.165Z</time></trkpt><trkpt lat="44.9907333" lon="11.6044"><ele>5.142857142857142</ele><time>2026-03-22T08:47:28.139Z</time></trkpt><trkpt lat="44.990725" lon="11.60431"><ele>5.285714285714286</ele><time>2026-03-22T08:47:29.161Z</time></trkpt><trkpt lat="44.9907133" lon="11.60422"><ele>5.428571428571429</ele><time>2026-03-22T08:47:30.145Z</time></trkpt><trkpt lat="44.9907033" lon="11.60413"><ele>5.571428571428571</ele><time>2026-03-22T08:47:31.157Z</time></trkpt><trkpt lat="44.9906967" lon="11.6040383"><ele>5.714285714285714</ele><time>2026-03-22T08:47:32.165Z</time></trkpt><trkpt lat="44.9906867" lon="11.6039467"><ele>5.857142857142857</ele><time>2026-03-22T08:47:33.168Z</time></trkpt><trkpt lat="44.9906733" lon="11.6038567"><ele>6.0</ele><time>2026-03-22T08:47:34.163Z</time></trkpt><trkpt lat="44.9906617" lon="11.603765"><ele>5.999999999999999</ele><time>2026-03-22T08:47:35.142Z</time></trkpt><trkpt lat="44.9906483" lon="11.6036733"><ele>6.0</ele><time>2026-03-22T08:47:36.165Z</time></trkpt><trkpt lat="44.9906333" lon="11.603585"><ele>6.0</ele><time>2026-03-22T08:47:37.134Z</time></trkpt><trkpt lat="44.9906167" lon="11.603495"><ele>6.0</ele><time>2026-03-22T08:47:38.161Z</time></trkpt><trkpt lat="44.9905967" lon="11.603405"><ele>6.0</ele><time>2026-03-22T08:47:39.162Z</time></trkpt><trkpt lat="44.990575" lon="11.6033167"><ele>5.999999999999999</ele><time>2026-03-22T08:47:40.168Z</time></trkpt><trkpt lat="44.9905517" lon="11.6032317"><ele>6.0</ele><time>2026-03-22T08:47:41.169Z</time></trkpt><trkpt lat="44.9905267" lon="11.6031467"><ele>5.857142857142857</ele><time>2026-03-22T08:47:42.155Z</time></trkpt><trkpt lat="44.9905" lon="11.6030617"><ele>5.714285714285714</ele><time>2026-03-22T08:47:43.167Z</time></trkpt><trkpt lat="44.990475" lon="11.6029783"><ele>5.571428571428571</ele><time>2026-03-22T08:47:44.168Z</time></trkpt><trkpt lat="44.990445" lon="11.6028933"><ele>5.428571428571429</ele><time>2026-03-22T08:47:45.17Z</time></trkpt><trkpt lat="44.9904117" lon="11.6028083"><ele>5.285714285714286</ele><time>2026-03-22T08:47:46.163Z</time></trkpt><trkpt lat="44.9903783" lon="11.602725"><ele>5.142857142857142</ele><time>2026-03-22T08:47:47.159Z</time></trkpt><trkpt lat="44.9903483" lon="11.6026433"><ele>5.0</ele><time>2026-03-22T08:47:48.167Z</time></trkpt><trkpt lat="44.9903183" lon="11.6025617"><ele>5.0</ele><time>2026-03-22T08:47:49.167Z</time></trkpt><trkpt lat="44.9902883" lon="11.60248"><ele>5.0</ele><time>2026-03-22T08:47:50.167Z</time></trkpt><trkpt lat="44.9902583" lon="11.6024"><ele>5.0</ele><time>2026-03-22T08:47:51.166Z</time></trkpt><trkpt lat="44.9902" lon="11.6022467"><ele>5.0</ele><time>2026-03-22T08:47:53.167Z</time></trkpt><trkpt lat="44.9901417" lon="11.602095"><ele>5.0</ele><time>2026-03-22T08:47:55.173Z</time></trkpt><trkpt lat="44.99011" lon="11.6020167"><ele>5.0</ele><time>2026-03-22T08:47:56.136Z</time></trkpt><trkpt lat="44.9900583" lon="11.60187"><ele>5.0</ele><time>2026-03-22T08:47:58.166Z</time></trkpt><trkpt lat="44.990005" lon="11.6017217"><ele>5.0</ele><time>2026-03-22T08:48:00.164Z</time></trkpt><trkpt lat="44.989975" lon="11.6016433"><ele>5.0</ele><time>2026-03-22T08:48:01.166Z</time></trkpt><trkpt lat="44.989945" lon="11.6015617"><ele>5.0</ele><time>2026-03-22T08:48:02.16Z</time></trkpt><trkpt lat="44.989885" lon="11.6014083"><ele>5.0</ele><time>2026-03-22T08:48:04.161Z</time></trkpt><trkpt lat="44.98982" lon="11.601265"><ele>4.75</ele><time>2026-03-22T08:48:06.162Z</time></trkpt><trkpt lat="44.9897567" lon="11.6011283"><ele>4.5</ele><time>2026-03-22T08:48:08.157Z</time></trkpt><trkpt lat="44.9896983" lon="11.6009883"><ele>4.25</ele><time>2026-03-22T08:48:10.167Z</time></trkpt><trkpt lat="44.9896417" lon="11.600845"><ele>4.0</ele><time>2026-03-22T08:48:12.163Z</time></trkpt><trkpt lat="44.9895833" lon="11.6006883"><ele>4.0</ele><time>2026-03-22T08:48:14.173Z</time></trkpt><trkpt lat="44.9895517" lon="11.60061"><ele>4.0</ele><time>2026-03-22T08:48:15.167Z</time></trkpt><trkpt lat="44.9895217" lon="11.6005283"><ele>4.0</ele><time>2026-03-22T08:48:16.168Z</time></trkpt><trkpt lat="44.9894667" lon="11.6003717"><ele>4.0</ele><time>2026-03-22T08:48:18.163Z</time></trkpt><trkpt lat="44.98941" lon="11.6002183"><ele>4.0</ele><time>2026-03-22T08:48:20.147Z</time></trkpt><trkpt lat="44.98935" lon="11.6000667"><ele>4.0</ele><time>2026-03-22T08:48:22.161Z</time></trkpt><trkpt lat="44.9892917" lon="11.5999117"><ele>3.9999999999999996</ele><time>2026-03-22T08:48:24.169Z</time></trkpt><trkpt lat="44.9892583" lon="11.599835"><ele>4.0</ele><time>2026-03-22T08:48:25.168Z</time></trkpt><trkpt lat="44.9892217" lon="11.5997567"><ele>4.0</ele><time>2026-03-22T08:48:26.171Z</time></trkpt><trkpt lat="44.98919" lon="11.5996783"><ele>3.9999999999999996</ele><time>2026-03-22T08:48:27.171Z</time></trkpt><trkpt lat="44.98916" lon="11.5995983"><ele>4.0</ele><time>2026-03-22T08:48:28.137Z</time></trkpt><trkpt lat="44.9891367" lon="11.5995133"><ele>4.0</ele><time>2026-03-22T08:48:29.165Z</time></trkpt><trkpt lat="44.989125" lon="11.5994233"><ele>3.9999999999999996</ele><time>2026-03-22T08:48:30.166Z</time></trkpt><trkpt lat="44.9891217" lon="11.59933"><ele>4.0</ele><time>2026-03-22T08:48:31.166Z</time></trkpt><trkpt lat="44.9891283" lon="11.5992333"><ele>4.0</ele><time>2026-03-22T08:48:32.158Z</time></trkpt><trkpt lat="44.989145" lon="11.599145"><ele>4.0</ele><time>2026-03-22T08:48:33.158Z</time></trkpt><trkpt lat="44.9892117" lon="11.5990017"><ele>3.9999999999999996</ele><time>2026-03-22T08:48:35.166Z</time></trkpt><trkpt lat="44.989305" lon="11.59891"><ele>4.0</ele><time>2026-03-22T08:48:37.168Z</time></trkpt><trkpt lat="44.989405" lon="11.5988267"><ele>4.2</ele><time>2026-03-22T08:48:39.139Z</time></trkpt><trkpt lat="44.9894867" lon="11.598725"><ele>4.4</ele><time>2026-03-22T08:48:41.164Z</time></trkpt><trkpt lat="44.9895583" lon="11.5986183"><ele>4.6</ele><time>2026-03-22T08:48:43.163Z</time></trkpt><trkpt lat="44.9896267" lon="11.598515"><ele>4.8</ele><time>2026-03-22T08:48:45.166Z</time></trkpt><trkpt lat="44.989695" lon="11.5984033"><ele>5.0</ele><time>2026-03-22T08:48:47.162Z</time></trkpt><trkpt lat="44.9897683" lon="11.5982817"><ele>5.0</ele><time>2026-03-22T08:48:49.159Z</time></trkpt><trkpt lat="44.98984" lon="11.598155"><ele>5.0</ele><time>2026-03-22T08:48:51.163Z</time></trkpt><trkpt lat="44.9899133" lon="11.5980283"><ele>5.0</ele><time>2026-03-22T08:48:53.167Z</time></trkpt><trkpt lat="44.9899867" lon="11.5979067"><ele>5.0</ele><time>2026-03-22T08:48:55.167Z</time></trkpt><trkpt lat="44.990065" lon="11.597765"><ele>4.857142857142857</ele><time>2026-03-22T08:48:57.164Z</time></trkpt><trkpt lat="44.9901083" lon="11.5976917"><ele>4.714285714285714</ele><time>2026-03-22T08:48:58.165Z</time></trkpt><trkpt lat="44.9901533" lon="11.5976217"><ele>4.571428571428571</ele><time>2026-03-22T08:48:59.168Z</time></trkpt><trkpt lat="44.9901983" lon="11.5975533"><ele>4.428571428571429</ele><time>2026-03-22T08:49:00.176Z</time></trkpt><trkpt lat="44.9902417" lon="11.5974867"><ele>4.285714285714286</ele><time>2026-03-22T08:49:01.157Z</time></trkpt><trkpt lat="44.9902833" lon="11.5974167"><ele>4.142857142857142</ele><time>2026-03-22T08:49:02.166Z</time></trkpt><trkpt lat="44.9903267" lon="11.59735"><ele>4.0</ele><time>2026-03-22T08:49:03.167Z</time></trkpt><trkpt lat="44.99037" lon="11.5972833"><ele>3.9999999999999996</ele><time>2026-03-22T08:49:04.163Z</time></trkpt><trkpt lat="44.99045" lon="11.59715"><ele>4.0</ele><time>2026-03-22T08:49:06.167Z</time></trkpt><trkpt lat="44.9904917" lon="11.59708"><ele>4.0</ele><time>2026-03-22T08:49:07.166Z</time></trkpt><trkpt lat="44.9905333" lon="11.5970117"><ele>4.0</ele><time>2026-03-22T08:49:08.169Z</time></trkpt><trkpt lat="44.9905767" lon="11.5969417"><ele>3.9999999999999996</ele><time>2026-03-22T08:49:09.166Z</time></trkpt><trkpt lat="44.99062" lon="11.5968733"><ele>4.0</ele><time>2026-03-22T08:49:10.165Z</time></trkpt><trkpt lat="44.990665" lon="11.5968033"><ele>4.142857142857142</ele><time>2026-03-22T08:49:11.151Z</time></trkpt><trkpt lat="44.9907083" lon="11.5967367"><ele>4.285714285714286</ele><time>2026-03-22T08:49:12.158Z</time></trkpt><trkpt lat="44.9907517" lon="11.59667"><ele>4.428571428571429</ele><time>2026-03-22T08:49:13.165Z</time></trkpt><trkpt lat="44.9907983" lon="11.596605"><ele>4.571428571428571</ele><time>2026-03-22T08:49:14.154Z</time></trkpt><trkpt lat="44.9908833" lon="11.596475"><ele>4.714285714285714</ele><time>2026-03-22T08:49:16.164Z</time></trkpt><trkpt lat="44.9909283" lon="11.5964117"><ele>4.857142857142857</ele><time>2026-03-22T08:49:17.164Z</time></trkpt><trkpt lat="44.990975" lon="11.5963483"><ele>5.0</ele><time>2026-03-22T08:49:18.167Z</time></trkpt><trkpt lat="44.9910217" lon="11.5962883"><ele>5.0</ele><time>2026-03-22T08:49:19.162Z</time></trkpt><trkpt lat="44.9911033" lon="11.5961733"><ele>5.0</ele><time>2026-03-22T08:49:21.164Z</time></trkpt><trkpt lat="44.9911817" lon="11.596055"><ele>5.0</ele><time>2026-03-22T08:49:23.165Z</time></trkpt><trkpt lat="44.9912583" lon="11.5959283"><ele>5.0</ele><time>2026-03-22T08:49:25.157Z</time></trkpt><trkpt lat="44.99134" lon="11.5958017"><ele>5.0</ele><time>2026-03-22T08:49:27.169Z</time></trkpt><trkpt lat="44.991425" lon="11.59568"><ele>5.0</ele><time>2026-03-22T08:49:29.162Z</time></trkpt><trkpt lat="44.9915117" lon="11.5955517"><ele>5.0</ele><time>2026-03-22T08:49:31.167Z</time></trkpt><trkpt lat="44.991555" lon="11.595485"><ele>5.0</ele><time>2026-03-22T08:49:32.164Z</time></trkpt><trkpt lat="44.9916" lon="11.5954183"><ele>5.0</ele><time>2026-03-22T08:49:33.167Z</time></trkpt><trkpt lat="44.991645" lon="11.5953533"><ele>5.0</ele><time>2026-03-22T08:49:34.133Z</time></trkpt><trkpt lat="44.99169" lon="11.5952883"><ele>5.166666666666667</ele><time>2026-03-22T08:49:35.157Z</time></trkpt><trkpt lat="44.991735" lon="11.5952217"><ele>5.333333333333334</ele><time>2026-03-22T08:49:36.161Z</time></trkpt><trkpt lat="44.99178" lon="11.5951583"><ele>5.5</ele><time>2026-03-22T08:49:37.151Z</time></trkpt><trkpt lat="44.9918717" lon="11.595035"><ele>5.666666666666667</ele><time>2026-03-22T08:49:39.169Z</time></trkpt><trkpt lat="44.9919167" lon="11.5949683"><ele>5.833333333333333</ele><time>2026-03-22T08:49:40.174Z</time></trkpt><trkpt lat="44.9919617" lon="11.5949"><ele>6.0</ele><time>2026-03-22T08:49:41.157Z</time></trkpt><trkpt lat="44.9920067" lon="11.594835"><ele>5.999999999999999</ele><time>2026-03-22T08:49:42.164Z</time></trkpt><trkpt lat="44.992095" lon="11.5947117"><ele>6.0</ele><time>2026-03-22T08:49:44.126Z</time></trkpt><trkpt lat="44.9921417" lon="11.5946483"><ele>6.0</ele><time>2026-03-22T08:49:45.144Z</time></trkpt><trkpt lat="44.99219" lon="11.5945883"><ele>6.0</ele><time>2026-03-22T08:49:46.15Z</time></trkpt><trkpt lat="44.99224" lon="11.5945317"><ele>6.0</ele><time>2026-03-22T08:49:47.141Z</time></trkpt><trkpt lat="44.9922933" lon="11.5944817"><ele>5.999999999999999</ele><time>2026-03-22T08:49:48.141Z</time></trkpt><trkpt lat="44.9923467" lon="11.5944283"><ele>6.0</ele><time>2026-03-22T08:49:49.139Z</time></trkpt><trkpt lat="44.9924017" lon="11.594375"><ele>6.0</ele><time>2026-03-22T08:49:50.14Z</time></trkpt><trkpt lat="44.9924583" lon="11.594325"><ele>6.0</ele><time>2026-03-22T08:49:51.164Z</time></trkpt><trkpt lat="44.9925133" lon="11.59428"><ele>6.0</ele><time>2026-03-22T08:49:52.134Z</time></trkpt><trkpt lat="44.9925717" lon="11.594235"><ele>6.0</ele><time>2026-03-22T08:49:53.134Z</time></trkpt><trkpt lat="44.9926267" lon="11.594185"><ele>6.0</ele><time>2026-03-22T08:49:54.134Z</time></trkpt><trkpt lat="44.992685" lon="11.5941367"><ele>6.0</ele><time>2026-03-22T08:49:55.162Z</time></trkpt><trkpt lat="44.9927967" lon="11.59404"><ele>6.0</ele><time>2026-03-22T08:49:57.135Z</time></trkpt><trkpt lat="44.99285" lon="11.59399"><ele>6.0</ele><time>2026-03-22T08:49:58.136Z</time></trkpt><trkpt lat="44.9929033" lon="11.5939417"><ele>6.0</ele><time>2026-03-22T08:49:59.142Z</time></trkpt><trkpt lat="44.9930067" lon="11.5938383"><ele>6.0</ele><time>2026-03-22T08:50:01.151Z</time></trkpt><trkpt lat="44.9931033" lon="11.5937233"><ele>6.0</ele><time>2026-03-22T08:50:03.159Z</time></trkpt><trkpt lat="44.993195" lon="11.5936183"><ele>6.0</ele><time>2026-03-22T08:50:05.164Z</time></trkpt><trkpt lat="44.99328" lon="11.5935"><ele>6.0</ele><time>2026-03-22T08:50:07.16Z</time></trkpt><trkpt lat="44.993355" lon="11.5933683"><ele>6.0</ele><time>2026-03-22T08:50:09.161Z</time></trkpt><trkpt lat="44.9934217" lon="11.5932283"><ele>6.0</ele><time>2026-03-22T08:50:11.157Z</time></trkpt><trkpt lat="44.9934883" lon="11.59308"><ele>6.0</ele><time>2026-03-22T08:50:13.162Z</time></trkpt><trkpt lat="44.993555" lon="11.5929317"><ele>6.0</ele><time>2026-03-22T08:50:15.146Z</time></trkpt><trkpt lat="44.9936217" lon="11.5927917"><ele>6.0</ele><time>2026-03-22T08:50:17.163Z</time></trkpt><trkpt lat="44.99369" lon="11.59265"><ele>6.0</ele><time>2026-03-22T08:50:19.156Z</time></trkpt><trkpt lat="44.99376" lon="11.5925067"><ele>6.199999999999999</ele><time>2026-03-22T08:50:21.164Z</time></trkpt><trkpt lat="44.99382" lon="11.592365"><ele>6.3999999999999995</ele><time>2026-03-22T08:50:23.163Z</time></trkpt><trkpt lat="44.9938783" lon="11.59221"><ele>6.6</ele><time>2026-03-22T08:50:25.166Z</time></trkpt><trkpt lat="44.993935" lon="11.5920533"><ele>6.8</ele><time>2026-03-22T08:50:27.158Z</time></trkpt><trkpt lat="44.9939633" lon="11.5919733"><ele>7.0</ele><time>2026-03-22T08:50:28.167Z</time></trkpt><trkpt lat="44.9939917" lon="11.59189"><ele>7.285714285714286</ele><time>2026-03-22T08:50:29.158Z</time></trkpt><trkpt lat="44.9940217" lon="11.5918083"><ele>7.571428571428571</ele><time>2026-03-22T08:50:30.141Z</time></trkpt><trkpt lat="44.9940517" lon="11.5917217"><ele>7.857142857142858</ele><time>2026-03-22T08:50:31.165Z</time></trkpt><trkpt lat="44.9940833" lon="11.591635"><ele>8.142857142857142</ele><time>2026-03-22T08:50:32.164Z</time></trkpt><trkpt lat="44.994115" lon="11.5915483"><ele>8.428571428571429</ele><time>2026-03-22T08:50:33.166Z</time></trkpt><trkpt lat="44.9941483" lon="11.5914667"><ele>8.714285714285715</ele><time>2026-03-22T08:50:34.159Z</time></trkpt><trkpt lat="44.9941783" lon="11.5913867"><ele>9.0</ele><time>2026-03-22T08:50:35.165Z</time></trkpt><trkpt lat="44.99421" lon="11.5913067"><ele>8.571428571428573</ele><time>2026-03-22T08:50:36.164Z</time></trkpt><trkpt lat="44.994245" lon="11.5912217"><ele>8.142857142857142</ele><time>2026-03-22T08:50:37.133Z</time></trkpt><trkpt lat="44.9942783" lon="11.591145"><ele>7.714285714285714</ele><time>2026-03-22T08:50:38.155Z</time></trkpt><trkpt lat="44.9943117" lon="11.5910617"><ele>7.2857142857142865</ele><time>2026-03-22T08:50:39.164Z</time></trkpt><trkpt lat="44.9943467" lon="11.5909833"><ele>6.857142857142858</ele><time>2026-03-22T08:50:40.166Z</time></trkpt><trkpt lat="44.9943783" lon="11.5909017"><ele>6.428571428571428</ele><time>2026-03-22T08:50:41.168Z</time></trkpt><trkpt lat="44.9944133" lon="11.5908167"><ele>6.0</ele><time>2026-03-22T08:50:42.164Z</time></trkpt><trkpt lat="44.9944467" lon="11.5907367"><ele>5.999999999999999</ele><time>2026-03-22T08:50:43.163Z</time></trkpt><trkpt lat="44.99448" lon="11.5906583"><ele>6.0</ele><time>2026-03-22T08:50:44.166Z</time></trkpt><trkpt lat="44.9945133" lon="11.59058"><ele>6.0</ele><time>2026-03-22T08:50:45.161Z</time></trkpt><trkpt lat="44.9945483" lon="11.5904983"><ele>6.0</ele><time>2026-03-22T08:50:46.164Z</time></trkpt><trkpt lat="44.9945817" lon="11.5904167"><ele>6.0</ele><time>2026-03-22T08:50:47.148Z</time></trkpt><trkpt lat="44.9946167" lon="11.5903367"><ele>5.999999999999999</ele><time>2026-03-22T08:50:48.159Z</time></trkpt><trkpt lat="44.99465" lon="11.5902583"><ele>6.0</ele><time>2026-03-22T08:50:49.157Z</time></trkpt><trkpt lat="44.9946867" lon="11.5901817"><ele>5.833333333333333</ele><time>2026-03-22T08:50:50.164Z</time></trkpt><trkpt lat="44.9947217" lon="11.590105"><ele>5.666666666666667</ele><time>2026-03-22T08:50:51.155Z</time></trkpt><trkpt lat="44.9947583" lon="11.5900317"><ele>5.5</ele><time>2026-03-22T08:50:52.159Z</time></trkpt><trkpt lat="44.9947933" lon="11.5899567"><ele>5.333333333333334</ele><time>2026-03-22T08:50:53.167Z</time></trkpt><trkpt lat="44.9948283" lon="11.5898817"><ele>5.166666666666667</ele><time>2026-03-22T08:50:54.166Z</time></trkpt><trkpt lat="44.9949033" lon="11.5897317"><ele>5.0</ele><time>2026-03-22T08:50:56.17Z</time></trkpt><trkpt lat="44.9949433" lon="11.5896583"><ele>5.0</ele><time>2026-03-22T08:50:57.164Z</time></trkpt><trkpt lat="44.9949867" lon="11.5895817"><ele>5.0</ele><time>2026-03-22T08:50:58.171Z</time></trkpt><trkpt lat="44.9950283" lon="11.5895083"><ele>5.0</ele><time>2026-03-22T08:50:59.193Z</time></trkpt><trkpt lat="44.9950683" lon="11.589435"><ele>5.0</ele><time>2026-03-22T08:51:00.168Z</time></trkpt><trkpt lat="44.9951517" lon="11.5892917"><ele>5.0</ele><time>2026-03-22T08:51:02.158Z</time></trkpt><trkpt lat="44.995195" lon="11.5892183"><ele>5.0</ele><time>2026-03-22T08:51:03.168Z</time></trkpt><trkpt lat="44.9952383" lon="11.5891467"><ele>5.0</ele><time>2026-03-22T08:51:04.166Z</time></trkpt><trkpt lat="44.9952817" lon="11.5890733"><ele>5.0</ele><time>2026-03-22T08:51:05.167Z</time></trkpt><trkpt lat="44.995325" lon="11.589"><ele>5.0</ele><time>2026-03-22T08:51:06.167Z</time></trkpt><trkpt lat="44.9953667" lon="11.5889283"><ele>5.0</ele><time>2026-03-22T08:51:07.151Z</time></trkpt><trkpt lat="44.995405" lon="11.5888567"><ele>5.0</ele><time>2026-03-22T08:51:08.135Z</time></trkpt><trkpt lat="44.995445" lon="11.588785"><ele>5.0</ele><time>2026-03-22T08:51:09.156Z</time></trkpt><trkpt lat="44.9955283" lon="11.5886433"><ele>5.0</ele><time>2026-03-22T08:51:11.166Z</time></trkpt><trkpt lat="44.99557" lon="11.5885733"><ele>5.0</ele><time>2026-03-22T08:51:12.166Z</time></trkpt><trkpt lat="44.9956133" lon="11.588505"><ele>5.0</ele><time>2026-03-22T08:51:13.165Z</time></trkpt><trkpt lat="44.9956967" lon="11.5883717"><ele>5.0</ele><time>2026-03-22T08:51:15.17Z</time></trkpt><trkpt lat="44.9957383" lon="11.5883017"><ele>5.0</ele><time>2026-03-22T08:51:16.165Z</time></trkpt><trkpt lat="44.9957767" lon="11.58823"><ele>5.0</ele><time>2026-03-22T08:51:17.168Z</time></trkpt><trkpt lat="44.9958517" lon="11.5880917"><ele>5.0</ele><time>2026-03-22T08:51:19.134Z</time></trkpt><trkpt lat="44.9958917" lon="11.58802"><ele>5.0</ele><time>2026-03-22T08:51:20.152Z</time></trkpt><trkpt lat="44.9959317" lon="11.58795"><ele>5.0</ele><time>2026-03-22T08:51:21.164Z</time></trkpt><trkpt lat="44.9959717" lon="11.5878783"><ele>5.0</ele><time>2026-03-22T08:51:22.164Z</time></trkpt><trkpt lat="44.9960117" lon="11.587805"><ele>5.0</ele><time>2026-03-22T08:51:23.165Z</time></trkpt><trkpt lat="44.9960883" lon="11.5876667"><ele>5.0</ele><time>2026-03-22T08:51:25.167Z</time></trkpt><trkpt lat="44.9961633" lon="11.587525"><ele>5.333333333333334</ele><time>2026-03-22T08:51:27.164Z</time></trkpt><trkpt lat="44.9962" lon="11.5874483"><ele>5.666666666666667</ele><time>2026-03-22T08:51:28.165Z</time></trkpt><trkpt lat="44.996235" lon="11.5873717"><ele>6.0</ele><time>2026-03-22T08:51:29.166Z</time></trkpt><trkpt lat="44.9962733" lon="11.5872983"><ele>6.333333333333334</ele><time>2026-03-22T08:51:30.168Z</time></trkpt><trkpt lat="44.9963117" lon="11.5872233"><ele>6.666666666666667</ele><time>2026-03-22T08:51:31.157Z</time></trkpt><trkpt lat="44.9963517" lon="11.5871483"><ele>7.0</ele><time>2026-03-22T08:51:32.166Z</time></trkpt><trkpt lat="44.9964233" lon="11.5870033"><ele>7.000000000000001</ele><time>2026-03-22T08:51:34.164Z</time></trkpt><trkpt lat="44.9964583" lon="11.5869283"><ele>7.0</ele><time>2026-03-22T08:51:35.164Z</time></trkpt><trkpt lat="44.9964967" lon="11.5868517"><ele>7.0</ele><time>2026-03-22T08:51:36.165Z</time></trkpt><trkpt lat="44.9965367" lon="11.5867767"><ele>7.0</ele><time>2026-03-22T08:51:37.166Z</time></trkpt><trkpt lat="44.9966083" lon="11.58663"><ele>7.000000000000001</ele><time>2026-03-22T08:51:39.164Z</time></trkpt><trkpt lat="44.9966483" lon="11.5865567"><ele>7.0</ele><time>2026-03-22T08:51:40.143Z</time></trkpt><trkpt lat="44.99672" lon="11.58641"><ele>7.0</ele><time>2026-03-22T08:51:42.162Z</time></trkpt><trkpt lat="44.9967583" lon="11.5863333"><ele>7.0</ele><time>2026-03-22T08:51:43.166Z</time></trkpt><trkpt lat="44.9967967" lon="11.5862517"><ele>7.0</ele><time>2026-03-22T08:51:44.167Z</time></trkpt><trkpt lat="44.9968333" lon="11.5861733"><ele>7.0</ele><time>2026-03-22T08:51:45.165Z</time></trkpt><trkpt lat="44.99687" lon="11.58609"><ele>7.0</ele><time>2026-03-22T08:51:46.16Z</time></trkpt><trkpt lat="44.996905" lon="11.58601"><ele>7.0</ele><time>2026-03-22T08:51:47.164Z</time></trkpt><trkpt lat="44.9969417" lon="11.58593"><ele>7.0</ele><time>2026-03-22T08:51:48.149Z</time></trkpt><trkpt lat="44.9969783" lon="11.5858517"><ele>7.0</ele><time>2026-03-22T08:51:49.159Z</time></trkpt><trkpt lat="44.997015" lon="11.585775"><ele>7.0</ele><time>2026-03-22T08:51:50.155Z</time></trkpt><trkpt lat="44.9970517" lon="11.5857"><ele>7.0</ele><time>2026-03-22T08:51:51.155Z</time></trkpt><trkpt lat="44.99709" lon="11.5856233"><ele>7.0</ele><time>2026-03-22T08:51:52.153Z</time></trkpt><trkpt lat="44.9971283" lon="11.58555"><ele>7.0</ele><time>2026-03-22T08:51:53.169Z</time></trkpt><trkpt lat="44.9971683" lon="11.585475"><ele>7.0</ele><time>2026-03-22T08:51:54.159Z</time></trkpt><trkpt lat="44.9972067" lon="11.5854"><ele>7.0</ele><time>2026-03-22T08:51:55.161Z</time></trkpt><trkpt lat="44.9972433" lon="11.585325"><ele>7.0</ele><time>2026-03-22T08:51:56.158Z</time></trkpt><trkpt lat="44.99728" lon="11.5852483"><ele>7.0</ele><time>2026-03-22T08:51:57.157Z</time></trkpt><trkpt lat="44.9973167" lon="11.58517"><ele>7.0</ele><time>2026-03-22T08:51:58.164Z</time></trkpt><trkpt lat="44.997355" lon="11.5850933"><ele>7.0</ele><time>2026-03-22T08:51:59.161Z</time></trkpt><trkpt lat="44.9973933" lon="11.5850167"><ele>7.0</ele><time>2026-03-22T08:52:00.16Z</time></trkpt><trkpt lat="44.99743" lon="11.5849433"><ele>7.0</ele><time>2026-03-22T08:52:01.167Z</time></trkpt><trkpt lat="44.9974683" lon="11.5848667"><ele>7.0</ele><time>2026-03-22T08:52:02.165Z</time></trkpt><trkpt lat="44.997505" lon="11.5847867"><ele>6.857142857142857</ele><time>2026-03-22T08:52:03.165Z</time></trkpt><trkpt lat="44.997545" lon="11.5847083"><ele>6.714285714285714</ele><time>2026-03-22T08:52:04.167Z</time></trkpt><trkpt lat="44.9975883" lon="11.58463"><ele>6.571428571428571</ele><time>2026-03-22T08:52:05.166Z</time></trkpt><trkpt lat="44.9976283" lon="11.58455"><ele>6.428571428571429</ele><time>2026-03-22T08:52:06.165Z</time></trkpt><trkpt lat="44.997665" lon="11.58447"><ele>6.285714285714286</ele><time>2026-03-22T08:52:07.164Z</time></trkpt><trkpt lat="44.9977017" lon="11.584395"><ele>6.142857142857142</ele><time>2026-03-22T08:52:08.168Z</time></trkpt><trkpt lat="44.9977383" lon="11.5843217"><ele>6.0</ele><time>2026-03-22T08:52:09.163Z</time></trkpt><trkpt lat="44.9978067" lon="11.58418"><ele>6.285714285714285</ele><time>2026-03-22T08:52:11.164Z</time></trkpt><trkpt lat="44.9978767" lon="11.58404"><ele>6.571428571428571</ele><time>2026-03-22T08:52:13.164Z</time></trkpt><trkpt lat="44.9979133" lon="11.583965"><ele>6.857142857142857</ele><time>2026-03-22T08:52:14.164Z</time></trkpt><trkpt lat="44.9979517" lon="11.5838867"><ele>7.142857142857142</ele><time>2026-03-22T08:52:15.163Z</time></trkpt><trkpt lat="44.9979883" lon="11.5838117"><ele>7.428571428571428</ele><time>2026-03-22T08:52:16.166Z</time></trkpt><trkpt lat="44.998025" lon="11.5837383"><ele>7.7142857142857135</ele><time>2026-03-22T08:52:17.168Z</time></trkpt><trkpt lat="44.99806" lon="11.5836633"><ele>8.0</ele><time>2026-03-22T08:52:18.16Z</time></trkpt><trkpt lat="44.9980967" lon="11.5835883"><ele>7.999999999999999</ele><time>2026-03-22T08:52:19.142Z</time></trkpt><trkpt lat="44.9981333" lon="11.5835117"><ele>8.0</ele><time>2026-03-22T08:52:20.157Z</time></trkpt><trkpt lat="44.99817" lon="11.5834333"><ele>8.0</ele><time>2026-03-22T08:52:21.162Z</time></trkpt><trkpt lat="44.9982083" lon="11.58336"><ele>8.0</ele><time>2026-03-22T08:52:22.167Z</time></trkpt><trkpt lat="44.9982783" lon="11.5832167"><ele>7.999999999999999</ele><time>2026-03-22T08:52:24.16Z</time></trkpt><trkpt lat="44.998345" lon="11.5830867"><ele>8.0</ele><time>2026-03-22T08:52:26.163Z</time></trkpt><trkpt lat="44.99841" lon="11.582955"><ele>8.200000000000001</ele><time>2026-03-22T08:52:28.162Z</time></trkpt><trkpt lat="44.9984817" lon="11.5828217"><ele>8.4</ele><time>2026-03-22T08:52:30.165Z</time></trkpt><trkpt lat="44.9985633" lon="11.5826917"><ele>8.600000000000001</ele><time>2026-03-22T08:52:32.168Z</time></trkpt><trkpt lat="44.9986067" lon="11.582625"><ele>8.8</ele><time>2026-03-22T08:52:33.161Z</time></trkpt><trkpt lat="44.9987" lon="11.5825033"><ele>9.0</ele><time>2026-03-22T08:52:35.167Z</time></trkpt><trkpt lat="44.99875" lon="11.5824417"><ele>9.0</ele><time>2026-03-22T08:52:36.169Z</time></trkpt><trkpt lat="44.9988" lon="11.5823833"><ele>9.0</ele><time>2026-03-22T08:52:37.165Z</time></trkpt><trkpt lat="44.9988517" lon="11.582325"><ele>9.0</ele><time>2026-03-22T08:52:38.158Z</time></trkpt><trkpt lat="44.9989017" lon="11.5822633"><ele>9.0</ele><time>2026-03-22T08:52:39.171Z</time></trkpt><trkpt lat="44.99895" lon="11.582205"><ele>9.0</ele><time>2026-03-22T08:52:40.165Z</time></trkpt><trkpt lat="44.9990483" lon="11.5820917"><ele>9.0</ele><time>2026-03-22T08:52:42.169Z</time></trkpt><trkpt lat="44.9991433" lon="11.58198"><ele>8.5</ele><time>2026-03-22T08:52:44.149Z</time></trkpt><trkpt lat="44.9992367" lon="11.581875"><ele>8.0</ele><time>2026-03-22T08:52:46.163Z</time></trkpt><trkpt lat="44.999335" lon="11.5817683"><ele>7.5</ele><time>2026-03-22T08:52:48.16Z</time></trkpt><trkpt lat="44.9994333" lon="11.5816617"><ele>7.0</ele><time>2026-03-22T08:52:50.159Z</time></trkpt><trkpt lat="44.9995283" lon="11.5815483"><ele>7.0</ele><time>2026-03-22T08:52:52.162Z</time></trkpt><trkpt lat="44.999625" lon="11.58144"><ele>6.999999999999999</ele><time>2026-03-22T08:52:54.163Z</time></trkpt><trkpt lat="44.99972" lon="11.58133"><ele>6.999999999999999</ele><time>2026-03-22T08:52:56.166Z</time></trkpt><trkpt lat="44.9997683" lon="11.5812717"><ele>7.0</ele><time>2026-03-22T08:52:57.165Z</time></trkpt><trkpt lat="44.9998633" lon="11.58116"><ele>7.0</ele><time>2026-03-22T08:52:59.164Z</time></trkpt><trkpt lat="44.9999133" lon="11.5811"><ele>6.857142857142857</ele><time>2026-03-22T08:53:00.215Z</time></trkpt><trkpt lat="44.9999617" lon="11.58104"><ele>6.714285714285714</ele><time>2026-03-22T08:53:01.165Z</time></trkpt><trkpt lat="45.00001" lon="11.58098"><ele>6.571428571428571</ele><time>2026-03-22T08:53:02.166Z</time></trkpt><trkpt lat="45.00006" lon="11.5809217"><ele>6.428571428571429</ele><time>2026-03-22T08:53:03.165Z</time></trkpt><trkpt lat="45.00011" lon="11.580865"><ele>6.285714285714286</ele><time>2026-03-22T08:53:04.158Z</time></trkpt><trkpt lat="45.00016" lon="11.580805"><ele>6.142857142857142</ele><time>2026-03-22T08:53:05.145Z</time></trkpt><trkpt lat="45.00021" lon="11.58075"><ele>6.0</ele><time>2026-03-22T08:53:06.156Z</time></trkpt><trkpt lat="45.0003067" lon="11.5806383"><ele>5.999999999999999</ele><time>2026-03-22T08:53:08.165Z</time></trkpt><trkpt lat="45.0003567" lon="11.5805783"><ele>6.0</ele><time>2026-03-22T08:53:09.162Z</time></trkpt><trkpt lat="45.0004067" lon="11.5805183"><ele>6.0</ele><time>2026-03-22T08:53:10.159Z</time></trkpt><trkpt lat="45.000455" lon="11.5804583"><ele>6.0</ele><time>2026-03-22T08:53:11.164Z</time></trkpt><trkpt lat="45.000505" lon="11.5803933"><ele>6.0</ele><time>2026-03-22T08:53:12.167Z</time></trkpt><trkpt lat="45.0005533" lon="11.5803267"><ele>5.999999999999999</ele><time>2026-03-22T08:53:13.166Z</time></trkpt><trkpt lat="45.0006" lon="11.580255"><ele>6.0</ele><time>2026-03-22T08:53:14.161Z</time></trkpt><trkpt lat="45.0006433" lon="11.58018"><ele>5.999999999999999</ele><time>2026-03-22T08:53:15.167Z</time></trkpt><trkpt lat="45.00069" lon="11.5801033"><ele>6.0</ele><time>2026-03-22T08:53:16.162Z</time></trkpt><trkpt lat="45.000735" lon="11.5800233"><ele>6.0</ele><time>2026-03-22T08:53:17.158Z</time></trkpt><trkpt lat="45.0007783" lon="11.57994"><ele>6.0</ele><time>2026-03-22T08:53:18.163Z</time></trkpt><trkpt lat="45.0008233" lon="11.5798517"><ele>6.0</ele><time>2026-03-22T08:53:19.161Z</time></trkpt><trkpt lat="45.0008667" lon="11.5797633"><ele>5.999999999999999</ele><time>2026-03-22T08:53:20.164Z</time></trkpt><trkpt lat="45.000905" lon="11.5796783"><ele>6.0</ele><time>2026-03-22T08:53:21.141Z</time></trkpt><trkpt lat="45.0009367" lon="11.5795917"><ele>6.0</ele><time>2026-03-22T08:53:22.169Z</time></trkpt><trkpt lat="45.0009683" lon="11.579505"><ele>6.0</ele><time>2026-03-22T08:53:23.161Z</time></trkpt><trkpt lat="45.0009983" lon="11.57942"><ele>6.0</ele><time>2026-03-22T08:53:24.144Z</time></trkpt><trkpt lat="45.001025" lon="11.57933"><ele>6.0</ele><time>2026-03-22T08:53:25.158Z</time></trkpt><trkpt lat="45.001045" lon="11.579245"><ele>6.0</ele><time>2026-03-22T08:53:26.167Z</time></trkpt><trkpt lat="45.0010633" lon="11.5791567"><ele>6.0</ele><time>2026-03-22T08:53:27.165Z</time></trkpt><trkpt lat="45.0010967" lon="11.5789817"><ele>6.0</ele><time>2026-03-22T08:53:29.166Z</time></trkpt><trkpt lat="45.0011117" lon="11.5788917"><ele>6.0</ele><time>2026-03-22T08:53:30.159Z</time></trkpt><trkpt lat="45.001135" lon="11.5787233"><ele>6.0</ele><time>2026-03-22T08:53:32.141Z</time></trkpt><trkpt lat="45.0011617" lon="11.578555"><ele>6.0</ele><time>2026-03-22T08:53:34.145Z</time></trkpt><trkpt lat="45.00119" lon="11.5783933"><ele>6.0</ele><time>2026-03-22T08:53:36.165Z</time></trkpt><trkpt lat="45.00122" lon="11.5782333"><ele>6.0</ele><time>2026-03-22T08:53:38.155Z</time></trkpt><trkpt lat="45.0012433" lon="11.578065"><ele>6.0</ele><time>2026-03-22T08:53:40.164Z</time></trkpt><trkpt lat="45.0012617" lon="11.57789"><ele>6.0</ele><time>2026-03-22T08:53:42.165Z</time></trkpt><trkpt lat="45.00127" lon="11.5778"><ele>6.0</ele><time>2026-03-22T08:53:43.164Z</time></trkpt><trkpt lat="45.0012783" lon="11.5777083"><ele>6.0</ele><time>2026-03-22T08:53:44.165Z</time></trkpt><trkpt lat="45.0012917" lon="11.5776183"><ele>6.0</ele><time>2026-03-22T08:53:45.165Z</time></trkpt><trkpt lat="45.0013067" lon="11.577525"><ele>5.999999999999999</ele><time>2026-03-22T08:53:46.166Z</time></trkpt><trkpt lat="45.0013183" lon="11.57743"><ele>6.0</ele><time>2026-03-22T08:53:47.163Z</time></trkpt><trkpt lat="45.0013317" lon="11.5773367"><ele>6.0</ele><time>2026-03-22T08:53:48.164Z</time></trkpt><trkpt lat="45.001345" lon="11.5772433"><ele>6.0</ele><time>2026-03-22T08:53:49.163Z</time></trkpt><trkpt lat="45.0013583" lon="11.5771517"><ele>6.0</ele><time>2026-03-22T08:53:50.161Z</time></trkpt><trkpt lat="45.0013717" lon="11.57706"><ele>5.999999999999999</ele><time>2026-03-22T08:53:51.163Z</time></trkpt><trkpt lat="45.0013833" lon="11.5769667"><ele>6.0</ele><time>2026-03-22T08:53:52.166Z</time></trkpt><trkpt lat="45.001395" lon="11.576875"><ele>6.0</ele><time>2026-03-22T08:53:53.139Z</time></trkpt><trkpt lat="45.0014167" lon="11.5767017"><ele>6.0</ele><time>2026-03-22T08:53:55.167Z</time></trkpt><trkpt lat="45.0014433" lon="11.5765383"><ele>6.0</ele><time>2026-03-22T08:53:57.156Z</time></trkpt><trkpt lat="45.0014617" lon="11.5763883"><ele>6.0</ele><time>2026-03-22T08:53:59.14Z</time></trkpt><trkpt lat="45.0014883" lon="11.5762433"><ele>5.8</ele><time>2026-03-22T08:54:01.235Z</time></trkpt><trkpt lat="45.001515" lon="11.57609"><ele>5.6</ele><time>2026-03-22T08:54:03.164Z</time></trkpt><trkpt lat="45.0015417" lon="11.5759317"><ele>5.4</ele><time>2026-03-22T08:54:05.161Z</time></trkpt><trkpt lat="45.0015683" lon="11.5757617"><ele>5.2</ele><time>2026-03-22T08:54:07.164Z</time></trkpt><trkpt lat="45.00158" lon="11.5756733"><ele>5.0</ele><time>2026-03-22T08:54:08.158Z</time></trkpt><trkpt lat="45.0015967" lon="11.5755867"><ele>5.0</ele><time>2026-03-22T08:54:09.138Z</time></trkpt><trkpt lat="45.0016267" lon="11.575415"><ele>5.0</ele><time>2026-03-22T08:54:11.155Z</time></trkpt><trkpt lat="45.0016417" lon="11.57532"><ele>5.0</ele><time>2026-03-22T08:54:12.166Z</time></trkpt><trkpt lat="45.00166" lon="11.5752283"><ele>5.0</ele><time>2026-03-22T08:54:13.167Z</time></trkpt><trkpt lat="45.00168" lon="11.57514"><ele>5.0</ele><time>2026-03-22T08:54:14.161Z</time></trkpt><trkpt lat="45.0016933" lon="11.5750483"><ele>5.0</ele><time>2026-03-22T08:54:15.166Z</time></trkpt><trkpt lat="45.0017067" lon="11.5749517"><ele>5.0</ele><time>2026-03-22T08:54:16.167Z</time></trkpt><trkpt lat="45.001725" lon="11.574855"><ele>5.0</ele><time>2026-03-22T08:54:17.163Z</time></trkpt><trkpt lat="45.00174" lon="11.574765"><ele>5.0</ele><time>2026-03-22T08:54:18.159Z</time></trkpt><trkpt lat="45.0017567" lon="11.574675"><ele>5.0</ele><time>2026-03-22T08:54:19.167Z</time></trkpt><trkpt lat="45.001785" lon="11.57451"><ele>5.0</ele><time>2026-03-22T08:54:21.165Z</time></trkpt><trkpt lat="45.0018067" lon="11.5743667"><ele>5.0</ele><time>2026-03-22T08:54:23.164Z</time></trkpt><trkpt lat="45.0018233" lon="11.5742433"><ele>5.0</ele><time>2026-03-22T08:54:25.134Z</time></trkpt><trkpt lat="45.0018433" lon="11.57414"><ele>5.0</ele><time>2026-03-22T08:54:27.158Z</time></trkpt><trkpt lat="45.0018667" lon="11.5740133"><ele>5.0</ele><time>2026-03-22T08:54:29.165Z</time></trkpt><trkpt lat="45.001885" lon="11.5738633"><ele>5.0</ele><time>2026-03-22T08:54:31.164Z</time></trkpt><trkpt lat="45.0019117" lon="11.5737"><ele>5.0</ele><time>2026-03-22T08:54:33.143Z</time></trkpt><trkpt lat="45.0019417" lon="11.573535"><ele>5.0</ele><time>2026-03-22T08:54:35.168Z</time></trkpt><trkpt lat="45.0019683" lon="11.57337"><ele>5.0</ele><time>2026-03-22T08:54:37.168Z</time></trkpt><trkpt lat="45.0019917" lon="11.573205"><ele>5.0</ele><time>2026-03-22T08:54:39.169Z</time></trkpt><trkpt lat="45.0020217" lon="11.5730333"><ele>5.0</ele><time>2026-03-22T08:54:41.136Z</time></trkpt><trkpt lat="45.002035" lon="11.5729433"><ele>5.0</ele><time>2026-03-22T08:54:42.155Z</time></trkpt><trkpt lat="45.0020483" lon="11.572855"><ele>5.0</ele><time>2026-03-22T08:54:43.166Z</time></trkpt><trkpt lat="45.0020717" lon="11.57268"><ele>5.0</ele><time>2026-03-22T08:54:45.161Z</time></trkpt><trkpt lat="45.002095" lon="11.5725033"><ele>5.0</ele><time>2026-03-22T08:54:47.165Z</time></trkpt><trkpt lat="45.00211" lon="11.5724167"><ele>5.0</ele><time>2026-03-22T08:54:48.165Z</time></trkpt><trkpt lat="45.00214" lon="11.5722433"><ele>5.0</ele><time>2026-03-22T08:54:50.167Z</time></trkpt><trkpt lat="45.0021533" lon="11.5721533"><ele>5.0</ele><time>2026-03-22T08:54:51.167Z</time></trkpt><trkpt lat="45.002165" lon="11.572065"><ele>5.0</ele><time>2026-03-22T08:54:52.162Z</time></trkpt><trkpt lat="45.0021783" lon="11.571975"><ele>5.0</ele><time>2026-03-22T08:54:53.167Z</time></trkpt><trkpt lat="45.002195" lon="11.5718817"><ele>5.0</ele><time>2026-03-22T08:54:54.168Z</time></trkpt><trkpt lat="45.00221" lon="11.5717867"><ele>5.0</ele><time>2026-03-22T08:54:55.167Z</time></trkpt><trkpt lat="45.002225" lon="11.5716917"><ele>5.0</ele><time>2026-03-22T08:54:56.168Z</time></trkpt><trkpt lat="45.00224" lon="11.5715967"><ele>5.0</ele><time>2026-03-22T08:54:57.146Z</time></trkpt><trkpt lat="45.002255" lon="11.5715017"><ele>5.0</ele><time>2026-03-22T08:54:58.151Z</time></trkpt><trkpt lat="45.0022683" lon="11.571405"><ele>5.0</ele><time>2026-03-22T08:54:59.166Z</time></trkpt><trkpt lat="45.0022783" lon="11.5713083"><ele>5.0</ele><time>2026-03-22T08:55:00.164Z</time></trkpt><trkpt lat="45.00229" lon="11.571215"><ele>5.0</ele><time>2026-03-22T08:55:01.141Z</time></trkpt><trkpt lat="45.0023" lon="11.57112"><ele>5.0</ele><time>2026-03-22T08:55:02.161Z</time></trkpt><trkpt lat="45.00231" lon="11.571025"><ele>5.0</ele><time>2026-03-22T08:55:03.165Z</time></trkpt><trkpt lat="45.00232" lon="11.5709267"><ele>5.0</ele><time>2026-03-22T08:55:04.165Z</time></trkpt><trkpt lat="45.00233" lon="11.5708317"><ele>5.0</ele><time>2026-03-22T08:55:05.158Z</time></trkpt><trkpt lat="45.0023433" lon="11.57074"><ele>5.0</ele><time>2026-03-22T08:55:06.162Z</time></trkpt><trkpt lat="45.0023567" lon="11.5706483"><ele>5.0</ele><time>2026-03-22T08:55:07.163Z</time></trkpt><trkpt lat="45.00237" lon="11.57056"><ele>5.0</ele><time>2026-03-22T08:55:08.165Z</time></trkpt><trkpt lat="45.00238" lon="11.5704683"><ele>5.0</ele><time>2026-03-22T08:55:09.165Z</time></trkpt><trkpt lat="45.00239" lon="11.5703767"><ele>5.0</ele><time>2026-03-22T08:55:10.163Z</time></trkpt><trkpt lat="45.0024" lon="11.5702833"><ele>5.0</ele><time>2026-03-22T08:55:11.151Z</time></trkpt><trkpt lat="45.00241" lon="11.57019"><ele>4.857142857142857</ele><time>2026-03-22T08:55:12.157Z</time></trkpt><trkpt lat="45.0024217" lon="11.5700967"><ele>4.714285714285714</ele><time>2026-03-22T08:55:13.164Z</time></trkpt><trkpt lat="45.002435" lon="11.5699983"><ele>4.571428571428571</ele><time>2026-03-22T08:55:14.169Z</time></trkpt><trkpt lat="45.0024483" lon="11.5699017"><ele>4.428571428571429</ele><time>2026-03-22T08:55:15.163Z</time></trkpt><trkpt lat="45.0024633" lon="11.5698033"><ele>4.285714285714286</ele><time>2026-03-22T08:55:16.164Z</time></trkpt><trkpt lat="45.0024783" lon="11.569705"><ele>4.142857142857142</ele><time>2026-03-22T08:55:17.165Z</time></trkpt><trkpt lat="45.0024883" lon="11.5696083"><ele>4.0</ele><time>2026-03-22T08:55:18.159Z</time></trkpt><trkpt lat="45.0024983" lon="11.5695133"><ele>4.333333333333333</ele><time>2026-03-22T08:55:19.165Z</time></trkpt><trkpt lat="45.0025083" lon="11.56942"><ele>4.666666666666666</ele><time>2026-03-22T08:55:20.169Z</time></trkpt><trkpt lat="45.0025183" lon="11.56933"><ele>5.0</ele><time>2026-03-22T08:55:21.163Z</time></trkpt><trkpt lat="45.0025383" lon="11.5691667"><ele>5.333333333333333</ele><time>2026-03-22T08:55:23.142Z</time></trkpt><trkpt lat="45.0025567" lon="11.5690233"><ele>5.666666666666667</ele><time>2026-03-22T08:55:25.166Z</time></trkpt><trkpt lat="45.00257" lon="11.56889"><ele>6.0</ele><time>2026-03-22T08:55:27.167Z</time></trkpt><trkpt lat="45.0025833" lon="11.568755"><ele>6.199999999999999</ele><time>2026-03-22T08:55:29.166Z</time></trkpt><trkpt lat="45.0026017" lon="11.5686133"><ele>6.3999999999999995</ele><time>2026-03-22T08:55:31.169Z</time></trkpt><trkpt lat="45.002625" lon="11.5684717"><ele>6.6</ele><time>2026-03-22T08:55:33.165Z</time></trkpt><trkpt lat="45.0026533" lon="11.56833"><ele>6.8</ele><time>2026-03-22T08:55:35.163Z</time></trkpt><trkpt lat="45.0026883" lon="11.568185"><ele>7.0</ele><time>2026-03-22T08:55:37.161Z</time></trkpt><trkpt lat="45.0027283" lon="11.568025"><ele>7.000000000000001</ele><time>2026-03-22T08:55:39.165Z</time></trkpt><trkpt lat="45.0027667" lon="11.5678567"><ele>7.0</ele><time>2026-03-22T08:55:41.167Z</time></trkpt><trkpt lat="45.00279" lon="11.5677733"><ele>7.0</ele><time>2026-03-22T08:55:42.16Z</time></trkpt><trkpt lat="45.0028133" lon="11.5676833"><ele>7.0</ele><time>2026-03-22T08:55:43.169Z</time></trkpt><trkpt lat="45.0028317" lon="11.5675917"><ele>7.000000000000001</ele><time>2026-03-22T08:55:44.168Z</time></trkpt><trkpt lat="45.0028517" lon="11.5675"><ele>7.0</ele><time>2026-03-22T08:55:45.166Z</time></trkpt><trkpt lat="45.0028733" lon="11.567405"><ele>7.0</ele><time>2026-03-22T08:55:46.169Z</time></trkpt><trkpt lat="45.0028917" lon="11.5673083"><ele>7.0</ele><time>2026-03-22T08:55:47.156Z</time></trkpt><trkpt lat="45.0029117" lon="11.5672067"><ele>7.0</ele><time>2026-03-22T08:55:48.16Z</time></trkpt><trkpt lat="45.0029317" lon="11.5671033"><ele>7.0</ele><time>2026-03-22T08:55:49.168Z</time></trkpt><trkpt lat="45.0029517" lon="11.5669967"><ele>7.0</ele><time>2026-03-22T08:55:50.168Z</time></trkpt><trkpt lat="45.0029717" lon="11.566895"><ele>7.0</ele><time>2026-03-22T08:55:51.168Z</time></trkpt><trkpt lat="45.0029933" lon="11.5667967"><ele>7.0</ele><time>2026-03-22T08:55:52.171Z</time></trkpt><trkpt lat="45.003015" lon="11.5666883"><ele>7.0</ele><time>2026-03-22T08:55:53.163Z</time></trkpt><trkpt lat="45.0030367" lon="11.5665833"><ele>7.0</ele><time>2026-03-22T08:55:54.161Z</time></trkpt><trkpt lat="45.0030583" lon="11.5664783"><ele>7.0</ele><time>2026-03-22T08:55:55.132Z</time></trkpt><trkpt lat="45.0030767" lon="11.5663783"><ele>7.0</ele><time>2026-03-22T08:55:56.159Z</time></trkpt><trkpt lat="45.0030967" lon="11.5662817"><ele>7.0</ele><time>2026-03-22T08:55:57.169Z</time></trkpt><trkpt lat="45.003115" lon="11.5661817"><ele>7.0</ele><time>2026-03-22T08:55:58.173Z</time></trkpt><trkpt lat="45.003135" lon="11.5660833"><ele>7.0</ele><time>2026-03-22T08:55:59.168Z</time></trkpt><trkpt lat="45.0031533" lon="11.565985"><ele>7.0</ele><time>2026-03-22T08:56:00.162Z</time></trkpt><trkpt lat="45.0031717" lon="11.56589"><ele>7.0</ele><time>2026-03-22T08:56:01.168Z</time></trkpt><trkpt lat="45.0031917" lon="11.5657967"><ele>7.0</ele><time>2026-03-22T08:56:02.156Z</time></trkpt><trkpt lat="45.0032083" lon="11.5657033"><ele>7.0</ele><time>2026-03-22T08:56:03.162Z</time></trkpt><trkpt lat="45.0032283" lon="11.5656133"><ele>7.0</ele><time>2026-03-22T08:56:04.169Z</time></trkpt><trkpt lat="45.0032467" lon="11.5655233"><ele>7.0</ele><time>2026-03-22T08:56:05.167Z</time></trkpt><trkpt lat="45.003265" lon="11.5654317"><ele>7.0</ele><time>2026-03-22T08:56:06.168Z</time></trkpt><trkpt lat="45.0033033" lon="11.5652633"><ele>6.75</ele><time>2026-03-22T08:56:08.171Z</time></trkpt><trkpt lat="45.0033467" lon="11.5651083"><ele>6.5</ele><time>2026-03-22T08:56:10.166Z</time></trkpt><trkpt lat="45.0033917" lon="11.56496"><ele>6.25</ele><time>2026-03-22T08:56:12.167Z</time></trkpt><trkpt lat="45.00344" lon="11.5648117"><ele>6.0</ele><time>2026-03-22T08:56:14.165Z</time></trkpt><trkpt lat="45.003495" lon="11.5646617"><ele>6.0</ele><time>2026-03-22T08:56:16.155Z</time></trkpt><trkpt lat="45.00356" lon="11.5645133"><ele>6.0</ele><time>2026-03-22T08:56:18.162Z</time></trkpt><trkpt lat="45.003595" lon="11.5644383"><ele>6.0</ele><time>2026-03-22T08:56:19.161Z</time></trkpt><trkpt lat="45.0036317" lon="11.5643617"><ele>6.0</ele><time>2026-03-22T08:56:20.164Z</time></trkpt><trkpt lat="45.0036683" lon="11.564285"><ele>6.0</ele><time>2026-03-22T08:56:21.167Z</time></trkpt><trkpt lat="45.0037067" lon="11.5642067"><ele>6.0</ele><time>2026-03-22T08:56:22.145Z</time></trkpt><trkpt lat="45.0037433" lon="11.56413"><ele>6.0</ele><time>2026-03-22T08:56:23.162Z</time></trkpt><trkpt lat="45.0038117" lon="11.563985"><ele>6.0</ele><time>2026-03-22T08:56:25.17Z</time></trkpt><trkpt lat="45.0038817" lon="11.563845"><ele>6.0</ele><time>2026-03-22T08:56:27.17Z</time></trkpt><trkpt lat="45.003945" lon="11.5637133"><ele>6.0</ele><time>2026-03-22T08:56:29.16Z</time></trkpt><trkpt lat="45.00401" lon="11.56359"><ele>6.199999999999999</ele><time>2026-03-22T08:56:31.171Z</time></trkpt><trkpt lat="45.0040717" lon="11.5634817"><ele>6.3999999999999995</ele><time>2026-03-22T08:56:33.16Z</time></trkpt><trkpt lat="45.0041333" lon="11.56338"><ele>6.6</ele><time>2026-03-22T08:56:35.16Z</time></trkpt><trkpt lat="45.0041967" lon="11.56327"><ele>6.8</ele><time>2026-03-22T08:56:37.168Z</time></trkpt><trkpt lat="45.0042633" lon="11.5631617"><ele>7.0</ele><time>2026-03-22T08:56:39.163Z</time></trkpt><trkpt lat="45.0043333" lon="11.5630567"><ele>7.0</ele><time>2026-03-22T08:56:41.15Z</time></trkpt><trkpt lat="45.004405" lon="11.5629467"><ele>6.999999999999999</ele><time>2026-03-22T08:56:43.141Z</time></trkpt><trkpt lat="45.0044783" lon="11.5628333"><ele>6.999999999999999</ele><time>2026-03-22T08:56:45.136Z</time></trkpt><trkpt lat="45.0045483" lon="11.56272"><ele>7.0</ele><time>2026-03-22T08:56:47.132Z</time></trkpt><trkpt lat="45.00462" lon="11.56261"><ele>7.0</ele><time>2026-03-22T08:56:49.143Z</time></trkpt><trkpt lat="45.0046933" lon="11.562485"><ele>7.25</ele><time>2026-03-22T08:56:51.166Z</time></trkpt><trkpt lat="45.004765" lon="11.5623633"><ele>7.5</ele><time>2026-03-22T08:56:53.169Z</time></trkpt><trkpt lat="45.0048417" lon="11.5622367"><ele>7.75</ele><time>2026-03-22T08:56:55.163Z</time></trkpt><trkpt lat="45.004925" lon="11.562115"><ele>8.0</ele><time>2026-03-22T08:56:57.163Z</time></trkpt><trkpt lat="45.00502" lon="11.562005"><ele>8.0</ele><time>2026-03-22T08:56:59.129Z</time></trkpt><trkpt lat="45.005075" lon="11.5619567"><ele>7.999999999999999</ele><time>2026-03-22T08:57:00.16Z</time></trkpt><trkpt lat="45.0051333" lon="11.5619167"><ele>8.0</ele><time>2026-03-22T08:57:01.163Z</time></trkpt><trkpt lat="45.0051933" lon="11.561885"><ele>8.0</ele><time>2026-03-22T08:57:02.164Z</time></trkpt><trkpt lat="45.0052567" lon="11.5618583"><ele>7.999999999999999</ele><time>2026-03-22T08:57:03.162Z</time></trkpt><trkpt lat="45.0053217" lon="11.5618367"><ele>8.0</ele><time>2026-03-22T08:57:04.147Z</time></trkpt><trkpt lat="45.005385" lon="11.5618217"><ele>8.0</ele><time>2026-03-22T08:57:05.17Z</time></trkpt><trkpt lat="45.00545" lon="11.5618117"><ele>8.0</ele><time>2026-03-22T08:57:06.155Z</time></trkpt><trkpt lat="45.0055133" lon="11.5618083"><ele>7.999999999999999</ele><time>2026-03-22T08:57:07.161Z</time></trkpt><trkpt lat="45.0056383" lon="11.5618"><ele>8.0</ele><time>2026-03-22T08:57:09.162Z</time></trkpt><trkpt lat="45.0057017" lon="11.5617967"><ele>8.0</ele><time>2026-03-22T08:57:10.138Z</time></trkpt><trkpt lat="45.0057667" lon="11.561795"><ele>7.999999999999999</ele><time>2026-03-22T08:57:11.155Z</time></trkpt><trkpt lat="45.00583" lon="11.5617983"><ele>8.0</ele><time>2026-03-22T08:57:12.163Z</time></trkpt><trkpt lat="45.005895" lon="11.5618"><ele>8.0</ele><time>2026-03-22T08:57:13.161Z</time></trkpt><trkpt lat="45.0059583" lon="11.5618017"><ele>7.857142857142857</ele><time>2026-03-22T08:57:14.165Z</time></trkpt><trkpt lat="45.0060233" lon="11.561805"><ele>7.7142857142857135</ele><time>2026-03-22T08:57:15.165Z</time></trkpt><trkpt lat="45.0060883" lon="11.5618083"><ele>7.571428571428571</ele><time>2026-03-22T08:57:16.162Z</time></trkpt><trkpt lat="45.0061533" lon="11.56181"><ele>7.428571428571429</ele><time>2026-03-22T08:57:17.151Z</time></trkpt><trkpt lat="45.0062183" lon="11.5618117"><ele>7.285714285714286</ele><time>2026-03-22T08:57:18.154Z</time></trkpt><trkpt lat="45.0062833" lon="11.5618133"><ele>7.142857142857142</ele><time>2026-03-22T08:57:19.166Z</time></trkpt><trkpt lat="45.0063483" lon="11.56181"><ele>7.0</ele><time>2026-03-22T08:57:20.165Z</time></trkpt><trkpt lat="45.0064167" lon="11.5618117"><ele>7.0</ele><time>2026-03-22T08:57:21.159Z</time></trkpt><trkpt lat="45.0064867" lon="11.5618167"><ele>7.0</ele><time>2026-03-22T08:57:22.167Z</time></trkpt><trkpt lat="45.0065533" lon="11.5618217"><ele>7.0</ele><time>2026-03-22T08:57:23.168Z</time></trkpt><trkpt lat="45.00662" lon="11.5618283"><ele>7.0</ele><time>2026-03-22T08:57:24.166Z</time></trkpt><trkpt lat="45.006685" lon="11.5618383"><ele>7.0</ele><time>2026-03-22T08:57:25.169Z</time></trkpt><trkpt lat="45.00675" lon="11.5618433"><ele>7.0</ele><time>2026-03-22T08:57:26.163Z</time></trkpt><trkpt lat="45.0068133" lon="11.561855"><ele>7.0</ele><time>2026-03-22T08:57:27.171Z</time></trkpt><trkpt lat="45.0069417" lon="11.56188"><ele>6.857142857142857</ele><time>2026-03-22T08:57:29.171Z</time></trkpt><trkpt lat="45.0070067" lon="11.5618917"><ele>6.714285714285714</ele><time>2026-03-22T08:57:30.17Z</time></trkpt><trkpt lat="45.0070733" lon="11.5619"><ele>6.571428571428571</ele><time>2026-03-22T08:57:31.162Z</time></trkpt><trkpt lat="45.0071383" lon="11.561915"><ele>6.428571428571429</ele><time>2026-03-22T08:57:32.168Z</time></trkpt><trkpt lat="45.0072067" lon="11.5619333"><ele>6.285714285714286</ele><time>2026-03-22T08:57:33.164Z</time></trkpt><trkpt lat="45.0072717" lon="11.5619467"><ele>6.142857142857142</ele><time>2026-03-22T08:57:34.167Z</time></trkpt><trkpt lat="45.0073417" lon="11.5619583"><ele>6.0</ele><time>2026-03-22T08:57:35.146Z</time></trkpt><trkpt lat="45.0074133" lon="11.5619767"><ele>6.0</ele><time>2026-03-22T08:57:36.164Z</time></trkpt><trkpt lat="45.0074883" lon="11.561995"><ele>6.0</ele><time>2026-03-22T08:57:37.173Z</time></trkpt><trkpt lat="45.0075633" lon="11.5620133"><ele>6.0</ele><time>2026-03-22T08:57:38.167Z</time></trkpt><trkpt lat="45.00764" lon="11.5620317"><ele>6.0</ele><time>2026-03-22T08:57:39.164Z</time></trkpt><trkpt lat="45.0077117" lon="11.5620583"><ele>6.0</ele><time>2026-03-22T08:57:40.171Z</time></trkpt><trkpt lat="45.0077833" lon="11.5620867"><ele>6.0</ele><time>2026-03-22T08:57:41.154Z</time></trkpt><trkpt lat="45.0078583" lon="11.562115"><ele>5.7142857142857135</ele><time>2026-03-22T08:57:42.161Z</time></trkpt><trkpt lat="45.0079333" lon="11.56214"><ele>5.428571428571429</ele><time>2026-03-22T08:57:43.168Z</time></trkpt><trkpt lat="45.0080067" lon="11.5621667"><ele>5.142857142857142</ele><time>2026-03-22T08:57:44.159Z</time></trkpt><trkpt lat="45.0080783" lon="11.5621933"><ele>4.857142857142857</ele><time>2026-03-22T08:57:45.158Z</time></trkpt><trkpt lat="45.0081433" lon="11.5622167"><ele>4.571428571428571</ele><time>2026-03-22T08:57:46.171Z</time></trkpt><trkpt lat="45.0082083" lon="11.5622433"><ele>4.285714285714286</ele><time>2026-03-22T08:57:47.164Z</time></trkpt><trkpt lat="45.0082733" lon="11.5622683"><ele>4.0</ele><time>2026-03-22T08:57:48.168Z</time></trkpt><trkpt lat="45.00834" lon="11.5622967"><ele>4.0</ele><time>2026-03-22T08:57:49.16Z</time></trkpt><trkpt lat="45.0084017" lon="11.562325"><ele>3.9999999999999996</ele><time>2026-03-22T08:57:50.169Z</time></trkpt><trkpt lat="45.0084633" lon="11.5623533"><ele>4.0</ele><time>2026-03-22T08:57:51.153Z</time></trkpt><trkpt lat="45.0085233" lon="11.5623833"><ele>4.0</ele><time>2026-03-22T08:57:52.168Z</time></trkpt><trkpt lat="45.0085867" lon="11.562415"><ele>3.9999999999999996</ele><time>2026-03-22T08:57:53.167Z</time></trkpt><trkpt lat="45.00865" lon="11.562445"><ele>4.0</ele><time>2026-03-22T08:57:54.17Z</time></trkpt><trkpt lat="45.0087133" lon="11.562475"><ele>4.0</ele><time>2026-03-22T08:57:55.173Z</time></trkpt><trkpt lat="45.0087783" lon="11.5625"><ele>4.0</ele><time>2026-03-22T08:57:56.161Z</time></trkpt><trkpt lat="45.008845" lon="11.5625283"><ele>3.9999999999999996</ele><time>2026-03-22T08:57:57.163Z</time></trkpt><trkpt lat="45.0089117" lon="11.5625567"><ele>4.0</ele><time>2026-03-22T08:57:58.165Z</time></trkpt><trkpt lat="45.0089783" lon="11.56258"><ele>4.0</ele><time>2026-03-22T08:57:59.171Z</time></trkpt><trkpt lat="45.0090417" lon="11.5626067"><ele>3.9999999999999996</ele><time>2026-03-22T08:58:00.167Z</time></trkpt><trkpt lat="45.009105" lon="11.5626367"><ele>4.0</ele><time>2026-03-22T08:58:01.152Z</time></trkpt><trkpt lat="45.0091667" lon="11.5626683"><ele>4.0</ele><time>2026-03-22T08:58:02.151Z</time></trkpt><trkpt lat="45.0092267" lon="11.5626983"><ele>4.0</ele><time>2026-03-22T08:58:03.162Z</time></trkpt><trkpt lat="45.0092933" lon="11.5627267"><ele>3.9999999999999996</ele><time>2026-03-22T08:58:04.172Z</time></trkpt><trkpt lat="45.00936" lon="11.562755"><ele>4.0</ele><time>2026-03-22T08:58:05.171Z</time></trkpt><trkpt lat="45.0094233" lon="11.5627767"><ele>4.0</ele><time>2026-03-22T08:58:06.17Z</time></trkpt><trkpt lat="45.0094883" lon="11.5627917"><ele>3.9999999999999996</ele><time>2026-03-22T08:58:07.171Z</time></trkpt><trkpt lat="45.0095567" lon="11.5628067"><ele>4.0</ele><time>2026-03-22T08:58:08.168Z</time></trkpt><trkpt lat="45.0096283" lon="11.56282"><ele>4.0</ele><time>2026-03-22T08:58:09.172Z</time></trkpt><trkpt lat="45.0096967" lon="11.5628333"><ele>4.0</ele><time>2026-03-22T08:58:10.161Z</time></trkpt><trkpt lat="45.009765" lon="11.5628433"><ele>3.9999999999999996</ele><time>2026-03-22T08:58:11.173Z</time></trkpt><trkpt lat="45.0098367" lon="11.5628517"><ele>4.0</ele><time>2026-03-22T08:58:12.167Z</time></trkpt><trkpt lat="45.0099083" lon="11.56286"><ele>4.0</ele><time>2026-03-22T08:58:13.137Z</time></trkpt><trkpt lat="45.0099767" lon="11.5628717"><ele>3.9999999999999996</ele><time>2026-03-22T08:58:14.157Z</time></trkpt><trkpt lat="45.0100467" lon="11.56288"><ele>4.0</ele><time>2026-03-22T08:58:15.168Z</time></trkpt><trkpt lat="45.0101167" lon="11.5628883"><ele>4.0</ele><time>2026-03-22T08:58:16.169Z</time></trkpt><trkpt lat="45.0101833" lon="11.5629017"><ele>4.142857142857142</ele><time>2026-03-22T08:58:17.168Z</time></trkpt><trkpt lat="45.0102517" lon="11.562915"><ele>4.285714285714286</ele><time>2026-03-22T08:58:18.164Z</time></trkpt><trkpt lat="45.0103183" lon="11.5629367"><ele>4.428571428571429</ele><time>2026-03-22T08:58:19.167Z</time></trkpt><trkpt lat="45.0103867" lon="11.56296"><ele>4.571428571428571</ele><time>2026-03-22T08:58:20.17Z</time></trkpt><trkpt lat="45.0104567" lon="11.5629883"><ele>4.714285714285714</ele><time>2026-03-22T08:58:21.14Z</time></trkpt><trkpt lat="45.0105233" lon="11.5630167"><ele>4.857142857142857</ele><time>2026-03-22T08:58:22.157Z</time></trkpt><trkpt lat="45.0105933" lon="11.5630433"><ele>5.0</ele><time>2026-03-22T08:58:23.168Z</time></trkpt><trkpt lat="45.0106617" lon="11.5630683"><ele>5.0</ele><time>2026-03-22T08:58:24.171Z</time></trkpt><trkpt lat="45.01073" lon="11.5630967"><ele>5.0</ele><time>2026-03-22T08:58:25.168Z</time></trkpt><trkpt lat="45.010795" lon="11.5631217"><ele>5.0</ele><time>2026-03-22T08:58:26.17Z</time></trkpt><trkpt lat="45.01086" lon="11.5631517"><ele>5.0</ele><time>2026-03-22T08:58:27.172Z</time></trkpt><trkpt lat="45.0109217" lon="11.563185"><ele>5.0</ele><time>2026-03-22T08:58:28.172Z</time></trkpt><trkpt lat="45.0109817" lon="11.563215"><ele>5.0</ele><time>2026-03-22T08:58:29.169Z</time></trkpt><trkpt lat="45.011045" lon="11.5632417"><ele>5.0</ele><time>2026-03-22T08:58:30.17Z</time></trkpt><trkpt lat="45.01111" lon="11.5632667"><ele>5.142857142857142</ele><time>2026-03-22T08:58:31.171Z</time></trkpt><trkpt lat="45.0111767" lon="11.5632917"><ele>5.285714285714286</ele><time>2026-03-22T08:58:32.168Z</time></trkpt><trkpt lat="45.0112433" lon="11.5633133"><ele>5.428571428571429</ele><time>2026-03-22T08:58:33.168Z</time></trkpt><trkpt lat="45.01131" lon="11.563335"><ele>5.571428571428571</ele><time>2026-03-22T08:58:34.137Z</time></trkpt><trkpt lat="45.0113733" lon="11.5633517"><ele>5.714285714285714</ele><time>2026-03-22T08:58:35.154Z</time></trkpt><trkpt lat="45.011435" lon="11.5633717"><ele>5.857142857142857</ele><time>2026-03-22T08:58:36.159Z</time></trkpt><trkpt lat="45.0115033" lon="11.5633867"><ele>6.0</ele><time>2026-03-22T08:58:37.138Z</time></trkpt><trkpt lat="45.0115717" lon="11.5634033"><ele>5.999999999999999</ele><time>2026-03-22T08:58:38.168Z</time></trkpt><trkpt lat="45.0116417" lon="11.5634217"><ele>6.0</ele><time>2026-03-22T08:58:39.171Z</time></trkpt><trkpt lat="45.0117167" lon="11.5634367"><ele>6.0</ele><time>2026-03-22T08:58:40.162Z</time></trkpt><trkpt lat="45.0117933" lon="11.5634517"><ele>6.0</ele><time>2026-03-22T08:58:41.162Z</time></trkpt><trkpt lat="45.0118683" lon="11.56347"><ele>6.0</ele><time>2026-03-22T08:58:42.169Z</time></trkpt><trkpt lat="45.01194" lon="11.56349"><ele>5.999999999999999</ele><time>2026-03-22T08:58:43.167Z</time></trkpt><trkpt lat="45.01201" lon="11.5635133"><ele>6.0</ele><time>2026-03-22T08:58:44.168Z</time></trkpt><trkpt lat="45.0120783" lon="11.5635367"><ele>6.0</ele><time>2026-03-22T08:58:45.133Z</time></trkpt><trkpt lat="45.012145" lon="11.563565"><ele>6.0</ele><time>2026-03-22T08:58:46.159Z</time></trkpt><trkpt lat="45.012205" lon="11.5635967"><ele>6.0</ele><time>2026-03-22T08:58:47.172Z</time></trkpt><trkpt lat="45.0123183" lon="11.5636633"><ele>6.0</ele><time>2026-03-22T08:58:49.162Z</time></trkpt><trkpt lat="45.0123767" lon="11.5636983"><ele>6.0</ele><time>2026-03-22T08:58:50.166Z</time></trkpt><trkpt lat="45.0124367" lon="11.5637333"><ele>6.0</ele><time>2026-03-22T08:58:51.164Z</time></trkpt><trkpt lat="45.0124983" lon="11.5637683"><ele>6.0</ele><time>2026-03-22T08:58:52.166Z</time></trkpt><trkpt lat="45.0125583" lon="11.5638083"><ele>6.0</ele><time>2026-03-22T08:58:53.163Z</time></trkpt><trkpt lat="45.0126167" lon="11.5638483"><ele>6.0</ele><time>2026-03-22T08:58:54.164Z</time></trkpt><trkpt lat="45.0126767" lon="11.5638867"><ele>6.0</ele><time>2026-03-22T08:58:55.173Z</time></trkpt><trkpt lat="45.0127867" lon="11.563955"><ele>6.0</ele><time>2026-03-22T08:58:57.172Z</time></trkpt><trkpt lat="45.0128883" lon="11.5640233"><ele>6.0</ele><time>2026-03-22T08:58:59.168Z</time></trkpt><trkpt lat="45.0129917" lon="11.56408"><ele>6.0</ele><time>2026-03-22T08:59:01.173Z</time></trkpt><trkpt lat="45.013095" lon="11.5641417"><ele>6.0</ele><time>2026-03-22T08:59:03.147Z</time></trkpt><trkpt lat="45.0132067" lon="11.5642233"><ele>6.0</ele><time>2026-03-22T08:59:05.17Z</time></trkpt><trkpt lat="45.0132633" lon="11.5642633"><ele>6.0</ele><time>2026-03-22T08:59:06.149Z</time></trkpt><trkpt lat="45.0133733" lon="11.5643433"><ele>6.0</ele><time>2026-03-22T08:59:08.172Z</time></trkpt><trkpt lat="45.0134883" lon="11.5644233"><ele>5.857142857142857</ele><time>2026-03-22T08:59:10.251Z</time></trkpt><trkpt lat="45.01355" lon="11.5644533"><ele>5.714285714285714</ele><time>2026-03-22T08:59:11.167Z</time></trkpt><trkpt lat="45.013615" lon="11.564475"><ele>5.571428571428571</ele><time>2026-03-22T08:59:12.164Z</time></trkpt><trkpt lat="45.01368" lon="11.5644917"><ele>5.428571428571429</ele><time>2026-03-22T08:59:13.165Z</time></trkpt><trkpt lat="45.0137467" lon="11.5645067"><ele>5.285714285714286</ele><time>2026-03-22T08:59:14.172Z</time></trkpt><trkpt lat="45.0138167" lon="11.5645167"><ele>5.142857142857142</ele><time>2026-03-22T08:59:15.17Z</time></trkpt><trkpt lat="45.0138883" lon="11.5645233"><ele>5.0</ele><time>2026-03-22T08:59:16.166Z</time></trkpt><trkpt lat="45.0139617" lon="11.5645283"><ele>5.0</ele><time>2026-03-22T08:59:17.138Z</time></trkpt><trkpt lat="45.014035" lon="11.5645333"><ele>5.0</ele><time>2026-03-22T08:59:18.16Z</time></trkpt><trkpt lat="45.0141067" lon="11.5645383"><ele>5.0</ele><time>2026-03-22T08:59:19.168Z</time></trkpt><trkpt lat="45.0141783" lon="11.56454"><ele>5.0</ele><time>2026-03-22T08:59:20.169Z</time></trkpt><trkpt lat="45.0142483" lon="11.5645417"><ele>5.0</ele><time>2026-03-22T08:59:21.168Z</time></trkpt><trkpt lat="45.0143167" lon="11.564545"><ele>5.0</ele><time>2026-03-22T08:59:22.167Z</time></trkpt><trkpt lat="45.014385" lon="11.564545"><ele>5.0</ele><time>2026-03-22T08:59:23.169Z</time></trkpt><trkpt lat="45.0144533" lon="11.5645417"><ele>4.857142857142857</ele><time>2026-03-22T08:59:24.17Z</time></trkpt><trkpt lat="45.0145233" lon="11.5645383"><ele>4.714285714285714</ele><time>2026-03-22T08:59:25.169Z</time></trkpt><trkpt lat="45.014595" lon="11.5645333"><ele>4.571428571428571</ele><time>2026-03-22T08:59:26.146Z</time></trkpt><trkpt lat="45.0146683" lon="11.564525"><ele>4.428571428571429</ele><time>2026-03-22T08:59:27.164Z</time></trkpt><trkpt lat="45.0147383" lon="11.564515"><ele>4.285714285714286</ele><time>2026-03-22T08:59:28.168Z</time></trkpt><trkpt lat="45.0148083" lon="11.564505"><ele>4.142857142857142</ele><time>2026-03-22T08:59:29.169Z</time></trkpt><trkpt lat="45.0148767" lon="11.564495"><ele>4.0</ele><time>2026-03-22T08:59:30.165Z</time></trkpt><trkpt lat="45.0149467" lon="11.5644817"><ele>4.142857142857142</ele><time>2026-03-22T08:59:31.163Z</time></trkpt><trkpt lat="45.0150133" lon="11.5644667"><ele>4.285714285714286</ele><time>2026-03-22T08:59:32.17Z</time></trkpt><trkpt lat="45.0150783" lon="11.56445"><ele>4.428571428571429</ele><time>2026-03-22T08:59:33.169Z</time></trkpt><trkpt lat="45.0151433" lon="11.5644217"><ele>4.571428571428571</ele><time>2026-03-22T08:59:34.156Z</time></trkpt><trkpt lat="45.015205" lon="11.56439"><ele>4.714285714285714</ele><time>2026-03-22T08:59:35.161Z</time></trkpt><trkpt lat="45.015265" lon="11.56436"><ele>4.857142857142857</ele><time>2026-03-22T08:59:36.169Z</time></trkpt><trkpt lat="45.0153283" lon="11.5643217"><ele>5.0</ele><time>2026-03-22T08:59:37.169Z</time></trkpt><trkpt lat="45.0153917" lon="11.56428"><ele>5.0</ele><time>2026-03-22T08:59:38.172Z</time></trkpt><trkpt lat="45.015455" lon="11.5642367"><ele>5.0</ele><time>2026-03-22T08:59:39.17Z</time></trkpt><trkpt lat="45.015515" lon="11.5641917"><ele>5.0</ele><time>2026-03-22T08:59:40.17Z</time></trkpt><trkpt lat="45.0155783" lon="11.56414"><ele>5.0</ele><time>2026-03-22T08:59:41.166Z</time></trkpt><trkpt lat="45.0156367" lon="11.5640917"><ele>5.0</ele><time>2026-03-22T08:59:42.171Z</time></trkpt><trkpt lat="45.0156967" lon="11.5640383"><ele>5.0</ele><time>2026-03-22T08:59:43.14Z</time></trkpt><trkpt lat="45.0157567" lon="11.5639867"><ele>5.0</ele><time>2026-03-22T08:59:44.167Z</time></trkpt><trkpt lat="45.015815" lon="11.56394"><ele>5.142857142857142</ele><time>2026-03-22T08:59:45.173Z</time></trkpt><trkpt lat="45.0158767" lon="11.5638933"><ele>5.285714285714286</ele><time>2026-03-22T08:59:46.172Z</time></trkpt><trkpt lat="45.0159383" lon="11.563845"><ele>5.428571428571429</ele><time>2026-03-22T08:59:47.157Z</time></trkpt><trkpt lat="45.0160033" lon="11.5637983"><ele>5.571428571428571</ele><time>2026-03-22T08:59:48.163Z</time></trkpt><trkpt lat="45.0160683" lon="11.5637533"><ele>5.714285714285714</ele><time>2026-03-22T08:59:49.135Z</time></trkpt><trkpt lat="45.0161333" lon="11.56371"><ele>5.857142857142857</ele><time>2026-03-22T08:59:50.165Z</time></trkpt><trkpt lat="45.0161933" lon="11.5636683"><ele>6.0</ele><time>2026-03-22T08:59:51.156Z</time></trkpt><trkpt lat="45.0162533" lon="11.563625"><ele>5.999999999999999</ele><time>2026-03-22T08:59:52.167Z</time></trkpt><trkpt lat="45.0163133" lon="11.563585"><ele>6.0</ele><time>2026-03-22T08:59:53.163Z</time></trkpt><trkpt lat="45.016375" lon="11.5635433"><ele>6.0</ele><time>2026-03-22T08:59:54.143Z</time></trkpt><trkpt lat="45.0164333" lon="11.5635033"><ele>6.0</ele><time>2026-03-22T08:59:55.167Z</time></trkpt><trkpt lat="45.0164917" lon="11.5634667"><ele>6.0</ele><time>2026-03-22T08:59:56.173Z</time></trkpt><trkpt lat="45.0165533" lon="11.5634267"><ele>5.999999999999999</ele><time>2026-03-22T08:59:57.171Z</time></trkpt><trkpt lat="45.016615" lon="11.5633833"><ele>6.0</ele><time>2026-03-22T08:59:58.157Z</time></trkpt><trkpt lat="45.016675" lon="11.5633367"><ele>5.999999999999999</ele><time>2026-03-22T08:59:59.143Z</time></trkpt><trkpt lat="45.0167317" lon="11.5632883"><ele>6.0</ele><time>2026-03-22T09:00:00.133Z</time></trkpt><trkpt lat="45.0167917" lon="11.5632383"><ele>6.0</ele><time>2026-03-22T09:00:01.154Z</time></trkpt><trkpt lat="45.0168483" lon="11.5631867"><ele>6.0</ele><time>2026-03-22T09:00:02.161Z</time></trkpt><trkpt lat="45.016905" lon="11.5631333"><ele>6.0</ele><time>2026-03-22T09:00:03.168Z</time></trkpt><trkpt lat="45.016965" lon="11.5630683"><ele>5.999999999999999</ele><time>2026-03-22T09:00:04.166Z</time></trkpt><trkpt lat="45.01702" lon="11.5630067"><ele>6.0</ele><time>2026-03-22T09:00:05.169Z</time></trkpt><trkpt lat="45.0170717" lon="11.562945"><ele>5.999999999999999</ele><time>2026-03-22T09:00:06.169Z</time></trkpt><trkpt lat="45.0171233" lon="11.56288"><ele>6.0</ele><time>2026-03-22T09:00:07.163Z</time></trkpt><trkpt lat="45.0171767" lon="11.5628167"><ele>6.0</ele><time>2026-03-22T09:00:08.171Z</time></trkpt><trkpt lat="45.01723" lon="11.5627517"><ele>6.0</ele><time>2026-03-22T09:00:09.161Z</time></trkpt><trkpt lat="45.0172817" lon="11.5626883"><ele>6.0</ele><time>2026-03-22T09:00:10.165Z</time></trkpt><trkpt lat="45.0173317" lon="11.562625"><ele>5.999999999999999</ele><time>2026-03-22T09:00:11.168Z</time></trkpt><trkpt lat="45.0173833" lon="11.5625583"><ele>6.0</ele><time>2026-03-22T09:00:12.152Z</time></trkpt><trkpt lat="45.0174333" lon="11.5624883"><ele>6.142857142857142</ele><time>2026-03-22T09:00:13.163Z</time></trkpt><trkpt lat="45.0174817" lon="11.5624233"><ele>6.285714285714286</ele><time>2026-03-22T09:00:14.17Z</time></trkpt><trkpt lat="45.01753" lon="11.5623567"><ele>6.428571428571429</ele><time>2026-03-22T09:00:15.136Z</time></trkpt><trkpt lat="45.0175767" lon="11.56229"><ele>6.571428571428571</ele><time>2026-03-22T09:00:16.16Z</time></trkpt><trkpt lat="45.0176217" lon="11.56222"><ele>6.714285714285714</ele><time>2026-03-22T09:00:17.181Z</time></trkpt><trkpt lat="45.0176683" lon="11.5621533"><ele>6.857142857142857</ele><time>2026-03-22T09:00:18.161Z</time></trkpt><trkpt lat="45.0177183" lon="11.562085"><ele>7.0</ele><time>2026-03-22T09:00:19.166Z</time></trkpt><trkpt lat="45.01777" lon="11.56202"><ele>6.666666666666667</ele><time>2026-03-22T09:00:20.167Z</time></trkpt><trkpt lat="45.0178183" lon="11.5619567"><ele>6.333333333333334</ele><time>2026-03-22T09:00:21.162Z</time></trkpt><trkpt lat="45.0178667" lon="11.5618917"><ele>6.0</ele><time>2026-03-22T09:00:22.165Z</time></trkpt><trkpt lat="45.0179117" lon="11.561825"><ele>5.666666666666667</ele><time>2026-03-22T09:00:23.166Z</time></trkpt><trkpt lat="45.0179933" lon="11.5617083"><ele>5.333333333333334</ele><time>2026-03-22T09:00:25.169Z</time></trkpt><trkpt lat="45.018075" lon="11.5615967"><ele>5.0</ele><time>2026-03-22T09:00:27.17Z</time></trkpt><trkpt lat="45.0181583" lon="11.5614733"><ele>5.0</ele><time>2026-03-22T09:00:29.164Z</time></trkpt><trkpt lat="45.0182033" lon="11.561405"><ele>5.0</ele><time>2026-03-22T09:00:30.168Z</time></trkpt><trkpt lat="45.0182867" lon="11.561275"><ele>5.0</ele><time>2026-03-22T09:00:32.154Z</time></trkpt><trkpt lat="45.0183317" lon="11.561205"><ele>5.0</ele><time>2026-03-22T09:00:33.165Z</time></trkpt><trkpt lat="45.018375" lon="11.561135"><ele>5.0</ele><time>2026-03-22T09:00:34.166Z</time></trkpt><trkpt lat="45.01842" lon="11.5610617"><ele>5.0</ele><time>2026-03-22T09:00:35.169Z</time></trkpt><trkpt lat="45.0184633" lon="11.560985"><ele>5.166666666666667</ele><time>2026-03-22T09:00:36.135Z</time></trkpt><trkpt lat="45.018505" lon="11.5609033"><ele>5.333333333333334</ele><time>2026-03-22T09:00:37.143Z</time></trkpt><trkpt lat="45.0185483" lon="11.56082"><ele>5.5</ele><time>2026-03-22T09:00:38.161Z</time></trkpt><trkpt lat="45.01859" lon="11.5607317"><ele>5.666666666666667</ele><time>2026-03-22T09:00:39.162Z</time></trkpt><trkpt lat="45.0186317" lon="11.560635"><ele>5.833333333333333</ele><time>2026-03-22T09:00:40.171Z</time></trkpt><trkpt lat="45.0186683" lon="11.560535"><ele>6.0</ele><time>2026-03-22T09:00:41.168Z</time></trkpt><trkpt lat="45.0187067" lon="11.5604333"><ele>6.0</ele><time>2026-03-22T09:00:42.168Z</time></trkpt><trkpt lat="45.0187433" lon="11.5603333"><ele>6.0</ele><time>2026-03-22T09:00:43.166Z</time></trkpt><trkpt lat="45.0187767" lon="11.56023"><ele>6.0</ele><time>2026-03-22T09:00:44.16Z</time></trkpt><trkpt lat="45.018805" lon="11.56013"><ele>6.0</ele><time>2026-03-22T09:00:45.169Z</time></trkpt><trkpt lat="45.0188267" lon="11.5600383"><ele>6.0</ele><time>2026-03-22T09:00:46.179Z</time></trkpt><trkpt lat="45.0188617" lon="11.5598717"><ele>6.0</ele><time>2026-03-22T09:00:48.167Z</time></trkpt><trkpt lat="45.0188983" lon="11.55971"><ele>6.0</ele><time>2026-03-22T09:00:50.17Z</time></trkpt><trkpt lat="45.0189283" lon="11.5595517"><ele>6.0</ele><time>2026-03-22T09:00:52.17Z</time></trkpt><trkpt lat="45.0189617" lon="11.5593933"><ele>6.0</ele><time>2026-03-22T09:00:54.166Z</time></trkpt><trkpt lat="45.0190083" lon="11.5592367"><ele>6.0</ele><time>2026-03-22T09:00:56.173Z</time></trkpt><trkpt lat="45.0190317" lon="11.5591533"><ele>6.0</ele><time>2026-03-22T09:00:57.164Z</time></trkpt><trkpt lat="45.0190567" lon="11.55907"><ele>5.857142857142857</ele><time>2026-03-22T09:00:58.157Z</time></trkpt><trkpt lat="45.01908" lon="11.558985"><ele>5.714285714285714</ele><time>2026-03-22T09:00:59.141Z</time></trkpt><trkpt lat="45.0191033" lon="11.5588983"><ele>5.571428571428571</ele><time>2026-03-22T09:01:00.166Z</time></trkpt><trkpt lat="45.0191283" lon="11.5588133"><ele>5.428571428571429</ele><time>2026-03-22T09:01:01.167Z</time></trkpt><trkpt lat="45.0191517" lon="11.5587267"><ele>5.285714285714286</ele><time>2026-03-22T09:01:02.171Z</time></trkpt><trkpt lat="45.0191783" lon="11.55864"><ele>5.142857142857142</ele><time>2026-03-22T09:01:03.145Z</time></trkpt><trkpt lat="45.0192067" lon="11.5585567"><ele>5.0</ele><time>2026-03-22T09:01:04.156Z</time></trkpt><trkpt lat="45.019235" lon="11.5584717"><ele>5.0</ele><time>2026-03-22T09:01:05.17Z</time></trkpt><trkpt lat="45.0192667" lon="11.5583883"><ele>5.0</ele><time>2026-03-22T09:01:06.167Z</time></trkpt><trkpt lat="45.0192967" lon="11.5583017"><ele>5.0</ele><time>2026-03-22T09:01:07.16Z</time></trkpt><trkpt lat="45.01933" lon="11.5582183"><ele>5.0</ele><time>2026-03-22T09:01:08.16Z</time></trkpt><trkpt lat="45.0193633" lon="11.558135"><ele>5.0</ele><time>2026-03-22T09:01:09.16Z</time></trkpt><trkpt lat="45.0194" lon="11.5580517"><ele>5.0</ele><time>2026-03-22T09:01:10.162Z</time></trkpt><trkpt lat="45.0194383" lon="11.5579733"><ele>5.0</ele><time>2026-03-22T09:01:11.162Z</time></trkpt><trkpt lat="45.0194783" lon="11.557895"><ele>4.833333333333334</ele><time>2026-03-22T09:01:12.172Z</time></trkpt><trkpt lat="45.0195167" lon="11.5578183"><ele>4.666666666666667</ele><time>2026-03-22T09:01:13.171Z</time></trkpt><trkpt lat="45.0195533" lon="11.5577433"><ele>4.5</ele><time>2026-03-22T09:01:14.164Z</time></trkpt><trkpt lat="45.01959" lon="11.5576683"><ele>4.333333333333333</ele><time>2026-03-22T09:01:15.171Z</time></trkpt><trkpt lat="45.0196683" lon="11.5575233"><ele>4.166666666666666</ele><time>2026-03-22T09:01:17.169Z</time></trkpt><trkpt lat="45.0197067" lon="11.5574467"><ele>4.0</ele><time>2026-03-22T09:01:18.165Z</time></trkpt><trkpt lat="45.0197467" lon="11.5573733"><ele>4.0</ele><time>2026-03-22T09:01:19.149Z</time></trkpt><trkpt lat="45.0197867" lon="11.5573017"><ele>3.9999999999999996</ele><time>2026-03-22T09:01:20.158Z</time></trkpt><trkpt lat="45.0198267" lon="11.5572267"><ele>4.0</ele><time>2026-03-22T09:01:21.172Z</time></trkpt><trkpt lat="45.0198667" lon="11.557155"><ele>4.0</ele><time>2026-03-22T09:01:22.171Z</time></trkpt><trkpt lat="45.0199083" lon="11.557085"><ele>3.9999999999999996</ele><time>2026-03-22T09:01:23.162Z</time></trkpt><trkpt lat="45.01995" lon="11.557015"><ele>4.0</ele><time>2026-03-22T09:01:24.185Z</time></trkpt><trkpt lat="45.0199967" lon="11.55695"><ele>4.0</ele><time>2026-03-22T09:01:25.171Z</time></trkpt><trkpt lat="45.0200433" lon="11.556885"><ele>4.142857142857142</ele><time>2026-03-22T09:01:26.169Z</time></trkpt><trkpt lat="45.0200917" lon="11.55682"><ele>4.285714285714286</ele><time>2026-03-22T09:01:27.163Z</time></trkpt><trkpt lat="45.0201383" lon="11.556755"><ele>4.428571428571429</ele><time>2026-03-22T09:01:28.167Z</time></trkpt><trkpt lat="45.020185" lon="11.5566917"><ele>4.571428571428571</ele><time>2026-03-22T09:01:29.167Z</time></trkpt><trkpt lat="45.0202333" lon="11.5566267"><ele>4.714285714285714</ele><time>2026-03-22T09:01:30.167Z</time></trkpt><trkpt lat="45.020285" lon="11.5565633"><ele>4.857142857142857</ele><time>2026-03-22T09:01:31.162Z</time></trkpt><trkpt lat="45.0203367" lon="11.5565"><ele>5.0</ele><time>2026-03-22T09:01:32.17Z</time></trkpt><trkpt lat="45.0203917" lon="11.55644"><ele>5.0</ele><time>2026-03-22T09:01:33.17Z</time></trkpt><trkpt lat="45.0204483" lon="11.55638"><ele>5.0</ele><time>2026-03-22T09:01:34.168Z</time></trkpt><trkpt lat="45.0205067" lon="11.5563183"><ele>5.0</ele><time>2026-03-22T09:01:35.134Z</time></trkpt><trkpt lat="45.0205617" lon="11.55626"><ele>5.0</ele><time>2026-03-22T09:01:36.161Z</time></trkpt><trkpt lat="45.0206183" lon="11.5562083"><ele>5.0</ele><time>2026-03-22T09:01:37.167Z</time></trkpt><trkpt lat="45.0206717" lon="11.5561583"><ele>5.0</ele><time>2026-03-22T09:01:38.142Z</time></trkpt><trkpt lat="45.0207283" lon="11.5561117"><ele>5.0</ele><time>2026-03-22T09:01:39.154Z</time></trkpt><trkpt lat="45.0207833" lon="11.5560633"><ele>5.142857142857142</ele><time>2026-03-22T09:01:40.164Z</time></trkpt><trkpt lat="45.02084" lon="11.5560167"><ele>5.285714285714286</ele><time>2026-03-22T09:01:41.175Z</time></trkpt><trkpt lat="45.0209" lon="11.55597"><ele>5.428571428571429</ele><time>2026-03-22T09:01:42.169Z</time></trkpt><trkpt lat="45.0209583" lon="11.5559267"><ele>5.571428571428571</ele><time>2026-03-22T09:01:43.166Z</time></trkpt><trkpt lat="45.0210183" lon="11.555885"><ele>5.714285714285714</ele><time>2026-03-22T09:01:44.171Z</time></trkpt><trkpt lat="45.0210767" lon="11.5558417"><ele>5.857142857142857</ele><time>2026-03-22T09:01:45.14Z</time></trkpt><trkpt lat="45.0211383" lon="11.555795"><ele>6.0</ele><time>2026-03-22T09:01:46.164Z</time></trkpt><trkpt lat="45.0211967" lon="11.5557533"><ele>6.0</ele><time>2026-03-22T09:01:47.168Z</time></trkpt><trkpt lat="45.0212567" lon="11.5557083"><ele>6.0</ele><time>2026-03-22T09:01:48.169Z</time></trkpt><trkpt lat="45.0213167" lon="11.5556617"><ele>6.0</ele><time>2026-03-22T09:01:49.154Z</time></trkpt><trkpt lat="45.021375" lon="11.555615"><ele>6.0</ele><time>2026-03-22T09:01:50.162Z</time></trkpt><trkpt lat="45.0214333" lon="11.55557"><ele>6.0</ele><time>2026-03-22T09:01:51.167Z</time></trkpt><trkpt lat="45.0214883" lon="11.555525"><ele>6.0</ele><time>2026-03-22T09:01:52.172Z</time></trkpt><trkpt lat="45.0215917" lon="11.5554383"><ele>6.0</ele><time>2026-03-22T09:01:54.167Z</time></trkpt><trkpt lat="45.021695" lon="11.5553567"><ele>6.0</ele><time>2026-03-22T09:01:56.144Z</time></trkpt><trkpt lat="45.0217483" lon="11.555305"><ele>6.0</ele><time>2026-03-22T09:01:57.158Z</time></trkpt><trkpt lat="45.021805" lon="11.555255"><ele>6.0</ele><time>2026-03-22T09:01:58.168Z</time></trkpt><trkpt lat="45.0218617" lon="11.5552033"><ele>6.0</ele><time>2026-03-22T09:01:59.163Z</time></trkpt><trkpt lat="45.02192" lon="11.5551517"><ele>6.0</ele><time>2026-03-22T09:02:00.174Z</time></trkpt><trkpt lat="45.0219733" lon="11.5551"><ele>5.999999999999999</ele><time>2026-03-22T09:02:01.173Z</time></trkpt><trkpt lat="45.0220267" lon="11.5550517"><ele>6.0</ele><time>2026-03-22T09:02:02.172Z</time></trkpt><trkpt lat="45.0220817" lon="11.554995"><ele>6.0</ele><time>2026-03-22T09:02:03.164Z</time></trkpt><trkpt lat="45.022135" lon="11.5549417"><ele>6.0</ele><time>2026-03-22T09:02:04.17Z</time></trkpt><trkpt lat="45.0221867" lon="11.5548833"><ele>6.0</ele><time>2026-03-22T09:02:05.161Z</time></trkpt><trkpt lat="45.0222417" lon="11.5548217"><ele>5.999999999999999</ele><time>2026-03-22T09:02:06.164Z</time></trkpt><trkpt lat="45.0222933" lon="11.5547617"><ele>6.0</ele><time>2026-03-22T09:02:07.17Z</time></trkpt><trkpt lat="45.02238" lon="11.554655"><ele>6.0</ele><time>2026-03-22T09:02:09.166Z</time></trkpt><trkpt lat="45.0224533" lon="11.5545567"><ele>6.0</ele><time>2026-03-22T09:02:11.172Z</time></trkpt><trkpt lat="45.022525" lon="11.5544583"><ele>6.0</ele><time>2026-03-22T09:02:13.159Z</time></trkpt><trkpt lat="45.022605" lon="11.5543483"><ele>6.0</ele><time>2026-03-22T09:02:15.169Z</time></trkpt><trkpt lat="45.02265" lon="11.554285"><ele>6.0</ele><time>2026-03-22T09:02:16.167Z</time></trkpt><trkpt lat="45.022695" lon="11.5542133"><ele>6.0</ele><time>2026-03-22T09:02:17.128Z</time></trkpt><trkpt lat="45.0227367" lon="11.5541383"><ele>5.999999999999999</ele><time>2026-03-22T09:02:18.156Z</time></trkpt><trkpt lat="45.0227817" lon="11.5540583"><ele>6.0</ele><time>2026-03-22T09:02:19.162Z</time></trkpt><trkpt lat="45.022825" lon="11.55398"><ele>6.0</ele><time>2026-03-22T09:02:20.17Z</time></trkpt><trkpt lat="45.022865" lon="11.5539"><ele>6.0</ele><time>2026-03-22T09:02:21.161Z</time></trkpt><trkpt lat="45.0229017" lon="11.5538183"><ele>6.0</ele><time>2026-03-22T09:02:22.169Z</time></trkpt><trkpt lat="45.0229367" lon="11.5537367"><ele>5.999999999999999</ele><time>2026-03-22T09:02:23.153Z</time></trkpt><trkpt lat="45.0229733" lon="11.55366"><ele>6.0</ele><time>2026-03-22T09:02:24.161Z</time></trkpt><trkpt lat="45.02301" lon="11.55358"><ele>5.999999999999999</ele><time>2026-03-22T09:02:25.17Z</time></trkpt><trkpt lat="45.023045" lon="11.553495"><ele>6.0</ele><time>2026-03-22T09:02:26.169Z</time></trkpt><trkpt lat="45.02308" lon="11.5534083"><ele>6.0</ele><time>2026-03-22T09:02:27.17Z</time></trkpt><trkpt lat="45.0231117" lon="11.55332"><ele>6.0</ele><time>2026-03-22T09:02:28.153Z</time></trkpt><trkpt lat="45.0231383" lon="11.5532317"><ele>6.0</ele><time>2026-03-22T09:02:29.157Z</time></trkpt><trkpt lat="45.0231667" lon="11.553145"><ele>5.999999999999999</ele><time>2026-03-22T09:02:30.167Z</time></trkpt><trkpt lat="45.02319" lon="11.5530533"><ele>6.0</ele><time>2026-03-22T09:02:31.162Z</time></trkpt><trkpt lat="45.0232083" lon="11.5529633"><ele>6.25</ele><time>2026-03-22T09:02:32.172Z</time></trkpt><trkpt lat="45.023235" lon="11.5527967"><ele>6.5</ele><time>2026-03-22T09:02:34.162Z</time></trkpt><trkpt lat="45.0232667" lon="11.5526417"><ele>6.75</ele><time>2026-03-22T09:02:36.171Z</time></trkpt><trkpt lat="45.02329" lon="11.5524817"><ele>7.0</ele><time>2026-03-22T09:02:38.166Z</time></trkpt><trkpt lat="45.023315" lon="11.5523167"><ele>6.5</ele><time>2026-03-22T09:02:40.152Z</time></trkpt><trkpt lat="45.02334" lon="11.5521583"><ele>6.0</ele><time>2026-03-22T09:02:42.165Z</time></trkpt><trkpt lat="45.02336" lon="11.5519917"><ele>5.5</ele><time>2026-03-22T09:02:44.168Z</time></trkpt><trkpt lat="45.0233767" lon="11.5518217"><ele>5.0</ele><time>2026-03-22T09:02:46.167Z</time></trkpt><trkpt lat="45.023395" lon="11.5516467"><ele>5.0</ele><time>2026-03-22T09:02:48.168Z</time></trkpt><trkpt lat="45.023405" lon="11.5514683"><ele>5.0</ele><time>2026-03-22T09:02:50.164Z</time></trkpt><trkpt lat="45.0234117" lon="11.5512933"><ele>5.0</ele><time>2026-03-22T09:02:52.167Z</time></trkpt><trkpt lat="45.0234083" lon="11.5511167"><ele>5.0</ele><time>2026-03-22T09:02:54.137Z</time></trkpt><trkpt lat="45.0234" lon="11.5510283"><ele>5.0</ele><time>2026-03-22T09:02:55.165Z</time></trkpt><trkpt lat="45.0233883" lon="11.5508617"><ele>5.0</ele><time>2026-03-22T09:02:57.166Z</time></trkpt><trkpt lat="45.0233717" lon="11.550695"><ele>5.0</ele><time>2026-03-22T09:02:59.171Z</time></trkpt><trkpt lat="45.0233467" lon="11.550535"><ele>5.0</ele><time>2026-03-22T09:03:01.169Z</time></trkpt><trkpt lat="45.0233267" lon="11.5503933"><ele>5.0</ele><time>2026-03-22T09:03:03.171Z</time></trkpt><trkpt lat="45.0233133" lon="11.550255"><ele>5.0</ele><time>2026-03-22T09:03:05.169Z</time></trkpt><trkpt lat="45.0233" lon="11.550115"><ele>5.0</ele><time>2026-03-22T09:03:07.171Z</time></trkpt><trkpt lat="45.0232817" lon="11.5499667"><ele>5.0</ele><time>2026-03-22T09:03:09.17Z</time></trkpt><trkpt lat="45.02326" lon="11.5498083"><ele>5.0</ele><time>2026-03-22T09:03:11.145Z</time></trkpt><trkpt lat="45.02323" lon="11.5496383"><ele>5.0</ele><time>2026-03-22T09:03:13.166Z</time></trkpt><trkpt lat="45.0232017" lon="11.5494617"><ele>5.142857142857142</ele><time>2026-03-22T09:03:15.17Z</time></trkpt><trkpt lat="45.0231883" lon="11.5493733"><ele>5.285714285714286</ele><time>2026-03-22T09:03:16.165Z</time></trkpt><trkpt lat="45.023175" lon="11.549285"><ele>5.428571428571429</ele><time>2026-03-22T09:03:17.16Z</time></trkpt><trkpt lat="45.0231583" lon="11.549195"><ele>5.571428571428571</ele><time>2026-03-22T09:03:18.16Z</time></trkpt><trkpt lat="45.0231433" lon="11.549105"><ele>5.714285714285714</ele><time>2026-03-22T09:03:19.168Z</time></trkpt><trkpt lat="45.023125" lon="11.549015"><ele>5.857142857142857</ele><time>2026-03-22T09:03:20.169Z</time></trkpt><trkpt lat="45.0231033" lon="11.548925"><ele>6.0</ele><time>2026-03-22T09:03:21.162Z</time></trkpt><trkpt lat="45.02308" lon="11.5488333"><ele>5.999999999999999</ele><time>2026-03-22T09:03:22.16Z</time></trkpt><trkpt lat="45.023055" lon="11.5487433"><ele>6.0</ele><time>2026-03-22T09:03:23.136Z</time></trkpt><trkpt lat="45.02303" lon="11.54865"><ele>6.0</ele><time>2026-03-22T09:03:24.156Z</time></trkpt><trkpt lat="45.0230067" lon="11.5485567"><ele>6.0</ele><time>2026-03-22T09:03:25.16Z</time></trkpt><trkpt lat="45.022985" lon="11.5484633"><ele>6.0</ele><time>2026-03-22T09:03:26.138Z</time></trkpt><trkpt lat="45.022965" lon="11.5483683"><ele>5.999999999999999</ele><time>2026-03-22T09:03:27.155Z</time></trkpt><trkpt lat="45.0229483" lon="11.54827"><ele>6.0</ele><time>2026-03-22T09:03:28.166Z</time></trkpt><trkpt lat="45.0229333" lon="11.54817"><ele>5.999999999999999</ele><time>2026-03-22T09:03:29.168Z</time></trkpt><trkpt lat="45.0229233" lon="11.54807"><ele>6.0</ele><time>2026-03-22T09:03:30.167Z</time></trkpt><trkpt lat="45.02292" lon="11.5479667"><ele>6.0</ele><time>2026-03-22T09:03:31.162Z</time></trkpt><trkpt lat="45.0229217" lon="11.5478667"><ele>6.0</ele><time>2026-03-22T09:03:32.161Z</time></trkpt><trkpt lat="45.0229267" lon="11.5477667"><ele>6.0</ele><time>2026-03-22T09:03:33.169Z</time></trkpt><trkpt lat="45.0229317" lon="11.5476667"><ele>5.999999999999999</ele><time>2026-03-22T09:03:34.168Z</time></trkpt><trkpt lat="45.0229433" lon="11.5475733"><ele>6.0</ele><time>2026-03-22T09:03:35.172Z</time></trkpt><trkpt lat="45.0229567" lon="11.54748"><ele>6.0</ele><time>2026-03-22T09:03:36.17Z</time></trkpt><trkpt lat="45.0229683" lon="11.54739"><ele>6.0</ele><time>2026-03-22T09:03:37.17Z</time></trkpt><trkpt lat="45.0230017" lon="11.5472217"><ele>6.0</ele><time>2026-03-22T09:03:39.161Z</time></trkpt><trkpt lat="45.02302" lon="11.547135"><ele>6.0</ele><time>2026-03-22T09:03:40.149Z</time></trkpt><trkpt lat="45.0230433" lon="11.5470517"><ele>6.0</ele><time>2026-03-22T09:03:41.155Z</time></trkpt><trkpt lat="45.02309" lon="11.546895"><ele>6.0</ele><time>2026-03-22T09:03:43.158Z</time></trkpt><trkpt lat="45.0231417" lon="11.5467433"><ele>5.999999999999999</ele><time>2026-03-22T09:03:45.167Z</time></trkpt><trkpt lat="45.0231933" lon="11.546585"><ele>6.0</ele><time>2026-03-22T09:03:47.167Z</time></trkpt><trkpt lat="45.02322" lon="11.5465033"><ele>6.0</ele><time>2026-03-22T09:03:48.163Z</time></trkpt><trkpt lat="45.023245" lon="11.5464183"><ele>6.0</ele><time>2026-03-22T09:03:49.166Z</time></trkpt><trkpt lat="45.0232683" lon="11.546335"><ele>6.0</ele><time>2026-03-22T09:03:50.16Z</time></trkpt><trkpt lat="45.0232933" lon="11.54625"><ele>5.999999999999999</ele><time>2026-03-22T09:03:51.166Z</time></trkpt><trkpt lat="45.02332" lon="11.5461633"><ele>6.0</ele><time>2026-03-22T09:03:52.163Z</time></trkpt><trkpt lat="45.023345" lon="11.5460767"><ele>5.999999999999999</ele><time>2026-03-22T09:03:53.16Z</time></trkpt><trkpt lat="45.0233683" lon="11.5459933"><ele>6.0</ele><time>2026-03-22T09:03:54.166Z</time></trkpt><trkpt lat="45.0233933" lon="11.5459083"><ele>6.0</ele><time>2026-03-22T09:03:55.168Z</time></trkpt><trkpt lat="45.023415" lon="11.5458217"><ele>6.0</ele><time>2026-03-22T09:03:56.167Z</time></trkpt><trkpt lat="45.0234367" lon="11.5457317"><ele>6.0</ele><time>2026-03-22T09:03:57.168Z</time></trkpt><trkpt lat="45.0234583" lon="11.54564"><ele>5.999999999999999</ele><time>2026-03-22T09:03:58.146Z</time></trkpt><trkpt lat="45.0234767" lon="11.545545"><ele>6.0</ele><time>2026-03-22T09:03:59.162Z</time></trkpt><trkpt lat="45.0234983" lon="11.5454533"><ele>6.0</ele><time>2026-03-22T09:04:00.168Z</time></trkpt><trkpt lat="45.0235183" lon="11.5453617"><ele>6.0</ele><time>2026-03-22T09:04:01.171Z</time></trkpt><trkpt lat="45.0235367" lon="11.5452717"><ele>6.0</ele><time>2026-03-22T09:04:02.16Z</time></trkpt><trkpt lat="45.0235517" lon="11.5451833"><ele>6.0</ele><time>2026-03-22T09:04:03.163Z</time></trkpt><trkpt lat="45.0235683" lon="11.5450967"><ele>6.0</ele><time>2026-03-22T09:04:04.172Z</time></trkpt><trkpt lat="45.0236" lon="11.5449283"><ele>6.0</ele><time>2026-03-22T09:04:06.171Z</time></trkpt><trkpt lat="45.0236317" lon="11.5447667"><ele>6.0</ele><time>2026-03-22T09:04:08.169Z</time></trkpt><trkpt lat="45.0236617" lon="11.5446"><ele>6.0</ele><time>2026-03-22T09:04:10.17Z</time></trkpt><trkpt lat="45.0236933" lon="11.5444283"><ele>6.0</ele><time>2026-03-22T09:04:12.164Z</time></trkpt><trkpt lat="45.0237083" lon="11.54434"><ele>6.0</ele><time>2026-03-22T09:04:13.154Z</time></trkpt><trkpt lat="45.0237217" lon="11.5442483"><ele>6.0</ele><time>2026-03-22T09:04:14.154Z</time></trkpt><trkpt lat="45.0237333" lon="11.5441533"><ele>6.0</ele><time>2026-03-22T09:04:15.162Z</time></trkpt><trkpt lat="45.0237483" lon="11.54406"><ele>5.999999999999999</ele><time>2026-03-22T09:04:16.151Z</time></trkpt><trkpt lat="45.02376" lon="11.543965"><ele>6.0</ele><time>2026-03-22T09:04:17.159Z</time></trkpt><trkpt lat="45.0237733" lon="11.5438667"><ele>6.0</ele><time>2026-03-22T09:04:18.166Z</time></trkpt><trkpt lat="45.0237883" lon="11.54377"><ele>6.0</ele><time>2026-03-22T09:04:19.167Z</time></trkpt><trkpt lat="45.0238033" lon="11.5436733"><ele>6.0</ele><time>2026-03-22T09:04:20.167Z</time></trkpt><trkpt lat="45.0238167" lon="11.5435783"><ele>5.999999999999999</ele><time>2026-03-22T09:04:21.169Z</time></trkpt><trkpt lat="45.02383" lon="11.5434817"><ele>6.0</ele><time>2026-03-22T09:04:22.145Z</time></trkpt><trkpt lat="45.0238483" lon="11.5433917"><ele>5.999999999999999</ele><time>2026-03-22T09:04:23.161Z</time></trkpt><trkpt lat="45.0238667" lon="11.5433"><ele>6.0</ele><time>2026-03-22T09:04:24.155Z</time></trkpt><trkpt lat="45.0238883" lon="11.5432117"><ele>6.0</ele><time>2026-03-22T09:04:25.168Z</time></trkpt><trkpt lat="45.02391" lon="11.54312"><ele>6.0</ele><time>2026-03-22T09:04:26.17Z</time></trkpt><trkpt lat="45.0239317" lon="11.5430283"><ele>6.0</ele><time>2026-03-22T09:04:27.165Z</time></trkpt><trkpt lat="45.0239533" lon="11.5429383"><ele>5.999999999999999</ele><time>2026-03-22T09:04:28.168Z</time></trkpt><trkpt lat="45.0239717" lon="11.54285"><ele>6.0</ele><time>2026-03-22T09:04:29.163Z</time></trkpt><trkpt lat="45.02399" lon="11.5427617"><ele>6.0</ele><time>2026-03-22T09:04:30.162Z</time></trkpt><trkpt lat="45.0240117" lon="11.5426767"><ele>6.0</ele><time>2026-03-22T09:04:31.168Z</time></trkpt><trkpt lat="45.02405" lon="11.5425117"><ele>6.0</ele><time>2026-03-22T09:04:33.168Z</time></trkpt><trkpt lat="45.0240917" lon="11.5423517"><ele>6.0</ele><time>2026-03-22T09:04:35.141Z</time></trkpt><trkpt lat="45.024115" lon="11.5422683"><ele>6.0</ele><time>2026-03-22T09:04:36.163Z</time></trkpt><trkpt lat="45.0241533" lon="11.5420967"><ele>6.166666666666667</ele><time>2026-03-22T09:04:38.169Z</time></trkpt><trkpt lat="45.0241733" lon="11.5420067"><ele>6.333333333333334</ele><time>2026-03-22T09:04:39.171Z</time></trkpt><trkpt lat="45.0241917" lon="11.5419167"><ele>6.5</ele><time>2026-03-22T09:04:40.165Z</time></trkpt><trkpt lat="45.0242283" lon="11.541765"><ele>6.666666666666667</ele><time>2026-03-22T09:04:42.17Z</time></trkpt><trkpt lat="45.0242617" lon="11.5416517"><ele>6.833333333333334</ele><time>2026-03-22T09:04:44.158Z</time></trkpt><trkpt lat="45.0243067" lon="11.5415417"><ele>7.0</ele><time>2026-03-22T09:04:46.16Z</time></trkpt><trkpt lat="45.0243533" lon="11.541425"><ele>7.0</ele><time>2026-03-22T09:04:48.165Z</time></trkpt><trkpt lat="45.0244083" lon="11.541315"><ele>6.999999999999999</ele><time>2026-03-22T09:04:50.163Z</time></trkpt><trkpt lat="45.0244633" lon="11.5411983"><ele>6.999999999999999</ele><time>2026-03-22T09:04:52.156Z</time></trkpt><trkpt lat="45.0245183" lon="11.5410733"><ele>7.0</ele><time>2026-03-22T09:04:54.166Z</time></trkpt><trkpt lat="45.0245783" lon="11.5409433"><ele>7.0</ele><time>2026-03-22T09:04:56.132Z</time></trkpt><trkpt lat="45.0246417" lon="11.5408033"><ele>7.0</ele><time>2026-03-22T09:04:58.167Z</time></trkpt><trkpt lat="45.0247017" lon="11.5406533"><ele>6.999999999999999</ele><time>2026-03-22T09:05:00.158Z</time></trkpt><trkpt lat="45.0247683" lon="11.54051"><ele>6.999999999999999</ele><time>2026-03-22T09:05:02.169Z</time></trkpt><trkpt lat="45.0248417" lon="11.5403633"><ele>7.0</ele><time>2026-03-22T09:05:04.169Z</time></trkpt><trkpt lat="45.0248767" lon="11.540285"><ele>7.0</ele><time>2026-03-22T09:05:05.166Z</time></trkpt><trkpt lat="45.0249133" lon="11.540205"><ele>7.666666666666667</ele><time>2026-03-22T09:05:06.168Z</time></trkpt><trkpt lat="45.0249517" lon="11.5401283"><ele>8.333333333333334</ele><time>2026-03-22T09:05:07.133Z</time></trkpt><trkpt lat="45.0249883" lon="11.5400533"><ele>9.0</ele><time>2026-03-22T09:05:08.161Z</time></trkpt><trkpt lat="45.0250567" lon="11.539905"><ele>9.666666666666666</ele><time>2026-03-22T09:05:10.164Z</time></trkpt><trkpt lat="45.02509" lon="11.5398283"><ele>10.333333333333332</ele><time>2026-03-22T09:05:11.165Z</time></trkpt><trkpt lat="45.0251217" lon="11.5397467"><ele>11.0</ele><time>2026-03-22T09:05:12.168Z</time></trkpt><trkpt lat="45.0251683" lon="11.53958"><ele>11.0</ele><time>2026-03-22T09:05:14.163Z</time></trkpt><trkpt lat="45.0251933" lon="11.5394933"><ele>11.0</ele><time>2026-03-22T09:05:15.169Z</time></trkpt><trkpt lat="45.0252167" lon="11.53941"><ele>11.0</ele><time>2026-03-22T09:05:16.169Z</time></trkpt><trkpt lat="45.0252383" lon="11.539325"><ele>11.0</ele><time>2026-03-22T09:05:17.165Z</time></trkpt><trkpt lat="45.0252783" lon="11.5391567"><ele>11.0</ele><time>2026-03-22T09:05:19.163Z</time></trkpt><trkpt lat="45.0253117" lon="11.5389883"><ele>11.0</ele><time>2026-03-22T09:05:21.142Z</time></trkpt><trkpt lat="45.025345" lon="11.5388233"><ele>10.8</ele><time>2026-03-22T09:05:23.163Z</time></trkpt><trkpt lat="45.0253833" lon="11.5386583"><ele>10.600000000000001</ele><time>2026-03-22T09:05:25.139Z</time></trkpt><trkpt lat="45.02542" lon="11.5384967"><ele>10.4</ele><time>2026-03-22T09:05:27.139Z</time></trkpt><trkpt lat="45.025455" lon="11.5383533"><ele>10.2</ele><time>2026-03-22T09:05:29.143Z</time></trkpt><trkpt lat="45.025485" lon="11.5382367"><ele>10.0</ele><time>2026-03-22T09:05:31.144Z</time></trkpt><trkpt lat="45.0255033" lon="11.5381367"><ele>10.0</ele><time>2026-03-22T09:05:33.142Z</time></trkpt><trkpt lat="45.0255267" lon="11.5380467"><ele>10.0</ele><time>2026-03-22T09:05:35.165Z</time></trkpt><trkpt lat="45.0255567" lon="11.5379667"><ele>10.0</ele><time>2026-03-22T09:05:37.143Z</time></trkpt><trkpt lat="45.0256183" lon="11.53793"><ele>10.0</ele><time>2026-03-22T09:05:39.163Z</time></trkpt><trkpt lat="45.0257083" lon="11.5379483"><ele>10.0</ele><time>2026-03-22T09:05:41.139Z</time></trkpt><trkpt lat="45.0257883" lon="11.5379933"><ele>10.0</ele><time>2026-03-22T09:05:43.156Z</time></trkpt><trkpt lat="45.0258667" lon="11.5380483"><ele>9.333333333333334</ele><time>2026-03-22T09:05:45.142Z</time></trkpt><trkpt lat="45.02595" lon="11.53809"><ele>8.666666666666668</ele><time>2026-03-22T09:05:47.142Z</time></trkpt><trkpt lat="45.0260333" lon="11.5381333"><ele>8.0</ele><time>2026-03-22T09:05:49.138Z</time></trkpt><trkpt lat="45.0261167" lon="11.5381783"><ele>7.333333333333334</ele><time>2026-03-22T09:05:51.14Z</time></trkpt><trkpt lat="45.0261917" lon="11.5382367"><ele>6.666666666666667</ele><time>2026-03-22T09:05:53.154Z</time></trkpt><trkpt lat="45.0262267" lon="11.5383517"><ele>6.0</ele><time>2026-03-22T09:05:55.166Z</time></trkpt><trkpt lat="45.0262483" lon="11.5385067"><ele>6.0</ele><time>2026-03-22T09:05:57.167Z</time></trkpt><trkpt lat="45.0262667" lon="11.5386783"><ele>6.0</ele><time>2026-03-22T09:05:59.137Z</time></trkpt><trkpt lat="45.02628" lon="11.5387683"><ele>6.0</ele><time>2026-03-22T09:06:00.167Z</time></trkpt><trkpt lat="45.0262917" lon="11.53886"><ele>6.0</ele><time>2026-03-22T09:06:01.176Z</time></trkpt><trkpt lat="45.0263067" lon="11.5389533"><ele>6.0</ele><time>2026-03-22T09:06:02.172Z</time></trkpt><trkpt lat="45.0263167" lon="11.53905"><ele>6.0</ele><time>2026-03-22T09:06:03.155Z</time></trkpt><trkpt lat="45.02633" lon="11.5391483"><ele>6.333333333333333</ele><time>2026-03-22T09:06:04.133Z</time></trkpt><trkpt lat="45.026345" lon="11.5392517"><ele>6.666666666666666</ele><time>2026-03-22T09:06:05.167Z</time></trkpt><trkpt lat="45.026365" lon="11.5393567"><ele>7.0</ele><time>2026-03-22T09:06:06.146Z</time></trkpt><trkpt lat="45.0263933" lon="11.5394617"><ele>7.333333333333333</ele><time>2026-03-22T09:06:07.136Z</time></trkpt><trkpt lat="45.0264283" lon="11.5395617"><ele>7.666666666666666</ele><time>2026-03-22T09:06:08.165Z</time></trkpt><trkpt lat="45.02647" lon="11.5396583"><ele>8.0</ele><time>2026-03-22T09:06:09.165Z</time></trkpt><trkpt lat="45.026515" lon="11.5397467"><ele>8.0</ele><time>2026-03-22T09:06:10.167Z</time></trkpt><trkpt lat="45.0265617" lon="11.539835"><ele>7.999999999999999</ele><time>2026-03-22T09:06:11.16Z</time></trkpt><trkpt lat="45.0266067" lon="11.53992"><ele>8.0</ele><time>2026-03-22T09:06:12.16Z</time></trkpt><trkpt lat="45.0266483" lon="11.5400017"><ele>8.0</ele><time>2026-03-22T09:06:13.152Z</time></trkpt><trkpt lat="45.02669" lon="11.540085"><ele>7.999999999999999</ele><time>2026-03-22T09:06:14.163Z</time></trkpt><trkpt lat="45.0267333" lon="11.540165"><ele>8.0</ele><time>2026-03-22T09:06:15.173Z</time></trkpt><trkpt lat="45.026775" lon="11.5402417"><ele>8.0</ele><time>2026-03-22T09:06:16.168Z</time></trkpt><trkpt lat="45.0268167" lon="11.54032"><ele>8.166666666666666</ele><time>2026-03-22T09:06:17.167Z</time></trkpt><trkpt lat="45.02686" lon="11.5403983"><ele>8.333333333333332</ele><time>2026-03-22T09:06:18.166Z</time></trkpt><trkpt lat="45.0269017" lon="11.5404767"><ele>8.5</ele><time>2026-03-22T09:06:19.169Z</time></trkpt><trkpt lat="45.0269417" lon="11.540555"><ele>8.666666666666666</ele><time>2026-03-22T09:06:20.172Z</time></trkpt><trkpt lat="45.02698" lon="11.54063"><ele>8.833333333333334</ele><time>2026-03-22T09:06:21.146Z</time></trkpt><trkpt lat="45.0270533" lon="11.5407733"><ele>9.0</ele><time>2026-03-22T09:06:23.145Z</time></trkpt><trkpt lat="45.027125" lon="11.5409133"><ele>9.000000000000002</ele><time>2026-03-22T09:06:25.169Z</time></trkpt><trkpt lat="45.0271967" lon="11.541055"><ele>9.0</ele><time>2026-03-22T09:06:27.171Z</time></trkpt><trkpt lat="45.0272367" lon="11.54113"><ele>9.0</ele><time>2026-03-22T09:06:28.174Z</time></trkpt><trkpt lat="45.027275" lon="11.5412033"><ele>9.0</ele><time>2026-03-22T09:06:29.161Z</time></trkpt><trkpt lat="45.0273133" lon="11.541275"><ele>9.0</ele><time>2026-03-22T09:06:30.152Z</time></trkpt><trkpt lat="45.02735" lon="11.5413483"><ele>9.000000000000002</ele><time>2026-03-22T09:06:31.167Z</time></trkpt><trkpt lat="45.0273867" lon="11.5414233"><ele>9.0</ele><time>2026-03-22T09:06:32.139Z</time></trkpt><trkpt lat="45.027425" lon="11.541505"><ele>9.000000000000002</ele><time>2026-03-22T09:06:33.166Z</time></trkpt><trkpt lat="45.0274633" lon="11.5415883"><ele>9.0</ele><time>2026-03-22T09:06:34.171Z</time></trkpt><trkpt lat="45.0275" lon="11.54167"><ele>9.0</ele><time>2026-03-22T09:06:35.144Z</time></trkpt><trkpt lat="45.0275333" lon="11.5417533"><ele>9.0</ele><time>2026-03-22T09:06:36.167Z</time></trkpt><trkpt lat="45.02757" lon="11.5418383"><ele>9.0</ele><time>2026-03-22T09:06:37.168Z</time></trkpt><trkpt lat="45.0276067" lon="11.5419217"><ele>9.000000000000002</ele><time>2026-03-22T09:06:38.161Z</time></trkpt><trkpt lat="45.02764" lon="11.542005"><ele>9.0</ele><time>2026-03-22T09:06:39.165Z</time></trkpt><trkpt lat="45.0276733" lon="11.54209"><ele>8.714285714285715</ele><time>2026-03-22T09:06:40.168Z</time></trkpt><trkpt lat="45.0277067" lon="11.542175"><ele>8.428571428571429</ele><time>2026-03-22T09:06:41.168Z</time></trkpt><trkpt lat="45.0277417" lon="11.54226"><ele>8.142857142857142</ele><time>2026-03-22T09:06:42.167Z</time></trkpt><trkpt lat="45.0277733" lon="11.542345"><ele>7.857142857142858</ele><time>2026-03-22T09:06:43.131Z</time></trkpt><trkpt lat="45.0278017" lon="11.5424317"><ele>7.571428571428571</ele><time>2026-03-22T09:06:44.165Z</time></trkpt><trkpt lat="45.02783" lon="11.54252"><ele>7.285714285714286</ele><time>2026-03-22T09:06:45.144Z</time></trkpt><trkpt lat="45.0278583" lon="11.5426067"><ele>7.0</ele><time>2026-03-22T09:06:46.166Z</time></trkpt><trkpt lat="45.0278867" lon="11.5426917"><ele>7.000000000000001</ele><time>2026-03-22T09:06:47.158Z</time></trkpt><trkpt lat="45.027915" lon="11.54278"><ele>7.0</ele><time>2026-03-22T09:06:48.166Z</time></trkpt><trkpt lat="45.0279417" lon="11.542865"><ele>7.0</ele><time>2026-03-22T09:06:49.171Z</time></trkpt><trkpt lat="45.0279667" lon="11.54295"><ele>7.0</ele><time>2026-03-22T09:06:50.164Z</time></trkpt><trkpt lat="45.0279867" lon="11.543035"><ele>7.000000000000001</ele><time>2026-03-22T09:06:51.164Z</time></trkpt><trkpt lat="45.0280283" lon="11.5431967"><ele>7.0</ele><time>2026-03-22T09:06:53.138Z</time></trkpt><trkpt lat="45.028065" lon="11.543355"><ele>7.0</ele><time>2026-03-22T09:06:55.152Z</time></trkpt><trkpt lat="45.028095" lon="11.5435167"><ele>6.999999999999999</ele><time>2026-03-22T09:06:57.168Z</time></trkpt><trkpt lat="45.028125" lon="11.543685"><ele>6.999999999999999</ele><time>2026-03-22T09:06:59.164Z</time></trkpt><trkpt lat="45.0281517" lon="11.5438583"><ele>7.0</ele><time>2026-03-22T09:07:01.172Z</time></trkpt><trkpt lat="45.0281667" lon="11.5439483"><ele>7.0</ele><time>2026-03-22T09:07:02.167Z</time></trkpt><trkpt lat="45.02818" lon="11.54404"><ele>6.714285714285714</ele><time>2026-03-22T09:07:03.167Z</time></trkpt><trkpt lat="45.028195" lon="11.54413"><ele>6.428571428571429</ele><time>2026-03-22T09:07:04.144Z</time></trkpt><trkpt lat="45.0282083" lon="11.54422"><ele>6.142857142857142</ele><time>2026-03-22T09:07:05.168Z</time></trkpt><trkpt lat="45.0282233" lon="11.5443117"><ele>5.857142857142858</ele><time>2026-03-22T09:07:06.16Z</time></trkpt><trkpt lat="45.028235" lon="11.5444033"><ele>5.571428571428571</ele><time>2026-03-22T09:07:07.167Z</time></trkpt><trkpt lat="45.0282483" lon="11.544495"><ele>5.285714285714286</ele><time>2026-03-22T09:07:08.176Z</time></trkpt><trkpt lat="45.028265" lon="11.5445883"><ele>5.0</ele><time>2026-03-22T09:07:09.168Z</time></trkpt><trkpt lat="45.02828" lon="11.54468"><ele>5.0</ele><time>2026-03-22T09:07:10.166Z</time></trkpt><trkpt lat="45.028295" lon="11.5447733"><ele>5.0</ele><time>2026-03-22T09:07:11.169Z</time></trkpt><trkpt lat="45.02831" lon="11.5448633"><ele>5.0</ele><time>2026-03-22T09:07:12.162Z</time></trkpt><trkpt lat="45.028325" lon="11.54495"><ele>5.0</ele><time>2026-03-22T09:07:13.161Z</time></trkpt><trkpt lat="45.02834" lon="11.5450367"><ele>5.0</ele><time>2026-03-22T09:07:14.165Z</time></trkpt><trkpt lat="45.0283517" lon="11.545125"><ele>5.0</ele><time>2026-03-22T09:07:15.201Z</time></trkpt><trkpt lat="45.0283667" lon="11.5452117"><ele>5.0</ele><time>2026-03-22T09:07:16.168Z</time></trkpt><trkpt lat="45.028395" lon="11.5453867"><ele>5.0</ele><time>2026-03-22T09:07:18.177Z</time></trkpt><trkpt lat="45.02841" lon="11.5454783"><ele>5.0</ele><time>2026-03-22T09:07:19.172Z</time></trkpt><trkpt lat="45.028425" lon="11.5455717"><ele>5.0</ele><time>2026-03-22T09:07:20.168Z</time></trkpt><trkpt lat="45.0284383" lon="11.5456617"><ele>5.0</ele><time>2026-03-22T09:07:21.165Z</time></trkpt><trkpt lat="45.0284533" lon="11.5457533"><ele>5.0</ele><time>2026-03-22T09:07:22.16Z</time></trkpt><trkpt lat="45.0284667" lon="11.5458483"><ele>5.0</ele><time>2026-03-22T09:07:23.165Z</time></trkpt><trkpt lat="45.0284817" lon="11.545945"><ele>5.0</ele><time>2026-03-22T09:07:24.15Z</time></trkpt><trkpt lat="45.0284967" lon="11.5460417"><ele>5.0</ele><time>2026-03-22T09:07:25.155Z</time></trkpt><trkpt lat="45.0285133" lon="11.5461333"><ele>5.0</ele><time>2026-03-22T09:07:26.169Z</time></trkpt><trkpt lat="45.02853" lon="11.546225"><ele>5.0</ele><time>2026-03-22T09:07:27.162Z</time></trkpt><trkpt lat="45.028545" lon="11.5463167"><ele>5.0</ele><time>2026-03-22T09:07:28.169Z</time></trkpt><trkpt lat="45.0285733" lon="11.546495"><ele>5.0</ele><time>2026-03-22T09:07:30.16Z</time></trkpt><trkpt lat="45.0285917" lon="11.5465867"><ele>5.0</ele><time>2026-03-22T09:07:31.161Z</time></trkpt><trkpt lat="45.028605" lon="11.5466783"><ele>4.833333333333334</ele><time>2026-03-22T09:07:32.154Z</time></trkpt><trkpt lat="45.0286183" lon="11.54677"><ele>4.666666666666667</ele><time>2026-03-22T09:07:33.156Z</time></trkpt><trkpt lat="45.0286333" lon="11.5468583"><ele>4.5</ele><time>2026-03-22T09:07:34.168Z</time></trkpt><trkpt lat="45.02865" lon="11.54695"><ele>4.333333333333333</ele><time>2026-03-22T09:07:35.17Z</time></trkpt><trkpt lat="45.0286633" lon="11.5470383"><ele>4.166666666666666</ele><time>2026-03-22T09:07:36.161Z</time></trkpt><trkpt lat="45.0286767" lon="11.5471267"><ele>4.0</ele><time>2026-03-22T09:07:37.161Z</time></trkpt><trkpt lat="45.028705" lon="11.5473017"><ele>4.0</ele><time>2026-03-22T09:07:39.167Z</time></trkpt><trkpt lat="45.02872" lon="11.54739"><ele>3.9999999999999996</ele><time>2026-03-22T09:07:40.171Z</time></trkpt><trkpt lat="45.028735" lon="11.5474817"><ele>4.0</ele><time>2026-03-22T09:07:41.158Z</time></trkpt><trkpt lat="45.0287483" lon="11.5475733"><ele>4.0</ele><time>2026-03-22T09:07:42.163Z</time></trkpt><trkpt lat="45.0287583" lon="11.5476633"><ele>3.9999999999999996</ele><time>2026-03-22T09:07:43.168Z</time></trkpt><trkpt lat="45.0287733" lon="11.547755"><ele>4.0</ele><time>2026-03-22T09:07:44.164Z</time></trkpt><trkpt lat="45.0287867" lon="11.5478467"><ele>4.0</ele><time>2026-03-22T09:07:45.168Z</time></trkpt><trkpt lat="45.0288017" lon="11.54794"><ele>4.142857142857142</ele><time>2026-03-22T09:07:46.162Z</time></trkpt><trkpt lat="45.028815" lon="11.54803"><ele>4.285714285714286</ele><time>2026-03-22T09:07:47.168Z</time></trkpt><trkpt lat="45.0288283" lon="11.5481217"><ele>4.428571428571429</ele><time>2026-03-22T09:07:48.162Z</time></trkpt><trkpt lat="45.0288433" lon="11.548215"><ele>4.571428571428571</ele><time>2026-03-22T09:07:49.169Z</time></trkpt><trkpt lat="45.0288583" lon="11.5483067"><ele>4.714285714285714</ele><time>2026-03-22T09:07:50.158Z</time></trkpt><trkpt lat="45.0288733" lon="11.5484"><ele>4.857142857142857</ele><time>2026-03-22T09:07:51.156Z</time></trkpt><trkpt lat="45.0288867" lon="11.5484917"><ele>5.0</ele><time>2026-03-22T09:07:52.16Z</time></trkpt><trkpt lat="45.0289017" lon="11.5485833"><ele>5.0</ele><time>2026-03-22T09:07:53.169Z</time></trkpt><trkpt lat="45.02892" lon="11.54867"><ele>5.0</ele><time>2026-03-22T09:07:54.169Z</time></trkpt><trkpt lat="45.0289367" lon="11.5487567"><ele>5.0</ele><time>2026-03-22T09:07:55.163Z</time></trkpt><trkpt lat="45.028965" lon="11.5489317"><ele>5.0</ele><time>2026-03-22T09:07:57.155Z</time></trkpt><trkpt lat="45.0289783" lon="11.5490217"><ele>5.0</ele><time>2026-03-22T09:07:58.159Z</time></trkpt><trkpt lat="45.0289933" lon="11.549115"><ele>5.0</ele><time>2026-03-22T09:07:59.166Z</time></trkpt><trkpt lat="45.0290067" lon="11.5492083"><ele>4.833333333333334</ele><time>2026-03-22T09:08:00.169Z</time></trkpt><trkpt lat="45.02902" lon="11.5493017"><ele>4.666666666666667</ele><time>2026-03-22T09:08:01.165Z</time></trkpt><trkpt lat="45.0290333" lon="11.5493933"><ele>4.5</ele><time>2026-03-22T09:08:02.166Z</time></trkpt><trkpt lat="45.0290483" lon="11.549485"><ele>4.333333333333333</ele><time>2026-03-22T09:08:03.171Z</time></trkpt><trkpt lat="45.0290617" lon="11.549575"><ele>4.166666666666666</ele><time>2026-03-22T09:08:04.174Z</time></trkpt><trkpt lat="45.0290733" lon="11.549665"><ele>4.0</ele><time>2026-03-22T09:08:05.172Z</time></trkpt><trkpt lat="45.0290933" lon="11.5498383"><ele>4.0</ele><time>2026-03-22T09:08:07.158Z</time></trkpt><trkpt lat="45.0291233" lon="11.5500083"><ele>4.0</ele><time>2026-03-22T09:08:09.163Z</time></trkpt><trkpt lat="45.0291383" lon="11.5500967"><ele>4.0</ele><time>2026-03-22T09:08:10.156Z</time></trkpt><trkpt lat="45.029155" lon="11.5501833"><ele>4.0</ele><time>2026-03-22T09:08:11.163Z</time></trkpt><trkpt lat="45.029185" lon="11.5503433"><ele>4.0</ele><time>2026-03-22T09:08:13.146Z</time></trkpt><trkpt lat="45.029215" lon="11.5505117"><ele>4.5</ele><time>2026-03-22T09:08:15.171Z</time></trkpt><trkpt lat="45.02924" lon="11.5506817"><ele>5.0</ele><time>2026-03-22T09:08:17.162Z</time></trkpt><trkpt lat="45.0292667" lon="11.55085"><ele>5.5</ele><time>2026-03-22T09:08:19.171Z</time></trkpt><trkpt lat="45.0292933" lon="11.5510083"><ele>6.0</ele><time>2026-03-22T09:08:21.149Z</time></trkpt><trkpt lat="45.029315" lon="11.551165"><ele>6.199999999999999</ele><time>2026-03-22T09:08:23.169Z</time></trkpt><trkpt lat="45.029335" lon="11.5513217"><ele>6.3999999999999995</ele><time>2026-03-22T09:08:25.15Z</time></trkpt><trkpt lat="45.02935" lon="11.5514733"><ele>6.6</ele><time>2026-03-22T09:08:27.173Z</time></trkpt><trkpt lat="45.0293583" lon="11.55162"><ele>6.8</ele><time>2026-03-22T09:08:29.139Z</time></trkpt><trkpt lat="45.0293633" lon="11.5517583"><ele>7.0</ele><time>2026-03-22T09:08:31.166Z</time></trkpt><trkpt lat="45.0293633" lon="11.55188"><ele>7.0</ele><time>2026-03-22T09:08:33.162Z</time></trkpt><trkpt lat="45.0293617" lon="11.55199"><ele>6.999999999999999</ele><time>2026-03-22T09:08:35.17Z</time></trkpt><trkpt lat="45.02935" lon="11.5521183"><ele>6.999999999999999</ele><time>2026-03-22T09:08:37.161Z</time></trkpt><trkpt lat="45.0294017" lon="11.552245"><ele>7.0</ele><time>2026-03-22T09:08:39.159Z</time></trkpt><trkpt lat="45.029505" lon="11.5523433"><ele>7.0</ele><time>2026-03-22T09:08:41.166Z</time></trkpt><trkpt lat="45.0296183" lon="11.55242"><ele>7.0</ele><time>2026-03-22T09:08:43.171Z</time></trkpt><trkpt lat="45.0297367" lon="11.5524767"><ele>6.999999999999999</ele><time>2026-03-22T09:08:45.148Z</time></trkpt><trkpt lat="45.0297983" lon="11.5525"><ele>6.999999999999999</ele><time>2026-03-22T09:08:46.165Z</time></trkpt><trkpt lat="45.02992" lon="11.55255"><ele>7.0</ele><time>2026-03-22T09:08:48.155Z</time></trkpt><trkpt lat="45.0300417" lon="11.5525967"><ele>7.0</ele><time>2026-03-22T09:08:50.169Z</time></trkpt><trkpt lat="45.03016" lon="11.552635"><ele>7.199999999999999</ele><time>2026-03-22T09:08:52.171Z</time></trkpt><trkpt lat="45.0302783" lon="11.55265"><ele>7.3999999999999995</ele><time>2026-03-22T09:08:54.171Z</time></trkpt><trkpt lat="45.0304017" lon="11.55264"><ele>7.6000000000000005</ele><time>2026-03-22T09:08:56.172Z</time></trkpt><trkpt lat="45.030465" lon="11.5526367"><ele>7.800000000000001</ele><time>2026-03-22T09:08:57.172Z</time></trkpt><trkpt lat="45.0305833" lon="11.5526467"><ele>8.0</ele><time>2026-03-22T09:08:59.166Z</time></trkpt><trkpt lat="45.03065" lon="11.5526533"><ele>8.0</ele><time>2026-03-22T09:09:00.17Z</time></trkpt><trkpt lat="45.0307183" lon="11.5526617"><ele>7.999999999999999</ele><time>2026-03-22T09:09:01.161Z</time></trkpt><trkpt lat="45.0307833" lon="11.5526783"><ele>8.0</ele><time>2026-03-22T09:09:02.165Z</time></trkpt><trkpt lat="45.0308467" lon="11.5526967"><ele>8.0</ele><time>2026-03-22T09:09:03.166Z</time></trkpt><trkpt lat="45.0309083" lon="11.552725"><ele>7.999999999999999</ele><time>2026-03-22T09:09:04.164Z</time></trkpt><trkpt lat="45.03097" lon="11.5527533"><ele>8.0</ele><time>2026-03-22T09:09:05.169Z</time></trkpt><trkpt lat="45.03103" lon="11.5527833"><ele>8.0</ele><time>2026-03-22T09:09:06.168Z</time></trkpt><trkpt lat="45.0311433" lon="11.5528483"><ele>8.200000000000001</ele><time>2026-03-22T09:09:08.162Z</time></trkpt><trkpt lat="45.0312" lon="11.55289"><ele>8.4</ele><time>2026-03-22T09:09:09.166Z</time></trkpt><trkpt lat="45.0312783" lon="11.5530083"><ele>8.600000000000001</ele><time>2026-03-22T09:09:11.143Z</time></trkpt><trkpt lat="45.0313" lon="11.5531667"><ele>8.8</ele><time>2026-03-22T09:09:13.168Z</time></trkpt><trkpt lat="45.0312733" lon="11.5533333"><ele>9.0</ele><time>2026-03-22T09:09:15.166Z</time></trkpt><trkpt lat="45.0312333" lon="11.553495"><ele>9.0</ele><time>2026-03-22T09:09:17.159Z</time></trkpt><trkpt lat="45.0311917" lon="11.553645"><ele>9.0</ele><time>2026-03-22T09:09:19.167Z</time></trkpt><trkpt lat="45.03115" lon="11.55379"><ele>9.0</ele><time>2026-03-22T09:09:21.167Z</time></trkpt><trkpt lat="45.0311033" lon="11.55394"><ele>9.0</ele><time>2026-03-22T09:09:23.156Z</time></trkpt><trkpt lat="45.03108" lon="11.5540233"><ele>9.0</ele><time>2026-03-22T09:09:24.161Z</time></trkpt><trkpt lat="45.0310317" lon="11.55418"><ele>8.666666666666666</ele><time>2026-03-22T09:09:26.153Z</time></trkpt><trkpt lat="45.030975" lon="11.5543417"><ele>8.333333333333334</ele><time>2026-03-22T09:09:28.164Z</time></trkpt><trkpt lat="45.030945" lon="11.554425"><ele>8.0</ele><time>2026-03-22T09:09:29.163Z</time></trkpt><trkpt lat="45.030915" lon="11.5545117"><ele>7.666666666666667</ele><time>2026-03-22T09:09:30.15Z</time></trkpt><trkpt lat="45.0308867" lon="11.5545983"><ele>7.333333333333334</ele><time>2026-03-22T09:09:31.147Z</time></trkpt><trkpt lat="45.03086" lon="11.5546867"><ele>7.0</ele><time>2026-03-22T09:09:32.163Z</time></trkpt><trkpt lat="45.03083" lon="11.554775"><ele>6.714285714285714</ele><time>2026-03-22T09:09:33.163Z</time></trkpt><trkpt lat="45.0307967" lon="11.5548633"><ele>6.428571428571429</ele><time>2026-03-22T09:09:34.168Z</time></trkpt><trkpt lat="45.0307617" lon="11.5549533"><ele>6.142857142857142</ele><time>2026-03-22T09:09:35.166Z</time></trkpt><trkpt lat="45.030725" lon="11.5550433"><ele>5.857142857142858</ele><time>2026-03-22T09:09:36.137Z</time></trkpt><trkpt lat="45.0306883" lon="11.55513"><ele>5.571428571428571</ele><time>2026-03-22T09:09:37.15Z</time></trkpt><trkpt lat="45.0306533" lon="11.55521"><ele>5.285714285714286</ele><time>2026-03-22T09:09:38.145Z</time></trkpt><trkpt lat="45.0306183" lon="11.5552867"><ele>5.0</ele><time>2026-03-22T09:09:39.156Z</time></trkpt><trkpt lat="45.0305567" lon="11.5554317"><ele>4.8</ele><time>2026-03-22T09:09:41.164Z</time></trkpt><trkpt lat="45.0305033" lon="11.5555767"><ele>4.6</ele><time>2026-03-22T09:09:43.147Z</time></trkpt><trkpt lat="45.030455" lon="11.5557333"><ele>4.4</ele><time>2026-03-22T09:09:45.165Z</time></trkpt><trkpt lat="45.0304167" lon="11.5559033"><ele>4.2</ele><time>2026-03-22T09:09:47.16Z</time></trkpt><trkpt lat="45.0304017" lon="11.5559917"><ele>4.0</ele><time>2026-03-22T09:09:48.164Z</time></trkpt><trkpt lat="45.0303883" lon="11.5560833"><ele>4.0</ele><time>2026-03-22T09:09:49.162Z</time></trkpt><trkpt lat="45.0303783" lon="11.556175"><ele>3.9999999999999996</ele><time>2026-03-22T09:09:50.153Z</time></trkpt><trkpt lat="45.03037" lon="11.5562683"><ele>4.0</ele><time>2026-03-22T09:09:51.155Z</time></trkpt><trkpt lat="45.0303617" lon="11.5563633"><ele>4.0</ele><time>2026-03-22T09:09:52.156Z</time></trkpt><trkpt lat="45.0303533" lon="11.556455"><ele>3.9999999999999996</ele><time>2026-03-22T09:09:53.158Z</time></trkpt><trkpt lat="45.03034" lon="11.556545"><ele>4.0</ele><time>2026-03-22T09:09:54.142Z</time></trkpt><trkpt lat="45.030325" lon="11.5566317"><ele>4.0</ele><time>2026-03-22T09:09:55.155Z</time></trkpt><trkpt lat="45.0302883" lon="11.5567967"><ele>4.0</ele><time>2026-03-22T09:09:57.166Z</time></trkpt><trkpt lat="45.0302567" lon="11.55695"><ele>4.0</ele><time>2026-03-22T09:09:59.165Z</time></trkpt><trkpt lat="45.030225" lon="11.5571083"><ele>4.0</ele><time>2026-03-22T09:10:01.168Z</time></trkpt><trkpt lat="45.0301883" lon="11.557265"><ele>4.0</ele><time>2026-03-22T09:10:03.17Z</time></trkpt><trkpt lat="45.0301533" lon="11.557425"><ele>4.333333333333333</ele><time>2026-03-22T09:10:05.162Z</time></trkpt><trkpt lat="45.030135" lon="11.5575933"><ele>4.666666666666666</ele><time>2026-03-22T09:10:07.173Z</time></trkpt><trkpt lat="45.0301317" lon="11.5577667"><ele>5.0</ele><time>2026-03-22T09:10:09.164Z</time></trkpt><trkpt lat="45.0301367" lon="11.5578567"><ele>5.333333333333333</ele><time>2026-03-22T09:10:10.166Z</time></trkpt><trkpt lat="45.0301417" lon="11.5579517"><ele>5.666666666666667</ele><time>2026-03-22T09:10:11.163Z</time></trkpt><trkpt lat="45.0301467" lon="11.5580433"><ele>6.0</ele><time>2026-03-22T09:10:12.161Z</time></trkpt><trkpt lat="45.03015" lon="11.558135"><ele>5.999999999999999</ele><time>2026-03-22T09:10:13.16Z</time></trkpt><trkpt lat="45.0301533" lon="11.5582283"><ele>6.0</ele><time>2026-03-22T09:10:14.173Z</time></trkpt><trkpt lat="45.0301533" lon="11.5583217"><ele>6.0</ele><time>2026-03-22T09:10:15.149Z</time></trkpt><trkpt lat="45.0301517" lon="11.558415"><ele>6.0</ele><time>2026-03-22T09:10:16.158Z</time></trkpt><trkpt lat="45.0301483" lon="11.5585117"><ele>6.0</ele><time>2026-03-22T09:10:17.162Z</time></trkpt><trkpt lat="45.0301467" lon="11.5586083"><ele>5.999999999999999</ele><time>2026-03-22T09:10:18.172Z</time></trkpt><trkpt lat="45.0301433" lon="11.5587033"><ele>6.0</ele><time>2026-03-22T09:10:19.155Z</time></trkpt><trkpt lat="45.03014" lon="11.5587983"><ele>5.833333333333333</ele><time>2026-03-22T09:10:20.166Z</time></trkpt><trkpt lat="45.03014" lon="11.5588917"><ele>5.666666666666667</ele><time>2026-03-22T09:10:21.168Z</time></trkpt><trkpt lat="45.0301383" lon="11.5589817"><ele>5.5</ele><time>2026-03-22T09:10:22.173Z</time></trkpt><trkpt lat="45.0301367" lon="11.5590717"><ele>5.333333333333334</ele><time>2026-03-22T09:10:23.168Z</time></trkpt><trkpt lat="45.03014" lon="11.55924"><ele>5.166666666666667</ele><time>2026-03-22T09:10:25.17Z</time></trkpt><trkpt lat="45.0301517" lon="11.5594067"><ele>5.0</ele><time>2026-03-22T09:10:27.16Z</time></trkpt><trkpt lat="45.030175" lon="11.5595767"><ele>4.875</ele><time>2026-03-22T09:10:29.157Z</time></trkpt><trkpt lat="45.0301883" lon="11.559665"><ele>4.75</ele><time>2026-03-22T09:10:30.169Z</time></trkpt><trkpt lat="45.0302067" lon="11.5597533"><ele>4.625</ele><time>2026-03-22T09:10:31.165Z</time></trkpt><trkpt lat="45.0302217" lon="11.5598433"><ele>4.5</ele><time>2026-03-22T09:10:32.169Z</time></trkpt><trkpt lat="45.030235" lon="11.5599317"><ele>4.375</ele><time>2026-03-22T09:10:33.164Z</time></trkpt><trkpt lat="45.0302467" lon="11.56002"><ele>4.25</ele><time>2026-03-22T09:10:34.169Z</time></trkpt><trkpt lat="45.0302583" lon="11.5601083"><ele>4.125</ele><time>2026-03-22T09:10:35.164Z</time></trkpt><trkpt lat="45.03027" lon="11.5601967"><ele>4.0</ele><time>2026-03-22T09:10:36.167Z</time></trkpt><trkpt lat="45.0302817" lon="11.5602867"><ele>3.8000000000000003</ele><time>2026-03-22T09:10:37.166Z</time></trkpt><trkpt lat="45.0302917" lon="11.560375"><ele>3.6000000000000005</ele><time>2026-03-22T09:10:38.17Z</time></trkpt><trkpt lat="45.0303133" lon="11.5605467"><ele>3.4</ele><time>2026-03-22T09:10:40.168Z</time></trkpt><trkpt lat="45.0303283" lon="11.5607117"><ele>3.2</ele><time>2026-03-22T09:10:42.161Z</time></trkpt><trkpt lat="45.0303467" lon="11.5608783"><ele>3.0</ele><time>2026-03-22T09:10:44.169Z</time></trkpt><trkpt lat="45.03037" lon="11.5610433"><ele>3.25</ele><time>2026-03-22T09:10:46.159Z</time></trkpt><trkpt lat="45.0303933" lon="11.561205"><ele>3.5</ele><time>2026-03-22T09:10:48.171Z</time></trkpt><trkpt lat="45.0304133" lon="11.5613667"><ele>3.75</ele><time>2026-03-22T09:10:50.15Z</time></trkpt><trkpt lat="45.0304283" lon="11.5615317"><ele>4.0</ele><time>2026-03-22T09:10:52.155Z</time></trkpt><trkpt lat="45.0304367" lon="11.561695"><ele>4.0</ele><time>2026-03-22T09:10:54.169Z</time></trkpt><trkpt lat="45.0304333" lon="11.5618633"><ele>4.0</ele><time>2026-03-22T09:10:56.169Z</time></trkpt><trkpt lat="45.0304267" lon="11.5620283"><ele>4.0</ele><time>2026-03-22T09:10:58.159Z</time></trkpt><trkpt lat="45.0304167" lon="11.5621933"><ele>4.0</ele><time>2026-03-22T09:11:00.169Z</time></trkpt><trkpt lat="45.030415" lon="11.5623617"><ele>3.9999999999999996</ele><time>2026-03-22T09:11:02.172Z</time></trkpt><trkpt lat="45.0304317" lon="11.562535"><ele>4.0</ele><time>2026-03-22T09:11:04.166Z</time></trkpt><trkpt lat="45.0304617" lon="11.5627083"><ele>4.0</ele><time>2026-03-22T09:11:06.168Z</time></trkpt><trkpt lat="45.0304767" lon="11.562795"><ele>4.0</ele><time>2026-03-22T09:11:07.167Z</time></trkpt><trkpt lat="45.03049" lon="11.5628833"><ele>3.9999999999999996</ele><time>2026-03-22T09:11:08.153Z</time></trkpt><trkpt lat="45.030505" lon="11.5629733"><ele>4.0</ele><time>2026-03-22T09:11:09.16Z</time></trkpt><trkpt lat="45.0305183" lon="11.5630617"><ele>4.0</ele><time>2026-03-22T09:11:10.176Z</time></trkpt><trkpt lat="45.0305433" lon="11.5632383"><ele>3.9999999999999996</ele><time>2026-03-22T09:11:12.157Z</time></trkpt><trkpt lat="45.030555" lon="11.5633267"><ele>4.0</ele><time>2026-03-22T09:11:13.169Z</time></trkpt><trkpt lat="45.0305617" lon="11.5634167"><ele>4.0</ele><time>2026-03-22T09:11:14.171Z</time></trkpt><trkpt lat="45.030565" lon="11.5635067"><ele>3.9999999999999996</ele><time>2026-03-22T09:11:15.169Z</time></trkpt><trkpt lat="45.0305667" lon="11.5635983"><ele>4.0</ele><time>2026-03-22T09:11:16.172Z</time></trkpt><trkpt lat="45.0305667" lon="11.56369"><ele>4.0</ele><time>2026-03-22T09:11:17.169Z</time></trkpt><trkpt lat="45.0305667" lon="11.5637817"><ele>4.0</ele><time>2026-03-22T09:11:18.159Z</time></trkpt><trkpt lat="45.0305667" lon="11.5639533"><ele>4.0</ele><time>2026-03-22T09:11:20.157Z</time></trkpt><trkpt lat="45.030565" lon="11.5641133"><ele>4.0</ele><time>2026-03-22T09:11:22.166Z</time></trkpt><trkpt lat="45.0305583" lon="11.564265"><ele>4.0</ele><time>2026-03-22T09:11:24.14Z</time></trkpt><trkpt lat="45.0305483" lon="11.564425"><ele>4.25</ele><time>2026-03-22T09:11:26.171Z</time></trkpt><trkpt lat="45.0305383" lon="11.56459"><ele>4.5</ele><time>2026-03-22T09:11:28.164Z</time></trkpt><trkpt lat="45.0305217" lon="11.564755"><ele>4.75</ele><time>2026-03-22T09:11:30.163Z</time></trkpt><trkpt lat="45.030495" lon="11.5649267"><ele>5.0</ele><time>2026-03-22T09:11:32.175Z</time></trkpt><trkpt lat="45.0304683" lon="11.5651017"><ele>5.0</ele><time>2026-03-22T09:11:34.168Z</time></trkpt><trkpt lat="45.030455" lon="11.56519"><ele>5.0</ele><time>2026-03-22T09:11:35.168Z</time></trkpt><trkpt lat="45.0304317" lon="11.5653567"><ele>5.0</ele><time>2026-03-22T09:11:37.167Z</time></trkpt><trkpt lat="45.030405" lon="11.5655283"><ele>5.0</ele><time>2026-03-22T09:11:39.171Z</time></trkpt><trkpt lat="45.03038" lon="11.5657"><ele>5.0</ele><time>2026-03-22T09:11:41.16Z</time></trkpt><trkpt lat="45.0303633" lon="11.5658733"><ele>5.0</ele><time>2026-03-22T09:11:43.17Z</time></trkpt><trkpt lat="45.030355" lon="11.5660517"><ele>5.0</ele><time>2026-03-22T09:11:45.171Z</time></trkpt><trkpt lat="45.0303567" lon="11.56623"><ele>5.0</ele><time>2026-03-22T09:11:47.157Z</time></trkpt><trkpt lat="45.03036" lon="11.5664067"><ele>5.0</ele><time>2026-03-22T09:11:49.15Z</time></trkpt><trkpt lat="45.030365" lon="11.5665833"><ele>5.0</ele><time>2026-03-22T09:11:51.162Z</time></trkpt><trkpt lat="45.030365" lon="11.5667583"><ele>5.0</ele><time>2026-03-22T09:11:53.141Z</time></trkpt><trkpt lat="45.0303533" lon="11.5669317"><ele>5.0</ele><time>2026-03-22T09:11:55.164Z</time></trkpt><trkpt lat="45.0303383" lon="11.56702"><ele>5.0</ele><time>2026-03-22T09:11:56.136Z</time></trkpt><trkpt lat="45.03032" lon="11.5671067"><ele>5.0</ele><time>2026-03-22T09:11:57.169Z</time></trkpt><trkpt lat="45.030295" lon="11.56719"><ele>5.0</ele><time>2026-03-22T09:11:58.177Z</time></trkpt><trkpt lat="45.03024" lon="11.5673483"><ele>4.75</ele><time>2026-03-22T09:12:00.168Z</time></trkpt><trkpt lat="45.0301667" lon="11.5674883"><ele>4.5</ele><time>2026-03-22T09:12:02.17Z</time></trkpt><trkpt lat="45.0300867" lon="11.56761"><ele>4.25</ele><time>2026-03-22T09:12:04.168Z</time></trkpt><trkpt lat="45.0300017" lon="11.5677283"><ele>4.0</ele><time>2026-03-22T09:12:06.171Z</time></trkpt><trkpt lat="45.0299183" lon="11.56784"><ele>4.2</ele><time>2026-03-22T09:12:08.166Z</time></trkpt><trkpt lat="45.029835" lon="11.5679483"><ele>4.4</ele><time>2026-03-22T09:12:10.167Z</time></trkpt><trkpt lat="45.02975" lon="11.5680617"><ele>4.6</ele><time>2026-03-22T09:12:12.143Z</time></trkpt><trkpt lat="45.02968" lon="11.5681533"><ele>4.8</ele><time>2026-03-22T09:12:14.166Z</time></trkpt><trkpt lat="45.0296167" lon="11.5682283"><ele>5.0</ele><time>2026-03-22T09:12:16.161Z</time></trkpt><trkpt lat="45.02956" lon="11.5683033"><ele>5.0</ele><time>2026-03-22T09:12:18.164Z</time></trkpt><trkpt lat="45.0294983" lon="11.568385"><ele>5.0</ele><time>2026-03-22T09:12:20.148Z</time></trkpt><trkpt lat="45.029435" lon="11.5684667"><ele>5.0</ele><time>2026-03-22T09:12:22.164Z</time></trkpt><trkpt lat="45.02938" lon="11.568555"><ele>5.0</ele><time>2026-03-22T09:12:24.176Z</time></trkpt><trkpt lat="45.0293233" lon="11.5686617"><ele>5.0</ele><time>2026-03-22T09:12:26.161Z</time></trkpt><trkpt lat="45.0292717" lon="11.5687883"><ele>5.2</ele><time>2026-03-22T09:12:28.161Z</time></trkpt><trkpt lat="45.0292283" lon="11.56893"><ele>5.4</ele><time>2026-03-22T09:12:30.169Z</time></trkpt><trkpt lat="45.029205" lon="11.5690817"><ele>5.6</ele><time>2026-03-22T09:12:32.178Z</time></trkpt><trkpt lat="45.029205" lon="11.569235"><ele>5.8</ele><time>2026-03-22T09:12:34.166Z</time></trkpt><trkpt lat="45.0292217" lon="11.5693833"><ele>6.0</ele><time>2026-03-22T09:12:36.158Z</time></trkpt><trkpt lat="45.029255" lon="11.5695283"><ele>6.0</ele><time>2026-03-22T09:12:38.163Z</time></trkpt><trkpt lat="45.029305" lon="11.5696617"><ele>6.0</ele><time>2026-03-22T09:12:40.173Z</time></trkpt><trkpt lat="45.0293667" lon="11.569785"><ele>6.0</ele><time>2026-03-22T09:12:42.168Z</time></trkpt><trkpt lat="45.0294367" lon="11.56989"><ele>6.0</ele><time>2026-03-22T09:12:44.173Z</time></trkpt><trkpt lat="45.02951" lon="11.5699767"><ele>6.0</ele><time>2026-03-22T09:12:46.171Z</time></trkpt><trkpt lat="45.0295933" lon="11.5700567"><ele>6.0</ele><time>2026-03-22T09:12:48.164Z</time></trkpt><trkpt lat="45.0296833" lon="11.5701333"><ele>6.0</ele><time>2026-03-22T09:12:50.16Z</time></trkpt><trkpt lat="45.0297733" lon="11.5702133"><ele>6.0</ele><time>2026-03-22T09:12:52.162Z</time></trkpt><trkpt lat="45.0298667" lon="11.5702833"><ele>6.0</ele><time>2026-03-22T09:12:54.143Z</time></trkpt><trkpt lat="45.0299533" lon="11.57035"><ele>6.0</ele><time>2026-03-22T09:12:56.167Z</time></trkpt><trkpt lat="45.0300367" lon="11.5704233"><ele>6.0</ele><time>2026-03-22T09:12:58.161Z</time></trkpt><trkpt lat="45.0301183" lon="11.5705183"><ele>6.0</ele><time>2026-03-22T09:13:00.161Z</time></trkpt><trkpt lat="45.0302283" lon="11.5707117"><ele>6.0</ele><time>2026-03-22T09:13:03.169Z</time></trkpt><trkpt lat="45.0302833" lon="11.5708733"><ele>6.0</ele><time>2026-03-22T09:13:05.144Z</time></trkpt><trkpt lat="45.0303133" lon="11.57105"><ele>5.999999999999999</ele><time>2026-03-22T09:13:07.171Z</time></trkpt><trkpt lat="45.0303217" lon="11.5711433"><ele>6.0</ele><time>2026-03-22T09:13:08.169Z</time></trkpt><trkpt lat="45.0303233" lon="11.5712383"><ele>6.0</ele><time>2026-03-22T09:13:09.171Z</time></trkpt><trkpt lat="45.0303167" lon="11.5713367"><ele>6.0</ele><time>2026-03-22T09:13:10.169Z</time></trkpt><trkpt lat="45.0303067" lon="11.57144"><ele>6.0</ele><time>2026-03-22T09:13:11.152Z</time></trkpt><trkpt lat="45.0302917" lon="11.5715433"><ele>5.999999999999999</ele><time>2026-03-22T09:13:12.176Z</time></trkpt><trkpt lat="45.0302733" lon="11.5716467"><ele>6.0</ele><time>2026-03-22T09:13:13.171Z</time></trkpt><trkpt lat="45.0302533" lon="11.5717483"><ele>5.857142857142857</ele><time>2026-03-22T09:13:14.17Z</time></trkpt><trkpt lat="45.030235" lon="11.5718467"><ele>5.714285714285714</ele><time>2026-03-22T09:13:15.169Z</time></trkpt><trkpt lat="45.030215" lon="11.5719383"><ele>5.571428571428571</ele><time>2026-03-22T09:13:16.166Z</time></trkpt><trkpt lat="45.0301933" lon="11.5720333"><ele>5.428571428571429</ele><time>2026-03-22T09:13:17.148Z</time></trkpt><trkpt lat="45.0301717" lon="11.5721283"><ele>5.285714285714286</ele><time>2026-03-22T09:13:18.155Z</time></trkpt><trkpt lat="45.0301483" lon="11.5722217"><ele>5.142857142857142</ele><time>2026-03-22T09:13:19.164Z</time></trkpt><trkpt lat="45.0301233" lon="11.5723167"><ele>5.0</ele><time>2026-03-22T09:13:20.165Z</time></trkpt><trkpt lat="45.0300983" lon="11.5724117"><ele>4.833333333333334</ele><time>2026-03-22T09:13:21.166Z</time></trkpt><trkpt lat="45.030075" lon="11.5725017"><ele>4.666666666666667</ele><time>2026-03-22T09:13:22.165Z</time></trkpt><trkpt lat="45.0300517" lon="11.5725867"><ele>4.5</ele><time>2026-03-22T09:13:23.167Z</time></trkpt><trkpt lat="45.0300117" lon="11.572735"><ele>4.333333333333333</ele><time>2026-03-22T09:13:25.169Z</time></trkpt><trkpt lat="45.02997" lon="11.57286"><ele>4.166666666666666</ele><time>2026-03-22T09:13:27.149Z</time></trkpt><trkpt lat="45.0299233" lon="11.5729817"><ele>4.0</ele><time>2026-03-22T09:13:29.164Z</time></trkpt><trkpt lat="45.0298733" lon="11.5731117"><ele>4.0</ele><time>2026-03-22T09:13:31.153Z</time></trkpt><trkpt lat="45.0298233" lon="11.5732367"><ele>4.0</ele><time>2026-03-22T09:13:33.162Z</time></trkpt><trkpt lat="45.0297683" lon="11.5733567"><ele>4.0</ele><time>2026-03-22T09:13:35.168Z</time></trkpt><trkpt lat="45.0297117" lon="11.5734767"><ele>4.0</ele><time>2026-03-22T09:13:37.136Z</time></trkpt><trkpt lat="45.0296533" lon="11.5735917"><ele>4.0</ele><time>2026-03-22T09:13:39.168Z</time></trkpt><trkpt lat="45.0295983" lon="11.5737083"><ele>4.25</ele><time>2026-03-22T09:13:41.173Z</time></trkpt><trkpt lat="45.0295433" lon="11.5738283"><ele>4.5</ele><time>2026-03-22T09:13:43.167Z</time></trkpt><trkpt lat="45.029475" lon="11.5739617"><ele>4.75</ele><time>2026-03-22T09:13:45.166Z</time></trkpt><trkpt lat="45.0294033" lon="11.5741"><ele>5.0</ele><time>2026-03-22T09:13:47.152Z</time></trkpt><trkpt lat="45.0293317" lon="11.5742383"><ele>5.0</ele><time>2026-03-22T09:13:49.163Z</time></trkpt><trkpt lat="45.0292917" lon="11.5743083"><ele>5.0</ele><time>2026-03-22T09:13:50.152Z</time></trkpt><trkpt lat="45.0292533" lon="11.5743817"><ele>5.0</ele><time>2026-03-22T09:13:51.163Z</time></trkpt><trkpt lat="45.0291817" lon="11.57453"><ele>5.0</ele><time>2026-03-22T09:13:53.161Z</time></trkpt><trkpt lat="45.0291467" lon="11.574605"><ele>5.0</ele><time>2026-03-22T09:13:54.17Z</time></trkpt><trkpt lat="45.0291133" lon="11.5746817"><ele>5.0</ele><time>2026-03-22T09:13:55.159Z</time></trkpt><trkpt lat="45.0290783" lon="11.5747567"><ele>5.0</ele><time>2026-03-22T09:13:56.17Z</time></trkpt><trkpt lat="45.0290133" lon="11.5749033"><ele>5.25</ele><time>2026-03-22T09:13:58.166Z</time></trkpt><trkpt lat="45.02895" lon="11.57505"><ele>5.5</ele><time>2026-03-22T09:14:00.17Z</time></trkpt><trkpt lat="45.02889" lon="11.5751833"><ele>5.75</ele><time>2026-03-22T09:14:02.153Z</time></trkpt><trkpt lat="45.02883" lon="11.575315"><ele>6.0</ele><time>2026-03-22T09:14:04.164Z</time></trkpt><trkpt lat="45.028765" lon="11.5754533"><ele>5.6</ele><time>2026-03-22T09:14:06.165Z</time></trkpt><trkpt lat="45.0287117" lon="11.5755983"><ele>5.199999999999999</ele><time>2026-03-22T09:14:08.166Z</time></trkpt><trkpt lat="45.0286667" lon="11.5757417"><ele>4.800000000000001</ele><time>2026-03-22T09:14:10.162Z</time></trkpt><trkpt lat="45.0286317" lon="11.5758733"><ele>4.4</ele><time>2026-03-22T09:14:12.167Z</time></trkpt><trkpt lat="45.0286083" lon="11.5759617"><ele>4.0</ele><time>2026-03-22T09:14:14.142Z</time></trkpt><trkpt lat="45.02858" lon="11.5760467"><ele>3.9999999999999996</ele><time>2026-03-22T09:14:16.17Z</time></trkpt><trkpt lat="45.02854" lon="11.5761317"><ele>4.0</ele><time>2026-03-22T09:14:18.15Z</time></trkpt><trkpt lat="45.0284883" lon="11.5762033"><ele>4.0</ele><time>2026-03-22T09:14:20.165Z</time></trkpt><trkpt lat="45.0284233" lon="11.5762767"><ele>4.0</ele><time>2026-03-22T09:14:22.17Z</time></trkpt><trkpt lat="45.0283467" lon="11.5763483"><ele>3.9999999999999996</ele><time>2026-03-22T09:14:24.169Z</time></trkpt><trkpt lat="45.02829" lon="11.5764483"><ele>4.0</ele><time>2026-03-22T09:14:26.169Z</time></trkpt><trkpt lat="45.0282833" lon="11.5765933"><ele>4.0</ele><time>2026-03-22T09:14:28.167Z</time></trkpt><trkpt lat="45.028305" lon="11.57675"><ele>4.0</ele><time>2026-03-22T09:14:30.164Z</time></trkpt><trkpt lat="45.02832" lon="11.5769033"><ele>4.0</ele><time>2026-03-22T09:14:32.17Z</time></trkpt><trkpt lat="45.0283183" lon="11.5770517"><ele>4.0</ele><time>2026-03-22T09:14:34.159Z</time></trkpt><trkpt lat="45.0283083" lon="11.5771983"><ele>4.0</ele><time>2026-03-22T09:14:36.168Z</time></trkpt><trkpt lat="45.0282883" lon="11.577355"><ele>4.2</ele><time>2026-03-22T09:14:38.157Z</time></trkpt><trkpt lat="45.028265" lon="11.577525"><ele>4.4</ele><time>2026-03-22T09:14:40.164Z</time></trkpt><trkpt lat="45.0282533" lon="11.5776133"><ele>4.6</ele><time>2026-03-22T09:14:41.174Z</time></trkpt><trkpt lat="45.0282383" lon="11.5777"><ele>4.8</ele><time>2026-03-22T09:14:42.166Z</time></trkpt><trkpt lat="45.0282067" lon="11.5778583"><ele>5.0</ele><time>2026-03-22T09:14:44.169Z</time></trkpt><trkpt lat="45.0281633" lon="11.5780033"><ele>5.0</ele><time>2026-03-22T09:14:46.163Z</time></trkpt><trkpt lat="45.02811" lon="11.5781567"><ele>5.0</ele><time>2026-03-22T09:14:48.163Z</time></trkpt><trkpt lat="45.0280833" lon="11.5782383"><ele>5.0</ele><time>2026-03-22T09:14:49.154Z</time></trkpt><trkpt lat="45.028055" lon="11.5783217"><ele>5.0</ele><time>2026-03-22T09:14:50.169Z</time></trkpt><trkpt lat="45.0280283" lon="11.5784033"><ele>5.0</ele><time>2026-03-22T09:14:51.135Z</time></trkpt><trkpt lat="45.0280017" lon="11.578485"><ele>5.0</ele><time>2026-03-22T09:14:52.164Z</time></trkpt><trkpt lat="45.0279617" lon="11.5786517"><ele>5.25</ele><time>2026-03-22T09:14:54.173Z</time></trkpt><trkpt lat="45.027935" lon="11.5788183"><ele>5.5</ele><time>2026-03-22T09:14:56.168Z</time></trkpt><trkpt lat="45.027915" lon="11.5789833"><ele>5.75</ele><time>2026-03-22T09:14:58.15Z</time></trkpt><trkpt lat="45.0279" lon="11.5791417"><ele>6.0</ele><time>2026-03-22T09:15:00.17Z</time></trkpt><trkpt lat="45.0278817" lon="11.5792917"><ele>6.0</ele><time>2026-03-22T09:15:02.169Z</time></trkpt><trkpt lat="45.0278583" lon="11.5794467"><ele>6.0</ele><time>2026-03-22T09:15:04.151Z</time></trkpt><trkpt lat="45.0278317" lon="11.5796033"><ele>6.0</ele><time>2026-03-22T09:15:06.171Z</time></trkpt><trkpt lat="45.0278" lon="11.5797667"><ele>6.0</ele><time>2026-03-22T09:15:08.16Z</time></trkpt><trkpt lat="45.0277667" lon="11.57993"><ele>6.0</ele><time>2026-03-22T09:15:10.168Z</time></trkpt><trkpt lat="45.0277367" lon="11.5800967"><ele>6.0</ele><time>2026-03-22T09:15:12.153Z</time></trkpt><trkpt lat="45.027705" lon="11.5802567"><ele>6.0</ele><time>2026-03-22T09:15:14.144Z</time></trkpt><trkpt lat="45.0276783" lon="11.5804267"><ele>6.0</ele><time>2026-03-22T09:15:16.154Z</time></trkpt><trkpt lat="45.0276617" lon="11.580595"><ele>6.0</ele><time>2026-03-22T09:15:18.151Z</time></trkpt><trkpt lat="45.0276483" lon="11.580755"><ele>6.0</ele><time>2026-03-22T09:15:20.165Z</time></trkpt><trkpt lat="45.027625" lon="11.5809217"><ele>6.0</ele><time>2026-03-22T09:15:22.16Z</time></trkpt><trkpt lat="45.0275983" lon="11.5810917"><ele>6.0</ele><time>2026-03-22T09:15:24.165Z</time></trkpt><trkpt lat="45.0275817" lon="11.58118"><ele>6.0</ele><time>2026-03-22T09:15:25.144Z</time></trkpt><trkpt lat="45.0275633" lon="11.5812667"><ele>5.999999999999999</ele><time>2026-03-22T09:15:26.158Z</time></trkpt><trkpt lat="45.0275433" lon="11.5813533"><ele>6.0</ele><time>2026-03-22T09:15:27.173Z</time></trkpt><trkpt lat="45.0275217" lon="11.58144"><ele>6.0</ele><time>2026-03-22T09:15:28.165Z</time></trkpt><trkpt lat="45.0275" lon="11.581525"><ele>6.0</ele><time>2026-03-22T09:15:29.167Z</time></trkpt><trkpt lat="45.0274767" lon="11.5816117"><ele>6.0</ele><time>2026-03-22T09:15:30.171Z</time></trkpt><trkpt lat="45.0274533" lon="11.5816967"><ele>5.999999999999999</ele><time>2026-03-22T09:15:31.17Z</time></trkpt><trkpt lat="45.0274283" lon="11.58178"><ele>6.0</ele><time>2026-03-22T09:15:32.169Z</time></trkpt><trkpt lat="45.027405" lon="11.581865"><ele>5.857142857142857</ele><time>2026-03-22T09:15:33.141Z</time></trkpt><trkpt lat="45.0273867" lon="11.5819517"><ele>5.714285714285714</ele><time>2026-03-22T09:15:34.139Z</time></trkpt><trkpt lat="45.027375" lon="11.58204"><ele>5.571428571428571</ele><time>2026-03-22T09:15:35.144Z</time></trkpt><trkpt lat="45.0273667" lon="11.5821283"><ele>5.428571428571429</ele><time>2026-03-22T09:15:36.158Z</time></trkpt><trkpt lat="45.0273633" lon="11.5822183"><ele>5.285714285714286</ele><time>2026-03-22T09:15:37.158Z</time></trkpt><trkpt lat="45.02736" lon="11.5823117"><ele>5.142857142857142</ele><time>2026-03-22T09:15:38.171Z</time></trkpt><trkpt lat="45.0273633" lon="11.5824867"><ele>5.0</ele><time>2026-03-22T09:15:40.169Z</time></trkpt><trkpt lat="45.027375" lon="11.5826617"><ele>4.833333333333334</ele><time>2026-03-22T09:15:42.168Z</time></trkpt><trkpt lat="45.02738" lon="11.5827517"><ele>4.666666666666667</ele><time>2026-03-22T09:15:43.17Z</time></trkpt><trkpt lat="45.0273867" lon="11.5828417"><ele>4.5</ele><time>2026-03-22T09:15:44.141Z</time></trkpt><trkpt lat="45.02739" lon="11.5829333"><ele>4.333333333333333</ele><time>2026-03-22T09:15:45.172Z</time></trkpt><trkpt lat="45.027395" lon="11.583025"><ele>4.166666666666666</ele><time>2026-03-22T09:15:46.162Z</time></trkpt><trkpt lat="45.0274" lon="11.5831967"><ele>4.0</ele><time>2026-03-22T09:15:48.166Z</time></trkpt><trkpt lat="45.0274033" lon="11.5833583"><ele>3.8000000000000003</ele><time>2026-03-22T09:15:50.167Z</time></trkpt><trkpt lat="45.0274133" lon="11.5835083"><ele>3.6000000000000005</ele><time>2026-03-22T09:15:52.145Z</time></trkpt><trkpt lat="45.0274217" lon="11.5836383"><ele>3.4</ele><time>2026-03-22T09:15:54.16Z</time></trkpt><trkpt lat="45.0274233" lon="11.5837633"><ele>3.2</ele><time>2026-03-22T09:15:56.155Z</time></trkpt><trkpt lat="45.0274217" lon="11.583895"><ele>3.0</ele><time>2026-03-22T09:15:58.163Z</time></trkpt><trkpt lat="45.0274167" lon="11.5840383"><ele>3.5</ele><time>2026-03-22T09:16:00.167Z</time></trkpt><trkpt lat="45.02741" lon="11.5841883"><ele>4.0</ele><time>2026-03-22T09:16:02.165Z</time></trkpt><trkpt lat="45.0274017" lon="11.5843483"><ele>4.5</ele><time>2026-03-22T09:16:04.167Z</time></trkpt><trkpt lat="45.02739" lon="11.584515"><ele>5.0</ele><time>2026-03-22T09:16:06.136Z</time></trkpt><trkpt lat="45.0273817" lon="11.58469"><ele>5.0</ele><time>2026-03-22T09:16:08.156Z</time></trkpt><trkpt lat="45.0273767" lon="11.584865"><ele>5.0</ele><time>2026-03-22T09:16:10.167Z</time></trkpt><trkpt lat="45.0273717" lon="11.584955"><ele>5.0</ele><time>2026-03-22T09:16:11.173Z</time></trkpt><trkpt lat="45.0273667" lon="11.5851333"><ele>5.0</ele><time>2026-03-22T09:16:13.169Z</time></trkpt><trkpt lat="45.0273667" lon="11.5852233"><ele>5.0</ele><time>2026-03-22T09:16:14.161Z</time></trkpt><trkpt lat="45.0273667" lon="11.5853133"><ele>5.0</ele><time>2026-03-22T09:16:15.167Z</time></trkpt><trkpt lat="45.0273733" lon="11.585485"><ele>5.0</ele><time>2026-03-22T09:16:17.156Z</time></trkpt><trkpt lat="45.0273833" lon="11.5856433"><ele>5.0</ele><time>2026-03-22T09:16:19.168Z</time></trkpt><trkpt lat="45.0273983" lon="11.5857967"><ele>5.0</ele><time>2026-03-22T09:16:21.161Z</time></trkpt><trkpt lat="45.0274117" lon="11.5859433"><ele>5.0</ele><time>2026-03-22T09:16:23.163Z</time></trkpt><trkpt lat="45.0274333" lon="11.5860867"><ele>5.0</ele><time>2026-03-22T09:16:25.164Z</time></trkpt><trkpt lat="45.0274583" lon="11.5862417"><ele>5.2</ele><time>2026-03-22T09:16:27.158Z</time></trkpt><trkpt lat="45.0274883" lon="11.5864"><ele>5.4</ele><time>2026-03-22T09:16:29.171Z</time></trkpt><trkpt lat="45.027515" lon="11.5865567"><ele>5.6</ele><time>2026-03-22T09:16:31.176Z</time></trkpt><trkpt lat="45.02754" lon="11.5867083"><ele>5.8</ele><time>2026-03-22T09:16:33.173Z</time></trkpt><trkpt lat="45.02757" lon="11.586855"><ele>6.0</ele><time>2026-03-22T09:16:35.162Z</time></trkpt><trkpt lat="45.027595" lon="11.587005"><ele>6.0</ele><time>2026-03-22T09:16:37.161Z</time></trkpt><trkpt lat="45.027625" lon="11.5871533"><ele>6.0</ele><time>2026-03-22T09:16:39.16Z</time></trkpt><trkpt lat="45.0276533" lon="11.5872967"><ele>6.0</ele><time>2026-03-22T09:16:41.168Z</time></trkpt><trkpt lat="45.0276817" lon="11.5874233"><ele>6.0</ele><time>2026-03-22T09:16:43.157Z</time></trkpt><trkpt lat="45.0277067" lon="11.5875467"><ele>6.0</ele><time>2026-03-22T09:16:45.169Z</time></trkpt><trkpt lat="45.0277317" lon="11.58767"><ele>6.0</ele><time>2026-03-22T09:16:47.163Z</time></trkpt><trkpt lat="45.027755" lon="11.587795"><ele>6.0</ele><time>2026-03-22T09:16:49.163Z</time></trkpt><trkpt lat="45.0277717" lon="11.58792"><ele>6.0</ele><time>2026-03-22T09:16:51.159Z</time></trkpt><trkpt lat="45.0277967" lon="11.5880533"><ele>6.0</ele><time>2026-03-22T09:16:53.157Z</time></trkpt><trkpt lat="45.0278283" lon="11.5881917"><ele>6.0</ele><time>2026-03-22T09:16:55.163Z</time></trkpt><trkpt lat="45.0278533" lon="11.5883317"><ele>6.0</ele><time>2026-03-22T09:16:57.164Z</time></trkpt><trkpt lat="45.0278767" lon="11.58847"><ele>6.0</ele><time>2026-03-22T09:16:59.161Z</time></trkpt><trkpt lat="45.027905" lon="11.5886183"><ele>6.0</ele><time>2026-03-22T09:17:01.173Z</time></trkpt><trkpt lat="45.0279333" lon="11.5887733"><ele>6.0</ele><time>2026-03-22T09:17:03.167Z</time></trkpt><trkpt lat="45.0279517" lon="11.588925"><ele>6.0</ele><time>2026-03-22T09:17:05.165Z</time></trkpt><trkpt lat="45.027955" lon="11.5890717"><ele>6.5</ele><time>2026-03-22T09:17:07.161Z</time></trkpt><trkpt lat="45.02795" lon="11.5892367"><ele>7.0</ele><time>2026-03-22T09:17:09.168Z</time></trkpt><trkpt lat="45.0279367" lon="11.5893967"><ele>7.5</ele><time>2026-03-22T09:17:11.167Z</time></trkpt><trkpt lat="45.0279217" lon="11.5895533"><ele>8.0</ele><time>2026-03-22T09:17:13.167Z</time></trkpt><trkpt lat="45.0278933" lon="11.5897117"><ele>8.0</ele><time>2026-03-22T09:17:15.163Z</time></trkpt><trkpt lat="45.0278667" lon="11.5898617"><ele>8.0</ele><time>2026-03-22T09:17:17.159Z</time></trkpt><trkpt lat="45.0278517" lon="11.5900067"><ele>8.0</ele><time>2026-03-22T09:17:19.164Z</time></trkpt><trkpt lat="45.0278483" lon="11.590165"><ele>8.0</ele><time>2026-03-22T09:17:21.166Z</time></trkpt><trkpt lat="45.0278417" lon="11.5903267"><ele>8.0</ele><time>2026-03-22T09:17:23.167Z</time></trkpt><trkpt lat="45.02784" lon="11.5904883"><ele>7.6000000000000005</ele><time>2026-03-22T09:17:25.161Z</time></trkpt><trkpt lat="45.02784" lon="11.5906567"><ele>7.200000000000001</ele><time>2026-03-22T09:17:27.169Z</time></trkpt><trkpt lat="45.0278367" lon="11.59083"><ele>6.8</ele><time>2026-03-22T09:17:29.165Z</time></trkpt><trkpt lat="45.02783" lon="11.5910033"><ele>6.4</ele><time>2026-03-22T09:17:31.157Z</time></trkpt><trkpt lat="45.027825" lon="11.5910933"><ele>6.0</ele><time>2026-03-22T09:17:32.162Z</time></trkpt><trkpt lat="45.02782" lon="11.5911833"><ele>5.999999999999999</ele><time>2026-03-22T09:17:33.163Z</time></trkpt><trkpt lat="45.0278183" lon="11.5912767"><ele>6.0</ele><time>2026-03-22T09:17:34.162Z</time></trkpt><trkpt lat="45.0278167" lon="11.59137"><ele>6.0</ele><time>2026-03-22T09:17:35.162Z</time></trkpt><trkpt lat="45.0278133" lon="11.5914633"><ele>6.0</ele><time>2026-03-22T09:17:36.147Z</time></trkpt><trkpt lat="45.02781" lon="11.5915567"><ele>6.0</ele><time>2026-03-22T09:17:37.162Z</time></trkpt><trkpt lat="45.027805" lon="11.59165"><ele>5.999999999999999</ele><time>2026-03-22T09:17:38.164Z</time></trkpt><trkpt lat="45.0278017" lon="11.5917433"><ele>6.0</ele><time>2026-03-22T09:17:39.161Z</time></trkpt><trkpt lat="45.0278" lon="11.5918383"><ele>5.999999999999999</ele><time>2026-03-22T09:17:40.163Z</time></trkpt><trkpt lat="45.0277983" lon="11.5919367"><ele>6.0</ele><time>2026-03-22T09:17:41.16Z</time></trkpt><trkpt lat="45.027795" lon="11.5920333"><ele>6.0</ele><time>2026-03-22T09:17:42.168Z</time></trkpt><trkpt lat="45.0277933" lon="11.5921317"><ele>6.0</ele><time>2026-03-22T09:17:43.156Z</time></trkpt><trkpt lat="45.0277917" lon="11.5922317"><ele>6.0</ele><time>2026-03-22T09:17:44.166Z</time></trkpt><trkpt lat="45.0277883" lon="11.5923317"><ele>5.999999999999999</ele><time>2026-03-22T09:17:45.167Z</time></trkpt><trkpt lat="45.027785" lon="11.5924317"><ele>6.0</ele><time>2026-03-22T09:17:46.164Z</time></trkpt><trkpt lat="45.0277817" lon="11.5925333"><ele>5.999999999999999</ele><time>2026-03-22T09:17:47.167Z</time></trkpt><trkpt lat="45.0277783" lon="11.5926333"><ele>6.0</ele><time>2026-03-22T09:17:48.164Z</time></trkpt><trkpt lat="45.027775" lon="11.5927317"><ele>6.0</ele><time>2026-03-22T09:17:49.165Z</time></trkpt><trkpt lat="45.02777" lon="11.5928317"><ele>6.0</ele><time>2026-03-22T09:17:50.168Z</time></trkpt><trkpt lat="45.0277667" lon="11.5929317"><ele>6.0</ele><time>2026-03-22T09:17:51.157Z</time></trkpt><trkpt lat="45.0277633" lon="11.5930283"><ele>5.999999999999999</ele><time>2026-03-22T09:17:52.156Z</time></trkpt><trkpt lat="45.0277617" lon="11.5931233"><ele>6.0</ele><time>2026-03-22T09:17:53.133Z</time></trkpt><trkpt lat="45.02776" lon="11.5932167"><ele>5.8</ele><time>2026-03-22T09:17:54.156Z</time></trkpt><trkpt lat="45.0277583" lon="11.5933083"><ele>5.6</ele><time>2026-03-22T09:17:55.173Z</time></trkpt><trkpt lat="45.0277583" lon="11.5934817"><ele>5.4</ele><time>2026-03-22T09:17:57.156Z</time></trkpt><trkpt lat="45.027755" lon="11.5936483"><ele>5.2</ele><time>2026-03-22T09:17:59.158Z</time></trkpt><trkpt lat="45.0277617" lon="11.5937967"><ele>5.0</ele><time>2026-03-22T09:18:01.173Z</time></trkpt><trkpt lat="45.0278167" lon="11.5939233"><ele>5.0</ele><time>2026-03-22T09:18:03.169Z</time></trkpt><trkpt lat="45.0279183" lon="11.593985"><ele>5.0</ele><time>2026-03-22T09:18:05.161Z</time></trkpt><trkpt lat="45.0280317" lon="11.5940033"><ele>5.0</ele><time>2026-03-22T09:18:07.16Z</time></trkpt><trkpt lat="45.0281383" lon="11.5940067"><ele>5.0</ele><time>2026-03-22T09:18:09.171Z</time></trkpt><trkpt lat="45.0282317" lon="11.5940083"><ele>5.0</ele><time>2026-03-22T09:18:11.167Z</time></trkpt><trkpt lat="45.028325" lon="11.5940133"><ele>4.8</ele><time>2026-03-22T09:18:13.165Z</time></trkpt><trkpt lat="45.028425" lon="11.594015"><ele>4.6</ele><time>2026-03-22T09:18:15.16Z</time></trkpt><trkpt lat="45.02853" lon="11.5940267"><ele>4.4</ele><time>2026-03-22T09:18:17.167Z</time></trkpt><trkpt lat="45.02864" lon="11.594035"><ele>4.2</ele><time>2026-03-22T09:18:19.169Z</time></trkpt><trkpt lat="45.0287517" lon="11.5940417"><ele>4.0</ele><time>2026-03-22T09:18:21.166Z</time></trkpt><trkpt lat="45.02886" lon="11.59405"><ele>4.0</ele><time>2026-03-22T09:18:23.147Z</time></trkpt><trkpt lat="45.02897" lon="11.59406"><ele>4.0</ele><time>2026-03-22T09:18:25.165Z</time></trkpt><trkpt lat="45.0290817" lon="11.594065"><ele>4.0</ele><time>2026-03-22T09:18:27.164Z</time></trkpt><trkpt lat="45.029195" lon="11.5940767"><ele>4.0</ele><time>2026-03-22T09:18:29.163Z</time></trkpt><trkpt lat="45.0293067" lon="11.594085"><ele>4.0</ele><time>2026-03-22T09:18:31.165Z</time></trkpt><trkpt lat="45.02942" lon="11.5940983"><ele>4.2</ele><time>2026-03-22T09:18:33.168Z</time></trkpt><trkpt lat="45.0295317" lon="11.5941133"><ele>4.4</ele><time>2026-03-22T09:18:35.165Z</time></trkpt><trkpt lat="45.029645" lon="11.5941317"><ele>4.6</ele><time>2026-03-22T09:18:37.167Z</time></trkpt><trkpt lat="45.029755" lon="11.5941433"><ele>4.8</ele><time>2026-03-22T09:18:39.159Z</time></trkpt><trkpt lat="45.0298633" lon="11.5941517"><ele>5.0</ele><time>2026-03-22T09:18:41.169Z</time></trkpt><trkpt lat="45.02997" lon="11.5941633"><ele>5.333333333333334</ele><time>2026-03-22T09:18:43.164Z</time></trkpt><trkpt lat="45.0300717" lon="11.594175"><ele>5.666666666666667</ele><time>2026-03-22T09:18:45.156Z</time></trkpt><trkpt lat="45.03016" lon="11.5941917"><ele>6.0</ele><time>2026-03-22T09:18:47.166Z</time></trkpt><trkpt lat="45.03025" lon="11.5941983"><ele>6.333333333333334</ele><time>2026-03-22T09:18:49.153Z</time></trkpt><trkpt lat="45.0303333" lon="11.5942017"><ele>6.666666666666667</ele><time>2026-03-22T09:18:51.163Z</time></trkpt><trkpt lat="45.0304083" lon="11.5942083"><ele>7.0</ele><time>2026-03-22T09:18:53.159Z</time></trkpt><trkpt lat="45.0304767" lon="11.5942333"><ele>7.000000000000001</ele><time>2026-03-22T09:18:55.136Z</time></trkpt><trkpt lat="45.03054" lon="11.5943317"><ele>7.0</ele><time>2026-03-22T09:18:57.159Z</time></trkpt><trkpt lat="45.0306067" lon="11.594465"><ele>7.0</ele><time>2026-03-22T09:18:59.133Z</time></trkpt><trkpt lat="45.030645" lon="11.5945417"><ele>7.0</ele><time>2026-03-22T09:19:00.155Z</time></trkpt><trkpt lat="45.0306817" lon="11.5946217"><ele>7.000000000000001</ele><time>2026-03-22T09:19:01.163Z</time></trkpt><trkpt lat="45.03072" lon="11.5946983"><ele>7.0</ele><time>2026-03-22T09:19:02.166Z</time></trkpt><trkpt lat="45.030755" lon="11.594775"><ele>7.0</ele><time>2026-03-22T09:19:03.165Z</time></trkpt><trkpt lat="45.0307917" lon="11.5948517"><ele>7.0</ele><time>2026-03-22T09:19:04.163Z</time></trkpt><trkpt lat="45.0308267" lon="11.59493"><ele>7.0</ele><time>2026-03-22T09:19:05.164Z</time></trkpt><trkpt lat="45.0308633" lon="11.5950117"><ele>7.0</ele><time>2026-03-22T09:19:06.164Z</time></trkpt><trkpt lat="45.0309" lon="11.5950967"><ele>7.0</ele><time>2026-03-22T09:19:07.157Z</time></trkpt><trkpt lat="45.030935" lon="11.59518"><ele>7.0</ele><time>2026-03-22T09:19:08.168Z</time></trkpt><trkpt lat="45.0309683" lon="11.595265"><ele>7.0</ele><time>2026-03-22T09:19:09.168Z</time></trkpt><trkpt lat="45.0310033" lon="11.5953517"><ele>7.0</ele><time>2026-03-22T09:19:10.169Z</time></trkpt><trkpt lat="45.0310417" lon="11.5954433"><ele>7.0</ele><time>2026-03-22T09:19:11.164Z</time></trkpt><trkpt lat="45.0310733" lon="11.595535"><ele>7.0</ele><time>2026-03-22T09:19:12.17Z</time></trkpt><trkpt lat="45.0311033" lon="11.5956267"><ele>7.0</ele><time>2026-03-22T09:19:13.164Z</time></trkpt><trkpt lat="45.0311333" lon="11.5957217"><ele>7.0</ele><time>2026-03-22T09:19:14.164Z</time></trkpt><trkpt lat="45.0311617" lon="11.5958133"><ele>7.0</ele><time>2026-03-22T09:19:15.163Z</time></trkpt><trkpt lat="45.0311883" lon="11.595905"><ele>7.0</ele><time>2026-03-22T09:19:16.174Z</time></trkpt><trkpt lat="45.0312117" lon="11.595995"><ele>7.0</ele><time>2026-03-22T09:19:17.158Z</time></trkpt><trkpt lat="45.0312383" lon="11.5960833"><ele>7.0</ele><time>2026-03-22T09:19:18.161Z</time></trkpt><trkpt lat="45.031265" lon="11.5961733"><ele>7.0</ele><time>2026-03-22T09:19:19.159Z</time></trkpt><trkpt lat="45.0312917" lon="11.5962617"><ele>7.0</ele><time>2026-03-22T09:19:20.166Z</time></trkpt><trkpt lat="45.03132" lon="11.59635"><ele>7.0</ele><time>2026-03-22T09:19:21.171Z</time></trkpt><trkpt lat="45.031345" lon="11.596435"><ele>7.0</ele><time>2026-03-22T09:19:22.167Z</time></trkpt><trkpt lat="45.0313683" lon="11.5965217"><ele>7.0</ele><time>2026-03-22T09:19:23.169Z</time></trkpt><trkpt lat="45.0313933" lon="11.5966117"><ele>7.0</ele><time>2026-03-22T09:19:24.166Z</time></trkpt><trkpt lat="45.03142" lon="11.5967"><ele>7.0</ele><time>2026-03-22T09:19:25.169Z</time></trkpt><trkpt lat="45.031445" lon="11.59679"><ele>7.0</ele><time>2026-03-22T09:19:26.166Z</time></trkpt><trkpt lat="45.0314717" lon="11.5968783"><ele>7.0</ele><time>2026-03-22T09:19:27.156Z</time></trkpt><trkpt lat="45.0314983" lon="11.5969683"><ele>7.0</ele><time>2026-03-22T09:19:28.17Z</time></trkpt><trkpt lat="45.0315233" lon="11.59706"><ele>7.0</ele><time>2026-03-22T09:19:29.169Z</time></trkpt><trkpt lat="45.0315467" lon="11.59715"><ele>7.0</ele><time>2026-03-22T09:19:30.169Z</time></trkpt><trkpt lat="45.0315717" lon="11.5972367"><ele>6.857142857142857</ele><time>2026-03-22T09:19:31.167Z</time></trkpt><trkpt lat="45.0315967" lon="11.5973283"><ele>6.714285714285714</ele><time>2026-03-22T09:19:32.159Z</time></trkpt><trkpt lat="45.0316217" lon="11.59742"><ele>6.571428571428571</ele><time>2026-03-22T09:19:33.16Z</time></trkpt><trkpt lat="45.031645" lon="11.5975067"><ele>6.428571428571429</ele><time>2026-03-22T09:19:34.165Z</time></trkpt><trkpt lat="45.0316667" lon="11.5975933"><ele>6.285714285714286</ele><time>2026-03-22T09:19:35.165Z</time></trkpt><trkpt lat="45.0316883" lon="11.5976833"><ele>6.142857142857142</ele><time>2026-03-22T09:19:36.164Z</time></trkpt><trkpt lat="45.0317083" lon="11.597775"><ele>6.0</ele><time>2026-03-22T09:19:37.147Z</time></trkpt><trkpt lat="45.0317283" lon="11.5978667"><ele>5.833333333333333</ele><time>2026-03-22T09:19:38.165Z</time></trkpt><trkpt lat="45.0317483" lon="11.5979567"><ele>5.666666666666667</ele><time>2026-03-22T09:19:39.172Z</time></trkpt><trkpt lat="45.0317667" lon="11.598045"><ele>5.5</ele><time>2026-03-22T09:19:40.153Z</time></trkpt><trkpt lat="45.0317883" lon="11.5981333"><ele>5.333333333333334</ele><time>2026-03-22T09:19:41.159Z</time></trkpt><trkpt lat="45.03183" lon="11.5983"><ele>5.166666666666667</ele><time>2026-03-22T09:19:43.169Z</time></trkpt><trkpt lat="45.0318683" lon="11.59847"><ele>5.0</ele><time>2026-03-22T09:19:45.168Z</time></trkpt><trkpt lat="45.0318867" lon="11.5985567"><ele>5.0</ele><time>2026-03-22T09:19:46.168Z</time></trkpt><trkpt lat="45.0319067" lon="11.5986417"><ele>5.0</ele><time>2026-03-22T09:19:47.166Z</time></trkpt><trkpt lat="45.0319233" lon="11.59873"><ele>5.0</ele><time>2026-03-22T09:19:48.163Z</time></trkpt><trkpt lat="45.0319433" lon="11.5988183"><ele>5.0</ele><time>2026-03-22T09:19:49.165Z</time></trkpt><trkpt lat="45.031965" lon="11.5989067"><ele>5.0</ele><time>2026-03-22T09:19:50.169Z</time></trkpt><trkpt lat="45.031985" lon="11.5989983"><ele>5.0</ele><time>2026-03-22T09:19:51.167Z</time></trkpt><trkpt lat="45.0320033" lon="11.5990933"><ele>5.0</ele><time>2026-03-22T09:19:52.162Z</time></trkpt><trkpt lat="45.0320217" lon="11.5991883"><ele>5.0</ele><time>2026-03-22T09:19:53.136Z</time></trkpt><trkpt lat="45.0320417" lon="11.59928"><ele>5.0</ele><time>2026-03-22T09:19:54.141Z</time></trkpt><trkpt lat="45.0320633" lon="11.5993717"><ele>5.0</ele><time>2026-03-22T09:19:55.163Z</time></trkpt><trkpt lat="45.032085" lon="11.599465"><ele>5.0</ele><time>2026-03-22T09:19:56.172Z</time></trkpt><trkpt lat="45.0321033" lon="11.5995567"><ele>5.0</ele><time>2026-03-22T09:19:57.166Z</time></trkpt><trkpt lat="45.0321183" lon="11.5996433"><ele>5.0</ele><time>2026-03-22T09:19:58.164Z</time></trkpt><trkpt lat="45.0321333" lon="11.59973"><ele>5.0</ele><time>2026-03-22T09:19:59.16Z</time></trkpt><trkpt lat="45.0321617" lon="11.5999"><ele>5.0</ele><time>2026-03-22T09:20:01.165Z</time></trkpt><trkpt lat="45.03219" lon="11.600065"><ele>5.0</ele><time>2026-03-22T09:20:03.163Z</time></trkpt><trkpt lat="45.0322167" lon="11.6002267"><ele>5.0</ele><time>2026-03-22T09:20:05.158Z</time></trkpt><trkpt lat="45.03224" lon="11.6003933"><ele>5.0</ele><time>2026-03-22T09:20:07.153Z</time></trkpt><trkpt lat="45.0322683" lon="11.600565"><ele>5.0</ele><time>2026-03-22T09:20:09.14Z</time></trkpt><trkpt lat="45.0322833" lon="11.6006517"><ele>5.0</ele><time>2026-03-22T09:20:10.171Z</time></trkpt><trkpt lat="45.032295" lon="11.6007417"><ele>5.0</ele><time>2026-03-22T09:20:11.169Z</time></trkpt><trkpt lat="45.0323067" lon="11.6008317"><ele>5.0</ele><time>2026-03-22T09:20:12.157Z</time></trkpt><trkpt lat="45.03232" lon="11.60092"><ele>5.0</ele><time>2026-03-22T09:20:13.167Z</time></trkpt><trkpt lat="45.0323317" lon="11.60101"><ele>5.0</ele><time>2026-03-22T09:20:14.162Z</time></trkpt><trkpt lat="45.032345" lon="11.6011017"><ele>5.0</ele><time>2026-03-22T09:20:15.166Z</time></trkpt><trkpt lat="45.0323583" lon="11.6011917"><ele>5.0</ele><time>2026-03-22T09:20:16.138Z</time></trkpt><trkpt lat="45.0323717" lon="11.6012833"><ele>5.0</ele><time>2026-03-22T09:20:17.155Z</time></trkpt><trkpt lat="45.032385" lon="11.6013733"><ele>5.0</ele><time>2026-03-22T09:20:18.153Z</time></trkpt><trkpt lat="45.032395" lon="11.601465"><ele>5.0</ele><time>2026-03-22T09:20:19.164Z</time></trkpt><trkpt lat="45.0324083" lon="11.6015567"><ele>5.0</ele><time>2026-03-22T09:20:20.159Z</time></trkpt><trkpt lat="45.0324233" lon="11.6016483"><ele>5.0</ele><time>2026-03-22T09:20:21.162Z</time></trkpt><trkpt lat="45.0324367" lon="11.60174"><ele>5.0</ele><time>2026-03-22T09:20:22.166Z</time></trkpt><trkpt lat="45.0324517" lon="11.6018333"><ele>5.0</ele><time>2026-03-22T09:20:23.167Z</time></trkpt><trkpt lat="45.0324667" lon="11.601925"><ele>5.0</ele><time>2026-03-22T09:20:24.162Z</time></trkpt><trkpt lat="45.03248" lon="11.6020133"><ele>5.0</ele><time>2026-03-22T09:20:25.164Z</time></trkpt><trkpt lat="45.032495" lon="11.6021017"><ele>5.0</ele><time>2026-03-22T09:20:26.165Z</time></trkpt><trkpt lat="45.0325083" lon="11.60219"><ele>5.0</ele><time>2026-03-22T09:20:27.164Z</time></trkpt><trkpt lat="45.0325367" lon="11.6023583"><ele>5.0</ele><time>2026-03-22T09:20:29.168Z</time></trkpt><trkpt lat="45.0325517" lon="11.602445"><ele>5.0</ele><time>2026-03-22T09:20:30.132Z</time></trkpt><trkpt lat="45.0325683" lon="11.6025367"><ele>5.0</ele><time>2026-03-22T09:20:31.165Z</time></trkpt><trkpt lat="45.0325817" lon="11.6026317"><ele>5.0</ele><time>2026-03-22T09:20:32.17Z</time></trkpt><trkpt lat="45.0325917" lon="11.6027283"><ele>5.0</ele><time>2026-03-22T09:20:33.166Z</time></trkpt><trkpt lat="45.0326067" lon="11.6028233"><ele>5.0</ele><time>2026-03-22T09:20:34.15Z</time></trkpt><trkpt lat="45.0326233" lon="11.60292"><ele>5.0</ele><time>2026-03-22T09:20:35.159Z</time></trkpt><trkpt lat="45.03264" lon="11.6030167"><ele>5.0</ele><time>2026-03-22T09:20:36.158Z</time></trkpt><trkpt lat="45.032655" lon="11.6031133"><ele>5.0</ele><time>2026-03-22T09:20:37.165Z</time></trkpt><trkpt lat="45.03267" lon="11.6032067"><ele>5.0</ele><time>2026-03-22T09:20:38.142Z</time></trkpt><trkpt lat="45.0326833" lon="11.603295"><ele>5.0</ele><time>2026-03-22T09:20:39.154Z</time></trkpt><trkpt lat="45.0327" lon="11.6033817"><ele>5.0</ele><time>2026-03-22T09:20:40.166Z</time></trkpt><trkpt lat="45.0327317" lon="11.6035483"><ele>5.0</ele><time>2026-03-22T09:20:42.166Z</time></trkpt><trkpt lat="45.032765" lon="11.6037017"><ele>5.0</ele><time>2026-03-22T09:20:44.168Z</time></trkpt><trkpt lat="45.032795" lon="11.6038533"><ele>5.0</ele><time>2026-03-22T09:20:46.164Z</time></trkpt><trkpt lat="45.0328233" lon="11.6040217"><ele>5.0</ele><time>2026-03-22T09:20:48.131Z</time></trkpt><trkpt lat="45.0328517" lon="11.604185"><ele>5.0</ele><time>2026-03-22T09:20:50.147Z</time></trkpt><trkpt lat="45.0328733" lon="11.6043583"><ele>5.0</ele><time>2026-03-22T09:20:52.158Z</time></trkpt><trkpt lat="45.0328817" lon="11.60445"><ele>5.0</ele><time>2026-03-22T09:20:53.138Z</time></trkpt><trkpt lat="45.03289" lon="11.6046233"><ele>5.0</ele><time>2026-03-22T09:20:55.146Z</time></trkpt><trkpt lat="45.03289" lon="11.6047817"><ele>5.0</ele><time>2026-03-22T09:20:57.151Z</time></trkpt><trkpt lat="45.03289" lon="11.6049167"><ele>5.0</ele><time>2026-03-22T09:20:59.15Z</time></trkpt><trkpt lat="45.0328867" lon="11.6050583"><ele>5.0</ele><time>2026-03-22T09:21:01.158Z</time></trkpt><trkpt lat="45.0328817" lon="11.6052033"><ele>5.0</ele><time>2026-03-22T09:21:03.136Z</time></trkpt><trkpt lat="45.0328767" lon="11.6053567"><ele>5.0</ele><time>2026-03-22T09:21:05.134Z</time></trkpt><trkpt lat="45.0328683" lon="11.6055167"><ele>5.0</ele><time>2026-03-22T09:21:07.136Z</time></trkpt><trkpt lat="45.0328667" lon="11.60567"><ele>5.0</ele><time>2026-03-22T09:21:09.14Z</time></trkpt><trkpt lat="45.03287" lon="11.6058283"><ele>5.0</ele><time>2026-03-22T09:21:11.145Z</time></trkpt><trkpt lat="45.032875" lon="11.6059917"><ele>5.0</ele><time>2026-03-22T09:21:13.133Z</time></trkpt><trkpt lat="45.0328867" lon="11.6061667"><ele>4.833333333333334</ele><time>2026-03-22T09:21:15.14Z</time></trkpt><trkpt lat="45.032895" lon="11.6062567"><ele>4.666666666666667</ele><time>2026-03-22T09:21:16.151Z</time></trkpt><trkpt lat="45.032905" lon="11.6063483"><ele>4.5</ele><time>2026-03-22T09:21:17.151Z</time></trkpt><trkpt lat="45.0329167" lon="11.6064367"><ele>4.333333333333333</ele><time>2026-03-22T09:21:18.139Z</time></trkpt><trkpt lat="45.0329467" lon="11.6066033"><ele>4.166666666666666</ele><time>2026-03-22T09:21:20.164Z</time></trkpt><trkpt lat="45.0329783" lon="11.606765"><ele>4.0</ele><time>2026-03-22T09:21:22.158Z</time></trkpt><trkpt lat="45.0330017" lon="11.6069233"><ele>4.0</ele><time>2026-03-22T09:21:24.159Z</time></trkpt><trkpt lat="45.033015" lon="11.6070817"><ele>4.0</ele><time>2026-03-22T09:21:26.17Z</time></trkpt><trkpt lat="45.0330283" lon="11.607235"><ele>4.0</ele><time>2026-03-22T09:21:28.167Z</time></trkpt><trkpt lat="45.0330367" lon="11.6073917"><ele>4.0</ele><time>2026-03-22T09:21:30.157Z</time></trkpt><trkpt lat="45.033045" lon="11.6075617"><ele>4.0</ele><time>2026-03-22T09:21:32.165Z</time></trkpt><trkpt lat="45.0330567" lon="11.607725"><ele>4.0</ele><time>2026-03-22T09:21:34.168Z</time></trkpt><trkpt lat="45.03306" lon="11.6078817"><ele>4.0</ele><time>2026-03-22T09:21:36.164Z</time></trkpt><trkpt lat="45.0330583" lon="11.6080383"><ele>4.0</ele><time>2026-03-22T09:21:38.166Z</time></trkpt><trkpt lat="45.03306" lon="11.6082033"><ele>4.4</ele><time>2026-03-22T09:21:40.165Z</time></trkpt><trkpt lat="45.0330633" lon="11.6083767"><ele>4.800000000000001</ele><time>2026-03-22T09:21:42.165Z</time></trkpt><trkpt lat="45.033065" lon="11.6084667"><ele>5.199999999999999</ele><time>2026-03-22T09:21:43.164Z</time></trkpt><trkpt lat="45.03307" lon="11.6085583"><ele>5.6</ele><time>2026-03-22T09:21:44.165Z</time></trkpt><trkpt lat="45.0330767" lon="11.6087367"><ele>6.0</ele><time>2026-03-22T09:21:46.163Z</time></trkpt><trkpt lat="45.0330817" lon="11.608915"><ele>5.999999999999999</ele><time>2026-03-22T09:21:48.164Z</time></trkpt><trkpt lat="45.0330833" lon="11.6090917"><ele>6.0</ele><time>2026-03-22T09:21:50.154Z</time></trkpt><trkpt lat="45.0330833" lon="11.6091817"><ele>6.0</ele><time>2026-03-22T09:21:51.162Z</time></trkpt><trkpt lat="45.0330833" lon="11.6092733"><ele>6.0</ele><time>2026-03-22T09:21:52.158Z</time></trkpt><trkpt lat="45.033085" lon="11.609365"><ele>6.0</ele><time>2026-03-22T09:21:53.156Z</time></trkpt><trkpt lat="45.0330867" lon="11.6094583"><ele>5.999999999999999</ele><time>2026-03-22T09:21:54.167Z</time></trkpt><trkpt lat="45.0330883" lon="11.60955"><ele>6.0</ele><time>2026-03-22T09:21:55.169Z</time></trkpt><trkpt lat="45.0330917" lon="11.6096417"><ele>5.999999999999999</ele><time>2026-03-22T09:21:56.163Z</time></trkpt><trkpt lat="45.0330967" lon="11.6097317"><ele>6.0</ele><time>2026-03-22T09:21:57.163Z</time></trkpt><trkpt lat="45.0331033" lon="11.6098217"><ele>6.0</ele><time>2026-03-22T09:21:58.169Z</time></trkpt><trkpt lat="45.03311" lon="11.6099117"><ele>6.0</ele><time>2026-03-22T09:21:59.164Z</time></trkpt><trkpt lat="45.0331217" lon="11.61009"><ele>6.0</ele><time>2026-03-22T09:22:01.131Z</time></trkpt><trkpt lat="45.0331283" lon="11.61018"><ele>5.999999999999999</ele><time>2026-03-22T09:22:02.16Z</time></trkpt><trkpt lat="45.033135" lon="11.6102717"><ele>6.0</ele><time>2026-03-22T09:22:03.168Z</time></trkpt><trkpt lat="45.0331417" lon="11.6103633"><ele>5.833333333333333</ele><time>2026-03-22T09:22:04.163Z</time></trkpt><trkpt lat="45.0331483" lon="11.610455"><ele>5.666666666666667</ele><time>2026-03-22T09:22:05.168Z</time></trkpt><trkpt lat="45.0331567" lon="11.6105467"><ele>5.5</ele><time>2026-03-22T09:22:06.172Z</time></trkpt><trkpt lat="45.0331617" lon="11.61064"><ele>5.333333333333334</ele><time>2026-03-22T09:22:07.161Z</time></trkpt><trkpt lat="45.0331683" lon="11.6107333"><ele>5.166666666666667</ele><time>2026-03-22T09:22:08.154Z</time></trkpt><trkpt lat="45.0331733" lon="11.6108233"><ele>5.0</ele><time>2026-03-22T09:22:09.16Z</time></trkpt><trkpt lat="45.0331833" lon="11.6109983"><ele>4.8</ele><time>2026-03-22T09:22:11.163Z</time></trkpt><trkpt lat="45.0331867" lon="11.61117"><ele>4.6</ele><time>2026-03-22T09:22:13.165Z</time></trkpt><trkpt lat="45.03319" lon="11.6113417"><ele>4.4</ele><time>2026-03-22T09:22:15.159Z</time></trkpt><trkpt lat="45.0331933" lon="11.6115183"><ele>4.2</ele><time>2026-03-22T09:22:17.158Z</time></trkpt><trkpt lat="45.0331917" lon="11.6116083"><ele>4.0</ele><time>2026-03-22T09:22:18.155Z</time></trkpt><trkpt lat="45.03319" lon="11.6117"><ele>4.0</ele><time>2026-03-22T09:22:19.164Z</time></trkpt><trkpt lat="45.0331883" lon="11.6117917"><ele>4.0</ele><time>2026-03-22T09:22:20.158Z</time></trkpt><trkpt lat="45.0331867" lon="11.6118817"><ele>4.0</ele><time>2026-03-22T09:22:21.166Z</time></trkpt><trkpt lat="45.0331767" lon="11.612055"><ele>4.0</ele><time>2026-03-22T09:22:23.164Z</time></trkpt><trkpt lat="45.03317" lon="11.6122133"><ele>4.0</ele><time>2026-03-22T09:22:25.171Z</time></trkpt><trkpt lat="45.0331583" lon="11.61236"><ele>4.2</ele><time>2026-03-22T09:22:27.139Z</time></trkpt><trkpt lat="45.033135" lon="11.6124983"><ele>4.4</ele><time>2026-03-22T09:22:29.168Z</time></trkpt><trkpt lat="45.0330883" lon="11.6126367"><ele>4.6</ele><time>2026-03-22T09:22:31.168Z</time></trkpt><trkpt lat="45.0330267" lon="11.6127683"><ele>4.8</ele><time>2026-03-22T09:22:33.163Z</time></trkpt><trkpt lat="45.0329767" lon="11.6129133"><ele>5.0</ele><time>2026-03-22T09:22:35.168Z</time></trkpt><trkpt lat="45.0329517" lon="11.6130767"><ele>4.857142857142857</ele><time>2026-03-22T09:22:37.158Z</time></trkpt><trkpt lat="45.0329633" lon="11.6132483"><ele>4.714285714285714</ele><time>2026-03-22T09:22:39.158Z</time></trkpt><trkpt lat="45.0329817" lon="11.613335"><ele>4.571428571428571</ele><time>2026-03-22T09:22:40.167Z</time></trkpt><trkpt lat="45.0330083" lon="11.6134183"><ele>4.428571428571429</ele><time>2026-03-22T09:22:41.167Z</time></trkpt><trkpt lat="45.0330417" lon="11.6134983"><ele>4.285714285714286</ele><time>2026-03-22T09:22:42.16Z</time></trkpt><trkpt lat="45.033075" lon="11.6135767"><ele>4.142857142857142</ele><time>2026-03-22T09:22:43.175Z</time></trkpt><trkpt lat="45.033105" lon="11.6136583"><ele>4.0</ele><time>2026-03-22T09:22:44.175Z</time></trkpt><trkpt lat="45.0331317" lon="11.6137417"><ele>4.0</ele><time>2026-03-22T09:22:45.168Z</time></trkpt><trkpt lat="45.0331517" lon="11.61383"><ele>4.0</ele><time>2026-03-22T09:22:46.166Z</time></trkpt><trkpt lat="45.03317" lon="11.6140067"><ele>4.0</ele><time>2026-03-22T09:22:48.163Z</time></trkpt><trkpt lat="45.0331717" lon="11.6140967"><ele>4.0</ele><time>2026-03-22T09:22:49.161Z</time></trkpt><trkpt lat="45.0331717" lon="11.6142733"><ele>4.0</ele><time>2026-03-22T09:22:51.166Z</time></trkpt><trkpt lat="45.0331783" lon="11.614435"><ele>4.0</ele><time>2026-03-22T09:22:53.156Z</time></trkpt><trkpt lat="45.033195" lon="11.6145867"><ele>4.0</ele><time>2026-03-22T09:22:55.165Z</time></trkpt><trkpt lat="45.0332183" lon="11.61474"><ele>4.0</ele><time>2026-03-22T09:22:57.162Z</time></trkpt><trkpt lat="45.0332367" lon="11.6148967"><ele>4.0</ele><time>2026-03-22T09:22:59.14Z</time></trkpt><trkpt lat="45.0332483" lon="11.615055"><ele>4.0</ele><time>2026-03-22T09:23:01.166Z</time></trkpt><trkpt lat="45.0332517" lon="11.615215"><ele>4.2</ele><time>2026-03-22T09:23:03.159Z</time></trkpt><trkpt lat="45.0332533" lon="11.615375"><ele>4.4</ele><time>2026-03-22T09:23:05.154Z</time></trkpt><trkpt lat="45.0332517" lon="11.6155467"><ele>4.6</ele><time>2026-03-22T09:23:07.168Z</time></trkpt><trkpt lat="45.033245" lon="11.6157233"><ele>4.8</ele><time>2026-03-22T09:23:09.17Z</time></trkpt><trkpt lat="45.0332417" lon="11.615815"><ele>5.0</ele><time>2026-03-22T09:23:10.137Z</time></trkpt><trkpt lat="45.03324" lon="11.6159083"><ele>5.0</ele><time>2026-03-22T09:23:11.168Z</time></trkpt><trkpt lat="45.033235" lon="11.6160017"><ele>5.0</ele><time>2026-03-22T09:23:12.163Z</time></trkpt><trkpt lat="45.0332317" lon="11.616095"><ele>5.0</ele><time>2026-03-22T09:23:13.155Z</time></trkpt><trkpt lat="45.03323" lon="11.6161867"><ele>5.0</ele><time>2026-03-22T09:23:14.16Z</time></trkpt><trkpt lat="45.0332267" lon="11.6162767"><ele>5.0</ele><time>2026-03-22T09:23:15.167Z</time></trkpt><trkpt lat="45.033225" lon="11.6163683"><ele>5.0</ele><time>2026-03-22T09:23:16.166Z</time></trkpt><trkpt lat="45.0332233" lon="11.6164617"><ele>5.0</ele><time>2026-03-22T09:23:17.16Z</time></trkpt><trkpt lat="45.0332217" lon="11.6165533"><ele>5.0</ele><time>2026-03-22T09:23:18.165Z</time></trkpt><trkpt lat="45.0332217" lon="11.616645"><ele>5.0</ele><time>2026-03-22T09:23:19.164Z</time></trkpt><trkpt lat="45.0332217" lon="11.6168217"><ele>5.0</ele><time>2026-03-22T09:23:21.162Z</time></trkpt><trkpt lat="45.033225" lon="11.617"><ele>5.0</ele><time>2026-03-22T09:23:23.165Z</time></trkpt><trkpt lat="45.0332267" lon="11.61709"><ele>5.0</ele><time>2026-03-22T09:23:24.169Z</time></trkpt><trkpt lat="45.033225" lon="11.6172683"><ele>5.0</ele><time>2026-03-22T09:23:26.168Z</time></trkpt><trkpt lat="45.033225" lon="11.6173583"><ele>5.0</ele><time>2026-03-22T09:23:27.164Z</time></trkpt><trkpt lat="45.0332233" lon="11.6175267"><ele>5.0</ele><time>2026-03-22T09:23:29.164Z</time></trkpt><trkpt lat="45.0332117" lon="11.6176833"><ele>5.0</ele><time>2026-03-22T09:23:31.133Z</time></trkpt><trkpt lat="45.0332" lon="11.617845"><ele>5.0</ele><time>2026-03-22T09:23:33.163Z</time></trkpt><trkpt lat="45.033185" lon="11.6180117"><ele>5.0</ele><time>2026-03-22T09:23:35.172Z</time></trkpt><trkpt lat="45.0331667" lon="11.61817"><ele>5.0</ele><time>2026-03-22T09:23:37.162Z</time></trkpt><trkpt lat="45.03315" lon="11.618325"><ele>5.0</ele><time>2026-03-22T09:23:39.168Z</time></trkpt><trkpt lat="45.033135" lon="11.6184833"><ele>5.0</ele><time>2026-03-22T09:23:41.163Z</time></trkpt><trkpt lat="45.0331183" lon="11.618645"><ele>5.0</ele><time>2026-03-22T09:23:43.15Z</time></trkpt><trkpt lat="45.0330967" lon="11.6188067"><ele>5.0</ele><time>2026-03-22T09:23:45.161Z</time></trkpt><trkpt lat="45.0330733" lon="11.618975"><ele>5.0</ele><time>2026-03-22T09:23:47.166Z</time></trkpt><trkpt lat="45.0330433" lon="11.6191483"><ele>5.0</ele><time>2026-03-22T09:23:49.165Z</time></trkpt><trkpt lat="45.03301" lon="11.619315"><ele>5.0</ele><time>2026-03-22T09:23:51.158Z</time></trkpt><trkpt lat="45.032975" lon="11.6194717"><ele>5.0</ele><time>2026-03-22T09:23:53.164Z</time></trkpt><trkpt lat="45.0329367" lon="11.61963"><ele>5.0</ele><time>2026-03-22T09:23:55.159Z</time></trkpt><trkpt lat="45.0329" lon="11.6197833"><ele>5.0</ele><time>2026-03-22T09:23:57.165Z</time></trkpt><trkpt lat="45.032865" lon="11.6199333"><ele>5.0</ele><time>2026-03-22T09:23:59.165Z</time></trkpt><trkpt lat="45.0328233" lon="11.620085"><ele>5.0</ele><time>2026-03-22T09:24:01.164Z</time></trkpt><trkpt lat="45.0327817" lon="11.6202267"><ele>5.0</ele><time>2026-03-22T09:24:03.14Z</time></trkpt><trkpt lat="45.0327367" lon="11.6203633"><ele>5.0</ele><time>2026-03-22T09:24:05.172Z</time></trkpt><trkpt lat="45.0326883" lon="11.6205033"><ele>5.0</ele><time>2026-03-22T09:24:07.171Z</time></trkpt><trkpt lat="45.0326417" lon="11.6206417"><ele>5.0</ele><time>2026-03-22T09:24:09.162Z</time></trkpt><trkpt lat="45.0326" lon="11.6207817"><ele>5.0</ele><time>2026-03-22T09:24:11.158Z</time></trkpt><trkpt lat="45.03256" lon="11.6209217"><ele>5.0</ele><time>2026-03-22T09:24:13.16Z</time></trkpt><trkpt lat="45.0325217" lon="11.62105"><ele>5.0</ele><time>2026-03-22T09:24:15.159Z</time></trkpt><trkpt lat="45.03247" lon="11.6211633"><ele>5.0</ele><time>2026-03-22T09:24:17.164Z</time></trkpt><trkpt lat="45.0323883" lon="11.6212583"><ele>5.0</ele><time>2026-03-22T09:24:19.164Z</time></trkpt><trkpt lat="45.0322833" lon="11.6213233"><ele>5.0</ele><time>2026-03-22T09:24:21.166Z</time></trkpt><trkpt lat="45.0321683" lon="11.621355"><ele>5.0</ele><time>2026-03-22T09:24:23.154Z</time></trkpt><trkpt lat="45.0320567" lon="11.6213783"><ele>5.0</ele><time>2026-03-22T09:24:25.159Z</time></trkpt><trkpt lat="45.0319433" lon="11.62143"><ele>5.0</ele><time>2026-03-22T09:24:27.167Z</time></trkpt><trkpt lat="45.0318467" lon="11.621515"><ele>5.0</ele><time>2026-03-22T09:24:29.167Z</time></trkpt><trkpt lat="45.031755" lon="11.6216133"><ele>5.0</ele><time>2026-03-22T09:24:31.159Z</time></trkpt><trkpt lat="45.03167" lon="11.6217317"><ele>5.0</ele><time>2026-03-22T09:24:33.161Z</time></trkpt><trkpt lat="45.0316183" lon="11.6218767"><ele>5.0</ele><time>2026-03-22T09:24:35.168Z</time></trkpt><trkpt lat="45.0315983" lon="11.6220417"><ele>5.0</ele><time>2026-03-22T09:24:37.144Z</time></trkpt><trkpt lat="45.0316167" lon="11.6222133"><ele>5.0</ele><time>2026-03-22T09:24:39.167Z</time></trkpt><trkpt lat="45.0316567" lon="11.6223683"><ele>5.0</ele><time>2026-03-22T09:24:41.161Z</time></trkpt><trkpt lat="45.0317" lon="11.6225183"><ele>5.0</ele><time>2026-03-22T09:24:43.159Z</time></trkpt><trkpt lat="45.0317183" lon="11.6226867"><ele>5.0</ele><time>2026-03-22T09:24:45.159Z</time></trkpt><trkpt lat="45.03169" lon="11.6228433"><ele>5.0</ele><time>2026-03-22T09:24:47.143Z</time></trkpt><trkpt lat="45.0316317" lon="11.6229783"><ele>5.0</ele><time>2026-03-22T09:24:49.164Z</time></trkpt><trkpt lat="45.0315567" lon="11.6231067"><ele>5.0</ele><time>2026-03-22T09:24:51.159Z</time></trkpt><trkpt lat="45.03148" lon="11.623245"><ele>5.0</ele><time>2026-03-22T09:24:53.154Z</time></trkpt><trkpt lat="45.0314017" lon="11.62338"><ele>5.0</ele><time>2026-03-22T09:24:55.169Z</time></trkpt><trkpt lat="45.0313283" lon="11.6235117"><ele>5.0</ele><time>2026-03-22T09:24:57.156Z</time></trkpt><trkpt lat="45.0312583" lon="11.6236417"><ele>4.75</ele><time>2026-03-22T09:24:59.165Z</time></trkpt><trkpt lat="45.0311883" lon="11.6237733"><ele>4.5</ele><time>2026-03-22T09:25:01.164Z</time></trkpt><trkpt lat="45.0311217" lon="11.6239033"><ele>4.25</ele><time>2026-03-22T09:25:03.165Z</time></trkpt><trkpt lat="45.0310483" lon="11.6240267"><ele>4.0</ele><time>2026-03-22T09:25:05.166Z</time></trkpt><trkpt lat="45.0309683" lon="11.6241467"><ele>4.0</ele><time>2026-03-22T09:25:07.162Z</time></trkpt><trkpt lat="45.0308817" lon="11.62426"><ele>4.0</ele><time>2026-03-22T09:25:09.167Z</time></trkpt><trkpt lat="45.0307917" lon="11.6243617"><ele>4.0</ele><time>2026-03-22T09:25:11.17Z</time></trkpt><trkpt lat="45.0307" lon="11.6244733"><ele>4.0</ele><time>2026-03-22T09:25:13.163Z</time></trkpt><trkpt lat="45.0306083" lon="11.624575"><ele>4.4</ele><time>2026-03-22T09:25:15.171Z</time></trkpt><trkpt lat="45.030525" lon="11.6246767"><ele>4.800000000000001</ele><time>2026-03-22T09:25:17.16Z</time></trkpt><trkpt lat="45.0304483" lon="11.6247767"><ele>5.199999999999999</ele><time>2026-03-22T09:25:19.163Z</time></trkpt><trkpt lat="45.0303717" lon="11.62488"><ele>5.6</ele><time>2026-03-22T09:25:21.162Z</time></trkpt><trkpt lat="45.0302867" lon="11.624995"><ele>6.0</ele><time>2026-03-22T09:25:23.167Z</time></trkpt><trkpt lat="45.0301967" lon="11.6251217"><ele>6.0</ele><time>2026-03-22T09:25:25.164Z</time></trkpt><trkpt lat="45.0301167" lon="11.6252583"><ele>6.0</ele><time>2026-03-22T09:25:27.163Z</time></trkpt><trkpt lat="45.0300367" lon="11.6253883"><ele>6.0</ele><time>2026-03-22T09:25:29.162Z</time></trkpt><trkpt lat="45.0299567" lon="11.6255117"><ele>6.0</ele><time>2026-03-22T09:25:31.166Z</time></trkpt><trkpt lat="45.0298817" lon="11.6256367"><ele>5.25</ele><time>2026-03-22T09:25:33.166Z</time></trkpt><trkpt lat="45.029805" lon="11.6257533"><ele>4.5</ele><time>2026-03-22T09:25:35.168Z</time></trkpt><trkpt lat="45.029715" lon="11.62585"><ele>3.75</ele><time>2026-03-22T09:25:37.156Z</time></trkpt><trkpt lat="45.02961" lon="11.62591"><ele>3.0</ele><time>2026-03-22T09:25:39.165Z</time></trkpt><trkpt lat="45.0294983" lon="11.6259333"><ele>3.0</ele><time>2026-03-22T09:25:41.166Z</time></trkpt><trkpt lat="45.0293917" lon="11.6259567"><ele>3.0</ele><time>2026-03-22T09:25:43.168Z</time></trkpt><trkpt lat="45.0292917" lon="11.626025"><ele>3.0</ele><time>2026-03-22T09:25:45.157Z</time></trkpt><trkpt lat="45.0292167" lon="11.6261383"><ele>3.0</ele><time>2026-03-22T09:25:47.167Z</time></trkpt><trkpt lat="45.0291733" lon="11.6262433"><ele>3.0</ele><time>2026-03-22T09:25:49.165Z</time></trkpt><trkpt lat="45.02915" lon="11.626335"><ele>3.2</ele><time>2026-03-22T09:25:51.163Z</time></trkpt><trkpt lat="45.02912" lon="11.6264367"><ele>3.4</ele><time>2026-03-22T09:25:53.134Z</time></trkpt><trkpt lat="45.0290833" lon="11.6265617"><ele>3.6000000000000005</ele><time>2026-03-22T09:25:55.151Z</time></trkpt><trkpt lat="45.0290367" lon="11.6266933"><ele>3.8000000000000003</ele><time>2026-03-22T09:25:57.148Z</time></trkpt><trkpt lat="45.0289883" lon="11.6268283"><ele>4.0</ele><time>2026-03-22T09:25:59.164Z</time></trkpt><trkpt lat="45.0289383" lon="11.6269667"><ele>4.5</ele><time>2026-03-22T09:26:01.168Z</time></trkpt><trkpt lat="45.0288817" lon="11.627105"><ele>5.0</ele><time>2026-03-22T09:26:03.172Z</time></trkpt><trkpt lat="45.02883" lon="11.62725"><ele>5.5</ele><time>2026-03-22T09:26:05.165Z</time></trkpt><trkpt lat="45.0287683" lon="11.627385"><ele>6.0</ele><time>2026-03-22T09:26:07.169Z</time></trkpt><trkpt lat="45.0287017" lon="11.6275133"><ele>5.999999999999999</ele><time>2026-03-22T09:26:09.161Z</time></trkpt><trkpt lat="45.0286283" lon="11.6276483"><ele>6.0</ele><time>2026-03-22T09:26:11.154Z</time></trkpt><trkpt lat="45.0285883" lon="11.62772"><ele>6.0</ele><time>2026-03-22T09:26:12.165Z</time></trkpt><trkpt lat="45.02855" lon="11.6277933"><ele>6.0</ele><time>2026-03-22T09:26:13.166Z</time></trkpt><trkpt lat="45.0285133" lon="11.6278683"><ele>6.0</ele><time>2026-03-22T09:26:14.17Z</time></trkpt><trkpt lat="45.028475" lon="11.6279433"><ele>5.999999999999999</ele><time>2026-03-22T09:26:15.166Z</time></trkpt><trkpt lat="45.02844" lon="11.62802"><ele>6.0</ele><time>2026-03-22T09:26:16.152Z</time></trkpt><trkpt lat="45.0284067" lon="11.6280983"><ele>5.999999999999999</ele><time>2026-03-22T09:26:17.166Z</time></trkpt><trkpt lat="45.0283567" lon="11.6282583"><ele>6.0</ele><time>2026-03-22T09:26:19.163Z</time></trkpt><trkpt lat="45.0283383" lon="11.6283467"><ele>6.0</ele><time>2026-03-22T09:26:20.167Z</time></trkpt><trkpt lat="45.028325" lon="11.628435"><ele>6.0</ele><time>2026-03-22T09:26:21.145Z</time></trkpt><trkpt lat="45.02832" lon="11.6285267"><ele>6.0</ele><time>2026-03-22T09:26:22.157Z</time></trkpt><trkpt lat="45.0283217" lon="11.6286183"><ele>5.999999999999999</ele><time>2026-03-22T09:26:23.159Z</time></trkpt><trkpt lat="45.028325" lon="11.62871"><ele>6.0</ele><time>2026-03-22T09:26:24.155Z</time></trkpt><trkpt lat="45.0283283" lon="11.6288017"><ele>5.833333333333333</ele><time>2026-03-22T09:26:25.164Z</time></trkpt><trkpt lat="45.0283367" lon="11.6289783"><ele>5.666666666666667</ele><time>2026-03-22T09:26:27.166Z</time></trkpt><trkpt lat="45.02834" lon="11.62907"><ele>5.5</ele><time>2026-03-22T09:26:28.145Z</time></trkpt><trkpt lat="45.0283467" lon="11.62916"><ele>5.333333333333334</ele><time>2026-03-22T09:26:29.152Z</time></trkpt><trkpt lat="45.0283517" lon="11.6292533"><ele>5.166666666666667</ele><time>2026-03-22T09:26:30.168Z</time></trkpt><trkpt lat="45.0283517" lon="11.6293467"><ele>5.0</ele><time>2026-03-22T09:26:31.164Z</time></trkpt><trkpt lat="45.0283533" lon="11.6294417"><ele>5.166666666666667</ele><time>2026-03-22T09:26:32.16Z</time></trkpt><trkpt lat="45.0283517" lon="11.6295367"><ele>5.333333333333334</ele><time>2026-03-22T09:26:33.155Z</time></trkpt><trkpt lat="45.0283517" lon="11.6296317"><ele>5.5</ele><time>2026-03-22T09:26:34.167Z</time></trkpt><trkpt lat="45.0283517" lon="11.6297233"><ele>5.666666666666667</ele><time>2026-03-22T09:26:35.168Z</time></trkpt><trkpt lat="45.02835" lon="11.6298133"><ele>5.833333333333333</ele><time>2026-03-22T09:26:36.169Z</time></trkpt><trkpt lat="45.0283433" lon="11.6299883"><ele>6.0</ele><time>2026-03-22T09:26:38.133Z</time></trkpt><trkpt lat="45.02834" lon="11.630165"><ele>5.8</ele><time>2026-03-22T09:26:40.169Z</time></trkpt><trkpt lat="45.0283433" lon="11.6303333"><ele>5.6</ele><time>2026-03-22T09:26:42.133Z</time></trkpt><trkpt lat="45.0283533" lon="11.6305083"><ele>5.4</ele><time>2026-03-22T09:26:44.165Z</time></trkpt><trkpt lat="45.0283617" lon="11.630685"><ele>5.2</ele><time>2026-03-22T09:26:46.166Z</time></trkpt><trkpt lat="45.028365" lon="11.630775"><ele>5.0</ele><time>2026-03-22T09:26:47.166Z</time></trkpt><trkpt lat="45.0283733" lon="11.63087"><ele>5.0</ele><time>2026-03-22T09:26:48.162Z</time></trkpt><trkpt lat="45.0283783" lon="11.6309617"><ele>5.0</ele><time>2026-03-22T09:26:49.165Z</time></trkpt><trkpt lat="45.028385" lon="11.631135"><ele>5.0</ele><time>2026-03-22T09:26:51.168Z</time></trkpt><trkpt lat="45.0283983" lon="11.631305"><ele>5.0</ele><time>2026-03-22T09:26:53.145Z</time></trkpt><trkpt lat="45.0284183" lon="11.6314817"><ele>5.0</ele><time>2026-03-22T09:26:55.165Z</time></trkpt><trkpt lat="45.0284317" lon="11.6315733"><ele>5.142857142857142</ele><time>2026-03-22T09:26:56.168Z</time></trkpt><trkpt lat="45.028445" lon="11.631665"><ele>5.285714285714286</ele><time>2026-03-22T09:26:57.166Z</time></trkpt><trkpt lat="45.0284583" lon="11.6317567"><ele>5.428571428571429</ele><time>2026-03-22T09:26:58.165Z</time></trkpt><trkpt lat="45.028475" lon="11.6318433"><ele>5.571428571428571</ele><time>2026-03-22T09:26:59.149Z</time></trkpt><trkpt lat="45.0284917" lon="11.63193"><ele>5.714285714285714</ele><time>2026-03-22T09:27:00.158Z</time></trkpt><trkpt lat="45.0285083" lon="11.63202"><ele>5.857142857142857</ele><time>2026-03-22T09:27:01.168Z</time></trkpt><trkpt lat="45.028525" lon="11.6321083"><ele>6.0</ele><time>2026-03-22T09:27:02.167Z</time></trkpt><trkpt lat="45.0285433" lon="11.6322017"><ele>5.7142857142857135</ele><time>2026-03-22T09:27:03.167Z</time></trkpt><trkpt lat="45.0285617" lon="11.6322933"><ele>5.428571428571429</ele><time>2026-03-22T09:27:04.166Z</time></trkpt><trkpt lat="45.0285767" lon="11.6323867"><ele>5.142857142857142</ele><time>2026-03-22T09:27:05.169Z</time></trkpt><trkpt lat="45.028585" lon="11.6324783"><ele>4.857142857142857</ele><time>2026-03-22T09:27:06.169Z</time></trkpt><trkpt lat="45.0285933" lon="11.6325733"><ele>4.571428571428571</ele><time>2026-03-22T09:27:07.165Z</time></trkpt><trkpt lat="45.0285983" lon="11.63267"><ele>4.285714285714286</ele><time>2026-03-22T09:27:08.168Z</time></trkpt><trkpt lat="45.0286033" lon="11.6327633"><ele>4.0</ele><time>2026-03-22T09:27:09.165Z</time></trkpt><trkpt lat="45.0286117" lon="11.6328583"><ele>4.0</ele><time>2026-03-22T09:27:10.163Z</time></trkpt><trkpt lat="45.0286183" lon="11.632955"><ele>3.9999999999999996</ele><time>2026-03-22T09:27:11.161Z</time></trkpt><trkpt lat="45.0286267" lon="11.63305"><ele>4.0</ele><time>2026-03-22T09:27:12.165Z</time></trkpt><trkpt lat="45.0286333" lon="11.633145"><ele>4.0</ele><time>2026-03-22T09:27:13.165Z</time></trkpt><trkpt lat="45.0286433" lon="11.6332383"><ele>3.9999999999999996</ele><time>2026-03-22T09:27:14.154Z</time></trkpt><trkpt lat="45.0286517" lon="11.6333333"><ele>4.0</ele><time>2026-03-22T09:27:15.157Z</time></trkpt><trkpt lat="45.0286583" lon="11.6334267"><ele>4.0</ele><time>2026-03-22T09:27:16.164Z</time></trkpt><trkpt lat="45.028665" lon="11.6335217"><ele>4.0</ele><time>2026-03-22T09:27:17.162Z</time></trkpt><trkpt lat="45.0286717" lon="11.6336167"><ele>3.9999999999999996</ele><time>2026-03-22T09:27:18.161Z</time></trkpt><trkpt lat="45.0286767" lon="11.63371"><ele>4.0</ele><time>2026-03-22T09:27:19.139Z</time></trkpt><trkpt lat="45.0286833" lon="11.6338033"><ele>4.0</ele><time>2026-03-22T09:27:20.151Z</time></trkpt><trkpt lat="45.0286883" lon="11.6338967"><ele>3.9999999999999996</ele><time>2026-03-22T09:27:21.164Z</time></trkpt><trkpt lat="45.028695" lon="11.6339917"><ele>4.0</ele><time>2026-03-22T09:27:22.161Z</time></trkpt><trkpt lat="45.0287017" lon="11.6340883"><ele>4.0</ele><time>2026-03-22T09:27:23.164Z</time></trkpt><trkpt lat="45.0287083" lon="11.634185"><ele>4.142857142857142</ele><time>2026-03-22T09:27:24.164Z</time></trkpt><trkpt lat="45.0287167" lon="11.6342817"><ele>4.285714285714286</ele><time>2026-03-22T09:27:25.15Z</time></trkpt><trkpt lat="45.0287267" lon="11.63438"><ele>4.428571428571429</ele><time>2026-03-22T09:27:26.157Z</time></trkpt><trkpt lat="45.028735" lon="11.6344767"><ele>4.571428571428571</ele><time>2026-03-22T09:27:27.16Z</time></trkpt><trkpt lat="45.0287417" lon="11.6345717"><ele>4.714285714285714</ele><time>2026-03-22T09:27:28.161Z</time></trkpt><trkpt lat="45.0287467" lon="11.6346667"><ele>4.857142857142857</ele><time>2026-03-22T09:27:29.168Z</time></trkpt><trkpt lat="45.0287517" lon="11.6347583"><ele>5.0</ele><time>2026-03-22T09:27:30.165Z</time></trkpt><trkpt lat="45.02876" lon="11.63485"><ele>5.0</ele><time>2026-03-22T09:27:31.168Z</time></trkpt><trkpt lat="45.0287667" lon="11.6349417"><ele>5.0</ele><time>2026-03-22T09:27:32.167Z</time></trkpt><trkpt lat="45.0287783" lon="11.6351167"><ele>5.0</ele><time>2026-03-22T09:27:34.167Z</time></trkpt><trkpt lat="45.028785" lon="11.6352917"><ele>5.0</ele><time>2026-03-22T09:27:36.132Z</time></trkpt><trkpt lat="45.0287883" lon="11.6354583"><ele>5.0</ele><time>2026-03-22T09:27:38.171Z</time></trkpt><trkpt lat="45.0287917" lon="11.6356317"><ele>5.0</ele><time>2026-03-22T09:27:40.164Z</time></trkpt><trkpt lat="45.0287933" lon="11.6357983"><ele>5.0</ele><time>2026-03-22T09:27:42.166Z</time></trkpt><trkpt lat="45.0287867" lon="11.6359717"><ele>5.0</ele><time>2026-03-22T09:27:44.157Z</time></trkpt><trkpt lat="45.028775" lon="11.6361483"><ele>5.0</ele><time>2026-03-22T09:27:46.16Z</time></trkpt><trkpt lat="45.02876" lon="11.6363217"><ele>5.166666666666667</ele><time>2026-03-22T09:27:48.159Z</time></trkpt><trkpt lat="45.0287383" lon="11.636495"><ele>5.333333333333334</ele><time>2026-03-22T09:27:50.162Z</time></trkpt><trkpt lat="45.028715" lon="11.6366683"><ele>5.5</ele><time>2026-03-22T09:27:52.16Z</time></trkpt><trkpt lat="45.0286983" lon="11.6367583"><ele>5.666666666666667</ele><time>2026-03-22T09:27:53.161Z</time></trkpt><trkpt lat="45.02868" lon="11.6368483"><ele>5.833333333333333</ele><time>2026-03-22T09:27:54.157Z</time></trkpt><trkpt lat="45.0286617" lon="11.6369383"><ele>6.0</ele><time>2026-03-22T09:27:55.161Z</time></trkpt><trkpt lat="45.0286433" lon="11.63703"><ele>5.999999999999999</ele><time>2026-03-22T09:27:56.164Z</time></trkpt><trkpt lat="45.0286217" lon="11.6371217"><ele>6.0</ele><time>2026-03-22T09:27:57.163Z</time></trkpt><trkpt lat="45.0286" lon="11.63721"><ele>6.0</ele><time>2026-03-22T09:27:58.163Z</time></trkpt><trkpt lat="45.028575" lon="11.6372933"><ele>6.0</ele><time>2026-03-22T09:27:59.165Z</time></trkpt><trkpt lat="45.0285483" lon="11.6373783"><ele>6.0</ele><time>2026-03-22T09:28:00.163Z</time></trkpt><trkpt lat="45.0285217" lon="11.6374617"><ele>5.999999999999999</ele><time>2026-03-22T09:28:01.167Z</time></trkpt><trkpt lat="45.0284933" lon="11.6375483"><ele>6.0</ele><time>2026-03-22T09:28:02.166Z</time></trkpt><trkpt lat="45.0284633" lon="11.6376367"><ele>5.999999999999999</ele><time>2026-03-22T09:28:03.165Z</time></trkpt><trkpt lat="45.02843" lon="11.6377233"><ele>6.0</ele><time>2026-03-22T09:28:04.164Z</time></trkpt><trkpt lat="45.0284" lon="11.6378067"><ele>6.0</ele><time>2026-03-22T09:28:05.163Z</time></trkpt><trkpt lat="45.02837" lon="11.6378917"><ele>6.0</ele><time>2026-03-22T09:28:06.164Z</time></trkpt><trkpt lat="45.02834" lon="11.6379767"><ele>6.0</ele><time>2026-03-22T09:28:07.144Z</time></trkpt><trkpt lat="45.02831" lon="11.6380633"><ele>5.999999999999999</ele><time>2026-03-22T09:28:08.158Z</time></trkpt><trkpt lat="45.0282783" lon="11.6381467"><ele>6.0</ele><time>2026-03-22T09:28:09.168Z</time></trkpt><trkpt lat="45.028245" lon="11.63823"><ele>6.166666666666667</ele><time>2026-03-22T09:28:10.16Z</time></trkpt><trkpt lat="45.0282133" lon="11.6383133"><ele>6.333333333333334</ele><time>2026-03-22T09:28:11.162Z</time></trkpt><trkpt lat="45.028185" lon="11.6383933"><ele>6.5</ele><time>2026-03-22T09:28:12.158Z</time></trkpt><trkpt lat="45.02813" lon="11.6385533"><ele>6.666666666666667</ele><time>2026-03-22T09:28:14.165Z</time></trkpt><trkpt lat="45.0280983" lon="11.6386383"><ele>6.833333333333334</ele><time>2026-03-22T09:28:15.16Z</time></trkpt><trkpt lat="45.0280667" lon="11.6387217"><ele>7.0</ele><time>2026-03-22T09:28:16.163Z</time></trkpt><trkpt lat="45.0280333" lon="11.6388067"><ele>7.000000000000001</ele><time>2026-03-22T09:28:17.165Z</time></trkpt><trkpt lat="45.0280033" lon="11.6388883"><ele>7.0</ele><time>2026-03-22T09:28:18.161Z</time></trkpt><trkpt lat="45.0279717" lon="11.6389733"><ele>7.0</ele><time>2026-03-22T09:28:19.163Z</time></trkpt><trkpt lat="45.0279433" lon="11.639055"><ele>7.0</ele><time>2026-03-22T09:28:20.156Z</time></trkpt><trkpt lat="45.0279133" lon="11.639135"><ele>7.000000000000001</ele><time>2026-03-22T09:28:21.164Z</time></trkpt><trkpt lat="45.0278533" lon="11.63929"><ele>7.0</ele><time>2026-03-22T09:28:23.136Z</time></trkpt><trkpt lat="45.027795" lon="11.6394417"><ele>6.833333333333334</ele><time>2026-03-22T09:28:25.168Z</time></trkpt><trkpt lat="45.02774" lon="11.6395933"><ele>6.666666666666667</ele><time>2026-03-22T09:28:27.163Z</time></trkpt><trkpt lat="45.0276783" lon="11.63975"><ele>6.5</ele><time>2026-03-22T09:28:29.161Z</time></trkpt><trkpt lat="45.0276467" lon="11.6398333"><ele>6.333333333333334</ele><time>2026-03-22T09:28:30.164Z</time></trkpt><trkpt lat="45.0276167" lon="11.6399167"><ele>6.166666666666667</ele><time>2026-03-22T09:28:31.167Z</time></trkpt><trkpt lat="45.0275883" lon="11.6400017"><ele>6.0</ele><time>2026-03-22T09:28:32.167Z</time></trkpt><trkpt lat="45.0275583" lon="11.640085"><ele>6.0</ele><time>2026-03-22T09:28:33.162Z</time></trkpt><trkpt lat="45.0275267" lon="11.6401667"><ele>6.0</ele><time>2026-03-22T09:28:34.166Z</time></trkpt><trkpt lat="45.0274933" lon="11.640245"><ele>6.0</ele><time>2026-03-22T09:28:35.164Z</time></trkpt><trkpt lat="45.02746" lon="11.640325"><ele>6.0</ele><time>2026-03-22T09:28:36.165Z</time></trkpt><trkpt lat="45.0274283" lon="11.6404033"><ele>6.0</ele><time>2026-03-22T09:28:37.166Z</time></trkpt><trkpt lat="45.0273733" lon="11.64055"><ele>6.0</ele><time>2026-03-22T09:28:39.147Z</time></trkpt><trkpt lat="45.0273183" lon="11.6406883"><ele>6.199999999999999</ele><time>2026-03-22T09:28:41.165Z</time></trkpt><trkpt lat="45.0272667" lon="11.6408217"><ele>6.3999999999999995</ele><time>2026-03-22T09:28:43.165Z</time></trkpt><trkpt lat="45.0272183" lon="11.6409533"><ele>6.6</ele><time>2026-03-22T09:28:45.166Z</time></trkpt><trkpt lat="45.0271583" lon="11.6411033"><ele>6.8</ele><time>2026-03-22T09:28:47.162Z</time></trkpt><trkpt lat="45.0271267" lon="11.6411817"><ele>7.0</ele><time>2026-03-22T09:28:48.162Z</time></trkpt><trkpt lat="45.02709" lon="11.6412633"><ele>7.0</ele><time>2026-03-22T09:28:49.163Z</time></trkpt><trkpt lat="45.0270533" lon="11.6413483"><ele>7.0</ele><time>2026-03-22T09:28:50.159Z</time></trkpt><trkpt lat="45.0270183" lon="11.6414367"><ele>7.0</ele><time>2026-03-22T09:28:51.159Z</time></trkpt><trkpt lat="45.0269817" lon="11.6415267"><ele>7.0</ele><time>2026-03-22T09:28:52.162Z</time></trkpt><trkpt lat="45.0269467" lon="11.6416133"><ele>7.0</ele><time>2026-03-22T09:28:53.163Z</time></trkpt><trkpt lat="45.0269133" lon="11.6417033"><ele>7.0</ele><time>2026-03-22T09:28:54.164Z</time></trkpt><trkpt lat="45.0268833" lon="11.64179"><ele>7.0</ele><time>2026-03-22T09:28:55.155Z</time></trkpt><trkpt lat="45.026855" lon="11.64188"><ele>7.0</ele><time>2026-03-22T09:28:56.162Z</time></trkpt><trkpt lat="45.0268283" lon="11.6419717"><ele>7.0</ele><time>2026-03-22T09:28:57.16Z</time></trkpt><trkpt lat="45.0268033" lon="11.6420633"><ele>7.0</ele><time>2026-03-22T09:28:58.164Z</time></trkpt><trkpt lat="45.0267767" lon="11.642155"><ele>7.0</ele><time>2026-03-22T09:28:59.158Z</time></trkpt><trkpt lat="45.0267533" lon="11.6422483"><ele>7.0</ele><time>2026-03-22T09:29:00.144Z</time></trkpt><trkpt lat="45.0267317" lon="11.6423433"><ele>7.0</ele><time>2026-03-22T09:29:01.152Z</time></trkpt><trkpt lat="45.026715" lon="11.6424383"><ele>7.0</ele><time>2026-03-22T09:29:02.167Z</time></trkpt><trkpt lat="45.0266967" lon="11.6425333"><ele>7.0</ele><time>2026-03-22T09:29:03.165Z</time></trkpt><trkpt lat="45.0266783" lon="11.6426283"><ele>7.0</ele><time>2026-03-22T09:29:04.168Z</time></trkpt><trkpt lat="45.0266617" lon="11.6427217"><ele>7.0</ele><time>2026-03-22T09:29:05.165Z</time></trkpt><trkpt lat="45.0266467" lon="11.642815"><ele>7.0</ele><time>2026-03-22T09:29:06.168Z</time></trkpt><trkpt lat="45.0266333" lon="11.6429083"><ele>7.0</ele><time>2026-03-22T09:29:07.163Z</time></trkpt><trkpt lat="45.0266217" lon="11.6430033"><ele>7.0</ele><time>2026-03-22T09:29:08.165Z</time></trkpt><trkpt lat="45.0266117" lon="11.6430983"><ele>7.0</ele><time>2026-03-22T09:29:09.166Z</time></trkpt><trkpt lat="45.026605" lon="11.6431933"><ele>7.000000000000001</ele><time>2026-03-22T09:29:10.164Z</time></trkpt><trkpt lat="45.0265983" lon="11.6432867"><ele>7.0</ele><time>2026-03-22T09:29:11.161Z</time></trkpt><trkpt lat="45.0265967" lon="11.64338"><ele>7.0</ele><time>2026-03-22T09:29:12.164Z</time></trkpt><trkpt lat="45.0265933" lon="11.6434733"><ele>7.0</ele><time>2026-03-22T09:29:13.165Z</time></trkpt><trkpt lat="45.0265917" lon="11.643645"><ele>7.000000000000001</ele><time>2026-03-22T09:29:15.15Z</time></trkpt><trkpt lat="45.0265967" lon="11.6438017"><ele>7.0</ele><time>2026-03-22T09:29:17.138Z</time></trkpt><trkpt lat="45.0266017" lon="11.6439533"><ele>6.6</ele><time>2026-03-22T09:29:19.154Z</time></trkpt><trkpt lat="45.0266083" lon="11.6441017"><ele>6.199999999999999</ele><time>2026-03-22T09:29:21.136Z</time></trkpt><trkpt lat="45.0266133" lon="11.644255"><ele>5.8</ele><time>2026-03-22T09:29:23.155Z</time></trkpt><trkpt lat="45.0266167" lon="11.6444083"><ele>5.4</ele><time>2026-03-22T09:29:25.171Z</time></trkpt><trkpt lat="45.0266217" lon="11.64457"><ele>5.0</ele><time>2026-03-22T09:29:27.163Z</time></trkpt><trkpt lat="45.0266283" lon="11.6447317"><ele>5.0</ele><time>2026-03-22T09:29:29.172Z</time></trkpt><trkpt lat="45.0266333" lon="11.6448883"><ele>5.0</ele><time>2026-03-22T09:29:31.166Z</time></trkpt><trkpt lat="45.026635" lon="11.6450483"><ele>5.0</ele><time>2026-03-22T09:29:33.164Z</time></trkpt><trkpt lat="45.026645" lon="11.645215"><ele>5.0</ele><time>2026-03-22T09:29:35.155Z</time></trkpt><trkpt lat="45.02665" lon="11.6453867"><ele>5.25</ele><time>2026-03-22T09:29:37.165Z</time></trkpt><trkpt lat="45.0266567" lon="11.6455567"><ele>5.5</ele><time>2026-03-22T09:29:39.168Z</time></trkpt><trkpt lat="45.0266617" lon="11.6457217"><ele>5.75</ele><time>2026-03-22T09:29:41.167Z</time></trkpt><trkpt lat="45.0266667" lon="11.64589"><ele>6.0</ele><time>2026-03-22T09:29:43.162Z</time></trkpt><trkpt lat="45.026675" lon="11.6460567"><ele>6.0</ele><time>2026-03-22T09:29:45.16Z</time></trkpt><trkpt lat="45.026685" lon="11.6462217"><ele>6.0</ele><time>2026-03-22T09:29:47.159Z</time></trkpt><trkpt lat="45.0266883" lon="11.646385"><ele>6.0</ele><time>2026-03-22T09:29:49.163Z</time></trkpt><trkpt lat="45.0266933" lon="11.64653"><ele>6.0</ele><time>2026-03-22T09:29:51.151Z</time></trkpt><trkpt lat="45.0267" lon="11.646645"><ele>6.0</ele><time>2026-03-22T09:29:53.137Z</time></trkpt><trkpt lat="45.026715" lon="11.6467633"><ele>5.999999999999999</ele><time>2026-03-22T09:29:56.166Z</time></trkpt><trkpt lat="45.0267233" lon="11.6468733"><ele>6.0</ele><time>2026-03-22T09:29:59.143Z</time></trkpt><trkpt lat="45.02672" lon="11.64697"><ele>6.0</ele><time>2026-03-22T09:30:01.156Z</time></trkpt><trkpt lat="45.026725" lon="11.6470783"><ele>6.0</ele><time>2026-03-22T09:30:03.16Z</time></trkpt><trkpt lat="45.0267333" lon="11.64718"><ele>6.0</ele><time>2026-03-22T09:30:05.152Z</time></trkpt><trkpt lat="45.0267517" lon="11.6472733"><ele>5.999999999999999</ele><time>2026-03-22T09:30:07.165Z</time></trkpt><trkpt lat="45.0267967" lon="11.647345"><ele>6.0</ele><time>2026-03-22T09:30:09.166Z</time></trkpt><trkpt lat="45.0268683" lon="11.6473783"><ele>6.0</ele><time>2026-03-22T09:30:11.164Z</time></trkpt><trkpt lat="45.0269617" lon="11.6473983"><ele>6.0</ele><time>2026-03-22T09:30:13.165Z</time></trkpt><trkpt lat="45.027065" lon="11.64742"><ele>6.0</ele><time>2026-03-22T09:30:15.153Z</time></trkpt><trkpt lat="45.0271683" lon="11.64746"><ele>6.0</ele><time>2026-03-22T09:30:17.166Z</time></trkpt><trkpt lat="45.0272633" lon="11.6475017"><ele>6.0</ele><time>2026-03-22T09:30:19.161Z</time></trkpt><trkpt lat="45.027355" lon="11.6475417"><ele>6.0</ele><time>2026-03-22T09:30:21.163Z</time></trkpt><trkpt lat="45.02744" lon="11.6475783"><ele>6.0</ele><time>2026-03-22T09:30:23.166Z</time></trkpt><trkpt lat="45.0275183" lon="11.64761"><ele>6.0</ele><time>2026-03-22T09:30:25.137Z</time></trkpt><trkpt lat="45.0276017" lon="11.6476433"><ele>6.0</ele><time>2026-03-22T09:30:27.162Z</time></trkpt><trkpt lat="45.0276983" lon="11.64768"><ele>6.0</ele><time>2026-03-22T09:30:29.158Z</time></trkpt><trkpt lat="45.0278033" lon="11.6477183"><ele>6.0</ele><time>2026-03-22T09:30:31.158Z</time></trkpt><trkpt lat="45.0279117" lon="11.6477567"><ele>6.0</ele><time>2026-03-22T09:30:33.158Z</time></trkpt><trkpt lat="45.0280233" lon="11.6478017"><ele>6.0</ele><time>2026-03-22T09:30:35.163Z</time></trkpt><trkpt lat="45.028085" lon="11.647825"><ele>6.0</ele><time>2026-03-22T09:30:36.138Z</time></trkpt><trkpt lat="45.0282" lon="11.647875"><ele>6.0</ele><time>2026-03-22T09:30:38.168Z</time></trkpt><trkpt lat="45.0283217" lon="11.6479267"><ele>6.25</ele><time>2026-03-22T09:30:40.163Z</time></trkpt><trkpt lat="45.0284417" lon="11.647975"><ele>6.5</ele><time>2026-03-22T09:30:42.17Z</time></trkpt><trkpt lat="45.0285583" lon="11.6480233"><ele>6.75</ele><time>2026-03-22T09:30:44.165Z</time></trkpt><trkpt lat="45.0286733" lon="11.6480733"><ele>7.0</ele><time>2026-03-22T09:30:46.163Z</time></trkpt><trkpt lat="45.028795" lon="11.6481233"><ele>7.000000000000001</ele><time>2026-03-22T09:30:48.164Z</time></trkpt><trkpt lat="45.0288567" lon="11.64815"><ele>7.0</ele><time>2026-03-22T09:30:49.167Z</time></trkpt><trkpt lat="45.0289183" lon="11.6481783"><ele>7.0</ele><time>2026-03-22T09:30:50.166Z</time></trkpt><trkpt lat="45.02898" lon="11.6482033"><ele>7.0</ele><time>2026-03-22T09:30:51.165Z</time></trkpt><trkpt lat="45.029095" lon="11.6482533"><ele>7.000000000000001</ele><time>2026-03-22T09:30:53.16Z</time></trkpt><trkpt lat="45.029205" lon="11.6483067"><ele>7.0</ele><time>2026-03-22T09:30:55.166Z</time></trkpt><trkpt lat="45.0293133" lon="11.6483617"><ele>7.0</ele><time>2026-03-22T09:30:57.141Z</time></trkpt><trkpt lat="45.0294217" lon="11.6484217"><ele>7.0</ele><time>2026-03-22T09:30:59.164Z</time></trkpt><trkpt lat="45.0295367" lon="11.6484883"><ele>7.0</ele><time>2026-03-22T09:31:01.165Z</time></trkpt><trkpt lat="45.029645" lon="11.6485633"><ele>7.0</ele><time>2026-03-22T09:31:03.164Z</time></trkpt><trkpt lat="45.0297467" lon="11.648655"><ele>7.0</ele><time>2026-03-22T09:31:05.153Z</time></trkpt><trkpt lat="45.0298417" lon="11.6487517"><ele>6.999999999999999</ele><time>2026-03-22T09:31:07.159Z</time></trkpt><trkpt lat="45.0299317" lon="11.6488517"><ele>6.999999999999999</ele><time>2026-03-22T09:31:09.163Z</time></trkpt><trkpt lat="45.0300183" lon="11.6489467"><ele>7.0</ele><time>2026-03-22T09:31:11.164Z</time></trkpt><trkpt lat="45.0301017" lon="11.64904"><ele>7.0</ele><time>2026-03-22T09:31:13.164Z</time></trkpt><trkpt lat="45.0301833" lon="11.64913"><ele>7.0</ele><time>2026-03-22T09:31:15.166Z</time></trkpt><trkpt lat="45.03027" lon="11.6492267"><ele>6.999999999999999</ele><time>2026-03-22T09:31:17.166Z</time></trkpt><trkpt lat="45.0303667" lon="11.6493367"><ele>6.999999999999999</ele><time>2026-03-22T09:31:19.162Z</time></trkpt><trkpt lat="45.0304667" lon="11.64944"><ele>7.0</ele><time>2026-03-22T09:31:21.166Z</time></trkpt><trkpt lat="45.0305217" lon="11.64949"><ele>7.0</ele><time>2026-03-22T09:31:22.164Z</time></trkpt><trkpt lat="45.030575" lon="11.6495417"><ele>6.714285714285714</ele><time>2026-03-22T09:31:23.162Z</time></trkpt><trkpt lat="45.0306317" lon="11.64959"><ele>6.428571428571429</ele><time>2026-03-22T09:31:24.157Z</time></trkpt><trkpt lat="45.0306883" lon="11.64964"><ele>6.142857142857142</ele><time>2026-03-22T09:31:25.16Z</time></trkpt><trkpt lat="45.0307467" lon="11.64969"><ele>5.857142857142858</ele><time>2026-03-22T09:31:26.165Z</time></trkpt><trkpt lat="45.0308067" lon="11.6497367"><ele>5.571428571428571</ele><time>2026-03-22T09:31:27.159Z</time></trkpt><trkpt lat="45.0308683" lon="11.64978"><ele>5.285714285714286</ele><time>2026-03-22T09:31:28.164Z</time></trkpt><trkpt lat="45.0309267" lon="11.6498167"><ele>5.0</ele><time>2026-03-22T09:31:29.14Z</time></trkpt><trkpt lat="45.03104" lon="11.6498783"><ele>5.0</ele><time>2026-03-22T09:31:31.159Z</time></trkpt><trkpt lat="45.0311517" lon="11.64993"><ele>5.0</ele><time>2026-03-22T09:31:33.162Z</time></trkpt><trkpt lat="45.0312617" lon="11.649975"><ele>5.0</ele><time>2026-03-22T09:31:35.16Z</time></trkpt><trkpt lat="45.031375" lon="11.65002"><ele>5.0</ele><time>2026-03-22T09:31:37.165Z</time></trkpt><trkpt lat="45.0314883" lon="11.65006"><ele>5.0</ele><time>2026-03-22T09:31:39.162Z</time></trkpt><trkpt lat="45.0316067" lon="11.650105"><ele>5.0</ele><time>2026-03-22T09:31:41.16Z</time></trkpt><trkpt lat="45.031725" lon="11.650145"><ele>5.0</ele><time>2026-03-22T09:31:43.161Z</time></trkpt><trkpt lat="45.03184" lon="11.6501933"><ele>5.0</ele><time>2026-03-22T09:31:45.158Z</time></trkpt><trkpt lat="45.031955" lon="11.6502367"><ele>5.0</ele><time>2026-03-22T09:31:47.165Z</time></trkpt><trkpt lat="45.0320167" lon="11.6502617"><ele>5.0</ele><time>2026-03-22T09:31:48.173Z</time></trkpt><trkpt lat="45.0321383" lon="11.6503083"><ele>5.0</ele><time>2026-03-22T09:31:50.166Z</time></trkpt><trkpt lat="45.0322" lon="11.65033"><ele>5.0</ele><time>2026-03-22T09:31:51.131Z</time></trkpt><trkpt lat="45.032315" lon="11.6503733"><ele>5.0</ele><time>2026-03-22T09:31:53.152Z</time></trkpt><trkpt lat="45.03243" lon="11.6504167"><ele>5.25</ele><time>2026-03-22T09:31:55.164Z</time></trkpt><trkpt lat="45.0325483" lon="11.65046"><ele>5.5</ele><time>2026-03-22T09:31:57.163Z</time></trkpt><trkpt lat="45.032665" lon="11.6505033"><ele>5.75</ele><time>2026-03-22T09:31:59.166Z</time></trkpt><trkpt lat="45.032785" lon="11.6505433"><ele>6.0</ele><time>2026-03-22T09:32:01.153Z</time></trkpt><trkpt lat="45.032905" lon="11.6505833"><ele>6.0</ele><time>2026-03-22T09:32:03.167Z</time></trkpt><trkpt lat="45.033025" lon="11.6506217"><ele>6.0</ele><time>2026-03-22T09:32:05.155Z</time></trkpt><trkpt lat="45.0331483" lon="11.6506583"><ele>6.0</ele><time>2026-03-22T09:32:07.158Z</time></trkpt><trkpt lat="45.03327" lon="11.65069"><ele>6.0</ele><time>2026-03-22T09:32:09.143Z</time></trkpt><trkpt lat="45.03339" lon="11.6507167"><ele>5.3999999999999995</ele><time>2026-03-22T09:32:11.165Z</time></trkpt><trkpt lat="45.0334533" lon="11.6507267"><ele>4.8</ele><time>2026-03-22T09:32:12.165Z</time></trkpt><trkpt lat="45.0335783" lon="11.6507483"><ele>4.199999999999999</ele><time>2026-03-22T09:32:14.166Z</time></trkpt><trkpt lat="45.0336417" lon="11.6507567"><ele>3.5999999999999996</ele><time>2026-03-22T09:32:15.161Z</time></trkpt><trkpt lat="45.033765" lon="11.65077"><ele>3.0</ele><time>2026-03-22T09:32:17.164Z</time></trkpt><trkpt lat="45.033885" lon="11.650785"><ele>3.0</ele><time>2026-03-22T09:32:19.166Z</time></trkpt><trkpt lat="45.0339967" lon="11.6507983"><ele>3.0</ele><time>2026-03-22T09:32:21.162Z</time></trkpt><trkpt lat="45.0341117" lon="11.65081"><ele>3.0</ele><time>2026-03-22T09:32:23.165Z</time></trkpt><trkpt lat="45.0342367" lon="11.65082"><ele>3.0</ele><time>2026-03-22T09:32:25.148Z</time></trkpt><trkpt lat="45.0343" lon="11.6508217"><ele>3.0</ele><time>2026-03-22T09:32:26.156Z</time></trkpt><trkpt lat="45.034425" lon="11.6508283"><ele>3.25</ele><time>2026-03-22T09:32:28.158Z</time></trkpt><trkpt lat="45.0345517" lon="11.6508383"><ele>3.5</ele><time>2026-03-22T09:32:30.166Z</time></trkpt><trkpt lat="45.034675" lon="11.650845"><ele>3.75</ele><time>2026-03-22T09:32:32.158Z</time></trkpt><trkpt lat="45.0347917" lon="11.6508567"><ele>4.0</ele><time>2026-03-22T09:32:34.163Z</time></trkpt><trkpt lat="45.0349083" lon="11.6508617"><ele>3.8000000000000003</ele><time>2026-03-22T09:32:36.164Z</time></trkpt><trkpt lat="45.0350217" lon="11.6508667"><ele>3.6000000000000005</ele><time>2026-03-22T09:32:38.145Z</time></trkpt><trkpt lat="45.0351317" lon="11.65087"><ele>3.4</ele><time>2026-03-22T09:32:40.156Z</time></trkpt><trkpt lat="45.0352417" lon="11.6508733"><ele>3.2</ele><time>2026-03-22T09:32:42.163Z</time></trkpt><trkpt lat="45.0353467" lon="11.6508783"><ele>3.0</ele><time>2026-03-22T09:32:44.206Z</time></trkpt><trkpt lat="45.0354517" lon="11.650885"><ele>3.0</ele><time>2026-03-22T09:32:46.164Z</time></trkpt><trkpt lat="45.0355533" lon="11.65089"><ele>3.0</ele><time>2026-03-22T09:32:48.165Z</time></trkpt><trkpt lat="45.035655" lon="11.6509"><ele>3.0</ele><time>2026-03-22T09:32:50.168Z</time></trkpt><trkpt lat="45.0357617" lon="11.650915"><ele>3.0</ele><time>2026-03-22T09:32:52.168Z</time></trkpt><trkpt lat="45.03587" lon="11.650945"><ele>3.0</ele><time>2026-03-22T09:32:54.159Z</time></trkpt><trkpt lat="45.0359817" lon="11.65098"><ele>3.0</ele><time>2026-03-22T09:32:56.164Z</time></trkpt><trkpt lat="45.0360967" lon="11.6510133"><ele>3.0</ele><time>2026-03-22T09:32:58.165Z</time></trkpt><trkpt lat="45.03621" lon="11.6510517"><ele>3.0</ele><time>2026-03-22T09:33:00.167Z</time></trkpt><trkpt lat="45.0363233" lon="11.651095"><ele>3.0</ele><time>2026-03-22T09:33:02.168Z</time></trkpt><trkpt lat="45.036435" lon="11.6511417"><ele>3.2</ele><time>2026-03-22T09:33:04.153Z</time></trkpt><trkpt lat="45.0365417" lon="11.651185"><ele>3.4</ele><time>2026-03-22T09:33:06.158Z</time></trkpt><trkpt lat="45.0366433" lon="11.6512267"><ele>3.6000000000000005</ele><time>2026-03-22T09:33:08.173Z</time></trkpt><trkpt lat="45.036745" lon="11.6512683"><ele>3.8000000000000003</ele><time>2026-03-22T09:33:10.162Z</time></trkpt><trkpt lat="45.036845" lon="11.65131"><ele>4.0</ele><time>2026-03-22T09:33:12.166Z</time></trkpt><trkpt lat="45.0369583" lon="11.6513617"><ele>4.0</ele><time>2026-03-22T09:33:14.164Z</time></trkpt><trkpt lat="45.03702" lon="11.6513867"><ele>3.9999999999999996</ele><time>2026-03-22T09:33:15.138Z</time></trkpt><trkpt lat="45.0370833" lon="11.6514117"><ele>4.0</ele><time>2026-03-22T09:33:16.148Z</time></trkpt><trkpt lat="45.0371483" lon="11.6514417"><ele>4.0</ele><time>2026-03-22T09:33:17.165Z</time></trkpt><trkpt lat="45.037215" lon="11.6514683"><ele>3.9999999999999996</ele><time>2026-03-22T09:33:18.164Z</time></trkpt><trkpt lat="45.0372783" lon="11.6514967"><ele>4.0</ele><time>2026-03-22T09:33:19.168Z</time></trkpt><trkpt lat="45.0373433" lon="11.6515233"><ele>4.0</ele><time>2026-03-22T09:33:20.167Z</time></trkpt><trkpt lat="45.0374117" lon="11.6515517"><ele>3.9999999999999996</ele><time>2026-03-22T09:33:21.159Z</time></trkpt><trkpt lat="45.0374767" lon="11.6515817"><ele>4.0</ele><time>2026-03-22T09:33:22.164Z</time></trkpt><trkpt lat="45.037545" lon="11.6516067"><ele>4.0</ele><time>2026-03-22T09:33:23.159Z</time></trkpt><trkpt lat="45.0376067" lon="11.65163"><ele>4.0</ele><time>2026-03-22T09:33:24.159Z</time></trkpt><trkpt lat="45.0377117" lon="11.6516733"><ele>3.9999999999999996</ele><time>2026-03-22T09:33:26.133Z</time></trkpt><trkpt lat="45.037805" lon="11.6517283"><ele>4.0</ele><time>2026-03-22T09:33:28.16Z</time></trkpt><trkpt lat="45.03789" lon="11.651785"><ele>3.9999999999999996</ele><time>2026-03-22T09:33:30.167Z</time></trkpt><trkpt lat="45.0379733" lon="11.6518417"><ele>4.0</ele><time>2026-03-22T09:33:32.164Z</time></trkpt><trkpt lat="45.0380483" lon="11.6518933"><ele>4.0</ele><time>2026-03-22T09:33:34.136Z</time></trkpt><trkpt lat="45.0381167" lon="11.6519433"><ele>4.0</ele><time>2026-03-22T09:33:36.137Z</time></trkpt><trkpt lat="45.0381867" lon="11.652005"><ele>3.9999999999999996</ele><time>2026-03-22T09:33:38.153Z</time></trkpt><trkpt lat="45.038255" lon="11.6520767"><ele>4.0</ele><time>2026-03-22T09:33:40.14Z</time></trkpt><trkpt lat="45.0383333" lon="11.6521583"><ele>4.0</ele><time>2026-03-22T09:33:42.157Z</time></trkpt><trkpt lat="45.03841" lon="11.65225"><ele>4.0</ele><time>2026-03-22T09:33:44.163Z</time></trkpt><trkpt lat="45.0384867" lon="11.65234"><ele>4.0</ele><time>2026-03-22T09:33:46.158Z</time></trkpt><trkpt lat="45.0385567" lon="11.6524167"><ele>4.0</ele><time>2026-03-22T09:33:48.16Z</time></trkpt><trkpt lat="45.03862" lon="11.6524833"><ele>4.0</ele><time>2026-03-22T09:33:51.154Z</time></trkpt><trkpt lat="45.0386917" lon="11.6525767"><ele>4.0</ele><time>2026-03-22T09:33:54.161Z</time></trkpt><trkpt lat="45.0387467" lon="11.652675"><ele>4.0</ele><time>2026-03-22T09:33:56.161Z</time></trkpt><trkpt lat="45.0388183" lon="11.6527767"><ele>4.0</ele><time>2026-03-22T09:33:58.141Z</time></trkpt><trkpt lat="45.038895" lon="11.652895"><ele>4.0</ele><time>2026-03-22T09:34:00.161Z</time></trkpt><trkpt lat="45.038975" lon="11.6530233"><ele>4.0</ele><time>2026-03-22T09:34:02.166Z</time></trkpt><trkpt lat="45.0390483" lon="11.653165"><ele>4.0</ele><time>2026-03-22T09:34:04.17Z</time></trkpt><trkpt lat="45.03908" lon="11.6532433"><ele>3.9999999999999996</ele><time>2026-03-22T09:34:05.162Z</time></trkpt><trkpt lat="45.0391267" lon="11.6534083"><ele>4.0</ele><time>2026-03-22T09:34:07.146Z</time></trkpt><trkpt lat="45.039145" lon="11.6534967"><ele>4.0</ele><time>2026-03-22T09:34:08.138Z</time></trkpt><trkpt lat="45.0391617" lon="11.653585"><ele>3.9999999999999996</ele><time>2026-03-22T09:34:09.16Z</time></trkpt><trkpt lat="45.0391767" lon="11.6536717"><ele>4.0</ele><time>2026-03-22T09:34:10.163Z</time></trkpt><trkpt lat="45.0391917" lon="11.6537583"><ele>4.0</ele><time>2026-03-22T09:34:11.164Z</time></trkpt><trkpt lat="45.0392033" lon="11.6538467"><ele>4.0</ele><time>2026-03-22T09:34:12.165Z</time></trkpt><trkpt lat="45.039215" lon="11.6539367"><ele>4.0</ele><time>2026-03-22T09:34:13.164Z</time></trkpt><trkpt lat="45.0392233" lon="11.6540267"><ele>4.0</ele><time>2026-03-22T09:34:14.16Z</time></trkpt><trkpt lat="45.03924" lon="11.6541983"><ele>4.0</ele><time>2026-03-22T09:34:16.166Z</time></trkpt><trkpt lat="45.0392483" lon="11.654365"><ele>4.0</ele><time>2026-03-22T09:34:18.164Z</time></trkpt><trkpt lat="45.0392517" lon="11.6545317"><ele>4.0</ele><time>2026-03-22T09:34:20.154Z</time></trkpt><trkpt lat="45.0392483" lon="11.6546967"><ele>4.0</ele><time>2026-03-22T09:34:22.162Z</time></trkpt><trkpt lat="45.03925" lon="11.654865"><ele>4.0</ele><time>2026-03-22T09:34:24.155Z</time></trkpt><trkpt lat="45.0392633" lon="11.6550367"><ele>4.0</ele><time>2026-03-22T09:34:26.13Z</time></trkpt><trkpt lat="45.0392717" lon="11.655125"><ele>4.0</ele><time>2026-03-22T09:34:27.164Z</time></trkpt><trkpt lat="45.0392883" lon="11.6553"><ele>3.75</ele><time>2026-03-22T09:34:29.142Z</time></trkpt><trkpt lat="45.0393083" lon="11.6554667"><ele>3.5</ele><time>2026-03-22T09:34:31.162Z</time></trkpt><trkpt lat="45.0393317" lon="11.6556333"><ele>3.25</ele><time>2026-03-22T09:34:33.16Z</time></trkpt><trkpt lat="45.0393533" lon="11.6558"><ele>3.0</ele><time>2026-03-22T09:34:35.163Z</time></trkpt><trkpt lat="45.0393733" lon="11.655965"><ele>3.5</ele><time>2026-03-22T09:34:37.155Z</time></trkpt><trkpt lat="45.039395" lon="11.656125"><ele>4.0</ele><time>2026-03-22T09:34:39.141Z</time></trkpt><trkpt lat="45.0394183" lon="11.6562833"><ele>4.5</ele><time>2026-03-22T09:34:41.153Z</time></trkpt><trkpt lat="45.0394433" lon="11.6564433"><ele>5.0</ele><time>2026-03-22T09:34:43.158Z</time></trkpt><trkpt lat="45.0394683" lon="11.656605"><ele>5.0</ele><time>2026-03-22T09:34:45.166Z</time></trkpt><trkpt lat="45.0394883" lon="11.6567683"><ele>5.0</ele><time>2026-03-22T09:34:47.163Z</time></trkpt><trkpt lat="45.03951" lon="11.656935"><ele>5.0</ele><time>2026-03-22T09:34:49.164Z</time></trkpt><trkpt lat="45.0395283" lon="11.6571017"><ele>5.0</ele><time>2026-03-22T09:34:51.139Z</time></trkpt><trkpt lat="45.0395467" lon="11.65727"><ele>4.75</ele><time>2026-03-22T09:34:53.155Z</time></trkpt><trkpt lat="45.0395617" lon="11.6574317"><ele>4.5</ele><time>2026-03-22T09:34:55.166Z</time></trkpt><trkpt lat="45.0395783" lon="11.6575883"><ele>4.25</ele><time>2026-03-22T09:34:57.165Z</time></trkpt><trkpt lat="45.039595" lon="11.6577517"><ele>4.0</ele><time>2026-03-22T09:34:59.164Z</time></trkpt><trkpt lat="45.03961" lon="11.6579217"><ele>4.0</ele><time>2026-03-22T09:35:01.167Z</time></trkpt><trkpt lat="45.0396267" lon="11.658095"><ele>4.0</ele><time>2026-03-22T09:35:03.156Z</time></trkpt><trkpt lat="45.0396383" lon="11.6582717"><ele>4.0</ele><time>2026-03-22T09:35:05.163Z</time></trkpt><trkpt lat="45.039645" lon="11.6583617"><ele>4.0</ele><time>2026-03-22T09:35:06.164Z</time></trkpt><trkpt lat="45.03965" lon="11.6584517"><ele>4.0</ele><time>2026-03-22T09:35:07.162Z</time></trkpt><trkpt lat="45.0396633" lon="11.6586267"><ele>4.0</ele><time>2026-03-22T09:35:09.165Z</time></trkpt><trkpt lat="45.039675" lon="11.658795"><ele>4.0</ele><time>2026-03-22T09:35:11.161Z</time></trkpt><trkpt lat="45.0396883" lon="11.6589667"><ele>4.0</ele><time>2026-03-22T09:35:13.156Z</time></trkpt><trkpt lat="45.0397" lon="11.659125"><ele>4.0</ele><time>2026-03-22T09:35:15.165Z</time></trkpt><trkpt lat="45.03971" lon="11.6592717"><ele>4.0</ele><time>2026-03-22T09:35:17.164Z</time></trkpt><trkpt lat="45.0397167" lon="11.6594117"><ele>4.0</ele><time>2026-03-22T09:35:19.164Z</time></trkpt><trkpt lat="45.03973" lon="11.6595583"><ele>4.0</ele><time>2026-03-22T09:35:21.157Z</time></trkpt><trkpt lat="45.03975" lon="11.659705"><ele>4.0</ele><time>2026-03-22T09:35:23.161Z</time></trkpt><trkpt lat="45.0397933" lon="11.6598567"><ele>4.0</ele><time>2026-03-22T09:35:25.166Z</time></trkpt><trkpt lat="45.03986" lon="11.6599983"><ele>4.0</ele><time>2026-03-22T09:35:27.164Z</time></trkpt><trkpt lat="45.0399533" lon="11.660115"><ele>4.0</ele><time>2026-03-22T09:35:29.167Z</time></trkpt><trkpt lat="45.0400667" lon="11.6601883"><ele>4.0</ele><time>2026-03-22T09:35:31.168Z</time></trkpt><trkpt lat="45.040185" lon="11.66022"><ele>4.0</ele><time>2026-03-22T09:35:33.154Z</time></trkpt><trkpt lat="45.0403033" lon="11.6602283"><ele>4.25</ele><time>2026-03-22T09:35:35.164Z</time></trkpt><trkpt lat="45.0404167" lon="11.66023"><ele>4.5</ele><time>2026-03-22T09:35:37.166Z</time></trkpt><trkpt lat="45.0405333" lon="11.6602317"><ele>4.75</ele><time>2026-03-22T09:35:39.163Z</time></trkpt><trkpt lat="45.04065" lon="11.660235"><ele>5.0</ele><time>2026-03-22T09:35:41.162Z</time></trkpt><trkpt lat="45.0407617" lon="11.6602383"><ele>4.75</ele><time>2026-03-22T09:35:43.166Z</time></trkpt><trkpt lat="45.0408717" lon="11.6602433"><ele>4.5</ele><time>2026-03-22T09:35:45.166Z</time></trkpt><trkpt lat="45.04098" lon="11.6602517"><ele>4.25</ele><time>2026-03-22T09:35:47.164Z</time></trkpt><trkpt lat="45.0410933" lon="11.660255"><ele>4.0</ele><time>2026-03-22T09:35:49.14Z</time></trkpt><trkpt lat="45.0412167" lon="11.6602533"><ele>4.0</ele><time>2026-03-22T09:35:51.167Z</time></trkpt><trkpt lat="45.04128" lon="11.660255"><ele>4.0</ele><time>2026-03-22T09:35:52.166Z</time></trkpt><trkpt lat="45.0413433" lon="11.6602567"><ele>4.0</ele><time>2026-03-22T09:35:53.164Z</time></trkpt><trkpt lat="45.0414617" lon="11.6602633"><ele>4.0</ele><time>2026-03-22T09:35:55.166Z</time></trkpt><trkpt lat="45.041575" lon="11.6602783"><ele>4.0</ele><time>2026-03-22T09:35:57.172Z</time></trkpt><trkpt lat="45.041685" lon="11.6603167"><ele>4.2</ele><time>2026-03-22T09:35:59.163Z</time></trkpt><trkpt lat="45.0417783" lon="11.6603833"><ele>4.4</ele><time>2026-03-22T09:36:01.168Z</time></trkpt><trkpt lat="45.04185" lon="11.6604867"><ele>4.6</ele><time>2026-03-22T09:36:03.166Z</time></trkpt><trkpt lat="45.0418917" lon="11.6606233"><ele>4.8</ele><time>2026-03-22T09:36:05.138Z</time></trkpt><trkpt lat="45.0419017" lon="11.6607867"><ele>5.0</ele><time>2026-03-22T09:36:07.166Z</time></trkpt><trkpt lat="45.0418767" lon="11.6609533"><ele>5.0</ele><time>2026-03-22T09:36:09.17Z</time></trkpt><trkpt lat="45.0418483" lon="11.6611183"><ele>5.0</ele><time>2026-03-22T09:36:11.139Z</time></trkpt><trkpt lat="45.04182" lon="11.6612867"><ele>5.0</ele><time>2026-03-22T09:36:13.168Z</time></trkpt><trkpt lat="45.0418083" lon="11.6614333"><ele>5.0</ele><time>2026-03-22T09:36:15.167Z</time></trkpt><trkpt lat="45.0418033" lon="11.6615667"><ele>5.0</ele><time>2026-03-22T09:36:17.159Z</time></trkpt><trkpt lat="45.0418067" lon="11.6617017"><ele>5.0</ele><time>2026-03-22T09:36:19.165Z</time></trkpt><trkpt lat="45.0418167" lon="11.6618483"><ele>5.0</ele><time>2026-03-22T09:36:21.129Z</time></trkpt><trkpt lat="45.0418333" lon="11.6620033"><ele>5.0</ele><time>2026-03-22T09:36:23.165Z</time></trkpt><trkpt lat="45.04185" lon="11.6621583"><ele>5.0</ele><time>2026-03-22T09:36:25.165Z</time></trkpt><trkpt lat="45.0418583" lon="11.662315"><ele>5.0</ele><time>2026-03-22T09:36:27.143Z</time></trkpt><trkpt lat="45.0418517" lon="11.66247"><ele>5.0</ele><time>2026-03-22T09:36:29.152Z</time></trkpt><trkpt lat="45.0418317" lon="11.6626283"><ele>5.0</ele><time>2026-03-22T09:36:31.139Z</time></trkpt><trkpt lat="45.04181" lon="11.6627967"><ele>5.0</ele><time>2026-03-22T09:36:33.141Z</time></trkpt><trkpt lat="45.041785" lon="11.662955"><ele>5.0</ele><time>2026-03-22T09:36:35.148Z</time></trkpt><trkpt lat="45.0417567" lon="11.663125"><ele>4.75</ele><time>2026-03-22T09:36:37.131Z</time></trkpt><trkpt lat="45.0417283" lon="11.66329"><ele>4.5</ele><time>2026-03-22T09:36:39.164Z</time></trkpt><trkpt lat="45.0416933" lon="11.66345"><ele>4.25</ele><time>2026-03-22T09:36:41.167Z</time></trkpt><trkpt lat="45.04165" lon="11.6635967"><ele>4.0</ele><time>2026-03-22T09:36:43.165Z</time></trkpt><trkpt lat="45.0416" lon="11.663735"><ele>3.5</ele><time>2026-03-22T09:36:45.161Z</time></trkpt><trkpt lat="45.0415367" lon="11.6638717"><ele>3.0</ele><time>2026-03-22T09:36:47.165Z</time></trkpt><trkpt lat="45.0414733" lon="11.6640067"><ele>2.5</ele><time>2026-03-22T09:36:49.14Z</time></trkpt><trkpt lat="45.041415" lon="11.6641417"><ele>2.0</ele><time>2026-03-22T09:36:51.163Z</time></trkpt><trkpt lat="45.0413683" lon="11.6642883"><ele>2.0</ele><time>2026-03-22T09:36:53.144Z</time></trkpt><trkpt lat="45.0413183" lon="11.66444"><ele>2.0</ele><time>2026-03-22T09:36:55.174Z</time></trkpt><trkpt lat="45.0412833" lon="11.6645967"><ele>2.0</ele><time>2026-03-22T09:36:57.166Z</time></trkpt><trkpt lat="45.0412517" lon="11.6647533"><ele>2.0</ele><time>2026-03-22T09:36:59.166Z</time></trkpt><trkpt lat="45.0412283" lon="11.664915"><ele>2.25</ele><time>2026-03-22T09:37:01.169Z</time></trkpt><trkpt lat="45.041215" lon="11.6650733"><ele>2.5</ele><time>2026-03-22T09:37:03.164Z</time></trkpt><trkpt lat="45.0412033" lon="11.6652283"><ele>2.75</ele><time>2026-03-22T09:37:05.131Z</time></trkpt><trkpt lat="45.0411917" lon="11.6653867"><ele>3.0</ele><time>2026-03-22T09:37:07.162Z</time></trkpt><trkpt lat="45.041185" lon="11.6655517"><ele>3.0</ele><time>2026-03-22T09:37:09.176Z</time></trkpt><trkpt lat="45.04118" lon="11.66572"><ele>3.0</ele><time>2026-03-22T09:37:11.157Z</time></trkpt><trkpt lat="45.041175" lon="11.6658933"><ele>3.0</ele><time>2026-03-22T09:37:13.166Z</time></trkpt><trkpt lat="45.041165" lon="11.6660617"><ele>3.0</ele><time>2026-03-22T09:37:15.166Z</time></trkpt><trkpt lat="45.0411617" lon="11.6662317"><ele>3.0</ele><time>2026-03-22T09:37:17.166Z</time></trkpt><trkpt lat="45.0411633" lon="11.6663933"><ele>3.0</ele><time>2026-03-22T09:37:19.16Z</time></trkpt><trkpt lat="45.0411717" lon="11.6665517"><ele>3.0</ele><time>2026-03-22T09:37:21.165Z</time></trkpt><trkpt lat="45.041185" lon="11.6667067"><ele>3.0</ele><time>2026-03-22T09:37:23.166Z</time></trkpt><trkpt lat="45.0411933" lon="11.666855"><ele>3.0</ele><time>2026-03-22T09:37:25.167Z</time></trkpt><trkpt lat="45.0411917" lon="11.667"><ele>3.0</ele><time>2026-03-22T09:37:27.171Z</time></trkpt><trkpt lat="45.04119" lon="11.667155"><ele>3.0</ele><time>2026-03-22T09:37:29.165Z</time></trkpt><trkpt lat="45.0411917" lon="11.6673133"><ele>3.0</ele><time>2026-03-22T09:37:31.153Z</time></trkpt><trkpt lat="45.041185" lon="11.6674783"><ele>3.0</ele><time>2026-03-22T09:37:33.127Z</time></trkpt><trkpt lat="45.0411717" lon="11.6676467"><ele>2.75</ele><time>2026-03-22T09:37:35.163Z</time></trkpt><trkpt lat="45.0411633" lon="11.6678217"><ele>2.5</ele><time>2026-03-22T09:37:37.17Z</time></trkpt><trkpt lat="45.0411533" lon="11.6679967"><ele>2.25</ele><time>2026-03-22T09:37:39.164Z</time></trkpt><trkpt lat="45.041145" lon="11.6681667"><ele>2.0</ele><time>2026-03-22T09:37:41.156Z</time></trkpt><trkpt lat="45.0411367" lon="11.6683367"><ele>2.0</ele><time>2026-03-22T09:37:43.168Z</time></trkpt><trkpt lat="45.0411267" lon="11.6685167"><ele>2.0</ele><time>2026-03-22T09:37:45.169Z</time></trkpt><trkpt lat="45.0411217" lon="11.6686933"><ele>2.0</ele><time>2026-03-22T09:37:47.167Z</time></trkpt><trkpt lat="45.0411167" lon="11.6688717"><ele>2.0</ele><time>2026-03-22T09:37:49.168Z</time></trkpt><trkpt lat="45.041115" lon="11.6690467"><ele>2.25</ele><time>2026-03-22T09:37:51.145Z</time></trkpt><trkpt lat="45.0411117" lon="11.6692167"><ele>2.5</ele><time>2026-03-22T09:37:53.172Z</time></trkpt><trkpt lat="45.0411083" lon="11.6693833"><ele>2.75</ele><time>2026-03-22T09:37:55.161Z</time></trkpt><trkpt lat="45.04111" lon="11.6695467"><ele>3.0</ele><time>2026-03-22T09:37:57.165Z</time></trkpt><trkpt lat="45.04111" lon="11.6697017"><ele>3.0</ele><time>2026-03-22T09:37:59.161Z</time></trkpt><trkpt lat="45.04111" lon="11.669865"><ele>3.0</ele><time>2026-03-22T09:38:01.183Z</time></trkpt><trkpt lat="45.0411117" lon="11.67003"><ele>3.0</ele><time>2026-03-22T09:38:03.157Z</time></trkpt><trkpt lat="45.0411117" lon="11.6701933"><ele>3.0</ele><time>2026-03-22T09:38:05.17Z</time></trkpt><trkpt lat="45.04111" lon="11.6703567"><ele>3.2</ele><time>2026-03-22T09:38:07.144Z</time></trkpt><trkpt lat="45.0411067" lon="11.6705117"><ele>3.4</ele><time>2026-03-22T09:38:09.167Z</time></trkpt><trkpt lat="45.0411" lon="11.6706717"><ele>3.6000000000000005</ele><time>2026-03-22T09:38:11.167Z</time></trkpt><trkpt lat="45.041095" lon="11.6708133"><ele>3.8000000000000003</ele><time>2026-03-22T09:38:13.162Z</time></trkpt><trkpt lat="45.0410917" lon="11.670935"><ele>4.0</ele><time>2026-03-22T09:38:15.148Z</time></trkpt><trkpt lat="45.0410883" lon="11.671055"><ele>3.4000000000000004</ele><time>2026-03-22T09:38:17.168Z</time></trkpt><trkpt lat="45.0411" lon="11.671165"><ele>2.8000000000000003</ele><time>2026-03-22T09:38:19.158Z</time></trkpt><trkpt lat="45.0411317" lon="11.6712817"><ele>2.2</ele><time>2026-03-22T09:38:21.163Z</time></trkpt><trkpt lat="45.0412033" lon="11.6713883"><ele>1.6</ele><time>2026-03-22T09:38:23.153Z</time></trkpt><trkpt lat="45.041305" lon="11.67146"><ele>1.0</ele><time>2026-03-22T09:38:25.163Z</time></trkpt><trkpt lat="45.041415" lon="11.6715183"><ele>1.0</ele><time>2026-03-22T09:38:27.157Z</time></trkpt><trkpt lat="45.04153" lon="11.6715717"><ele>1.0</ele><time>2026-03-22T09:38:29.161Z</time></trkpt><trkpt lat="45.0416467" lon="11.67162"><ele>1.0</ele><time>2026-03-22T09:38:31.165Z</time></trkpt><trkpt lat="45.041765" lon="11.6716683"><ele>1.0</ele><time>2026-03-22T09:38:33.167Z</time></trkpt><trkpt lat="45.0418267" lon="11.671695"><ele>1.0</ele><time>2026-03-22T09:38:34.163Z</time></trkpt><trkpt lat="45.0419483" lon="11.6717483"><ele>1.4</ele><time>2026-03-22T09:38:36.167Z</time></trkpt><trkpt lat="45.0420083" lon="11.6717767"><ele>1.8</ele><time>2026-03-22T09:38:37.168Z</time></trkpt><trkpt lat="45.0420683" lon="11.6718067"><ele>2.1999999999999997</ele><time>2026-03-22T09:38:38.168Z</time></trkpt><trkpt lat="45.0421833" lon="11.6718617"><ele>2.6</ele><time>2026-03-22T09:38:40.168Z</time></trkpt><trkpt lat="45.0422933" lon="11.6719133"><ele>3.0</ele><time>2026-03-22T09:38:42.159Z</time></trkpt><trkpt lat="45.0423933" lon="11.6719733"><ele>3.0</ele><time>2026-03-22T09:38:44.146Z</time></trkpt><trkpt lat="45.0424817" lon="11.6720517"><ele>3.0</ele><time>2026-03-22T09:38:46.168Z</time></trkpt><trkpt lat="45.0425433" lon="11.6721717"><ele>3.0</ele><time>2026-03-22T09:38:48.163Z</time></trkpt><trkpt lat="45.0425583" lon="11.67234"><ele>3.0</ele><time>2026-03-22T09:38:50.17Z</time></trkpt><trkpt lat="45.0425533" lon="11.67243"><ele>3.0</ele><time>2026-03-22T09:38:51.167Z</time></trkpt><trkpt lat="45.042545" lon="11.67252"><ele>3.0</ele><time>2026-03-22T09:38:52.169Z</time></trkpt><trkpt lat="45.042535" lon="11.67261"><ele>3.0</ele><time>2026-03-22T09:38:53.167Z</time></trkpt><trkpt lat="45.042525" lon="11.6726983"><ele>3.0</ele><time>2026-03-22T09:38:54.168Z</time></trkpt><trkpt lat="45.0425133" lon="11.6728683"><ele>3.0</ele><time>2026-03-22T09:38:56.159Z</time></trkpt><trkpt lat="45.0425233" lon="11.6730283"><ele>3.0</ele><time>2026-03-22T09:38:58.157Z</time></trkpt><trkpt lat="45.0425767" lon="11.6731733"><ele>2.75</ele><time>2026-03-22T09:39:00.169Z</time></trkpt><trkpt lat="45.0426683" lon="11.6732883"><ele>2.5</ele><time>2026-03-22T09:39:02.163Z</time></trkpt><trkpt lat="45.042765" lon="11.6733917"><ele>2.25</ele><time>2026-03-22T09:39:04.169Z</time></trkpt><trkpt lat="45.0428633" lon="11.673495"><ele>2.0</ele><time>2026-03-22T09:39:06.159Z</time></trkpt><trkpt lat="45.042965" lon="11.6735967"><ele>2.0</ele><time>2026-03-22T09:39:08.137Z</time></trkpt><trkpt lat="45.043065" lon="11.6736967"><ele>2.0</ele><time>2026-03-22T09:39:10.17Z</time></trkpt><trkpt lat="45.0431617" lon="11.6738"><ele>2.0</ele><time>2026-03-22T09:39:12.169Z</time></trkpt><trkpt lat="45.0432583" lon="11.6739083"><ele>2.0</ele><time>2026-03-22T09:39:14.161Z</time></trkpt><trkpt lat="45.04331" lon="11.67396"><ele>2.0</ele><time>2026-03-22T09:39:15.168Z</time></trkpt><trkpt lat="45.0434067" lon="11.6740667"><ele>2.25</ele><time>2026-03-22T09:39:17.161Z</time></trkpt><trkpt lat="45.0435017" lon="11.6741733"><ele>2.5</ele><time>2026-03-22T09:39:19.168Z</time></trkpt><trkpt lat="45.043595" lon="11.67428"><ele>2.75</ele><time>2026-03-22T09:39:21.161Z</time></trkpt><trkpt lat="45.0436867" lon="11.6743883"><ele>3.0</ele><time>2026-03-22T09:39:23.168Z</time></trkpt><trkpt lat="45.0437817" lon="11.6745017"><ele>3.0</ele><time>2026-03-22T09:39:25.166Z</time></trkpt><trkpt lat="45.0438783" lon="11.6746083"><ele>3.0</ele><time>2026-03-22T09:39:27.163Z</time></trkpt><trkpt lat="45.0439667" lon="11.674715"><ele>3.0</ele><time>2026-03-22T09:39:29.173Z</time></trkpt><trkpt lat="45.0440583" lon="11.67482"><ele>3.0</ele><time>2026-03-22T09:39:31.171Z</time></trkpt><trkpt lat="45.044145" lon="11.674925"><ele>3.2</ele><time>2026-03-22T09:39:33.164Z</time></trkpt><trkpt lat="45.0442233" lon="11.67502"><ele>3.4</ele><time>2026-03-22T09:39:35.168Z</time></trkpt><trkpt lat="45.0442983" lon="11.6751133"><ele>3.6000000000000005</ele><time>2026-03-22T09:39:37.169Z</time></trkpt><trkpt lat="45.0443833" lon="11.67521"><ele>3.8000000000000003</ele><time>2026-03-22T09:39:39.167Z</time></trkpt><trkpt lat="45.0444667" lon="11.67531"><ele>4.0</ele><time>2026-03-22T09:39:41.165Z</time></trkpt><trkpt lat="45.044555" lon="11.6754183"><ele>4.0</ele><time>2026-03-22T09:39:43.151Z</time></trkpt><trkpt lat="45.0446433" lon="11.67553"><ele>4.0</ele><time>2026-03-22T09:39:45.16Z</time></trkpt><trkpt lat="45.0447383" lon="11.6756433"><ele>4.0</ele><time>2026-03-22T09:39:47.17Z</time></trkpt><trkpt lat="45.04483" lon="11.6757533"><ele>4.0</ele><time>2026-03-22T09:39:49.163Z</time></trkpt><trkpt lat="45.04492" lon="11.6758667"><ele>4.0</ele><time>2026-03-22T09:39:51.166Z</time></trkpt><trkpt lat="45.0450083" lon="11.6759767"><ele>4.0</ele><time>2026-03-22T09:39:53.158Z</time></trkpt><trkpt lat="45.0450883" lon="11.6760983"><ele>4.0</ele><time>2026-03-22T09:39:55.166Z</time></trkpt><trkpt lat="45.0451433" lon="11.6762467"><ele>4.0</ele><time>2026-03-22T09:39:57.165Z</time></trkpt><trkpt lat="45.045155" lon="11.67642"><ele>4.142857142857142</ele><time>2026-03-22T09:39:59.162Z</time></trkpt><trkpt lat="45.0451433" lon="11.67651"><ele>4.285714285714286</ele><time>2026-03-22T09:40:00.158Z</time></trkpt><trkpt lat="45.0451283" lon="11.6765983"><ele>4.428571428571429</ele><time>2026-03-22T09:40:01.169Z</time></trkpt><trkpt lat="45.0451133" lon="11.6766867"><ele>4.571428571428571</ele><time>2026-03-22T09:40:02.156Z</time></trkpt><trkpt lat="45.0450967" lon="11.6767733"><ele>4.714285714285714</ele><time>2026-03-22T09:40:03.16Z</time></trkpt><trkpt lat="45.0450783" lon="11.6768617"><ele>4.857142857142857</ele><time>2026-03-22T09:40:04.153Z</time></trkpt><trkpt lat="45.0450633" lon="11.67695"><ele>5.0</ele><time>2026-03-22T09:40:05.145Z</time></trkpt><trkpt lat="45.04504" lon="11.67712"><ele>5.0</ele><time>2026-03-22T09:40:07.165Z</time></trkpt><trkpt lat="45.0450217" lon="11.6772883"><ele>5.0</ele><time>2026-03-22T09:40:09.144Z</time></trkpt><trkpt lat="45.0450083" lon="11.67746"><ele>5.0</ele><time>2026-03-22T09:40:11.166Z</time></trkpt><trkpt lat="45.045" lon="11.6776333"><ele>5.0</ele><time>2026-03-22T09:40:13.167Z</time></trkpt><trkpt lat="45.0450117" lon="11.677795"><ele>4.8</ele><time>2026-03-22T09:40:15.157Z</time></trkpt><trkpt lat="45.0450317" lon="11.677935"><ele>4.6</ele><time>2026-03-22T09:40:17.168Z</time></trkpt><trkpt lat="45.0450567" lon="11.67807"><ele>4.4</ele><time>2026-03-22T09:40:19.165Z</time></trkpt><trkpt lat="45.0450817" lon="11.6782117"><ele>4.2</ele><time>2026-03-22T09:40:21.16Z</time></trkpt><trkpt lat="45.0451167" lon="11.6783567"><ele>4.0</ele><time>2026-03-22T09:40:23.166Z</time></trkpt><trkpt lat="45.0451567" lon="11.6785083"><ele>4.2</ele><time>2026-03-22T09:40:25.164Z</time></trkpt><trkpt lat="45.0451967" lon="11.67866"><ele>4.4</ele><time>2026-03-22T09:40:27.159Z</time></trkpt><trkpt lat="45.04524" lon="11.6788133"><ele>4.6</ele><time>2026-03-22T09:40:29.162Z</time></trkpt><trkpt lat="45.04528" lon="11.67896"><ele>4.8</ele><time>2026-03-22T09:40:31.165Z</time></trkpt><trkpt lat="45.04531" lon="11.6790817"><ele>5.0</ele><time>2026-03-22T09:40:33.174Z</time></trkpt><trkpt lat="45.045335" lon="11.67919"><ele>5.0</ele><time>2026-03-22T09:40:35.161Z</time></trkpt><trkpt lat="45.04536" lon="11.6792933"><ele>5.0</ele><time>2026-03-22T09:40:37.176Z</time></trkpt><trkpt lat="45.04538" lon="11.6794083"><ele>5.0</ele><time>2026-03-22T09:40:39.169Z</time></trkpt><trkpt lat="45.0454017" lon="11.679535"><ele>5.0</ele><time>2026-03-22T09:40:41.14Z</time></trkpt><trkpt lat="45.0454233" lon="11.6796733"><ele>5.0</ele><time>2026-03-22T09:40:43.171Z</time></trkpt><trkpt lat="45.0454417" lon="11.67982"><ele>4.75</ele><time>2026-03-22T09:40:45.163Z</time></trkpt><trkpt lat="45.0454567" lon="11.679975"><ele>4.5</ele><time>2026-03-22T09:40:47.15Z</time></trkpt><trkpt lat="45.045465" lon="11.6801367"><ele>4.25</ele><time>2026-03-22T09:40:49.164Z</time></trkpt><trkpt lat="45.0454683" lon="11.6803033"><ele>4.0</ele><time>2026-03-22T09:40:51.167Z</time></trkpt><trkpt lat="45.0454683" lon="11.6804767"><ele>3.9999999999999996</ele><time>2026-03-22T09:40:53.166Z</time></trkpt><trkpt lat="45.0454583" lon="11.6806517"><ele>4.0</ele><time>2026-03-22T09:40:55.157Z</time></trkpt><trkpt lat="45.0454483" lon="11.68074"><ele>4.0</ele><time>2026-03-22T09:40:56.155Z</time></trkpt><trkpt lat="45.0454367" lon="11.6808283"><ele>4.0</ele><time>2026-03-22T09:40:57.167Z</time></trkpt><trkpt lat="45.0454267" lon="11.6809167"><ele>3.9999999999999996</ele><time>2026-03-22T09:40:58.164Z</time></trkpt><trkpt lat="45.0454033" lon="11.681085"><ele>4.0</ele><time>2026-03-22T09:41:00.159Z</time></trkpt><trkpt lat="45.04538" lon="11.68126"><ele>4.25</ele><time>2026-03-22T09:41:02.138Z</time></trkpt><trkpt lat="45.045365" lon="11.6814317"><ele>4.5</ele><time>2026-03-22T09:41:04.161Z</time></trkpt><trkpt lat="45.0453433" lon="11.6816033"><ele>4.75</ele><time>2026-03-22T09:41:06.164Z</time></trkpt><trkpt lat="45.0453183" lon="11.6817717"><ele>5.0</ele><time>2026-03-22T09:41:08.166Z</time></trkpt><trkpt lat="45.0452933" lon="11.6819483"><ele>5.0</ele><time>2026-03-22T09:41:10.166Z</time></trkpt><trkpt lat="45.0452833" lon="11.6820367"><ele>5.0</ele><time>2026-03-22T09:41:11.165Z</time></trkpt><trkpt lat="45.0452717" lon="11.6821267"><ele>5.0</ele><time>2026-03-22T09:41:12.165Z</time></trkpt><trkpt lat="45.045265" lon="11.6822167"><ele>5.0</ele><time>2026-03-22T09:41:13.144Z</time></trkpt><trkpt lat="45.0452567" lon="11.6823067"><ele>5.0</ele><time>2026-03-22T09:41:14.173Z</time></trkpt><trkpt lat="45.0452433" lon="11.6824817"><ele>5.0</ele><time>2026-03-22T09:41:16.164Z</time></trkpt><trkpt lat="45.0452383" lon="11.6825717"><ele>5.0</ele><time>2026-03-22T09:41:17.163Z</time></trkpt><trkpt lat="45.045235" lon="11.6826633"><ele>5.0</ele><time>2026-03-22T09:41:18.16Z</time></trkpt><trkpt lat="45.04523" lon="11.682755"><ele>5.0</ele><time>2026-03-22T09:41:19.162Z</time></trkpt><trkpt lat="45.0452233" lon="11.6828467"><ele>5.0</ele><time>2026-03-22T09:41:20.166Z</time></trkpt><trkpt lat="45.0452167" lon="11.6829383"><ele>5.0</ele><time>2026-03-22T09:41:21.167Z</time></trkpt><trkpt lat="45.0452117" lon="11.6830283"><ele>5.0</ele><time>2026-03-22T09:41:22.164Z</time></trkpt><trkpt lat="45.0452067" lon="11.68312"><ele>5.0</ele><time>2026-03-22T09:41:23.162Z</time></trkpt><trkpt lat="45.0452" lon="11.6832117"><ele>5.0</ele><time>2026-03-22T09:41:24.164Z</time></trkpt><trkpt lat="45.045195" lon="11.6833033"><ele>5.0</ele><time>2026-03-22T09:41:25.169Z</time></trkpt><trkpt lat="45.04519" lon="11.68348"><ele>5.0</ele><time>2026-03-22T09:41:27.151Z</time></trkpt><trkpt lat="45.0451867" lon="11.68357"><ele>5.0</ele><time>2026-03-22T09:41:28.162Z</time></trkpt><trkpt lat="45.0451883" lon="11.6837433"><ele>5.0</ele><time>2026-03-22T09:41:30.166Z</time></trkpt><trkpt lat="45.0451983" lon="11.6839183"><ele>5.0</ele><time>2026-03-22T09:41:32.161Z</time></trkpt><trkpt lat="45.0452117" lon="11.6840883"><ele>5.0</ele><time>2026-03-22T09:41:34.135Z</time></trkpt><trkpt lat="45.0452267" lon="11.6842567"><ele>5.0</ele><time>2026-03-22T09:41:36.161Z</time></trkpt><trkpt lat="45.045245" lon="11.684415"><ele>5.0</ele><time>2026-03-22T09:41:38.165Z</time></trkpt><trkpt lat="45.045265" lon="11.68453"><ele>5.0</ele><time>2026-03-22T09:41:40.17Z</time></trkpt><trkpt lat="45.0452783" lon="11.6846217"><ele>5.0</ele><time>2026-03-22T09:41:42.165Z</time></trkpt><trkpt lat="45.0452867" lon="11.6847133"><ele>5.0</ele><time>2026-03-22T09:41:44.166Z</time></trkpt><trkpt lat="45.0453067" lon="11.6848017"><ele>5.0</ele><time>2026-03-22T09:41:46.149Z</time></trkpt><trkpt lat="45.0453367" lon="11.684915"><ele>5.0</ele><time>2026-03-22T09:41:49.165Z</time></trkpt><trkpt lat="45.0453583" lon="11.6850067"><ele>5.0</ele><time>2026-03-22T09:41:51.164Z</time></trkpt><trkpt lat="45.0453983" lon="11.6851583"><ele>5.0</ele><time>2026-03-22T09:41:54.154Z</time></trkpt><trkpt lat="45.0454317" lon="11.685255"><ele>5.0</ele><time>2026-03-22T09:41:56.157Z</time></trkpt><trkpt lat="45.0454733" lon="11.68535"><ele>5.0</ele><time>2026-03-22T09:41:58.136Z</time></trkpt><trkpt lat="45.0455217" lon="11.685455"><ele>4.8</ele><time>2026-03-22T09:42:00.159Z</time></trkpt><trkpt lat="45.0455683" lon="11.6855667"><ele>4.6</ele><time>2026-03-22T09:42:02.165Z</time></trkpt><trkpt lat="45.0456283" lon="11.685685"><ele>4.4</ele><time>2026-03-22T09:42:04.165Z</time></trkpt><trkpt lat="45.0456967" lon="11.6858083"><ele>4.2</ele><time>2026-03-22T09:42:06.143Z</time></trkpt><trkpt lat="45.0457733" lon="11.685935"><ele>4.0</ele><time>2026-03-22T09:42:08.167Z</time></trkpt><trkpt lat="45.045855" lon="11.6860583"><ele>4.0</ele><time>2026-03-22T09:42:10.168Z</time></trkpt><trkpt lat="45.0459467" lon="11.6861683"><ele>4.0</ele><time>2026-03-22T09:42:12.171Z</time></trkpt><trkpt lat="45.0460483" lon="11.6862683"><ele>4.0</ele><time>2026-03-22T09:42:14.171Z</time></trkpt><trkpt lat="45.0461033" lon="11.6863133"><ele>4.0</ele><time>2026-03-22T09:42:15.168Z</time></trkpt><trkpt lat="45.0461583" lon="11.6863583"><ele>4.0</ele><time>2026-03-22T09:42:16.171Z</time></trkpt><trkpt lat="45.04627" lon="11.686435"><ele>4.0</ele><time>2026-03-22T09:42:18.166Z</time></trkpt><trkpt lat="45.0463283" lon="11.6864717"><ele>4.0</ele><time>2026-03-22T09:42:19.167Z</time></trkpt><trkpt lat="45.0464433" lon="11.68653"><ele>4.0</ele><time>2026-03-22T09:42:21.169Z</time></trkpt><trkpt lat="45.046555" lon="11.6865767"><ele>4.0</ele><time>2026-03-22T09:42:23.17Z</time></trkpt><trkpt lat="45.0466717" lon="11.686615"><ele>4.0</ele><time>2026-03-22T09:42:25.168Z</time></trkpt><trkpt lat="45.046795" lon="11.6866467"><ele>4.166666666666666</ele><time>2026-03-22T09:42:27.164Z</time></trkpt><trkpt lat="45.0468583" lon="11.6866617"><ele>4.333333333333333</ele><time>2026-03-22T09:42:28.16Z</time></trkpt><trkpt lat="45.0469217" lon="11.6866767"><ele>4.5</ele><time>2026-03-22T09:42:29.165Z</time></trkpt><trkpt lat="45.0470433" lon="11.6867033"><ele>4.666666666666667</ele><time>2026-03-22T09:42:31.167Z</time></trkpt><trkpt lat="45.0471667" lon="11.6867367"><ele>4.833333333333334</ele><time>2026-03-22T09:42:33.171Z</time></trkpt><trkpt lat="45.0472283" lon="11.6867567"><ele>5.0</ele><time>2026-03-22T09:42:34.171Z</time></trkpt><trkpt lat="45.04729" lon="11.6867783"><ele>5.0</ele><time>2026-03-22T09:42:35.17Z</time></trkpt><trkpt lat="45.04735" lon="11.6868083"><ele>5.0</ele><time>2026-03-22T09:42:36.167Z</time></trkpt><trkpt lat="45.04746" lon="11.6868883"><ele>5.0</ele><time>2026-03-22T09:42:38.162Z</time></trkpt><trkpt lat="45.0475667" lon="11.6869767"><ele>5.0</ele><time>2026-03-22T09:42:40.166Z</time></trkpt><trkpt lat="45.047665" lon="11.6870883"><ele>5.0</ele><time>2026-03-22T09:42:42.17Z</time></trkpt><trkpt lat="45.0477517" lon="11.687215"><ele>5.25</ele><time>2026-03-22T09:42:44.164Z</time></trkpt><trkpt lat="45.0478233" lon="11.6873517"><ele>5.5</ele><time>2026-03-22T09:42:46.167Z</time></trkpt><trkpt lat="45.0478817" lon="11.6875067"><ele>5.75</ele><time>2026-03-22T09:42:48.169Z</time></trkpt><trkpt lat="45.0479233" lon="11.6876717"><ele>6.0</ele><time>2026-03-22T09:42:50.164Z</time></trkpt><trkpt lat="45.0479383" lon="11.6878433"><ele>6.0</ele><time>2026-03-22T09:42:52.153Z</time></trkpt><trkpt lat="45.047945" lon="11.6880167"><ele>6.0</ele><time>2026-03-22T09:42:54.167Z</time></trkpt><trkpt lat="45.0479467" lon="11.688185"><ele>6.0</ele><time>2026-03-22T09:42:56.166Z</time></trkpt><trkpt lat="45.04795" lon="11.688355"><ele>6.0</ele><time>2026-03-22T09:42:58.165Z</time></trkpt><trkpt lat="45.047945" lon="11.6885183"><ele>6.199999999999999</ele><time>2026-03-22T09:43:00.152Z</time></trkpt><trkpt lat="45.0479383" lon="11.6886733"><ele>6.3999999999999995</ele><time>2026-03-22T09:43:02.166Z</time></trkpt><trkpt lat="45.04793" lon="11.688815"><ele>6.6</ele><time>2026-03-22T09:43:04.165Z</time></trkpt><trkpt lat="45.047925" lon="11.688945"><ele>6.8</ele><time>2026-03-22T09:43:06.165Z</time></trkpt><trkpt lat="45.04792" lon="11.6890833"><ele>7.0</ele><time>2026-03-22T09:43:08.162Z</time></trkpt><trkpt lat="45.0479083" lon="11.68923"><ele>7.0</ele><time>2026-03-22T09:43:10.161Z</time></trkpt><trkpt lat="45.0479" lon="11.6893767"><ele>6.999999999999999</ele><time>2026-03-22T09:43:12.161Z</time></trkpt><trkpt lat="45.0479" lon="11.6895183"><ele>6.999999999999999</ele><time>2026-03-22T09:43:14.159Z</time></trkpt><trkpt lat="45.0478983" lon="11.6896633"><ele>7.0</ele><time>2026-03-22T09:43:16.151Z</time></trkpt><trkpt lat="45.0478967" lon="11.6898167"><ele>7.0</ele><time>2026-03-22T09:43:18.157Z</time></trkpt><trkpt lat="45.0478917" lon="11.6899783"><ele>7.0</ele><time>2026-03-22T09:43:20.171Z</time></trkpt><trkpt lat="45.0478867" lon="11.6901383"><ele>6.999999999999999</ele><time>2026-03-22T09:43:22.164Z</time></trkpt><trkpt lat="45.0478817" lon="11.6903"><ele>6.999999999999999</ele><time>2026-03-22T09:43:24.162Z</time></trkpt><trkpt lat="45.04788" lon="11.6904533"><ele>7.0</ele><time>2026-03-22T09:43:26.167Z</time></trkpt><trkpt lat="45.0478817" lon="11.6906117"><ele>7.0</ele><time>2026-03-22T09:43:28.147Z</time></trkpt><trkpt lat="45.0478767" lon="11.6907683"><ele>6.8</ele><time>2026-03-22T09:43:30.163Z</time></trkpt><trkpt lat="45.0478733" lon="11.6909267"><ele>6.6</ele><time>2026-03-22T09:43:32.16Z</time></trkpt><trkpt lat="45.04787" lon="11.6910867"><ele>6.3999999999999995</ele><time>2026-03-22T09:43:34.162Z</time></trkpt><trkpt lat="45.0478667" lon="11.69124"><ele>6.199999999999999</ele><time>2026-03-22T09:43:36.165Z</time></trkpt><trkpt lat="45.0478617" lon="11.6913967"><ele>6.0</ele><time>2026-03-22T09:43:38.165Z</time></trkpt><trkpt lat="45.0478617" lon="11.6915483"><ele>6.0</ele><time>2026-03-22T09:43:40.164Z</time></trkpt><trkpt lat="45.04786" lon="11.6917"><ele>6.0</ele><time>2026-03-22T09:43:42.158Z</time></trkpt><trkpt lat="45.0478617" lon="11.691845"><ele>6.0</ele><time>2026-03-22T09:43:44.162Z</time></trkpt><trkpt lat="45.0478617" lon="11.692"><ele>6.0</ele><time>2026-03-22T09:43:46.156Z</time></trkpt><trkpt lat="45.0478567" lon="11.69215"><ele>6.0</ele><time>2026-03-22T09:43:48.153Z</time></trkpt><trkpt lat="45.0478533" lon="11.692305"><ele>6.199999999999999</ele><time>2026-03-22T09:43:50.163Z</time></trkpt><trkpt lat="45.0478567" lon="11.6924633"><ele>6.3999999999999995</ele><time>2026-03-22T09:43:52.142Z</time></trkpt><trkpt lat="45.0478633" lon="11.6926183"><ele>6.6</ele><time>2026-03-22T09:43:54.16Z</time></trkpt><trkpt lat="45.0478833" lon="11.6927683"><ele>6.8</ele><time>2026-03-22T09:43:56.163Z</time></trkpt><trkpt lat="45.047905" lon="11.6929183"><ele>7.0</ele><time>2026-03-22T09:43:58.181Z</time></trkpt><trkpt lat="45.04793" lon="11.6930567"><ele>7.166666666666667</ele><time>2026-03-22T09:44:00.163Z</time></trkpt><trkpt lat="45.0479633" lon="11.6931767"><ele>7.333333333333334</ele><time>2026-03-22T09:44:02.157Z</time></trkpt><trkpt lat="45.04799" lon="11.6932783"><ele>7.5</ele><time>2026-03-22T09:44:04.155Z</time></trkpt><trkpt lat="45.048015" lon="11.6933767"><ele>7.666666666666666</ele><time>2026-03-22T09:44:06.164Z</time></trkpt><trkpt lat="45.0480417" lon="11.6934817"><ele>7.833333333333333</ele><time>2026-03-22T09:44:08.164Z</time></trkpt><trkpt lat="45.0480717" lon="11.6935917"><ele>8.0</ele><time>2026-03-22T09:44:10.159Z</time></trkpt><trkpt lat="45.0481067" lon="11.693705"><ele>8.200000000000001</ele><time>2026-03-22T09:44:12.163Z</time></trkpt><trkpt lat="45.048135" lon="11.6938117"><ele>8.4</ele><time>2026-03-22T09:44:14.155Z</time></trkpt><trkpt lat="45.0481717" lon="11.69393"><ele>8.600000000000001</ele><time>2026-03-22T09:44:16.169Z</time></trkpt><trkpt lat="45.0482217" lon="11.6940517"><ele>8.8</ele><time>2026-03-22T09:44:18.164Z</time></trkpt><trkpt lat="45.0482783" lon="11.694175"><ele>9.0</ele><time>2026-03-22T09:44:20.162Z</time></trkpt><trkpt lat="45.0483283" lon="11.6942967"><ele>9.0</ele><time>2026-03-22T09:44:22.156Z</time></trkpt><trkpt lat="45.0483783" lon="11.6944117"><ele>9.0</ele><time>2026-03-22T09:44:24.161Z</time></trkpt><trkpt lat="45.048425" lon="11.6945233"><ele>9.0</ele><time>2026-03-22T09:44:26.163Z</time></trkpt><trkpt lat="45.048475" lon="11.6946467"><ele>9.0</ele><time>2026-03-22T09:44:28.163Z</time></trkpt><trkpt lat="45.048525" lon="11.6947783"><ele>9.0</ele><time>2026-03-22T09:44:30.163Z</time></trkpt><trkpt lat="45.0485683" lon="11.6949017"><ele>9.0</ele><time>2026-03-22T09:44:32.165Z</time></trkpt><trkpt lat="45.04861" lon="11.6950383"><ele>9.0</ele><time>2026-03-22T09:44:34.165Z</time></trkpt><trkpt lat="45.0486633" lon="11.6951817"><ele>9.0</ele><time>2026-03-22T09:44:36.167Z</time></trkpt><trkpt lat="45.0487117" lon="11.69533"><ele>9.0</ele><time>2026-03-22T09:44:38.162Z</time></trkpt><trkpt lat="45.04876" lon="11.69548"><ele>8.6</ele><time>2026-03-22T09:44:40.14Z</time></trkpt><trkpt lat="45.0488133" lon="11.6956183"><ele>8.2</ele><time>2026-03-22T09:44:42.168Z</time></trkpt><trkpt lat="45.048875" lon="11.6957467"><ele>7.799999999999999</ele><time>2026-03-22T09:44:44.166Z</time></trkpt><trkpt lat="45.04894" lon="11.6958783"><ele>7.3999999999999995</ele><time>2026-03-22T09:44:46.166Z</time></trkpt><trkpt lat="45.049005" lon="11.6960067"><ele>7.0</ele><time>2026-03-22T09:44:48.164Z</time></trkpt><trkpt lat="45.0490733" lon="11.6961483"><ele>7.25</ele><time>2026-03-22T09:44:50.164Z</time></trkpt><trkpt lat="45.0491417" lon="11.6962783"><ele>7.5</ele><time>2026-03-22T09:44:52.168Z</time></trkpt><trkpt lat="45.049205" lon="11.6964033"><ele>7.75</ele><time>2026-03-22T09:44:54.165Z</time></trkpt><trkpt lat="45.0492733" lon="11.6965317"><ele>8.0</ele><time>2026-03-22T09:44:56.147Z</time></trkpt><trkpt lat="45.0493433" lon="11.6966617"><ele>8.0</ele><time>2026-03-22T09:44:58.167Z</time></trkpt><trkpt lat="45.0494133" lon="11.6967933"><ele>8.0</ele><time>2026-03-22T09:45:00.16Z</time></trkpt><trkpt lat="45.0494833" lon="11.6969267"><ele>8.0</ele><time>2026-03-22T09:45:02.164Z</time></trkpt><trkpt lat="45.0495483" lon="11.69707"><ele>8.0</ele><time>2026-03-22T09:45:04.164Z</time></trkpt><trkpt lat="45.0496167" lon="11.6972067"><ele>7.833333333333333</ele><time>2026-03-22T09:45:06.157Z</time></trkpt><trkpt lat="45.0496633" lon="11.6973567"><ele>7.666666666666666</ele><time>2026-03-22T09:45:08.159Z</time></trkpt><trkpt lat="45.049685" lon="11.6975317"><ele>7.5</ele><time>2026-03-22T09:45:10.176Z</time></trkpt><trkpt lat="45.04969" lon="11.697625"><ele>7.333333333333334</ele><time>2026-03-22T09:45:11.168Z</time></trkpt><trkpt lat="45.0496933" lon="11.6977167"><ele>7.166666666666667</ele><time>2026-03-22T09:45:12.156Z</time></trkpt><trkpt lat="45.0496933" lon="11.6978133"><ele>7.0</ele><time>2026-03-22T09:45:13.154Z</time></trkpt><trkpt lat="45.0496983" lon="11.6979117"><ele>6.714285714285714</ele><time>2026-03-22T09:45:14.163Z</time></trkpt><trkpt lat="45.0497" lon="11.6980117"><ele>6.428571428571429</ele><time>2026-03-22T09:45:15.165Z</time></trkpt><trkpt lat="45.0496983" lon="11.6981117"><ele>6.142857142857142</ele><time>2026-03-22T09:45:16.164Z</time></trkpt><trkpt lat="45.0496983" lon="11.69821"><ele>5.857142857142858</ele><time>2026-03-22T09:45:17.134Z</time></trkpt><trkpt lat="45.0496967" lon="11.6983067"><ele>5.571428571428571</ele><time>2026-03-22T09:45:18.161Z</time></trkpt><trkpt lat="45.0496917" lon="11.6984"><ele>5.285714285714286</ele><time>2026-03-22T09:45:19.171Z</time></trkpt><trkpt lat="45.0496917" lon="11.6984933"><ele>5.0</ele><time>2026-03-22T09:45:20.166Z</time></trkpt><trkpt lat="45.0496933" lon="11.6985883"><ele>4.833333333333334</ele><time>2026-03-22T09:45:21.168Z</time></trkpt><trkpt lat="45.0496933" lon="11.6986817"><ele>4.666666666666667</ele><time>2026-03-22T09:45:22.167Z</time></trkpt><trkpt lat="45.0496967" lon="11.6987767"><ele>4.5</ele><time>2026-03-22T09:45:23.162Z</time></trkpt><trkpt lat="45.049695" lon="11.69896"><ele>4.333333333333333</ele><time>2026-03-22T09:45:25.161Z</time></trkpt><trkpt lat="45.0496917" lon="11.699055"><ele>4.166666666666666</ele><time>2026-03-22T09:45:26.163Z</time></trkpt><trkpt lat="45.049695" lon="11.6991467"><ele>4.0</ele><time>2026-03-22T09:45:27.16Z</time></trkpt><trkpt lat="45.0496967" lon="11.69924"><ele>4.0</ele><time>2026-03-22T09:45:28.148Z</time></trkpt><trkpt lat="45.049695" lon="11.6993333"><ele>3.9999999999999996</ele><time>2026-03-22T09:45:29.162Z</time></trkpt><trkpt lat="45.04969" lon="11.6994283"><ele>4.0</ele><time>2026-03-22T09:45:30.161Z</time></trkpt><trkpt lat="45.049685" lon="11.69952"><ele>4.0</ele><time>2026-03-22T09:45:31.164Z</time></trkpt><trkpt lat="45.0496817" lon="11.6996133"><ele>3.9999999999999996</ele><time>2026-03-22T09:45:32.166Z</time></trkpt><trkpt lat="45.0496783" lon="11.6997033"><ele>4.0</ele><time>2026-03-22T09:45:33.165Z</time></trkpt><trkpt lat="45.0496717" lon="11.699795"><ele>4.0</ele><time>2026-03-22T09:45:34.164Z</time></trkpt><trkpt lat="45.0496667" lon="11.699885"><ele>4.0</ele><time>2026-03-22T09:45:35.165Z</time></trkpt><trkpt lat="45.0496567" lon="11.7000533"><ele>4.0</ele><time>2026-03-22T09:45:37.161Z</time></trkpt><trkpt lat="45.049665" lon="11.7002283"><ele>4.0</ele><time>2026-03-22T09:45:39.16Z</time></trkpt><trkpt lat="45.0496883" lon="11.7003167"><ele>4.0</ele><time>2026-03-22T09:45:40.166Z</time></trkpt><trkpt lat="45.0497233" lon="11.7004017"><ele>4.0</ele><time>2026-03-22T09:45:41.164Z</time></trkpt><trkpt lat="45.049765" lon="11.7004833"><ele>3.8571428571428568</ele><time>2026-03-22T09:45:42.164Z</time></trkpt><trkpt lat="45.0498033" lon="11.70056"><ele>3.714285714285714</ele><time>2026-03-22T09:45:43.166Z</time></trkpt><trkpt lat="45.049845" lon="11.7006317"><ele>3.571428571428571</ele><time>2026-03-22T09:45:44.162Z</time></trkpt><trkpt lat="45.0498817" lon="11.7007067"><ele>3.4285714285714284</ele><time>2026-03-22T09:45:45.14Z</time></trkpt><trkpt lat="45.0499133" lon="11.7007867"><ele>3.2857142857142856</ele><time>2026-03-22T09:45:46.152Z</time></trkpt><trkpt lat="45.0499233" lon="11.7008767"><ele>3.1428571428571423</ele><time>2026-03-22T09:45:47.138Z</time></trkpt><trkpt lat="45.0499283" lon="11.7009667"><ele>3.0</ele><time>2026-03-22T09:45:48.157Z</time></trkpt><trkpt lat="45.04991" lon="11.7011433"><ele>3.0</ele><time>2026-03-22T09:45:50.154Z</time></trkpt><trkpt lat="45.0498983" lon="11.7013067"><ele>3.0</ele><time>2026-03-22T09:45:52.164Z</time></trkpt><trkpt lat="45.0498867" lon="11.70145"><ele>3.0</ele><time>2026-03-22T09:45:54.174Z</time></trkpt><trkpt lat="45.0498683" lon="11.7015833"><ele>3.0</ele><time>2026-03-22T09:45:56.166Z</time></trkpt><trkpt lat="45.0498433" lon="11.701715"><ele>3.0</ele><time>2026-03-22T09:45:58.17Z</time></trkpt><trkpt lat="45.0498117" lon="11.7018483"><ele>3.0</ele><time>2026-03-22T09:46:00.152Z</time></trkpt><trkpt lat="45.0497783" lon="11.701995"><ele>3.0</ele><time>2026-03-22T09:46:02.172Z</time></trkpt><trkpt lat="45.049735" lon="11.70215"><ele>3.0</ele><time>2026-03-22T09:46:04.167Z</time></trkpt><trkpt lat="45.0496767" lon="11.7022967"><ele>3.0</ele><time>2026-03-22T09:46:06.169Z</time></trkpt><trkpt lat="45.0495967" lon="11.70243"><ele>2.9999999999999996</ele><time>2026-03-22T09:46:08.172Z</time></trkpt><trkpt lat="45.0495467" lon="11.7024883"><ele>3.0</ele><time>2026-03-22T09:46:09.167Z</time></trkpt><trkpt lat="45.0494917" lon="11.7025417"><ele>3.0</ele><time>2026-03-22T09:46:10.17Z</time></trkpt><trkpt lat="45.0494367" lon="11.7025867"><ele>3.0</ele><time>2026-03-22T09:46:11.165Z</time></trkpt><trkpt lat="45.0493783" lon="11.7026333"><ele>3.0</ele><time>2026-03-22T09:46:12.168Z</time></trkpt><trkpt lat="45.0493183" lon="11.7026783"><ele>2.9999999999999996</ele><time>2026-03-22T09:46:13.167Z</time></trkpt><trkpt lat="45.04926" lon="11.7027233"><ele>3.0</ele><time>2026-03-22T09:46:14.168Z</time></trkpt><trkpt lat="45.0492033" lon="11.7027683"><ele>2.8571428571428568</ele><time>2026-03-22T09:46:15.172Z</time></trkpt><trkpt lat="45.0491433" lon="11.7028133"><ele>2.7142857142857144</ele><time>2026-03-22T09:46:16.169Z</time></trkpt><trkpt lat="45.0490867" lon="11.702865"><ele>2.571428571428571</ele><time>2026-03-22T09:46:17.17Z</time></trkpt><trkpt lat="45.04903" lon="11.70292"><ele>2.4285714285714284</ele><time>2026-03-22T09:46:18.163Z</time></trkpt><trkpt lat="45.0489767" lon="11.7029833"><ele>2.2857142857142856</ele><time>2026-03-22T09:46:19.165Z</time></trkpt><trkpt lat="45.0489267" lon="11.70305"><ele>2.142857142857143</ele><time>2026-03-22T09:46:20.139Z</time></trkpt><trkpt lat="45.0488817" lon="11.7031217"><ele>2.0</ele><time>2026-03-22T09:46:21.134Z</time></trkpt><trkpt lat="45.04884" lon="11.7031967"><ele>2.0</ele><time>2026-03-22T09:46:22.15Z</time></trkpt><trkpt lat="45.0488033" lon="11.7032733"><ele>1.9999999999999998</ele><time>2026-03-22T09:46:23.161Z</time></trkpt><trkpt lat="45.04877" lon="11.7033533"><ele>2.0</ele><time>2026-03-22T09:46:24.167Z</time></trkpt><trkpt lat="45.0487383" lon="11.7034383"><ele>2.0</ele><time>2026-03-22T09:46:25.165Z</time></trkpt><trkpt lat="45.0487083" lon="11.7035217"><ele>1.9999999999999998</ele><time>2026-03-22T09:46:26.152Z</time></trkpt><trkpt lat="45.0486833" lon="11.7036067"><ele>2.0</ele><time>2026-03-22T09:46:27.164Z</time></trkpt><trkpt lat="45.048665" lon="11.703695"><ele>2.0</ele><time>2026-03-22T09:46:28.164Z</time></trkpt><trkpt lat="45.0486483" lon="11.7037833"><ele>2.0</ele><time>2026-03-22T09:46:29.167Z</time></trkpt><trkpt lat="45.048635" lon="11.7038733"><ele>1.9999999999999998</ele><time>2026-03-22T09:46:30.166Z</time></trkpt><trkpt lat="45.0486217" lon="11.7039683"><ele>2.0</ele><time>2026-03-22T09:46:31.168Z</time></trkpt><trkpt lat="45.0486117" lon="11.7040633"><ele>2.0</ele><time>2026-03-22T09:46:32.155Z</time></trkpt><trkpt lat="45.0486033" lon="11.7041567"><ele>1.9999999999999998</ele><time>2026-03-22T09:46:33.13Z</time></trkpt><trkpt lat="45.048595" lon="11.70425"><ele>2.0</ele><time>2026-03-22T09:46:34.168Z</time></trkpt><trkpt lat="45.0485883" lon="11.7043417"><ele>2.0</ele><time>2026-03-22T09:46:35.173Z</time></trkpt><trkpt lat="45.0485817" lon="11.704435"><ele>1.8</ele><time>2026-03-22T09:46:36.17Z</time></trkpt><trkpt lat="45.0485767" lon="11.704525"><ele>1.6</ele><time>2026-03-22T09:46:37.162Z</time></trkpt><trkpt lat="45.0485717" lon="11.7046183"><ele>1.4000000000000001</ele><time>2026-03-22T09:46:38.168Z</time></trkpt><trkpt lat="45.0485567" lon="11.7047967"><ele>1.2000000000000002</ele><time>2026-03-22T09:46:40.163Z</time></trkpt><trkpt lat="45.0485367" lon="11.70497"><ele>1.0</ele><time>2026-03-22T09:46:42.155Z</time></trkpt><trkpt lat="45.048515" lon="11.70514"><ele>1.2000000000000002</ele><time>2026-03-22T09:46:44.169Z</time></trkpt><trkpt lat="45.0484917" lon="11.7053067"><ele>1.4000000000000001</ele><time>2026-03-22T09:46:46.167Z</time></trkpt><trkpt lat="45.04846" lon="11.7054567"><ele>1.6</ele><time>2026-03-22T09:46:48.167Z</time></trkpt><trkpt lat="45.04842" lon="11.705585"><ele>1.8</ele><time>2026-03-22T09:46:50.139Z</time></trkpt><trkpt lat="45.0483717" lon="11.7057033"><ele>2.0</ele><time>2026-03-22T09:46:52.129Z</time></trkpt><trkpt lat="45.0483183" lon="11.7058067"><ele>2.0</ele><time>2026-03-22T09:46:54.163Z</time></trkpt><trkpt lat="45.0482633" lon="11.7058917"><ele>2.0</ele><time>2026-03-22T09:46:56.145Z</time></trkpt><trkpt lat="45.0482033" lon="11.7059917"><ele>2.0</ele><time>2026-03-22T09:46:58.149Z</time></trkpt><trkpt lat="45.0481367" lon="11.7061217"><ele>2.0</ele><time>2026-03-22T09:47:00.153Z</time></trkpt><trkpt lat="45.048075" lon="11.7062633"><ele>2.0</ele><time>2026-03-22T09:47:02.129Z</time></trkpt><trkpt lat="45.0480133" lon="11.7064067"><ele>1.9999999999999998</ele><time>2026-03-22T09:47:04.147Z</time></trkpt><trkpt lat="45.0479517" lon="11.70656"><ele>2.0</ele><time>2026-03-22T09:47:06.146Z</time></trkpt><trkpt lat="45.0479217" lon="11.7066417"><ele>2.0</ele><time>2026-03-22T09:47:07.167Z</time></trkpt><trkpt lat="45.0478917" lon="11.706725"><ele>2.0</ele><time>2026-03-22T09:47:08.143Z</time></trkpt><trkpt lat="45.0478633" lon="11.7068067"><ele>1.9999999999999998</ele><time>2026-03-22T09:47:09.161Z</time></trkpt><trkpt lat="45.04781" lon="11.706965"><ele>2.0</ele><time>2026-03-22T09:47:11.13Z</time></trkpt><trkpt lat="45.04778" lon="11.7070467"><ele>2.0</ele><time>2026-03-22T09:47:12.162Z</time></trkpt><trkpt lat="45.047725" lon="11.707205"><ele>1.9999999999999998</ele><time>2026-03-22T09:47:14.139Z</time></trkpt><trkpt lat="45.0476933" lon="11.7072833"><ele>2.0</ele><time>2026-03-22T09:47:15.168Z</time></trkpt><trkpt lat="45.047665" lon="11.7073633"><ele>2.0</ele><time>2026-03-22T09:47:16.168Z</time></trkpt><trkpt lat="45.0476367" lon="11.7074467"><ele>1.9999999999999998</ele><time>2026-03-22T09:47:17.165Z</time></trkpt><trkpt lat="45.0476083" lon="11.7075267"><ele>2.0</ele><time>2026-03-22T09:47:18.162Z</time></trkpt><trkpt lat="45.04758" lon="11.7076067"><ele>2.0</ele><time>2026-03-22T09:47:19.167Z</time></trkpt><trkpt lat="45.0475517" lon="11.7076867"><ele>2.0</ele><time>2026-03-22T09:47:20.132Z</time></trkpt><trkpt lat="45.0475217" lon="11.7077683"><ele>1.9999999999999998</ele><time>2026-03-22T09:47:21.163Z</time></trkpt><trkpt lat="45.0474917" lon="11.70785"><ele>2.0</ele><time>2026-03-22T09:47:22.174Z</time></trkpt><trkpt lat="45.0474617" lon="11.707935"><ele>2.0</ele><time>2026-03-22T09:47:23.133Z</time></trkpt><trkpt lat="45.04743" lon="11.70802"><ele>1.9999999999999998</ele><time>2026-03-22T09:47:24.156Z</time></trkpt><trkpt lat="45.0474" lon="11.7081033"><ele>2.0</ele><time>2026-03-22T09:47:25.161Z</time></trkpt><trkpt lat="45.0473717" lon="11.70819"><ele>2.0</ele><time>2026-03-22T09:47:26.161Z</time></trkpt><trkpt lat="45.0473417" lon="11.708275"><ele>2.0</ele><time>2026-03-22T09:47:27.167Z</time></trkpt><trkpt lat="45.04731" lon="11.7083633"><ele>1.9999999999999998</ele><time>2026-03-22T09:47:28.162Z</time></trkpt><trkpt lat="45.04728" lon="11.7084533"><ele>2.0</ele><time>2026-03-22T09:47:29.141Z</time></trkpt><trkpt lat="45.04725" lon="11.7085417"><ele>2.0</ele><time>2026-03-22T09:47:30.132Z</time></trkpt><trkpt lat="45.04722" lon="11.7086283"><ele>1.9999999999999998</ele><time>2026-03-22T09:47:31.192Z</time></trkpt><trkpt lat="45.04719" lon="11.7087167"><ele>2.0</ele><time>2026-03-22T09:47:32.143Z</time></trkpt><trkpt lat="45.04716" lon="11.7088017"><ele>2.0</ele><time>2026-03-22T09:47:33.155Z</time></trkpt><trkpt lat="45.04713" lon="11.7088867"><ele>1.7142857142857142</ele><time>2026-03-22T09:47:34.162Z</time></trkpt><trkpt lat="45.0471" lon="11.7089717"><ele>1.4285714285714284</ele><time>2026-03-22T09:47:35.136Z</time></trkpt><trkpt lat="45.04707" lon="11.7090567"><ele>1.1428571428571428</ele><time>2026-03-22T09:47:36.165Z</time></trkpt><trkpt lat="45.047035" lon="11.7091417"><ele>0.8571428571428571</ele><time>2026-03-22T09:47:37.158Z</time></trkpt><trkpt lat="45.0470033" lon="11.70923"><ele>0.5714285714285714</ele><time>2026-03-22T09:47:38.153Z</time></trkpt><trkpt lat="45.0469683" lon="11.7093167"><ele>0.2857142857142857</ele><time>2026-03-22T09:47:39.136Z</time></trkpt><trkpt lat="45.0469317" lon="11.7094"><ele>0.0</ele><time>2026-03-22T09:47:40.156Z</time></trkpt><trkpt lat="45.0468917" lon="11.70948"><ele>0.0</ele><time>2026-03-22T09:47:41.166Z</time></trkpt><trkpt lat="45.0468467" lon="11.7095567"><ele>0.0</ele><time>2026-03-22T09:47:42.139Z</time></trkpt><trkpt lat="45.0468017" lon="11.7096317"><ele>0.0</ele><time>2026-03-22T09:47:43.155Z</time></trkpt><trkpt lat="45.046755" lon="11.7097033"><ele>0.0</ele><time>2026-03-22T09:47:44.168Z</time></trkpt><trkpt lat="45.0467067" lon="11.70977"><ele>0.0</ele><time>2026-03-22T09:47:45.166Z</time></trkpt><trkpt lat="45.0466567" lon="11.7098367"><ele>0.0</ele><time>2026-03-22T09:47:46.141Z</time></trkpt><trkpt lat="45.046605" lon="11.7099033"><ele>0.0</ele><time>2026-03-22T09:47:47.157Z</time></trkpt><trkpt lat="45.0465533" lon="11.7099717"><ele>0.0</ele><time>2026-03-22T09:47:48.143Z</time></trkpt><trkpt lat="45.0465" lon="11.7100367"><ele>0.0</ele><time>2026-03-22T09:47:49.159Z</time></trkpt><trkpt lat="45.0464483" lon="11.7100967"><ele>0.0</ele><time>2026-03-22T09:47:50.165Z</time></trkpt><trkpt lat="45.046395" lon="11.7101533"><ele>0.0</ele><time>2026-03-22T09:47:51.14Z</time></trkpt><trkpt lat="45.0463417" lon="11.710205"><ele>0.0</ele><time>2026-03-22T09:47:52.167Z</time></trkpt><trkpt lat="45.046235" lon="11.7102967"><ele>0.0</ele><time>2026-03-22T09:47:54.17Z</time></trkpt><trkpt lat="45.046125" lon="11.7103717"><ele>0.3333333333333333</ele><time>2026-03-22T09:47:56.17Z</time></trkpt><trkpt lat="45.0460133" lon="11.7104483"><ele>0.6666666666666666</ele><time>2026-03-22T09:47:58.135Z</time></trkpt><trkpt lat="45.0459517" lon="11.7104867"><ele>1.0</ele><time>2026-03-22T09:47:59.158Z</time></trkpt><trkpt lat="45.0458883" lon="11.7105233"><ele>1.3333333333333333</ele><time>2026-03-22T09:48:00.168Z</time></trkpt><trkpt lat="45.0458267" lon="11.7105583"><ele>1.6666666666666665</ele><time>2026-03-22T09:48:01.168Z</time></trkpt><trkpt lat="45.045765" lon="11.7105933"><ele>2.0</ele><time>2026-03-22T09:48:02.166Z</time></trkpt><trkpt lat="45.0457017" lon="11.7106267"><ele>2.0</ele><time>2026-03-22T09:48:03.159Z</time></trkpt><trkpt lat="45.0456417" lon="11.71066"><ele>1.9999999999999998</ele><time>2026-03-22T09:48:04.169Z</time></trkpt><trkpt lat="45.0455817" lon="11.710695"><ele>2.0</ele><time>2026-03-22T09:48:05.168Z</time></trkpt><trkpt lat="45.0455233" lon="11.71073"><ele>2.0</ele><time>2026-03-22T09:48:06.168Z</time></trkpt><trkpt lat="45.0454633" lon="11.7107683"><ele>1.9999999999999998</ele><time>2026-03-22T09:48:07.136Z</time></trkpt><trkpt lat="45.045405" lon="11.710805"><ele>2.0</ele><time>2026-03-22T09:48:08.132Z</time></trkpt><trkpt lat="45.0453467" lon="11.7108467"><ele>2.0</ele><time>2026-03-22T09:48:09.166Z</time></trkpt><trkpt lat="45.0452417" lon="11.7109383"><ele>2.0</ele><time>2026-03-22T09:48:11.159Z</time></trkpt><trkpt lat="45.04514" lon="11.7110317"><ele>2.0</ele><time>2026-03-22T09:48:13.136Z</time></trkpt><trkpt lat="45.0450467" lon="11.71113"><ele>2.0</ele><time>2026-03-22T09:48:15.165Z</time></trkpt><trkpt lat="45.0449567" lon="11.7112333"><ele>2.0</ele><time>2026-03-22T09:48:17.163Z</time></trkpt><trkpt lat="45.0448733" lon="11.7113383"><ele>2.2</ele><time>2026-03-22T09:48:19.163Z</time></trkpt><trkpt lat="45.0447933" lon="11.7114533"><ele>2.4000000000000004</ele><time>2026-03-22T09:48:21.165Z</time></trkpt><trkpt lat="45.0447183" lon="11.7115767"><ele>2.5999999999999996</ele><time>2026-03-22T09:48:23.17Z</time></trkpt><trkpt lat="45.0446533" lon="11.7117"><ele>2.8</ele><time>2026-03-22T09:48:25.157Z</time></trkpt><trkpt lat="45.0445933" lon="11.711825"><ele>3.0</ele><time>2026-03-22T09:48:27.135Z</time></trkpt><trkpt lat="45.0445433" lon="11.71195"><ele>3.0</ele><time>2026-03-22T09:48:29.165Z</time></trkpt><trkpt lat="45.0445" lon="11.71206"><ele>3.0</ele><time>2026-03-22T09:48:31.139Z</time></trkpt><trkpt lat="45.0444583" lon="11.7121667"><ele>3.0</ele><time>2026-03-22T09:48:33.168Z</time></trkpt><trkpt lat="45.04441" lon="11.7122783"><ele>3.0</ele><time>2026-03-22T09:48:35.169Z</time></trkpt><trkpt lat="45.0443683" lon="11.7123833"><ele>3.0</ele><time>2026-03-22T09:48:37.164Z</time></trkpt><trkpt lat="45.0443217" lon="11.7124933"><ele>3.0</ele><time>2026-03-22T09:48:39.16Z</time></trkpt><trkpt lat="45.04428" lon="11.712615"><ele>3.0</ele><time>2026-03-22T09:48:41.172Z</time></trkpt><trkpt lat="45.0442283" lon="11.7127417"><ele>3.0</ele><time>2026-03-22T09:48:43.168Z</time></trkpt><trkpt lat="45.0441717" lon="11.71287"><ele>3.0</ele><time>2026-03-22T09:48:45.172Z</time></trkpt><trkpt lat="45.0441117" lon="11.7130033"><ele>3.0</ele><time>2026-03-22T09:48:47.165Z</time></trkpt><trkpt lat="45.044045" lon="11.71314"><ele>3.0</ele><time>2026-03-22T09:48:49.165Z</time></trkpt><trkpt lat="45.04397" lon="11.7132867"><ele>3.0</ele><time>2026-03-22T09:48:51.156Z</time></trkpt><trkpt lat="45.0439267" lon="11.7133683"><ele>3.0</ele><time>2026-03-22T09:48:52.156Z</time></trkpt><trkpt lat="45.0438817" lon="11.7134517"><ele>3.0</ele><time>2026-03-22T09:48:53.167Z</time></trkpt><trkpt lat="45.0438367" lon="11.7135367"><ele>3.0</ele><time>2026-03-22T09:48:54.169Z</time></trkpt><trkpt lat="45.0437933" lon="11.7136267"><ele>3.0</ele><time>2026-03-22T09:48:55.165Z</time></trkpt><trkpt lat="45.0437483" lon="11.713715"><ele>3.0</ele><time>2026-03-22T09:48:56.164Z</time></trkpt><trkpt lat="45.0437017" lon="11.7138017"><ele>3.0</ele><time>2026-03-22T09:48:57.15Z</time></trkpt><trkpt lat="45.0436567" lon="11.71389"><ele>3.0</ele><time>2026-03-22T09:48:58.158Z</time></trkpt><trkpt lat="45.0436083" lon="11.7139833"><ele>3.0</ele><time>2026-03-22T09:48:59.164Z</time></trkpt><trkpt lat="45.0435583" lon="11.7140767"><ele>3.0</ele><time>2026-03-22T09:49:00.154Z</time></trkpt><trkpt lat="45.0435083" lon="11.7141717"><ele>3.0</ele><time>2026-03-22T09:49:01.154Z</time></trkpt><trkpt lat="45.0434583" lon="11.71427"><ele>3.0</ele><time>2026-03-22T09:49:02.134Z</time></trkpt><trkpt lat="45.04341" lon="11.7143683"><ele>3.1666666666666665</ele><time>2026-03-22T09:49:03.169Z</time></trkpt><trkpt lat="45.0433583" lon="11.7144667"><ele>3.333333333333333</ele><time>2026-03-22T09:49:04.15Z</time></trkpt><trkpt lat="45.0433067" lon="11.7145633"><ele>3.5</ele><time>2026-03-22T09:49:05.161Z</time></trkpt><trkpt lat="45.0432567" lon="11.7146633"><ele>3.6666666666666665</ele><time>2026-03-22T09:49:06.166Z</time></trkpt><trkpt lat="45.0432033" lon="11.7147633"><ele>3.833333333333333</ele><time>2026-03-22T09:49:07.169Z</time></trkpt><trkpt lat="45.0431533" lon="11.7148583"><ele>4.0</ele><time>2026-03-22T09:49:08.159Z</time></trkpt><trkpt lat="45.0431033" lon="11.714955"><ele>3.6666666666666665</ele><time>2026-03-22T09:49:09.145Z</time></trkpt><trkpt lat="45.0430533" lon="11.7150517"><ele>3.333333333333333</ele><time>2026-03-22T09:49:10.152Z</time></trkpt><trkpt lat="45.043" lon="11.715145"><ele>3.0</ele><time>2026-03-22T09:49:11.151Z</time></trkpt><trkpt lat="45.0429517" lon="11.7152383"><ele>2.6666666666666665</ele><time>2026-03-22T09:49:12.136Z</time></trkpt><trkpt lat="45.0429033" lon="11.71533"><ele>2.333333333333333</ele><time>2026-03-22T09:49:13.136Z</time></trkpt><trkpt lat="45.04286" lon="11.715415"><ele>2.0</ele><time>2026-03-22T09:49:14.141Z</time></trkpt><trkpt lat="45.0428233" lon="11.7154967"><ele>2.0</ele><time>2026-03-22T09:49:15.154Z</time></trkpt><trkpt lat="45.0427883" lon="11.7155733"><ele>1.9999999999999998</ele><time>2026-03-22T09:49:16.159Z</time></trkpt><trkpt lat="45.0427567" lon="11.7156533"><ele>2.0</ele><time>2026-03-22T09:49:17.16Z</time></trkpt><trkpt lat="45.042725" lon="11.715735"><ele>2.0</ele><time>2026-03-22T09:49:18.163Z</time></trkpt><trkpt lat="45.042695" lon="11.7158167"><ele>1.9999999999999998</ele><time>2026-03-22T09:49:19.173Z</time></trkpt><trkpt lat="45.0426683" lon="11.7159017"><ele>2.0</ele><time>2026-03-22T09:49:20.164Z</time></trkpt><trkpt lat="45.0426433" lon="11.7159867"><ele>2.0</ele><time>2026-03-22T09:49:21.169Z</time></trkpt><trkpt lat="45.04262" lon="11.7160733"><ele>2.0</ele><time>2026-03-22T09:49:22.163Z</time></trkpt><trkpt lat="45.0425967" lon="11.7161617"><ele>1.9999999999999998</ele><time>2026-03-22T09:49:23.165Z</time></trkpt><trkpt lat="45.042575" lon="11.7162517"><ele>2.0</ele><time>2026-03-22T09:49:24.137Z</time></trkpt><trkpt lat="45.0425533" lon="11.716345"><ele>2.0</ele><time>2026-03-22T09:49:25.165Z</time></trkpt><trkpt lat="45.0425333" lon="11.7164367"><ele>1.9999999999999998</ele><time>2026-03-22T09:49:26.174Z</time></trkpt><trkpt lat="45.0425167" lon="11.71653"><ele>2.0</ele><time>2026-03-22T09:49:27.135Z</time></trkpt><trkpt lat="45.0425033" lon="11.7166267"><ele>2.0</ele><time>2026-03-22T09:49:28.164Z</time></trkpt><trkpt lat="45.0424933" lon="11.7167233"><ele>1.9999999999999998</ele><time>2026-03-22T09:49:29.167Z</time></trkpt><trkpt lat="45.042485" lon="11.7168167"><ele>2.0</ele><time>2026-03-22T09:49:30.17Z</time></trkpt><trkpt lat="45.04248" lon="11.7169133"><ele>2.0</ele><time>2026-03-22T09:49:31.168Z</time></trkpt><trkpt lat="45.0424783" lon="11.71701"><ele>2.0</ele><time>2026-03-22T09:49:32.161Z</time></trkpt><trkpt lat="45.0424767" lon="11.7171083"><ele>1.9999999999999998</ele><time>2026-03-22T09:49:33.17Z</time></trkpt><trkpt lat="45.042475" lon="11.7172"><ele>2.0</ele><time>2026-03-22T09:49:34.168Z</time></trkpt><trkpt lat="45.0424683" lon="11.7173767"><ele>2.0</ele><time>2026-03-22T09:49:36.166Z</time></trkpt><trkpt lat="45.0424633" lon="11.7175367"><ele>2.0</ele><time>2026-03-22T09:49:38.167Z</time></trkpt><trkpt lat="45.0424583" lon="11.7176867"><ele>2.0</ele><time>2026-03-22T09:49:40.168Z</time></trkpt><trkpt lat="45.0424533" lon="11.71784"><ele>2.0</ele><time>2026-03-22T09:49:42.166Z</time></trkpt><trkpt lat="45.04245" lon="11.7180033"><ele>2.0</ele><time>2026-03-22T09:49:44.164Z</time></trkpt><trkpt lat="45.0424483" lon="11.71817"><ele>2.0</ele><time>2026-03-22T09:49:46.144Z</time></trkpt><trkpt lat="45.042445" lon="11.7183383"><ele>2.0</ele><time>2026-03-22T09:49:48.168Z</time></trkpt><trkpt lat="45.0424433" lon="11.71851"><ele>2.0</ele><time>2026-03-22T09:49:50.154Z</time></trkpt><trkpt lat="45.0424433" lon="11.7186833"><ele>2.0</ele><time>2026-03-22T09:49:52.168Z</time></trkpt><trkpt lat="45.0424433" lon="11.7188567"><ele>2.0</ele><time>2026-03-22T09:49:54.164Z</time></trkpt><trkpt lat="45.0424433" lon="11.7190117"><ele>2.0</ele><time>2026-03-22T09:49:56.157Z</time></trkpt><trkpt lat="45.04245" lon="11.7191733"><ele>2.0</ele><time>2026-03-22T09:49:58.16Z</time></trkpt><trkpt lat="45.0424583" lon="11.7193417"><ele>2.0</ele><time>2026-03-22T09:50:00.162Z</time></trkpt><trkpt lat="45.0424633" lon="11.71951"><ele>2.0</ele><time>2026-03-22T09:50:02.171Z</time></trkpt><trkpt lat="45.0424733" lon="11.719685"><ele>2.0</ele><time>2026-03-22T09:50:04.154Z</time></trkpt><trkpt lat="45.042485" lon="11.7198617"><ele>2.0</ele><time>2026-03-22T09:50:06.17Z</time></trkpt><trkpt lat="45.0424967" lon="11.72003"><ele>2.0</ele><time>2026-03-22T09:50:08.169Z</time></trkpt><trkpt lat="45.0424983" lon="11.720195"><ele>2.0</ele><time>2026-03-22T09:50:10.15Z</time></trkpt><trkpt lat="45.0424883" lon="11.7203667"><ele>2.0</ele><time>2026-03-22T09:50:12.174Z</time></trkpt><trkpt lat="45.0424533" lon="11.72053"><ele>2.0</ele><time>2026-03-22T09:50:14.15Z</time></trkpt><trkpt lat="45.0423967" lon="11.7206833"><ele>2.0</ele><time>2026-03-22T09:50:16.167Z</time></trkpt><trkpt lat="45.0423267" lon="11.7208167"><ele>2.0</ele><time>2026-03-22T09:50:18.155Z</time></trkpt><trkpt lat="45.0422483" lon="11.7209383"><ele>2.0</ele><time>2026-03-22T09:50:20.171Z</time></trkpt><trkpt lat="45.0421633" lon="11.7210517"><ele>2.0</ele><time>2026-03-22T09:50:22.167Z</time></trkpt><trkpt lat="45.0420817" lon="11.721165"><ele>2.0</ele><time>2026-03-22T09:50:24.168Z</time></trkpt><trkpt lat="45.0419933" lon="11.72128"><ele>2.25</ele><time>2026-03-22T09:50:26.167Z</time></trkpt><trkpt lat="45.04191" lon="11.72139"><ele>2.5</ele><time>2026-03-22T09:50:28.164Z</time></trkpt><trkpt lat="45.0418283" lon="11.7215"><ele>2.75</ele><time>2026-03-22T09:50:30.166Z</time></trkpt><trkpt lat="45.0417417" lon="11.721605"><ele>3.0</ele><time>2026-03-22T09:50:32.167Z</time></trkpt><trkpt lat="45.0416567" lon="11.721705"><ele>2.8333333333333335</ele><time>2026-03-22T09:50:34.168Z</time></trkpt><trkpt lat="45.0415683" lon="11.7218117"><ele>2.6666666666666665</ele><time>2026-03-22T09:50:36.165Z</time></trkpt><trkpt lat="45.0414783" lon="11.721925"><ele>2.5</ele><time>2026-03-22T09:50:38.162Z</time></trkpt><trkpt lat="45.0414283" lon="11.7219867"><ele>2.333333333333333</ele><time>2026-03-22T09:50:39.167Z</time></trkpt><trkpt lat="45.041375" lon="11.7220517"><ele>2.1666666666666665</ele><time>2026-03-22T09:50:40.14Z</time></trkpt><trkpt lat="45.041325" lon="11.7221183"><ele>2.0</ele><time>2026-03-22T09:50:41.141Z</time></trkpt><trkpt lat="45.0412767" lon="11.7221867"><ele>2.0</ele><time>2026-03-22T09:50:42.158Z</time></trkpt><trkpt lat="45.0412317" lon="11.7222567"><ele>1.9999999999999998</ele><time>2026-03-22T09:50:43.167Z</time></trkpt><trkpt lat="45.04119" lon="11.7223283"><ele>2.0</ele><time>2026-03-22T09:50:44.167Z</time></trkpt><trkpt lat="45.0411517" lon="11.7224033"><ele>2.0</ele><time>2026-03-22T09:50:45.173Z</time></trkpt><trkpt lat="45.041115" lon="11.7224783"><ele>1.9999999999999998</ele><time>2026-03-22T09:50:46.162Z</time></trkpt><trkpt lat="45.04108" lon="11.7225567"><ele>2.0</ele><time>2026-03-22T09:50:47.147Z</time></trkpt><trkpt lat="45.0410483" lon="11.722635"><ele>2.0</ele><time>2026-03-22T09:50:48.166Z</time></trkpt><trkpt lat="45.0410133" lon="11.7227133"><ele>2.142857142857143</ele><time>2026-03-22T09:50:49.164Z</time></trkpt><trkpt lat="45.0409817" lon="11.722795"><ele>2.2857142857142856</ele><time>2026-03-22T09:50:50.17Z</time></trkpt><trkpt lat="45.040955" lon="11.72288"><ele>2.4285714285714284</ele><time>2026-03-22T09:50:51.158Z</time></trkpt><trkpt lat="45.0409367" lon="11.7229683"><ele>2.571428571428571</ele><time>2026-03-22T09:50:52.16Z</time></trkpt><trkpt lat="45.0409217" lon="11.72306"><ele>2.7142857142857144</ele><time>2026-03-22T09:50:53.148Z</time></trkpt><trkpt lat="45.04091" lon="11.7231533"><ele>2.8571428571428568</ele><time>2026-03-22T09:50:54.151Z</time></trkpt><trkpt lat="45.0409033" lon="11.723245"><ele>3.0</ele><time>2026-03-22T09:50:55.175Z</time></trkpt><trkpt lat="45.0409" lon="11.7233367"><ele>3.0</ele><time>2026-03-22T09:50:56.171Z</time></trkpt><trkpt lat="45.0408983" lon="11.7234267"><ele>3.0</ele><time>2026-03-22T09:50:57.146Z</time></trkpt><trkpt lat="45.0408983" lon="11.7235167"><ele>3.0</ele><time>2026-03-22T09:50:58.169Z</time></trkpt><trkpt lat="45.0408967" lon="11.7236883"><ele>3.0</ele><time>2026-03-22T09:51:00.162Z</time></trkpt><trkpt lat="45.0408867" lon="11.7238617"><ele>3.0</ele><time>2026-03-22T09:51:02.172Z</time></trkpt><trkpt lat="45.0408683" lon="11.7240283"><ele>2.5</ele><time>2026-03-22T09:51:04.173Z</time></trkpt><trkpt lat="45.0408367" lon="11.7241833"><ele>2.0</ele><time>2026-03-22T09:51:06.166Z</time></trkpt><trkpt lat="45.0407833" lon="11.724325"><ele>1.5</ele><time>2026-03-22T09:51:08.168Z</time></trkpt><trkpt lat="45.0407117" lon="11.7244617"><ele>1.0</ele><time>2026-03-22T09:51:10.138Z</time></trkpt><trkpt lat="45.040625" lon="11.724585"><ele>0.8</ele><time>2026-03-22T09:51:12.149Z</time></trkpt><trkpt lat="45.0405783" lon="11.7246467"><ele>0.6000000000000001</ele><time>2026-03-22T09:51:13.153Z</time></trkpt><trkpt lat="45.0405317" lon="11.7247083"><ele>0.4</ele><time>2026-03-22T09:51:14.162Z</time></trkpt><trkpt lat="45.0404433" lon="11.724835"><ele>0.2</ele><time>2026-03-22T09:51:16.166Z</time></trkpt><trkpt lat="45.0403533" lon="11.7249567"><ele>0.0</ele><time>2026-03-22T09:51:18.163Z</time></trkpt><trkpt lat="45.0402667" lon="11.7250783"><ele>0.0</ele><time>2026-03-22T09:51:20.164Z</time></trkpt><trkpt lat="45.0401867" lon="11.72519"><ele>0.0</ele><time>2026-03-22T09:51:22.164Z</time></trkpt><trkpt lat="45.0401033" lon="11.7252983"><ele>0.0</ele><time>2026-03-22T09:51:24.168Z</time></trkpt><trkpt lat="45.0400233" lon="11.7254083"><ele>0.0</ele><time>2026-03-22T09:51:26.168Z</time></trkpt><trkpt lat="45.0399317" lon="11.72553"><ele>0.25</ele><time>2026-03-22T09:51:28.166Z</time></trkpt><trkpt lat="45.0398433" lon="11.72565"><ele>0.5</ele><time>2026-03-22T09:51:30.166Z</time></trkpt><trkpt lat="45.03976" lon="11.725765"><ele>0.75</ele><time>2026-03-22T09:51:32.163Z</time></trkpt><trkpt lat="45.0396767" lon="11.7258767"><ele>1.0</ele><time>2026-03-22T09:51:34.159Z</time></trkpt><trkpt lat="45.03959" lon="11.7259867"><ele>0.75</ele><time>2026-03-22T09:51:36.138Z</time></trkpt><trkpt lat="45.0394967" lon="11.7261"><ele>0.5</ele><time>2026-03-22T09:51:38.142Z</time></trkpt><trkpt lat="45.0393983" lon="11.72621"><ele>0.25</ele><time>2026-03-22T09:51:40.136Z</time></trkpt><trkpt lat="45.0392933" lon="11.7263"><ele>0.0</ele><time>2026-03-22T09:51:42.147Z</time></trkpt><trkpt lat="45.0391817" lon="11.726375"><ele>0.16666666666666666</ele><time>2026-03-22T09:51:44.137Z</time></trkpt><trkpt lat="45.0391217" lon="11.7264083"><ele>0.3333333333333333</ele><time>2026-03-22T09:51:45.145Z</time></trkpt><trkpt lat="45.0390567" lon="11.7264367"><ele>0.5</ele><time>2026-03-22T09:51:46.143Z</time></trkpt><trkpt lat="45.0389933" lon="11.7264633"><ele>0.6666666666666666</ele><time>2026-03-22T09:51:47.146Z</time></trkpt><trkpt lat="45.0389317" lon="11.7264883"><ele>0.8333333333333333</ele><time>2026-03-22T09:51:48.131Z</time></trkpt><trkpt lat="45.0388117" lon="11.726535"><ele>1.0</ele><time>2026-03-22T09:51:50.14Z</time></trkpt><trkpt lat="45.03869" lon="11.726575"><ele>1.0</ele><time>2026-03-22T09:51:52.155Z</time></trkpt><trkpt lat="45.0386283" lon="11.7265967"><ele>0.9999999999999999</ele><time>2026-03-22T09:51:53.148Z</time></trkpt><trkpt lat="45.038565" lon="11.7266183"><ele>1.0</ele><time>2026-03-22T09:51:54.15Z</time></trkpt><trkpt lat="45.0385033" lon="11.726645"><ele>1.0</ele><time>2026-03-22T09:51:55.136Z</time></trkpt><trkpt lat="45.0384417" lon="11.7266717"><ele>0.9999999999999999</ele><time>2026-03-22T09:51:56.154Z</time></trkpt><trkpt lat="45.0383817" lon="11.7267017"><ele>1.0</ele><time>2026-03-22T09:51:57.129Z</time></trkpt><trkpt lat="45.038265" lon="11.726765"><ele>1.0</ele><time>2026-03-22T09:51:59.168Z</time></trkpt><trkpt lat="45.0382067" lon="11.7268017"><ele>1.0</ele><time>2026-03-22T09:52:00.164Z</time></trkpt><trkpt lat="45.0381483" lon="11.72684"><ele>0.9999999999999999</ele><time>2026-03-22T09:52:01.17Z</time></trkpt><trkpt lat="45.03809" lon="11.7268833"><ele>1.0</ele><time>2026-03-22T09:52:02.151Z</time></trkpt><trkpt lat="45.038035" lon="11.7269317"><ele>1.0</ele><time>2026-03-22T09:52:03.152Z</time></trkpt><trkpt lat="45.0379833" lon="11.7269867"><ele>0.9999999999999999</ele><time>2026-03-22T09:52:04.161Z</time></trkpt><trkpt lat="45.0379367" lon="11.72705"><ele>1.0</ele><time>2026-03-22T09:52:05.162Z</time></trkpt><trkpt lat="45.0378933" lon="11.7271167"><ele>1.0</ele><time>2026-03-22T09:52:06.158Z</time></trkpt><trkpt lat="45.0378517" lon="11.7271867"><ele>1.0</ele><time>2026-03-22T09:52:07.166Z</time></trkpt><trkpt lat="45.0378133" lon="11.7272633"><ele>1.0</ele><time>2026-03-22T09:52:08.167Z</time></trkpt><trkpt lat="45.0377767" lon="11.72734"><ele>1.0</ele><time>2026-03-22T09:52:09.158Z</time></trkpt><trkpt lat="45.0377167" lon="11.7274917"><ele>1.0</ele><time>2026-03-22T09:52:11.18Z</time></trkpt><trkpt lat="45.037665" lon="11.727645"><ele>1.0</ele><time>2026-03-22T09:52:13.162Z</time></trkpt><trkpt lat="45.0376183" lon="11.7278033"><ele>0.9999999999999999</ele><time>2026-03-22T09:52:15.148Z</time></trkpt><trkpt lat="45.03758" lon="11.7279433"><ele>1.0</ele><time>2026-03-22T09:52:17.141Z</time></trkpt><trkpt lat="45.0375517" lon="11.7280417"><ele>1.0</ele><time>2026-03-22T09:52:19.144Z</time></trkpt><trkpt lat="45.0375283" lon="11.7281267"><ele>1.0</ele><time>2026-03-22T09:52:21.131Z</time></trkpt><trkpt lat="45.037505" lon="11.7282267"><ele>0.9999999999999999</ele><time>2026-03-22T09:52:23.162Z</time></trkpt><trkpt lat="45.0374817" lon="11.728325"><ele>1.0</ele><time>2026-03-22T09:52:25.157Z</time></trkpt><trkpt lat="45.037455" lon="11.728425"><ele>1.1666666666666665</ele><time>2026-03-22T09:52:27.155Z</time></trkpt><trkpt lat="45.0374217" lon="11.7285317"><ele>1.3333333333333333</ele><time>2026-03-22T09:52:29.158Z</time></trkpt><trkpt lat="45.0373867" lon="11.7286467"><ele>1.5</ele><time>2026-03-22T09:52:31.166Z</time></trkpt><trkpt lat="45.0373717" lon="11.72877"><ele>1.6666666666666665</ele><time>2026-03-22T09:52:33.159Z</time></trkpt><trkpt lat="45.037385" lon="11.7288717"><ele>1.8333333333333333</ele><time>2026-03-22T09:52:35.161Z</time></trkpt><trkpt lat="45.0374383" lon="11.7289917"><ele>2.0</ele><time>2026-03-22T09:52:38.16Z</time></trkpt><trkpt lat="45.03751" lon="11.7290883"><ele>2.0</ele><time>2026-03-22T09:52:40.164Z</time></trkpt><trkpt lat="45.03758" lon="11.7292067"><ele>2.0</ele><time>2026-03-22T09:52:42.167Z</time></trkpt><trkpt lat="45.03765" lon="11.72934"><ele>2.0</ele><time>2026-03-22T09:52:44.167Z</time></trkpt><trkpt lat="45.0377217" lon="11.7294717"><ele>2.0</ele><time>2026-03-22T09:52:46.16Z</time></trkpt><trkpt lat="45.0377983" lon="11.729605"><ele>2.1666666666666665</ele><time>2026-03-22T09:52:48.165Z</time></trkpt><trkpt lat="45.0378767" lon="11.7297433"><ele>2.333333333333333</ele><time>2026-03-22T09:52:50.167Z</time></trkpt><trkpt lat="45.0379167" lon="11.729815"><ele>2.5</ele><time>2026-03-22T09:52:51.168Z</time></trkpt><trkpt lat="45.037955" lon="11.7298867"><ele>2.6666666666666665</ele><time>2026-03-22T09:52:52.164Z</time></trkpt><trkpt lat="45.037995" lon="11.7299583"><ele>2.8333333333333335</ele><time>2026-03-22T09:52:53.168Z</time></trkpt><trkpt lat="45.0380367" lon="11.7300333"><ele>3.0</ele><time>2026-03-22T09:52:54.14Z</time></trkpt><trkpt lat="45.0380767" lon="11.7301067"><ele>2.9999999999999996</ele><time>2026-03-22T09:52:55.159Z</time></trkpt><trkpt lat="45.03812" lon="11.7301833"><ele>3.0</ele><time>2026-03-22T09:52:56.16Z</time></trkpt><trkpt lat="45.0381617" lon="11.7302567"><ele>3.0</ele><time>2026-03-22T09:52:57.166Z</time></trkpt><trkpt lat="45.038205" lon="11.73033"><ele>3.0</ele><time>2026-03-22T09:52:58.166Z</time></trkpt><trkpt lat="45.0382467" lon="11.730405"><ele>3.0</ele><time>2026-03-22T09:52:59.169Z</time></trkpt><trkpt lat="45.0382883" lon="11.73048"><ele>2.9999999999999996</ele><time>2026-03-22T09:53:00.166Z</time></trkpt><trkpt lat="45.0383317" lon="11.730555"><ele>3.0</ele><time>2026-03-22T09:53:01.171Z</time></trkpt><trkpt lat="45.038375" lon="11.7306317"><ele>2.8571428571428568</ele><time>2026-03-22T09:53:02.229Z</time></trkpt><trkpt lat="45.0384183" lon="11.7307083"><ele>2.7142857142857144</ele><time>2026-03-22T09:53:03.172Z</time></trkpt><trkpt lat="45.0384617" lon="11.7307833"><ele>2.571428571428571</ele><time>2026-03-22T09:53:04.17Z</time></trkpt><trkpt lat="45.038505" lon="11.7308583"><ele>2.4285714285714284</ele><time>2026-03-22T09:53:05.136Z</time></trkpt><trkpt lat="45.0385483" lon="11.7309317"><ele>2.2857142857142856</ele><time>2026-03-22T09:53:06.167Z</time></trkpt><trkpt lat="45.0385917" lon="11.731005"><ele>2.142857142857143</ele><time>2026-03-22T09:53:07.166Z</time></trkpt><trkpt lat="45.038635" lon="11.7310783"><ele>2.0</ele><time>2026-03-22T09:53:08.164Z</time></trkpt><trkpt lat="45.0386783" lon="11.731155"><ele>2.0</ele><time>2026-03-22T09:53:09.165Z</time></trkpt><trkpt lat="45.0387233" lon="11.7312317"><ele>1.9999999999999998</ele><time>2026-03-22T09:53:10.17Z</time></trkpt><trkpt lat="45.0387683" lon="11.7313083"><ele>2.0</ele><time>2026-03-22T09:53:11.162Z</time></trkpt><trkpt lat="45.0388117" lon="11.7313867"><ele>2.0</ele><time>2026-03-22T09:53:12.161Z</time></trkpt><trkpt lat="45.038855" lon="11.7314633"><ele>1.9999999999999998</ele><time>2026-03-22T09:53:13.165Z</time></trkpt><trkpt lat="45.0389" lon="11.7315383"><ele>2.0</ele><time>2026-03-22T09:53:14.163Z</time></trkpt><trkpt lat="45.038945" lon="11.7316133"><ele>2.0</ele><time>2026-03-22T09:53:15.141Z</time></trkpt><trkpt lat="45.03899" lon="11.7316883"><ele>2.0</ele><time>2026-03-22T09:53:16.161Z</time></trkpt><trkpt lat="45.039035" lon="11.7317667"><ele>1.9999999999999998</ele><time>2026-03-22T09:53:17.169Z</time></trkpt><trkpt lat="45.0390783" lon="11.7318433"><ele>2.0</ele><time>2026-03-22T09:53:18.151Z</time></trkpt><trkpt lat="45.0391217" lon="11.7319217"><ele>2.0</ele><time>2026-03-22T09:53:19.15Z</time></trkpt><trkpt lat="45.0391633" lon="11.7319933"><ele>1.9999999999999998</ele><time>2026-03-22T09:53:20.157Z</time></trkpt><trkpt lat="45.039205" lon="11.7320667"><ele>2.0</ele><time>2026-03-22T09:53:21.162Z</time></trkpt><trkpt lat="45.0392467" lon="11.7321383"><ele>2.0</ele><time>2026-03-22T09:53:22.166Z</time></trkpt><trkpt lat="45.0392883" lon="11.73221"><ele>1.857142857142857</ele><time>2026-03-22T09:53:23.165Z</time></trkpt><trkpt lat="45.0393317" lon="11.7322817"><ele>1.714285714285714</ele><time>2026-03-22T09:53:24.157Z</time></trkpt><trkpt lat="45.039375" lon="11.7323533"><ele>1.5714285714285714</ele><time>2026-03-22T09:53:25.155Z</time></trkpt><trkpt lat="45.0394183" lon="11.7324267"><ele>1.4285714285714284</ele><time>2026-03-22T09:53:26.146Z</time></trkpt><trkpt lat="45.03946" lon="11.7325017"><ele>1.2857142857142856</ele><time>2026-03-22T09:53:27.164Z</time></trkpt><trkpt lat="45.0395017" lon="11.7325733"><ele>1.1428571428571428</ele><time>2026-03-22T09:53:28.165Z</time></trkpt><trkpt lat="45.039545" lon="11.7326467"><ele>1.0</ele><time>2026-03-22T09:53:29.169Z</time></trkpt><trkpt lat="45.0395883" lon="11.73272"><ele>1.0</ele><time>2026-03-22T09:53:30.163Z</time></trkpt><trkpt lat="45.0396283" lon="11.7327917"><ele>0.9999999999999999</ele><time>2026-03-22T09:53:31.158Z</time></trkpt><trkpt lat="45.03967" lon="11.73286"><ele>1.0</ele><time>2026-03-22T09:53:32.167Z</time></trkpt><trkpt lat="45.0397133" lon="11.73293"><ele>1.0</ele><time>2026-03-22T09:53:33.167Z</time></trkpt><trkpt lat="45.039755" lon="11.7329983"><ele>0.9999999999999999</ele><time>2026-03-22T09:53:34.17Z</time></trkpt><trkpt lat="45.0398367" lon="11.7331333"><ele>1.0</ele><time>2026-03-22T09:53:36.166Z</time></trkpt><trkpt lat="45.0398783" lon="11.7332033"><ele>1.0</ele><time>2026-03-22T09:53:37.163Z</time></trkpt><trkpt lat="45.03992" lon="11.7332767"><ele>1.0</ele><time>2026-03-22T09:53:38.167Z</time></trkpt><trkpt lat="45.03996" lon="11.7333467"><ele>1.0</ele><time>2026-03-22T09:53:39.163Z</time></trkpt><trkpt lat="45.0400383" lon="11.733485"><ele>1.0</ele><time>2026-03-22T09:53:41.168Z</time></trkpt><trkpt lat="45.0401183" lon="11.7336183"><ele>1.0</ele><time>2026-03-22T09:53:43.168Z</time></trkpt><trkpt lat="45.0402017" lon="11.7337517"><ele>1.0</ele><time>2026-03-22T09:53:45.169Z</time></trkpt><trkpt lat="45.040285" lon="11.733885"><ele>1.25</ele><time>2026-03-22T09:53:47.149Z</time></trkpt><trkpt lat="45.0403633" lon="11.7340183"><ele>1.5</ele><time>2026-03-22T09:53:49.168Z</time></trkpt><trkpt lat="45.0404367" lon="11.7341517"><ele>1.75</ele><time>2026-03-22T09:53:51.159Z</time></trkpt><trkpt lat="45.0405133" lon="11.7342883"><ele>2.0</ele><time>2026-03-22T09:53:53.159Z</time></trkpt><trkpt lat="45.0405917" lon="11.7344267"><ele>2.142857142857143</ele><time>2026-03-22T09:53:55.159Z</time></trkpt><trkpt lat="45.0406317" lon="11.7345"><ele>2.2857142857142856</ele><time>2026-03-22T09:53:56.153Z</time></trkpt><trkpt lat="45.0406733" lon="11.7345733"><ele>2.4285714285714284</ele><time>2026-03-22T09:53:57.166Z</time></trkpt><trkpt lat="45.040715" lon="11.734645"><ele>2.571428571428571</ele><time>2026-03-22T09:53:58.147Z</time></trkpt><trkpt lat="45.0407567" lon="11.7347183"><ele>2.7142857142857144</ele><time>2026-03-22T09:53:59.156Z</time></trkpt><trkpt lat="45.0407983" lon="11.7347917"><ele>2.8571428571428568</ele><time>2026-03-22T09:54:00.166Z</time></trkpt><trkpt lat="45.04084" lon="11.7348633"><ele>3.0</ele><time>2026-03-22T09:54:01.164Z</time></trkpt><trkpt lat="45.0408833" lon="11.734935"><ele>3.1428571428571423</ele><time>2026-03-22T09:54:02.171Z</time></trkpt><trkpt lat="45.040925" lon="11.7350083"><ele>3.2857142857142856</ele><time>2026-03-22T09:54:03.165Z</time></trkpt><trkpt lat="45.0409683" lon="11.73508"><ele>3.4285714285714284</ele><time>2026-03-22T09:54:04.167Z</time></trkpt><trkpt lat="45.0410133" lon="11.7351567"><ele>3.571428571428571</ele><time>2026-03-22T09:54:05.165Z</time></trkpt><trkpt lat="45.0410567" lon="11.7352317"><ele>3.714285714285714</ele><time>2026-03-22T09:54:06.166Z</time></trkpt><trkpt lat="45.0410983" lon="11.7353067"><ele>3.8571428571428568</ele><time>2026-03-22T09:54:07.164Z</time></trkpt><trkpt lat="45.04114" lon="11.73538"><ele>4.0</ele><time>2026-03-22T09:54:08.164Z</time></trkpt><trkpt lat="45.04118" lon="11.735455"><ele>4.142857142857142</ele><time>2026-03-22T09:54:09.149Z</time></trkpt><trkpt lat="45.0412233" lon="11.7355283"><ele>4.285714285714286</ele><time>2026-03-22T09:54:10.164Z</time></trkpt><trkpt lat="45.0412683" lon="11.7356017"><ele>4.428571428571429</ele><time>2026-03-22T09:54:11.162Z</time></trkpt><trkpt lat="45.0413133" lon="11.735675"><ele>4.571428571428571</ele><time>2026-03-22T09:54:12.166Z</time></trkpt><trkpt lat="45.04136" lon="11.73575"><ele>4.714285714285714</ele><time>2026-03-22T09:54:13.167Z</time></trkpt><trkpt lat="45.0414067" lon="11.7358217"><ele>4.857142857142857</ele><time>2026-03-22T09:54:14.163Z</time></trkpt><trkpt lat="45.04145" lon="11.7358967"><ele>5.0</ele><time>2026-03-22T09:54:15.167Z</time></trkpt><trkpt lat="45.0414933" lon="11.735975"><ele>4.714285714285714</ele><time>2026-03-22T09:54:16.154Z</time></trkpt><trkpt lat="45.0415367" lon="11.7360533"><ele>4.428571428571429</ele><time>2026-03-22T09:54:17.159Z</time></trkpt><trkpt lat="45.04158" lon="11.7361317"><ele>4.142857142857142</ele><time>2026-03-22T09:54:18.167Z</time></trkpt><trkpt lat="45.0416233" lon="11.73621"><ele>3.8571428571428568</ele><time>2026-03-22T09:54:19.168Z</time></trkpt><trkpt lat="45.0416683" lon="11.7362883"><ele>3.571428571428571</ele><time>2026-03-22T09:54:20.166Z</time></trkpt><trkpt lat="45.0417133" lon="11.7363683"><ele>3.2857142857142856</ele><time>2026-03-22T09:54:21.166Z</time></trkpt><trkpt lat="45.0417567" lon="11.7364483"><ele>3.0</ele><time>2026-03-22T09:54:22.166Z</time></trkpt><trkpt lat="45.0418017" lon="11.7365267"><ele>2.9999999999999996</ele><time>2026-03-22T09:54:23.169Z</time></trkpt><trkpt lat="45.0418467" lon="11.736605"><ele>3.0</ele><time>2026-03-22T09:54:24.141Z</time></trkpt><trkpt lat="45.0418883" lon="11.73668"><ele>3.0</ele><time>2026-03-22T09:54:25.165Z</time></trkpt><trkpt lat="45.04193" lon="11.7367533"><ele>3.0</ele><time>2026-03-22T09:54:26.166Z</time></trkpt><trkpt lat="45.04197" lon="11.7368283"><ele>3.0</ele><time>2026-03-22T09:54:27.168Z</time></trkpt><trkpt lat="45.0420117" lon="11.7369"><ele>2.9999999999999996</ele><time>2026-03-22T09:54:28.168Z</time></trkpt><trkpt lat="45.0420567" lon="11.7369767"><ele>3.0</ele><time>2026-03-22T09:54:29.167Z</time></trkpt><trkpt lat="45.0421017" lon="11.7370533"><ele>2.8571428571428568</ele><time>2026-03-22T09:54:30.165Z</time></trkpt><trkpt lat="45.0421467" lon="11.7371283"><ele>2.7142857142857144</ele><time>2026-03-22T09:54:31.169Z</time></trkpt><trkpt lat="45.0421933" lon="11.7372033"><ele>2.571428571428571</ele><time>2026-03-22T09:54:32.166Z</time></trkpt><trkpt lat="45.0422383" lon="11.73728"><ele>2.4285714285714284</ele><time>2026-03-22T09:54:33.17Z</time></trkpt><trkpt lat="45.0422817" lon="11.73736"><ele>2.2857142857142856</ele><time>2026-03-22T09:54:34.166Z</time></trkpt><trkpt lat="45.0423267" lon="11.7374367"><ele>2.142857142857143</ele><time>2026-03-22T09:54:35.166Z</time></trkpt><trkpt lat="45.04237" lon="11.7375133"><ele>2.0</ele><time>2026-03-22T09:54:36.167Z</time></trkpt><trkpt lat="45.0424117" lon="11.7375917"><ele>2.0</ele><time>2026-03-22T09:54:37.17Z</time></trkpt><trkpt lat="45.0424533" lon="11.7376733"><ele>1.9999999999999998</ele><time>2026-03-22T09:54:38.168Z</time></trkpt><trkpt lat="45.0424967" lon="11.7377517"><ele>2.0</ele><time>2026-03-22T09:54:39.168Z</time></trkpt><trkpt lat="45.0425433" lon="11.73783"><ele>2.0</ele><time>2026-03-22T09:54:40.136Z</time></trkpt><trkpt lat="45.0425883" lon="11.7379083"><ele>1.9999999999999998</ele><time>2026-03-22T09:54:41.164Z</time></trkpt><trkpt lat="45.0426283" lon="11.73799"><ele>2.0</ele><time>2026-03-22T09:54:42.168Z</time></trkpt><trkpt lat="45.04267" lon="11.7380733"><ele>2.0</ele><time>2026-03-22T09:54:43.161Z</time></trkpt><trkpt lat="45.042715" lon="11.7381533"><ele>2.142857142857143</ele><time>2026-03-22T09:54:44.171Z</time></trkpt><trkpt lat="45.0427583" lon="11.7382317"><ele>2.2857142857142856</ele><time>2026-03-22T09:54:45.166Z</time></trkpt><trkpt lat="45.0428033" lon="11.7383083"><ele>2.4285714285714284</ele><time>2026-03-22T09:54:46.169Z</time></trkpt><trkpt lat="45.0428483" lon="11.738385"><ele>2.571428571428571</ele><time>2026-03-22T09:54:47.168Z</time></trkpt><trkpt lat="45.0428933" lon="11.7384633"><ele>2.7142857142857144</ele><time>2026-03-22T09:54:48.168Z</time></trkpt><trkpt lat="45.042935" lon="11.7385417"><ele>2.8571428571428568</ele><time>2026-03-22T09:54:49.165Z</time></trkpt><trkpt lat="45.0429767" lon="11.738615"><ele>3.0</ele><time>2026-03-22T09:54:50.169Z</time></trkpt><trkpt lat="45.0430183" lon="11.7386833"><ele>3.0</ele><time>2026-03-22T09:54:51.165Z</time></trkpt><trkpt lat="45.043095" lon="11.7388183"><ele>3.0</ele><time>2026-03-22T09:54:53.167Z</time></trkpt><trkpt lat="45.0431733" lon="11.73895"><ele>3.0</ele><time>2026-03-22T09:54:55.163Z</time></trkpt><trkpt lat="45.0432533" lon="11.7390867"><ele>3.0</ele><time>2026-03-22T09:54:57.154Z</time></trkpt><trkpt lat="45.0432933" lon="11.7391567"><ele>3.0</ele><time>2026-03-22T09:54:58.164Z</time></trkpt><trkpt lat="45.0433733" lon="11.7392933"><ele>3.0</ele><time>2026-03-22T09:55:00.166Z</time></trkpt><trkpt lat="45.043415" lon="11.7393633"><ele>3.0</ele><time>2026-03-22T09:55:01.168Z</time></trkpt><trkpt lat="45.0434567" lon="11.7394333"><ele>3.0</ele><time>2026-03-22T09:55:02.16Z</time></trkpt><trkpt lat="45.043535" lon="11.7395683"><ele>3.0</ele><time>2026-03-22T09:55:04.168Z</time></trkpt><trkpt lat="45.0436067" lon="11.7397"><ele>3.0</ele><time>2026-03-22T09:55:06.168Z</time></trkpt><trkpt lat="45.0436783" lon="11.7398233"><ele>3.0</ele><time>2026-03-22T09:55:08.17Z</time></trkpt><trkpt lat="45.0437483" lon="11.7399417"><ele>3.0</ele><time>2026-03-22T09:55:10.168Z</time></trkpt><trkpt lat="45.04382" lon="11.7400717"><ele>3.0</ele><time>2026-03-22T09:55:12.139Z</time></trkpt><trkpt lat="45.0438933" lon="11.7402017"><ele>3.0</ele><time>2026-03-22T09:55:14.166Z</time></trkpt><trkpt lat="45.0439683" lon="11.7403383"><ele>3.0</ele><time>2026-03-22T09:55:16.166Z</time></trkpt><trkpt lat="45.0440433" lon="11.7404683"><ele>3.0</ele><time>2026-03-22T09:55:18.16Z</time></trkpt><trkpt lat="45.0441133" lon="11.740595"><ele>3.0</ele><time>2026-03-22T09:55:20.157Z</time></trkpt><trkpt lat="45.0441817" lon="11.7407183"><ele>3.0</ele><time>2026-03-22T09:55:22.164Z</time></trkpt><trkpt lat="45.04425" lon="11.7408283"><ele>3.0</ele><time>2026-03-22T09:55:24.147Z</time></trkpt><trkpt lat="45.04431" lon="11.7409283"><ele>3.0</ele><time>2026-03-22T09:55:26.166Z</time></trkpt><trkpt lat="45.04437" lon="11.7410217"><ele>3.0</ele><time>2026-03-22T09:55:28.145Z</time></trkpt><trkpt lat="45.0444267" lon="11.7411117"><ele>3.0</ele><time>2026-03-22T09:55:30.172Z</time></trkpt><trkpt lat="45.0444767" lon="11.741195"><ele>3.0</ele><time>2026-03-22T09:55:32.165Z</time></trkpt><trkpt lat="45.0445267" lon="11.74128"><ele>3.0</ele><time>2026-03-22T09:55:34.153Z</time></trkpt><trkpt lat="45.044585" lon="11.74138"><ele>3.0</ele><time>2026-03-22T09:55:36.163Z</time></trkpt><trkpt lat="45.044645" lon="11.7414767"><ele>3.1666666666666665</ele><time>2026-03-22T09:55:38.17Z</time></trkpt><trkpt lat="45.0446967" lon="11.7415783"><ele>3.333333333333333</ele><time>2026-03-22T09:55:40.17Z</time></trkpt><trkpt lat="45.044745" lon="11.7416767"><ele>3.5</ele><time>2026-03-22T09:55:42.173Z</time></trkpt><trkpt lat="45.044775" lon="11.74178"><ele>3.6666666666666665</ele><time>2026-03-22T09:55:44.142Z</time></trkpt><trkpt lat="45.0447767" lon="11.7419"><ele>3.833333333333333</ele><time>2026-03-22T09:55:46.167Z</time></trkpt><trkpt lat="45.0447667" lon="11.7420233"><ele>4.0</ele><time>2026-03-22T09:55:48.164Z</time></trkpt><trkpt lat="45.044755" lon="11.742165"><ele>3.9999999999999996</ele><time>2026-03-22T09:55:50.169Z</time></trkpt><trkpt lat="45.044745" lon="11.7423283"><ele>4.0</ele><time>2026-03-22T09:55:52.167Z</time></trkpt><trkpt lat="45.0447433" lon="11.7425067"><ele>4.0</ele><time>2026-03-22T09:55:54.165Z</time></trkpt><trkpt lat="45.0447467" lon="11.7425967"><ele>4.0</ele><time>2026-03-22T09:55:55.159Z</time></trkpt><trkpt lat="45.0447517" lon="11.74269"><ele>3.9999999999999996</ele><time>2026-03-22T09:55:56.174Z</time></trkpt><trkpt lat="45.0447567" lon="11.7427883"><ele>4.0</ele><time>2026-03-22T09:55:57.165Z</time></trkpt><trkpt lat="45.0447633" lon="11.7428817"><ele>4.0</ele><time>2026-03-22T09:55:58.159Z</time></trkpt><trkpt lat="45.04477" lon="11.7429767"><ele>3.9999999999999996</ele><time>2026-03-22T09:55:59.166Z</time></trkpt><trkpt lat="45.0447767" lon="11.7430733"><ele>4.0</ele><time>2026-03-22T09:56:00.162Z</time></trkpt><trkpt lat="45.044785" lon="11.7431667"><ele>4.0</ele><time>2026-03-22T09:56:01.161Z</time></trkpt><trkpt lat="45.0447917" lon="11.74326"><ele>3.9999999999999996</ele><time>2026-03-22T09:56:02.167Z</time></trkpt><trkpt lat="45.0448017" lon="11.7433583"><ele>4.0</ele><time>2026-03-22T09:56:03.163Z</time></trkpt><trkpt lat="45.04481" lon="11.743455"><ele>4.0</ele><time>2026-03-22T09:56:04.159Z</time></trkpt><trkpt lat="45.0448183" lon="11.74355"><ele>4.0</ele><time>2026-03-22T09:56:05.146Z</time></trkpt><trkpt lat="45.0448283" lon="11.7436467"><ele>3.9999999999999996</ele><time>2026-03-22T09:56:06.157Z</time></trkpt><trkpt lat="45.044835" lon="11.7437417"><ele>4.0</ele><time>2026-03-22T09:56:07.164Z</time></trkpt><trkpt lat="45.0448383" lon="11.7438383"><ele>4.0</ele><time>2026-03-22T09:56:08.161Z</time></trkpt><trkpt lat="45.0448383" lon="11.7439383"><ele>3.9999999999999996</ele><time>2026-03-22T09:56:09.161Z</time></trkpt><trkpt lat="45.0448383" lon="11.74404"><ele>4.0</ele><time>2026-03-22T09:56:10.163Z</time></trkpt><trkpt lat="45.0448333" lon="11.7441433"><ele>4.0</ele><time>2026-03-22T09:56:11.165Z</time></trkpt><trkpt lat="45.0448283" lon="11.7442417"><ele>4.0</ele><time>2026-03-22T09:56:12.16Z</time></trkpt><trkpt lat="45.0448183" lon="11.7443383"><ele>3.9999999999999996</ele><time>2026-03-22T09:56:13.166Z</time></trkpt><trkpt lat="45.0448067" lon="11.7444333"><ele>4.0</ele><time>2026-03-22T09:56:14.17Z</time></trkpt><trkpt lat="45.04479" lon="11.74453"><ele>4.0</ele><time>2026-03-22T09:56:15.166Z</time></trkpt><trkpt lat="45.0447667" lon="11.7446233"><ele>3.9999999999999996</ele><time>2026-03-22T09:56:16.147Z</time></trkpt><trkpt lat="45.0447333" lon="11.74471"><ele>4.0</ele><time>2026-03-22T09:56:17.169Z</time></trkpt><trkpt lat="45.0446917" lon="11.74479"><ele>4.0</ele><time>2026-03-22T09:56:18.166Z</time></trkpt><trkpt lat="45.044645" lon="11.744865"><ele>4.0</ele><time>2026-03-22T09:56:19.164Z</time></trkpt><trkpt lat="45.044595" lon="11.7449367"><ele>3.9999999999999996</ele><time>2026-03-22T09:56:20.164Z</time></trkpt><trkpt lat="45.0445433" lon="11.7450033"><ele>4.0</ele><time>2026-03-22T09:56:21.16Z</time></trkpt><trkpt lat="45.0444917" lon="11.7450667"><ele>4.0</ele><time>2026-03-22T09:56:22.159Z</time></trkpt><trkpt lat="45.04444" lon="11.7451283"><ele>3.9999999999999996</ele><time>2026-03-22T09:56:23.164Z</time></trkpt><trkpt lat="45.0443917" lon="11.7451933"><ele>4.0</ele><time>2026-03-22T09:56:24.165Z</time></trkpt><trkpt lat="45.0443467" lon="11.745265"><ele>4.0</ele><time>2026-03-22T09:56:25.16Z</time></trkpt><trkpt lat="45.0442983" lon="11.7453383"><ele>4.0</ele><time>2026-03-22T09:56:26.143Z</time></trkpt><trkpt lat="45.04425" lon="11.74541"><ele>3.9999999999999996</ele><time>2026-03-22T09:56:27.162Z</time></trkpt><trkpt lat="45.0442017" lon="11.745485"><ele>4.0</ele><time>2026-03-22T09:56:28.167Z</time></trkpt><trkpt lat="45.0441517" lon="11.7455617"><ele>4.0</ele><time>2026-03-22T09:56:29.158Z</time></trkpt><trkpt lat="45.0441033" lon="11.7456383"><ele>3.9999999999999996</ele><time>2026-03-22T09:56:30.166Z</time></trkpt><trkpt lat="45.0440567" lon="11.74572"><ele>4.0</ele><time>2026-03-22T09:56:31.165Z</time></trkpt><trkpt lat="45.0440133" lon="11.7458017"><ele>4.0</ele><time>2026-03-22T09:56:32.166Z</time></trkpt><trkpt lat="45.0439683" lon="11.7458833"><ele>4.0</ele><time>2026-03-22T09:56:33.165Z</time></trkpt><trkpt lat="45.0439217" lon="11.7459617"><ele>3.9999999999999996</ele><time>2026-03-22T09:56:34.158Z</time></trkpt><trkpt lat="45.0438767" lon="11.7460417"><ele>4.0</ele><time>2026-03-22T09:56:35.164Z</time></trkpt><trkpt lat="45.0438317" lon="11.7461233"><ele>4.0</ele><time>2026-03-22T09:56:36.166Z</time></trkpt><trkpt lat="45.043785" lon="11.7462033"><ele>3.9999999999999996</ele><time>2026-03-22T09:56:37.136Z</time></trkpt><trkpt lat="45.0437417" lon="11.746285"><ele>4.0</ele><time>2026-03-22T09:56:38.136Z</time></trkpt><trkpt lat="45.0436967" lon="11.746365"><ele>4.0</ele><time>2026-03-22T09:56:39.135Z</time></trkpt><trkpt lat="45.0436533" lon="11.7464433"><ele>4.0</ele><time>2026-03-22T09:56:40.167Z</time></trkpt><trkpt lat="45.0436117" lon="11.7465233"><ele>3.9999999999999996</ele><time>2026-03-22T09:56:41.141Z</time></trkpt><trkpt lat="45.0435733" lon="11.7466033"><ele>4.0</ele><time>2026-03-22T09:56:42.164Z</time></trkpt><trkpt lat="45.0435333" lon="11.7466817"><ele>4.0</ele><time>2026-03-22T09:56:43.156Z</time></trkpt><trkpt lat="45.0434983" lon="11.7467617"><ele>3.9999999999999996</ele><time>2026-03-22T09:56:44.154Z</time></trkpt><trkpt lat="45.0434633" lon="11.7468383"><ele>4.0</ele><time>2026-03-22T09:56:45.156Z</time></trkpt><trkpt lat="45.0434283" lon="11.746915"><ele>4.0</ele><time>2026-03-22T09:56:46.165Z</time></trkpt><trkpt lat="45.043395" lon="11.7469967"><ele>4.0</ele><time>2026-03-22T09:56:47.173Z</time></trkpt><trkpt lat="45.0433583" lon="11.7470817"><ele>3.9999999999999996</ele><time>2026-03-22T09:56:48.162Z</time></trkpt><trkpt lat="45.0433167" lon="11.7471633"><ele>4.0</ele><time>2026-03-22T09:56:49.151Z</time></trkpt><trkpt lat="45.0432783" lon="11.747245"><ele>4.0</ele><time>2026-03-22T09:56:50.157Z</time></trkpt><trkpt lat="45.0432383" lon="11.7473283"><ele>3.9999999999999996</ele><time>2026-03-22T09:56:51.161Z</time></trkpt><trkpt lat="45.0431983" lon="11.7474117"><ele>4.0</ele><time>2026-03-22T09:56:52.166Z</time></trkpt><trkpt lat="45.0431583" lon="11.7474933"><ele>4.0</ele><time>2026-03-22T09:56:53.166Z</time></trkpt><trkpt lat="45.04312" lon="11.7475717"><ele>3.8000000000000003</ele><time>2026-03-22T09:56:54.165Z</time></trkpt><trkpt lat="45.0430833" lon="11.7476483"><ele>3.6000000000000005</ele><time>2026-03-22T09:56:55.157Z</time></trkpt><trkpt lat="45.0430483" lon="11.7477233"><ele>3.4</ele><time>2026-03-22T09:56:56.168Z</time></trkpt><trkpt lat="45.04298" lon="11.74787"><ele>3.2</ele><time>2026-03-22T09:56:58.15Z</time></trkpt><trkpt lat="45.0429117" lon="11.74801"><ele>3.0</ele><time>2026-03-22T09:57:00.158Z</time></trkpt><trkpt lat="45.0428483" lon="11.748155"><ele>3.0</ele><time>2026-03-22T09:57:02.166Z</time></trkpt><trkpt lat="45.042785" lon="11.7482867"><ele>3.0</ele><time>2026-03-22T09:57:04.164Z</time></trkpt><trkpt lat="45.0427267" lon="11.7484167"><ele>3.0</ele><time>2026-03-22T09:57:06.167Z</time></trkpt><trkpt lat="45.0426667" lon="11.7485483"><ele>3.0</ele><time>2026-03-22T09:57:08.167Z</time></trkpt><trkpt lat="45.04261" lon="11.7486883"><ele>3.0</ele><time>2026-03-22T09:57:10.163Z</time></trkpt><trkpt lat="45.04256" lon="11.74883"><ele>3.1666666666666665</ele><time>2026-03-22T09:57:12.164Z</time></trkpt><trkpt lat="45.04252" lon="11.748955"><ele>3.333333333333333</ele><time>2026-03-22T09:57:14.167Z</time></trkpt><trkpt lat="45.042485" lon="11.74908"><ele>3.5</ele><time>2026-03-22T09:57:16.168Z</time></trkpt><trkpt lat="45.042455" lon="11.7491933"><ele>3.6666666666666665</ele><time>2026-03-22T09:57:18.154Z</time></trkpt><trkpt lat="45.04243" lon="11.7493083"><ele>3.833333333333333</ele><time>2026-03-22T09:57:20.145Z</time></trkpt><trkpt lat="45.0424083" lon="11.749415"><ele>4.0</ele><time>2026-03-22T09:57:22.157Z</time></trkpt><trkpt lat="45.042385" lon="11.749525"><ele>4.166666666666666</ele><time>2026-03-22T09:57:25.148Z</time></trkpt><trkpt lat="45.0423883" lon="11.7497283"><ele>4.333333333333333</ele><time>2026-03-22T09:57:49.13Z</time></trkpt><trkpt lat="45.042465" lon="11.74975"><ele>4.5</ele><time>2026-03-22T09:58:22.052Z</time></trkpt><trkpt lat="45.0424987" lon="11.7496721"><ele>4.666666666666667</ele><time>2026-03-22T09:58:27.222Z</time></trkpt><trkpt lat="45.0425033" lon="11.7495831"><ele>4.833333333333334</ele><time>2026-03-22T09:58:42.162Z</time></trkpt><trkpt lat="45.0424678" lon="11.7496572"><ele>5.0</ele><time>2026-03-22T09:59:22.202Z</time></trkpt><trkpt lat="45.0425342" lon="11.7496712"><ele>5.0</ele><time>2026-03-22T10:16:11.211Z</time></trkpt><trkpt lat="45.0425288" lon="11.7495771"><ele>5.0</ele><time>2026-03-22T10:16:20.161Z</time></trkpt><trkpt lat="45.0425404" lon="11.7494894"><ele>5.0</ele><time>2026-03-22T10:16:39.212Z</time></trkpt><trkpt lat="45.0426019" lon="11.7495484"><ele>5.0</ele><time>2026-03-22T10:16:45.181Z</time></trkpt><trkpt lat="45.0425511" lon="11.7496378"><ele>5.0</ele><time>2026-03-22T10:17:05.16Z</time></trkpt><trkpt lat="45.0425" lon="11.7496982"><ele>5.0</ele><time>2026-03-22T10:17:12.159Z</time></trkpt><trkpt lat="45.0424117" lon="11.7497517"><ele>5.0</ele><time>2026-03-22T10:17:49.16Z</time></trkpt><trkpt lat="45.042415" lon="11.7496183"><ele>5.2</ele><time>2026-03-22T10:17:52.169Z</time></trkpt><trkpt lat="45.0424317" lon="11.74948"><ele>5.4</ele><time>2026-03-22T10:17:54.164Z</time></trkpt><trkpt lat="45.0424683" lon="11.7493217"><ele>5.6</ele><time>2026-03-22T10:17:56.155Z</time></trkpt><trkpt lat="45.0425117" lon="11.74915"><ele>5.8</ele><time>2026-03-22T10:17:58.159Z</time></trkpt><trkpt lat="45.0425333" lon="11.7490583"><ele>6.0</ele><time>2026-03-22T10:17:59.158Z</time></trkpt><trkpt lat="45.0425533" lon="11.748965"><ele>5.666666666666667</ele><time>2026-03-22T10:18:00.148Z</time></trkpt><trkpt lat="45.0425783" lon="11.7488683"><ele>5.333333333333333</ele><time>2026-03-22T10:18:01.151Z</time></trkpt><trkpt lat="45.042605" lon="11.7487717"><ele>5.0</ele><time>2026-03-22T10:18:02.159Z</time></trkpt><trkpt lat="45.04264" lon="11.748675"><ele>4.666666666666666</ele><time>2026-03-22T10:18:03.162Z</time></trkpt><trkpt lat="45.04268" lon="11.748585"><ele>4.333333333333333</ele><time>2026-03-22T10:18:04.159Z</time></trkpt><trkpt lat="45.042725" lon="11.7484967"><ele>4.0</ele><time>2026-03-22T10:18:05.158Z</time></trkpt><trkpt lat="45.0427683" lon="11.7484067"><ele>3.833333333333333</ele><time>2026-03-22T10:18:06.159Z</time></trkpt><trkpt lat="45.0428117" lon="11.7483133"><ele>3.6666666666666665</ele><time>2026-03-22T10:18:07.162Z</time></trkpt><trkpt lat="45.0428583" lon="11.74822"><ele>3.5</ele><time>2026-03-22T10:18:08.157Z</time></trkpt><trkpt lat="45.042905" lon="11.748125"><ele>3.333333333333333</ele><time>2026-03-22T10:18:09.157Z</time></trkpt><trkpt lat="45.0429483" lon="11.74803"><ele>3.1666666666666665</ele><time>2026-03-22T10:18:10.162Z</time></trkpt><trkpt lat="45.042995" lon="11.7479383"><ele>3.0</ele><time>2026-03-22T10:18:11.133Z</time></trkpt><trkpt lat="45.04304" lon="11.7478433"><ele>3.0</ele><time>2026-03-22T10:18:12.153Z</time></trkpt><trkpt lat="45.043085" lon="11.74775"><ele>3.0</ele><time>2026-03-22T10:18:13.157Z</time></trkpt><trkpt lat="45.043125" lon="11.747665"><ele>3.0</ele><time>2026-03-22T10:18:14.162Z</time></trkpt><trkpt lat="45.04318" lon="11.7475683"><ele>3.0</ele><time>2026-03-22T10:18:16.166Z</time></trkpt><trkpt lat="45.0432233" lon="11.74745"><ele>3.0</ele><time>2026-03-22T10:18:19.158Z</time></trkpt><trkpt lat="45.0432633" lon="11.747355"><ele>3.0</ele><time>2026-03-22T10:18:21.154Z</time></trkpt><trkpt lat="45.0433" lon="11.74726"><ele>3.1666666666666665</ele><time>2026-03-22T10:18:23.16Z</time></trkpt><trkpt lat="45.0433367" lon="11.7471583"><ele>3.333333333333333</ele><time>2026-03-22T10:18:25.16Z</time></trkpt><trkpt lat="45.0433967" lon="11.7470417"><ele>3.5</ele><time>2026-03-22T10:18:27.164Z</time></trkpt><trkpt lat="45.0434617" lon="11.74689"><ele>3.6666666666666665</ele><time>2026-03-22T10:18:29.129Z</time></trkpt><trkpt lat="45.0434933" lon="11.74681"><ele>3.833333333333333</ele><time>2026-03-22T10:18:30.147Z</time></trkpt><trkpt lat="45.0435267" lon="11.7467333"><ele>4.0</ele><time>2026-03-22T10:18:31.154Z</time></trkpt><trkpt lat="45.0435917" lon="11.7466017"><ele>4.0</ele><time>2026-03-22T10:18:33.152Z</time></trkpt><trkpt lat="45.0436367" lon="11.7465217"><ele>3.9999999999999996</ele><time>2026-03-22T10:18:35.162Z</time></trkpt><trkpt lat="45.04368" lon="11.7464483"><ele>4.0</ele><time>2026-03-22T10:18:38.162Z</time></trkpt><trkpt lat="45.0437233" lon="11.7463617"><ele>4.0</ele><time>2026-03-22T10:18:42.166Z</time></trkpt><trkpt lat="45.0437733" lon="11.7462933"><ele>3.9999999999999996</ele><time>2026-03-22T10:18:46.155Z</time></trkpt><trkpt lat="45.0438167" lon="11.7462183"><ele>4.0</ele><time>2026-03-22T10:18:49.248Z</time></trkpt><trkpt lat="45.043865" lon="11.7461183"><ele>4.0</ele><time>2026-03-22T10:18:52.163Z</time></trkpt><trkpt lat="45.04392" lon="11.746035"><ele>4.0</ele><time>2026-03-22T10:18:55.164Z</time></trkpt><trkpt lat="45.0439667" lon="11.7459533"><ele>3.9999999999999996</ele><time>2026-03-22T10:18:58.167Z</time></trkpt><trkpt lat="45.0440217" lon="11.7458717"><ele>4.0</ele><time>2026-03-22T10:19:02.165Z</time></trkpt><trkpt lat="45.0440667" lon="11.7457867"><ele>4.0</ele><time>2026-03-22T10:19:06.153Z</time></trkpt><trkpt lat="45.0441117" lon="11.7457033"><ele>3.9999999999999996</ele><time>2026-03-22T10:19:09.167Z</time></trkpt><trkpt lat="45.0441583" lon="11.74563"><ele>4.0</ele><time>2026-03-22T10:19:12.162Z</time></trkpt><trkpt lat="45.044205" lon="11.7455517"><ele>4.0</ele><time>2026-03-22T10:19:15.158Z</time></trkpt><trkpt lat="45.04426" lon="11.745475"><ele>3.9999999999999996</ele><time>2026-03-22T10:19:18.162Z</time></trkpt><trkpt lat="45.04431" lon="11.7453933"><ele>4.0</ele><time>2026-03-22T10:19:21.165Z</time></trkpt><trkpt lat="45.0443567" lon="11.7453183"><ele>4.0</ele><time>2026-03-22T10:19:24.163Z</time></trkpt><trkpt lat="45.044415" lon="11.7452433"><ele>4.0</ele><time>2026-03-22T10:19:27.155Z</time></trkpt><trkpt lat="45.0444733" lon="11.7451683"><ele>3.9999999999999996</ele><time>2026-03-22T10:19:30.157Z</time></trkpt><trkpt lat="45.0445317" lon="11.7450883"><ele>4.0</ele><time>2026-03-22T10:19:33.165Z</time></trkpt><trkpt lat="45.0445867" lon="11.74501"><ele>3.9999999999999996</ele><time>2026-03-22T10:19:36.149Z</time></trkpt><trkpt lat="45.044645" lon="11.74492"><ele>4.0</ele><time>2026-03-22T10:19:39.165Z</time></trkpt><trkpt lat="45.044695" lon="11.7448617"><ele>4.0</ele><time>2026-03-22T10:19:41.162Z</time></trkpt><trkpt lat="45.0447433" lon="11.744795"><ele>4.0</ele><time>2026-03-22T10:19:43.173Z</time></trkpt><trkpt lat="45.0447833" lon="11.7447233"><ele>3.9999999999999996</ele><time>2026-03-22T10:19:45.164Z</time></trkpt><trkpt lat="45.0448267" lon="11.7446083"><ele>4.0</ele><time>2026-03-22T10:19:48.166Z</time></trkpt><trkpt lat="45.0448517" lon="11.7444917"><ele>3.9999999999999996</ele><time>2026-03-22T10:19:51.164Z</time></trkpt><trkpt lat="45.0448567" lon="11.7443883"><ele>4.0</ele><time>2026-03-22T10:19:54.156Z</time></trkpt><trkpt lat="45.04486" lon="11.7442817"><ele>4.0</ele><time>2026-03-22T10:19:57.145Z</time></trkpt><trkpt lat="45.0448633" lon="11.74417"><ele>4.0</ele><time>2026-03-22T10:20:00.162Z</time></trkpt><trkpt lat="45.0448667" lon="11.74405"><ele>3.9999999999999996</ele><time>2026-03-22T10:20:03.168Z</time></trkpt><trkpt lat="45.044865" lon="11.7439333"><ele>4.0</ele><time>2026-03-22T10:20:06.16Z</time></trkpt><trkpt lat="45.0448583" lon="11.7438133"><ele>3.9999999999999996</ele><time>2026-03-22T10:20:09.161Z</time></trkpt><trkpt lat="45.0448483" lon="11.7436967"><ele>4.0</ele><time>2026-03-22T10:20:12.149Z</time></trkpt><trkpt lat="45.04484" lon="11.7435717"><ele>4.0</ele><time>2026-03-22T10:20:15.162Z</time></trkpt><trkpt lat="45.044835" lon="11.7434517"><ele>4.0</ele><time>2026-03-22T10:20:18.144Z</time></trkpt><trkpt lat="45.0448267" lon="11.7433633"><ele>3.9999999999999996</ele><time>2026-03-22T10:20:20.166Z</time></trkpt><trkpt lat="45.0448117" lon="11.74324"><ele>4.0</ele><time>2026-03-22T10:20:23.158Z</time></trkpt><trkpt lat="45.0447983" lon="11.7431217"><ele>3.9999999999999996</ele><time>2026-03-22T10:20:26.163Z</time></trkpt><trkpt lat="45.0447883" lon="11.7429983"><ele>4.0</ele><time>2026-03-22T10:20:29.135Z</time></trkpt><trkpt lat="45.0447817" lon="11.7428783"><ele>4.0</ele><time>2026-03-22T10:20:32.162Z</time></trkpt><trkpt lat="45.0447783" lon="11.7427767"><ele>4.0</ele><time>2026-03-22T10:20:35.16Z</time></trkpt><trkpt lat="45.0447767" lon="11.74268"><ele>3.9999999999999996</ele><time>2026-03-22T10:20:38.164Z</time></trkpt><trkpt lat="45.0447783" lon="11.7425683"><ele>4.0</ele><time>2026-03-22T10:20:41.162Z</time></trkpt><trkpt lat="45.04478" lon="11.7424517"><ele>3.9999999999999996</ele><time>2026-03-22T10:20:44.166Z</time></trkpt><trkpt lat="45.0447767" lon="11.7423433"><ele>4.0</ele><time>2026-03-22T10:20:47.167Z</time></trkpt><trkpt lat="45.0447767" lon="11.742235"><ele>4.0</ele><time>2026-03-22T10:20:50.14Z</time></trkpt><trkpt lat="45.0447817" lon="11.7421367"><ele>4.0</ele><time>2026-03-22T10:20:53.166Z</time></trkpt><trkpt lat="45.0448033" lon="11.7420283"><ele>3.9999999999999996</ele><time>2026-03-22T10:20:58.155Z</time></trkpt><trkpt lat="45.0448483" lon="11.7419433"><ele>4.0</ele><time>2026-03-22T10:21:02.154Z</time></trkpt><trkpt lat="45.0448283" lon="11.7418383"><ele>3.9999999999999996</ele><time>2026-03-22T10:21:46.158Z</time></trkpt><trkpt lat="45.0448067" lon="11.74174"><ele>4.0</ele><time>2026-03-22T10:21:48.16Z</time></trkpt><trkpt lat="45.04476" lon="11.7416467"><ele>4.0</ele><time>2026-03-22T10:21:50.167Z</time></trkpt><trkpt lat="45.0447017" lon="11.74155"><ele>4.0</ele><time>2026-03-22T10:21:52.162Z</time></trkpt><trkpt lat="45.044645" lon="11.7414467"><ele>3.9999999999999996</ele><time>2026-03-22T10:21:54.142Z</time></trkpt><trkpt lat="45.0445933" lon="11.7413517"><ele>4.0</ele><time>2026-03-22T10:21:56.139Z</time></trkpt><trkpt lat="45.0445417" lon="11.741255"><ele>3.9999999999999996</ele><time>2026-03-22T10:21:58.158Z</time></trkpt><trkpt lat="45.044495" lon="11.74116"><ele>4.0</ele><time>2026-03-22T10:22:00.17Z</time></trkpt><trkpt lat="45.04445" lon="11.7410717"><ele>4.0</ele><time>2026-03-22T10:22:02.151Z</time></trkpt><trkpt lat="45.0444017" lon="11.74099"><ele>4.0</ele><time>2026-03-22T10:22:04.166Z</time></trkpt><trkpt lat="45.0443533" lon="11.7409033"><ele>3.9999999999999996</ele><time>2026-03-22T10:22:06.164Z</time></trkpt><trkpt lat="45.0443033" lon="11.7408117"><ele>4.0</ele><time>2026-03-22T10:22:08.167Z</time></trkpt><trkpt lat="45.0442533" lon="11.7407183"><ele>3.833333333333333</ele><time>2026-03-22T10:22:10.167Z</time></trkpt><trkpt lat="45.0442" lon="11.7406267"><ele>3.6666666666666665</ele><time>2026-03-22T10:22:12.16Z</time></trkpt><trkpt lat="45.0441433" lon="11.7405317"><ele>3.5</ele><time>2026-03-22T10:22:14.154Z</time></trkpt><trkpt lat="45.0440917" lon="11.7404367"><ele>3.333333333333333</ele><time>2026-03-22T10:22:16.163Z</time></trkpt><trkpt lat="45.0440383" lon="11.74035"><ele>3.1666666666666665</ele><time>2026-03-22T10:22:18.153Z</time></trkpt><trkpt lat="45.0439867" lon="11.7402583"><ele>3.0</ele><time>2026-03-22T10:22:20.155Z</time></trkpt><trkpt lat="45.04393" lon="11.740145"><ele>3.0</ele><time>2026-03-22T10:22:22.16Z</time></trkpt><trkpt lat="45.043865" lon="11.740035"><ele>3.0</ele><time>2026-03-22T10:22:24.166Z</time></trkpt><trkpt lat="45.0437983" lon="11.73993"><ele>3.0</ele><time>2026-03-22T10:22:26.162Z</time></trkpt><trkpt lat="45.0437333" lon="11.7398267"><ele>3.0</ele><time>2026-03-22T10:22:28.161Z</time></trkpt><trkpt lat="45.043675" lon="11.7397233"><ele>3.0</ele><time>2026-03-22T10:22:30.163Z</time></trkpt><trkpt lat="45.0436167" lon="11.73962"><ele>3.0</ele><time>2026-03-22T10:22:32.161Z</time></trkpt><trkpt lat="45.0435567" lon="11.7395133"><ele>3.0</ele><time>2026-03-22T10:22:34.166Z</time></trkpt><trkpt lat="45.0434967" lon="11.7394017"><ele>3.0</ele><time>2026-03-22T10:22:36.165Z</time></trkpt><trkpt lat="45.0434333" lon="11.73929"><ele>3.0</ele><time>2026-03-22T10:22:38.161Z</time></trkpt><trkpt lat="45.04337" lon="11.73919"><ele>3.0</ele><time>2026-03-22T10:22:40.164Z</time></trkpt><trkpt lat="45.0433117" lon="11.7390883"><ele>3.0</ele><time>2026-03-22T10:22:42.165Z</time></trkpt><trkpt lat="45.0432567" lon="11.738985"><ele>3.0</ele><time>2026-03-22T10:22:44.162Z</time></trkpt><trkpt lat="45.0432" lon="11.73888"><ele>3.0</ele><time>2026-03-22T10:22:46.154Z</time></trkpt><trkpt lat="45.0431417" lon="11.7387717"><ele>3.0</ele><time>2026-03-22T10:22:48.167Z</time></trkpt><trkpt lat="45.0430817" lon="11.7386683"><ele>3.0</ele><time>2026-03-22T10:22:50.164Z</time></trkpt><trkpt lat="45.04302" lon="11.738565"><ele>3.0</ele><time>2026-03-22T10:22:52.161Z</time></trkpt><trkpt lat="45.042955" lon="11.7384567"><ele>3.0</ele><time>2026-03-22T10:22:54.165Z</time></trkpt><trkpt lat="45.0428933" lon="11.7383333"><ele>3.0</ele><time>2026-03-22T10:22:56.133Z</time></trkpt><trkpt lat="45.04283" lon="11.73821"><ele>3.0</ele><time>2026-03-22T10:22:58.145Z</time></trkpt><trkpt lat="45.042765" lon="11.738085"><ele>3.0</ele><time>2026-03-22T10:23:00.146Z</time></trkpt><trkpt lat="45.0426917" lon="11.737975"><ele>3.0</ele><time>2026-03-22T10:23:02.137Z</time></trkpt><trkpt lat="45.0426317" lon="11.737875"><ele>3.0</ele><time>2026-03-22T10:23:04.145Z</time></trkpt><trkpt lat="45.04257" lon="11.7377767"><ele>3.0</ele><time>2026-03-22T10:23:06.137Z</time></trkpt><trkpt lat="45.0425033" lon="11.737665"><ele>3.0</ele><time>2026-03-22T10:23:08.151Z</time></trkpt><trkpt lat="45.0424383" lon="11.73755"><ele>3.0</ele><time>2026-03-22T10:23:10.158Z</time></trkpt><trkpt lat="45.042375" lon="11.7374383"><ele>3.0</ele><time>2026-03-22T10:23:12.133Z</time></trkpt><trkpt lat="45.04231" lon="11.737325"><ele>3.0</ele><time>2026-03-22T10:23:14.15Z</time></trkpt><trkpt lat="45.0422417" lon="11.7372133"><ele>3.0</ele><time>2026-03-22T10:23:16.161Z</time></trkpt><trkpt lat="45.04217" lon="11.7371017"><ele>3.0</ele><time>2026-03-22T10:23:18.13Z</time></trkpt><trkpt lat="45.0421017" lon="11.73699"><ele>3.0</ele><time>2026-03-22T10:23:20.134Z</time></trkpt><trkpt lat="45.0420367" lon="11.73688"><ele>3.0</ele><time>2026-03-22T10:23:22.167Z</time></trkpt><trkpt lat="45.0419717" lon="11.73677"><ele>3.0</ele><time>2026-03-22T10:23:24.156Z</time></trkpt><trkpt lat="45.0419067" lon="11.7366533"><ele>3.0</ele><time>2026-03-22T10:23:26.166Z</time></trkpt><trkpt lat="45.041835" lon="11.7365433"><ele>3.0</ele><time>2026-03-22T10:23:28.164Z</time></trkpt><trkpt lat="45.041765" lon="11.7364267"><ele>3.0</ele><time>2026-03-22T10:23:30.165Z</time></trkpt><trkpt lat="45.0417033" lon="11.7363167"><ele>3.0</ele><time>2026-03-22T10:23:32.165Z</time></trkpt><trkpt lat="45.041645" lon="11.7362133"><ele>3.0</ele><time>2026-03-22T10:23:34.168Z</time></trkpt><trkpt lat="45.0415867" lon="11.7361133"><ele>3.0</ele><time>2026-03-22T10:23:36.146Z</time></trkpt><trkpt lat="45.0415233" lon="11.7359967"><ele>3.0</ele><time>2026-03-22T10:23:38.139Z</time></trkpt><trkpt lat="45.0414583" lon="11.7358767"><ele>3.0</ele><time>2026-03-22T10:23:40.163Z</time></trkpt><trkpt lat="45.041395" lon="11.7357617"><ele>3.2</ele><time>2026-03-22T10:23:42.168Z</time></trkpt><trkpt lat="45.0413317" lon="11.735645"><ele>3.4</ele><time>2026-03-22T10:23:44.166Z</time></trkpt><trkpt lat="45.0412667" lon="11.7355333"><ele>3.6000000000000005</ele><time>2026-03-22T10:23:46.166Z</time></trkpt><trkpt lat="45.0412" lon="11.7354167"><ele>3.8000000000000003</ele><time>2026-03-22T10:23:48.163Z</time></trkpt><trkpt lat="45.0411333" lon="11.7353"><ele>4.0</ele><time>2026-03-22T10:23:50.161Z</time></trkpt><trkpt lat="45.0410667" lon="11.73518"><ele>4.0</ele><time>2026-03-22T10:23:52.16Z</time></trkpt><trkpt lat="45.0409983" lon="11.73506"><ele>4.0</ele><time>2026-03-22T10:23:54.164Z</time></trkpt><trkpt lat="45.0409333" lon="11.7349417"><ele>4.0</ele><time>2026-03-22T10:23:56.163Z</time></trkpt><trkpt lat="45.0408717" lon="11.7348267"><ele>4.0</ele><time>2026-03-22T10:23:58.159Z</time></trkpt><trkpt lat="45.0408067" lon="11.73471"><ele>4.0</ele><time>2026-03-22T10:24:00.198Z</time></trkpt><trkpt lat="45.0407433" lon="11.7345917"><ele>3.75</ele><time>2026-03-22T10:24:02.161Z</time></trkpt><trkpt lat="45.04067" lon="11.7344667"><ele>3.5</ele><time>2026-03-22T10:24:04.166Z</time></trkpt><trkpt lat="45.040595" lon="11.7343383"><ele>3.25</ele><time>2026-03-22T10:24:06.166Z</time></trkpt><trkpt lat="45.0405217" lon="11.7342133"><ele>3.0</ele><time>2026-03-22T10:24:08.154Z</time></trkpt><trkpt lat="45.0404483" lon="11.7340883"><ele>2.75</ele><time>2026-03-22T10:24:10.163Z</time></trkpt><trkpt lat="45.0403733" lon="11.7339617"><ele>2.5</ele><time>2026-03-22T10:24:12.162Z</time></trkpt><trkpt lat="45.040295" lon="11.7338367"><ele>2.25</ele><time>2026-03-22T10:24:14.161Z</time></trkpt><trkpt lat="45.04022" lon="11.733705"><ele>2.0</ele><time>2026-03-22T10:24:16.166Z</time></trkpt><trkpt lat="45.0401417" lon="11.7335717"><ele>1.75</ele><time>2026-03-22T10:24:18.157Z</time></trkpt><trkpt lat="45.04006" lon="11.7334417"><ele>1.5</ele><time>2026-03-22T10:24:20.142Z</time></trkpt><trkpt lat="45.0399817" lon="11.7333117"><ele>1.25</ele><time>2026-03-22T10:24:22.156Z</time></trkpt><trkpt lat="45.0399083" lon="11.7331833"><ele>1.0</ele><time>2026-03-22T10:24:24.156Z</time></trkpt><trkpt lat="45.0398367" lon="11.7330583"><ele>1.0</ele><time>2026-03-22T10:24:26.17Z</time></trkpt><trkpt lat="45.039765" lon="11.7329367"><ele>1.0</ele><time>2026-03-22T10:24:28.154Z</time></trkpt><trkpt lat="45.0396933" lon="11.732815"><ele>1.0</ele><time>2026-03-22T10:24:30.164Z</time></trkpt><trkpt lat="45.0396183" lon="11.7326867"><ele>1.0</ele><time>2026-03-22T10:24:32.16Z</time></trkpt><trkpt lat="45.0395417" lon="11.7325567"><ele>1.0</ele><time>2026-03-22T10:24:34.155Z</time></trkpt><trkpt lat="45.0394667" lon="11.7324283"><ele>1.0</ele><time>2026-03-22T10:24:36.161Z</time></trkpt><trkpt lat="45.039395" lon="11.7323017"><ele>1.0</ele><time>2026-03-22T10:24:38.164Z</time></trkpt><trkpt lat="45.039325" lon="11.7321783"><ele>1.0</ele><time>2026-03-22T10:24:40.158Z</time></trkpt><trkpt lat="45.03926" lon="11.732065"><ele>1.0</ele><time>2026-03-22T10:24:42.163Z</time></trkpt><trkpt lat="45.039195" lon="11.7319517"><ele>1.2000000000000002</ele><time>2026-03-22T10:24:44.164Z</time></trkpt><trkpt lat="45.0391283" lon="11.7318367"><ele>1.4000000000000001</ele><time>2026-03-22T10:24:46.157Z</time></trkpt><trkpt lat="45.03906" lon="11.7317167"><ele>1.6</ele><time>2026-03-22T10:24:48.163Z</time></trkpt><trkpt lat="45.0389883" lon="11.7315917"><ele>1.8</ele><time>2026-03-22T10:24:50.157Z</time></trkpt><trkpt lat="45.0389167" lon="11.7314667"><ele>2.0</ele><time>2026-03-22T10:24:52.164Z</time></trkpt><trkpt lat="45.0388467" lon="11.7313483"><ele>2.0</ele><time>2026-03-22T10:24:54.164Z</time></trkpt><trkpt lat="45.0387783" lon="11.7312317"><ele>2.0</ele><time>2026-03-22T10:24:56.163Z</time></trkpt><trkpt lat="45.03871" lon="11.7311083"><ele>2.0</ele><time>2026-03-22T10:24:58.166Z</time></trkpt><trkpt lat="45.0386383" lon="11.73098"><ele>2.0</ele><time>2026-03-22T10:25:00.159Z</time></trkpt><trkpt lat="45.038565" lon="11.7308567"><ele>2.0</ele><time>2026-03-22T10:25:02.162Z</time></trkpt><trkpt lat="45.038495" lon="11.7307333"><ele>2.0</ele><time>2026-03-22T10:25:04.166Z</time></trkpt><trkpt lat="45.038425" lon="11.7306183"><ele>2.0</ele><time>2026-03-22T10:25:06.156Z</time></trkpt><trkpt lat="45.0383583" lon="11.7305017"><ele>2.0</ele><time>2026-03-22T10:25:08.162Z</time></trkpt><trkpt lat="45.0382933" lon="11.730385"><ele>2.0</ele><time>2026-03-22T10:25:10.163Z</time></trkpt><trkpt lat="45.0382283" lon="11.730275"><ele>2.0</ele><time>2026-03-22T10:25:12.162Z</time></trkpt><trkpt lat="45.038165" lon="11.7301667"><ele>2.2</ele><time>2026-03-22T10:25:14.171Z</time></trkpt><trkpt lat="45.038095" lon="11.7300517"><ele>2.4000000000000004</ele><time>2026-03-22T10:25:16.143Z</time></trkpt><trkpt lat="45.0380267" lon="11.7299317"><ele>2.5999999999999996</ele><time>2026-03-22T10:25:18.143Z</time></trkpt><trkpt lat="45.0379583" lon="11.7298083"><ele>2.8</ele><time>2026-03-22T10:25:20.161Z</time></trkpt><trkpt lat="45.03789" lon="11.7296917"><ele>3.0</ele><time>2026-03-22T10:25:22.161Z</time></trkpt><trkpt lat="45.037825" lon="11.7295783"><ele>3.0</ele><time>2026-03-22T10:25:24.165Z</time></trkpt><trkpt lat="45.0377633" lon="11.7294683"><ele>3.0</ele><time>2026-03-22T10:25:26.165Z</time></trkpt><trkpt lat="45.0377017" lon="11.7293567"><ele>3.0</ele><time>2026-03-22T10:25:28.163Z</time></trkpt><trkpt lat="45.0376383" lon="11.7292483"><ele>3.0</ele><time>2026-03-22T10:25:30.157Z</time></trkpt><trkpt lat="45.0375783" lon="11.7291433"><ele>3.0</ele><time>2026-03-22T10:25:32.162Z</time></trkpt><trkpt lat="45.0375183" lon="11.72904"><ele>3.0</ele><time>2026-03-22T10:25:34.162Z</time></trkpt><trkpt lat="45.0374617" lon="11.7289417"><ele>3.0</ele><time>2026-03-22T10:25:36.164Z</time></trkpt><trkpt lat="45.0374067" lon="11.7288433"><ele>3.0</ele><time>2026-03-22T10:25:38.167Z</time></trkpt><trkpt lat="45.0373467" lon="11.72874"><ele>3.0</ele><time>2026-03-22T10:25:40.153Z</time></trkpt><trkpt lat="45.0372833" lon="11.7286333"><ele>3.0</ele><time>2026-03-22T10:25:42.173Z</time></trkpt><trkpt lat="45.0372117" lon="11.7285183"><ele>3.0</ele><time>2026-03-22T10:25:44.155Z</time></trkpt><trkpt lat="45.0371433" lon="11.7283967"><ele>3.0</ele><time>2026-03-22T10:25:46.155Z</time></trkpt><trkpt lat="45.0370733" lon="11.72827"><ele>3.0</ele><time>2026-03-22T10:25:48.141Z</time></trkpt><trkpt lat="45.037" lon="11.7281417"><ele>3.0</ele><time>2026-03-22T10:25:50.162Z</time></trkpt><trkpt lat="45.036925" lon="11.7280067"><ele>3.0</ele><time>2026-03-22T10:25:52.132Z</time></trkpt><trkpt lat="45.0368517" lon="11.727875"><ele>3.0</ele><time>2026-03-22T10:25:54.161Z</time></trkpt><trkpt lat="45.036775" lon="11.72774"><ele>3.0</ele><time>2026-03-22T10:25:56.168Z</time></trkpt><trkpt lat="45.0367" lon="11.727605"><ele>3.0</ele><time>2026-03-22T10:25:58.161Z</time></trkpt><trkpt lat="45.0366183" lon="11.7274667"><ele>2.8333333333333335</ele><time>2026-03-22T10:26:00.157Z</time></trkpt><trkpt lat="45.0365767" lon="11.7273983"><ele>2.6666666666666665</ele><time>2026-03-22T10:26:01.163Z</time></trkpt><trkpt lat="45.036495" lon="11.7272583"><ele>2.5</ele><time>2026-03-22T10:26:03.167Z</time></trkpt><trkpt lat="45.036455" lon="11.7271883"><ele>2.333333333333333</ele><time>2026-03-22T10:26:04.166Z</time></trkpt><trkpt lat="45.036415" lon="11.7271167"><ele>2.1666666666666665</ele><time>2026-03-22T10:26:05.169Z</time></trkpt><trkpt lat="45.0363383" lon="11.7269783"><ele>2.0</ele><time>2026-03-22T10:26:07.165Z</time></trkpt><trkpt lat="45.0362617" lon="11.7268383"><ele>1.857142857142857</ele><time>2026-03-22T10:26:09.14Z</time></trkpt><trkpt lat="45.03622" lon="11.7267667"><ele>1.714285714285714</ele><time>2026-03-22T10:26:10.154Z</time></trkpt><trkpt lat="45.0361767" lon="11.726695"><ele>1.5714285714285714</ele><time>2026-03-22T10:26:11.163Z</time></trkpt><trkpt lat="45.036135" lon="11.7266233"><ele>1.4285714285714284</ele><time>2026-03-22T10:26:12.173Z</time></trkpt><trkpt lat="45.0360933" lon="11.7265533"><ele>1.2857142857142856</ele><time>2026-03-22T10:26:13.164Z</time></trkpt><trkpt lat="45.0360517" lon="11.72648"><ele>1.1428571428571428</ele><time>2026-03-22T10:26:14.167Z</time></trkpt><trkpt lat="45.03601" lon="11.7264083"><ele>1.0</ele><time>2026-03-22T10:26:15.165Z</time></trkpt><trkpt lat="45.03597" lon="11.7263367"><ele>1.0</ele><time>2026-03-22T10:26:16.16Z</time></trkpt><trkpt lat="45.0359283" lon="11.726265"><ele>0.9999999999999999</ele><time>2026-03-22T10:26:17.165Z</time></trkpt><trkpt lat="45.0358883" lon="11.7261917"><ele>1.0</ele><time>2026-03-22T10:26:18.163Z</time></trkpt><trkpt lat="45.035845" lon="11.7261167"><ele>1.0</ele><time>2026-03-22T10:26:19.17Z</time></trkpt><trkpt lat="45.0358033" lon="11.7260417"><ele>0.9999999999999999</ele><time>2026-03-22T10:26:20.17Z</time></trkpt><trkpt lat="45.0357633" lon="11.7259667"><ele>1.0</ele><time>2026-03-22T10:26:21.162Z</time></trkpt><trkpt lat="45.0357233" lon="11.7258967"><ele>1.0</ele><time>2026-03-22T10:26:22.168Z</time></trkpt><trkpt lat="45.03568" lon="11.7258267"><ele>1.0</ele><time>2026-03-22T10:26:23.163Z</time></trkpt><trkpt lat="45.03564" lon="11.725755"><ele>0.9999999999999999</ele><time>2026-03-22T10:26:24.16Z</time></trkpt><trkpt lat="45.0356017" lon="11.7256833"><ele>1.0</ele><time>2026-03-22T10:26:25.153Z</time></trkpt><trkpt lat="45.0355617" lon="11.72561"><ele>1.0</ele><time>2026-03-22T10:26:26.159Z</time></trkpt><trkpt lat="45.0355217" lon="11.7255367"><ele>0.9999999999999999</ele><time>2026-03-22T10:26:27.166Z</time></trkpt><trkpt lat="45.03548" lon="11.7254617"><ele>1.0</ele><time>2026-03-22T10:26:28.163Z</time></trkpt><trkpt lat="45.03544" lon="11.7253883"><ele>1.0</ele><time>2026-03-22T10:26:29.17Z</time></trkpt><trkpt lat="45.0353983" lon="11.725315"><ele>1.0</ele><time>2026-03-22T10:26:30.16Z</time></trkpt><trkpt lat="45.0353567" lon="11.7252383"><ele>0.9999999999999999</ele><time>2026-03-22T10:26:31.164Z</time></trkpt><trkpt lat="45.0353167" lon="11.7251617"><ele>1.0</ele><time>2026-03-22T10:26:32.168Z</time></trkpt><trkpt lat="45.0352733" lon="11.7250833"><ele>1.0</ele><time>2026-03-22T10:26:33.166Z</time></trkpt><trkpt lat="45.0352333" lon="11.72501"><ele>0.9999999999999999</ele><time>2026-03-22T10:26:34.169Z</time></trkpt><trkpt lat="45.0351917" lon="11.7249367"><ele>1.0</ele><time>2026-03-22T10:26:35.168Z</time></trkpt><trkpt lat="45.0351483" lon="11.7248617"><ele>1.0</ele><time>2026-03-22T10:26:36.166Z</time></trkpt><trkpt lat="45.0351033" lon="11.7247833"><ele>1.0</ele><time>2026-03-22T10:26:37.161Z</time></trkpt><trkpt lat="45.0350567" lon="11.7247033"><ele>0.9999999999999999</ele><time>2026-03-22T10:26:38.155Z</time></trkpt><trkpt lat="45.0350117" lon="11.724625"><ele>1.0</ele><time>2026-03-22T10:26:39.167Z</time></trkpt><trkpt lat="45.034965" lon="11.7245483"><ele>1.0</ele><time>2026-03-22T10:26:40.167Z</time></trkpt><trkpt lat="45.03492" lon="11.7244683"><ele>0.9999999999999999</ele><time>2026-03-22T10:26:41.164Z</time></trkpt><trkpt lat="45.034875" lon="11.7243917"><ele>1.0</ele><time>2026-03-22T10:26:42.162Z</time></trkpt><trkpt lat="45.0348283" lon="11.7243117"><ele>1.0</ele><time>2026-03-22T10:26:43.166Z</time></trkpt><trkpt lat="45.034785" lon="11.7242367"><ele>1.0</ele><time>2026-03-22T10:26:44.164Z</time></trkpt><trkpt lat="45.0347417" lon="11.7241583"><ele>0.9999999999999999</ele><time>2026-03-22T10:26:45.163Z</time></trkpt><trkpt lat="45.0346967" lon="11.72408"><ele>1.0</ele><time>2026-03-22T10:26:46.137Z</time></trkpt><trkpt lat="45.0346533" lon="11.7240033"><ele>1.0</ele><time>2026-03-22T10:26:47.156Z</time></trkpt><trkpt lat="45.03461" lon="11.723925"><ele>0.9999999999999999</ele><time>2026-03-22T10:26:48.166Z</time></trkpt><trkpt lat="45.0345667" lon="11.7238467"><ele>1.0</ele><time>2026-03-22T10:26:49.164Z</time></trkpt><trkpt lat="45.0345233" lon="11.72377"><ele>1.0</ele><time>2026-03-22T10:26:50.158Z</time></trkpt><trkpt lat="45.03448" lon="11.7236883"><ele>1.0</ele><time>2026-03-22T10:26:51.163Z</time></trkpt><trkpt lat="45.0344367" lon="11.72361"><ele>0.9999999999999999</ele><time>2026-03-22T10:26:52.163Z</time></trkpt><trkpt lat="45.0343917" lon="11.72353"><ele>1.0</ele><time>2026-03-22T10:26:53.163Z</time></trkpt><trkpt lat="45.0343483" lon="11.7234517"><ele>1.0</ele><time>2026-03-22T10:26:54.161Z</time></trkpt><trkpt lat="45.0343067" lon="11.7233733"><ele>0.9999999999999999</ele><time>2026-03-22T10:26:55.159Z</time></trkpt><trkpt lat="45.034265" lon="11.723295"><ele>1.0</ele><time>2026-03-22T10:26:56.166Z</time></trkpt><trkpt lat="45.0342233" lon="11.7232183"><ele>1.0</ele><time>2026-03-22T10:26:57.163Z</time></trkpt><trkpt lat="45.0341817" lon="11.7231417"><ele>1.0</ele><time>2026-03-22T10:26:58.162Z</time></trkpt><trkpt lat="45.0341383" lon="11.723065"><ele>0.9999999999999999</ele><time>2026-03-22T10:26:59.151Z</time></trkpt><trkpt lat="45.0340967" lon="11.7229867"><ele>1.0</ele><time>2026-03-22T10:27:00.159Z</time></trkpt><trkpt lat="45.034055" lon="11.7229083"><ele>1.0</ele><time>2026-03-22T10:27:01.162Z</time></trkpt><trkpt lat="45.03401" lon="11.7228283"><ele>0.9999999999999999</ele><time>2026-03-22T10:27:02.148Z</time></trkpt><trkpt lat="45.0339667" lon="11.7227483"><ele>1.0</ele><time>2026-03-22T10:27:03.155Z</time></trkpt><trkpt lat="45.033925" lon="11.7226667"><ele>1.0</ele><time>2026-03-22T10:27:04.166Z</time></trkpt><trkpt lat="45.0338817" lon="11.722585"><ele>1.1428571428571428</ele><time>2026-03-22T10:27:05.163Z</time></trkpt><trkpt lat="45.0338367" lon="11.7225033"><ele>1.2857142857142856</ele><time>2026-03-22T10:27:06.144Z</time></trkpt><trkpt lat="45.0337933" lon="11.7224233"><ele>1.4285714285714284</ele><time>2026-03-22T10:27:07.152Z</time></trkpt><trkpt lat="45.03375" lon="11.722345"><ele>1.5714285714285714</ele><time>2026-03-22T10:27:08.166Z</time></trkpt><trkpt lat="45.0337083" lon="11.7222667"><ele>1.714285714285714</ele><time>2026-03-22T10:27:09.16Z</time></trkpt><trkpt lat="45.0336617" lon="11.7221833"><ele>1.857142857142857</ele><time>2026-03-22T10:27:10.166Z</time></trkpt><trkpt lat="45.0336167" lon="11.7221017"><ele>2.0</ele><time>2026-03-22T10:27:11.165Z</time></trkpt><trkpt lat="45.0335717" lon="11.7220217"><ele>2.0</ele><time>2026-03-22T10:27:12.166Z</time></trkpt><trkpt lat="45.0335283" lon="11.72194"><ele>1.9999999999999998</ele><time>2026-03-22T10:27:13.162Z</time></trkpt><trkpt lat="45.033485" lon="11.72186"><ele>2.0</ele><time>2026-03-22T10:27:14.168Z</time></trkpt><trkpt lat="45.03344" lon="11.72178"><ele>2.0</ele><time>2026-03-22T10:27:15.166Z</time></trkpt><trkpt lat="45.033395" lon="11.7217"><ele>1.9999999999999998</ele><time>2026-03-22T10:27:16.166Z</time></trkpt><trkpt lat="45.03335" lon="11.7216217"><ele>2.0</ele><time>2026-03-22T10:27:17.166Z</time></trkpt><trkpt lat="45.033305" lon="11.7215433"><ele>2.0</ele><time>2026-03-22T10:27:18.144Z</time></trkpt><trkpt lat="45.0332583" lon="11.721465"><ele>2.0</ele><time>2026-03-22T10:27:19.137Z</time></trkpt><trkpt lat="45.0332133" lon="11.7213883"><ele>1.9999999999999998</ele><time>2026-03-22T10:27:20.161Z</time></trkpt><trkpt lat="45.0331683" lon="11.7213117"><ele>2.0</ele><time>2026-03-22T10:27:21.164Z</time></trkpt><trkpt lat="45.033125" lon="11.7212333"><ele>2.0</ele><time>2026-03-22T10:27:22.16Z</time></trkpt><trkpt lat="45.0330817" lon="11.7211567"><ele>1.9999999999999998</ele><time>2026-03-22T10:27:23.161Z</time></trkpt><trkpt lat="45.0330367" lon="11.7210783"><ele>2.0</ele><time>2026-03-22T10:27:24.165Z</time></trkpt><trkpt lat="45.0329933" lon="11.721"><ele>2.0</ele><time>2026-03-22T10:27:25.164Z</time></trkpt><trkpt lat="45.03295" lon="11.720925"><ele>1.857142857142857</ele><time>2026-03-22T10:27:26.159Z</time></trkpt><trkpt lat="45.0329067" lon="11.72085"><ele>1.714285714285714</ele><time>2026-03-22T10:27:27.162Z</time></trkpt><trkpt lat="45.0328633" lon="11.7207733"><ele>1.5714285714285714</ele><time>2026-03-22T10:27:28.157Z</time></trkpt><trkpt lat="45.0328183" lon="11.7206967"><ele>1.4285714285714284</ele><time>2026-03-22T10:27:29.152Z</time></trkpt><trkpt lat="45.0327767" lon="11.72062"><ele>1.2857142857142856</ele><time>2026-03-22T10:27:30.166Z</time></trkpt><trkpt lat="45.0327333" lon="11.7205433"><ele>1.1428571428571428</ele><time>2026-03-22T10:27:31.167Z</time></trkpt><trkpt lat="45.0326917" lon="11.7204683"><ele>1.0</ele><time>2026-03-22T10:27:32.166Z</time></trkpt><trkpt lat="45.0326483" lon="11.7203933"><ele>1.0</ele><time>2026-03-22T10:27:33.166Z</time></trkpt><trkpt lat="45.032605" lon="11.720315"><ele>0.9999999999999999</ele><time>2026-03-22T10:27:34.131Z</time></trkpt><trkpt lat="45.03256" lon="11.7202367"><ele>1.0</ele><time>2026-03-22T10:27:35.155Z</time></trkpt><trkpt lat="45.0325167" lon="11.72016"><ele>1.0</ele><time>2026-03-22T10:27:36.163Z</time></trkpt><trkpt lat="45.0324733" lon="11.7200867"><ele>0.9999999999999999</ele><time>2026-03-22T10:27:37.152Z</time></trkpt><trkpt lat="45.03243" lon="11.72001"><ele>1.0</ele><time>2026-03-22T10:27:38.16Z</time></trkpt><trkpt lat="45.032385" lon="11.7199333"><ele>1.0</ele><time>2026-03-22T10:27:39.162Z</time></trkpt><trkpt lat="45.03234" lon="11.7198567"><ele>1.2857142857142856</ele><time>2026-03-22T10:27:40.163Z</time></trkpt><trkpt lat="45.0322933" lon="11.7197817"><ele>1.5714285714285712</ele><time>2026-03-22T10:27:41.166Z</time></trkpt><trkpt lat="45.0322467" lon="11.719705"><ele>1.857142857142857</ele><time>2026-03-22T10:27:42.143Z</time></trkpt><trkpt lat="45.0322017" lon="11.71963"><ele>2.142857142857143</ele><time>2026-03-22T10:27:43.159Z</time></trkpt><trkpt lat="45.0321567" lon="11.7195583"><ele>2.4285714285714284</ele><time>2026-03-22T10:27:44.161Z</time></trkpt><trkpt lat="45.0321117" lon="11.719485"><ele>2.714285714285714</ele><time>2026-03-22T10:27:45.162Z</time></trkpt><trkpt lat="45.032065" lon="11.7194117"><ele>3.0</ele><time>2026-03-22T10:27:46.162Z</time></trkpt><trkpt lat="45.0320217" lon="11.7193383"><ele>2.9999999999999996</ele><time>2026-03-22T10:27:47.165Z</time></trkpt><trkpt lat="45.03198" lon="11.7192633"><ele>3.0</ele><time>2026-03-22T10:27:48.161Z</time></trkpt><trkpt lat="45.0319383" lon="11.7191883"><ele>3.0</ele><time>2026-03-22T10:27:49.16Z</time></trkpt><trkpt lat="45.031895" lon="11.71911"><ele>3.0</ele><time>2026-03-22T10:27:50.141Z</time></trkpt><trkpt lat="45.0318567" lon="11.7190333"><ele>3.0</ele><time>2026-03-22T10:27:51.147Z</time></trkpt><trkpt lat="45.0318167" lon="11.7189583"><ele>2.9999999999999996</ele><time>2026-03-22T10:27:52.156Z</time></trkpt><trkpt lat="45.031775" lon="11.718885"><ele>3.0</ele><time>2026-03-22T10:27:53.155Z</time></trkpt><trkpt lat="45.0317333" lon="11.718815"><ele>2.9999999999999996</ele><time>2026-03-22T10:27:54.158Z</time></trkpt><trkpt lat="45.0316933" lon="11.7187433"><ele>3.0</ele><time>2026-03-22T10:27:55.163Z</time></trkpt><trkpt lat="45.0316533" lon="11.71867"><ele>3.0</ele><time>2026-03-22T10:27:56.154Z</time></trkpt><trkpt lat="45.0316133" lon="11.718595"><ele>3.0</ele><time>2026-03-22T10:27:57.165Z</time></trkpt><trkpt lat="45.0315733" lon="11.7185183"><ele>3.0</ele><time>2026-03-22T10:27:58.161Z</time></trkpt><trkpt lat="45.0315317" lon="11.7184417"><ele>2.9999999999999996</ele><time>2026-03-22T10:27:59.165Z</time></trkpt><trkpt lat="45.0314883" lon="11.7183633"><ele>3.0</ele><time>2026-03-22T10:28:00.169Z</time></trkpt><trkpt lat="45.0314483" lon="11.718285"><ele>2.571428571428571</ele><time>2026-03-22T10:28:01.165Z</time></trkpt><trkpt lat="45.031405" lon="11.7182067"><ele>2.142857142857143</ele><time>2026-03-22T10:28:02.14Z</time></trkpt><trkpt lat="45.0313633" lon="11.7181317"><ele>1.7142857142857142</ele><time>2026-03-22T10:28:03.157Z</time></trkpt><trkpt lat="45.0313217" lon="11.7180517"><ele>1.2857142857142856</ele><time>2026-03-22T10:28:04.165Z</time></trkpt><trkpt lat="45.0312783" lon="11.7179733"><ele>0.8571428571428571</ele><time>2026-03-22T10:28:05.157Z</time></trkpt><trkpt lat="45.0312367" lon="11.717895"><ele>0.42857142857142855</ele><time>2026-03-22T10:28:06.137Z</time></trkpt><trkpt lat="45.031195" lon="11.717815"><ele>0.0</ele><time>2026-03-22T10:28:07.162Z</time></trkpt><trkpt lat="45.0311533" lon="11.7177367"><ele>0.0</ele><time>2026-03-22T10:28:08.161Z</time></trkpt><trkpt lat="45.03111" lon="11.7176583"><ele>0.0</ele><time>2026-03-22T10:28:09.163Z</time></trkpt><trkpt lat="45.0310667" lon="11.7175783"><ele>0.0</ele><time>2026-03-22T10:28:10.165Z</time></trkpt><trkpt lat="45.0310217" lon="11.717495"><ele>0.0</ele><time>2026-03-22T10:28:11.165Z</time></trkpt><trkpt lat="45.0309783" lon="11.717415"><ele>0.0</ele><time>2026-03-22T10:28:12.164Z</time></trkpt><trkpt lat="45.030935" lon="11.7173317"><ele>0.0</ele><time>2026-03-22T10:28:13.166Z</time></trkpt><trkpt lat="45.03089" lon="11.71725"><ele>0.0</ele><time>2026-03-22T10:28:14.155Z</time></trkpt><trkpt lat="45.0308467" lon="11.7171683"><ele>0.0</ele><time>2026-03-22T10:28:15.165Z</time></trkpt><trkpt lat="45.0308033" lon="11.7170883"><ele>0.0</ele><time>2026-03-22T10:28:16.163Z</time></trkpt><trkpt lat="45.0307583" lon="11.71701"><ele>0.0</ele><time>2026-03-22T10:28:17.158Z</time></trkpt><trkpt lat="45.0307133" lon="11.71693"><ele>0.0</ele><time>2026-03-22T10:28:18.162Z</time></trkpt><trkpt lat="45.0306667" lon="11.71685"><ele>0.0</ele><time>2026-03-22T10:28:19.166Z</time></trkpt><trkpt lat="45.03062" lon="11.7167683"><ele>0.0</ele><time>2026-03-22T10:28:20.154Z</time></trkpt><trkpt lat="45.0305733" lon="11.7166883"><ele>0.0</ele><time>2026-03-22T10:28:21.161Z</time></trkpt><trkpt lat="45.0305267" lon="11.7166083"><ele>0.0</ele><time>2026-03-22T10:28:22.163Z</time></trkpt><trkpt lat="45.03048" lon="11.7165283"><ele>0.0</ele><time>2026-03-22T10:28:23.156Z</time></trkpt><trkpt lat="45.0304333" lon="11.71645"><ele>0.0</ele><time>2026-03-22T10:28:24.157Z</time></trkpt><trkpt lat="45.0303883" lon="11.7163717"><ele>0.0</ele><time>2026-03-22T10:28:25.158Z</time></trkpt><trkpt lat="45.0303433" lon="11.7162933"><ele>0.0</ele><time>2026-03-22T10:28:26.16Z</time></trkpt><trkpt lat="45.0303" lon="11.716215"><ele>0.0</ele><time>2026-03-22T10:28:27.141Z</time></trkpt><trkpt lat="45.0302533" lon="11.716135"><ele>0.0</ele><time>2026-03-22T10:28:28.152Z</time></trkpt><trkpt lat="45.0302083" lon="11.716055"><ele>-0.14285714285714285</ele><time>2026-03-22T10:28:29.164Z</time></trkpt><trkpt lat="45.0301633" lon="11.7159783"><ele>-0.2857142857142857</ele><time>2026-03-22T10:28:30.155Z</time></trkpt><trkpt lat="45.0301183" lon="11.7158983"><ele>-0.42857142857142855</ele><time>2026-03-22T10:28:31.162Z</time></trkpt><trkpt lat="45.0300733" lon="11.7158167"><ele>-0.5714285714285714</ele><time>2026-03-22T10:28:32.169Z</time></trkpt><trkpt lat="45.0300267" lon="11.7157367"><ele>-0.7142857142857142</ele><time>2026-03-22T10:28:33.165Z</time></trkpt><trkpt lat="45.02998" lon="11.7156567"><ele>-0.8571428571428571</ele><time>2026-03-22T10:28:34.165Z</time></trkpt><trkpt lat="45.029935" lon="11.7155817"><ele>-1.0</ele><time>2026-03-22T10:28:35.163Z</time></trkpt><trkpt lat="45.0298917" lon="11.7155033"><ele>-1.0</ele><time>2026-03-22T10:28:36.163Z</time></trkpt><trkpt lat="45.0298467" lon="11.7154267"><ele>-0.9999999999999999</ele><time>2026-03-22T10:28:37.164Z</time></trkpt><trkpt lat="45.0298017" lon="11.7153483"><ele>-1.0</ele><time>2026-03-22T10:28:38.165Z</time></trkpt><trkpt lat="45.0297567" lon="11.71527"><ele>-1.0</ele><time>2026-03-22T10:28:39.164Z</time></trkpt><trkpt lat="45.0297117" lon="11.7151883"><ele>-0.9999999999999999</ele><time>2026-03-22T10:28:40.163Z</time></trkpt><trkpt lat="45.0296683" lon="11.7151067"><ele>-1.0</ele><time>2026-03-22T10:28:41.167Z</time></trkpt><trkpt lat="45.0296233" lon="11.7150233"><ele>-1.0</ele><time>2026-03-22T10:28:42.158Z</time></trkpt><trkpt lat="45.0295783" lon="11.71494"><ele>-1.1428571428571428</ele><time>2026-03-22T10:28:43.162Z</time></trkpt><trkpt lat="45.0295333" lon="11.7148567"><ele>-1.2857142857142856</ele><time>2026-03-22T10:28:44.169Z</time></trkpt><trkpt lat="45.0294867" lon="11.714775"><ele>-1.4285714285714284</ele><time>2026-03-22T10:28:45.165Z</time></trkpt><trkpt lat="45.0294417" lon="11.714695"><ele>-1.5714285714285714</ele><time>2026-03-22T10:28:46.164Z</time></trkpt><trkpt lat="45.029395" lon="11.714615"><ele>-1.714285714285714</ele><time>2026-03-22T10:28:47.162Z</time></trkpt><trkpt lat="45.0293483" lon="11.714535"><ele>-1.857142857142857</ele><time>2026-03-22T10:28:48.146Z</time></trkpt><trkpt lat="45.0293017" lon="11.7144567"><ele>-2.0</ele><time>2026-03-22T10:28:49.153Z</time></trkpt><trkpt lat="45.029255" lon="11.7143767"><ele>-1.7142857142857142</ele><time>2026-03-22T10:28:50.161Z</time></trkpt><trkpt lat="45.02921" lon="11.7142983"><ele>-1.4285714285714284</ele><time>2026-03-22T10:28:51.159Z</time></trkpt><trkpt lat="45.0291633" lon="11.71422"><ele>-1.1428571428571428</ele><time>2026-03-22T10:28:52.163Z</time></trkpt><trkpt lat="45.0291183" lon="11.7141417"><ele>-0.8571428571428571</ele><time>2026-03-22T10:28:53.162Z</time></trkpt><trkpt lat="45.0290717" lon="11.7140617"><ele>-0.5714285714285714</ele><time>2026-03-22T10:28:54.162Z</time></trkpt><trkpt lat="45.029025" lon="11.7139817"><ele>-0.2857142857142857</ele><time>2026-03-22T10:28:55.164Z</time></trkpt><trkpt lat="45.0289783" lon="11.7139017"><ele>0.0</ele><time>2026-03-22T10:28:56.165Z</time></trkpt><trkpt lat="45.0289333" lon="11.7138217"><ele>0.0</ele><time>2026-03-22T10:28:57.162Z</time></trkpt><trkpt lat="45.0288883" lon="11.7137417"><ele>0.0</ele><time>2026-03-22T10:28:58.162Z</time></trkpt><trkpt lat="45.0288433" lon="11.71366"><ele>0.0</ele><time>2026-03-22T10:28:59.144Z</time></trkpt><trkpt lat="45.0287967" lon="11.71358"><ele>0.0</ele><time>2026-03-22T10:29:00.17Z</time></trkpt><trkpt lat="45.0287517" lon="11.7135"><ele>0.0</ele><time>2026-03-22T10:29:01.162Z</time></trkpt><trkpt lat="45.0287067" lon="11.71342"><ele>0.0</ele><time>2026-03-22T10:29:02.164Z</time></trkpt><trkpt lat="45.0286633" lon="11.7133433"><ele>0.0</ele><time>2026-03-22T10:29:03.168Z</time></trkpt><trkpt lat="45.0286217" lon="11.7132667"><ele>0.0</ele><time>2026-03-22T10:29:04.165Z</time></trkpt><trkpt lat="45.0285767" lon="11.7131867"><ele>0.0</ele><time>2026-03-22T10:29:05.163Z</time></trkpt><trkpt lat="45.0285333" lon="11.7131067"><ele>0.0</ele><time>2026-03-22T10:29:06.16Z</time></trkpt><trkpt lat="45.0284883" lon="11.7130283"><ele>0.0</ele><time>2026-03-22T10:29:07.165Z</time></trkpt><trkpt lat="45.0284433" lon="11.71295"><ele>0.0</ele><time>2026-03-22T10:29:08.166Z</time></trkpt><trkpt lat="45.0283983" lon="11.7128683"><ele>0.0</ele><time>2026-03-22T10:29:09.164Z</time></trkpt><trkpt lat="45.0283533" lon="11.7127867"><ele>0.0</ele><time>2026-03-22T10:29:10.131Z</time></trkpt><trkpt lat="45.0283067" lon="11.7127067"><ele>-0.14285714285714285</ele><time>2026-03-22T10:29:11.158Z</time></trkpt><trkpt lat="45.0282617" lon="11.7126267"><ele>-0.2857142857142857</ele><time>2026-03-22T10:29:12.154Z</time></trkpt><trkpt lat="45.0282167" lon="11.7125467"><ele>-0.42857142857142855</ele><time>2026-03-22T10:29:13.16Z</time></trkpt><trkpt lat="45.0281717" lon="11.7124683"><ele>-0.5714285714285714</ele><time>2026-03-22T10:29:14.164Z</time></trkpt><trkpt lat="45.028125" lon="11.7123917"><ele>-0.7142857142857142</ele><time>2026-03-22T10:29:15.163Z</time></trkpt><trkpt lat="45.02808" lon="11.7123133"><ele>-0.8571428571428571</ele><time>2026-03-22T10:29:16.166Z</time></trkpt><trkpt lat="45.028035" lon="11.712235"><ele>-1.0</ele><time>2026-03-22T10:29:17.162Z</time></trkpt><trkpt lat="45.0279917" lon="11.71216"><ele>-1.0</ele><time>2026-03-22T10:29:18.158Z</time></trkpt><trkpt lat="45.0279467" lon="11.7120833"><ele>-0.9999999999999999</ele><time>2026-03-22T10:29:19.159Z</time></trkpt><trkpt lat="45.0279" lon="11.712005"><ele>-1.0</ele><time>2026-03-22T10:29:20.142Z</time></trkpt><trkpt lat="45.0278533" lon="11.7119267"><ele>-1.0</ele><time>2026-03-22T10:29:21.153Z</time></trkpt><trkpt lat="45.0278067" lon="11.7118483"><ele>-0.9999999999999999</ele><time>2026-03-22T10:29:22.161Z</time></trkpt><trkpt lat="45.0277583" lon="11.71177"><ele>-1.0</ele><time>2026-03-22T10:29:23.159Z</time></trkpt><trkpt lat="45.0277117" lon="11.7116917"><ele>-1.0</ele><time>2026-03-22T10:29:24.163Z</time></trkpt><trkpt lat="45.0276633" lon="11.711615"><ele>-0.8571428571428571</ele><time>2026-03-22T10:29:25.163Z</time></trkpt><trkpt lat="45.027615" lon="11.7115383"><ele>-0.7142857142857142</ele><time>2026-03-22T10:29:26.158Z</time></trkpt><trkpt lat="45.0275667" lon="11.71146"><ele>-0.5714285714285714</ele><time>2026-03-22T10:29:27.166Z</time></trkpt><trkpt lat="45.02752" lon="11.7113817"><ele>-0.42857142857142855</ele><time>2026-03-22T10:29:28.154Z</time></trkpt><trkpt lat="45.0274717" lon="11.7113067"><ele>-0.2857142857142857</ele><time>2026-03-22T10:29:29.137Z</time></trkpt><trkpt lat="45.0274267" lon="11.7112317"><ele>-0.14285714285714285</ele><time>2026-03-22T10:29:30.154Z</time></trkpt><trkpt lat="45.0273833" lon="11.7111583"><ele>0.0</ele><time>2026-03-22T10:29:31.139Z</time></trkpt><trkpt lat="45.02734" lon="11.711085"><ele>0.0</ele><time>2026-03-22T10:29:32.162Z</time></trkpt><trkpt lat="45.027295" lon="11.711015"><ele>0.0</ele><time>2026-03-22T10:29:33.167Z</time></trkpt><trkpt lat="45.0272517" lon="11.7109417"><ele>0.0</ele><time>2026-03-22T10:29:34.164Z</time></trkpt><trkpt lat="45.0272033" lon="11.7108717"><ele>0.0</ele><time>2026-03-22T10:29:35.166Z</time></trkpt><trkpt lat="45.0271567" lon="11.7107983"><ele>0.0</ele><time>2026-03-22T10:29:36.165Z</time></trkpt><trkpt lat="45.0271117" lon="11.710725"><ele>0.0</ele><time>2026-03-22T10:29:37.164Z</time></trkpt><trkpt lat="45.0270667" lon="11.7106567"><ele>0.0</ele><time>2026-03-22T10:29:38.162Z</time></trkpt><trkpt lat="45.027025" lon="11.7105883"><ele>0.0</ele><time>2026-03-22T10:29:39.164Z</time></trkpt><trkpt lat="45.0269817" lon="11.7105217"><ele>0.0</ele><time>2026-03-22T10:29:40.166Z</time></trkpt><trkpt lat="45.026895" lon="11.71039"><ele>0.0</ele><time>2026-03-22T10:29:42.162Z</time></trkpt><trkpt lat="45.02681" lon="11.710255"><ele>0.0</ele><time>2026-03-22T10:29:44.161Z</time></trkpt><trkpt lat="45.0267667" lon="11.7101867"><ele>0.0</ele><time>2026-03-22T10:29:45.163Z</time></trkpt><trkpt lat="45.0266833" lon="11.71006"><ele>0.2</ele><time>2026-03-22T10:29:47.144Z</time></trkpt><trkpt lat="45.0266067" lon="11.7099367"><ele>0.4</ele><time>2026-03-22T10:29:49.158Z</time></trkpt><trkpt lat="45.0265383" lon="11.70981"><ele>0.6000000000000001</ele><time>2026-03-22T10:29:51.164Z</time></trkpt><trkpt lat="45.0264717" lon="11.7097"><ele>0.8</ele><time>2026-03-22T10:29:53.156Z</time></trkpt><trkpt lat="45.02638" lon="11.7096183"><ele>1.0</ele><time>2026-03-22T10:29:55.165Z</time></trkpt><trkpt lat="45.0262617" lon="11.7095733"><ele>1.0</ele><time>2026-03-22T10:29:57.165Z</time></trkpt><trkpt lat="45.0261383" lon="11.7095483"><ele>0.9999999999999999</ele><time>2026-03-22T10:29:59.164Z</time></trkpt><trkpt lat="45.026075" lon="11.70954"><ele>1.0</ele><time>2026-03-22T10:30:00.163Z</time></trkpt><trkpt lat="45.0260117" lon="11.7095367"><ele>1.0</ele><time>2026-03-22T10:30:01.164Z</time></trkpt><trkpt lat="45.0259467" lon="11.7095333"><ele>0.9999999999999999</ele><time>2026-03-22T10:30:02.158Z</time></trkpt><trkpt lat="45.0258833" lon="11.7095267"><ele>1.0</ele><time>2026-03-22T10:30:03.129Z</time></trkpt><trkpt lat="45.025815" lon="11.7095133"><ele>1.0</ele><time>2026-03-22T10:30:04.152Z</time></trkpt><trkpt lat="45.0257483" lon="11.709495"><ele>1.1428571428571428</ele><time>2026-03-22T10:30:05.162Z</time></trkpt><trkpt lat="45.0256833" lon="11.7094683"><ele>1.2857142857142856</ele><time>2026-03-22T10:30:06.16Z</time></trkpt><trkpt lat="45.02562" lon="11.7094367"><ele>1.4285714285714284</ele><time>2026-03-22T10:30:07.161Z</time></trkpt><trkpt lat="45.025555" lon="11.7094"><ele>1.5714285714285714</ele><time>2026-03-22T10:30:08.162Z</time></trkpt><trkpt lat="45.0254917" lon="11.7093583"><ele>1.714285714285714</ele><time>2026-03-22T10:30:09.162Z</time></trkpt><trkpt lat="45.02543" lon="11.70931"><ele>1.857142857142857</ele><time>2026-03-22T10:30:10.157Z</time></trkpt><trkpt lat="45.0253683" lon="11.70926"><ele>2.0</ele><time>2026-03-22T10:30:11.163Z</time></trkpt><trkpt lat="45.02531" lon="11.7092017"><ele>2.0</ele><time>2026-03-22T10:30:12.16Z</time></trkpt><trkpt lat="45.025255" lon="11.7091433"><ele>1.9999999999999998</ele><time>2026-03-22T10:30:13.149Z</time></trkpt><trkpt lat="45.0252033" lon="11.7090817"><ele>2.0</ele><time>2026-03-22T10:30:14.165Z</time></trkpt><trkpt lat="45.0251533" lon="11.7090167"><ele>2.0</ele><time>2026-03-22T10:30:15.161Z</time></trkpt><trkpt lat="45.0251017" lon="11.7089533"><ele>1.9999999999999998</ele><time>2026-03-22T10:30:16.166Z</time></trkpt><trkpt lat="45.02505" lon="11.7088883"><ele>2.0</ele><time>2026-03-22T10:30:17.166Z</time></trkpt><trkpt lat="45.025" lon="11.708825"><ele>2.0</ele><time>2026-03-22T10:30:18.162Z</time></trkpt><trkpt lat="45.0249467" lon="11.70876"><ele>2.0</ele><time>2026-03-22T10:30:19.161Z</time></trkpt><trkpt lat="45.024895" lon="11.7086983"><ele>1.9999999999999998</ele><time>2026-03-22T10:30:20.169Z</time></trkpt><trkpt lat="45.02484" lon="11.708635"><ele>2.0</ele><time>2026-03-22T10:30:21.164Z</time></trkpt><trkpt lat="45.0247883" lon="11.70857"><ele>2.0</ele><time>2026-03-22T10:30:22.159Z</time></trkpt><trkpt lat="45.024735" lon="11.708505"><ele>1.9999999999999998</ele><time>2026-03-22T10:30:23.162Z</time></trkpt><trkpt lat="45.0246833" lon="11.7084383"><ele>2.0</ele><time>2026-03-22T10:30:24.155Z</time></trkpt><trkpt lat="45.0246317" lon="11.7083717"><ele>2.0</ele><time>2026-03-22T10:30:25.171Z</time></trkpt><trkpt lat="45.02458" lon="11.708305"><ele>2.0</ele><time>2026-03-22T10:30:26.162Z</time></trkpt><trkpt lat="45.0245267" lon="11.7082383"><ele>1.9999999999999998</ele><time>2026-03-22T10:30:27.158Z</time></trkpt><trkpt lat="45.0244733" lon="11.7081733"><ele>2.0</ele><time>2026-03-22T10:30:28.162Z</time></trkpt><trkpt lat="45.02442" lon="11.70811"><ele>2.0</ele><time>2026-03-22T10:30:29.136Z</time></trkpt><trkpt lat="45.024365" lon="11.708045"><ele>1.9999999999999998</ele><time>2026-03-22T10:30:30.156Z</time></trkpt><trkpt lat="45.0243117" lon="11.7079783"><ele>2.0</ele><time>2026-03-22T10:30:31.161Z</time></trkpt><trkpt lat="45.0242583" lon="11.7079133"><ele>2.0</ele><time>2026-03-22T10:30:32.163Z</time></trkpt><trkpt lat="45.0242033" lon="11.70785"><ele>2.0</ele><time>2026-03-22T10:30:33.164Z</time></trkpt><trkpt lat="45.02415" lon="11.70779"><ele>1.9999999999999998</ele><time>2026-03-22T10:30:34.165Z</time></trkpt><trkpt lat="45.024095" lon="11.7077283"><ele>2.0</ele><time>2026-03-22T10:30:35.162Z</time></trkpt><trkpt lat="45.02404" lon="11.7076683"><ele>2.0</ele><time>2026-03-22T10:30:36.159Z</time></trkpt><trkpt lat="45.023985" lon="11.70761"><ele>1.9999999999999998</ele><time>2026-03-22T10:30:37.16Z</time></trkpt><trkpt lat="45.02393" lon="11.70755"><ele>2.0</ele><time>2026-03-22T10:30:38.162Z</time></trkpt><trkpt lat="45.0238733" lon="11.70749"><ele>2.0</ele><time>2026-03-22T10:30:39.165Z</time></trkpt><trkpt lat="45.0238183" lon="11.70743"><ele>2.0</ele><time>2026-03-22T10:30:40.165Z</time></trkpt><trkpt lat="45.0237617" lon="11.70737"><ele>1.9999999999999998</ele><time>2026-03-22T10:30:41.166Z</time></trkpt><trkpt lat="45.0237083" lon="11.7073083"><ele>2.0</ele><time>2026-03-22T10:30:42.166Z</time></trkpt><trkpt lat="45.0236533" lon="11.7072483"><ele>2.0</ele><time>2026-03-22T10:30:43.143Z</time></trkpt><trkpt lat="45.0235983" lon="11.707185"><ele>1.9999999999999998</ele><time>2026-03-22T10:30:44.145Z</time></trkpt><trkpt lat="45.023545" lon="11.707125"><ele>2.0</ele><time>2026-03-22T10:30:45.144Z</time></trkpt><trkpt lat="45.02349" lon="11.7070633"><ele>2.0</ele><time>2026-03-22T10:30:46.16Z</time></trkpt><trkpt lat="45.023435" lon="11.7070017"><ele>2.0</ele><time>2026-03-22T10:30:47.162Z</time></trkpt><trkpt lat="45.0233783" lon="11.70694"><ele>1.9999999999999998</ele><time>2026-03-22T10:30:48.164Z</time></trkpt><trkpt lat="45.0233233" lon="11.7068783"><ele>2.0</ele><time>2026-03-22T10:30:49.164Z</time></trkpt><trkpt lat="45.0232683" lon="11.7068167"><ele>2.0</ele><time>2026-03-22T10:30:50.166Z</time></trkpt><trkpt lat="45.02321" lon="11.7067567"><ele>1.9999999999999998</ele><time>2026-03-22T10:30:51.167Z</time></trkpt><trkpt lat="45.0231533" lon="11.706695"><ele>2.0</ele><time>2026-03-22T10:30:52.162Z</time></trkpt><trkpt lat="45.023095" lon="11.7066317"><ele>2.0</ele><time>2026-03-22T10:30:53.164Z</time></trkpt><trkpt lat="45.0230383" lon="11.7065717"><ele>2.142857142857143</ele><time>2026-03-22T10:30:54.164Z</time></trkpt><trkpt lat="45.0229817" lon="11.7065117"><ele>2.2857142857142856</ele><time>2026-03-22T10:30:55.163Z</time></trkpt><trkpt lat="45.0229233" lon="11.70645"><ele>2.4285714285714284</ele><time>2026-03-22T10:30:56.157Z</time></trkpt><trkpt lat="45.0228633" lon="11.7063867"><ele>2.571428571428571</ele><time>2026-03-22T10:30:57.165Z</time></trkpt><trkpt lat="45.022805" lon="11.706325"><ele>2.7142857142857144</ele><time>2026-03-22T10:30:58.162Z</time></trkpt><trkpt lat="45.0227483" lon="11.7062633"><ele>2.8571428571428568</ele><time>2026-03-22T10:30:59.16Z</time></trkpt><trkpt lat="45.0226917" lon="11.7062033"><ele>3.0</ele><time>2026-03-22T10:31:00.161Z</time></trkpt><trkpt lat="45.0226383" lon="11.70614"><ele>2.9999999999999996</ele><time>2026-03-22T10:31:01.142Z</time></trkpt><trkpt lat="45.0225867" lon="11.7060717"><ele>3.0</ele><time>2026-03-22T10:31:02.16Z</time></trkpt><trkpt lat="45.02254" lon="11.7059933"><ele>3.0</ele><time>2026-03-22T10:31:03.169Z</time></trkpt><trkpt lat="45.022495" lon="11.70591"><ele>3.0</ele><time>2026-03-22T10:31:04.156Z</time></trkpt><trkpt lat="45.0224583" lon="11.7058233"><ele>3.0</ele><time>2026-03-22T10:31:05.154Z</time></trkpt><trkpt lat="45.0224267" lon="11.7057333"><ele>2.9999999999999996</ele><time>2026-03-22T10:31:06.164Z</time></trkpt><trkpt lat="45.0223967" lon="11.7056383"><ele>3.0</ele><time>2026-03-22T10:31:07.156Z</time></trkpt><trkpt lat="45.0223717" lon="11.7055417"><ele>2.8571428571428568</ele><time>2026-03-22T10:31:08.159Z</time></trkpt><trkpt lat="45.0223517" lon="11.7054417"><ele>2.7142857142857144</ele><time>2026-03-22T10:31:09.157Z</time></trkpt><trkpt lat="45.0223317" lon="11.70534"><ele>2.571428571428571</ele><time>2026-03-22T10:31:10.161Z</time></trkpt><trkpt lat="45.0223133" lon="11.7052383"><ele>2.4285714285714284</ele><time>2026-03-22T10:31:11.161Z</time></trkpt><trkpt lat="45.0222967" lon="11.7051367"><ele>2.2857142857142856</ele><time>2026-03-22T10:31:12.168Z</time></trkpt><trkpt lat="45.0222817" lon="11.7050367"><ele>2.142857142857143</ele><time>2026-03-22T10:31:13.163Z</time></trkpt><trkpt lat="45.0222667" lon="11.7049333"><ele>2.0</ele><time>2026-03-22T10:31:14.162Z</time></trkpt><trkpt lat="45.0222517" lon="11.7048333"><ele>1.857142857142857</ele><time>2026-03-22T10:31:15.161Z</time></trkpt><trkpt lat="45.0222367" lon="11.7047333"><ele>1.714285714285714</ele><time>2026-03-22T10:31:16.163Z</time></trkpt><trkpt lat="45.02222" lon="11.7046333"><ele>1.5714285714285714</ele><time>2026-03-22T10:31:17.133Z</time></trkpt><trkpt lat="45.0222033" lon="11.7045317"><ele>1.4285714285714284</ele><time>2026-03-22T10:31:18.16Z</time></trkpt><trkpt lat="45.0221883" lon="11.7044283"><ele>1.2857142857142856</ele><time>2026-03-22T10:31:19.171Z</time></trkpt><trkpt lat="45.0221717" lon="11.7043283"><ele>1.1428571428571428</ele><time>2026-03-22T10:31:20.164Z</time></trkpt><trkpt lat="45.0221567" lon="11.704225"><ele>1.0</ele><time>2026-03-22T10:31:21.164Z</time></trkpt><trkpt lat="45.0221383" lon="11.7041233"><ele>1.0</ele><time>2026-03-22T10:31:22.162Z</time></trkpt><trkpt lat="45.0221217" lon="11.7040217"><ele>0.9999999999999999</ele><time>2026-03-22T10:31:23.165Z</time></trkpt><trkpt lat="45.0221033" lon="11.7039217"><ele>1.0</ele><time>2026-03-22T10:31:24.165Z</time></trkpt><trkpt lat="45.0220833" lon="11.7038217"><ele>1.0</ele><time>2026-03-22T10:31:25.165Z</time></trkpt><trkpt lat="45.022065" lon="11.7037217"><ele>0.9999999999999999</ele><time>2026-03-22T10:31:26.167Z</time></trkpt><trkpt lat="45.022045" lon="11.7036183"><ele>1.0</ele><time>2026-03-22T10:31:27.135Z</time></trkpt><trkpt lat="45.0220217" lon="11.7035183"><ele>1.0</ele><time>2026-03-22T10:31:28.153Z</time></trkpt><trkpt lat="45.0219967" lon="11.70342"><ele>0.8571428571428571</ele><time>2026-03-22T10:31:29.165Z</time></trkpt><trkpt lat="45.0219683" lon="11.7033217"><ele>0.7142857142857142</ele><time>2026-03-22T10:31:30.164Z</time></trkpt><trkpt lat="45.0219367" lon="11.7032233"><ele>0.5714285714285714</ele><time>2026-03-22T10:31:31.164Z</time></trkpt><trkpt lat="45.0219" lon="11.7031317"><ele>0.42857142857142855</ele><time>2026-03-22T10:31:32.162Z</time></trkpt><trkpt lat="45.02186" lon="11.7030433"><ele>0.2857142857142857</ele><time>2026-03-22T10:31:33.138Z</time></trkpt><trkpt lat="45.021815" lon="11.70296"><ele>0.14285714285714285</ele><time>2026-03-22T10:31:34.155Z</time></trkpt><trkpt lat="45.0217667" lon="11.70288"><ele>0.0</ele><time>2026-03-22T10:31:35.161Z</time></trkpt><trkpt lat="45.0217133" lon="11.7028083"><ele>0.14285714285714285</ele><time>2026-03-22T10:31:36.168Z</time></trkpt><trkpt lat="45.02166" lon="11.7027367"><ele>0.2857142857142857</ele><time>2026-03-22T10:31:37.166Z</time></trkpt><trkpt lat="45.0216033" lon="11.7026633"><ele>0.42857142857142855</ele><time>2026-03-22T10:31:38.164Z</time></trkpt><trkpt lat="45.02155" lon="11.7025933"><ele>0.5714285714285714</ele><time>2026-03-22T10:31:39.161Z</time></trkpt><trkpt lat="45.0214967" lon="11.702525"><ele>0.7142857142857142</ele><time>2026-03-22T10:31:40.167Z</time></trkpt><trkpt lat="45.0214433" lon="11.7024617"><ele>0.8571428571428571</ele><time>2026-03-22T10:31:41.163Z</time></trkpt><trkpt lat="45.0213883" lon="11.7024"><ele>1.0</ele><time>2026-03-22T10:31:42.165Z</time></trkpt><trkpt lat="45.0213317" lon="11.702345"><ele>1.0</ele><time>2026-03-22T10:31:43.166Z</time></trkpt><trkpt lat="45.0212717" lon="11.7022983"><ele>0.9999999999999999</ele><time>2026-03-22T10:31:44.167Z</time></trkpt><trkpt lat="45.02121" lon="11.7022583"><ele>1.0</ele><time>2026-03-22T10:31:45.152Z</time></trkpt><trkpt lat="45.0211467" lon="11.70222"><ele>1.0</ele><time>2026-03-22T10:31:46.163Z</time></trkpt><trkpt lat="45.0210833" lon="11.7021833"><ele>0.9999999999999999</ele><time>2026-03-22T10:31:47.159Z</time></trkpt><trkpt lat="45.0210217" lon="11.70215"><ele>1.0</ele><time>2026-03-22T10:31:48.163Z</time></trkpt><trkpt lat="45.0209583" lon="11.7021167"><ele>1.0</ele><time>2026-03-22T10:31:49.137Z</time></trkpt><trkpt lat="45.0208933" lon="11.7020833"><ele>1.0</ele><time>2026-03-22T10:31:50.153Z</time></trkpt><trkpt lat="45.0208267" lon="11.7020517"><ele>0.9999999999999999</ele><time>2026-03-22T10:31:51.162Z</time></trkpt><trkpt lat="45.0207567" lon="11.702025"><ele>1.0</ele><time>2026-03-22T10:31:52.168Z</time></trkpt><trkpt lat="45.0206833" lon="11.702"><ele>1.0</ele><time>2026-03-22T10:31:53.166Z</time></trkpt><trkpt lat="45.0206117" lon="11.7019783"><ele>0.9999999999999999</ele><time>2026-03-22T10:31:54.165Z</time></trkpt><trkpt lat="45.0205383" lon="11.7019633"><ele>1.0</ele><time>2026-03-22T10:31:55.164Z</time></trkpt><trkpt lat="45.020465" lon="11.701945"><ele>1.0</ele><time>2026-03-22T10:31:56.153Z</time></trkpt><trkpt lat="45.0203917" lon="11.70193"><ele>1.2857142857142856</ele><time>2026-03-22T10:31:57.156Z</time></trkpt><trkpt lat="45.0203167" lon="11.7019167"><ele>1.5714285714285712</ele><time>2026-03-22T10:31:58.164Z</time></trkpt><trkpt lat="45.0202433" lon="11.7019117"><ele>1.857142857142857</ele><time>2026-03-22T10:31:59.141Z</time></trkpt><trkpt lat="45.02017" lon="11.70191"><ele>2.142857142857143</ele><time>2026-03-22T10:32:00.163Z</time></trkpt><trkpt lat="45.0201017" lon="11.7019083"><ele>2.4285714285714284</ele><time>2026-03-22T10:32:01.166Z</time></trkpt><trkpt lat="45.0200333" lon="11.7019067"><ele>2.714285714285714</ele><time>2026-03-22T10:32:02.165Z</time></trkpt><trkpt lat="45.01997" lon="11.7019067"><ele>3.0</ele><time>2026-03-22T10:32:03.165Z</time></trkpt><trkpt lat="45.019905" lon="11.7019083"><ele>2.9999999999999996</ele><time>2026-03-22T10:32:04.161Z</time></trkpt><trkpt lat="45.01984" lon="11.7019133"><ele>3.0</ele><time>2026-03-22T10:32:05.164Z</time></trkpt><trkpt lat="45.0197733" lon="11.701915"><ele>3.0</ele><time>2026-03-22T10:32:06.166Z</time></trkpt><trkpt lat="45.0197033" lon="11.7019167"><ele>3.0</ele><time>2026-03-22T10:32:07.164Z</time></trkpt><trkpt lat="45.0196367" lon="11.70192"><ele>3.0</ele><time>2026-03-22T10:32:08.166Z</time></trkpt><trkpt lat="45.0195667" lon="11.701925"><ele>2.9999999999999996</ele><time>2026-03-22T10:32:09.166Z</time></trkpt><trkpt lat="45.0194967" lon="11.7019317"><ele>3.0</ele><time>2026-03-22T10:32:10.141Z</time></trkpt><trkpt lat="45.0194267" lon="11.7019383"><ele>3.1666666666666665</ele><time>2026-03-22T10:32:11.163Z</time></trkpt><trkpt lat="45.0193533" lon="11.701945"><ele>3.333333333333333</ele><time>2026-03-22T10:32:12.156Z</time></trkpt><trkpt lat="45.019275" lon="11.7019517"><ele>3.5</ele><time>2026-03-22T10:32:13.157Z</time></trkpt><trkpt lat="45.0191933" lon="11.7019583"><ele>3.6666666666666665</ele><time>2026-03-22T10:32:14.165Z</time></trkpt><trkpt lat="45.0191067" lon="11.7019633"><ele>3.833333333333333</ele><time>2026-03-22T10:32:15.164Z</time></trkpt><trkpt lat="45.0190183" lon="11.7019683"><ele>4.0</ele><time>2026-03-22T10:32:16.142Z</time></trkpt><trkpt lat="45.0189267" lon="11.7019733"><ele>3.4000000000000004</ele><time>2026-03-22T10:32:17.159Z</time></trkpt><trkpt lat="45.0188317" lon="11.7019783"><ele>2.8000000000000003</ele><time>2026-03-22T10:32:18.159Z</time></trkpt><trkpt lat="45.0187367" lon="11.70198"><ele>2.2</ele><time>2026-03-22T10:32:19.166Z</time></trkpt><trkpt lat="45.01864" lon="11.7019867"><ele>1.6</ele><time>2026-03-22T10:32:20.166Z</time></trkpt><trkpt lat="45.0185433" lon="11.7019917"><ele>1.0</ele><time>2026-03-22T10:32:21.163Z</time></trkpt><trkpt lat="45.0184467" lon="11.7019967"><ele>1.0</ele><time>2026-03-22T10:32:22.168Z</time></trkpt><trkpt lat="45.01835" lon="11.7020017"><ele>1.0</ele><time>2026-03-22T10:32:23.16Z</time></trkpt><trkpt lat="45.0182517" lon="11.70201"><ele>1.0</ele><time>2026-03-22T10:32:24.167Z</time></trkpt><trkpt lat="45.0181533" lon="11.7020183"><ele>1.0</ele><time>2026-03-22T10:32:25.166Z</time></trkpt><trkpt lat="45.018055" lon="11.702025"><ele>1.0</ele><time>2026-03-22T10:32:26.163Z</time></trkpt><trkpt lat="45.0179583" lon="11.7020317"><ele>0.8</ele><time>2026-03-22T10:32:27.161Z</time></trkpt><trkpt lat="45.01786" lon="11.7020333"><ele>0.6000000000000001</ele><time>2026-03-22T10:32:28.131Z</time></trkpt><trkpt lat="45.0177683" lon="11.7020317"><ele>0.4</ele><time>2026-03-22T10:32:29.152Z</time></trkpt><trkpt lat="45.0176783" lon="11.7020133"><ele>0.2</ele><time>2026-03-22T10:32:30.15Z</time></trkpt><trkpt lat="45.0175983" lon="11.7019683"><ele>0.0</ele><time>2026-03-22T10:32:31.145Z</time></trkpt><trkpt lat="45.0175283" lon="11.7018983"><ele>0.3333333333333333</ele><time>2026-03-22T10:32:32.155Z</time></trkpt><trkpt lat="45.0174833" lon="11.701805"><ele>0.6666666666666666</ele><time>2026-03-22T10:32:33.157Z</time></trkpt><trkpt lat="45.0174717" lon="11.70169"><ele>1.0</ele><time>2026-03-22T10:32:34.157Z</time></trkpt><trkpt lat="45.0174633" lon="11.7015633"><ele>1.3333333333333333</ele><time>2026-03-22T10:32:35.162Z</time></trkpt><trkpt lat="45.0174417" lon="11.7014433"><ele>1.6666666666666665</ele><time>2026-03-22T10:32:36.16Z</time></trkpt><trkpt lat="45.0173983" lon="11.70134"><ele>2.0</ele><time>2026-03-22T10:32:37.156Z</time></trkpt><trkpt lat="45.01734" lon="11.7012583"><ele>1.9999999999999998</ele><time>2026-03-22T10:32:38.165Z</time></trkpt><trkpt lat="45.0172683" lon="11.701195"><ele>2.0</ele><time>2026-03-22T10:32:39.163Z</time></trkpt><trkpt lat="45.0171867" lon="11.7011583"><ele>2.0</ele><time>2026-03-22T10:32:40.162Z</time></trkpt><trkpt lat="45.0171" lon="11.7011433"><ele>2.0</ele><time>2026-03-22T10:32:41.158Z</time></trkpt><trkpt lat="45.0170117" lon="11.7011567"><ele>1.9999999999999998</ele><time>2026-03-22T10:32:42.15Z</time></trkpt><trkpt lat="45.0169283" lon="11.7011967"><ele>2.0</ele><time>2026-03-22T10:32:43.155Z</time></trkpt><trkpt lat="45.0168533" lon="11.701255"><ele>1.9999999999999998</ele><time>2026-03-22T10:32:44.16Z</time></trkpt><trkpt lat="45.01678" lon="11.7013183"><ele>2.0</ele><time>2026-03-22T10:32:45.167Z</time></trkpt><trkpt lat="45.0167" lon="11.7013667"><ele>2.0</ele><time>2026-03-22T10:32:46.164Z</time></trkpt><trkpt lat="45.0166133" lon="11.7013817"><ele>2.0</ele><time>2026-03-22T10:32:47.138Z</time></trkpt><trkpt lat="45.016525" lon="11.7013633"><ele>1.9999999999999998</ele><time>2026-03-22T10:32:48.162Z</time></trkpt><trkpt lat="45.0164433" lon="11.701315"><ele>2.0</ele><time>2026-03-22T10:32:49.155Z</time></trkpt><trkpt lat="45.0163667" lon="11.7012533"><ele>2.1666666666666665</ele><time>2026-03-22T10:32:50.169Z</time></trkpt><trkpt lat="45.0162917" lon="11.70119"><ele>2.333333333333333</ele><time>2026-03-22T10:32:51.164Z</time></trkpt><trkpt lat="45.016215" lon="11.7011367"><ele>2.5</ele><time>2026-03-22T10:32:52.163Z</time></trkpt><trkpt lat="45.0161383" lon="11.7010867"><ele>2.6666666666666665</ele><time>2026-03-22T10:32:53.157Z</time></trkpt><trkpt lat="45.0160617" lon="11.7010383"><ele>2.8333333333333335</ele><time>2026-03-22T10:32:54.168Z</time></trkpt><trkpt lat="45.015985" lon="11.7009917"><ele>3.0</ele><time>2026-03-22T10:32:55.166Z</time></trkpt><trkpt lat="45.0159083" lon="11.7009467"><ele>3.0</ele><time>2026-03-22T10:32:56.168Z</time></trkpt><trkpt lat="45.0158333" lon="11.7009017"><ele>3.0</ele><time>2026-03-22T10:32:57.169Z</time></trkpt><trkpt lat="45.0157567" lon="11.700855"><ele>3.0</ele><time>2026-03-22T10:32:58.167Z</time></trkpt><trkpt lat="45.0156833" lon="11.7008117"><ele>3.0</ele><time>2026-03-22T10:32:59.167Z</time></trkpt><trkpt lat="45.0156083" lon="11.7007667"><ele>3.0</ele><time>2026-03-22T10:33:00.168Z</time></trkpt><trkpt lat="45.0155317" lon="11.7007217"><ele>3.0</ele><time>2026-03-22T10:33:01.167Z</time></trkpt><trkpt lat="45.0154583" lon="11.7006767"><ele>3.1666666666666665</ele><time>2026-03-22T10:33:02.166Z</time></trkpt><trkpt lat="45.015385" lon="11.7006317"><ele>3.333333333333333</ele><time>2026-03-22T10:33:03.146Z</time></trkpt><trkpt lat="45.0153117" lon="11.70059"><ele>3.5</ele><time>2026-03-22T10:33:04.164Z</time></trkpt><trkpt lat="45.0152367" lon="11.7005467"><ele>3.6666666666666665</ele><time>2026-03-22T10:33:05.163Z</time></trkpt><trkpt lat="45.0151633" lon="11.7005"><ele>3.833333333333333</ele><time>2026-03-22T10:33:06.167Z</time></trkpt><trkpt lat="45.0150917" lon="11.7004533"><ele>4.0</ele><time>2026-03-22T10:33:07.167Z</time></trkpt><trkpt lat="45.01502" lon="11.7004083"><ele>4.0</ele><time>2026-03-22T10:33:08.14Z</time></trkpt><trkpt lat="45.01495" lon="11.7003633"><ele>3.9999999999999996</ele><time>2026-03-22T10:33:09.157Z</time></trkpt><trkpt lat="45.014885" lon="11.7003083"><ele>4.0</ele><time>2026-03-22T10:33:10.165Z</time></trkpt><trkpt lat="45.0148283" lon="11.7002383"><ele>4.0</ele><time>2026-03-22T10:33:11.164Z</time></trkpt><trkpt lat="45.01479" lon="11.70015"><ele>3.9999999999999996</ele><time>2026-03-22T10:33:12.164Z</time></trkpt><trkpt lat="45.014765" lon="11.7000567"><ele>4.0</ele><time>2026-03-22T10:33:13.167Z</time></trkpt><trkpt lat="45.0147517" lon="11.6999583"><ele>4.0</ele><time>2026-03-22T10:33:14.161Z</time></trkpt><trkpt lat="45.014745" lon="11.6998633"><ele>4.166666666666666</ele><time>2026-03-22T10:33:15.167Z</time></trkpt><trkpt lat="45.0147367" lon="11.6997733"><ele>4.333333333333333</ele><time>2026-03-22T10:33:16.168Z</time></trkpt><trkpt lat="45.014715" lon="11.69963"><ele>4.5</ele><time>2026-03-22T10:33:18.221Z</time></trkpt><trkpt lat="45.0147117" lon="11.6995367"><ele>4.666666666666667</ele><time>2026-03-22T10:33:20.149Z</time></trkpt><trkpt lat="45.014715" lon="11.6994317"><ele>4.833333333333334</ele><time>2026-03-22T10:33:23.159Z</time></trkpt><trkpt lat="45.0147233" lon="11.69933"><ele>5.0</ele><time>2026-03-22T10:33:26.162Z</time></trkpt><trkpt lat="45.0147333" lon="11.6991867"><ele>5.0</ele><time>2026-03-22T10:34:03.163Z</time></trkpt><trkpt lat="45.0147333" lon="11.699055"><ele>5.0</ele><time>2026-03-22T10:34:12.139Z</time></trkpt><trkpt lat="45.014745" lon="11.6989517"><ele>5.0</ele><time>2026-03-22T10:34:14.162Z</time></trkpt><trkpt lat="45.0147783" lon="11.6988267"><ele>5.0</ele><time>2026-03-22T10:34:16.165Z</time></trkpt><trkpt lat="45.014815" lon="11.6986717"><ele>5.0</ele><time>2026-03-22T10:34:18.16Z</time></trkpt><trkpt lat="45.0148433" lon="11.6985"><ele>5.142857142857142</ele><time>2026-03-22T10:34:20.155Z</time></trkpt><trkpt lat="45.0148567" lon="11.6984067"><ele>5.285714285714286</ele><time>2026-03-22T10:34:21.152Z</time></trkpt><trkpt lat="45.014875" lon="11.69831"><ele>5.428571428571429</ele><time>2026-03-22T10:34:22.158Z</time></trkpt><trkpt lat="45.0148933" lon="11.69821"><ele>5.571428571428571</ele><time>2026-03-22T10:34:23.166Z</time></trkpt><trkpt lat="45.01491" lon="11.69811"><ele>5.714285714285714</ele><time>2026-03-22T10:34:24.17Z</time></trkpt><trkpt lat="45.01493" lon="11.6980083"><ele>5.857142857142857</ele><time>2026-03-22T10:34:25.167Z</time></trkpt><trkpt lat="45.0149467" lon="11.6979083"><ele>6.0</ele><time>2026-03-22T10:34:26.167Z</time></trkpt><trkpt lat="45.014965" lon="11.697805"><ele>6.0</ele><time>2026-03-22T10:34:27.165Z</time></trkpt><trkpt lat="45.01498" lon="11.6977017"><ele>6.0</ele><time>2026-03-22T10:34:28.143Z</time></trkpt><trkpt lat="45.0149933" lon="11.6975983"><ele>6.0</ele><time>2026-03-22T10:34:29.15Z</time></trkpt><trkpt lat="45.0150067" lon="11.6974933"><ele>6.0</ele><time>2026-03-22T10:34:30.162Z</time></trkpt><trkpt lat="45.0150183" lon="11.69739"><ele>6.0</ele><time>2026-03-22T10:34:31.162Z</time></trkpt><trkpt lat="45.0150283" lon="11.6972833"><ele>6.0</ele><time>2026-03-22T10:34:32.164Z</time></trkpt><trkpt lat="45.0150383" lon="11.697175"><ele>6.0</ele><time>2026-03-22T10:34:33.168Z</time></trkpt><trkpt lat="45.0150467" lon="11.6970667"><ele>6.0</ele><time>2026-03-22T10:34:34.166Z</time></trkpt><trkpt lat="45.0150583" lon="11.6969567"><ele>6.0</ele><time>2026-03-22T10:34:35.166Z</time></trkpt><trkpt lat="45.0150667" lon="11.69685"><ele>6.0</ele><time>2026-03-22T10:34:36.164Z</time></trkpt><trkpt lat="45.0150783" lon="11.6967467"><ele>6.0</ele><time>2026-03-22T10:34:37.163Z</time></trkpt><trkpt lat="45.01509" lon="11.6966417"><ele>6.0</ele><time>2026-03-22T10:34:38.165Z</time></trkpt><trkpt lat="45.0151" lon="11.6965367"><ele>5.999999999999999</ele><time>2026-03-22T10:34:39.163Z</time></trkpt><trkpt lat="45.0151083" lon="11.6964317"><ele>6.0</ele><time>2026-03-22T10:34:40.164Z</time></trkpt><trkpt lat="45.015115" lon="11.69633"><ele>6.0</ele><time>2026-03-22T10:34:41.165Z</time></trkpt><trkpt lat="45.0151217" lon="11.696225"><ele>6.0</ele><time>2026-03-22T10:34:42.141Z</time></trkpt><trkpt lat="45.0151333" lon="11.6961183"><ele>6.0</ele><time>2026-03-22T10:34:43.151Z</time></trkpt><trkpt lat="45.0151433" lon="11.6960117"><ele>5.999999999999999</ele><time>2026-03-22T10:34:44.153Z</time></trkpt><trkpt lat="45.0151517" lon="11.6959067"><ele>6.0</ele><time>2026-03-22T10:34:45.157Z</time></trkpt><trkpt lat="45.015155" lon="11.6958"><ele>6.0</ele><time>2026-03-22T10:34:46.167Z</time></trkpt><trkpt lat="45.0151517" lon="11.6956917"><ele>6.0</ele><time>2026-03-22T10:34:47.137Z</time></trkpt><trkpt lat="45.0151433" lon="11.6955833"><ele>6.0</ele><time>2026-03-22T10:34:48.157Z</time></trkpt><trkpt lat="45.0151233" lon="11.6954783"><ele>6.0</ele><time>2026-03-22T10:34:49.147Z</time></trkpt><trkpt lat="45.0150917" lon="11.6953783"><ele>6.0</ele><time>2026-03-22T10:34:50.159Z</time></trkpt><trkpt lat="45.01505" lon="11.6952867"><ele>6.0</ele><time>2026-03-22T10:34:51.161Z</time></trkpt><trkpt lat="45.015" lon="11.695205"><ele>5.999999999999999</ele><time>2026-03-22T10:34:52.166Z</time></trkpt><trkpt lat="45.0149433" lon="11.69513"><ele>6.0</ele><time>2026-03-22T10:34:53.165Z</time></trkpt><trkpt lat="45.0148817" lon="11.6950667"><ele>6.0</ele><time>2026-03-22T10:34:54.166Z</time></trkpt><trkpt lat="45.0148133" lon="11.6950183"><ele>6.0</ele><time>2026-03-22T10:34:55.166Z</time></trkpt><trkpt lat="45.014745" lon="11.6949783"><ele>6.0</ele><time>2026-03-22T10:34:56.17Z</time></trkpt><trkpt lat="45.0146767" lon="11.69494"><ele>5.999999999999999</ele><time>2026-03-22T10:34:57.166Z</time></trkpt><trkpt lat="45.0146167" lon="11.6948933"><ele>6.0</ele><time>2026-03-22T10:34:58.164Z</time></trkpt><trkpt lat="45.0145667" lon="11.694835"><ele>6.0</ele><time>2026-03-22T10:34:59.168Z</time></trkpt><trkpt lat="45.014525" lon="11.6946683"><ele>6.0</ele><time>2026-03-22T10:35:01.159Z</time></trkpt><trkpt lat="45.0145267" lon="11.69457"><ele>6.0</ele><time>2026-03-22T10:35:02.165Z</time></trkpt><trkpt lat="45.0145417" lon="11.694475"><ele>6.0</ele><time>2026-03-22T10:35:03.164Z</time></trkpt><trkpt lat="45.01456" lon="11.6943833"><ele>6.0</ele><time>2026-03-22T10:35:04.164Z</time></trkpt><trkpt lat="45.01458" lon="11.694295"><ele>6.0</ele><time>2026-03-22T10:35:05.165Z</time></trkpt><trkpt lat="45.01462" lon="11.6941283"><ele>6.25</ele><time>2026-03-22T10:35:07.166Z</time></trkpt><trkpt lat="45.01465" lon="11.6939683"><ele>6.5</ele><time>2026-03-22T10:35:09.161Z</time></trkpt><trkpt lat="45.0146783" lon="11.693815"><ele>6.75</ele><time>2026-03-22T10:35:11.154Z</time></trkpt><trkpt lat="45.0147033" lon="11.6936633"><ele>7.0</ele><time>2026-03-22T10:35:13.168Z</time></trkpt><trkpt lat="45.0146933" lon="11.6934967"><ele>7.0</ele><time>2026-03-22T10:35:15.165Z</time></trkpt><trkpt lat="45.0146133" lon="11.6933817"><ele>6.999999999999999</ele><time>2026-03-22T10:35:17.163Z</time></trkpt><trkpt lat="45.0145267" lon="11.6932883"><ele>6.999999999999999</ele><time>2026-03-22T10:35:19.167Z</time></trkpt><trkpt lat="45.0145" lon="11.6931267"><ele>7.0</ele><time>2026-03-22T10:35:21.136Z</time></trkpt><trkpt lat="45.01451" lon="11.6930367"><ele>7.0</ele><time>2026-03-22T10:35:22.156Z</time></trkpt><trkpt lat="45.0145233" lon="11.6929417"><ele>7.0</ele><time>2026-03-22T10:35:23.162Z</time></trkpt><trkpt lat="45.0145367" lon="11.6928467"><ele>7.0</ele><time>2026-03-22T10:35:24.166Z</time></trkpt><trkpt lat="45.0145483" lon="11.6927517"><ele>7.0</ele><time>2026-03-22T10:35:25.173Z</time></trkpt><trkpt lat="45.0145633" lon="11.6926567"><ele>7.0</ele><time>2026-03-22T10:35:26.159Z</time></trkpt><trkpt lat="45.0145783" lon="11.6925617"><ele>7.0</ele><time>2026-03-22T10:35:27.165Z</time></trkpt><trkpt lat="45.0145933" lon="11.6924633"><ele>7.0</ele><time>2026-03-22T10:35:28.164Z</time></trkpt><trkpt lat="45.0146083" lon="11.692365"><ele>7.0</ele><time>2026-03-22T10:35:29.165Z</time></trkpt><trkpt lat="45.0146283" lon="11.692265"><ele>6.714285714285714</ele><time>2026-03-22T10:35:30.166Z</time></trkpt><trkpt lat="45.0146533" lon="11.6921683"><ele>6.428571428571429</ele><time>2026-03-22T10:35:31.163Z</time></trkpt><trkpt lat="45.014675" lon="11.692075"><ele>6.142857142857142</ele><time>2026-03-22T10:35:32.167Z</time></trkpt><trkpt lat="45.0146917" lon="11.69198"><ele>5.857142857142858</ele><time>2026-03-22T10:35:33.165Z</time></trkpt><trkpt lat="45.0147067" lon="11.6918833"><ele>5.571428571428571</ele><time>2026-03-22T10:35:34.168Z</time></trkpt><trkpt lat="45.01472" lon="11.691785"><ele>5.285714285714286</ele><time>2026-03-22T10:35:35.168Z</time></trkpt><trkpt lat="45.0147317" lon="11.691685"><ele>5.0</ele><time>2026-03-22T10:35:36.164Z</time></trkpt><trkpt lat="45.0147367" lon="11.6915867"><ele>5.0</ele><time>2026-03-22T10:35:37.164Z</time></trkpt><trkpt lat="45.01474" lon="11.6914867"><ele>5.0</ele><time>2026-03-22T10:35:38.163Z</time></trkpt><trkpt lat="45.0147417" lon="11.69139"><ele>5.0</ele><time>2026-03-22T10:35:39.164Z</time></trkpt><trkpt lat="45.0147383" lon="11.691295"><ele>5.0</ele><time>2026-03-22T10:35:40.168Z</time></trkpt><trkpt lat="45.0147333" lon="11.6911967"><ele>5.0</ele><time>2026-03-22T10:35:41.166Z</time></trkpt><trkpt lat="45.0147283" lon="11.691095"><ele>5.0</ele><time>2026-03-22T10:35:42.151Z</time></trkpt><trkpt lat="45.0147217" lon="11.6909967"><ele>5.0</ele><time>2026-03-22T10:35:43.164Z</time></trkpt><trkpt lat="45.0147117" lon="11.6909"><ele>5.0</ele><time>2026-03-22T10:35:44.165Z</time></trkpt><trkpt lat="45.0147" lon="11.6908017"><ele>5.0</ele><time>2026-03-22T10:35:45.168Z</time></trkpt><trkpt lat="45.01469" lon="11.6907033"><ele>5.0</ele><time>2026-03-22T10:35:46.166Z</time></trkpt><trkpt lat="45.01468" lon="11.6906033"><ele>5.0</ele><time>2026-03-22T10:35:47.166Z</time></trkpt><trkpt lat="45.01467" lon="11.6905033"><ele>5.0</ele><time>2026-03-22T10:35:48.161Z</time></trkpt><trkpt lat="45.0146583" lon="11.6904017"><ele>5.0</ele><time>2026-03-22T10:35:49.156Z</time></trkpt><trkpt lat="45.0146483" lon="11.6902967"><ele>5.0</ele><time>2026-03-22T10:35:50.16Z</time></trkpt><trkpt lat="45.0146417" lon="11.69019"><ele>4.857142857142857</ele><time>2026-03-22T10:35:51.16Z</time></trkpt><trkpt lat="45.0146383" lon="11.6900867"><ele>4.714285714285714</ele><time>2026-03-22T10:35:52.161Z</time></trkpt><trkpt lat="45.0146383" lon="11.6899817"><ele>4.571428571428571</ele><time>2026-03-22T10:35:53.128Z</time></trkpt><trkpt lat="45.0146383" lon="11.6898783"><ele>4.428571428571429</ele><time>2026-03-22T10:35:54.167Z</time></trkpt><trkpt lat="45.0146417" lon="11.6897767"><ele>4.285714285714286</ele><time>2026-03-22T10:35:55.167Z</time></trkpt><trkpt lat="45.0146483" lon="11.68968"><ele>4.142857142857142</ele><time>2026-03-22T10:35:56.173Z</time></trkpt><trkpt lat="45.0146583" lon="11.6895833"><ele>4.0</ele><time>2026-03-22T10:35:57.161Z</time></trkpt><trkpt lat="45.01467" lon="11.68949"><ele>3.9999999999999996</ele><time>2026-03-22T10:35:58.166Z</time></trkpt><trkpt lat="45.0146817" lon="11.6893983"><ele>4.0</ele><time>2026-03-22T10:35:59.165Z</time></trkpt><trkpt lat="45.0146967" lon="11.6893067"><ele>4.0</ele><time>2026-03-22T10:36:00.164Z</time></trkpt><trkpt lat="45.01471" lon="11.6892183"><ele>4.0</ele><time>2026-03-22T10:36:01.219Z</time></trkpt><trkpt lat="45.014745" lon="11.6890533"><ele>3.9999999999999996</ele><time>2026-03-22T10:36:03.161Z</time></trkpt><trkpt lat="45.0147867" lon="11.6889017"><ele>4.0</ele><time>2026-03-22T10:36:05.165Z</time></trkpt><trkpt lat="45.0148317" lon="11.688755"><ele>4.0</ele><time>2026-03-22T10:36:07.155Z</time></trkpt><trkpt lat="45.0148817" lon="11.6886117"><ele>4.0</ele><time>2026-03-22T10:36:09.164Z</time></trkpt><trkpt lat="45.0149333" lon="11.6884783"><ele>4.0</ele><time>2026-03-22T10:36:11.165Z</time></trkpt><trkpt lat="45.0149867" lon="11.6883517"><ele>4.0</ele><time>2026-03-22T10:36:13.167Z</time></trkpt><trkpt lat="45.0150433" lon="11.6882283"><ele>4.0</ele><time>2026-03-22T10:36:15.16Z</time></trkpt><trkpt lat="45.0150983" lon="11.6881067"><ele>4.6</ele><time>2026-03-22T10:36:17.164Z</time></trkpt><trkpt lat="45.0151567" lon="11.6879883"><ele>5.2</ele><time>2026-03-22T10:36:19.16Z</time></trkpt><trkpt lat="45.015215" lon="11.6878683"><ele>5.799999999999999</ele><time>2026-03-22T10:36:21.16Z</time></trkpt><trkpt lat="45.0152717" lon="11.68775"><ele>6.3999999999999995</ele><time>2026-03-22T10:36:23.157Z</time></trkpt><trkpt lat="45.0153283" lon="11.6876383"><ele>7.0</ele><time>2026-03-22T10:36:25.144Z</time></trkpt><trkpt lat="45.01538" lon="11.687525"><ele>7.0</ele><time>2026-03-22T10:36:27.165Z</time></trkpt><trkpt lat="45.0154317" lon="11.6874117"><ele>6.999999999999999</ele><time>2026-03-22T10:36:29.161Z</time></trkpt><trkpt lat="45.015485" lon="11.6872983"><ele>6.999999999999999</ele><time>2026-03-22T10:36:31.167Z</time></trkpt><trkpt lat="45.0155383" lon="11.687185"><ele>7.0</ele><time>2026-03-22T10:36:33.161Z</time></trkpt><trkpt lat="45.0155917" lon="11.6870683"><ele>7.0</ele><time>2026-03-22T10:36:35.168Z</time></trkpt><trkpt lat="45.0156467" lon="11.6869517"><ele>6.6</ele><time>2026-03-22T10:36:37.162Z</time></trkpt><trkpt lat="45.015705" lon="11.68683"><ele>6.199999999999999</ele><time>2026-03-22T10:36:39.167Z</time></trkpt><trkpt lat="45.0157667" lon="11.68671"><ele>5.8</ele><time>2026-03-22T10:36:41.164Z</time></trkpt><trkpt lat="45.015825" lon="11.686585"><ele>5.4</ele><time>2026-03-22T10:36:43.163Z</time></trkpt><trkpt lat="45.0158833" lon="11.6864533"><ele>5.0</ele><time>2026-03-22T10:36:45.167Z</time></trkpt><trkpt lat="45.01595" lon="11.6863183"><ele>5.0</ele><time>2026-03-22T10:36:47.161Z</time></trkpt><trkpt lat="45.0160167" lon="11.6861783"><ele>5.0</ele><time>2026-03-22T10:36:49.161Z</time></trkpt><trkpt lat="45.01609" lon="11.6860433"><ele>5.0</ele><time>2026-03-22T10:36:51.135Z</time></trkpt><trkpt lat="45.0161317" lon="11.6859733"><ele>5.0</ele><time>2026-03-22T10:36:52.156Z</time></trkpt><trkpt lat="45.016175" lon="11.685905"><ele>5.0</ele><time>2026-03-22T10:36:53.168Z</time></trkpt><trkpt lat="45.0162183" lon="11.6858367"><ele>5.0</ele><time>2026-03-22T10:36:54.166Z</time></trkpt><trkpt lat="45.0162683" lon="11.68577"><ele>5.0</ele><time>2026-03-22T10:36:55.166Z</time></trkpt><trkpt lat="45.0163183" lon="11.685705"><ele>5.0</ele><time>2026-03-22T10:36:56.166Z</time></trkpt><trkpt lat="45.0163717" lon="11.68564"><ele>5.0</ele><time>2026-03-22T10:36:57.168Z</time></trkpt><trkpt lat="45.016425" lon="11.6855767"><ele>5.0</ele><time>2026-03-22T10:36:58.16Z</time></trkpt><trkpt lat="45.0164817" lon="11.6855167"><ele>5.0</ele><time>2026-03-22T10:36:59.164Z</time></trkpt><trkpt lat="45.01654" lon="11.6854567"><ele>5.0</ele><time>2026-03-22T10:37:00.165Z</time></trkpt><trkpt lat="45.0166" lon="11.685395"><ele>5.0</ele><time>2026-03-22T10:37:01.167Z</time></trkpt><trkpt lat="45.01666" lon="11.685335"><ele>5.0</ele><time>2026-03-22T10:37:02.168Z</time></trkpt><trkpt lat="45.01672" lon="11.685275"><ele>5.0</ele><time>2026-03-22T10:37:03.167Z</time></trkpt><trkpt lat="45.0167783" lon="11.685215"><ele>5.0</ele><time>2026-03-22T10:37:04.164Z</time></trkpt><trkpt lat="45.016835" lon="11.685155"><ele>5.0</ele><time>2026-03-22T10:37:05.166Z</time></trkpt><trkpt lat="45.01689" lon="11.685095"><ele>5.0</ele><time>2026-03-22T10:37:06.16Z</time></trkpt><trkpt lat="45.0169467" lon="11.6850367"><ele>5.0</ele><time>2026-03-22T10:37:07.14Z</time></trkpt><trkpt lat="45.0170017" lon="11.6849767"><ele>5.0</ele><time>2026-03-22T10:37:08.16Z</time></trkpt><trkpt lat="45.0170583" lon="11.6849183"><ele>5.0</ele><time>2026-03-22T10:37:09.171Z</time></trkpt><trkpt lat="45.0171133" lon="11.68486"><ele>5.0</ele><time>2026-03-22T10:37:10.158Z</time></trkpt><trkpt lat="45.0171683" lon="11.6848"><ele>5.0</ele><time>2026-03-22T10:37:11.161Z</time></trkpt><trkpt lat="45.0172217" lon="11.6847433"><ele>5.0</ele><time>2026-03-22T10:37:12.166Z</time></trkpt><trkpt lat="45.0172733" lon="11.684685"><ele>5.0</ele><time>2026-03-22T10:37:13.166Z</time></trkpt><trkpt lat="45.0173283" lon="11.684625"><ele>5.0</ele><time>2026-03-22T10:37:14.166Z</time></trkpt><trkpt lat="45.0173833" lon="11.684565"><ele>5.0</ele><time>2026-03-22T10:37:15.165Z</time></trkpt><trkpt lat="45.0174383" lon="11.6845067"><ele>5.0</ele><time>2026-03-22T10:37:16.166Z</time></trkpt><trkpt lat="45.0174933" lon="11.6844483"><ele>5.0</ele><time>2026-03-22T10:37:17.166Z</time></trkpt><trkpt lat="45.0175483" lon="11.6843867"><ele>5.0</ele><time>2026-03-22T10:37:18.16Z</time></trkpt><trkpt lat="45.0176017" lon="11.6843267"><ele>5.0</ele><time>2026-03-22T10:37:19.165Z</time></trkpt><trkpt lat="45.0176567" lon="11.6842667"><ele>5.0</ele><time>2026-03-22T10:37:20.163Z</time></trkpt><trkpt lat="45.01771" lon="11.6842067"><ele>5.0</ele><time>2026-03-22T10:37:21.168Z</time></trkpt><trkpt lat="45.0177633" lon="11.6841483"><ele>5.0</ele><time>2026-03-22T10:37:22.166Z</time></trkpt><trkpt lat="45.0178183" lon="11.6840917"><ele>5.0</ele><time>2026-03-22T10:37:23.144Z</time></trkpt><trkpt lat="45.01787" lon="11.684035"><ele>5.0</ele><time>2026-03-22T10:37:24.156Z</time></trkpt><trkpt lat="45.0179217" lon="11.68398"><ele>5.0</ele><time>2026-03-22T10:37:25.161Z</time></trkpt><trkpt lat="45.017975" lon="11.6839217"><ele>5.0</ele><time>2026-03-22T10:37:26.163Z</time></trkpt><trkpt lat="45.0180283" lon="11.6838633"><ele>5.0</ele><time>2026-03-22T10:37:27.163Z</time></trkpt><trkpt lat="45.01808" lon="11.6838067"><ele>5.0</ele><time>2026-03-22T10:37:28.164Z</time></trkpt><trkpt lat="45.0181367" lon="11.6837483"><ele>5.0</ele><time>2026-03-22T10:37:29.164Z</time></trkpt><trkpt lat="45.0181917" lon="11.6836933"><ele>5.0</ele><time>2026-03-22T10:37:30.141Z</time></trkpt><trkpt lat="45.018245" lon="11.6836367"><ele>5.0</ele><time>2026-03-22T10:37:31.154Z</time></trkpt><trkpt lat="45.0182983" lon="11.6835783"><ele>5.0</ele><time>2026-03-22T10:37:32.16Z</time></trkpt><trkpt lat="45.0183533" lon="11.6835183"><ele>5.0</ele><time>2026-03-22T10:37:33.158Z</time></trkpt><trkpt lat="45.0184067" lon="11.6834567"><ele>5.0</ele><time>2026-03-22T10:37:34.167Z</time></trkpt><trkpt lat="45.01846" lon="11.6834017"><ele>5.0</ele><time>2026-03-22T10:37:35.163Z</time></trkpt><trkpt lat="45.0185133" lon="11.683345"><ele>5.0</ele><time>2026-03-22T10:37:36.168Z</time></trkpt><trkpt lat="45.018565" lon="11.6832883"><ele>5.0</ele><time>2026-03-22T10:37:37.166Z</time></trkpt><trkpt lat="45.0186167" lon="11.6832283"><ele>5.0</ele><time>2026-03-22T10:37:38.165Z</time></trkpt><trkpt lat="45.01867" lon="11.68317"><ele>5.0</ele><time>2026-03-22T10:37:39.14Z</time></trkpt><trkpt lat="45.0187233" lon="11.6831117"><ele>5.0</ele><time>2026-03-22T10:37:40.154Z</time></trkpt><trkpt lat="45.0187767" lon="11.6830533"><ele>5.0</ele><time>2026-03-22T10:37:41.165Z</time></trkpt><trkpt lat="45.01883" lon="11.6829933"><ele>5.0</ele><time>2026-03-22T10:37:42.169Z</time></trkpt><trkpt lat="45.01888" lon="11.6829317"><ele>5.0</ele><time>2026-03-22T10:37:43.147Z</time></trkpt><trkpt lat="45.01893" lon="11.68287"><ele>5.0</ele><time>2026-03-22T10:37:44.161Z</time></trkpt><trkpt lat="45.0189817" lon="11.6828067"><ele>5.0</ele><time>2026-03-22T10:37:45.167Z</time></trkpt><trkpt lat="45.01903" lon="11.6827367"><ele>5.0</ele><time>2026-03-22T10:37:46.168Z</time></trkpt><trkpt lat="45.0190767" lon="11.682665"><ele>5.0</ele><time>2026-03-22T10:37:47.167Z</time></trkpt><trkpt lat="45.01912" lon="11.6825933"><ele>5.0</ele><time>2026-03-22T10:37:48.165Z</time></trkpt><trkpt lat="45.01916" lon="11.6825167"><ele>5.0</ele><time>2026-03-22T10:37:49.141Z</time></trkpt><trkpt lat="45.0192" lon="11.6824333"><ele>5.0</ele><time>2026-03-22T10:37:50.164Z</time></trkpt><trkpt lat="45.0192367" lon="11.68235"><ele>5.0</ele><time>2026-03-22T10:37:51.159Z</time></trkpt><trkpt lat="45.0192733" lon="11.6822683"><ele>5.0</ele><time>2026-03-22T10:37:52.161Z</time></trkpt><trkpt lat="45.0193083" lon="11.6821867"><ele>5.0</ele><time>2026-03-22T10:37:53.181Z</time></trkpt><trkpt lat="45.01934" lon="11.6821033"><ele>5.0</ele><time>2026-03-22T10:37:54.164Z</time></trkpt><trkpt lat="45.0193683" lon="11.6820183"><ele>5.0</ele><time>2026-03-22T10:37:55.142Z</time></trkpt><trkpt lat="45.0193917" lon="11.6819317"><ele>5.0</ele><time>2026-03-22T10:37:56.153Z</time></trkpt><trkpt lat="45.0194133" lon="11.68184"><ele>5.0</ele><time>2026-03-22T10:37:57.166Z</time></trkpt><trkpt lat="45.0194317" lon="11.68175"><ele>5.0</ele><time>2026-03-22T10:37:58.163Z</time></trkpt><trkpt lat="45.0194467" lon="11.6816583"><ele>5.0</ele><time>2026-03-22T10:37:59.165Z</time></trkpt><trkpt lat="45.0194617" lon="11.6815633"><ele>5.0</ele><time>2026-03-22T10:38:00.167Z</time></trkpt><trkpt lat="45.019475" lon="11.6814667"><ele>5.0</ele><time>2026-03-22T10:38:01.166Z</time></trkpt><trkpt lat="45.0194867" lon="11.6813717"><ele>5.0</ele><time>2026-03-22T10:38:02.16Z</time></trkpt><trkpt lat="45.019495" lon="11.681275"><ele>5.0</ele><time>2026-03-22T10:38:03.165Z</time></trkpt><trkpt lat="45.0195033" lon="11.6811767"><ele>5.0</ele><time>2026-03-22T10:38:04.165Z</time></trkpt><trkpt lat="45.0195083" lon="11.6810767"><ele>5.0</ele><time>2026-03-22T10:38:05.167Z</time></trkpt><trkpt lat="45.0195117" lon="11.680975"><ele>5.0</ele><time>2026-03-22T10:38:06.168Z</time></trkpt><trkpt lat="45.0195133" lon="11.680875"><ele>5.0</ele><time>2026-03-22T10:38:07.152Z</time></trkpt><trkpt lat="45.019515" lon="11.6807733"><ele>5.0</ele><time>2026-03-22T10:38:08.158Z</time></trkpt><trkpt lat="45.0195133" lon="11.680675"><ele>5.0</ele><time>2026-03-22T10:38:09.165Z</time></trkpt><trkpt lat="45.0195117" lon="11.6805717"><ele>5.0</ele><time>2026-03-22T10:38:10.166Z</time></trkpt><trkpt lat="45.0195067" lon="11.6804717"><ele>5.0</ele><time>2026-03-22T10:38:11.168Z</time></trkpt><trkpt lat="45.0195017" lon="11.6803717"><ele>5.0</ele><time>2026-03-22T10:38:12.167Z</time></trkpt><trkpt lat="45.0194967" lon="11.68027"><ele>5.0</ele><time>2026-03-22T10:38:13.165Z</time></trkpt><trkpt lat="45.019495" lon="11.68017"><ele>5.0</ele><time>2026-03-22T10:38:14.167Z</time></trkpt><trkpt lat="45.0194917" lon="11.68007"><ele>5.0</ele><time>2026-03-22T10:38:15.168Z</time></trkpt><trkpt lat="45.01949" lon="11.67997"><ele>5.0</ele><time>2026-03-22T10:38:16.166Z</time></trkpt><trkpt lat="45.0194883" lon="11.6798733"><ele>5.0</ele><time>2026-03-22T10:38:17.169Z</time></trkpt><trkpt lat="45.019485" lon="11.6797733"><ele>5.0</ele><time>2026-03-22T10:38:18.165Z</time></trkpt><trkpt lat="45.019485" lon="11.679675"><ele>4.857142857142857</ele><time>2026-03-22T10:38:19.167Z</time></trkpt><trkpt lat="45.019485" lon="11.679575"><ele>4.714285714285714</ele><time>2026-03-22T10:38:20.166Z</time></trkpt><trkpt lat="45.0194833" lon="11.679475"><ele>4.571428571428571</ele><time>2026-03-22T10:38:21.153Z</time></trkpt><trkpt lat="45.0194817" lon="11.6793733"><ele>4.428571428571429</ele><time>2026-03-22T10:38:22.147Z</time></trkpt><trkpt lat="45.0194817" lon="11.6792733"><ele>4.285714285714286</ele><time>2026-03-22T10:38:23.133Z</time></trkpt><trkpt lat="45.0194817" lon="11.6791767"><ele>4.142857142857142</ele><time>2026-03-22T10:38:24.136Z</time></trkpt><trkpt lat="45.0194817" lon="11.6790767"><ele>4.0</ele><time>2026-03-22T10:38:25.146Z</time></trkpt><trkpt lat="45.0194783" lon="11.6789767"><ele>4.0</ele><time>2026-03-22T10:38:26.135Z</time></trkpt><trkpt lat="45.019475" lon="11.67888"><ele>3.9999999999999996</ele><time>2026-03-22T10:38:27.147Z</time></trkpt><trkpt lat="45.0194717" lon="11.6787833"><ele>4.0</ele><time>2026-03-22T10:38:28.149Z</time></trkpt><trkpt lat="45.0194733" lon="11.6786867"><ele>4.0</ele><time>2026-03-22T10:38:29.139Z</time></trkpt><trkpt lat="45.0194717" lon="11.6785867"><ele>3.9999999999999996</ele><time>2026-03-22T10:38:30.137Z</time></trkpt><trkpt lat="45.01947" lon="11.67849"><ele>4.0</ele><time>2026-03-22T10:38:31.15Z</time></trkpt><trkpt lat="45.0194667" lon="11.678395"><ele>4.0</ele><time>2026-03-22T10:38:32.156Z</time></trkpt><trkpt lat="45.0194617" lon="11.6783033"><ele>3.6</ele><time>2026-03-22T10:38:33.151Z</time></trkpt><trkpt lat="45.0194583" lon="11.67821"><ele>3.2</ele><time>2026-03-22T10:38:34.134Z</time></trkpt><trkpt lat="45.0194583" lon="11.6781167"><ele>2.8000000000000003</ele><time>2026-03-22T10:38:35.15Z</time></trkpt><trkpt lat="45.01946" lon="11.6780267"><ele>2.4000000000000004</ele><time>2026-03-22T10:38:36.145Z</time></trkpt><trkpt lat="45.0195083" lon="11.6779083"><ele>2.0</ele><time>2026-03-22T10:38:38.148Z</time></trkpt><trkpt lat="45.019675" lon="11.6779017"><ele>1.9999999999999998</ele><time>2026-03-22T10:38:41.151Z</time></trkpt><trkpt lat="45.0197367" lon="11.6779267"><ele>2.0</ele><time>2026-03-22T10:38:42.136Z</time></trkpt><trkpt lat="45.0198" lon="11.6779483"><ele>2.0</ele><time>2026-03-22T10:38:43.137Z</time></trkpt><trkpt lat="45.0198633" lon="11.6779667"><ele>2.0</ele><time>2026-03-22T10:38:44.154Z</time></trkpt><trkpt lat="45.019985" lon="11.6779883"><ele>1.9999999999999998</ele><time>2026-03-22T10:38:46.166Z</time></trkpt><trkpt lat="45.0201067" lon="11.6780167"><ele>2.0</ele><time>2026-03-22T10:38:48.15Z</time></trkpt><trkpt lat="45.0202283" lon="11.67804"><ele>2.1666666666666665</ele><time>2026-03-22T10:38:50.145Z</time></trkpt><trkpt lat="45.0203533" lon="11.67807"><ele>2.333333333333333</ele><time>2026-03-22T10:38:52.138Z</time></trkpt><trkpt lat="45.0204167" lon="11.6780817"><ele>2.5</ele><time>2026-03-22T10:38:53.14Z</time></trkpt><trkpt lat="45.0204817" lon="11.6780917"><ele>2.6666666666666665</ele><time>2026-03-22T10:38:54.175Z</time></trkpt><trkpt lat="45.0205467" lon="11.6780983"><ele>2.8333333333333335</ele><time>2026-03-22T10:38:55.174Z</time></trkpt><trkpt lat="45.02061" lon="11.678105"><ele>3.0</ele><time>2026-03-22T10:38:56.186Z</time></trkpt><trkpt lat="45.02073" lon="11.678115"><ele>3.25</ele><time>2026-03-22T10:38:58.165Z</time></trkpt><trkpt lat="45.02085" lon="11.6781083"><ele>3.5</ele><time>2026-03-22T10:39:00.16Z</time></trkpt><trkpt lat="45.0209617" lon="11.67809"><ele>3.75</ele><time>2026-03-22T10:39:02.176Z</time></trkpt><trkpt lat="45.0210483" lon="11.6779983"><ele>4.0</ele><time>2026-03-22T10:39:04.155Z</time></trkpt><trkpt lat="45.021105" lon="11.6778483"><ele>4.0</ele><time>2026-03-22T10:39:06.164Z</time></trkpt><trkpt lat="45.0211217" lon="11.67776"><ele>3.9999999999999996</ele><time>2026-03-22T10:39:07.144Z</time></trkpt><trkpt lat="45.02113" lon="11.67767"><ele>4.0</ele><time>2026-03-22T10:39:08.161Z</time></trkpt><trkpt lat="45.0211317" lon="11.6775783"><ele>4.0</ele><time>2026-03-22T10:39:09.18Z</time></trkpt><trkpt lat="45.0211317" lon="11.6774867"><ele>3.9999999999999996</ele><time>2026-03-22T10:39:10.162Z</time></trkpt><trkpt lat="45.0211317" lon="11.6773933"><ele>4.0</ele><time>2026-03-22T10:39:11.167Z</time></trkpt><trkpt lat="45.0211333" lon="11.6772983"><ele>4.0</ele><time>2026-03-22T10:39:12.167Z</time></trkpt><trkpt lat="45.0211367" lon="11.6772033"><ele>4.0</ele><time>2026-03-22T10:39:13.166Z</time></trkpt><trkpt lat="45.02114" lon="11.67711"><ele>3.9999999999999996</ele><time>2026-03-22T10:39:14.168Z</time></trkpt><trkpt lat="45.0211433" lon="11.6770167"><ele>4.0</ele><time>2026-03-22T10:39:15.163Z</time></trkpt><trkpt lat="45.0211483" lon="11.676925"><ele>4.0</ele><time>2026-03-22T10:39:16.166Z</time></trkpt><trkpt lat="45.0211567" lon="11.6768333"><ele>3.9999999999999996</ele><time>2026-03-22T10:39:17.168Z</time></trkpt><trkpt lat="45.0211667" lon="11.6767417"><ele>4.0</ele><time>2026-03-22T10:39:18.159Z</time></trkpt><trkpt lat="45.021175" lon="11.67665"><ele>4.0</ele><time>2026-03-22T10:39:19.161Z</time></trkpt><trkpt lat="45.02118" lon="11.6765567"><ele>3.8571428571428568</ele><time>2026-03-22T10:39:20.163Z</time></trkpt><trkpt lat="45.0211867" lon="11.676465"><ele>3.714285714285714</ele><time>2026-03-22T10:39:21.163Z</time></trkpt><trkpt lat="45.02119" lon="11.6763717"><ele>3.571428571428571</ele><time>2026-03-22T10:39:22.163Z</time></trkpt><trkpt lat="45.02119" lon="11.6762767"><ele>3.4285714285714284</ele><time>2026-03-22T10:39:23.157Z</time></trkpt><trkpt lat="45.0211867" lon="11.6761833"><ele>3.2857142857142856</ele><time>2026-03-22T10:39:24.163Z</time></trkpt><trkpt lat="45.0211833" lon="11.6760867"><ele>3.1428571428571423</ele><time>2026-03-22T10:39:25.131Z</time></trkpt><trkpt lat="45.0211817" lon="11.6759883"><ele>3.0</ele><time>2026-03-22T10:39:26.156Z</time></trkpt><trkpt lat="45.0211817" lon="11.6758917"><ele>3.2857142857142856</ele><time>2026-03-22T10:39:27.165Z</time></trkpt><trkpt lat="45.02118" lon="11.6757933"><ele>3.571428571428571</ele><time>2026-03-22T10:39:28.163Z</time></trkpt><trkpt lat="45.0211817" lon="11.6756933"><ele>3.8571428571428568</ele><time>2026-03-22T10:39:29.166Z</time></trkpt><trkpt lat="45.0211817" lon="11.675595"><ele>4.142857142857142</ele><time>2026-03-22T10:39:30.172Z</time></trkpt><trkpt lat="45.02118" lon="11.6754967"><ele>4.428571428571429</ele><time>2026-03-22T10:39:31.164Z</time></trkpt><trkpt lat="45.02118" lon="11.6754"><ele>4.714285714285714</ele><time>2026-03-22T10:39:32.165Z</time></trkpt><trkpt lat="45.0211783" lon="11.6753"><ele>5.0</ele><time>2026-03-22T10:39:33.168Z</time></trkpt><trkpt lat="45.0211767" lon="11.6751983"><ele>5.142857142857142</ele><time>2026-03-22T10:39:34.15Z</time></trkpt><trkpt lat="45.021175" lon="11.675095"><ele>5.285714285714286</ele><time>2026-03-22T10:39:35.146Z</time></trkpt><trkpt lat="45.021175" lon="11.6749933"><ele>5.428571428571429</ele><time>2026-03-22T10:39:36.152Z</time></trkpt><trkpt lat="45.0211717" lon="11.67489"><ele>5.571428571428571</ele><time>2026-03-22T10:39:37.156Z</time></trkpt><trkpt lat="45.02117" lon="11.674785"><ele>5.714285714285714</ele><time>2026-03-22T10:39:38.167Z</time></trkpt><trkpt lat="45.02117" lon="11.6746883"><ele>5.857142857142857</ele><time>2026-03-22T10:39:39.148Z</time></trkpt><trkpt lat="45.02117" lon="11.6745917"><ele>6.0</ele><time>2026-03-22T10:39:40.17Z</time></trkpt><trkpt lat="45.0211733" lon="11.6744883"><ele>5.857142857142857</ele><time>2026-03-22T10:39:41.152Z</time></trkpt><trkpt lat="45.0211767" lon="11.6743833"><ele>5.714285714285714</ele><time>2026-03-22T10:39:42.159Z</time></trkpt><trkpt lat="45.0211817" lon="11.674275"><ele>5.571428571428571</ele><time>2026-03-22T10:39:43.17Z</time></trkpt><trkpt lat="45.021185" lon="11.6741683"><ele>5.428571428571429</ele><time>2026-03-22T10:39:44.175Z</time></trkpt><trkpt lat="45.0211833" lon="11.6740617"><ele>5.285714285714286</ele><time>2026-03-22T10:39:45.163Z</time></trkpt><trkpt lat="45.02118" lon="11.6739567"><ele>5.142857142857142</ele><time>2026-03-22T10:39:46.155Z</time></trkpt><trkpt lat="45.0211783" lon="11.6738533"><ele>5.0</ele><time>2026-03-22T10:39:47.167Z</time></trkpt><trkpt lat="45.02118" lon="11.6737533"><ele>5.0</ele><time>2026-03-22T10:39:48.162Z</time></trkpt><trkpt lat="45.02118" lon="11.6736517"><ele>5.0</ele><time>2026-03-22T10:39:49.164Z</time></trkpt><trkpt lat="45.0211783" lon="11.67355"><ele>5.0</ele><time>2026-03-22T10:39:50.163Z</time></trkpt><trkpt lat="45.0211783" lon="11.6734467"><ele>5.0</ele><time>2026-03-22T10:39:51.138Z</time></trkpt><trkpt lat="45.0211783" lon="11.6733417"><ele>5.0</ele><time>2026-03-22T10:39:52.16Z</time></trkpt><trkpt lat="45.0211767" lon="11.673235"><ele>5.0</ele><time>2026-03-22T10:39:53.162Z</time></trkpt><trkpt lat="45.0211767" lon="11.6731283"><ele>5.0</ele><time>2026-03-22T10:39:54.162Z</time></trkpt><trkpt lat="45.021175" lon="11.6730217"><ele>4.833333333333334</ele><time>2026-03-22T10:39:55.171Z</time></trkpt><trkpt lat="45.0211733" lon="11.672915"><ele>4.666666666666667</ele><time>2026-03-22T10:39:56.161Z</time></trkpt><trkpt lat="45.0211717" lon="11.6728083"><ele>4.5</ele><time>2026-03-22T10:39:57.153Z</time></trkpt><trkpt lat="45.0211683" lon="11.6727017"><ele>4.333333333333333</ele><time>2026-03-22T10:39:58.157Z</time></trkpt><trkpt lat="45.0211667" lon="11.672595"><ele>4.166666666666666</ele><time>2026-03-22T10:39:59.165Z</time></trkpt><trkpt lat="45.0211633" lon="11.67249"><ele>4.0</ele><time>2026-03-22T10:40:00.168Z</time></trkpt><trkpt lat="45.0211617" lon="11.6723833"><ele>3.8571428571428568</ele><time>2026-03-22T10:40:01.168Z</time></trkpt><trkpt lat="45.02116" lon="11.6722783"><ele>3.714285714285714</ele><time>2026-03-22T10:40:02.154Z</time></trkpt><trkpt lat="45.0211617" lon="11.6721733"><ele>3.571428571428571</ele><time>2026-03-22T10:40:03.164Z</time></trkpt><trkpt lat="45.0211617" lon="11.6720683"><ele>3.4285714285714284</ele><time>2026-03-22T10:40:04.17Z</time></trkpt><trkpt lat="45.0211633" lon="11.67196"><ele>3.2857142857142856</ele><time>2026-03-22T10:40:05.164Z</time></trkpt><trkpt lat="45.02116" lon="11.671855"><ele>3.1428571428571423</ele><time>2026-03-22T10:40:06.157Z</time></trkpt><trkpt lat="45.02116" lon="11.67175"><ele>3.0</ele><time>2026-03-22T10:40:07.162Z</time></trkpt><trkpt lat="45.02116" lon="11.671645"><ele>2.9999999999999996</ele><time>2026-03-22T10:40:08.165Z</time></trkpt><trkpt lat="45.0211583" lon="11.67154"><ele>3.0</ele><time>2026-03-22T10:40:09.168Z</time></trkpt><trkpt lat="45.0211567" lon="11.6714333"><ele>3.0</ele><time>2026-03-22T10:40:10.167Z</time></trkpt><trkpt lat="45.021155" lon="11.6713267"><ele>3.0</ele><time>2026-03-22T10:40:11.148Z</time></trkpt><trkpt lat="45.021155" lon="11.67122"><ele>3.0</ele><time>2026-03-22T10:40:12.158Z</time></trkpt><trkpt lat="45.021155" lon="11.671115"><ele>2.9999999999999996</ele><time>2026-03-22T10:40:13.16Z</time></trkpt><trkpt lat="45.021155" lon="11.67101"><ele>3.0</ele><time>2026-03-22T10:40:14.163Z</time></trkpt><trkpt lat="45.0211533" lon="11.6709033"><ele>2.9999999999999996</ele><time>2026-03-22T10:40:15.167Z</time></trkpt><trkpt lat="45.02115" lon="11.6707967"><ele>3.0</ele><time>2026-03-22T10:40:16.166Z</time></trkpt><trkpt lat="45.02115" lon="11.6706917"><ele>3.0</ele><time>2026-03-22T10:40:17.166Z</time></trkpt><trkpt lat="45.02115" lon="11.6705867"><ele>3.0</ele><time>2026-03-22T10:40:18.14Z</time></trkpt><trkpt lat="45.02115" lon="11.6704833"><ele>3.0</ele><time>2026-03-22T10:40:19.155Z</time></trkpt><trkpt lat="45.0211483" lon="11.67038"><ele>2.9999999999999996</ele><time>2026-03-22T10:40:20.166Z</time></trkpt><trkpt lat="45.0211467" lon="11.6702767"><ele>3.0</ele><time>2026-03-22T10:40:21.162Z</time></trkpt><trkpt lat="45.0211483" lon="11.6701733"><ele>2.9999999999999996</ele><time>2026-03-22T10:40:22.163Z</time></trkpt><trkpt lat="45.0211517" lon="11.67007"><ele>3.0</ele><time>2026-03-22T10:40:23.162Z</time></trkpt><trkpt lat="45.021155" lon="11.669965"><ele>3.0</ele><time>2026-03-22T10:40:24.172Z</time></trkpt><trkpt lat="45.021155" lon="11.66986"><ele>3.0</ele><time>2026-03-22T10:40:25.167Z</time></trkpt><trkpt lat="45.021155" lon="11.6697567"><ele>3.0</ele><time>2026-03-22T10:40:26.151Z</time></trkpt><trkpt lat="45.0211533" lon="11.6696533"><ele>2.9999999999999996</ele><time>2026-03-22T10:40:27.153Z</time></trkpt><trkpt lat="45.0211533" lon="11.6695483"><ele>3.0</ele><time>2026-03-22T10:40:28.146Z</time></trkpt><trkpt lat="45.02115" lon="11.669445"><ele>3.1428571428571423</ele><time>2026-03-22T10:40:29.161Z</time></trkpt><trkpt lat="45.0211467" lon="11.6693433"><ele>3.2857142857142856</ele><time>2026-03-22T10:40:30.167Z</time></trkpt><trkpt lat="45.021145" lon="11.669245"><ele>3.4285714285714284</ele><time>2026-03-22T10:40:31.168Z</time></trkpt><trkpt lat="45.0211433" lon="11.6691433"><ele>3.571428571428571</ele><time>2026-03-22T10:40:32.169Z</time></trkpt><trkpt lat="45.0211417" lon="11.6690383"><ele>3.714285714285714</ele><time>2026-03-22T10:40:33.166Z</time></trkpt><trkpt lat="45.02114" lon="11.6689333"><ele>3.8571428571428568</ele><time>2026-03-22T10:40:34.132Z</time></trkpt><trkpt lat="45.021135" lon="11.6688267"><ele>4.0</ele><time>2026-03-22T10:40:35.16Z</time></trkpt><trkpt lat="45.021135" lon="11.6687167"><ele>3.833333333333333</ele><time>2026-03-22T10:40:36.165Z</time></trkpt><trkpt lat="45.0211333" lon="11.6686067"><ele>3.6666666666666665</ele><time>2026-03-22T10:40:37.16Z</time></trkpt><trkpt lat="45.021135" lon="11.6684967"><ele>3.5</ele><time>2026-03-22T10:40:38.163Z</time></trkpt><trkpt lat="45.021135" lon="11.668385"><ele>3.333333333333333</ele><time>2026-03-22T10:40:39.168Z</time></trkpt><trkpt lat="45.0211317" lon="11.6682767"><ele>3.1666666666666665</ele><time>2026-03-22T10:40:40.166Z</time></trkpt><trkpt lat="45.0211317" lon="11.66817"><ele>3.0</ele><time>2026-03-22T10:40:41.17Z</time></trkpt><trkpt lat="45.0211317" lon="11.668065"><ele>2.9999999999999996</ele><time>2026-03-22T10:40:42.169Z</time></trkpt><trkpt lat="45.0211317" lon="11.667965"><ele>3.0</ele><time>2026-03-22T10:40:43.168Z</time></trkpt><trkpt lat="45.0211317" lon="11.6678667"><ele>3.0</ele><time>2026-03-22T10:40:44.171Z</time></trkpt><trkpt lat="45.02113" lon="11.667765"><ele>3.0</ele><time>2026-03-22T10:40:45.169Z</time></trkpt><trkpt lat="45.0211233" lon="11.667665"><ele>3.0</ele><time>2026-03-22T10:40:46.169Z</time></trkpt><trkpt lat="45.0211167" lon="11.6675633"><ele>2.9999999999999996</ele><time>2026-03-22T10:40:47.162Z</time></trkpt><trkpt lat="45.0211133" lon="11.6674583"><ele>3.0</ele><time>2026-03-22T10:40:48.165Z</time></trkpt><trkpt lat="45.0211117" lon="11.6673533"><ele>2.9999999999999996</ele><time>2026-03-22T10:40:49.155Z</time></trkpt><trkpt lat="45.02111" lon="11.6672467"><ele>3.0</ele><time>2026-03-22T10:40:50.132Z</time></trkpt><trkpt lat="45.0211083" lon="11.6671367"><ele>3.0</ele><time>2026-03-22T10:40:51.156Z</time></trkpt><trkpt lat="45.0211067" lon="11.66703"><ele>3.0</ele><time>2026-03-22T10:40:52.142Z</time></trkpt><trkpt lat="45.0211067" lon="11.66693"><ele>3.0</ele><time>2026-03-22T10:40:53.156Z</time></trkpt><trkpt lat="45.0211083" lon="11.6668317"><ele>2.9999999999999996</ele><time>2026-03-22T10:40:54.165Z</time></trkpt><trkpt lat="45.0211083" lon="11.6667317"><ele>3.0</ele><time>2026-03-22T10:40:55.158Z</time></trkpt><trkpt lat="45.02111" lon="11.6666267"><ele>2.9999999999999996</ele><time>2026-03-22T10:40:56.165Z</time></trkpt><trkpt lat="45.0211083" lon="11.6665217"><ele>3.0</ele><time>2026-03-22T10:40:57.163Z</time></trkpt><trkpt lat="45.0211067" lon="11.666415"><ele>3.0</ele><time>2026-03-22T10:40:58.164Z</time></trkpt><trkpt lat="45.0211067" lon="11.6663067"><ele>3.0</ele><time>2026-03-22T10:40:59.168Z</time></trkpt><trkpt lat="45.021105" lon="11.6662017"><ele>3.0</ele><time>2026-03-22T10:41:00.165Z</time></trkpt><trkpt lat="45.0211033" lon="11.6660983"><ele>2.9999999999999996</ele><time>2026-03-22T10:41:01.135Z</time></trkpt><trkpt lat="45.0211" lon="11.6659967"><ele>3.0</ele><time>2026-03-22T10:41:02.163Z</time></trkpt><trkpt lat="45.0211" lon="11.6658967"><ele>2.8571428571428568</ele><time>2026-03-22T10:41:03.169Z</time></trkpt><trkpt lat="45.0210983" lon="11.665795"><ele>2.7142857142857144</ele><time>2026-03-22T10:41:04.166Z</time></trkpt><trkpt lat="45.0211" lon="11.6656917"><ele>2.571428571428571</ele><time>2026-03-22T10:41:05.164Z</time></trkpt><trkpt lat="45.0211" lon="11.66559"><ele>2.4285714285714284</ele><time>2026-03-22T10:41:06.14Z</time></trkpt><trkpt lat="45.0211" lon="11.665485"><ele>2.2857142857142856</ele><time>2026-03-22T10:41:07.158Z</time></trkpt><trkpt lat="45.0211" lon="11.66538"><ele>2.142857142857143</ele><time>2026-03-22T10:41:08.166Z</time></trkpt><trkpt lat="45.0210983" lon="11.6652767"><ele>2.0</ele><time>2026-03-22T10:41:09.166Z</time></trkpt><trkpt lat="45.0210967" lon="11.6651717"><ele>1.857142857142857</ele><time>2026-03-22T10:41:10.169Z</time></trkpt><trkpt lat="45.021095" lon="11.6650683"><ele>1.714285714285714</ele><time>2026-03-22T10:41:11.168Z</time></trkpt><trkpt lat="45.021095" lon="11.6649667"><ele>1.5714285714285714</ele><time>2026-03-22T10:41:12.168Z</time></trkpt><trkpt lat="45.0210933" lon="11.6648633"><ele>1.4285714285714284</ele><time>2026-03-22T10:41:13.167Z</time></trkpt><trkpt lat="45.021095" lon="11.6647617"><ele>1.2857142857142856</ele><time>2026-03-22T10:41:14.172Z</time></trkpt><trkpt lat="45.0210933" lon="11.6646583"><ele>1.1428571428571428</ele><time>2026-03-22T10:41:15.164Z</time></trkpt><trkpt lat="45.0210917" lon="11.6645533"><ele>1.0</ele><time>2026-03-22T10:41:16.169Z</time></trkpt><trkpt lat="45.0210917" lon="11.6644483"><ele>1.1428571428571428</ele><time>2026-03-22T10:41:17.157Z</time></trkpt><trkpt lat="45.0210917" lon="11.664345"><ele>1.2857142857142856</ele><time>2026-03-22T10:41:18.159Z</time></trkpt><trkpt lat="45.0210917" lon="11.6642467"><ele>1.4285714285714284</ele><time>2026-03-22T10:41:19.169Z</time></trkpt><trkpt lat="45.0210867" lon="11.6641533"><ele>1.5714285714285714</ele><time>2026-03-22T10:41:20.166Z</time></trkpt><trkpt lat="45.0210833" lon="11.66406"><ele>1.714285714285714</ele><time>2026-03-22T10:41:21.175Z</time></trkpt><trkpt lat="45.02108" lon="11.6639667"><ele>1.857142857142857</ele><time>2026-03-22T10:41:22.156Z</time></trkpt><trkpt lat="45.0210783" lon="11.6638717"><ele>2.0</ele><time>2026-03-22T10:41:23.159Z</time></trkpt><trkpt lat="45.0210783" lon="11.6637767"><ele>2.0</ele><time>2026-03-22T10:41:24.17Z</time></trkpt><trkpt lat="45.0210767" lon="11.6636783"><ele>1.9999999999999998</ele><time>2026-03-22T10:41:25.164Z</time></trkpt><trkpt lat="45.0210783" lon="11.6635833"><ele>2.0</ele><time>2026-03-22T10:41:26.16Z</time></trkpt><trkpt lat="45.0210783" lon="11.6634867"><ele>2.0</ele><time>2026-03-22T10:41:27.15Z</time></trkpt><trkpt lat="45.0210783" lon="11.6633883"><ele>1.9999999999999998</ele><time>2026-03-22T10:41:28.143Z</time></trkpt><trkpt lat="45.0210767" lon="11.6632917"><ele>2.0</ele><time>2026-03-22T10:41:29.146Z</time></trkpt><trkpt lat="45.0210767" lon="11.663195"><ele>2.0</ele><time>2026-03-22T10:41:30.154Z</time></trkpt><trkpt lat="45.0210783" lon="11.6630967"><ele>2.2857142857142856</ele><time>2026-03-22T10:41:31.17Z</time></trkpt><trkpt lat="45.0210783" lon="11.6629967"><ele>2.571428571428571</ele><time>2026-03-22T10:41:32.134Z</time></trkpt><trkpt lat="45.0210783" lon="11.6629"><ele>2.8571428571428568</ele><time>2026-03-22T10:41:33.167Z</time></trkpt><trkpt lat="45.0210767" lon="11.6628067"><ele>3.142857142857143</ele><time>2026-03-22T10:41:34.166Z</time></trkpt><trkpt lat="45.0210767" lon="11.6627117"><ele>3.428571428571428</ele><time>2026-03-22T10:41:35.165Z</time></trkpt><trkpt lat="45.0210767" lon="11.6626167"><ele>3.714285714285714</ele><time>2026-03-22T10:41:36.167Z</time></trkpt><trkpt lat="45.021075" lon="11.6625183"><ele>4.0</ele><time>2026-03-22T10:41:37.164Z</time></trkpt><trkpt lat="45.021075" lon="11.6624217"><ele>4.0</ele><time>2026-03-22T10:41:38.165Z</time></trkpt><trkpt lat="45.0210733" lon="11.6623267"><ele>4.0</ele><time>2026-03-22T10:41:39.16Z</time></trkpt><trkpt lat="45.0210717" lon="11.6621533"><ele>4.0</ele><time>2026-03-22T10:41:41.166Z</time></trkpt><trkpt lat="45.0210733" lon="11.6619867"><ele>4.0</ele><time>2026-03-22T10:41:43.133Z</time></trkpt><trkpt lat="45.0210783" lon="11.6618117"><ele>4.0</ele><time>2026-03-22T10:41:45.165Z</time></trkpt><trkpt lat="45.02108" lon="11.6617217"><ele>4.0</ele><time>2026-03-22T10:41:46.174Z</time></trkpt><trkpt lat="45.02108" lon="11.6616317"><ele>3.9999999999999996</ele><time>2026-03-22T10:41:47.156Z</time></trkpt><trkpt lat="45.02108" lon="11.6615367"><ele>4.0</ele><time>2026-03-22T10:41:48.166Z</time></trkpt><trkpt lat="45.02108" lon="11.66144"><ele>4.0</ele><time>2026-03-22T10:41:49.169Z</time></trkpt><trkpt lat="45.0210783" lon="11.6613417"><ele>3.9999999999999996</ele><time>2026-03-22T10:41:50.168Z</time></trkpt><trkpt lat="45.0210767" lon="11.6612417"><ele>4.0</ele><time>2026-03-22T10:41:51.158Z</time></trkpt><trkpt lat="45.0210767" lon="11.6611383"><ele>4.0</ele><time>2026-03-22T10:41:52.167Z</time></trkpt><trkpt lat="45.021075" lon="11.6610383"><ele>4.142857142857142</ele><time>2026-03-22T10:41:53.141Z</time></trkpt><trkpt lat="45.021075" lon="11.6609383"><ele>4.285714285714286</ele><time>2026-03-22T10:41:54.133Z</time></trkpt><trkpt lat="45.021075" lon="11.6608367"><ele>4.428571428571429</ele><time>2026-03-22T10:41:55.165Z</time></trkpt><trkpt lat="45.021075" lon="11.6607367"><ele>4.571428571428571</ele><time>2026-03-22T10:41:56.169Z</time></trkpt><trkpt lat="45.021075" lon="11.660635"><ele>4.714285714285714</ele><time>2026-03-22T10:41:57.169Z</time></trkpt><trkpt lat="45.0210733" lon="11.6605317"><ele>4.857142857142857</ele><time>2026-03-22T10:41:58.166Z</time></trkpt><trkpt lat="45.0210717" lon="11.66043"><ele>5.0</ele><time>2026-03-22T10:41:59.167Z</time></trkpt><trkpt lat="45.02107" lon="11.660325"><ele>4.857142857142857</ele><time>2026-03-22T10:42:00.167Z</time></trkpt><trkpt lat="45.0210717" lon="11.66022"><ele>4.714285714285714</ele><time>2026-03-22T10:42:01.222Z</time></trkpt><trkpt lat="45.02107" lon="11.660115"><ele>4.571428571428571</ele><time>2026-03-22T10:42:02.168Z</time></trkpt><trkpt lat="45.02107" lon="11.6600117"><ele>4.428571428571429</ele><time>2026-03-22T10:42:03.165Z</time></trkpt><trkpt lat="45.02107" lon="11.6599067"><ele>4.285714285714286</ele><time>2026-03-22T10:42:04.155Z</time></trkpt><trkpt lat="45.0210683" lon="11.6598033"><ele>4.142857142857142</ele><time>2026-03-22T10:42:05.163Z</time></trkpt><trkpt lat="45.0210667" lon="11.6597"><ele>4.0</ele><time>2026-03-22T10:42:06.168Z</time></trkpt><trkpt lat="45.0210667" lon="11.6595967"><ele>4.0</ele><time>2026-03-22T10:42:07.169Z</time></trkpt><trkpt lat="45.0210667" lon="11.6594933"><ele>3.9999999999999996</ele><time>2026-03-22T10:42:08.143Z</time></trkpt><trkpt lat="45.021065" lon="11.6593917"><ele>4.0</ele><time>2026-03-22T10:42:09.156Z</time></trkpt><trkpt lat="45.0210633" lon="11.6592883"><ele>4.0</ele><time>2026-03-22T10:42:10.135Z</time></trkpt><trkpt lat="45.0210617" lon="11.6591833"><ele>3.9999999999999996</ele><time>2026-03-22T10:42:11.168Z</time></trkpt><trkpt lat="45.0210583" lon="11.6590783"><ele>4.0</ele><time>2026-03-22T10:42:12.169Z</time></trkpt><trkpt lat="45.021055" lon="11.6589717"><ele>4.0</ele><time>2026-03-22T10:42:13.161Z</time></trkpt><trkpt lat="45.0210517" lon="11.6588667"><ele>4.0</ele><time>2026-03-22T10:42:14.155Z</time></trkpt><trkpt lat="45.0210483" lon="11.6587617"><ele>3.9999999999999996</ele><time>2026-03-22T10:42:15.14Z</time></trkpt><trkpt lat="45.0210433" lon="11.6586567"><ele>4.0</ele><time>2026-03-22T10:42:16.167Z</time></trkpt><trkpt lat="45.0210383" lon="11.65855"><ele>4.0</ele><time>2026-03-22T10:42:17.167Z</time></trkpt><trkpt lat="45.02103" lon="11.6584467"><ele>3.9999999999999996</ele><time>2026-03-22T10:42:18.137Z</time></trkpt><trkpt lat="45.0210233" lon="11.6583467"><ele>4.0</ele><time>2026-03-22T10:42:19.157Z</time></trkpt><trkpt lat="45.0210183" lon="11.6582467"><ele>4.0</ele><time>2026-03-22T10:42:20.166Z</time></trkpt><trkpt lat="45.0210167" lon="11.6581417"><ele>4.0</ele><time>2026-03-22T10:42:21.167Z</time></trkpt><trkpt lat="45.0210183" lon="11.6580367"><ele>3.9999999999999996</ele><time>2026-03-22T10:42:22.163Z</time></trkpt><trkpt lat="45.021025" lon="11.6579317"><ele>4.0</ele><time>2026-03-22T10:42:23.166Z</time></trkpt><trkpt lat="45.0210333" lon="11.65783"><ele>4.0</ele><time>2026-03-22T10:42:24.151Z</time></trkpt><trkpt lat="45.02104" lon="11.65773"><ele>3.9999999999999996</ele><time>2026-03-22T10:42:25.161Z</time></trkpt><trkpt lat="45.02104" lon="11.6576283"><ele>4.0</ele><time>2026-03-22T10:42:26.168Z</time></trkpt><trkpt lat="45.0210383" lon="11.657525"><ele>4.0</ele><time>2026-03-22T10:42:27.167Z</time></trkpt><trkpt lat="45.0210367" lon="11.6574217"><ele>4.0</ele><time>2026-03-22T10:42:28.135Z</time></trkpt><trkpt lat="45.021035" lon="11.65732"><ele>3.9999999999999996</ele><time>2026-03-22T10:42:29.163Z</time></trkpt><trkpt lat="45.0210333" lon="11.6572183"><ele>4.0</ele><time>2026-03-22T10:42:30.165Z</time></trkpt><trkpt lat="45.021035" lon="11.6571167"><ele>4.0</ele><time>2026-03-22T10:42:31.164Z</time></trkpt><trkpt lat="45.0210383" lon="11.6570167"><ele>3.9999999999999996</ele><time>2026-03-22T10:42:32.154Z</time></trkpt><trkpt lat="45.02104" lon="11.6569167"><ele>4.0</ele><time>2026-03-22T10:42:33.168Z</time></trkpt><trkpt lat="45.0210433" lon="11.6568133"><ele>4.0</ele><time>2026-03-22T10:42:34.165Z</time></trkpt><trkpt lat="45.021045" lon="11.6567133"><ele>4.142857142857142</ele><time>2026-03-22T10:42:35.165Z</time></trkpt><trkpt lat="45.021045" lon="11.6566117"><ele>4.285714285714286</ele><time>2026-03-22T10:42:36.163Z</time></trkpt><trkpt lat="45.0210433" lon="11.6565117"><ele>4.428571428571429</ele><time>2026-03-22T10:42:37.168Z</time></trkpt><trkpt lat="45.0210433" lon="11.65641"><ele>4.571428571428571</ele><time>2026-03-22T10:42:38.167Z</time></trkpt><trkpt lat="45.0210433" lon="11.6563083"><ele>4.714285714285714</ele><time>2026-03-22T10:42:39.165Z</time></trkpt><trkpt lat="45.0210367" lon="11.6562033"><ele>4.857142857142857</ele><time>2026-03-22T10:42:40.167Z</time></trkpt><trkpt lat="45.021025" lon="11.6560983"><ele>5.0</ele><time>2026-03-22T10:42:41.147Z</time></trkpt><trkpt lat="45.0210067" lon="11.6559967"><ele>5.0</ele><time>2026-03-22T10:42:42.157Z</time></trkpt><trkpt lat="45.0209833" lon="11.6558983"><ele>5.0</ele><time>2026-03-22T10:42:43.166Z</time></trkpt><trkpt lat="45.02096" lon="11.6557983"><ele>5.0</ele><time>2026-03-22T10:42:44.168Z</time></trkpt><trkpt lat="45.02094" lon="11.6557017"><ele>5.0</ele><time>2026-03-22T10:42:45.168Z</time></trkpt><trkpt lat="45.0209233" lon="11.6556083"><ele>5.0</ele><time>2026-03-22T10:42:46.168Z</time></trkpt><trkpt lat="45.0209133" lon="11.6555183"><ele>5.0</ele><time>2026-03-22T10:42:47.165Z</time></trkpt><trkpt lat="45.02091" lon="11.6554267"><ele>5.0</ele><time>2026-03-22T10:42:48.161Z</time></trkpt><trkpt lat="45.020905" lon="11.6552533"><ele>5.0</ele><time>2026-03-22T10:42:50.17Z</time></trkpt><trkpt lat="45.0209017" lon="11.655085"><ele>5.0</ele><time>2026-03-22T10:42:52.161Z</time></trkpt><trkpt lat="45.0208983" lon="11.6549267"><ele>5.0</ele><time>2026-03-22T10:42:54.168Z</time></trkpt><trkpt lat="45.0209" lon="11.6547733"><ele>5.0</ele><time>2026-03-22T10:42:56.168Z</time></trkpt><trkpt lat="45.0209" lon="11.6546233"><ele>5.0</ele><time>2026-03-22T10:42:58.153Z</time></trkpt><trkpt lat="45.0208983" lon="11.65446"><ele>5.0</ele><time>2026-03-22T10:43:00.158Z</time></trkpt><trkpt lat="45.0209" lon="11.65429"><ele>5.0</ele><time>2026-03-22T10:43:02.169Z</time></trkpt><trkpt lat="45.0208983" lon="11.6541167"><ele>5.0</ele><time>2026-03-22T10:43:04.156Z</time></trkpt><trkpt lat="45.020895" lon="11.6539483"><ele>5.0</ele><time>2026-03-22T10:43:06.163Z</time></trkpt><trkpt lat="45.0208933" lon="11.6537733"><ele>5.0</ele><time>2026-03-22T10:43:08.163Z</time></trkpt><trkpt lat="45.0208933" lon="11.6536833"><ele>5.0</ele><time>2026-03-22T10:43:09.159Z</time></trkpt><trkpt lat="45.0208933" lon="11.6535933"><ele>5.0</ele><time>2026-03-22T10:43:10.169Z</time></trkpt><trkpt lat="45.02089" lon="11.653425"><ele>5.0</ele><time>2026-03-22T10:43:12.161Z</time></trkpt><trkpt lat="45.020885" lon="11.6532617"><ele>5.0</ele><time>2026-03-22T10:43:14.16Z</time></trkpt><trkpt lat="45.020885" lon="11.65311"><ele>5.0</ele><time>2026-03-22T10:43:16.162Z</time></trkpt><trkpt lat="45.0208833" lon="11.65296"><ele>5.0</ele><time>2026-03-22T10:43:18.166Z</time></trkpt><trkpt lat="45.0208867" lon="11.65282"><ele>5.0</ele><time>2026-03-22T10:43:20.163Z</time></trkpt><trkpt lat="45.0208867" lon="11.652685"><ele>5.0</ele><time>2026-03-22T10:43:22.166Z</time></trkpt><trkpt lat="45.0208833" lon="11.6525467"><ele>5.0</ele><time>2026-03-22T10:43:24.164Z</time></trkpt><trkpt lat="45.02088" lon="11.6524133"><ele>5.0</ele><time>2026-03-22T10:43:26.174Z</time></trkpt><trkpt lat="45.0208817" lon="11.6522783"><ele>5.0</ele><time>2026-03-22T10:43:28.14Z</time></trkpt><trkpt lat="45.020885" lon="11.65215"><ele>5.0</ele><time>2026-03-22T10:43:30.151Z</time></trkpt><trkpt lat="45.02093" lon="11.6520533"><ele>5.0</ele><time>2026-03-22T10:43:32.131Z</time></trkpt><trkpt lat="45.0210233" lon="11.6520317"><ele>5.0</ele><time>2026-03-22T10:43:34.139Z</time></trkpt><trkpt lat="45.0211183" lon="11.6520317"><ele>5.0</ele><time>2026-03-22T10:43:36.14Z</time></trkpt><trkpt lat="45.021205" lon="11.6520067"><ele>5.0</ele><time>2026-03-22T10:43:38.133Z</time></trkpt><trkpt lat="45.0213" lon="11.652015"><ele>5.0</ele><time>2026-03-22T10:43:40.143Z</time></trkpt><trkpt lat="45.0213533" lon="11.6519483"><ele>5.0</ele><time>2026-03-22T10:43:42.142Z</time></trkpt><trkpt lat="45.0213683" lon="11.6518233"><ele>5.0</ele><time>2026-03-22T10:43:44.152Z</time></trkpt><trkpt lat="45.02136" lon="11.65168"><ele>5.0</ele><time>2026-03-22T10:43:46.142Z</time></trkpt><trkpt lat="45.021355" lon="11.651525"><ele>5.0</ele><time>2026-03-22T10:43:48.146Z</time></trkpt><trkpt lat="45.0213533" lon="11.6513517"><ele>5.0</ele><time>2026-03-22T10:43:50.154Z</time></trkpt><trkpt lat="45.02135" lon="11.6512617"><ele>5.0</ele><time>2026-03-22T10:43:51.157Z</time></trkpt><trkpt lat="45.02135" lon="11.6511683"><ele>5.0</ele><time>2026-03-22T10:43:52.144Z</time></trkpt><trkpt lat="45.0213483" lon="11.651075"><ele>5.0</ele><time>2026-03-22T10:43:53.135Z</time></trkpt><trkpt lat="45.0213433" lon="11.6509817"><ele>5.0</ele><time>2026-03-22T10:43:54.143Z</time></trkpt><trkpt lat="45.0213367" lon="11.6508883"><ele>4.857142857142857</ele><time>2026-03-22T10:43:55.154Z</time></trkpt><trkpt lat="45.0213333" lon="11.650795"><ele>4.714285714285714</ele><time>2026-03-22T10:43:56.142Z</time></trkpt><trkpt lat="45.0213317" lon="11.6506983"><ele>4.571428571428571</ele><time>2026-03-22T10:43:57.165Z</time></trkpt><trkpt lat="45.02133" lon="11.6506033"><ele>4.428571428571429</ele><time>2026-03-22T10:43:58.165Z</time></trkpt><trkpt lat="45.0213283" lon="11.6505083"><ele>4.285714285714286</ele><time>2026-03-22T10:43:59.142Z</time></trkpt><trkpt lat="45.0213267" lon="11.6504133"><ele>4.142857142857142</ele><time>2026-03-22T10:44:00.159Z</time></trkpt><trkpt lat="45.0213267" lon="11.6503167"><ele>4.0</ele><time>2026-03-22T10:44:01.172Z</time></trkpt><trkpt lat="45.021325" lon="11.65022"><ele>4.0</ele><time>2026-03-22T10:44:02.163Z</time></trkpt><trkpt lat="45.0213233" lon="11.6501217"><ele>3.9999999999999996</ele><time>2026-03-22T10:44:03.163Z</time></trkpt><trkpt lat="45.0213217" lon="11.650025"><ele>4.0</ele><time>2026-03-22T10:44:04.164Z</time></trkpt><trkpt lat="45.0213183" lon="11.6499267"><ele>4.0</ele><time>2026-03-22T10:44:05.135Z</time></trkpt><trkpt lat="45.0213217" lon="11.64983"><ele>3.9999999999999996</ele><time>2026-03-22T10:44:06.162Z</time></trkpt><trkpt lat="45.02132" lon="11.6497367"><ele>4.0</ele><time>2026-03-22T10:44:07.152Z</time></trkpt><trkpt lat="45.0213167" lon="11.6496467"><ele>4.0</ele><time>2026-03-22T10:44:08.164Z</time></trkpt><trkpt lat="45.0213117" lon="11.6494783"><ele>4.142857142857142</ele><time>2026-03-22T10:44:10.167Z</time></trkpt><trkpt lat="45.0213133" lon="11.6493883"><ele>4.285714285714286</ele><time>2026-03-22T10:44:11.17Z</time></trkpt><trkpt lat="45.0213117" lon="11.649295"><ele>4.428571428571429</ele><time>2026-03-22T10:44:12.172Z</time></trkpt><trkpt lat="45.02131" lon="11.6491983"><ele>4.571428571428571</ele><time>2026-03-22T10:44:13.161Z</time></trkpt><trkpt lat="45.0213083" lon="11.6491"><ele>4.714285714285714</ele><time>2026-03-22T10:44:14.166Z</time></trkpt><trkpt lat="45.0213083" lon="11.649"><ele>4.857142857142857</ele><time>2026-03-22T10:44:15.158Z</time></trkpt><trkpt lat="45.0213083" lon="11.6489"><ele>5.0</ele><time>2026-03-22T10:44:16.163Z</time></trkpt><trkpt lat="45.02131" lon="11.6488"><ele>5.0</ele><time>2026-03-22T10:44:17.17Z</time></trkpt><trkpt lat="45.0213083" lon="11.6486983"><ele>5.0</ele><time>2026-03-22T10:44:18.144Z</time></trkpt><trkpt lat="45.021305" lon="11.6485983"><ele>5.0</ele><time>2026-03-22T10:44:19.164Z</time></trkpt><trkpt lat="45.0213067" lon="11.6484983"><ele>5.0</ele><time>2026-03-22T10:44:20.163Z</time></trkpt><trkpt lat="45.0213017" lon="11.6484"><ele>5.0</ele><time>2026-03-22T10:44:21.17Z</time></trkpt><trkpt lat="45.0213" lon="11.6483"><ele>5.0</ele><time>2026-03-22T10:44:22.164Z</time></trkpt><trkpt lat="45.0212983" lon="11.6482"><ele>5.0</ele><time>2026-03-22T10:44:23.168Z</time></trkpt><trkpt lat="45.021295" lon="11.6481"><ele>4.857142857142857</ele><time>2026-03-22T10:44:24.165Z</time></trkpt><trkpt lat="45.0212933" lon="11.6480017"><ele>4.714285714285714</ele><time>2026-03-22T10:44:25.169Z</time></trkpt><trkpt lat="45.02129" lon="11.6479017"><ele>4.571428571428571</ele><time>2026-03-22T10:44:26.163Z</time></trkpt><trkpt lat="45.0212883" lon="11.6478017"><ele>4.428571428571429</ele><time>2026-03-22T10:44:27.165Z</time></trkpt><trkpt lat="45.0212867" lon="11.6477"><ele>4.285714285714286</ele><time>2026-03-22T10:44:28.167Z</time></trkpt><trkpt lat="45.0212867" lon="11.6476"><ele>4.142857142857142</ele><time>2026-03-22T10:44:29.166Z</time></trkpt><trkpt lat="45.0212867" lon="11.6474983"><ele>4.0</ele><time>2026-03-22T10:44:30.161Z</time></trkpt><trkpt lat="45.021285" lon="11.6473983"><ele>4.0</ele><time>2026-03-22T10:44:31.148Z</time></trkpt><trkpt lat="45.0212817" lon="11.6472967"><ele>3.9999999999999996</ele><time>2026-03-22T10:44:32.16Z</time></trkpt><trkpt lat="45.0212783" lon="11.6471917"><ele>4.0</ele><time>2026-03-22T10:44:33.168Z</time></trkpt><trkpt lat="45.0212783" lon="11.6470867"><ele>4.0</ele><time>2026-03-22T10:44:34.15Z</time></trkpt><trkpt lat="45.0212783" lon="11.6469833"><ele>3.9999999999999996</ele><time>2026-03-22T10:44:35.168Z</time></trkpt><trkpt lat="45.0212783" lon="11.64688"><ele>4.0</ele><time>2026-03-22T10:44:36.157Z</time></trkpt><trkpt lat="45.0212767" lon="11.646775"><ele>4.0</ele><time>2026-03-22T10:44:37.163Z</time></trkpt><trkpt lat="45.0212767" lon="11.64667"><ele>3.8571428571428568</ele><time>2026-03-22T10:44:38.163Z</time></trkpt><trkpt lat="45.021275" lon="11.6465667"><ele>3.714285714285714</ele><time>2026-03-22T10:44:39.168Z</time></trkpt><trkpt lat="45.0212733" lon="11.6464617"><ele>3.571428571428571</ele><time>2026-03-22T10:44:40.163Z</time></trkpt><trkpt lat="45.02127" lon="11.6463583"><ele>3.4285714285714284</ele><time>2026-03-22T10:44:41.163Z</time></trkpt><trkpt lat="45.021265" lon="11.6462533"><ele>3.2857142857142856</ele><time>2026-03-22T10:44:42.166Z</time></trkpt><trkpt lat="45.0212617" lon="11.6461483"><ele>3.1428571428571423</ele><time>2026-03-22T10:44:43.167Z</time></trkpt><trkpt lat="45.02126" lon="11.6460433"><ele>3.0</ele><time>2026-03-22T10:44:44.166Z</time></trkpt><trkpt lat="45.0212583" lon="11.6459383"><ele>3.0</ele><time>2026-03-22T10:44:45.15Z</time></trkpt><trkpt lat="45.0212583" lon="11.6458317"><ele>3.0</ele><time>2026-03-22T10:44:46.161Z</time></trkpt><trkpt lat="45.0212583" lon="11.6457267"><ele>3.0</ele><time>2026-03-22T10:44:47.158Z</time></trkpt><trkpt lat="45.0212633" lon="11.6456183"><ele>3.0</ele><time>2026-03-22T10:44:48.163Z</time></trkpt><trkpt lat="45.0212667" lon="11.6455117"><ele>3.0</ele><time>2026-03-22T10:44:49.164Z</time></trkpt><trkpt lat="45.0212683" lon="11.6454033"><ele>3.0</ele><time>2026-03-22T10:44:50.133Z</time></trkpt><trkpt lat="45.02127" lon="11.6452967"><ele>3.1428571428571423</ele><time>2026-03-22T10:44:51.166Z</time></trkpt><trkpt lat="45.0212717" lon="11.6451933"><ele>3.2857142857142856</ele><time>2026-03-22T10:44:52.161Z</time></trkpt><trkpt lat="45.021275" lon="11.6450917"><ele>3.4285714285714284</ele><time>2026-03-22T10:44:53.163Z</time></trkpt><trkpt lat="45.0212783" lon="11.6449917"><ele>3.571428571428571</ele><time>2026-03-22T10:44:54.164Z</time></trkpt><trkpt lat="45.0212817" lon="11.6448983"><ele>3.714285714285714</ele><time>2026-03-22T10:44:55.141Z</time></trkpt><trkpt lat="45.021285" lon="11.6448067"><ele>3.8571428571428568</ele><time>2026-03-22T10:44:56.16Z</time></trkpt><trkpt lat="45.021285" lon="11.644715"><ele>4.0</ele><time>2026-03-22T10:44:57.166Z</time></trkpt><trkpt lat="45.0212867" lon="11.64462"><ele>3.9999999999999996</ele><time>2026-03-22T10:44:58.169Z</time></trkpt><trkpt lat="45.0212917" lon="11.6445183"><ele>4.0</ele><time>2026-03-22T10:44:59.164Z</time></trkpt><trkpt lat="45.0212967" lon="11.64441"><ele>4.0</ele><time>2026-03-22T10:45:00.163Z</time></trkpt><trkpt lat="45.0213033" lon="11.6443017"><ele>4.0</ele><time>2026-03-22T10:45:01.157Z</time></trkpt><trkpt lat="45.02131" lon="11.644195"><ele>3.9999999999999996</ele><time>2026-03-22T10:45:02.168Z</time></trkpt><trkpt lat="45.0213167" lon="11.6440867"><ele>4.0</ele><time>2026-03-22T10:45:03.16Z</time></trkpt><trkpt lat="45.0213233" lon="11.64398"><ele>4.0</ele><time>2026-03-22T10:45:04.162Z</time></trkpt><trkpt lat="45.0213317" lon="11.6438733"><ele>3.9999999999999996</ele><time>2026-03-22T10:45:05.167Z</time></trkpt><trkpt lat="45.02134" lon="11.64377"><ele>4.0</ele><time>2026-03-22T10:45:06.142Z</time></trkpt><trkpt lat="45.0213483" lon="11.643665"><ele>4.0</ele><time>2026-03-22T10:45:07.139Z</time></trkpt><trkpt lat="45.0213583" lon="11.6435617"><ele>3.9999999999999996</ele><time>2026-03-22T10:45:08.158Z</time></trkpt><trkpt lat="45.0213683" lon="11.64346"><ele>4.0</ele><time>2026-03-22T10:45:09.163Z</time></trkpt><trkpt lat="45.0213767" lon="11.64336"><ele>4.0</ele><time>2026-03-22T10:45:10.168Z</time></trkpt><trkpt lat="45.0213883" lon="11.64326"><ele>4.0</ele><time>2026-03-22T10:45:11.167Z</time></trkpt><trkpt lat="45.0214" lon="11.6431583"><ele>3.9999999999999996</ele><time>2026-03-22T10:45:12.167Z</time></trkpt><trkpt lat="45.02141" lon="11.643055"><ele>4.0</ele><time>2026-03-22T10:45:13.158Z</time></trkpt><trkpt lat="45.0214183" lon="11.6429517"><ele>4.0</ele><time>2026-03-22T10:45:14.161Z</time></trkpt><trkpt lat="45.021425" lon="11.6428483"><ele>3.9999999999999996</ele><time>2026-03-22T10:45:15.165Z</time></trkpt><trkpt lat="45.0214317" lon="11.642745"><ele>4.0</ele><time>2026-03-22T10:45:16.165Z</time></trkpt><trkpt lat="45.0214383" lon="11.6426417"><ele>4.0</ele><time>2026-03-22T10:45:17.165Z</time></trkpt><trkpt lat="45.0214483" lon="11.64254"><ele>4.0</ele><time>2026-03-22T10:45:18.16Z</time></trkpt><trkpt lat="45.0214567" lon="11.6424383"><ele>3.9999999999999996</ele><time>2026-03-22T10:45:19.153Z</time></trkpt><trkpt lat="45.021465" lon="11.6423383"><ele>4.0</ele><time>2026-03-22T10:45:20.17Z</time></trkpt><trkpt lat="45.0214717" lon="11.6422383"><ele>4.0</ele><time>2026-03-22T10:45:21.165Z</time></trkpt><trkpt lat="45.0214767" lon="11.64214"><ele>3.9999999999999996</ele><time>2026-03-22T10:45:22.142Z</time></trkpt><trkpt lat="45.0214833" lon="11.6420383"><ele>4.0</ele><time>2026-03-22T10:45:23.164Z</time></trkpt><trkpt lat="45.0214883" lon="11.64194"><ele>4.0</ele><time>2026-03-22T10:45:24.175Z</time></trkpt><trkpt lat="45.0214967" lon="11.6418433"><ele>4.142857142857142</ele><time>2026-03-22T10:45:25.173Z</time></trkpt><trkpt lat="45.0215083" lon="11.6417467"><ele>4.285714285714286</ele><time>2026-03-22T10:45:26.168Z</time></trkpt><trkpt lat="45.02152" lon="11.64165"><ele>4.428571428571429</ele><time>2026-03-22T10:45:27.163Z</time></trkpt><trkpt lat="45.0215317" lon="11.6415567"><ele>4.571428571428571</ele><time>2026-03-22T10:45:28.155Z</time></trkpt><trkpt lat="45.0215433" lon="11.6414617"><ele>4.714285714285714</ele><time>2026-03-22T10:45:29.164Z</time></trkpt><trkpt lat="45.0215567" lon="11.64137"><ele>4.857142857142857</ele><time>2026-03-22T10:45:30.168Z</time></trkpt><trkpt lat="45.0215683" lon="11.6412817"><ele>5.0</ele><time>2026-03-22T10:45:31.167Z</time></trkpt><trkpt lat="45.0215783" lon="11.6411933"><ele>5.5</ele><time>2026-03-22T10:45:32.168Z</time></trkpt><trkpt lat="45.0215983" lon="11.641025"><ele>6.0</ele><time>2026-03-22T10:45:34.166Z</time></trkpt><trkpt lat="45.021615" lon="11.6408617"><ele>6.5</ele><time>2026-03-22T10:45:36.17Z</time></trkpt><trkpt lat="45.0216317" lon="11.640705"><ele>7.0</ele><time>2026-03-22T10:45:38.141Z</time></trkpt><trkpt lat="45.0216517" lon="11.64056"><ele>7.0</ele><time>2026-03-22T10:45:40.159Z</time></trkpt><trkpt lat="45.0217417" lon="11.6404833"><ele>6.999999999999999</ele><time>2026-03-22T10:45:43.164Z</time></trkpt><trkpt lat="45.0218167" lon="11.640505"><ele>6.999999999999999</ele><time>2026-03-22T10:45:45.139Z</time></trkpt><trkpt lat="45.0219017" lon="11.6405367"><ele>7.0</ele><time>2026-03-22T10:45:47.149Z</time></trkpt><trkpt lat="45.0219983" lon="11.640565"><ele>7.0</ele><time>2026-03-22T10:45:49.163Z</time></trkpt><trkpt lat="45.0221" lon="11.640595"><ele>7.0</ele><time>2026-03-22T10:45:51.159Z</time></trkpt><trkpt lat="45.0222017" lon="11.6406217"><ele>6.999999999999999</ele><time>2026-03-22T10:45:53.165Z</time></trkpt><trkpt lat="45.0222983" lon="11.64065"><ele>6.999999999999999</ele><time>2026-03-22T10:45:55.164Z</time></trkpt><trkpt lat="45.022395" lon="11.64068"><ele>7.0</ele><time>2026-03-22T10:45:57.166Z</time></trkpt><trkpt lat="45.0224833" lon="11.6407"><ele>7.0</ele><time>2026-03-22T10:45:59.167Z</time></trkpt><trkpt lat="45.0225767" lon="11.640725"><ele>7.0</ele><time>2026-03-22T10:46:01.231Z</time></trkpt><trkpt lat="45.0226717" lon="11.6407517"><ele>6.999999999999999</ele><time>2026-03-22T10:46:03.168Z</time></trkpt><trkpt lat="45.02277" lon="11.6407867"><ele>6.999999999999999</ele><time>2026-03-22T10:46:05.168Z</time></trkpt><trkpt lat="45.0228667" lon="11.6408183"><ele>7.0</ele><time>2026-03-22T10:46:07.167Z</time></trkpt><trkpt lat="45.022965" lon="11.64085"><ele>7.0</ele><time>2026-03-22T10:46:09.132Z</time></trkpt><trkpt lat="45.0230617" lon="11.64088"><ele>7.0</ele><time>2026-03-22T10:46:11.172Z</time></trkpt><trkpt lat="45.0231567" lon="11.6409183"><ele>6.999999999999999</ele><time>2026-03-22T10:46:13.152Z</time></trkpt><trkpt lat="45.02326" lon="11.6409517"><ele>6.999999999999999</ele><time>2026-03-22T10:46:15.165Z</time></trkpt><trkpt lat="45.023365" lon="11.640985"><ele>7.0</ele><time>2026-03-22T10:46:17.164Z</time></trkpt><trkpt lat="45.0234633" lon="11.6410167"><ele>7.0</ele><time>2026-03-22T10:46:19.168Z</time></trkpt><trkpt lat="45.02356" lon="11.641035"><ele>7.0</ele><time>2026-03-22T10:46:21.166Z</time></trkpt><trkpt lat="45.0236683" lon="11.6410517"><ele>6.999999999999999</ele><time>2026-03-22T10:46:23.161Z</time></trkpt><trkpt lat="45.02378" lon="11.641065"><ele>6.999999999999999</ele><time>2026-03-22T10:46:25.162Z</time></trkpt><trkpt lat="45.02389" lon="11.6410667"><ele>7.0</ele><time>2026-03-22T10:46:27.166Z</time></trkpt><trkpt lat="45.0239883" lon="11.6410533"><ele>7.0</ele><time>2026-03-22T10:46:29.172Z</time></trkpt><trkpt lat="45.0240783" lon="11.6410317"><ele>7.0</ele><time>2026-03-22T10:46:31.154Z</time></trkpt><trkpt lat="45.0241717" lon="11.6410067"><ele>6.999999999999999</ele><time>2026-03-22T10:46:33.163Z</time></trkpt><trkpt lat="45.0242583" lon="11.640975"><ele>6.999999999999999</ele><time>2026-03-22T10:46:35.145Z</time></trkpt><trkpt lat="45.02435" lon="11.64094"><ele>7.0</ele><time>2026-03-22T10:46:37.157Z</time></trkpt><trkpt lat="45.024445" lon="11.6409117"><ele>7.0</ele><time>2026-03-22T10:46:39.173Z</time></trkpt><trkpt lat="45.024535" lon="11.6408767"><ele>7.000000000000001</ele><time>2026-03-22T10:46:41.17Z</time></trkpt><trkpt lat="45.0246233" lon="11.6408433"><ele>7.0</ele><time>2026-03-22T10:46:43.176Z</time></trkpt><trkpt lat="45.02471" lon="11.6408117"><ele>7.0</ele><time>2026-03-22T10:46:45.164Z</time></trkpt><trkpt lat="45.0247883" lon="11.6407767"><ele>7.0</ele><time>2026-03-22T10:46:47.17Z</time></trkpt><trkpt lat="45.0248633" lon="11.64074"><ele>7.000000000000001</ele><time>2026-03-22T10:46:49.166Z</time></trkpt><trkpt lat="45.0249333" lon="11.640705"><ele>7.0</ele><time>2026-03-22T10:46:51.166Z</time></trkpt><trkpt lat="45.0249967" lon="11.6406633"><ele>7.0</ele><time>2026-03-22T10:46:53.148Z</time></trkpt><trkpt lat="45.0250567" lon="11.6406217"><ele>7.0</ele><time>2026-03-22T10:46:55.152Z</time></trkpt><trkpt lat="45.0251194" lon="11.6406638"><ele>7.0</ele><time>2026-03-22T10:47:33.192Z</time></trkpt><trkpt lat="45.0251822" lon="11.6406317"><ele>7.0</ele><time>2026-03-22T10:48:09.152Z</time></trkpt></trkseg></trk></gpx>